<?xml version="1.0" encoding="UTF-8" standalone="no" ?>
<gpx xmlns="http://www.topografix.com/GPX/1/1" xmlns:xsi="http://www.w3.org/2001/XMLSchema-instance" xsi:schemaLocation="http://www.topografix.com/GPX/1/1 http://www.topografix.com/GPX/1/1/gpx.xsd" version="1.1" creator="VisuGPX - https://www.visugpx.com">
  <metadata>
    <name>HRP2023-J12</name>
  </metadata>
  <trk>
    <name><![CDATA[HRP2023-J12]]></name>
    <extensions>
      <line xmlns="http://www.topografix.com/GPX/gpx_style/0/2">
        <color>0000FF</color>
        <width>4</width>
      </line>
    </extensions>
    <trkseg>
      <trkpt lat="42.70405" lon="1.30638">
        <ele>2238.3999023438</ele>
        <time>2023-07-25T05:17:01.000Z</time>
      </trkpt>
      <trkpt lat="42.70403" lon="1.30625">
        <ele>2239</ele>
        <time>2023-07-25T05:17:07.000Z</time>
      </trkpt>
      <trkpt lat="42.70401" lon="1.30623">
        <ele>2239</ele>
        <time>2023-07-25T05:17:14.000Z</time>
      </trkpt>
      <trkpt lat="42.70402" lon="1.30629">
        <ele>2238.8000488281</ele>
        <time>2023-07-25T05:17:21.000Z</time>
      </trkpt>
      <trkpt lat="42.70401" lon="1.30622">
        <ele>2238.8000488281</ele>
        <time>2023-07-25T05:17:26.000Z</time>
      </trkpt>
      <trkpt lat="42.70401" lon="1.30615">
        <ele>2239.3999023438</ele>
        <time>2023-07-25T05:17:31.000Z</time>
      </trkpt>
      <trkpt lat="42.70401" lon="1.30614">
        <ele>2239.6000976562</ele>
        <time>2023-07-25T05:17:32.000Z</time>
      </trkpt>
      <trkpt lat="42.704" lon="1.3061">
        <ele>2240.1999511719</ele>
        <time>2023-07-25T05:17:38.000Z</time>
      </trkpt>
      <trkpt lat="42.70399" lon="1.30606">
        <ele>2240</ele>
        <time>2023-07-25T05:17:44.000Z</time>
      </trkpt>
      <trkpt lat="42.70398" lon="1.30602">
        <ele>2240.8000488281</ele>
        <time>2023-07-25T05:17:48.000Z</time>
      </trkpt>
      <trkpt lat="42.70398" lon="1.30598">
        <ele>2241.1999511719</ele>
        <time>2023-07-25T05:17:52.000Z</time>
      </trkpt>
      <trkpt lat="42.70397" lon="1.30593">
        <ele>2241.8000488281</ele>
        <time>2023-07-25T05:17:56.000Z</time>
      </trkpt>
      <trkpt lat="42.70395" lon="1.30591">
        <ele>2242.3999023438</ele>
        <time>2023-07-25T05:18:00.000Z</time>
      </trkpt>
      <trkpt lat="42.70395" lon="1.3059">
        <ele>2242.8000488281</ele>
        <time>2023-07-25T05:18:04.000Z</time>
      </trkpt>
      <trkpt lat="42.70396" lon="1.30589">
        <ele>2243.1999511719</ele>
        <time>2023-07-25T05:18:06.000Z</time>
      </trkpt>
      <trkpt lat="42.704" lon="1.30586">
        <ele>2242.8000488281</ele>
        <time>2023-07-25T05:18:14.000Z</time>
      </trkpt>
      <trkpt lat="42.70402" lon="1.3058">
        <ele>2244</ele>
        <time>2023-07-25T05:18:20.000Z</time>
      </trkpt>
      <trkpt lat="42.70402" lon="1.3058">
        <ele>2244.1999511719</ele>
        <time>2023-07-25T05:18:21.000Z</time>
      </trkpt>
      <trkpt lat="42.70403" lon="1.30577">
        <ele>2245</ele>
        <time>2023-07-25T05:18:25.000Z</time>
      </trkpt>
      <trkpt lat="42.70403" lon="1.30577">
        <ele>2245.6000976562</ele>
        <time>2023-07-25T05:18:31.000Z</time>
      </trkpt>
      <trkpt lat="42.70401" lon="1.30576">
        <ele>2246</ele>
        <time>2023-07-25T05:18:36.000Z</time>
      </trkpt>
      <trkpt lat="42.70401" lon="1.30572">
        <ele>2246.3999023438</ele>
        <time>2023-07-25T05:18:40.000Z</time>
      </trkpt>
      <trkpt lat="42.70401" lon="1.30571">
        <ele>2247.1999511719</ele>
        <time>2023-07-25T05:18:42.000Z</time>
      </trkpt>
      <trkpt lat="42.70401" lon="1.30566">
        <ele>2248.3999023438</ele>
        <time>2023-07-25T05:18:47.000Z</time>
      </trkpt>
      <trkpt lat="42.70401" lon="1.30565">
        <ele>2248.8000488281</ele>
        <time>2023-07-25T05:18:48.000Z</time>
      </trkpt>
      <trkpt lat="42.70402" lon="1.3056">
        <ele>2248.8000488281</ele>
        <time>2023-07-25T05:18:56.000Z</time>
      </trkpt>
      <trkpt lat="42.70403" lon="1.30558">
        <ele>2249.6000976562</ele>
        <time>2023-07-25T05:19:01.000Z</time>
      </trkpt>
      <trkpt lat="42.70405" lon="1.30556">
        <ele>2250</ele>
        <time>2023-07-25T05:19:04.000Z</time>
      </trkpt>
      <trkpt lat="42.70406" lon="1.30551">
        <ele>2250.6000976562</ele>
        <time>2023-07-25T05:19:12.000Z</time>
      </trkpt>
      <trkpt lat="42.70407" lon="1.30548">
        <ele>2251.6000976562</ele>
        <time>2023-07-25T05:19:16.000Z</time>
      </trkpt>
      <trkpt lat="42.70408" lon="1.30544">
        <ele>2252</ele>
        <time>2023-07-25T05:19:20.000Z</time>
      </trkpt>
      <trkpt lat="42.70409" lon="1.30543">
        <ele>2252.8000488281</ele>
        <time>2023-07-25T05:19:23.000Z</time>
      </trkpt>
      <trkpt lat="42.70411" lon="1.30539">
        <ele>2252.6000976562</ele>
        <time>2023-07-25T05:19:27.000Z</time>
      </trkpt>
      <trkpt lat="42.70412" lon="1.30537">
        <ele>2251.6000976562</ele>
        <time>2023-07-25T05:19:31.000Z</time>
      </trkpt>
      <trkpt lat="42.70413" lon="1.30536">
        <ele>2251.1999511719</ele>
        <time>2023-07-25T05:19:33.000Z</time>
      </trkpt>
      <trkpt lat="42.70415" lon="1.30532">
        <ele>2250.6000976562</ele>
        <time>2023-07-25T05:19:37.000Z</time>
      </trkpt>
      <trkpt lat="42.70416" lon="1.30529">
        <ele>2250.3999023438</ele>
        <time>2023-07-25T05:19:39.000Z</time>
      </trkpt>
      <trkpt lat="42.7042" lon="1.3052">
        <ele>2250.1999511719</ele>
        <time>2023-07-25T05:19:46.000Z</time>
      </trkpt>
      <trkpt lat="42.70423" lon="1.3051">
        <ele>2251</ele>
        <time>2023-07-25T05:19:54.000Z</time>
      </trkpt>
      <trkpt lat="42.70425" lon="1.30501">
        <ele>2250.3999023438</ele>
        <time>2023-07-25T05:20:01.000Z</time>
      </trkpt>
      <trkpt lat="42.70429" lon="1.30501">
        <ele>2249.8000488281</ele>
        <time>2023-07-25T05:20:09.000Z</time>
      </trkpt>
      <trkpt lat="42.70429" lon="1.30501">
        <ele>2249.6000976562</ele>
        <time>2023-07-25T05:20:15.000Z</time>
      </trkpt>
      <trkpt lat="42.70429" lon="1.30501">
        <ele>2249.6000976562</ele>
        <time>2023-07-25T05:20:16.000Z</time>
      </trkpt>
      <trkpt lat="42.70425" lon="1.30502">
        <ele>2250</ele>
        <time>2023-07-25T05:20:25.000Z</time>
      </trkpt>
      <trkpt lat="42.70426" lon="1.30504">
        <ele>2249.6000976562</ele>
        <time>2023-07-25T05:20:35.000Z</time>
      </trkpt>
      <trkpt lat="42.70431" lon="1.30502">
        <ele>2249.3999023438</ele>
        <time>2023-07-25T05:20:42.000Z</time>
      </trkpt>
      <trkpt lat="42.70434" lon="1.30498">
        <ele>2249.8000488281</ele>
        <time>2023-07-25T05:20:50.000Z</time>
      </trkpt>
      <trkpt lat="42.70438" lon="1.30493">
        <ele>2250.1999511719</ele>
        <time>2023-07-25T05:20:58.000Z</time>
      </trkpt>
      <trkpt lat="42.70438" lon="1.30492">
        <ele>2248.1999511719</ele>
        <time>2023-07-25T05:21:02.000Z</time>
      </trkpt>
      <trkpt lat="42.70438" lon="1.30492">
        <ele>2247.1999511719</ele>
        <time>2023-07-25T05:21:04.000Z</time>
      </trkpt>
      <trkpt lat="42.70439" lon="1.30492">
        <ele>2247.1999511719</ele>
        <time>2023-07-25T05:21:06.000Z</time>
      </trkpt>
      <trkpt lat="42.70438" lon="1.30493">
        <ele>2246.3999023438</ele>
        <time>2023-07-25T05:21:15.000Z</time>
      </trkpt>
      <trkpt lat="42.70438" lon="1.30492">
        <ele>2246.3999023438</ele>
        <time>2023-07-25T05:21:22.000Z</time>
      </trkpt>
      <trkpt lat="42.70437" lon="1.3049">
        <ele>2246.8000488281</ele>
        <time>2023-07-25T05:21:34.000Z</time>
      </trkpt>
      <trkpt lat="42.70436" lon="1.30486">
        <ele>2246.6000976562</ele>
        <time>2023-07-25T05:21:41.000Z</time>
      </trkpt>
      <trkpt lat="42.70436" lon="1.30486">
        <ele>2246.1999511719</ele>
        <time>2023-07-25T05:21:43.000Z</time>
      </trkpt>
      <trkpt lat="42.70437" lon="1.3049">
        <ele>2245.1999511719</ele>
        <time>2023-07-25T05:21:49.000Z</time>
      </trkpt>
      <trkpt lat="42.70437" lon="1.30491">
        <ele>2245</ele>
        <time>2023-07-25T05:21:50.000Z</time>
      </trkpt>
      <trkpt lat="42.70438" lon="1.30494">
        <ele>2245.6000976562</ele>
        <time>2023-07-25T05:21:56.000Z</time>
      </trkpt>
      <trkpt lat="42.70437" lon="1.30496">
        <ele>2246.3999023438</ele>
        <time>2023-07-25T05:22:06.000Z</time>
      </trkpt>
      <trkpt lat="42.70438" lon="1.30492">
        <ele>2245.1999511719</ele>
        <time>2023-07-25T05:22:18.000Z</time>
      </trkpt>
      <trkpt lat="42.70439" lon="1.3049">
        <ele>2244.6000976562</ele>
        <time>2023-07-25T05:22:28.000Z</time>
      </trkpt>
      <trkpt lat="42.7044" lon="1.3049">
        <ele>2244.6000976562</ele>
        <time>2023-07-25T05:22:30.000Z</time>
      </trkpt>
      <trkpt lat="42.70442" lon="1.30491">
        <ele>2245</ele>
        <time>2023-07-25T05:22:40.000Z</time>
      </trkpt>
      <trkpt lat="42.7044" lon="1.30491">
        <ele>2245</ele>
        <time>2023-07-25T05:22:50.000Z</time>
      </trkpt>
      <trkpt lat="42.70439" lon="1.3049">
        <ele>2244.8000488281</ele>
        <time>2023-07-25T05:22:59.000Z</time>
      </trkpt>
      <trkpt lat="42.7044" lon="1.30493">
        <ele>2244.8000488281</ele>
        <time>2023-07-25T05:23:06.000Z</time>
      </trkpt>
      <trkpt lat="42.70438" lon="1.30494">
        <ele>2244.8000488281</ele>
        <time>2023-07-25T05:23:16.000Z</time>
      </trkpt>
      <trkpt lat="42.70439" lon="1.30495">
        <ele>2244</ele>
        <time>2023-07-25T05:23:26.000Z</time>
      </trkpt>
      <trkpt lat="42.70438" lon="1.30494">
        <ele>2243.8000488281</ele>
        <time>2023-07-25T05:23:37.000Z</time>
      </trkpt>
      <trkpt lat="42.70439" lon="1.30493">
        <ele>2244.6000976562</ele>
        <time>2023-07-25T05:23:46.000Z</time>
      </trkpt>
      <trkpt lat="42.70441" lon="1.30492">
        <ele>2244.8000488281</ele>
        <time>2023-07-25T05:23:54.000Z</time>
      </trkpt>
      <trkpt lat="42.7044" lon="1.30494">
        <ele>2244.3999023438</ele>
        <time>2023-07-25T05:24:04.000Z</time>
      </trkpt>
      <trkpt lat="42.7044" lon="1.30493">
        <ele>2244.3999023438</ele>
        <time>2023-07-25T05:24:14.000Z</time>
      </trkpt>
      <trkpt lat="42.7044" lon="1.30493">
        <ele>2244</ele>
        <time>2023-07-25T05:24:22.000Z</time>
      </trkpt>
      <trkpt lat="42.70438" lon="1.30492">
        <ele>2243.6000976562</ele>
        <time>2023-07-25T05:24:32.000Z</time>
      </trkpt>
      <trkpt lat="42.70438" lon="1.30492">
        <ele>2243.6000976562</ele>
        <time>2023-07-25T05:24:37.000Z</time>
      </trkpt>
      <trkpt lat="42.70439" lon="1.30492">
        <ele>2243.3999023438</ele>
        <time>2023-07-25T05:24:40.000Z</time>
      </trkpt>
      <trkpt lat="42.70438" lon="1.30492">
        <ele>2243.3999023438</ele>
        <time>2023-07-25T05:24:47.000Z</time>
      </trkpt>
      <trkpt lat="42.70442" lon="1.30493">
        <ele>2243.3999023438</ele>
        <time>2023-07-25T05:24:55.000Z</time>
      </trkpt>
      <trkpt lat="42.7044" lon="1.3049">
        <ele>2243.3999023438</ele>
        <time>2023-07-25T05:25:03.000Z</time>
      </trkpt>
      <trkpt lat="42.7044" lon="1.30491">
        <ele>2243.3999023438</ele>
        <time>2023-07-25T05:25:13.000Z</time>
      </trkpt>
      <trkpt lat="42.7044" lon="1.30491">
        <ele>2243.1999511719</ele>
        <time>2023-07-25T05:25:21.000Z</time>
      </trkpt>
      <trkpt lat="42.70441" lon="1.30493">
        <ele>2243.1999511719</ele>
        <time>2023-07-25T05:25:29.000Z</time>
      </trkpt>
      <trkpt lat="42.7044" lon="1.30496">
        <ele>2243.1999511719</ele>
        <time>2023-07-25T05:25:38.000Z</time>
      </trkpt>
      <trkpt lat="42.70441" lon="1.30492">
        <ele>2243.1999511719</ele>
        <time>2023-07-25T05:25:48.000Z</time>
      </trkpt>
      <trkpt lat="42.70441" lon="1.30491">
        <ele>2243.3999023438</ele>
        <time>2023-07-25T05:25:56.000Z</time>
      </trkpt>
      <trkpt lat="42.7044" lon="1.30491">
        <ele>2243.3999023438</ele>
        <time>2023-07-25T05:26:05.000Z</time>
      </trkpt>
      <trkpt lat="42.7044" lon="1.30491">
        <ele>2243.6000976562</ele>
        <time>2023-07-25T05:26:14.000Z</time>
      </trkpt>
      <trkpt lat="42.7044" lon="1.30492">
        <ele>2243.8000488281</ele>
        <time>2023-07-25T05:26:23.000Z</time>
      </trkpt>
      <trkpt lat="42.7044" lon="1.30494">
        <ele>2243.6000976562</ele>
        <time>2023-07-25T05:26:30.000Z</time>
      </trkpt>
      <trkpt lat="42.70439" lon="1.30493">
        <ele>2243.6000976562</ele>
        <time>2023-07-25T05:26:38.000Z</time>
      </trkpt>
      <trkpt lat="42.7044" lon="1.30492">
        <ele>2243</ele>
        <time>2023-07-25T05:26:46.000Z</time>
      </trkpt>
      <trkpt lat="42.7044" lon="1.30492">
        <ele>2243.3999023438</ele>
        <time>2023-07-25T05:26:54.000Z</time>
      </trkpt>
      <trkpt lat="42.70439" lon="1.30494">
        <ele>2243.3999023438</ele>
        <time>2023-07-25T05:26:59.000Z</time>
      </trkpt>
      <trkpt lat="42.70441" lon="1.30493">
        <ele>2243.8000488281</ele>
        <time>2023-07-25T05:27:06.000Z</time>
      </trkpt>
      <trkpt lat="42.70439" lon="1.30492">
        <ele>2243.6000976562</ele>
        <time>2023-07-25T05:27:13.000Z</time>
      </trkpt>
      <trkpt lat="42.7044" lon="1.30484">
        <ele>2243.6000976562</ele>
        <time>2023-07-25T05:27:21.000Z</time>
      </trkpt>
      <trkpt lat="42.7044" lon="1.30473">
        <ele>2242.8000488281</ele>
        <time>2023-07-25T05:27:29.000Z</time>
      </trkpt>
      <trkpt lat="42.7044" lon="1.30472">
        <ele>2242.3999023438</ele>
        <time>2023-07-25T05:27:30.000Z</time>
      </trkpt>
      <trkpt lat="42.7044" lon="1.30469">
        <ele>2241.6000976562</ele>
        <time>2023-07-25T05:27:38.000Z</time>
      </trkpt>
      <trkpt lat="42.70441" lon="1.30468">
        <ele>2241</ele>
        <time>2023-07-25T05:27:39.000Z</time>
      </trkpt>
      <trkpt lat="42.7044" lon="1.30463">
        <ele>2239.8000488281</ele>
        <time>2023-07-25T05:27:46.000Z</time>
      </trkpt>
      <trkpt lat="42.7044" lon="1.30461">
        <ele>2238.6000976562</ele>
        <time>2023-07-25T05:27:49.000Z</time>
      </trkpt>
      <trkpt lat="42.70439" lon="1.30457">
        <ele>2237.6000976562</ele>
        <time>2023-07-25T05:27:52.000Z</time>
      </trkpt>
      <trkpt lat="42.70439" lon="1.30457">
        <ele>2237</ele>
        <time>2023-07-25T05:27:53.000Z</time>
      </trkpt>
      <trkpt lat="42.70439" lon="1.30456">
        <ele>2236.3999023438</ele>
        <time>2023-07-25T05:27:56.000Z</time>
      </trkpt>
      <trkpt lat="42.70438" lon="1.30453">
        <ele>2235</ele>
        <time>2023-07-25T05:27:59.000Z</time>
      </trkpt>
      <trkpt lat="42.70438" lon="1.30452">
        <ele>2235</ele>
        <time>2023-07-25T05:28:00.000Z</time>
      </trkpt>
      <trkpt lat="42.70438" lon="1.30442">
        <ele>2234.3999023438</ele>
        <time>2023-07-25T05:28:08.000Z</time>
      </trkpt>
      <trkpt lat="42.70437" lon="1.30436">
        <ele>2235.3999023438</ele>
        <time>2023-07-25T05:28:16.000Z</time>
      </trkpt>
      <trkpt lat="42.70436" lon="1.30433">
        <ele>2236.3999023438</ele>
        <time>2023-07-25T05:28:19.000Z</time>
      </trkpt>
      <trkpt lat="42.70437" lon="1.30431">
        <ele>2236.6000976562</ele>
        <time>2023-07-25T05:28:22.000Z</time>
      </trkpt>
      <trkpt lat="42.7044" lon="1.30423">
        <ele>2236.1999511719</ele>
        <time>2023-07-25T05:28:29.000Z</time>
      </trkpt>
      <trkpt lat="42.70438" lon="1.30424">
        <ele>2235.6000976562</ele>
        <time>2023-07-25T05:28:36.000Z</time>
      </trkpt>
      <trkpt lat="42.70439" lon="1.30426">
        <ele>2236</ele>
        <time>2023-07-25T05:28:45.000Z</time>
      </trkpt>
      <trkpt lat="42.7044" lon="1.30425">
        <ele>2236.6000976562</ele>
        <time>2023-07-25T05:28:51.000Z</time>
      </trkpt>
      <trkpt lat="42.70438" lon="1.30425">
        <ele>2236.3999023438</ele>
        <time>2023-07-25T05:29:01.000Z</time>
      </trkpt>
      <trkpt lat="42.70437" lon="1.30422">
        <ele>2236.1999511719</ele>
        <time>2023-07-25T05:29:10.000Z</time>
      </trkpt>
      <trkpt lat="42.70439" lon="1.30423">
        <ele>2236</ele>
        <time>2023-07-25T05:29:18.000Z</time>
      </trkpt>
      <trkpt lat="42.70438" lon="1.30419">
        <ele>2236.1999511719</ele>
        <time>2023-07-25T05:29:25.000Z</time>
      </trkpt>
      <trkpt lat="42.7044" lon="1.30412">
        <ele>2236.1999511719</ele>
        <time>2023-07-25T05:29:31.000Z</time>
      </trkpt>
      <trkpt lat="42.70442" lon="1.30406">
        <ele>2235.3999023438</ele>
        <time>2023-07-25T05:29:38.000Z</time>
      </trkpt>
      <trkpt lat="42.70443" lon="1.30396">
        <ele>2236.1999511719</ele>
        <time>2023-07-25T05:29:47.000Z</time>
      </trkpt>
      <trkpt lat="42.70442" lon="1.30385">
        <ele>2236.6000976562</ele>
        <time>2023-07-25T05:29:55.000Z</time>
      </trkpt>
      <trkpt lat="42.70444" lon="1.30383">
        <ele>2236.1999511719</ele>
        <time>2023-07-25T05:30:01.000Z</time>
      </trkpt>
      <trkpt lat="42.70446" lon="1.30372">
        <ele>2236</ele>
        <time>2023-07-25T05:30:10.000Z</time>
      </trkpt>
      <trkpt lat="42.70446" lon="1.30366">
        <ele>2237.3999023438</ele>
        <time>2023-07-25T05:30:17.000Z</time>
      </trkpt>
      <trkpt lat="42.70446" lon="1.30364">
        <ele>2237.3999023438</ele>
        <time>2023-07-25T05:30:18.000Z</time>
      </trkpt>
      <trkpt lat="42.70445" lon="1.30358">
        <ele>2238.1999511719</ele>
        <time>2023-07-25T05:30:25.000Z</time>
      </trkpt>
      <trkpt lat="42.70445" lon="1.30352">
        <ele>2237.8000488281</ele>
        <time>2023-07-25T05:30:32.000Z</time>
      </trkpt>
      <trkpt lat="42.70444" lon="1.30353">
        <ele>2236.3999023438</ele>
        <time>2023-07-25T05:30:38.000Z</time>
      </trkpt>
      <trkpt lat="42.70444" lon="1.30353">
        <ele>2236.1999511719</ele>
        <time>2023-07-25T05:30:40.000Z</time>
      </trkpt>
      <trkpt lat="42.70444" lon="1.30345">
        <ele>2235.8000488281</ele>
        <time>2023-07-25T05:30:50.000Z</time>
      </trkpt>
      <trkpt lat="42.70445" lon="1.3034">
        <ele>2235.3999023438</ele>
        <time>2023-07-25T05:30:55.000Z</time>
      </trkpt>
      <trkpt lat="42.70446" lon="1.30339">
        <ele>2235</ele>
        <time>2023-07-25T05:30:58.000Z</time>
      </trkpt>
      <trkpt lat="42.70444" lon="1.30329">
        <ele>2235</ele>
        <time>2023-07-25T05:31:05.000Z</time>
      </trkpt>
      <trkpt lat="42.70443" lon="1.30323">
        <ele>2236.3999023438</ele>
        <time>2023-07-25T05:31:11.000Z</time>
      </trkpt>
      <trkpt lat="42.70442" lon="1.3032">
        <ele>2237.3999023438</ele>
        <time>2023-07-25T05:31:14.000Z</time>
      </trkpt>
      <trkpt lat="42.70442" lon="1.30319">
        <ele>2237.6000976562</ele>
        <time>2023-07-25T05:31:15.000Z</time>
      </trkpt>
      <trkpt lat="42.70443" lon="1.30315">
        <ele>2238.3999023438</ele>
        <time>2023-07-25T05:31:22.000Z</time>
      </trkpt>
      <trkpt lat="42.70447" lon="1.30305">
        <ele>2238.6000976562</ele>
        <time>2023-07-25T05:31:30.000Z</time>
      </trkpt>
      <trkpt lat="42.70449" lon="1.30297">
        <ele>2238.3999023438</ele>
        <time>2023-07-25T05:31:37.000Z</time>
      </trkpt>
      <trkpt lat="42.70451" lon="1.30294">
        <ele>2238.6000976562</ele>
        <time>2023-07-25T05:31:43.000Z</time>
      </trkpt>
      <trkpt lat="42.70453" lon="1.30292">
        <ele>2238.8000488281</ele>
        <time>2023-07-25T05:31:45.000Z</time>
      </trkpt>
      <trkpt lat="42.70457" lon="1.30286">
        <ele>2239.8000488281</ele>
        <time>2023-07-25T05:31:53.000Z</time>
      </trkpt>
      <trkpt lat="42.7046" lon="1.30281">
        <ele>2240.8000488281</ele>
        <time>2023-07-25T05:32:01.000Z</time>
      </trkpt>
      <trkpt lat="42.70471" lon="1.3027">
        <ele>2240.1999511719</ele>
        <time>2023-07-25T05:32:16.000Z</time>
      </trkpt>
      <trkpt lat="42.70473" lon="1.30269">
        <ele>2239.8000488281</ele>
        <time>2023-07-25T05:32:22.000Z</time>
      </trkpt>
      <trkpt lat="42.70481" lon="1.3026">
        <ele>2239</ele>
        <time>2023-07-25T05:32:34.000Z</time>
      </trkpt>
      <trkpt lat="42.70482" lon="1.30258">
        <ele>2238.8000488281</ele>
        <time>2023-07-25T05:32:36.000Z</time>
      </trkpt>
      <trkpt lat="42.70489" lon="1.30255">
        <ele>2239</ele>
        <time>2023-07-25T05:32:42.000Z</time>
      </trkpt>
      <trkpt lat="42.70497" lon="1.30249">
        <ele>2239.8000488281</ele>
        <time>2023-07-25T05:32:48.000Z</time>
      </trkpt>
      <trkpt lat="42.70499" lon="1.30249">
        <ele>2240.3999023438</ele>
        <time>2023-07-25T05:32:51.000Z</time>
      </trkpt>
      <trkpt lat="42.705" lon="1.30249">
        <ele>2240.1999511719</ele>
        <time>2023-07-25T05:32:57.000Z</time>
      </trkpt>
      <trkpt lat="42.70506" lon="1.30243">
        <ele>2240.1999511719</ele>
        <time>2023-07-25T05:33:04.000Z</time>
      </trkpt>
      <trkpt lat="42.70512" lon="1.30236">
        <ele>2239.8000488281</ele>
        <time>2023-07-25T05:33:11.000Z</time>
      </trkpt>
      <trkpt lat="42.70519" lon="1.30225">
        <ele>2239.6000976562</ele>
        <time>2023-07-25T05:33:20.000Z</time>
      </trkpt>
      <trkpt lat="42.70524" lon="1.30216">
        <ele>2238.8000488281</ele>
        <time>2023-07-25T05:33:27.000Z</time>
      </trkpt>
      <trkpt lat="42.70524" lon="1.30215">
        <ele>2238.8000488281</ele>
        <time>2023-07-25T05:33:28.000Z</time>
      </trkpt>
      <trkpt lat="42.70527" lon="1.30209">
        <ele>2237.8000488281</ele>
        <time>2023-07-25T05:33:33.000Z</time>
      </trkpt>
      <trkpt lat="42.7053" lon="1.30205">
        <ele>2237.6000976562</ele>
        <time>2023-07-25T05:33:37.000Z</time>
      </trkpt>
      <trkpt lat="42.70536" lon="1.30196">
        <ele>2238.8000488281</ele>
        <time>2023-07-25T05:33:46.000Z</time>
      </trkpt>
      <trkpt lat="42.70537" lon="1.30196">
        <ele>2239</ele>
        <time>2023-07-25T05:33:47.000Z</time>
      </trkpt>
      <trkpt lat="42.7054" lon="1.30191">
        <ele>2240.1999511719</ele>
        <time>2023-07-25T05:33:52.000Z</time>
      </trkpt>
      <trkpt lat="42.7054" lon="1.30188">
        <ele>2241</ele>
        <time>2023-07-25T05:33:56.000Z</time>
      </trkpt>
      <trkpt lat="42.70539" lon="1.30188">
        <ele>2241.1999511719</ele>
        <time>2023-07-25T05:33:57.000Z</time>
      </trkpt>
      <trkpt lat="42.70539" lon="1.30183">
        <ele>2242.3999023438</ele>
        <time>2023-07-25T05:34:02.000Z</time>
      </trkpt>
      <trkpt lat="42.70539" lon="1.30181">
        <ele>2243.6000976562</ele>
        <time>2023-07-25T05:34:08.000Z</time>
      </trkpt>
      <trkpt lat="42.70539" lon="1.30179">
        <ele>2244.1999511719</ele>
        <time>2023-07-25T05:34:10.000Z</time>
      </trkpt>
      <trkpt lat="42.70539" lon="1.30178">
        <ele>2244.6000976562</ele>
        <time>2023-07-25T05:34:11.000Z</time>
      </trkpt>
      <trkpt lat="42.70543" lon="1.30172">
        <ele>2244.6000976562</ele>
        <time>2023-07-25T05:34:17.000Z</time>
      </trkpt>
      <trkpt lat="42.70547" lon="1.30166">
        <ele>2245.8000488281</ele>
        <time>2023-07-25T05:34:25.000Z</time>
      </trkpt>
      <trkpt lat="42.70549" lon="1.30163">
        <ele>2246.8000488281</ele>
        <time>2023-07-25T05:34:32.000Z</time>
      </trkpt>
      <trkpt lat="42.7055" lon="1.30159">
        <ele>2247.6000976562</ele>
        <time>2023-07-25T05:34:38.000Z</time>
      </trkpt>
      <trkpt lat="42.7055" lon="1.30158">
        <ele>2247.8000488281</ele>
        <time>2023-07-25T05:34:39.000Z</time>
      </trkpt>
      <trkpt lat="42.70549" lon="1.30153">
        <ele>2248.8000488281</ele>
        <time>2023-07-25T05:34:46.000Z</time>
      </trkpt>
      <trkpt lat="42.70549" lon="1.30152">
        <ele>2248.8000488281</ele>
        <time>2023-07-25T05:34:48.000Z</time>
      </trkpt>
      <trkpt lat="42.70548" lon="1.30149">
        <ele>2249.6000976562</ele>
        <time>2023-07-25T05:34:54.000Z</time>
      </trkpt>
      <trkpt lat="42.70548" lon="1.30147">
        <ele>2250</ele>
        <time>2023-07-25T05:34:55.000Z</time>
      </trkpt>
      <trkpt lat="42.70548" lon="1.30144">
        <ele>2251</ele>
        <time>2023-07-25T05:34:58.000Z</time>
      </trkpt>
      <trkpt lat="42.70549" lon="1.30141">
        <ele>2251.6000976562</ele>
        <time>2023-07-25T05:35:01.000Z</time>
      </trkpt>
      <trkpt lat="42.7055" lon="1.30137">
        <ele>2252.1999511719</ele>
        <time>2023-07-25T05:35:06.000Z</time>
      </trkpt>
      <trkpt lat="42.70549" lon="1.30137">
        <ele>2252.6000976562</ele>
        <time>2023-07-25T05:35:09.000Z</time>
      </trkpt>
      <trkpt lat="42.70549" lon="1.30135">
        <ele>2253.1999511719</ele>
        <time>2023-07-25T05:35:12.000Z</time>
      </trkpt>
      <trkpt lat="42.70549" lon="1.30132">
        <ele>2254</ele>
        <time>2023-07-25T05:35:15.000Z</time>
      </trkpt>
      <trkpt lat="42.7055" lon="1.30129">
        <ele>2254.1999511719</ele>
        <time>2023-07-25T05:35:21.000Z</time>
      </trkpt>
      <trkpt lat="42.70552" lon="1.30128">
        <ele>2254.6000976562</ele>
        <time>2023-07-25T05:35:25.000Z</time>
      </trkpt>
      <trkpt lat="42.70556" lon="1.30126">
        <ele>2254.8000488281</ele>
        <time>2023-07-25T05:35:33.000Z</time>
      </trkpt>
      <trkpt lat="42.70558" lon="1.30119">
        <ele>2255.1999511719</ele>
        <time>2023-07-25T05:35:40.000Z</time>
      </trkpt>
      <trkpt lat="42.70558" lon="1.30118">
        <ele>2255.3999023438</ele>
        <time>2023-07-25T05:35:41.000Z</time>
      </trkpt>
      <trkpt lat="42.7056" lon="1.30111">
        <ele>2256.6000976562</ele>
        <time>2023-07-25T05:35:48.000Z</time>
      </trkpt>
      <trkpt lat="42.7056" lon="1.3011">
        <ele>2256.8000488281</ele>
        <time>2023-07-25T05:35:49.000Z</time>
      </trkpt>
      <trkpt lat="42.70562" lon="1.30107">
        <ele>2257.8000488281</ele>
        <time>2023-07-25T05:35:57.000Z</time>
      </trkpt>
      <trkpt lat="42.70565" lon="1.30105">
        <ele>2258.1999511719</ele>
        <time>2023-07-25T05:36:03.000Z</time>
      </trkpt>
      <trkpt lat="42.70566" lon="1.30102">
        <ele>2258.8000488281</ele>
        <time>2023-07-25T05:36:07.000Z</time>
      </trkpt>
      <trkpt lat="42.70567" lon="1.301">
        <ele>2259.6000976562</ele>
        <time>2023-07-25T05:36:10.000Z</time>
      </trkpt>
      <trkpt lat="42.70567" lon="1.30099">
        <ele>2260</ele>
        <time>2023-07-25T05:36:12.000Z</time>
      </trkpt>
      <trkpt lat="42.70569" lon="1.30094">
        <ele>2260.6000976562</ele>
        <time>2023-07-25T05:36:18.000Z</time>
      </trkpt>
      <trkpt lat="42.70572" lon="1.30093">
        <ele>2260.8000488281</ele>
        <time>2023-07-25T05:36:25.000Z</time>
      </trkpt>
      <trkpt lat="42.70573" lon="1.30094">
        <ele>2260.6000976562</ele>
        <time>2023-07-25T05:36:33.000Z</time>
      </trkpt>
      <trkpt lat="42.70574" lon="1.30091">
        <ele>2260.1999511719</ele>
        <time>2023-07-25T05:36:39.000Z</time>
      </trkpt>
      <trkpt lat="42.70573" lon="1.30084">
        <ele>2261.1999511719</ele>
        <time>2023-07-25T05:36:47.000Z</time>
      </trkpt>
      <trkpt lat="42.70571" lon="1.30076">
        <ele>2261.8000488281</ele>
        <time>2023-07-25T05:36:53.000Z</time>
      </trkpt>
      <trkpt lat="42.70572" lon="1.30074">
        <ele>2262.1999511719</ele>
        <time>2023-07-25T05:36:55.000Z</time>
      </trkpt>
      <trkpt lat="42.70573" lon="1.30072">
        <ele>2262.8000488281</ele>
        <time>2023-07-25T05:37:00.000Z</time>
      </trkpt>
      <trkpt lat="42.70575" lon="1.30071">
        <ele>2263.1999511719</ele>
        <time>2023-07-25T05:37:04.000Z</time>
      </trkpt>
      <trkpt lat="42.7058" lon="1.30072">
        <ele>2264.1999511719</ele>
        <time>2023-07-25T05:37:10.000Z</time>
      </trkpt>
      <trkpt lat="42.70584" lon="1.30071">
        <ele>2265</ele>
        <time>2023-07-25T05:37:16.000Z</time>
      </trkpt>
      <trkpt lat="42.70583" lon="1.30069">
        <ele>2265.3999023438</ele>
        <time>2023-07-25T05:37:18.000Z</time>
      </trkpt>
      <trkpt lat="42.70584" lon="1.30064">
        <ele>2265.8000488281</ele>
        <time>2023-07-25T05:37:22.000Z</time>
      </trkpt>
      <trkpt lat="42.70586" lon="1.3006">
        <ele>2266.6000976562</ele>
        <time>2023-07-25T05:37:27.000Z</time>
      </trkpt>
      <trkpt lat="42.70586" lon="1.30058">
        <ele>2267</ele>
        <time>2023-07-25T05:37:30.000Z</time>
      </trkpt>
      <trkpt lat="42.70588" lon="1.30053">
        <ele>2267.8000488281</ele>
        <time>2023-07-25T05:37:35.000Z</time>
      </trkpt>
      <trkpt lat="42.70589" lon="1.30052">
        <ele>2268.1999511719</ele>
        <time>2023-07-25T05:37:37.000Z</time>
      </trkpt>
      <trkpt lat="42.70591" lon="1.30046">
        <ele>2269</ele>
        <time>2023-07-25T05:37:44.000Z</time>
      </trkpt>
      <trkpt lat="42.70592" lon="1.3004">
        <ele>2270</ele>
        <time>2023-07-25T05:37:49.000Z</time>
      </trkpt>
      <trkpt lat="42.70593" lon="1.30035">
        <ele>2270.6000976562</ele>
        <time>2023-07-25T05:37:54.000Z</time>
      </trkpt>
      <trkpt lat="42.70595" lon="1.30029">
        <ele>2271</ele>
        <time>2023-07-25T05:38:01.000Z</time>
      </trkpt>
      <trkpt lat="42.70595" lon="1.30028">
        <ele>2271</ele>
        <time>2023-07-25T05:38:03.000Z</time>
      </trkpt>
      <trkpt lat="42.70596" lon="1.30024">
        <ele>2272.1999511719</ele>
        <time>2023-07-25T05:38:09.000Z</time>
      </trkpt>
      <trkpt lat="42.70596" lon="1.30022">
        <ele>2272.3999023438</ele>
        <time>2023-07-25T05:38:11.000Z</time>
      </trkpt>
      <trkpt lat="42.70596" lon="1.30017">
        <ele>2273.1999511719</ele>
        <time>2023-07-25T05:38:15.000Z</time>
      </trkpt>
      <trkpt lat="42.70597" lon="1.30015">
        <ele>2273.1999511719</ele>
        <time>2023-07-25T05:38:17.000Z</time>
      </trkpt>
      <trkpt lat="42.70602" lon="1.30012">
        <ele>2273.6000976562</ele>
        <time>2023-07-25T05:38:25.000Z</time>
      </trkpt>
      <trkpt lat="42.70605" lon="1.30007">
        <ele>2274.3999023438</ele>
        <time>2023-07-25T05:38:32.000Z</time>
      </trkpt>
      <trkpt lat="42.70608" lon="1.30002">
        <ele>2275.3999023438</ele>
        <time>2023-07-25T05:38:37.000Z</time>
      </trkpt>
      <trkpt lat="42.70609" lon="1.3">
        <ele>2276</ele>
        <time>2023-07-25T05:38:40.000Z</time>
      </trkpt>
      <trkpt lat="42.7061" lon="1.29996">
        <ele>2275.8000488281</ele>
        <time>2023-07-25T05:38:49.000Z</time>
      </trkpt>
      <trkpt lat="42.70611" lon="1.29997">
        <ele>2275.3999023438</ele>
        <time>2023-07-25T05:38:59.000Z</time>
      </trkpt>
      <trkpt lat="42.70613" lon="1.29996">
        <ele>2275.1999511719</ele>
        <time>2023-07-25T05:39:07.000Z</time>
      </trkpt>
      <trkpt lat="42.70615" lon="1.29996">
        <ele>2275</ele>
        <time>2023-07-25T05:39:15.000Z</time>
      </trkpt>
      <trkpt lat="42.70614" lon="1.29995">
        <ele>2274.8000488281</ele>
        <time>2023-07-25T05:39:24.000Z</time>
      </trkpt>
      <trkpt lat="42.70612" lon="1.29997">
        <ele>2274.8000488281</ele>
        <time>2023-07-25T05:39:33.000Z</time>
      </trkpt>
      <trkpt lat="42.70611" lon="1.29996">
        <ele>2275.1999511719</ele>
        <time>2023-07-25T05:39:41.000Z</time>
      </trkpt>
      <trkpt lat="42.70612" lon="1.29989">
        <ele>2276</ele>
        <time>2023-07-25T05:39:48.000Z</time>
      </trkpt>
      <trkpt lat="42.70614" lon="1.29978">
        <ele>2276.6000976562</ele>
        <time>2023-07-25T05:39:55.000Z</time>
      </trkpt>
      <trkpt lat="42.70615" lon="1.29977">
        <ele>2276.6000976562</ele>
        <time>2023-07-25T05:39:56.000Z</time>
      </trkpt>
      <trkpt lat="42.70618" lon="1.29973">
        <ele>2276.1999511719</ele>
        <time>2023-07-25T05:40:04.000Z</time>
      </trkpt>
      <trkpt lat="42.70619" lon="1.29972">
        <ele>2275.6000976562</ele>
        <time>2023-07-25T05:40:09.000Z</time>
      </trkpt>
      <trkpt lat="42.70619" lon="1.29974">
        <ele>2275.1999511719</ele>
        <time>2023-07-25T05:40:12.000Z</time>
      </trkpt>
      <trkpt lat="42.70614" lon="1.29976">
        <ele>2275.3999023438</ele>
        <time>2023-07-25T05:40:19.000Z</time>
      </trkpt>
      <trkpt lat="42.70617" lon="1.29976">
        <ele>2275</ele>
        <time>2023-07-25T05:40:25.000Z</time>
      </trkpt>
      <trkpt lat="42.70616" lon="1.29976">
        <ele>2274.8000488281</ele>
        <time>2023-07-25T05:40:36.000Z</time>
      </trkpt>
      <trkpt lat="42.70619" lon="1.29974">
        <ele>2275</ele>
        <time>2023-07-25T05:40:47.000Z</time>
      </trkpt>
      <trkpt lat="42.7062" lon="1.29977">
        <ele>2275</ele>
        <time>2023-07-25T05:40:56.000Z</time>
      </trkpt>
      <trkpt lat="42.70618" lon="1.29977">
        <ele>2275</ele>
        <time>2023-07-25T05:41:04.000Z</time>
      </trkpt>
      <trkpt lat="42.70621" lon="1.29968">
        <ele>2275</ele>
        <time>2023-07-25T05:41:12.000Z</time>
      </trkpt>
      <trkpt lat="42.70623" lon="1.29961">
        <ele>2274.6000976562</ele>
        <time>2023-07-25T05:41:20.000Z</time>
      </trkpt>
      <trkpt lat="42.70623" lon="1.2996">
        <ele>2274.3999023438</ele>
        <time>2023-07-25T05:41:21.000Z</time>
      </trkpt>
      <trkpt lat="42.70625" lon="1.29953">
        <ele>2273.1999511719</ele>
        <time>2023-07-25T05:41:27.000Z</time>
      </trkpt>
      <trkpt lat="42.70625" lon="1.29952">
        <ele>2273.1999511719</ele>
        <time>2023-07-25T05:41:28.000Z</time>
      </trkpt>
      <trkpt lat="42.70626" lon="1.29946">
        <ele>2272.1999511719</ele>
        <time>2023-07-25T05:41:34.000Z</time>
      </trkpt>
      <trkpt lat="42.70627" lon="1.29943">
        <ele>2271.6000976562</ele>
        <time>2023-07-25T05:41:36.000Z</time>
      </trkpt>
      <trkpt lat="42.70629" lon="1.2994">
        <ele>2271.1999511719</ele>
        <time>2023-07-25T05:41:40.000Z</time>
      </trkpt>
      <trkpt lat="42.7063" lon="1.29935">
        <ele>2270.3999023438</ele>
        <time>2023-07-25T05:41:45.000Z</time>
      </trkpt>
      <trkpt lat="42.70631" lon="1.29934">
        <ele>2270</ele>
        <time>2023-07-25T05:41:47.000Z</time>
      </trkpt>
      <trkpt lat="42.70632" lon="1.29931">
        <ele>2268.8000488281</ele>
        <time>2023-07-25T05:41:52.000Z</time>
      </trkpt>
      <trkpt lat="42.70633" lon="1.2993">
        <ele>2268.8000488281</ele>
        <time>2023-07-25T05:41:53.000Z</time>
      </trkpt>
      <trkpt lat="42.70637" lon="1.29924">
        <ele>2268</ele>
        <time>2023-07-25T05:42:01.000Z</time>
      </trkpt>
      <trkpt lat="42.70638" lon="1.29922">
        <ele>2267.6000976562</ele>
        <time>2023-07-25T05:42:03.000Z</time>
      </trkpt>
      <trkpt lat="42.70639" lon="1.29918">
        <ele>2266.3999023438</ele>
        <time>2023-07-25T05:42:07.000Z</time>
      </trkpt>
      <trkpt lat="42.70639" lon="1.29917">
        <ele>2266</ele>
        <time>2023-07-25T05:42:10.000Z</time>
      </trkpt>
      <trkpt lat="42.7064" lon="1.29917">
        <ele>2265.1999511719</ele>
        <time>2023-07-25T05:42:16.000Z</time>
      </trkpt>
      <trkpt lat="42.70643" lon="1.29915">
        <ele>2264.8000488281</ele>
        <time>2023-07-25T05:42:19.000Z</time>
      </trkpt>
      <trkpt lat="42.70647" lon="1.29908">
        <ele>2264.3999023438</ele>
        <time>2023-07-25T05:42:27.000Z</time>
      </trkpt>
      <trkpt lat="42.70648" lon="1.29902">
        <ele>2264.1999511719</ele>
        <time>2023-07-25T05:42:32.000Z</time>
      </trkpt>
      <trkpt lat="42.70648" lon="1.29899">
        <ele>2264.1999511719</ele>
        <time>2023-07-25T05:42:34.000Z</time>
      </trkpt>
      <trkpt lat="42.70651" lon="1.29893">
        <ele>2263.6000976562</ele>
        <time>2023-07-25T05:42:42.000Z</time>
      </trkpt>
      <trkpt lat="42.70654" lon="1.29888">
        <ele>2263</ele>
        <time>2023-07-25T05:42:48.000Z</time>
      </trkpt>
      <trkpt lat="42.70654" lon="1.29887">
        <ele>2262.6000976562</ele>
        <time>2023-07-25T05:42:52.000Z</time>
      </trkpt>
      <trkpt lat="42.70654" lon="1.29882">
        <ele>2262.3999023438</ele>
        <time>2023-07-25T05:43:00.000Z</time>
      </trkpt>
      <trkpt lat="42.70655" lon="1.29879">
        <ele>2262.1999511719</ele>
        <time>2023-07-25T05:43:06.000Z</time>
      </trkpt>
      <trkpt lat="42.70656" lon="1.29878">
        <ele>2262</ele>
        <time>2023-07-25T05:43:07.000Z</time>
      </trkpt>
      <trkpt lat="42.70659" lon="1.29874">
        <ele>2261</ele>
        <time>2023-07-25T05:43:12.000Z</time>
      </trkpt>
      <trkpt lat="42.70659" lon="1.29874">
        <ele>2260.8000488281</ele>
        <time>2023-07-25T05:43:13.000Z</time>
      </trkpt>
      <trkpt lat="42.70658" lon="1.29872">
        <ele>2260</ele>
        <time>2023-07-25T05:43:17.000Z</time>
      </trkpt>
      <trkpt lat="42.70658" lon="1.29867">
        <ele>2259.3999023438</ele>
        <time>2023-07-25T05:43:21.000Z</time>
      </trkpt>
      <trkpt lat="42.70659" lon="1.29864">
        <ele>2258.8000488281</ele>
        <time>2023-07-25T05:43:26.000Z</time>
      </trkpt>
      <trkpt lat="42.70659" lon="1.29864">
        <ele>2258.3999023438</ele>
        <time>2023-07-25T05:43:28.000Z</time>
      </trkpt>
      <trkpt lat="42.70661" lon="1.29863">
        <ele>2257.8000488281</ele>
        <time>2023-07-25T05:43:32.000Z</time>
      </trkpt>
      <trkpt lat="42.70662" lon="1.29861">
        <ele>2257</ele>
        <time>2023-07-25T05:43:36.000Z</time>
      </trkpt>
      <trkpt lat="42.70664" lon="1.29857">
        <ele>2256.8000488281</ele>
        <time>2023-07-25T05:43:40.000Z</time>
      </trkpt>
      <trkpt lat="42.70665" lon="1.29855">
        <ele>2256.6000976562</ele>
        <time>2023-07-25T05:43:43.000Z</time>
      </trkpt>
      <trkpt lat="42.70664" lon="1.29853">
        <ele>2256</ele>
        <time>2023-07-25T05:43:48.000Z</time>
      </trkpt>
      <trkpt lat="42.70665" lon="1.29848">
        <ele>2255.6000976562</ele>
        <time>2023-07-25T05:43:52.000Z</time>
      </trkpt>
      <trkpt lat="42.70666" lon="1.29846">
        <ele>2255.3999023438</ele>
        <time>2023-07-25T05:43:56.000Z</time>
      </trkpt>
      <trkpt lat="42.70669" lon="1.29845">
        <ele>2254.6000976562</ele>
        <time>2023-07-25T05:44:00.000Z</time>
      </trkpt>
      <trkpt lat="42.70671" lon="1.29841">
        <ele>2254</ele>
        <time>2023-07-25T05:44:04.000Z</time>
      </trkpt>
      <trkpt lat="42.70671" lon="1.29839">
        <ele>2253.6000976562</ele>
        <time>2023-07-25T05:44:07.000Z</time>
      </trkpt>
      <trkpt lat="42.70673" lon="1.29833">
        <ele>2253.1999511719</ele>
        <time>2023-07-25T05:44:13.000Z</time>
      </trkpt>
      <trkpt lat="42.70673" lon="1.29825">
        <ele>2252.8000488281</ele>
        <time>2023-07-25T05:44:21.000Z</time>
      </trkpt>
      <trkpt lat="42.70673" lon="1.29812">
        <ele>2253.8000488281</ele>
        <time>2023-07-25T05:44:30.000Z</time>
      </trkpt>
      <trkpt lat="42.70676" lon="1.29804">
        <ele>2253.6000976562</ele>
        <time>2023-07-25T05:44:36.000Z</time>
      </trkpt>
      <trkpt lat="42.70681" lon="1.29791">
        <ele>2252.6000976562</ele>
        <time>2023-07-25T05:44:45.000Z</time>
      </trkpt>
      <trkpt lat="42.70681" lon="1.2979">
        <ele>2252.3999023438</ele>
        <time>2023-07-25T05:44:46.000Z</time>
      </trkpt>
      <trkpt lat="42.70681" lon="1.29783">
        <ele>2251.3999023438</ele>
        <time>2023-07-25T05:44:54.000Z</time>
      </trkpt>
      <trkpt lat="42.70682" lon="1.2978">
        <ele>2251</ele>
        <time>2023-07-25T05:44:59.000Z</time>
      </trkpt>
      <trkpt lat="42.70685" lon="1.29765">
        <ele>2251</ele>
        <time>2023-07-25T05:45:10.000Z</time>
      </trkpt>
      <trkpt lat="42.70685" lon="1.29751">
        <ele>2251.3999023438</ele>
        <time>2023-07-25T05:45:19.000Z</time>
      </trkpt>
      <trkpt lat="42.70685" lon="1.29738">
        <ele>2251.3999023438</ele>
        <time>2023-07-25T05:45:27.000Z</time>
      </trkpt>
      <trkpt lat="42.70681" lon="1.29733">
        <ele>2251</ele>
        <time>2023-07-25T05:45:33.000Z</time>
      </trkpt>
      <trkpt lat="42.7068" lon="1.29734">
        <ele>2251</ele>
        <time>2023-07-25T05:45:36.000Z</time>
      </trkpt>
      <trkpt lat="42.70682" lon="1.29729">
        <ele>2250.8000488281</ele>
        <time>2023-07-25T05:45:41.000Z</time>
      </trkpt>
      <trkpt lat="42.70685" lon="1.29714">
        <ele>2250.6000976562</ele>
        <time>2023-07-25T05:45:50.000Z</time>
      </trkpt>
      <trkpt lat="42.70689" lon="1.297">
        <ele>2250.8000488281</ele>
        <time>2023-07-25T05:45:59.000Z</time>
      </trkpt>
      <trkpt lat="42.70688" lon="1.29689">
        <ele>2251.6000976562</ele>
        <time>2023-07-25T05:46:06.000Z</time>
      </trkpt>
      <trkpt lat="42.70685" lon="1.29677">
        <ele>2251.6000976562</ele>
        <time>2023-07-25T05:46:16.000Z</time>
      </trkpt>
      <trkpt lat="42.70687" lon="1.29667">
        <ele>2251.8000488281</ele>
        <time>2023-07-25T05:46:24.000Z</time>
      </trkpt>
      <trkpt lat="42.70689" lon="1.29668">
        <ele>2250.6000976562</ele>
        <time>2023-07-25T05:46:28.000Z</time>
      </trkpt>
      <trkpt lat="42.70689" lon="1.29668">
        <ele>2250.3999023438</ele>
        <time>2023-07-25T05:46:29.000Z</time>
      </trkpt>
      <trkpt lat="42.7069" lon="1.29668">
        <ele>2250.1999511719</ele>
        <time>2023-07-25T05:46:30.000Z</time>
      </trkpt>
      <trkpt lat="42.70691" lon="1.29666">
        <ele>2249.8000488281</ele>
        <time>2023-07-25T05:46:34.000Z</time>
      </trkpt>
      <trkpt lat="42.70693" lon="1.29663">
        <ele>2249.3999023438</ele>
        <time>2023-07-25T05:46:38.000Z</time>
      </trkpt>
      <trkpt lat="42.70694" lon="1.2966">
        <ele>2248.8000488281</ele>
        <time>2023-07-25T05:46:44.000Z</time>
      </trkpt>
      <trkpt lat="42.70695" lon="1.29657">
        <ele>2249</ele>
        <time>2023-07-25T05:46:50.000Z</time>
      </trkpt>
      <trkpt lat="42.70697" lon="1.29655">
        <ele>2249.1999511719</ele>
        <time>2023-07-25T05:46:57.000Z</time>
      </trkpt>
      <trkpt lat="42.70697" lon="1.29657">
        <ele>2249.6000976562</ele>
        <time>2023-07-25T05:47:04.000Z</time>
      </trkpt>
      <trkpt lat="42.70697" lon="1.29657">
        <ele>2249.6000976562</ele>
        <time>2023-07-25T05:47:11.000Z</time>
      </trkpt>
      <trkpt lat="42.70695" lon="1.2966">
        <ele>2249</ele>
        <time>2023-07-25T05:47:19.000Z</time>
      </trkpt>
      <trkpt lat="42.70697" lon="1.29655">
        <ele>2248.8000488281</ele>
        <time>2023-07-25T05:47:28.000Z</time>
      </trkpt>
      <trkpt lat="42.70697" lon="1.29651">
        <ele>2249.6000976562</ele>
        <time>2023-07-25T05:47:34.000Z</time>
      </trkpt>
      <trkpt lat="42.707" lon="1.29654">
        <ele>2249.8000488281</ele>
        <time>2023-07-25T05:47:41.000Z</time>
      </trkpt>
      <trkpt lat="42.70699" lon="1.29654">
        <ele>2249.3999023438</ele>
        <time>2023-07-25T05:47:50.000Z</time>
      </trkpt>
      <trkpt lat="42.70701" lon="1.2965">
        <ele>2249.6000976562</ele>
        <time>2023-07-25T05:48:00.000Z</time>
      </trkpt>
      <trkpt lat="42.70708" lon="1.29644">
        <ele>2250.3999023438</ele>
        <time>2023-07-25T05:48:09.000Z</time>
      </trkpt>
      <trkpt lat="42.70708" lon="1.29644">
        <ele>2250.3999023438</ele>
        <time>2023-07-25T05:48:10.000Z</time>
      </trkpt>
      <trkpt lat="42.70706" lon="1.29644">
        <ele>2250.6000976562</ele>
        <time>2023-07-25T05:48:16.000Z</time>
      </trkpt>
      <trkpt lat="42.70704" lon="1.29646">
        <ele>2250.6000976562</ele>
        <time>2023-07-25T05:48:23.000Z</time>
      </trkpt>
      <trkpt lat="42.70703" lon="1.29645">
        <ele>2250.6000976562</ele>
        <time>2023-07-25T05:48:32.000Z</time>
      </trkpt>
      <trkpt lat="42.70702" lon="1.29648">
        <ele>2250.8000488281</ele>
        <time>2023-07-25T05:48:41.000Z</time>
      </trkpt>
      <trkpt lat="42.70704" lon="1.29649">
        <ele>2251</ele>
        <time>2023-07-25T05:48:48.000Z</time>
      </trkpt>
      <trkpt lat="42.70705" lon="1.29644">
        <ele>2251.1999511719</ele>
        <time>2023-07-25T05:48:54.000Z</time>
      </trkpt>
      <trkpt lat="42.70704" lon="1.29641">
        <ele>2251.3999023438</ele>
        <time>2023-07-25T05:48:59.000Z</time>
      </trkpt>
      <trkpt lat="42.70703" lon="1.29641">
        <ele>2251.8000488281</ele>
        <time>2023-07-25T05:49:01.000Z</time>
      </trkpt>
      <trkpt lat="42.70701" lon="1.29635">
        <ele>2252</ele>
        <time>2023-07-25T05:49:06.000Z</time>
      </trkpt>
      <trkpt lat="42.70699" lon="1.29632">
        <ele>2252.3999023438</ele>
        <time>2023-07-25T05:49:11.000Z</time>
      </trkpt>
      <trkpt lat="42.70699" lon="1.29632">
        <ele>2252.6000976562</ele>
        <time>2023-07-25T05:49:12.000Z</time>
      </trkpt>
      <trkpt lat="42.70696" lon="1.29631">
        <ele>2253.3999023438</ele>
        <time>2023-07-25T05:49:17.000Z</time>
      </trkpt>
      <trkpt lat="42.70695" lon="1.2963">
        <ele>2253.6000976562</ele>
        <time>2023-07-25T05:49:18.000Z</time>
      </trkpt>
      <trkpt lat="42.70691" lon="1.29628">
        <ele>2254.3999023438</ele>
        <time>2023-07-25T05:49:23.000Z</time>
      </trkpt>
      <trkpt lat="42.70691" lon="1.29626">
        <ele>2254.6000976562</ele>
        <time>2023-07-25T05:49:26.000Z</time>
      </trkpt>
      <trkpt lat="42.70691" lon="1.29624">
        <ele>2255.1999511719</ele>
        <time>2023-07-25T05:49:30.000Z</time>
      </trkpt>
      <trkpt lat="42.7069" lon="1.29625">
        <ele>2255.3999023438</ele>
        <time>2023-07-25T05:49:34.000Z</time>
      </trkpt>
      <trkpt lat="42.70688" lon="1.29626">
        <ele>2255.6000976562</ele>
        <time>2023-07-25T05:49:37.000Z</time>
      </trkpt>
      <trkpt lat="42.70688" lon="1.29625">
        <ele>2255.8000488281</ele>
        <time>2023-07-25T05:49:38.000Z</time>
      </trkpt>
      <trkpt lat="42.70686" lon="1.29624">
        <ele>2256</ele>
        <time>2023-07-25T05:49:40.000Z</time>
      </trkpt>
      <trkpt lat="42.70686" lon="1.29621">
        <ele>2255.8000488281</ele>
        <time>2023-07-25T05:49:43.000Z</time>
      </trkpt>
      <trkpt lat="42.70686" lon="1.29619">
        <ele>2256.6000976562</ele>
        <time>2023-07-25T05:49:51.000Z</time>
      </trkpt>
      <trkpt lat="42.70686" lon="1.29617">
        <ele>2256.8000488281</ele>
        <time>2023-07-25T05:49:53.000Z</time>
      </trkpt>
      <trkpt lat="42.70685" lon="1.29612">
        <ele>2257.3999023438</ele>
        <time>2023-07-25T05:49:58.000Z</time>
      </trkpt>
      <trkpt lat="42.70683" lon="1.29609">
        <ele>2258</ele>
        <time>2023-07-25T05:50:01.000Z</time>
      </trkpt>
      <trkpt lat="42.70682" lon="1.29605">
        <ele>2258.8000488281</ele>
        <time>2023-07-25T05:50:07.000Z</time>
      </trkpt>
      <trkpt lat="42.70681" lon="1.29604">
        <ele>2259</ele>
        <time>2023-07-25T05:50:10.000Z</time>
      </trkpt>
      <trkpt lat="42.7068" lon="1.29599">
        <ele>2259.3999023438</ele>
        <time>2023-07-25T05:50:14.000Z</time>
      </trkpt>
      <trkpt lat="42.7068" lon="1.29599">
        <ele>2260.1999511719</ele>
        <time>2023-07-25T05:50:18.000Z</time>
      </trkpt>
      <trkpt lat="42.70679" lon="1.29597">
        <ele>2260.6000976562</ele>
        <time>2023-07-25T05:50:22.000Z</time>
      </trkpt>
      <trkpt lat="42.70679" lon="1.29593">
        <ele>2261.3999023438</ele>
        <time>2023-07-25T05:50:26.000Z</time>
      </trkpt>
      <trkpt lat="42.70679" lon="1.29591">
        <ele>2262.1999511719</ele>
        <time>2023-07-25T05:50:31.000Z</time>
      </trkpt>
      <trkpt lat="42.70678" lon="1.2959">
        <ele>2262.6000976562</ele>
        <time>2023-07-25T05:50:33.000Z</time>
      </trkpt>
      <trkpt lat="42.70678" lon="1.29586">
        <ele>2263.6000976562</ele>
        <time>2023-07-25T05:50:40.000Z</time>
      </trkpt>
      <trkpt lat="42.70678" lon="1.29583">
        <ele>2264.8000488281</ele>
        <time>2023-07-25T05:50:45.000Z</time>
      </trkpt>
      <trkpt lat="42.70675" lon="1.29581">
        <ele>2265.6000976562</ele>
        <time>2023-07-25T05:50:50.000Z</time>
      </trkpt>
      <trkpt lat="42.70674" lon="1.2958">
        <ele>2266</ele>
        <time>2023-07-25T05:50:52.000Z</time>
      </trkpt>
      <trkpt lat="42.70674" lon="1.29577">
        <ele>2267</ele>
        <time>2023-07-25T05:50:57.000Z</time>
      </trkpt>
      <trkpt lat="42.70674" lon="1.29572">
        <ele>2267.8000488281</ele>
        <time>2023-07-25T05:51:06.000Z</time>
      </trkpt>
      <trkpt lat="42.70673" lon="1.29572">
        <ele>2268.1999511719</ele>
        <time>2023-07-25T05:51:11.000Z</time>
      </trkpt>
      <trkpt lat="42.70672" lon="1.29571">
        <ele>2268.1999511719</ele>
        <time>2023-07-25T05:51:14.000Z</time>
      </trkpt>
      <trkpt lat="42.70672" lon="1.29564">
        <ele>2268.6000976562</ele>
        <time>2023-07-25T05:51:22.000Z</time>
      </trkpt>
      <trkpt lat="42.70673" lon="1.29561">
        <ele>2269.1999511719</ele>
        <time>2023-07-25T05:51:26.000Z</time>
      </trkpt>
      <trkpt lat="42.70674" lon="1.29562">
        <ele>2269.8000488281</ele>
        <time>2023-07-25T05:51:29.000Z</time>
      </trkpt>
      <trkpt lat="42.70675" lon="1.29563">
        <ele>2270.3999023438</ele>
        <time>2023-07-25T05:51:33.000Z</time>
      </trkpt>
      <trkpt lat="42.70675" lon="1.29561">
        <ele>2271</ele>
        <time>2023-07-25T05:51:37.000Z</time>
      </trkpt>
      <trkpt lat="42.70674" lon="1.2956">
        <ele>2271.3999023438</ele>
        <time>2023-07-25T05:51:39.000Z</time>
      </trkpt>
      <trkpt lat="42.70673" lon="1.29555">
        <ele>2271.6000976562</ele>
        <time>2023-07-25T05:51:44.000Z</time>
      </trkpt>
      <trkpt lat="42.70673" lon="1.29551">
        <ele>2271.6000976562</ele>
        <time>2023-07-25T05:51:51.000Z</time>
      </trkpt>
      <trkpt lat="42.70672" lon="1.29541">
        <ele>2272</ele>
        <time>2023-07-25T05:51:59.000Z</time>
      </trkpt>
      <trkpt lat="42.70671" lon="1.29542">
        <ele>2272.1999511719</ele>
        <time>2023-07-25T05:52:07.000Z</time>
      </trkpt>
      <trkpt lat="42.70673" lon="1.29543">
        <ele>2272.3999023438</ele>
        <time>2023-07-25T05:52:13.000Z</time>
      </trkpt>
      <trkpt lat="42.70673" lon="1.29543">
        <ele>2272.3999023438</ele>
        <time>2023-07-25T05:52:15.000Z</time>
      </trkpt>
      <trkpt lat="42.70675" lon="1.29542">
        <ele>2272.3999023438</ele>
        <time>2023-07-25T05:52:25.000Z</time>
      </trkpt>
      <trkpt lat="42.70673" lon="1.2954">
        <ele>2272.3999023438</ele>
        <time>2023-07-25T05:52:34.000Z</time>
      </trkpt>
      <trkpt lat="42.70671" lon="1.29543">
        <ele>2272.6000976562</ele>
        <time>2023-07-25T05:52:40.000Z</time>
      </trkpt>
      <trkpt lat="42.70668" lon="1.2954">
        <ele>2272.3999023438</ele>
        <time>2023-07-25T05:52:48.000Z</time>
      </trkpt>
      <trkpt lat="42.7067" lon="1.29535">
        <ele>2272.3999023438</ele>
        <time>2023-07-25T05:52:56.000Z</time>
      </trkpt>
      <trkpt lat="42.70669" lon="1.29531">
        <ele>2273</ele>
        <time>2023-07-25T05:53:03.000Z</time>
      </trkpt>
      <trkpt lat="42.70668" lon="1.29528">
        <ele>2273.3999023438</ele>
        <time>2023-07-25T05:53:06.000Z</time>
      </trkpt>
      <trkpt lat="42.70666" lon="1.29526">
        <ele>2274.1999511719</ele>
        <time>2023-07-25T05:53:12.000Z</time>
      </trkpt>
      <trkpt lat="42.70665" lon="1.29522">
        <ele>2274.6000976562</ele>
        <time>2023-07-25T05:53:15.000Z</time>
      </trkpt>
      <trkpt lat="42.70664" lon="1.29518">
        <ele>2275.1999511719</ele>
        <time>2023-07-25T05:53:19.000Z</time>
      </trkpt>
      <trkpt lat="42.70665" lon="1.29519">
        <ele>2275.6000976562</ele>
        <time>2023-07-25T05:53:21.000Z</time>
      </trkpt>
      <trkpt lat="42.70667" lon="1.29519">
        <ele>2276</ele>
        <time>2023-07-25T05:53:25.000Z</time>
      </trkpt>
      <trkpt lat="42.7067" lon="1.29519">
        <ele>2276.3999023438</ele>
        <time>2023-07-25T05:53:33.000Z</time>
      </trkpt>
      <trkpt lat="42.7067" lon="1.29517">
        <ele>2277</ele>
        <time>2023-07-25T05:53:38.000Z</time>
      </trkpt>
      <trkpt lat="42.7067" lon="1.29516">
        <ele>2277.3999023438</ele>
        <time>2023-07-25T05:53:40.000Z</time>
      </trkpt>
      <trkpt lat="42.7067" lon="1.29512">
        <ele>2278</ele>
        <time>2023-07-25T05:53:45.000Z</time>
      </trkpt>
      <trkpt lat="42.7067" lon="1.2951">
        <ele>2278.1999511719</ele>
        <time>2023-07-25T05:53:46.000Z</time>
      </trkpt>
      <trkpt lat="42.7067" lon="1.29508">
        <ele>2279</ele>
        <time>2023-07-25T05:53:54.000Z</time>
      </trkpt>
      <trkpt lat="42.7067" lon="1.29507">
        <ele>2279.1999511719</ele>
        <time>2023-07-25T05:53:55.000Z</time>
      </trkpt>
      <trkpt lat="42.70667" lon="1.29503">
        <ele>2279.3999023438</ele>
        <time>2023-07-25T05:54:04.000Z</time>
      </trkpt>
      <trkpt lat="42.70667" lon="1.29496">
        <ele>2280.1999511719</ele>
        <time>2023-07-25T05:54:11.000Z</time>
      </trkpt>
      <trkpt lat="42.70668" lon="1.29494">
        <ele>2280.1999511719</ele>
        <time>2023-07-25T05:54:12.000Z</time>
      </trkpt>
      <trkpt lat="42.70668" lon="1.29491">
        <ele>2281.1999511719</ele>
        <time>2023-07-25T05:54:17.000Z</time>
      </trkpt>
      <trkpt lat="42.70668" lon="1.29491">
        <ele>2281.6000976562</ele>
        <time>2023-07-25T05:54:19.000Z</time>
      </trkpt>
      <trkpt lat="42.70666" lon="1.29488">
        <ele>2282.3999023438</ele>
        <time>2023-07-25T05:54:23.000Z</time>
      </trkpt>
      <trkpt lat="42.70666" lon="1.29487">
        <ele>2282.6000976562</ele>
        <time>2023-07-25T05:54:25.000Z</time>
      </trkpt>
      <trkpt lat="42.70664" lon="1.29484">
        <ele>2283.3999023438</ele>
        <time>2023-07-25T05:54:30.000Z</time>
      </trkpt>
      <trkpt lat="42.7066" lon="1.2948">
        <ele>2283.8000488281</ele>
        <time>2023-07-25T05:54:34.000Z</time>
      </trkpt>
      <trkpt lat="42.70659" lon="1.29477">
        <ele>2284</ele>
        <time>2023-07-25T05:54:42.000Z</time>
      </trkpt>
      <trkpt lat="42.70655" lon="1.29476">
        <ele>2284.3999023438</ele>
        <time>2023-07-25T05:54:49.000Z</time>
      </trkpt>
      <trkpt lat="42.70655" lon="1.29476">
        <ele>2284.3999023438</ele>
        <time>2023-07-25T05:54:50.000Z</time>
      </trkpt>
      <trkpt lat="42.70655" lon="1.29478">
        <ele>2284.3999023438</ele>
        <time>2023-07-25T05:54:56.000Z</time>
      </trkpt>
      <trkpt lat="42.70649" lon="1.29478">
        <ele>2284.1999511719</ele>
        <time>2023-07-25T05:55:04.000Z</time>
      </trkpt>
      <trkpt lat="42.70648" lon="1.29471">
        <ele>2284.1999511719</ele>
        <time>2023-07-25T05:55:11.000Z</time>
      </trkpt>
      <trkpt lat="42.70647" lon="1.29467">
        <ele>2285.3999023438</ele>
        <time>2023-07-25T05:55:16.000Z</time>
      </trkpt>
      <trkpt lat="42.70646" lon="1.29465">
        <ele>2285.6000976562</ele>
        <time>2023-07-25T05:55:17.000Z</time>
      </trkpt>
      <trkpt lat="42.70645" lon="1.29457">
        <ele>2286</ele>
        <time>2023-07-25T05:55:26.000Z</time>
      </trkpt>
      <trkpt lat="42.70646" lon="1.29456">
        <ele>2286.6000976562</ele>
        <time>2023-07-25T05:55:29.000Z</time>
      </trkpt>
      <trkpt lat="42.70647" lon="1.2945">
        <ele>2287</ele>
        <time>2023-07-25T05:55:34.000Z</time>
      </trkpt>
      <trkpt lat="42.70648" lon="1.29445">
        <ele>2287.8000488281</ele>
        <time>2023-07-25T05:55:39.000Z</time>
      </trkpt>
      <trkpt lat="42.70648" lon="1.29443">
        <ele>2288.1999511719</ele>
        <time>2023-07-25T05:55:41.000Z</time>
      </trkpt>
      <trkpt lat="42.70648" lon="1.29437">
        <ele>2288.8000488281</ele>
        <time>2023-07-25T05:55:45.000Z</time>
      </trkpt>
      <trkpt lat="42.70647" lon="1.29432">
        <ele>2289.3999023438</ele>
        <time>2023-07-25T05:55:50.000Z</time>
      </trkpt>
      <trkpt lat="42.70646" lon="1.29429">
        <ele>2289.8000488281</ele>
        <time>2023-07-25T05:55:52.000Z</time>
      </trkpt>
      <trkpt lat="42.70644" lon="1.29426">
        <ele>2290.8000488281</ele>
        <time>2023-07-25T05:55:57.000Z</time>
      </trkpt>
      <trkpt lat="42.70644" lon="1.29425">
        <ele>2290.8000488281</ele>
        <time>2023-07-25T05:55:58.000Z</time>
      </trkpt>
      <trkpt lat="42.70643" lon="1.29419">
        <ele>2292</ele>
        <time>2023-07-25T05:56:06.000Z</time>
      </trkpt>
      <trkpt lat="42.70643" lon="1.29418">
        <ele>2292.3999023438</ele>
        <time>2023-07-25T05:56:07.000Z</time>
      </trkpt>
      <trkpt lat="42.70642" lon="1.29413">
        <ele>2293.3999023438</ele>
        <time>2023-07-25T05:56:12.000Z</time>
      </trkpt>
      <trkpt lat="42.70642" lon="1.29408">
        <ele>2293.3999023438</ele>
        <time>2023-07-25T05:56:16.000Z</time>
      </trkpt>
      <trkpt lat="42.70642" lon="1.29397">
        <ele>2293.3999023438</ele>
        <time>2023-07-25T05:56:24.000Z</time>
      </trkpt>
      <trkpt lat="42.70643" lon="1.29388">
        <ele>2294.1999511719</ele>
        <time>2023-07-25T05:56:33.000Z</time>
      </trkpt>
      <trkpt lat="42.70643" lon="1.29384">
        <ele>2294.3999023438</ele>
        <time>2023-07-25T05:56:37.000Z</time>
      </trkpt>
      <trkpt lat="42.70643" lon="1.29382">
        <ele>2294.8000488281</ele>
        <time>2023-07-25T05:56:39.000Z</time>
      </trkpt>
      <trkpt lat="42.70642" lon="1.29378">
        <ele>2295.6000976562</ele>
        <time>2023-07-25T05:56:43.000Z</time>
      </trkpt>
      <trkpt lat="42.70642" lon="1.29377">
        <ele>2296</ele>
        <time>2023-07-25T05:56:46.000Z</time>
      </trkpt>
      <trkpt lat="42.70642" lon="1.29372">
        <ele>2296.8000488281</ele>
        <time>2023-07-25T05:56:51.000Z</time>
      </trkpt>
      <trkpt lat="42.70641" lon="1.29369">
        <ele>2297</ele>
        <time>2023-07-25T05:56:53.000Z</time>
      </trkpt>
      <trkpt lat="42.70639" lon="1.29365">
        <ele>2297.6000976562</ele>
        <time>2023-07-25T05:56:58.000Z</time>
      </trkpt>
      <trkpt lat="42.70638" lon="1.29363">
        <ele>2297.8000488281</ele>
        <time>2023-07-25T05:57:00.000Z</time>
      </trkpt>
      <trkpt lat="42.70636" lon="1.29358">
        <ele>2298.3999023438</ele>
        <time>2023-07-25T05:57:05.000Z</time>
      </trkpt>
      <trkpt lat="42.70635" lon="1.29355">
        <ele>2298.8000488281</ele>
        <time>2023-07-25T05:57:08.000Z</time>
      </trkpt>
      <trkpt lat="42.70632" lon="1.2935">
        <ele>2299.1999511719</ele>
        <time>2023-07-25T05:57:13.000Z</time>
      </trkpt>
      <trkpt lat="42.70632" lon="1.2934">
        <ele>2299.8000488281</ele>
        <time>2023-07-25T05:57:22.000Z</time>
      </trkpt>
      <trkpt lat="42.70632" lon="1.29333">
        <ele>2299.3999023438</ele>
        <time>2023-07-25T05:57:30.000Z</time>
      </trkpt>
      <trkpt lat="42.70632" lon="1.29325">
        <ele>2299.8000488281</ele>
        <time>2023-07-25T05:57:37.000Z</time>
      </trkpt>
      <trkpt lat="42.70633" lon="1.29318">
        <ele>2299.1999511719</ele>
        <time>2023-07-25T05:57:44.000Z</time>
      </trkpt>
      <trkpt lat="42.70634" lon="1.29307">
        <ele>2299.6000976562</ele>
        <time>2023-07-25T05:57:52.000Z</time>
      </trkpt>
      <trkpt lat="42.70633" lon="1.29296">
        <ele>2300.6000976562</ele>
        <time>2023-07-25T05:58:01.000Z</time>
      </trkpt>
      <trkpt lat="42.70633" lon="1.29291">
        <ele>2301</ele>
        <time>2023-07-25T05:58:04.000Z</time>
      </trkpt>
      <trkpt lat="42.70632" lon="1.29287">
        <ele>2301.1999511719</ele>
        <time>2023-07-25T05:58:08.000Z</time>
      </trkpt>
      <trkpt lat="42.70632" lon="1.2928">
        <ele>2301.6000976562</ele>
        <time>2023-07-25T05:58:13.000Z</time>
      </trkpt>
      <trkpt lat="42.70629" lon="1.29274">
        <ele>2302.1999511719</ele>
        <time>2023-07-25T05:58:21.000Z</time>
      </trkpt>
      <trkpt lat="42.70628" lon="1.29266">
        <ele>2303.1999511719</ele>
        <time>2023-07-25T05:58:28.000Z</time>
      </trkpt>
      <trkpt lat="42.70628" lon="1.29265">
        <ele>2303.1999511719</ele>
        <time>2023-07-25T05:58:29.000Z</time>
      </trkpt>
      <trkpt lat="42.70628" lon="1.29258">
        <ele>2303.6000976562</ele>
        <time>2023-07-25T05:58:35.000Z</time>
      </trkpt>
      <trkpt lat="42.70627" lon="1.29249">
        <ele>2304</ele>
        <time>2023-07-25T05:58:41.000Z</time>
      </trkpt>
      <trkpt lat="42.70627" lon="1.29246">
        <ele>2304.3999023438</ele>
        <time>2023-07-25T05:58:43.000Z</time>
      </trkpt>
      <trkpt lat="42.70625" lon="1.29235">
        <ele>2304.6000976562</ele>
        <time>2023-07-25T05:58:50.000Z</time>
      </trkpt>
      <trkpt lat="42.70622" lon="1.29228">
        <ele>2305.3999023438</ele>
        <time>2023-07-25T05:58:59.000Z</time>
      </trkpt>
      <trkpt lat="42.70622" lon="1.29226">
        <ele>2305.6000976562</ele>
        <time>2023-07-25T05:59:00.000Z</time>
      </trkpt>
      <trkpt lat="42.70619" lon="1.29218">
        <ele>2306.1999511719</ele>
        <time>2023-07-25T05:59:07.000Z</time>
      </trkpt>
      <trkpt lat="42.70615" lon="1.29209">
        <ele>2306.1999511719</ele>
        <time>2023-07-25T05:59:17.000Z</time>
      </trkpt>
      <trkpt lat="42.70615" lon="1.29202">
        <ele>2306.3999023438</ele>
        <time>2023-07-25T05:59:22.000Z</time>
      </trkpt>
      <trkpt lat="42.70615" lon="1.29198">
        <ele>2307</ele>
        <time>2023-07-25T05:59:25.000Z</time>
      </trkpt>
      <trkpt lat="42.70615" lon="1.29194">
        <ele>2307.6000976562</ele>
        <time>2023-07-25T05:59:28.000Z</time>
      </trkpt>
      <trkpt lat="42.70615" lon="1.29189">
        <ele>2308.3999023438</ele>
        <time>2023-07-25T05:59:32.000Z</time>
      </trkpt>
      <trkpt lat="42.70614" lon="1.29186">
        <ele>2308.8000488281</ele>
        <time>2023-07-25T05:59:34.000Z</time>
      </trkpt>
      <trkpt lat="42.70613" lon="1.2918">
        <ele>2309.3999023438</ele>
        <time>2023-07-25T05:59:39.000Z</time>
      </trkpt>
      <trkpt lat="42.70611" lon="1.29177">
        <ele>2309.8000488281</ele>
        <time>2023-07-25T05:59:46.000Z</time>
      </trkpt>
      <trkpt lat="42.70611" lon="1.29177">
        <ele>2309.8000488281</ele>
        <time>2023-07-25T05:59:47.000Z</time>
      </trkpt>
      <trkpt lat="42.70609" lon="1.29171">
        <ele>2311</ele>
        <time>2023-07-25T05:59:55.000Z</time>
      </trkpt>
      <trkpt lat="42.70608" lon="1.29169">
        <ele>2311.6000976562</ele>
        <time>2023-07-25T05:59:57.000Z</time>
      </trkpt>
      <trkpt lat="42.70605" lon="1.29168">
        <ele>2312.1999511719</ele>
        <time>2023-07-25T06:00:01.000Z</time>
      </trkpt>
      <trkpt lat="42.70603" lon="1.29167">
        <ele>2312.3999023438</ele>
        <time>2023-07-25T06:00:04.000Z</time>
      </trkpt>
      <trkpt lat="42.70602" lon="1.29165">
        <ele>2313.3999023438</ele>
        <time>2023-07-25T06:00:14.000Z</time>
      </trkpt>
      <trkpt lat="42.70603" lon="1.29163">
        <ele>2314.1999511719</ele>
        <time>2023-07-25T06:00:17.000Z</time>
      </trkpt>
      <trkpt lat="42.70603" lon="1.29162">
        <ele>2314.3999023438</ele>
        <time>2023-07-25T06:00:18.000Z</time>
      </trkpt>
      <trkpt lat="42.70603" lon="1.29159">
        <ele>2315.3999023438</ele>
        <time>2023-07-25T06:00:22.000Z</time>
      </trkpt>
      <trkpt lat="42.70603" lon="1.29159">
        <ele>2315.3999023438</ele>
        <time>2023-07-25T06:00:24.000Z</time>
      </trkpt>
      <trkpt lat="42.70602" lon="1.29154">
        <ele>2315.8000488281</ele>
        <time>2023-07-25T06:00:31.000Z</time>
      </trkpt>
      <trkpt lat="42.706" lon="1.29149">
        <ele>2316.1999511719</ele>
        <time>2023-07-25T06:00:38.000Z</time>
      </trkpt>
      <trkpt lat="42.706" lon="1.29146">
        <ele>2316.8000488281</ele>
        <time>2023-07-25T06:00:41.000Z</time>
      </trkpt>
      <trkpt lat="42.706" lon="1.29143">
        <ele>2317</ele>
        <time>2023-07-25T06:00:45.000Z</time>
      </trkpt>
      <trkpt lat="42.706" lon="1.29138">
        <ele>2317.3999023438</ele>
        <time>2023-07-25T06:00:51.000Z</time>
      </trkpt>
      <trkpt lat="42.706" lon="1.29134">
        <ele>2318</ele>
        <time>2023-07-25T06:00:54.000Z</time>
      </trkpt>
      <trkpt lat="42.70599" lon="1.29131">
        <ele>2318.6000976562</ele>
        <time>2023-07-25T06:00:58.000Z</time>
      </trkpt>
      <trkpt lat="42.70598" lon="1.29127">
        <ele>2319.1999511719</ele>
        <time>2023-07-25T06:01:02.000Z</time>
      </trkpt>
      <trkpt lat="42.70597" lon="1.29127">
        <ele>2319.8000488281</ele>
        <time>2023-07-25T06:01:05.000Z</time>
      </trkpt>
      <trkpt lat="42.70595" lon="1.29124">
        <ele>2320.3999023438</ele>
        <time>2023-07-25T06:01:09.000Z</time>
      </trkpt>
      <trkpt lat="42.70593" lon="1.29123">
        <ele>2320.8000488281</ele>
        <time>2023-07-25T06:01:12.000Z</time>
      </trkpt>
      <trkpt lat="42.70593" lon="1.29122">
        <ele>2321.3999023438</ele>
        <time>2023-07-25T06:01:16.000Z</time>
      </trkpt>
      <trkpt lat="42.70592" lon="1.29121">
        <ele>2321.8000488281</ele>
        <time>2023-07-25T06:01:19.000Z</time>
      </trkpt>
      <trkpt lat="42.7059" lon="1.29115">
        <ele>2322.3999023438</ele>
        <time>2023-07-25T06:01:25.000Z</time>
      </trkpt>
      <trkpt lat="42.7059" lon="1.29114">
        <ele>2322.6000976562</ele>
        <time>2023-07-25T06:01:26.000Z</time>
      </trkpt>
      <trkpt lat="42.7059" lon="1.29109">
        <ele>2323.6000976562</ele>
        <time>2023-07-25T06:01:33.000Z</time>
      </trkpt>
      <trkpt lat="42.7059" lon="1.29108">
        <ele>2324</ele>
        <time>2023-07-25T06:01:35.000Z</time>
      </trkpt>
      <trkpt lat="42.70589" lon="1.29104">
        <ele>2324.8000488281</ele>
        <time>2023-07-25T06:01:39.000Z</time>
      </trkpt>
      <trkpt lat="42.70589" lon="1.29098">
        <ele>2325.3999023438</ele>
        <time>2023-07-25T06:01:45.000Z</time>
      </trkpt>
      <trkpt lat="42.70588" lon="1.29096">
        <ele>2325.8000488281</ele>
        <time>2023-07-25T06:01:48.000Z</time>
      </trkpt>
      <trkpt lat="42.70587" lon="1.29096">
        <ele>2326.8000488281</ele>
        <time>2023-07-25T06:01:53.000Z</time>
      </trkpt>
      <trkpt lat="42.70587" lon="1.29097">
        <ele>2327</ele>
        <time>2023-07-25T06:01:54.000Z</time>
      </trkpt>
      <trkpt lat="42.70585" lon="1.29092">
        <ele>2327.8000488281</ele>
        <time>2023-07-25T06:01:59.000Z</time>
      </trkpt>
      <trkpt lat="42.70585" lon="1.29092">
        <ele>2328</ele>
        <time>2023-07-25T06:02:00.000Z</time>
      </trkpt>
      <trkpt lat="42.70583" lon="1.29087">
        <ele>2329.1999511719</ele>
        <time>2023-07-25T06:02:06.000Z</time>
      </trkpt>
      <trkpt lat="42.70583" lon="1.29085">
        <ele>2329.6000976562</ele>
        <time>2023-07-25T06:02:08.000Z</time>
      </trkpt>
      <trkpt lat="42.70583" lon="1.29081">
        <ele>2330.1999511719</ele>
        <time>2023-07-25T06:02:12.000Z</time>
      </trkpt>
      <trkpt lat="42.70582" lon="1.29077">
        <ele>2330.6000976562</ele>
        <time>2023-07-25T06:02:15.000Z</time>
      </trkpt>
      <trkpt lat="42.70579" lon="1.29073">
        <ele>2331.3999023438</ele>
        <time>2023-07-25T06:02:22.000Z</time>
      </trkpt>
      <trkpt lat="42.70579" lon="1.29072">
        <ele>2331.6000976562</ele>
        <time>2023-07-25T06:02:23.000Z</time>
      </trkpt>
      <trkpt lat="42.70576" lon="1.2907">
        <ele>2332.3999023438</ele>
        <time>2023-07-25T06:02:28.000Z</time>
      </trkpt>
      <trkpt lat="42.70575" lon="1.29069">
        <ele>2332.8000488281</ele>
        <time>2023-07-25T06:02:30.000Z</time>
      </trkpt>
      <trkpt lat="42.70571" lon="1.29067">
        <ele>2333.3999023438</ele>
        <time>2023-07-25T06:02:36.000Z</time>
      </trkpt>
      <trkpt lat="42.7057" lon="1.29067">
        <ele>2333.3999023438</ele>
        <time>2023-07-25T06:02:37.000Z</time>
      </trkpt>
      <trkpt lat="42.70567" lon="1.29066">
        <ele>2334.3999023438</ele>
        <time>2023-07-25T06:02:43.000Z</time>
      </trkpt>
      <trkpt lat="42.70566" lon="1.29064">
        <ele>2334.8000488281</ele>
        <time>2023-07-25T06:02:47.000Z</time>
      </trkpt>
      <trkpt lat="42.70563" lon="1.29057">
        <ele>2335.6000976562</ele>
        <time>2023-07-25T06:02:55.000Z</time>
      </trkpt>
      <trkpt lat="42.70561" lon="1.29053">
        <ele>2336.6000976562</ele>
        <time>2023-07-25T06:03:01.000Z</time>
      </trkpt>
      <trkpt lat="42.7056" lon="1.29049">
        <ele>2337</ele>
        <time>2023-07-25T06:03:04.000Z</time>
      </trkpt>
      <trkpt lat="42.70558" lon="1.29046">
        <ele>2337.8000488281</ele>
        <time>2023-07-25T06:03:10.000Z</time>
      </trkpt>
      <trkpt lat="42.70558" lon="1.29044">
        <ele>2338</ele>
        <time>2023-07-25T06:03:13.000Z</time>
      </trkpt>
      <trkpt lat="42.70557" lon="1.29036">
        <ele>2338.8000488281</ele>
        <time>2023-07-25T06:03:21.000Z</time>
      </trkpt>
      <trkpt lat="42.70554" lon="1.29031">
        <ele>2339.3999023438</ele>
        <time>2023-07-25T06:03:29.000Z</time>
      </trkpt>
      <trkpt lat="42.70553" lon="1.29031">
        <ele>2339.8000488281</ele>
        <time>2023-07-25T06:03:32.000Z</time>
      </trkpt>
      <trkpt lat="42.70549" lon="1.29025">
        <ele>2340.8000488281</ele>
        <time>2023-07-25T06:03:39.000Z</time>
      </trkpt>
      <trkpt lat="42.70549" lon="1.29017">
        <ele>2340.1999511719</ele>
        <time>2023-07-25T06:03:46.000Z</time>
      </trkpt>
      <trkpt lat="42.70549" lon="1.29011">
        <ele>2340</ele>
        <time>2023-07-25T06:03:53.000Z</time>
      </trkpt>
      <trkpt lat="42.7055" lon="1.29002">
        <ele>2340.3999023438</ele>
        <time>2023-07-25T06:04:02.000Z</time>
      </trkpt>
      <trkpt lat="42.70549" lon="1.29">
        <ele>2341</ele>
        <time>2023-07-25T06:04:05.000Z</time>
      </trkpt>
      <trkpt lat="42.70548" lon="1.28997">
        <ele>2341.1999511719</ele>
        <time>2023-07-25T06:04:08.000Z</time>
      </trkpt>
      <trkpt lat="42.70546" lon="1.28995">
        <ele>2342</ele>
        <time>2023-07-25T06:04:15.000Z</time>
      </trkpt>
      <trkpt lat="42.70545" lon="1.2899">
        <ele>2342.6000976562</ele>
        <time>2023-07-25T06:04:24.000Z</time>
      </trkpt>
      <trkpt lat="42.70545" lon="1.28988">
        <ele>2343.1999511719</ele>
        <time>2023-07-25T06:04:27.000Z</time>
      </trkpt>
      <trkpt lat="42.70544" lon="1.28989">
        <ele>2343.6000976562</ele>
        <time>2023-07-25T06:04:30.000Z</time>
      </trkpt>
      <trkpt lat="42.70542" lon="1.28987">
        <ele>2344.3999023438</ele>
        <time>2023-07-25T06:04:37.000Z</time>
      </trkpt>
      <trkpt lat="42.7054" lon="1.28986">
        <ele>2344.8000488281</ele>
        <time>2023-07-25T06:04:39.000Z</time>
      </trkpt>
      <trkpt lat="42.70536" lon="1.28983">
        <ele>2345.6000976562</ele>
        <time>2023-07-25T06:04:43.000Z</time>
      </trkpt>
      <trkpt lat="42.70535" lon="1.2898">
        <ele>2346.3999023438</ele>
        <time>2023-07-25T06:04:49.000Z</time>
      </trkpt>
      <trkpt lat="42.70535" lon="1.2898">
        <ele>2346.8000488281</ele>
        <time>2023-07-25T06:04:50.000Z</time>
      </trkpt>
      <trkpt lat="42.70534" lon="1.28976">
        <ele>2348.1999511719</ele>
        <time>2023-07-25T06:04:55.000Z</time>
      </trkpt>
      <trkpt lat="42.70534" lon="1.28975">
        <ele>2348.3999023438</ele>
        <time>2023-07-25T06:04:57.000Z</time>
      </trkpt>
      <trkpt lat="42.7053" lon="1.28971">
        <ele>2349.1999511719</ele>
        <time>2023-07-25T06:05:04.000Z</time>
      </trkpt>
      <trkpt lat="42.70527" lon="1.28968">
        <ele>2350.1999511719</ele>
        <time>2023-07-25T06:05:10.000Z</time>
      </trkpt>
      <trkpt lat="42.70526" lon="1.28967">
        <ele>2350.3999023438</ele>
        <time>2023-07-25T06:05:11.000Z</time>
      </trkpt>
      <trkpt lat="42.70523" lon="1.28961">
        <ele>2351</ele>
        <time>2023-07-25T06:05:19.000Z</time>
      </trkpt>
      <trkpt lat="42.70523" lon="1.2896">
        <ele>2351.1999511719</ele>
        <time>2023-07-25T06:05:21.000Z</time>
      </trkpt>
      <trkpt lat="42.70523" lon="1.28956">
        <ele>2352.1999511719</ele>
        <time>2023-07-25T06:05:27.000Z</time>
      </trkpt>
      <trkpt lat="42.70523" lon="1.28954">
        <ele>2352.3999023438</ele>
        <time>2023-07-25T06:05:29.000Z</time>
      </trkpt>
      <trkpt lat="42.70523" lon="1.28949">
        <ele>2353.1999511719</ele>
        <time>2023-07-25T06:05:36.000Z</time>
      </trkpt>
      <trkpt lat="42.70523" lon="1.28948">
        <ele>2353.3999023438</ele>
        <time>2023-07-25T06:05:37.000Z</time>
      </trkpt>
      <trkpt lat="42.70523" lon="1.28942">
        <ele>2354.1999511719</ele>
        <time>2023-07-25T06:05:43.000Z</time>
      </trkpt>
      <trkpt lat="42.70523" lon="1.28939">
        <ele>2354.6000976562</ele>
        <time>2023-07-25T06:05:46.000Z</time>
      </trkpt>
      <trkpt lat="42.70523" lon="1.28932">
        <ele>2355.3999023438</ele>
        <time>2023-07-25T06:05:52.000Z</time>
      </trkpt>
      <trkpt lat="42.70523" lon="1.2893">
        <ele>2355.6000976562</ele>
        <time>2023-07-25T06:05:55.000Z</time>
      </trkpt>
      <trkpt lat="42.70523" lon="1.28927">
        <ele>2356.3999023438</ele>
        <time>2023-07-25T06:06:00.000Z</time>
      </trkpt>
      <trkpt lat="42.70523" lon="1.28926">
        <ele>2356.8000488281</ele>
        <time>2023-07-25T06:06:02.000Z</time>
      </trkpt>
      <trkpt lat="42.70522" lon="1.28923">
        <ele>2358</ele>
        <time>2023-07-25T06:06:08.000Z</time>
      </trkpt>
      <trkpt lat="42.70522" lon="1.28922">
        <ele>2358</ele>
        <time>2023-07-25T06:06:09.000Z</time>
      </trkpt>
      <trkpt lat="42.70519" lon="1.28921">
        <ele>2358.6000976562</ele>
        <time>2023-07-25T06:06:14.000Z</time>
      </trkpt>
      <trkpt lat="42.70518" lon="1.2892">
        <ele>2359</ele>
        <time>2023-07-25T06:06:16.000Z</time>
      </trkpt>
      <trkpt lat="42.70517" lon="1.2892">
        <ele>2359.3999023438</ele>
        <time>2023-07-25T06:06:18.000Z</time>
      </trkpt>
      <trkpt lat="42.70518" lon="1.28917">
        <ele>2360</ele>
        <time>2023-07-25T06:06:22.000Z</time>
      </trkpt>
      <trkpt lat="42.70517" lon="1.28915">
        <ele>2360.6000976562</ele>
        <time>2023-07-25T06:06:25.000Z</time>
      </trkpt>
      <trkpt lat="42.70517" lon="1.28913">
        <ele>2361.1999511719</ele>
        <time>2023-07-25T06:06:29.000Z</time>
      </trkpt>
      <trkpt lat="42.70515" lon="1.28909">
        <ele>2362</ele>
        <time>2023-07-25T06:06:35.000Z</time>
      </trkpt>
      <trkpt lat="42.70515" lon="1.28908">
        <ele>2362.1999511719</ele>
        <time>2023-07-25T06:06:36.000Z</time>
      </trkpt>
      <trkpt lat="42.70512" lon="1.28902">
        <ele>2363.3999023438</ele>
        <time>2023-07-25T06:06:43.000Z</time>
      </trkpt>
      <trkpt lat="42.70512" lon="1.28902">
        <ele>2363.6000976562</ele>
        <time>2023-07-25T06:06:44.000Z</time>
      </trkpt>
      <trkpt lat="42.70512" lon="1.28894">
        <ele>2364.3999023438</ele>
        <time>2023-07-25T06:06:49.000Z</time>
      </trkpt>
      <trkpt lat="42.70511" lon="1.28891">
        <ele>2365</ele>
        <time>2023-07-25T06:06:52.000Z</time>
      </trkpt>
      <trkpt lat="42.7051" lon="1.28889">
        <ele>2365.3999023438</ele>
        <time>2023-07-25T06:06:58.000Z</time>
      </trkpt>
      <trkpt lat="42.70509" lon="1.28885">
        <ele>2366</ele>
        <time>2023-07-25T06:07:04.000Z</time>
      </trkpt>
      <trkpt lat="42.70508" lon="1.28881">
        <ele>2366.6000976562</ele>
        <time>2023-07-25T06:07:07.000Z</time>
      </trkpt>
      <trkpt lat="42.70507" lon="1.28878">
        <ele>2367.3999023438</ele>
        <time>2023-07-25T06:07:12.000Z</time>
      </trkpt>
      <trkpt lat="42.70507" lon="1.28873">
        <ele>2367.8000488281</ele>
        <time>2023-07-25T06:07:17.000Z</time>
      </trkpt>
      <trkpt lat="42.70507" lon="1.28872">
        <ele>2367.8000488281</ele>
        <time>2023-07-25T06:07:18.000Z</time>
      </trkpt>
      <trkpt lat="42.70506" lon="1.28866">
        <ele>2368.8000488281</ele>
        <time>2023-07-25T06:07:23.000Z</time>
      </trkpt>
      <trkpt lat="42.70505" lon="1.28865">
        <ele>2369</ele>
        <time>2023-07-25T06:07:25.000Z</time>
      </trkpt>
      <trkpt lat="42.70503" lon="1.28859">
        <ele>2370</ele>
        <time>2023-07-25T06:07:32.000Z</time>
      </trkpt>
      <trkpt lat="42.70503" lon="1.28858">
        <ele>2370</ele>
        <time>2023-07-25T06:07:33.000Z</time>
      </trkpt>
      <trkpt lat="42.70501" lon="1.28852">
        <ele>2371</ele>
        <time>2023-07-25T06:07:40.000Z</time>
      </trkpt>
      <trkpt lat="42.70499" lon="1.28846">
        <ele>2372</ele>
        <time>2023-07-25T06:07:47.000Z</time>
      </trkpt>
      <trkpt lat="42.70498" lon="1.28845">
        <ele>2372</ele>
        <time>2023-07-25T06:07:48.000Z</time>
      </trkpt>
      <trkpt lat="42.70497" lon="1.28841">
        <ele>2372.8000488281</ele>
        <time>2023-07-25T06:07:53.000Z</time>
      </trkpt>
      <trkpt lat="42.70496" lon="1.28836">
        <ele>2373</ele>
        <time>2023-07-25T06:07:57.000Z</time>
      </trkpt>
      <trkpt lat="42.70495" lon="1.28835">
        <ele>2373.3999023438</ele>
        <time>2023-07-25T06:08:00.000Z</time>
      </trkpt>
      <trkpt lat="42.70494" lon="1.28831">
        <ele>2374.1999511719</ele>
        <time>2023-07-25T06:08:04.000Z</time>
      </trkpt>
      <trkpt lat="42.70493" lon="1.28828">
        <ele>2374.8000488281</ele>
        <time>2023-07-25T06:08:07.000Z</time>
      </trkpt>
      <trkpt lat="42.70493" lon="1.28827">
        <ele>2375.1999511719</ele>
        <time>2023-07-25T06:08:10.000Z</time>
      </trkpt>
      <trkpt lat="42.70494" lon="1.28826">
        <ele>2375.6000976562</ele>
        <time>2023-07-25T06:08:13.000Z</time>
      </trkpt>
      <trkpt lat="42.70494" lon="1.28823">
        <ele>2376.1999511719</ele>
        <time>2023-07-25T06:08:17.000Z</time>
      </trkpt>
      <trkpt lat="42.70493" lon="1.28818">
        <ele>2376.8000488281</ele>
        <time>2023-07-25T06:08:21.000Z</time>
      </trkpt>
      <trkpt lat="42.70493" lon="1.28817">
        <ele>2377.3999023438</ele>
        <time>2023-07-25T06:08:25.000Z</time>
      </trkpt>
      <trkpt lat="42.70492" lon="1.28815">
        <ele>2378</ele>
        <time>2023-07-25T06:08:29.000Z</time>
      </trkpt>
      <trkpt lat="42.70491" lon="1.28811">
        <ele>2378.3999023438</ele>
        <time>2023-07-25T06:08:33.000Z</time>
      </trkpt>
      <trkpt lat="42.70491" lon="1.28808">
        <ele>2378.8000488281</ele>
        <time>2023-07-25T06:08:36.000Z</time>
      </trkpt>
      <trkpt lat="42.70489" lon="1.28803">
        <ele>2379.6000976562</ele>
        <time>2023-07-25T06:08:43.000Z</time>
      </trkpt>
      <trkpt lat="42.70489" lon="1.28801">
        <ele>2379.8000488281</ele>
        <time>2023-07-25T06:08:45.000Z</time>
      </trkpt>
      <trkpt lat="42.70487" lon="1.28799">
        <ele>2380.6000976562</ele>
        <time>2023-07-25T06:08:51.000Z</time>
      </trkpt>
      <trkpt lat="42.70486" lon="1.28799">
        <ele>2380.6000976562</ele>
        <time>2023-07-25T06:08:52.000Z</time>
      </trkpt>
      <trkpt lat="42.70485" lon="1.28799">
        <ele>2380.8000488281</ele>
        <time>2023-07-25T06:08:54.000Z</time>
      </trkpt>
      <trkpt lat="42.70486" lon="1.288">
        <ele>2381</ele>
        <time>2023-07-25T06:09:02.000Z</time>
      </trkpt>
      <trkpt lat="42.70485" lon="1.28797">
        <ele>2381</ele>
        <time>2023-07-25T06:09:12.000Z</time>
      </trkpt>
      <trkpt lat="42.70488" lon="1.28799">
        <ele>2381</ele>
        <time>2023-07-25T06:09:20.000Z</time>
      </trkpt>
      <trkpt lat="42.70488" lon="1.288">
        <ele>2381</ele>
        <time>2023-07-25T06:09:29.000Z</time>
      </trkpt>
      <trkpt lat="42.70487" lon="1.28802">
        <ele>2381</ele>
        <time>2023-07-25T06:09:37.000Z</time>
      </trkpt>
      <trkpt lat="42.70483" lon="1.28798">
        <ele>2381.1999511719</ele>
        <time>2023-07-25T06:09:47.000Z</time>
      </trkpt>
      <trkpt lat="42.70486" lon="1.28799">
        <ele>2381.1999511719</ele>
        <time>2023-07-25T06:09:55.000Z</time>
      </trkpt>
      <trkpt lat="42.70492" lon="1.28805">
        <ele>2381.1999511719</ele>
        <time>2023-07-25T06:10:02.000Z</time>
      </trkpt>
      <trkpt lat="42.70495" lon="1.28812">
        <ele>2380</ele>
        <time>2023-07-25T06:10:09.000Z</time>
      </trkpt>
      <trkpt lat="42.70492" lon="1.28808">
        <ele>2379.6000976562</ele>
        <time>2023-07-25T06:10:15.000Z</time>
      </trkpt>
      <trkpt lat="42.70496" lon="1.28802">
        <ele>2379.8000488281</ele>
        <time>2023-07-25T06:10:24.000Z</time>
      </trkpt>
      <trkpt lat="42.70495" lon="1.28802">
        <ele>2379.8000488281</ele>
        <time>2023-07-25T06:10:31.000Z</time>
      </trkpt>
      <trkpt lat="42.70493" lon="1.28802">
        <ele>2380.8000488281</ele>
        <time>2023-07-25T06:10:35.000Z</time>
      </trkpt>
      <trkpt lat="42.70491" lon="1.28801">
        <ele>2381.3999023438</ele>
        <time>2023-07-25T06:10:37.000Z</time>
      </trkpt>
      <trkpt lat="42.70491" lon="1.28799">
        <ele>2381.8000488281</ele>
        <time>2023-07-25T06:10:39.000Z</time>
      </trkpt>
      <trkpt lat="42.70489" lon="1.28795">
        <ele>2382.1999511719</ele>
        <time>2023-07-25T06:10:46.000Z</time>
      </trkpt>
      <trkpt lat="42.70489" lon="1.28795">
        <ele>2383</ele>
        <time>2023-07-25T06:10:49.000Z</time>
      </trkpt>
      <trkpt lat="42.70489" lon="1.28792">
        <ele>2384</ele>
        <time>2023-07-25T06:10:55.000Z</time>
      </trkpt>
      <trkpt lat="42.7049" lon="1.28787">
        <ele>2385.1999511719</ele>
        <time>2023-07-25T06:11:03.000Z</time>
      </trkpt>
      <trkpt lat="42.70488" lon="1.28781">
        <ele>2386.1999511719</ele>
        <time>2023-07-25T06:11:09.000Z</time>
      </trkpt>
      <trkpt lat="42.70488" lon="1.2878">
        <ele>2386.6000976562</ele>
        <time>2023-07-25T06:11:11.000Z</time>
      </trkpt>
      <trkpt lat="42.70487" lon="1.28778">
        <ele>2387.3999023438</ele>
        <time>2023-07-25T06:11:17.000Z</time>
      </trkpt>
      <trkpt lat="42.70487" lon="1.28778">
        <ele>2387.8000488281</ele>
        <time>2023-07-25T06:11:19.000Z</time>
      </trkpt>
      <trkpt lat="42.70487" lon="1.28777">
        <ele>2388.6000976562</ele>
        <time>2023-07-25T06:11:22.000Z</time>
      </trkpt>
      <trkpt lat="42.70487" lon="1.28775">
        <ele>2389.3999023438</ele>
        <time>2023-07-25T06:11:28.000Z</time>
      </trkpt>
      <trkpt lat="42.70487" lon="1.28775">
        <ele>2389.6000976562</ele>
        <time>2023-07-25T06:11:29.000Z</time>
      </trkpt>
      <trkpt lat="42.70486" lon="1.28772">
        <ele>2390.6000976562</ele>
        <time>2023-07-25T06:11:33.000Z</time>
      </trkpt>
      <trkpt lat="42.70487" lon="1.28769">
        <ele>2391</ele>
        <time>2023-07-25T06:11:37.000Z</time>
      </trkpt>
      <trkpt lat="42.70489" lon="1.28766">
        <ele>2391.6000976562</ele>
        <time>2023-07-25T06:11:42.000Z</time>
      </trkpt>
      <trkpt lat="42.70488" lon="1.28766">
        <ele>2392.3999023438</ele>
        <time>2023-07-25T06:11:46.000Z</time>
      </trkpt>
      <trkpt lat="42.70488" lon="1.28766">
        <ele>2392.6000976562</ele>
        <time>2023-07-25T06:11:48.000Z</time>
      </trkpt>
      <trkpt lat="42.70489" lon="1.28763">
        <ele>2393.6000976562</ele>
        <time>2023-07-25T06:11:53.000Z</time>
      </trkpt>
      <trkpt lat="42.7049" lon="1.28762">
        <ele>2393.8000488281</ele>
        <time>2023-07-25T06:11:55.000Z</time>
      </trkpt>
      <trkpt lat="42.7049" lon="1.28759">
        <ele>2395</ele>
        <time>2023-07-25T06:12:01.000Z</time>
      </trkpt>
      <trkpt lat="42.7049" lon="1.28758">
        <ele>2395.3999023438</ele>
        <time>2023-07-25T06:12:03.000Z</time>
      </trkpt>
      <trkpt lat="42.7049" lon="1.28757">
        <ele>2396.1999511719</ele>
        <time>2023-07-25T06:12:08.000Z</time>
      </trkpt>
      <trkpt lat="42.70489" lon="1.28755">
        <ele>2397</ele>
        <time>2023-07-25T06:12:13.000Z</time>
      </trkpt>
      <trkpt lat="42.70489" lon="1.28754">
        <ele>2397.3999023438</ele>
        <time>2023-07-25T06:12:15.000Z</time>
      </trkpt>
      <trkpt lat="42.70486" lon="1.28752">
        <ele>2398.3999023438</ele>
        <time>2023-07-25T06:12:23.000Z</time>
      </trkpt>
      <trkpt lat="42.70487" lon="1.2875">
        <ele>2399.8000488281</ele>
        <time>2023-07-25T06:12:29.000Z</time>
      </trkpt>
      <trkpt lat="42.70486" lon="1.28748">
        <ele>2400.6000976562</ele>
        <time>2023-07-25T06:12:33.000Z</time>
      </trkpt>
      <trkpt lat="42.70485" lon="1.28747">
        <ele>2401</ele>
        <time>2023-07-25T06:12:35.000Z</time>
      </trkpt>
      <trkpt lat="42.70484" lon="1.28742">
        <ele>2402</ele>
        <time>2023-07-25T06:12:41.000Z</time>
      </trkpt>
      <trkpt lat="42.70484" lon="1.28741">
        <ele>2402.6000976562</ele>
        <time>2023-07-25T06:12:43.000Z</time>
      </trkpt>
      <trkpt lat="42.70484" lon="1.28739">
        <ele>2403.1999511719</ele>
        <time>2023-07-25T06:12:48.000Z</time>
      </trkpt>
      <trkpt lat="42.70484" lon="1.28739">
        <ele>2403.6000976562</ele>
        <time>2023-07-25T06:12:50.000Z</time>
      </trkpt>
      <trkpt lat="42.70484" lon="1.28737">
        <ele>2404.1999511719</ele>
        <time>2023-07-25T06:12:54.000Z</time>
      </trkpt>
      <trkpt lat="42.70483" lon="1.28736">
        <ele>2405</ele>
        <time>2023-07-25T06:12:57.000Z</time>
      </trkpt>
      <trkpt lat="42.70482" lon="1.28731">
        <ele>2405.3999023438</ele>
        <time>2023-07-25T06:13:06.000Z</time>
      </trkpt>
      <trkpt lat="42.70481" lon="1.28726">
        <ele>2406.1999511719</ele>
        <time>2023-07-25T06:13:13.000Z</time>
      </trkpt>
      <trkpt lat="42.70482" lon="1.28726">
        <ele>2406.3999023438</ele>
        <time>2023-07-25T06:13:15.000Z</time>
      </trkpt>
      <trkpt lat="42.70482" lon="1.28728">
        <ele>2406.1999511719</ele>
        <time>2023-07-25T06:13:24.000Z</time>
      </trkpt>
      <trkpt lat="42.7048" lon="1.2873">
        <ele>2406.1999511719</ele>
        <time>2023-07-25T06:13:33.000Z</time>
      </trkpt>
      <trkpt lat="42.7048" lon="1.28729">
        <ele>2406.1999511719</ele>
        <time>2023-07-25T06:13:41.000Z</time>
      </trkpt>
      <trkpt lat="42.7048" lon="1.28727">
        <ele>2406</ele>
        <time>2023-07-25T06:13:49.000Z</time>
      </trkpt>
      <trkpt lat="42.7048" lon="1.28724">
        <ele>2406.6000976562</ele>
        <time>2023-07-25T06:13:57.000Z</time>
      </trkpt>
      <trkpt lat="42.70481" lon="1.2872">
        <ele>2407</ele>
        <time>2023-07-25T06:14:03.000Z</time>
      </trkpt>
      <trkpt lat="42.7048" lon="1.28719">
        <ele>2407.6000976562</ele>
        <time>2023-07-25T06:14:06.000Z</time>
      </trkpt>
      <trkpt lat="42.7048" lon="1.28718">
        <ele>2408</ele>
        <time>2023-07-25T06:14:08.000Z</time>
      </trkpt>
      <trkpt lat="42.70478" lon="1.28717">
        <ele>2408.6000976562</ele>
        <time>2023-07-25T06:14:13.000Z</time>
      </trkpt>
      <trkpt lat="42.70476" lon="1.28716">
        <ele>2409.3999023438</ele>
        <time>2023-07-25T06:14:16.000Z</time>
      </trkpt>
      <trkpt lat="42.70476" lon="1.28716">
        <ele>2409.8000488281</ele>
        <time>2023-07-25T06:14:17.000Z</time>
      </trkpt>
      <trkpt lat="42.70475" lon="1.28711">
        <ele>2410.8000488281</ele>
        <time>2023-07-25T06:14:22.000Z</time>
      </trkpt>
      <trkpt lat="42.70475" lon="1.28709">
        <ele>2411.3999023438</ele>
        <time>2023-07-25T06:14:26.000Z</time>
      </trkpt>
      <trkpt lat="42.70475" lon="1.28705">
        <ele>2411.8000488281</ele>
        <time>2023-07-25T06:14:30.000Z</time>
      </trkpt>
      <trkpt lat="42.70475" lon="1.28703">
        <ele>2412.1999511719</ele>
        <time>2023-07-25T06:14:32.000Z</time>
      </trkpt>
      <trkpt lat="42.70475" lon="1.287">
        <ele>2413</ele>
        <time>2023-07-25T06:14:36.000Z</time>
      </trkpt>
      <trkpt lat="42.70475" lon="1.28699">
        <ele>2413.3999023438</ele>
        <time>2023-07-25T06:14:40.000Z</time>
      </trkpt>
      <trkpt lat="42.70475" lon="1.28696">
        <ele>2414</ele>
        <time>2023-07-25T06:14:44.000Z</time>
      </trkpt>
      <trkpt lat="42.70474" lon="1.28695">
        <ele>2414.1999511719</ele>
        <time>2023-07-25T06:14:46.000Z</time>
      </trkpt>
      <trkpt lat="42.70474" lon="1.28692">
        <ele>2415</ele>
        <time>2023-07-25T06:14:51.000Z</time>
      </trkpt>
      <trkpt lat="42.70475" lon="1.28691">
        <ele>2415.3999023438</ele>
        <time>2023-07-25T06:14:54.000Z</time>
      </trkpt>
      <trkpt lat="42.70475" lon="1.28691">
        <ele>2416.1999511719</ele>
        <time>2023-07-25T06:14:57.000Z</time>
      </trkpt>
      <trkpt lat="42.70477" lon="1.28689">
        <ele>2416.6000976562</ele>
        <time>2023-07-25T06:15:00.000Z</time>
      </trkpt>
      <trkpt lat="42.70479" lon="1.28684">
        <ele>2417.1999511719</ele>
        <time>2023-07-25T06:15:05.000Z</time>
      </trkpt>
      <trkpt lat="42.70479" lon="1.28682">
        <ele>2417.8000488281</ele>
        <time>2023-07-25T06:15:08.000Z</time>
      </trkpt>
      <trkpt lat="42.70479" lon="1.28681">
        <ele>2418.1999511719</ele>
        <time>2023-07-25T06:15:10.000Z</time>
      </trkpt>
      <trkpt lat="42.70477" lon="1.2868">
        <ele>2419.3999023438</ele>
        <time>2023-07-25T06:15:16.000Z</time>
      </trkpt>
      <trkpt lat="42.70474" lon="1.28676">
        <ele>2419.8000488281</ele>
        <time>2023-07-25T06:15:21.000Z</time>
      </trkpt>
      <trkpt lat="42.70471" lon="1.28672">
        <ele>2420.1999511719</ele>
        <time>2023-07-25T06:15:28.000Z</time>
      </trkpt>
      <trkpt lat="42.70471" lon="1.28671">
        <ele>2420.3999023438</ele>
        <time>2023-07-25T06:15:29.000Z</time>
      </trkpt>
      <trkpt lat="42.7047" lon="1.28669">
        <ele>2421.3999023438</ele>
        <time>2023-07-25T06:15:35.000Z</time>
      </trkpt>
      <trkpt lat="42.7047" lon="1.28668">
        <ele>2421.6000976562</ele>
        <time>2023-07-25T06:15:36.000Z</time>
      </trkpt>
      <trkpt lat="42.70471" lon="1.28665">
        <ele>2422.6000976562</ele>
        <time>2023-07-25T06:15:44.000Z</time>
      </trkpt>
      <trkpt lat="42.70471" lon="1.28665">
        <ele>2422.8000488281</ele>
        <time>2023-07-25T06:15:45.000Z</time>
      </trkpt>
      <trkpt lat="42.70473" lon="1.2866">
        <ele>2423.3999023438</ele>
        <time>2023-07-25T06:15:51.000Z</time>
      </trkpt>
      <trkpt lat="42.70474" lon="1.28657">
        <ele>2423.8000488281</ele>
        <time>2023-07-25T06:15:54.000Z</time>
      </trkpt>
      <trkpt lat="42.70475" lon="1.28654">
        <ele>2424.3999023438</ele>
        <time>2023-07-25T06:15:57.000Z</time>
      </trkpt>
      <trkpt lat="42.70475" lon="1.28653">
        <ele>2424.8000488281</ele>
        <time>2023-07-25T06:16:00.000Z</time>
      </trkpt>
      <trkpt lat="42.70475" lon="1.28652">
        <ele>2425.8000488281</ele>
        <time>2023-07-25T06:16:06.000Z</time>
      </trkpt>
      <trkpt lat="42.70475" lon="1.28652">
        <ele>2426</ele>
        <time>2023-07-25T06:16:07.000Z</time>
      </trkpt>
      <trkpt lat="42.70475" lon="1.2865">
        <ele>2426.6000976562</ele>
        <time>2023-07-25T06:16:12.000Z</time>
      </trkpt>
      <trkpt lat="42.70474" lon="1.2865">
        <ele>2427.1999511719</ele>
        <time>2023-07-25T06:16:15.000Z</time>
      </trkpt>
      <trkpt lat="42.70475" lon="1.28647">
        <ele>2427.8000488281</ele>
        <time>2023-07-25T06:16:19.000Z</time>
      </trkpt>
      <trkpt lat="42.70475" lon="1.28646">
        <ele>2428.1999511719</ele>
        <time>2023-07-25T06:16:21.000Z</time>
      </trkpt>
      <trkpt lat="42.70477" lon="1.28643">
        <ele>2429.1999511719</ele>
        <time>2023-07-25T06:16:28.000Z</time>
      </trkpt>
      <trkpt lat="42.70476" lon="1.28641">
        <ele>2429.6000976562</ele>
        <time>2023-07-25T06:16:31.000Z</time>
      </trkpt>
      <trkpt lat="42.70477" lon="1.28639">
        <ele>2430.3999023438</ele>
        <time>2023-07-25T06:16:36.000Z</time>
      </trkpt>
      <trkpt lat="42.70477" lon="1.28638">
        <ele>2430.8000488281</ele>
        <time>2023-07-25T06:16:39.000Z</time>
      </trkpt>
      <trkpt lat="42.70476" lon="1.28637">
        <ele>2431.3999023438</ele>
        <time>2023-07-25T06:16:45.000Z</time>
      </trkpt>
      <trkpt lat="42.70475" lon="1.28636">
        <ele>2431.6000976562</ele>
        <time>2023-07-25T06:16:47.000Z</time>
      </trkpt>
      <trkpt lat="42.70475" lon="1.28635">
        <ele>2432.3999023438</ele>
        <time>2023-07-25T06:16:50.000Z</time>
      </trkpt>
      <trkpt lat="42.70476" lon="1.28634">
        <ele>2432.8000488281</ele>
        <time>2023-07-25T06:16:53.000Z</time>
      </trkpt>
      <trkpt lat="42.70478" lon="1.28632">
        <ele>2433.3999023438</ele>
        <time>2023-07-25T06:16:59.000Z</time>
      </trkpt>
      <trkpt lat="42.70478" lon="1.28632">
        <ele>2433.6000976562</ele>
        <time>2023-07-25T06:17:00.000Z</time>
      </trkpt>
      <trkpt lat="42.70479" lon="1.28631">
        <ele>2434.3999023438</ele>
        <time>2023-07-25T06:17:06.000Z</time>
      </trkpt>
      <trkpt lat="42.7048" lon="1.28631">
        <ele>2435.1999511719</ele>
        <time>2023-07-25T06:17:10.000Z</time>
      </trkpt>
      <trkpt lat="42.70482" lon="1.2863">
        <ele>2435.6000976562</ele>
        <time>2023-07-25T06:17:13.000Z</time>
      </trkpt>
      <trkpt lat="42.70485" lon="1.28629">
        <ele>2436.1999511719</ele>
        <time>2023-07-25T06:17:18.000Z</time>
      </trkpt>
      <trkpt lat="42.70485" lon="1.28628">
        <ele>2436.6000976562</ele>
        <time>2023-07-25T06:17:20.000Z</time>
      </trkpt>
      <trkpt lat="42.70483" lon="1.28627">
        <ele>2437.3999023438</ele>
        <time>2023-07-25T06:17:25.000Z</time>
      </trkpt>
      <trkpt lat="42.70484" lon="1.28626">
        <ele>2437.8000488281</ele>
        <time>2023-07-25T06:17:29.000Z</time>
      </trkpt>
      <trkpt lat="42.70486" lon="1.28625">
        <ele>2439</ele>
        <time>2023-07-25T06:17:34.000Z</time>
      </trkpt>
      <trkpt lat="42.70486" lon="1.28623">
        <ele>2439.8000488281</ele>
        <time>2023-07-25T06:17:42.000Z</time>
      </trkpt>
      <trkpt lat="42.70486" lon="1.28622">
        <ele>2440</ele>
        <time>2023-07-25T06:17:44.000Z</time>
      </trkpt>
      <trkpt lat="42.70489" lon="1.28621">
        <ele>2441.1999511719</ele>
        <time>2023-07-25T06:17:49.000Z</time>
      </trkpt>
      <trkpt lat="42.7049" lon="1.28621">
        <ele>2441.3999023438</ele>
        <time>2023-07-25T06:17:50.000Z</time>
      </trkpt>
      <trkpt lat="42.70492" lon="1.2862">
        <ele>2442.1999511719</ele>
        <time>2023-07-25T06:17:57.000Z</time>
      </trkpt>
      <trkpt lat="42.70492" lon="1.28619">
        <ele>2442.3999023438</ele>
        <time>2023-07-25T06:17:58.000Z</time>
      </trkpt>
      <trkpt lat="42.70494" lon="1.28619">
        <ele>2443.3999023438</ele>
        <time>2023-07-25T06:18:05.000Z</time>
      </trkpt>
      <trkpt lat="42.70494" lon="1.28619">
        <ele>2443.6000976562</ele>
        <time>2023-07-25T06:18:07.000Z</time>
      </trkpt>
      <trkpt lat="42.70493" lon="1.28615">
        <ele>2444.6000976562</ele>
        <time>2023-07-25T06:18:14.000Z</time>
      </trkpt>
      <trkpt lat="42.70495" lon="1.28611">
        <ele>2445.6000976562</ele>
        <time>2023-07-25T06:18:20.000Z</time>
      </trkpt>
      <trkpt lat="42.70493" lon="1.28609">
        <ele>2446.6000976562</ele>
        <time>2023-07-25T06:18:28.000Z</time>
      </trkpt>
      <trkpt lat="42.70495" lon="1.28605">
        <ele>2447.3999023438</ele>
        <time>2023-07-25T06:18:34.000Z</time>
      </trkpt>
      <trkpt lat="42.70497" lon="1.28604">
        <ele>2447.8000488281</ele>
        <time>2023-07-25T06:18:37.000Z</time>
      </trkpt>
      <trkpt lat="42.70497" lon="1.28603">
        <ele>2448.3999023438</ele>
        <time>2023-07-25T06:18:40.000Z</time>
      </trkpt>
      <trkpt lat="42.70497" lon="1.28602">
        <ele>2448.8000488281</ele>
        <time>2023-07-25T06:18:42.000Z</time>
      </trkpt>
      <trkpt lat="42.70499" lon="1.286">
        <ele>2449.3999023438</ele>
        <time>2023-07-25T06:18:46.000Z</time>
      </trkpt>
      <trkpt lat="42.70499" lon="1.28597">
        <ele>2450</ele>
        <time>2023-07-25T06:18:52.000Z</time>
      </trkpt>
      <trkpt lat="42.705" lon="1.28596">
        <ele>2451</ele>
        <time>2023-07-25T06:19:00.000Z</time>
      </trkpt>
      <trkpt lat="42.70501" lon="1.28595">
        <ele>2451.1999511719</ele>
        <time>2023-07-25T06:19:01.000Z</time>
      </trkpt>
      <trkpt lat="42.70506" lon="1.28592">
        <ele>2452.3999023438</ele>
        <time>2023-07-25T06:19:08.000Z</time>
      </trkpt>
      <trkpt lat="42.70505" lon="1.28589">
        <ele>2453</ele>
        <time>2023-07-25T06:19:14.000Z</time>
      </trkpt>
      <trkpt lat="42.70506" lon="1.28587">
        <ele>2453.1999511719</ele>
        <time>2023-07-25T06:19:18.000Z</time>
      </trkpt>
      <trkpt lat="42.70509" lon="1.28585">
        <ele>2453.3999023438</ele>
        <time>2023-07-25T06:19:21.000Z</time>
      </trkpt>
      <trkpt lat="42.70508" lon="1.28581">
        <ele>2454</ele>
        <time>2023-07-25T06:19:25.000Z</time>
      </trkpt>
      <trkpt lat="42.70505" lon="1.28575">
        <ele>2454.3999023438</ele>
        <time>2023-07-25T06:19:30.000Z</time>
      </trkpt>
      <trkpt lat="42.70505" lon="1.28573">
        <ele>2454.6000976562</ele>
        <time>2023-07-25T06:19:31.000Z</time>
      </trkpt>
      <trkpt lat="42.70504" lon="1.28566">
        <ele>2455.3999023438</ele>
        <time>2023-07-25T06:19:37.000Z</time>
      </trkpt>
      <trkpt lat="42.70503" lon="1.28566">
        <ele>2455.6000976562</ele>
        <time>2023-07-25T06:19:38.000Z</time>
      </trkpt>
      <trkpt lat="42.70504" lon="1.28561">
        <ele>2456.1999511719</ele>
        <time>2023-07-25T06:19:46.000Z</time>
      </trkpt>
      <trkpt lat="42.70503" lon="1.2856">
        <ele>2456.8000488281</ele>
        <time>2023-07-25T06:19:50.000Z</time>
      </trkpt>
      <trkpt lat="42.705" lon="1.28555">
        <ele>2457.3999023438</ele>
        <time>2023-07-25T06:19:54.000Z</time>
      </trkpt>
      <trkpt lat="42.70503" lon="1.28549">
        <ele>2458</ele>
        <time>2023-07-25T06:20:02.000Z</time>
      </trkpt>
      <trkpt lat="42.70503" lon="1.28549">
        <ele>2458.1999511719</ele>
        <time>2023-07-25T06:20:03.000Z</time>
      </trkpt>
      <trkpt lat="42.70503" lon="1.28545">
        <ele>2459</ele>
        <time>2023-07-25T06:20:08.000Z</time>
      </trkpt>
      <trkpt lat="42.70503" lon="1.28543">
        <ele>2459.3999023438</ele>
        <time>2023-07-25T06:20:10.000Z</time>
      </trkpt>
      <trkpt lat="42.70501" lon="1.28536">
        <ele>2460</ele>
        <time>2023-07-25T06:20:17.000Z</time>
      </trkpt>
      <trkpt lat="42.70502" lon="1.28535">
        <ele>2460.1999511719</ele>
        <time>2023-07-25T06:20:18.000Z</time>
      </trkpt>
      <trkpt lat="42.70502" lon="1.2853">
        <ele>2460.6000976562</ele>
        <time>2023-07-25T06:20:25.000Z</time>
      </trkpt>
      <trkpt lat="42.70502" lon="1.28527">
        <ele>2461.1999511719</ele>
        <time>2023-07-25T06:20:29.000Z</time>
      </trkpt>
      <trkpt lat="42.70503" lon="1.28527">
        <ele>2461.6000976562</ele>
        <time>2023-07-25T06:20:31.000Z</time>
      </trkpt>
      <trkpt lat="42.70504" lon="1.28524">
        <ele>2462.1999511719</ele>
        <time>2023-07-25T06:20:34.000Z</time>
      </trkpt>
      <trkpt lat="42.70508" lon="1.28523">
        <ele>2463</ele>
        <time>2023-07-25T06:20:40.000Z</time>
      </trkpt>
      <trkpt lat="42.70509" lon="1.28522">
        <ele>2463.1999511719</ele>
        <time>2023-07-25T06:20:42.000Z</time>
      </trkpt>
      <trkpt lat="42.70511" lon="1.28519">
        <ele>2464</ele>
        <time>2023-07-25T06:20:47.000Z</time>
      </trkpt>
      <trkpt lat="42.7051" lon="1.28518">
        <ele>2464.3999023438</ele>
        <time>2023-07-25T06:20:49.000Z</time>
      </trkpt>
      <trkpt lat="42.7051" lon="1.28511">
        <ele>2464.8000488281</ele>
        <time>2023-07-25T06:20:56.000Z</time>
      </trkpt>
      <trkpt lat="42.7051" lon="1.28509">
        <ele>2465</ele>
        <time>2023-07-25T06:21:03.000Z</time>
      </trkpt>
      <trkpt lat="42.70512" lon="1.28506">
        <ele>2465.3999023438</ele>
        <time>2023-07-25T06:21:09.000Z</time>
      </trkpt>
      <trkpt lat="42.70513" lon="1.28505">
        <ele>2465.6000976562</ele>
        <time>2023-07-25T06:21:11.000Z</time>
      </trkpt>
      <trkpt lat="42.70514" lon="1.285">
        <ele>2466.3999023438</ele>
        <time>2023-07-25T06:21:19.000Z</time>
      </trkpt>
      <trkpt lat="42.70514" lon="1.28499">
        <ele>2466.6000976562</ele>
        <time>2023-07-25T06:21:20.000Z</time>
      </trkpt>
      <trkpt lat="42.70513" lon="1.28496">
        <ele>2467.3999023438</ele>
        <time>2023-07-25T06:21:25.000Z</time>
      </trkpt>
      <trkpt lat="42.70515" lon="1.28493">
        <ele>2468</ele>
        <time>2023-07-25T06:21:28.000Z</time>
      </trkpt>
      <trkpt lat="42.70517" lon="1.28491">
        <ele>2468.1999511719</ele>
        <time>2023-07-25T06:21:31.000Z</time>
      </trkpt>
      <trkpt lat="42.70517" lon="1.2849">
        <ele>2469</ele>
        <time>2023-07-25T06:21:34.000Z</time>
      </trkpt>
      <trkpt lat="42.70517" lon="1.2849">
        <ele>2470.1999511719</ele>
        <time>2023-07-25T06:21:39.000Z</time>
      </trkpt>
      <trkpt lat="42.70516" lon="1.28489">
        <ele>2470.6000976562</ele>
        <time>2023-07-25T06:21:40.000Z</time>
      </trkpt>
      <trkpt lat="42.70515" lon="1.28486">
        <ele>2470.8000488281</ele>
        <time>2023-07-25T06:21:49.000Z</time>
      </trkpt>
      <trkpt lat="42.70514" lon="1.28482">
        <ele>2470.8000488281</ele>
        <time>2023-07-25T06:21:58.000Z</time>
      </trkpt>
      <trkpt lat="42.70514" lon="1.2848">
        <ele>2471.1999511719</ele>
        <time>2023-07-25T06:22:01.000Z</time>
      </trkpt>
      <trkpt lat="42.70513" lon="1.28475">
        <ele>2472.1999511719</ele>
        <time>2023-07-25T06:22:08.000Z</time>
      </trkpt>
      <trkpt lat="42.70513" lon="1.28474">
        <ele>2472.8000488281</ele>
        <time>2023-07-25T06:22:09.000Z</time>
      </trkpt>
      <trkpt lat="42.70513" lon="1.28472">
        <ele>2473.8000488281</ele>
        <time>2023-07-25T06:22:13.000Z</time>
      </trkpt>
      <trkpt lat="42.70514" lon="1.28471">
        <ele>2474</ele>
        <time>2023-07-25T06:22:16.000Z</time>
      </trkpt>
      <trkpt lat="42.70517" lon="1.28469">
        <ele>2473.8000488281</ele>
        <time>2023-07-25T06:22:22.000Z</time>
      </trkpt>
      <trkpt lat="42.7052" lon="1.28466">
        <ele>2475.1999511719</ele>
        <time>2023-07-25T06:22:27.000Z</time>
      </trkpt>
      <trkpt lat="42.70519" lon="1.28466">
        <ele>2476.3999023438</ele>
        <time>2023-07-25T06:22:30.000Z</time>
      </trkpt>
      <trkpt lat="42.70518" lon="1.28463">
        <ele>2476.3999023438</ele>
        <time>2023-07-25T06:22:40.000Z</time>
      </trkpt>
      <trkpt lat="42.70521" lon="1.28467">
        <ele>2476.6000976562</ele>
        <time>2023-07-25T06:22:47.000Z</time>
      </trkpt>
      <trkpt lat="42.70521" lon="1.28464">
        <ele>2476.3999023438</ele>
        <time>2023-07-25T06:22:56.000Z</time>
      </trkpt>
      <trkpt lat="42.70521" lon="1.28462">
        <ele>2476</ele>
        <time>2023-07-25T06:23:04.000Z</time>
      </trkpt>
      <trkpt lat="42.70519" lon="1.28463">
        <ele>2476.1999511719</ele>
        <time>2023-07-25T06:23:11.000Z</time>
      </trkpt>
      <trkpt lat="42.70516" lon="1.28458">
        <ele>2476.1999511719</ele>
        <time>2023-07-25T06:23:20.000Z</time>
      </trkpt>
      <trkpt lat="42.70516" lon="1.28458">
        <ele>2476.3999023438</ele>
        <time>2023-07-25T06:23:26.000Z</time>
      </trkpt>
      <trkpt lat="42.70517" lon="1.28462">
        <ele>2476.6000976562</ele>
        <time>2023-07-25T06:23:33.000Z</time>
      </trkpt>
      <trkpt lat="42.70517" lon="1.28459">
        <ele>2476.3999023438</ele>
        <time>2023-07-25T06:23:40.000Z</time>
      </trkpt>
      <trkpt lat="42.70516" lon="1.28458">
        <ele>2476.6000976562</ele>
        <time>2023-07-25T06:23:46.000Z</time>
      </trkpt>
      <trkpt lat="42.70515" lon="1.28461">
        <ele>2476.3999023438</ele>
        <time>2023-07-25T06:23:54.000Z</time>
      </trkpt>
      <trkpt lat="42.70519" lon="1.28461">
        <ele>2476.8000488281</ele>
        <time>2023-07-25T06:24:01.000Z</time>
      </trkpt>
      <trkpt lat="42.70521" lon="1.28458">
        <ele>2477.3999023438</ele>
        <time>2023-07-25T06:24:06.000Z</time>
      </trkpt>
      <trkpt lat="42.70523" lon="1.28456">
        <ele>2478.6000976562</ele>
        <time>2023-07-25T06:24:10.000Z</time>
      </trkpt>
      <trkpt lat="42.70523" lon="1.28456">
        <ele>2478.8000488281</ele>
        <time>2023-07-25T06:24:11.000Z</time>
      </trkpt>
      <trkpt lat="42.70525" lon="1.28456">
        <ele>2479.6000976562</ele>
        <time>2023-07-25T06:24:15.000Z</time>
      </trkpt>
      <trkpt lat="42.70525" lon="1.28455">
        <ele>2479.8000488281</ele>
        <time>2023-07-25T06:24:16.000Z</time>
      </trkpt>
      <trkpt lat="42.70525" lon="1.28452">
        <ele>2480.8000488281</ele>
        <time>2023-07-25T06:24:20.000Z</time>
      </trkpt>
      <trkpt lat="42.70526" lon="1.2845">
        <ele>2481.6000976562</ele>
        <time>2023-07-25T06:24:24.000Z</time>
      </trkpt>
      <trkpt lat="42.70526" lon="1.2845">
        <ele>2481.8000488281</ele>
        <time>2023-07-25T06:24:25.000Z</time>
      </trkpt>
      <trkpt lat="42.70527" lon="1.28445">
        <ele>2482.8000488281</ele>
        <time>2023-07-25T06:24:30.000Z</time>
      </trkpt>
      <trkpt lat="42.70527" lon="1.28445">
        <ele>2483</ele>
        <time>2023-07-25T06:24:31.000Z</time>
      </trkpt>
      <trkpt lat="42.70532" lon="1.28446">
        <ele>2483.8000488281</ele>
        <time>2023-07-25T06:24:38.000Z</time>
      </trkpt>
      <trkpt lat="42.70532" lon="1.28443">
        <ele>2484</ele>
        <time>2023-07-25T06:24:43.000Z</time>
      </trkpt>
      <trkpt lat="42.70533" lon="1.28443">
        <ele>2484.3999023438</ele>
        <time>2023-07-25T06:24:48.000Z</time>
      </trkpt>
      <trkpt lat="42.70533" lon="1.28442">
        <ele>2485.1999511719</ele>
        <time>2023-07-25T06:24:50.000Z</time>
      </trkpt>
      <trkpt lat="42.70532" lon="1.28441">
        <ele>2485.6000976562</ele>
        <time>2023-07-25T06:24:52.000Z</time>
      </trkpt>
      <trkpt lat="42.70531" lon="1.28441">
        <ele>2486</ele>
        <time>2023-07-25T06:24:55.000Z</time>
      </trkpt>
      <trkpt lat="42.70532" lon="1.2844">
        <ele>2486.1999511719</ele>
        <time>2023-07-25T06:24:56.000Z</time>
      </trkpt>
      <trkpt lat="42.70533" lon="1.28439">
        <ele>2486.8000488281</ele>
        <time>2023-07-25T06:24:59.000Z</time>
      </trkpt>
      <trkpt lat="42.70535" lon="1.28438">
        <ele>2487.3999023438</ele>
        <time>2023-07-25T06:25:03.000Z</time>
      </trkpt>
      <trkpt lat="42.70535" lon="1.28439">
        <ele>2487.6000976562</ele>
        <time>2023-07-25T06:25:04.000Z</time>
      </trkpt>
      <trkpt lat="42.70536" lon="1.28439">
        <ele>2487.6000976562</ele>
        <time>2023-07-25T06:25:05.000Z</time>
      </trkpt>
      <trkpt lat="42.70538" lon="1.28437">
        <ele>2488.3999023438</ele>
        <time>2023-07-25T06:25:09.000Z</time>
      </trkpt>
      <trkpt lat="42.7054" lon="1.28436">
        <ele>2488.8000488281</ele>
        <time>2023-07-25T06:25:11.000Z</time>
      </trkpt>
      <trkpt lat="42.7054" lon="1.28434">
        <ele>2489.3999023438</ele>
        <time>2023-07-25T06:25:16.000Z</time>
      </trkpt>
      <trkpt lat="42.70538" lon="1.28433">
        <ele>2489.6000976562</ele>
        <time>2023-07-25T06:25:20.000Z</time>
      </trkpt>
      <trkpt lat="42.70535" lon="1.28431">
        <ele>2490</ele>
        <time>2023-07-25T06:25:30.000Z</time>
      </trkpt>
      <trkpt lat="42.70533" lon="1.28431">
        <ele>2489.8000488281</ele>
        <time>2023-07-25T06:25:38.000Z</time>
      </trkpt>
      <trkpt lat="42.70532" lon="1.28429">
        <ele>2490</ele>
        <time>2023-07-25T06:25:46.000Z</time>
      </trkpt>
      <trkpt lat="42.70532" lon="1.2843">
        <ele>2490.1999511719</ele>
        <time>2023-07-25T06:25:53.000Z</time>
      </trkpt>
      <trkpt lat="42.7053" lon="1.28426">
        <ele>2490.1999511719</ele>
        <time>2023-07-25T06:26:00.000Z</time>
      </trkpt>
      <trkpt lat="42.70535" lon="1.28425">
        <ele>2490.3999023438</ele>
        <time>2023-07-25T06:26:05.000Z</time>
      </trkpt>
      <trkpt lat="42.70538" lon="1.28427">
        <ele>2491.1999511719</ele>
        <time>2023-07-25T06:26:09.000Z</time>
      </trkpt>
      <trkpt lat="42.7054" lon="1.28429">
        <ele>2491.6000976562</ele>
        <time>2023-07-25T06:26:11.000Z</time>
      </trkpt>
      <trkpt lat="42.70544" lon="1.28431">
        <ele>2492.6000976562</ele>
        <time>2023-07-25T06:26:16.000Z</time>
      </trkpt>
      <trkpt lat="42.70544" lon="1.28429">
        <ele>2493.8000488281</ele>
        <time>2023-07-25T06:26:21.000Z</time>
      </trkpt>
      <trkpt lat="42.70543" lon="1.28426">
        <ele>2494.1999511719</ele>
        <time>2023-07-25T06:26:24.000Z</time>
      </trkpt>
      <trkpt lat="42.70542" lon="1.28422">
        <ele>2495</ele>
        <time>2023-07-25T06:26:27.000Z</time>
      </trkpt>
      <trkpt lat="42.70543" lon="1.28417">
        <ele>2495.6000976562</ele>
        <time>2023-07-25T06:26:32.000Z</time>
      </trkpt>
      <trkpt lat="42.70543" lon="1.28416">
        <ele>2496.1999511719</ele>
        <time>2023-07-25T06:26:34.000Z</time>
      </trkpt>
      <trkpt lat="42.70544" lon="1.28415">
        <ele>2497</ele>
        <time>2023-07-25T06:26:38.000Z</time>
      </trkpt>
      <trkpt lat="42.70545" lon="1.28413">
        <ele>2497.1999511719</ele>
        <time>2023-07-25T06:26:39.000Z</time>
      </trkpt>
      <trkpt lat="42.70548" lon="1.28411">
        <ele>2497.6000976562</ele>
        <time>2023-07-25T06:26:44.000Z</time>
      </trkpt>
      <trkpt lat="42.7055" lon="1.28414">
        <ele>2498.3999023438</ele>
        <time>2023-07-25T06:26:51.000Z</time>
      </trkpt>
      <trkpt lat="42.7055" lon="1.28412">
        <ele>2499.6000976562</ele>
        <time>2023-07-25T06:26:56.000Z</time>
      </trkpt>
      <trkpt lat="42.70549" lon="1.28411">
        <ele>2499.8000488281</ele>
        <time>2023-07-25T06:26:57.000Z</time>
      </trkpt>
      <trkpt lat="42.70549" lon="1.2841">
        <ele>2500</ele>
        <time>2023-07-25T06:26:58.000Z</time>
      </trkpt>
      <trkpt lat="42.7055" lon="1.28406">
        <ele>2500.6000976562</ele>
        <time>2023-07-25T06:27:05.000Z</time>
      </trkpt>
      <trkpt lat="42.70551" lon="1.28402">
        <ele>2501.6000976562</ele>
        <time>2023-07-25T06:27:12.000Z</time>
      </trkpt>
      <trkpt lat="42.70551" lon="1.28402">
        <ele>2501.8000488281</ele>
        <time>2023-07-25T06:27:13.000Z</time>
      </trkpt>
      <trkpt lat="42.7055" lon="1.284">
        <ele>2502.3999023438</ele>
        <time>2023-07-25T06:27:21.000Z</time>
      </trkpt>
      <trkpt lat="42.70551" lon="1.284">
        <ele>2502.8000488281</ele>
        <time>2023-07-25T06:27:23.000Z</time>
      </trkpt>
      <trkpt lat="42.70554" lon="1.28395">
        <ele>2503.6000976562</ele>
        <time>2023-07-25T06:27:29.000Z</time>
      </trkpt>
      <trkpt lat="42.70554" lon="1.28395">
        <ele>2504</ele>
        <time>2023-07-25T06:27:30.000Z</time>
      </trkpt>
      <trkpt lat="42.70555" lon="1.28392">
        <ele>2504.6000976562</ele>
        <time>2023-07-25T06:27:37.000Z</time>
      </trkpt>
      <trkpt lat="42.70555" lon="1.28392">
        <ele>2505</ele>
        <time>2023-07-25T06:27:40.000Z</time>
      </trkpt>
      <trkpt lat="42.70557" lon="1.28388">
        <ele>2505.6000976562</ele>
        <time>2023-07-25T06:27:45.000Z</time>
      </trkpt>
      <trkpt lat="42.70557" lon="1.28387">
        <ele>2506</ele>
        <time>2023-07-25T06:27:48.000Z</time>
      </trkpt>
      <trkpt lat="42.70557" lon="1.28387">
        <ele>2506.6000976562</ele>
        <time>2023-07-25T06:27:52.000Z</time>
      </trkpt>
      <trkpt lat="42.70558" lon="1.28386">
        <ele>2507.1999511719</ele>
        <time>2023-07-25T06:27:56.000Z</time>
      </trkpt>
      <trkpt lat="42.70561" lon="1.28385">
        <ele>2507.6000976562</ele>
        <time>2023-07-25T06:28:00.000Z</time>
      </trkpt>
      <trkpt lat="42.70563" lon="1.28384">
        <ele>2508.1999511719</ele>
        <time>2023-07-25T06:28:04.000Z</time>
      </trkpt>
      <trkpt lat="42.70561" lon="1.28382">
        <ele>2509.3999023438</ele>
        <time>2023-07-25T06:28:08.000Z</time>
      </trkpt>
      <trkpt lat="42.70561" lon="1.28382">
        <ele>2509.6000976562</ele>
        <time>2023-07-25T06:28:09.000Z</time>
      </trkpt>
      <trkpt lat="42.70562" lon="1.28376">
        <ele>2510.3999023438</ele>
        <time>2023-07-25T06:28:15.000Z</time>
      </trkpt>
      <trkpt lat="42.70561" lon="1.28374">
        <ele>2511</ele>
        <time>2023-07-25T06:28:19.000Z</time>
      </trkpt>
      <trkpt lat="42.70562" lon="1.28374">
        <ele>2511.3999023438</ele>
        <time>2023-07-25T06:28:21.000Z</time>
      </trkpt>
      <trkpt lat="42.70562" lon="1.28378">
        <ele>2511.3999023438</ele>
        <time>2023-07-25T06:28:29.000Z</time>
      </trkpt>
      <trkpt lat="42.70565" lon="1.28373">
        <ele>2512.1999511719</ele>
        <time>2023-07-25T06:28:36.000Z</time>
      </trkpt>
      <trkpt lat="42.70565" lon="1.28372">
        <ele>2512.3999023438</ele>
        <time>2023-07-25T06:28:37.000Z</time>
      </trkpt>
      <trkpt lat="42.70566" lon="1.28369">
        <ele>2512.8000488281</ele>
        <time>2023-07-25T06:28:43.000Z</time>
      </trkpt>
      <trkpt lat="42.70565" lon="1.28366">
        <ele>2513.1999511719</ele>
        <time>2023-07-25T06:28:50.000Z</time>
      </trkpt>
      <trkpt lat="42.70564" lon="1.28365">
        <ele>2513.6000976562</ele>
        <time>2023-07-25T06:28:52.000Z</time>
      </trkpt>
      <trkpt lat="42.70562" lon="1.28359">
        <ele>2514.3999023438</ele>
        <time>2023-07-25T06:29:00.000Z</time>
      </trkpt>
      <trkpt lat="42.70562" lon="1.28357">
        <ele>2514.6000976562</ele>
        <time>2023-07-25T06:29:02.000Z</time>
      </trkpt>
      <trkpt lat="42.70562" lon="1.28356">
        <ele>2515.8000488281</ele>
        <time>2023-07-25T06:29:06.000Z</time>
      </trkpt>
      <trkpt lat="42.70563" lon="1.28355">
        <ele>2516</ele>
        <time>2023-07-25T06:29:07.000Z</time>
      </trkpt>
      <trkpt lat="42.70564" lon="1.28354">
        <ele>2516.8000488281</ele>
        <time>2023-07-25T06:29:12.000Z</time>
      </trkpt>
      <trkpt lat="42.70565" lon="1.28354">
        <ele>2517</ele>
        <time>2023-07-25T06:29:14.000Z</time>
      </trkpt>
      <trkpt lat="42.70566" lon="1.28352">
        <ele>2517.8000488281</ele>
        <time>2023-07-25T06:29:19.000Z</time>
      </trkpt>
      <trkpt lat="42.70566" lon="1.28353">
        <ele>2517.8000488281</ele>
        <time>2023-07-25T06:29:20.000Z</time>
      </trkpt>
      <trkpt lat="42.70569" lon="1.28359">
        <ele>2518</ele>
        <time>2023-07-25T06:29:28.000Z</time>
      </trkpt>
      <trkpt lat="42.70571" lon="1.28366">
        <ele>2518.1999511719</ele>
        <time>2023-07-25T06:29:37.000Z</time>
      </trkpt>
      <trkpt lat="42.70571" lon="1.28366">
        <ele>2518.3999023438</ele>
        <time>2023-07-25T06:29:45.000Z</time>
      </trkpt>
      <trkpt lat="42.70572" lon="1.28361">
        <ele>2518.6000976562</ele>
        <time>2023-07-25T06:29:50.000Z</time>
      </trkpt>
      <trkpt lat="42.70573" lon="1.28362">
        <ele>2518.3999023438</ele>
        <time>2023-07-25T06:30:01.000Z</time>
      </trkpt>
      <trkpt lat="42.70571" lon="1.28358">
        <ele>2518.3999023438</ele>
        <time>2023-07-25T06:30:11.000Z</time>
      </trkpt>
      <trkpt lat="42.70569" lon="1.28362">
        <ele>2518.3999023438</ele>
        <time>2023-07-25T06:30:19.000Z</time>
      </trkpt>
      <trkpt lat="42.70569" lon="1.28362">
        <ele>2518.3999023438</ele>
        <time>2023-07-25T06:30:25.000Z</time>
      </trkpt>
      <trkpt lat="42.70562" lon="1.28356">
        <ele>2518.3999023438</ele>
        <time>2023-07-25T06:30:32.000Z</time>
      </trkpt>
      <trkpt lat="42.70571" lon="1.28355">
        <ele>2518.6000976562</ele>
        <time>2023-07-25T06:30:57.000Z</time>
      </trkpt>
      <trkpt lat="42.70567" lon="1.28351">
        <ele>2518.6000976562</ele>
        <time>2023-07-25T06:31:04.000Z</time>
      </trkpt>
      <trkpt lat="42.70566" lon="1.28349">
        <ele>2518.8000488281</ele>
        <time>2023-07-25T06:31:11.000Z</time>
      </trkpt>
      <trkpt lat="42.70567" lon="1.28353">
        <ele>2519</ele>
        <time>2023-07-25T06:31:23.000Z</time>
      </trkpt>
      <trkpt lat="42.70568" lon="1.2836">
        <ele>2519</ele>
        <time>2023-07-25T06:31:30.000Z</time>
      </trkpt>
      <trkpt lat="42.70574" lon="1.28365">
        <ele>2518.8000488281</ele>
        <time>2023-07-25T06:31:38.000Z</time>
      </trkpt>
      <trkpt lat="42.70572" lon="1.28359">
        <ele>2518.8000488281</ele>
        <time>2023-07-25T06:31:45.000Z</time>
      </trkpt>
      <trkpt lat="42.7057" lon="1.28355">
        <ele>2519</ele>
        <time>2023-07-25T06:31:52.000Z</time>
      </trkpt>
      <trkpt lat="42.70571" lon="1.28362">
        <ele>2519</ele>
        <time>2023-07-25T06:32:00.000Z</time>
      </trkpt>
      <trkpt lat="42.7057" lon="1.28359">
        <ele>2519</ele>
        <time>2023-07-25T06:32:02.000Z</time>
      </trkpt>
      <trkpt lat="42.70568" lon="1.28358">
        <ele>2518.6000976562</ele>
        <time>2023-07-25T06:32:04.000Z</time>
      </trkpt>
      <trkpt lat="42.70567" lon="1.28358">
        <ele>2518.6000976562</ele>
        <time>2023-07-25T06:32:05.000Z</time>
      </trkpt>
      <trkpt lat="42.70561" lon="1.2835">
        <ele>2518.6000976562</ele>
        <time>2023-07-25T06:32:14.000Z</time>
      </trkpt>
      <trkpt lat="42.7056" lon="1.28346">
        <ele>2519.3999023438</ele>
        <time>2023-07-25T06:32:21.000Z</time>
      </trkpt>
      <trkpt lat="42.7056" lon="1.28345">
        <ele>2520</ele>
        <time>2023-07-25T06:32:23.000Z</time>
      </trkpt>
      <trkpt lat="42.70561" lon="1.28344">
        <ele>2520.1999511719</ele>
        <time>2023-07-25T06:32:28.000Z</time>
      </trkpt>
      <trkpt lat="42.70564" lon="1.2834">
        <ele>2521</ele>
        <time>2023-07-25T06:32:35.000Z</time>
      </trkpt>
      <trkpt lat="42.70563" lon="1.2834">
        <ele>2522</ele>
        <time>2023-07-25T06:32:39.000Z</time>
      </trkpt>
      <trkpt lat="42.70569" lon="1.2834">
        <ele>2523.6000976562</ele>
        <time>2023-07-25T06:32:51.000Z</time>
      </trkpt>
      <trkpt lat="42.70571" lon="1.2834">
        <ele>2524.3999023438</ele>
        <time>2023-07-25T06:32:57.000Z</time>
      </trkpt>
      <trkpt lat="42.7057" lon="1.28339">
        <ele>2524.6000976562</ele>
        <time>2023-07-25T06:32:59.000Z</time>
      </trkpt>
      <trkpt lat="42.70568" lon="1.28336">
        <ele>2525.3999023438</ele>
        <time>2023-07-25T06:33:03.000Z</time>
      </trkpt>
      <trkpt lat="42.70568" lon="1.28333">
        <ele>2525.8000488281</ele>
        <time>2023-07-25T06:33:06.000Z</time>
      </trkpt>
      <trkpt lat="42.70569" lon="1.28332">
        <ele>2526.6000976562</ele>
        <time>2023-07-25T06:33:11.000Z</time>
      </trkpt>
      <trkpt lat="42.7057" lon="1.28331">
        <ele>2527.1999511719</ele>
        <time>2023-07-25T06:33:14.000Z</time>
      </trkpt>
      <trkpt lat="42.70569" lon="1.28328">
        <ele>2527.8000488281</ele>
        <time>2023-07-25T06:33:19.000Z</time>
      </trkpt>
      <trkpt lat="42.70567" lon="1.28327">
        <ele>2528.3999023438</ele>
        <time>2023-07-25T06:33:23.000Z</time>
      </trkpt>
      <trkpt lat="42.70566" lon="1.28327">
        <ele>2528.8000488281</ele>
        <time>2023-07-25T06:33:26.000Z</time>
      </trkpt>
      <trkpt lat="42.70564" lon="1.28324">
        <ele>2529.1999511719</ele>
        <time>2023-07-25T06:33:30.000Z</time>
      </trkpt>
      <trkpt lat="42.70564" lon="1.28322">
        <ele>2529.8000488281</ele>
        <time>2023-07-25T06:33:34.000Z</time>
      </trkpt>
      <trkpt lat="42.70565" lon="1.28323">
        <ele>2530.3999023438</ele>
        <time>2023-07-25T06:33:37.000Z</time>
      </trkpt>
      <trkpt lat="42.70564" lon="1.28322">
        <ele>2530.8000488281</ele>
        <time>2023-07-25T06:33:39.000Z</time>
      </trkpt>
      <trkpt lat="42.70563" lon="1.2832">
        <ele>2532</ele>
        <time>2023-07-25T06:33:45.000Z</time>
      </trkpt>
      <trkpt lat="42.70564" lon="1.2832">
        <ele>2532</ele>
        <time>2023-07-25T06:33:46.000Z</time>
      </trkpt>
      <trkpt lat="42.70564" lon="1.28316">
        <ele>2533</ele>
        <time>2023-07-25T06:33:52.000Z</time>
      </trkpt>
      <trkpt lat="42.70565" lon="1.28314">
        <ele>2533.1999511719</ele>
        <time>2023-07-25T06:33:55.000Z</time>
      </trkpt>
      <trkpt lat="42.70564" lon="1.28311">
        <ele>2534</ele>
        <time>2023-07-25T06:33:59.000Z</time>
      </trkpt>
      <trkpt lat="42.70565" lon="1.28309">
        <ele>2534.6000976562</ele>
        <time>2023-07-25T06:34:03.000Z</time>
      </trkpt>
      <trkpt lat="42.70566" lon="1.28308">
        <ele>2535</ele>
        <time>2023-07-25T06:34:05.000Z</time>
      </trkpt>
      <trkpt lat="42.70567" lon="1.28309">
        <ele>2535.8000488281</ele>
        <time>2023-07-25T06:34:10.000Z</time>
      </trkpt>
      <trkpt lat="42.70567" lon="1.28309">
        <ele>2536</ele>
        <time>2023-07-25T06:34:11.000Z</time>
      </trkpt>
      <trkpt lat="42.70569" lon="1.28315">
        <ele>2536.3999023438</ele>
        <time>2023-07-25T06:34:18.000Z</time>
      </trkpt>
      <trkpt lat="42.70572" lon="1.28319">
        <ele>2536.6000976562</ele>
        <time>2023-07-25T06:34:26.000Z</time>
      </trkpt>
      <trkpt lat="42.70573" lon="1.28319">
        <ele>2537</ele>
        <time>2023-07-25T06:34:29.000Z</time>
      </trkpt>
      <trkpt lat="42.70576" lon="1.28323">
        <ele>2538</ele>
        <time>2023-07-25T06:34:34.000Z</time>
      </trkpt>
      <trkpt lat="42.70575" lon="1.28324">
        <ele>2538</ele>
        <time>2023-07-25T06:34:37.000Z</time>
      </trkpt>
      <trkpt lat="42.70575" lon="1.28324">
        <ele>2538.1999511719</ele>
        <time>2023-07-25T06:34:41.000Z</time>
      </trkpt>
      <trkpt lat="42.70575" lon="1.28319">
        <ele>2538.1999511719</ele>
        <time>2023-07-25T06:34:48.000Z</time>
      </trkpt>
      <trkpt lat="42.70574" lon="1.28314">
        <ele>2539</ele>
        <time>2023-07-25T06:34:53.000Z</time>
      </trkpt>
      <trkpt lat="42.70575" lon="1.28313">
        <ele>2539.3999023438</ele>
        <time>2023-07-25T06:34:55.000Z</time>
      </trkpt>
      <trkpt lat="42.70575" lon="1.28315">
        <ele>2539.8000488281</ele>
        <time>2023-07-25T06:35:00.000Z</time>
      </trkpt>
      <trkpt lat="42.70576" lon="1.28315">
        <ele>2540.1999511719</ele>
        <time>2023-07-25T06:35:01.000Z</time>
      </trkpt>
      <trkpt lat="42.70576" lon="1.28313">
        <ele>2540.8000488281</ele>
        <time>2023-07-25T06:35:06.000Z</time>
      </trkpt>
      <trkpt lat="42.70576" lon="1.28311">
        <ele>2541.1999511719</ele>
        <time>2023-07-25T06:35:09.000Z</time>
      </trkpt>
      <trkpt lat="42.7058" lon="1.28306">
        <ele>2542.6000976562</ele>
        <time>2023-07-25T06:35:26.000Z</time>
      </trkpt>
      <trkpt lat="42.70581" lon="1.28305">
        <ele>2543.1999511719</ele>
        <time>2023-07-25T06:35:28.000Z</time>
      </trkpt>
      <trkpt lat="42.70583" lon="1.28303">
        <ele>2544.1999511719</ele>
        <time>2023-07-25T06:35:35.000Z</time>
      </trkpt>
      <trkpt lat="42.70583" lon="1.28303">
        <ele>2544.3999023438</ele>
        <time>2023-07-25T06:35:36.000Z</time>
      </trkpt>
      <trkpt lat="42.70586" lon="1.283">
        <ele>2545.8000488281</ele>
        <time>2023-07-25T06:35:42.000Z</time>
      </trkpt>
      <trkpt lat="42.70586" lon="1.283">
        <ele>2546.1999511719</ele>
        <time>2023-07-25T06:35:43.000Z</time>
      </trkpt>
      <trkpt lat="42.70588" lon="1.28303">
        <ele>2546.8000488281</ele>
        <time>2023-07-25T06:35:46.000Z</time>
      </trkpt>
      <trkpt lat="42.70589" lon="1.28307">
        <ele>2547.3999023438</ele>
        <time>2023-07-25T06:35:50.000Z</time>
      </trkpt>
      <trkpt lat="42.70587" lon="1.28307">
        <ele>2548</ele>
        <time>2023-07-25T06:35:55.000Z</time>
      </trkpt>
      <trkpt lat="42.70587" lon="1.28306">
        <ele>2548.1999511719</ele>
        <time>2023-07-25T06:35:56.000Z</time>
      </trkpt>
      <trkpt lat="42.70582" lon="1.28298">
        <ele>2549</ele>
        <time>2023-07-25T06:36:04.000Z</time>
      </trkpt>
      <trkpt lat="42.70579" lon="1.28292">
        <ele>2550</ele>
        <time>2023-07-25T06:36:10.000Z</time>
      </trkpt>
      <trkpt lat="42.70578" lon="1.28292">
        <ele>2550.1999511719</ele>
        <time>2023-07-25T06:36:13.000Z</time>
      </trkpt>
      <trkpt lat="42.70578" lon="1.2829">
        <ele>2551.1999511719</ele>
        <time>2023-07-25T06:36:19.000Z</time>
      </trkpt>
      <trkpt lat="42.70579" lon="1.28289">
        <ele>2551.1999511719</ele>
        <time>2023-07-25T06:36:20.000Z</time>
      </trkpt>
      <trkpt lat="42.7058" lon="1.28286">
        <ele>2552.3999023438</ele>
        <time>2023-07-25T06:36:25.000Z</time>
      </trkpt>
      <trkpt lat="42.70582" lon="1.28282">
        <ele>2553.3999023438</ele>
        <time>2023-07-25T06:36:32.000Z</time>
      </trkpt>
      <trkpt lat="42.70584" lon="1.28283">
        <ele>2554.6000976562</ele>
        <time>2023-07-25T06:36:38.000Z</time>
      </trkpt>
      <trkpt lat="42.70584" lon="1.28284">
        <ele>2554.8000488281</ele>
        <time>2023-07-25T06:36:40.000Z</time>
      </trkpt>
      <trkpt lat="42.70585" lon="1.28283">
        <ele>2555.6000976562</ele>
        <time>2023-07-25T06:36:49.000Z</time>
      </trkpt>
      <trkpt lat="42.70584" lon="1.28283">
        <ele>2555.6000976562</ele>
        <time>2023-07-25T06:36:50.000Z</time>
      </trkpt>
      <trkpt lat="42.70581" lon="1.28281">
        <ele>2556.6000976562</ele>
        <time>2023-07-25T06:36:58.000Z</time>
      </trkpt>
      <trkpt lat="42.70581" lon="1.2828">
        <ele>2556.8000488281</ele>
        <time>2023-07-25T06:36:59.000Z</time>
      </trkpt>
      <trkpt lat="42.70579" lon="1.2828">
        <ele>2557.6000976562</ele>
        <time>2023-07-25T06:37:05.000Z</time>
      </trkpt>
      <trkpt lat="42.70579" lon="1.28279">
        <ele>2557.8000488281</ele>
        <time>2023-07-25T06:37:07.000Z</time>
      </trkpt>
      <trkpt lat="42.70578" lon="1.28277">
        <ele>2558.6000976562</ele>
        <time>2023-07-25T06:37:12.000Z</time>
      </trkpt>
      <trkpt lat="42.70576" lon="1.28277">
        <ele>2559</ele>
        <time>2023-07-25T06:37:14.000Z</time>
      </trkpt>
      <trkpt lat="42.70574" lon="1.28272">
        <ele>2559.3999023438</ele>
        <time>2023-07-25T06:37:20.000Z</time>
      </trkpt>
      <trkpt lat="42.70573" lon="1.28266">
        <ele>2560</ele>
        <time>2023-07-25T06:37:27.000Z</time>
      </trkpt>
      <trkpt lat="42.70574" lon="1.28262">
        <ele>2561</ele>
        <time>2023-07-25T06:37:35.000Z</time>
      </trkpt>
      <trkpt lat="42.70574" lon="1.28256">
        <ele>2562.1999511719</ele>
        <time>2023-07-25T06:37:43.000Z</time>
      </trkpt>
      <trkpt lat="42.70574" lon="1.28256">
        <ele>2562.3999023438</ele>
        <time>2023-07-25T06:37:45.000Z</time>
      </trkpt>
      <trkpt lat="42.70573" lon="1.28258">
        <ele>2563.1999511719</ele>
        <time>2023-07-25T06:37:50.000Z</time>
      </trkpt>
      <trkpt lat="42.70572" lon="1.28258">
        <ele>2563.8000488281</ele>
        <time>2023-07-25T06:37:53.000Z</time>
      </trkpt>
      <trkpt lat="42.70571" lon="1.28255">
        <ele>2564.1999511719</ele>
        <time>2023-07-25T06:37:57.000Z</time>
      </trkpt>
      <trkpt lat="42.70571" lon="1.28252">
        <ele>2564.6000976562</ele>
        <time>2023-07-25T06:37:59.000Z</time>
      </trkpt>
      <trkpt lat="42.70571" lon="1.28248">
        <ele>2565.1999511719</ele>
        <time>2023-07-25T06:38:04.000Z</time>
      </trkpt>
      <trkpt lat="42.70571" lon="1.28247">
        <ele>2565.6000976562</ele>
        <time>2023-07-25T06:38:06.000Z</time>
      </trkpt>
      <trkpt lat="42.70573" lon="1.28241">
        <ele>2566.3999023438</ele>
        <time>2023-07-25T06:38:12.000Z</time>
      </trkpt>
      <trkpt lat="42.70573" lon="1.28239">
        <ele>2566.6000976562</ele>
        <time>2023-07-25T06:38:15.000Z</time>
      </trkpt>
      <trkpt lat="42.70574" lon="1.28245">
        <ele>2567</ele>
        <time>2023-07-25T06:38:22.000Z</time>
      </trkpt>
      <trkpt lat="42.70579" lon="1.28249">
        <ele>2567</ele>
        <time>2023-07-25T06:38:30.000Z</time>
      </trkpt>
      <trkpt lat="42.70578" lon="1.28242">
        <ele>2567.6000976562</ele>
        <time>2023-07-25T06:38:37.000Z</time>
      </trkpt>
      <trkpt lat="42.70577" lon="1.2824">
        <ele>2567.8000488281</ele>
        <time>2023-07-25T06:38:38.000Z</time>
      </trkpt>
      <trkpt lat="42.70576" lon="1.28234">
        <ele>2568.8000488281</ele>
        <time>2023-07-25T06:38:47.000Z</time>
      </trkpt>
      <trkpt lat="42.70576" lon="1.28227">
        <ele>2570</ele>
        <time>2023-07-25T06:38:54.000Z</time>
      </trkpt>
      <trkpt lat="42.70575" lon="1.28226">
        <ele>2570.1999511719</ele>
        <time>2023-07-25T06:38:56.000Z</time>
      </trkpt>
      <trkpt lat="42.70575" lon="1.28222">
        <ele>2571</ele>
        <time>2023-07-25T06:39:02.000Z</time>
      </trkpt>
      <trkpt lat="42.70575" lon="1.28222">
        <ele>2571.6000976562</ele>
        <time>2023-07-25T06:39:04.000Z</time>
      </trkpt>
      <trkpt lat="42.70576" lon="1.28221">
        <ele>2572</ele>
        <time>2023-07-25T06:39:10.000Z</time>
      </trkpt>
      <trkpt lat="42.70576" lon="1.2822">
        <ele>2572.6000976562</ele>
        <time>2023-07-25T06:39:13.000Z</time>
      </trkpt>
      <trkpt lat="42.70576" lon="1.28221">
        <ele>2573.1999511719</ele>
        <time>2023-07-25T06:39:17.000Z</time>
      </trkpt>
      <trkpt lat="42.70575" lon="1.28221">
        <ele>2573.3999023438</ele>
        <time>2023-07-25T06:39:20.000Z</time>
      </trkpt>
      <trkpt lat="42.70574" lon="1.28217">
        <ele>2573.6000976562</ele>
        <time>2023-07-25T06:39:23.000Z</time>
      </trkpt>
      <trkpt lat="42.70574" lon="1.28215">
        <ele>2574.1999511719</ele>
        <time>2023-07-25T06:39:26.000Z</time>
      </trkpt>
      <trkpt lat="42.70576" lon="1.28211">
        <ele>2575.1999511719</ele>
        <time>2023-07-25T06:39:34.000Z</time>
      </trkpt>
      <trkpt lat="42.70577" lon="1.28208">
        <ele>2575</ele>
        <time>2023-07-25T06:39:42.000Z</time>
      </trkpt>
      <trkpt lat="42.70575" lon="1.28207">
        <ele>2575.1999511719</ele>
        <time>2023-07-25T06:39:52.000Z</time>
      </trkpt>
      <trkpt lat="42.70576" lon="1.28202">
        <ele>2576.1999511719</ele>
        <time>2023-07-25T06:39:59.000Z</time>
      </trkpt>
      <trkpt lat="42.70576" lon="1.28202">
        <ele>2576.3999023438</ele>
        <time>2023-07-25T06:40:00.000Z</time>
      </trkpt>
      <trkpt lat="42.70575" lon="1.28198">
        <ele>2577.3999023438</ele>
        <time>2023-07-25T06:40:06.000Z</time>
      </trkpt>
      <trkpt lat="42.70575" lon="1.28197">
        <ele>2577.6000976562</ele>
        <time>2023-07-25T06:40:08.000Z</time>
      </trkpt>
      <trkpt lat="42.70572" lon="1.28196">
        <ele>2578.3999023438</ele>
        <time>2023-07-25T06:40:12.000Z</time>
      </trkpt>
      <trkpt lat="42.70573" lon="1.28195">
        <ele>2579</ele>
        <time>2023-07-25T06:40:14.000Z</time>
      </trkpt>
      <trkpt lat="42.70576" lon="1.28194">
        <ele>2579.3999023438</ele>
        <time>2023-07-25T06:40:18.000Z</time>
      </trkpt>
      <trkpt lat="42.70575" lon="1.28193">
        <ele>2579.6000976562</ele>
        <time>2023-07-25T06:40:20.000Z</time>
      </trkpt>
      <trkpt lat="42.70575" lon="1.28192">
        <ele>2580.6000976562</ele>
        <time>2023-07-25T06:40:25.000Z</time>
      </trkpt>
      <trkpt lat="42.70574" lon="1.28192">
        <ele>2581</ele>
        <time>2023-07-25T06:40:26.000Z</time>
      </trkpt>
      <trkpt lat="42.70574" lon="1.28191">
        <ele>2581.6000976562</ele>
        <time>2023-07-25T06:40:28.000Z</time>
      </trkpt>
      <trkpt lat="42.70574" lon="1.28187">
        <ele>2582</ele>
        <time>2023-07-25T06:40:33.000Z</time>
      </trkpt>
      <trkpt lat="42.70574" lon="1.28185">
        <ele>2582.3999023438</ele>
        <time>2023-07-25T06:40:39.000Z</time>
      </trkpt>
      <trkpt lat="42.70574" lon="1.28184">
        <ele>2582.8000488281</ele>
        <time>2023-07-25T06:40:40.000Z</time>
      </trkpt>
      <trkpt lat="42.70575" lon="1.28179">
        <ele>2584</ele>
        <time>2023-07-25T06:40:46.000Z</time>
      </trkpt>
      <trkpt lat="42.70575" lon="1.28176">
        <ele>2584.3999023438</ele>
        <time>2023-07-25T06:40:49.000Z</time>
      </trkpt>
      <trkpt lat="42.70575" lon="1.28174">
        <ele>2585</ele>
        <time>2023-07-25T06:40:53.000Z</time>
      </trkpt>
      <trkpt lat="42.70574" lon="1.28166">
        <ele>2586</ele>
        <time>2023-07-25T06:40:59.000Z</time>
      </trkpt>
      <trkpt lat="42.70575" lon="1.28166">
        <ele>2587.1999511719</ele>
        <time>2023-07-25T06:41:05.000Z</time>
      </trkpt>
      <trkpt lat="42.70575" lon="1.28165">
        <ele>2587.3999023438</ele>
        <time>2023-07-25T06:41:07.000Z</time>
      </trkpt>
      <trkpt lat="42.70576" lon="1.28163">
        <ele>2588.1999511719</ele>
        <time>2023-07-25T06:41:13.000Z</time>
      </trkpt>
      <trkpt lat="42.70576" lon="1.28161">
        <ele>2588.8000488281</ele>
        <time>2023-07-25T06:41:17.000Z</time>
      </trkpt>
      <trkpt lat="42.70577" lon="1.28159">
        <ele>2589.1999511719</ele>
        <time>2023-07-25T06:41:24.000Z</time>
      </trkpt>
      <trkpt lat="42.70577" lon="1.28158">
        <ele>2589.1999511719</ele>
        <time>2023-07-25T06:41:25.000Z</time>
      </trkpt>
      <trkpt lat="42.7058" lon="1.28155">
        <ele>2590.1999511719</ele>
        <time>2023-07-25T06:41:31.000Z</time>
      </trkpt>
      <trkpt lat="42.7058" lon="1.28154">
        <ele>2590.6000976562</ele>
        <time>2023-07-25T06:41:33.000Z</time>
      </trkpt>
      <trkpt lat="42.70583" lon="1.28149">
        <ele>2591.1999511719</ele>
        <time>2023-07-25T06:41:39.000Z</time>
      </trkpt>
      <trkpt lat="42.70583" lon="1.28148">
        <ele>2591.3999023438</ele>
        <time>2023-07-25T06:41:40.000Z</time>
      </trkpt>
      <trkpt lat="42.70584" lon="1.28144">
        <ele>2592.1999511719</ele>
        <time>2023-07-25T06:41:46.000Z</time>
      </trkpt>
      <trkpt lat="42.70584" lon="1.28144">
        <ele>2592.3999023438</ele>
        <time>2023-07-25T06:41:47.000Z</time>
      </trkpt>
      <trkpt lat="42.70584" lon="1.2814">
        <ele>2593.3999023438</ele>
        <time>2023-07-25T06:41:53.000Z</time>
      </trkpt>
      <trkpt lat="42.70584" lon="1.28139">
        <ele>2593.8000488281</ele>
        <time>2023-07-25T06:41:54.000Z</time>
      </trkpt>
      <trkpt lat="42.70585" lon="1.28136">
        <ele>2594.6000976562</ele>
        <time>2023-07-25T06:41:58.000Z</time>
      </trkpt>
      <trkpt lat="42.70587" lon="1.28133">
        <ele>2595.3999023438</ele>
        <time>2023-07-25T06:42:03.000Z</time>
      </trkpt>
      <trkpt lat="42.70588" lon="1.28132">
        <ele>2595.8000488281</ele>
        <time>2023-07-25T06:42:05.000Z</time>
      </trkpt>
      <trkpt lat="42.70588" lon="1.28131">
        <ele>2596.1999511719</ele>
        <time>2023-07-25T06:42:08.000Z</time>
      </trkpt>
      <trkpt lat="42.7059" lon="1.28126">
        <ele>2596.6000976562</ele>
        <time>2023-07-25T06:42:14.000Z</time>
      </trkpt>
      <trkpt lat="42.70589" lon="1.28124">
        <ele>2596.8000488281</ele>
        <time>2023-07-25T06:42:17.000Z</time>
      </trkpt>
      <trkpt lat="42.70589" lon="1.2812">
        <ele>2597</ele>
        <time>2023-07-25T06:42:20.000Z</time>
      </trkpt>
      <trkpt lat="42.7059" lon="1.28116">
        <ele>2598</ele>
        <time>2023-07-25T06:42:24.000Z</time>
      </trkpt>
      <trkpt lat="42.70589" lon="1.28115">
        <ele>2598.1999511719</ele>
        <time>2023-07-25T06:42:27.000Z</time>
      </trkpt>
      <trkpt lat="42.70588" lon="1.28116">
        <ele>2598.1999511719</ele>
        <time>2023-07-25T06:42:34.000Z</time>
      </trkpt>
      <trkpt lat="42.70586" lon="1.28111">
        <ele>2598.6000976562</ele>
        <time>2023-07-25T06:42:44.000Z</time>
      </trkpt>
      <trkpt lat="42.70586" lon="1.28113">
        <ele>2599</ele>
        <time>2023-07-25T06:42:51.000Z</time>
      </trkpt>
      <trkpt lat="42.70588" lon="1.28113">
        <ele>2598.3999023438</ele>
        <time>2023-07-25T06:43:03.000Z</time>
      </trkpt>
      <trkpt lat="42.70591" lon="1.28107">
        <ele>2599</ele>
        <time>2023-07-25T06:43:10.000Z</time>
      </trkpt>
      <trkpt lat="42.70592" lon="1.28101">
        <ele>2599.3999023438</ele>
        <time>2023-07-25T06:43:16.000Z</time>
      </trkpt>
      <trkpt lat="42.70591" lon="1.28095">
        <ele>2599</ele>
        <time>2023-07-25T06:43:23.000Z</time>
      </trkpt>
      <trkpt lat="42.7059" lon="1.28094">
        <ele>2597.8000488281</ele>
        <time>2023-07-25T06:43:26.000Z</time>
      </trkpt>
      <trkpt lat="42.70589" lon="1.28095">
        <ele>2596.3999023438</ele>
        <time>2023-07-25T06:43:28.000Z</time>
      </trkpt>
      <trkpt lat="42.70588" lon="1.28096">
        <ele>2595.8000488281</ele>
        <time>2023-07-25T06:43:30.000Z</time>
      </trkpt>
      <trkpt lat="42.70588" lon="1.28095">
        <ele>2595.6000976562</ele>
        <time>2023-07-25T06:43:41.000Z</time>
      </trkpt>
      <trkpt lat="42.70589" lon="1.28095">
        <ele>2595.1999511719</ele>
        <time>2023-07-25T06:43:43.000Z</time>
      </trkpt>
      <trkpt lat="42.70588" lon="1.2809">
        <ele>2594.6000976562</ele>
        <time>2023-07-25T06:43:49.000Z</time>
      </trkpt>
      <trkpt lat="42.70588" lon="1.28088">
        <ele>2594.1999511719</ele>
        <time>2023-07-25T06:43:51.000Z</time>
      </trkpt>
      <trkpt lat="42.70587" lon="1.28084">
        <ele>2593.3999023438</ele>
        <time>2023-07-25T06:43:58.000Z</time>
      </trkpt>
      <trkpt lat="42.70587" lon="1.28084">
        <ele>2593.1999511719</ele>
        <time>2023-07-25T06:43:59.000Z</time>
      </trkpt>
      <trkpt lat="42.70587" lon="1.2808">
        <ele>2592</ele>
        <time>2023-07-25T06:44:04.000Z</time>
      </trkpt>
      <trkpt lat="42.70589" lon="1.28074">
        <ele>2591</ele>
        <time>2023-07-25T06:44:13.000Z</time>
      </trkpt>
      <trkpt lat="42.70589" lon="1.28073">
        <ele>2590.3999023438</ele>
        <time>2023-07-25T06:44:14.000Z</time>
      </trkpt>
      <trkpt lat="42.70589" lon="1.28065">
        <ele>2589.6000976562</ele>
        <time>2023-07-25T06:44:21.000Z</time>
      </trkpt>
      <trkpt lat="42.70589" lon="1.28065">
        <ele>2588.8000488281</ele>
        <time>2023-07-25T06:44:22.000Z</time>
      </trkpt>
      <trkpt lat="42.70587" lon="1.28063">
        <ele>2588</ele>
        <time>2023-07-25T06:44:29.000Z</time>
      </trkpt>
      <trkpt lat="42.70586" lon="1.2806">
        <ele>2587.6000976562</ele>
        <time>2023-07-25T06:44:32.000Z</time>
      </trkpt>
      <trkpt lat="42.70586" lon="1.28058">
        <ele>2586.6000976562</ele>
        <time>2023-07-25T06:44:35.000Z</time>
      </trkpt>
      <trkpt lat="42.70586" lon="1.28057">
        <ele>2586.3999023438</ele>
        <time>2023-07-25T06:44:36.000Z</time>
      </trkpt>
      <trkpt lat="42.70585" lon="1.28056">
        <ele>2585.8000488281</ele>
        <time>2023-07-25T06:44:43.000Z</time>
      </trkpt>
      <trkpt lat="42.70584" lon="1.28056">
        <ele>2585.3999023438</ele>
        <time>2023-07-25T06:44:45.000Z</time>
      </trkpt>
      <trkpt lat="42.70581" lon="1.28051">
        <ele>2584.3999023438</ele>
        <time>2023-07-25T06:44:50.000Z</time>
      </trkpt>
      <trkpt lat="42.70581" lon="1.28051">
        <ele>2584</ele>
        <time>2023-07-25T06:44:51.000Z</time>
      </trkpt>
      <trkpt lat="42.70581" lon="1.28049">
        <ele>2582.8000488281</ele>
        <time>2023-07-25T06:44:53.000Z</time>
      </trkpt>
      <trkpt lat="42.70581" lon="1.2805">
        <ele>2581.6000976562</ele>
        <time>2023-07-25T06:44:55.000Z</time>
      </trkpt>
      <trkpt lat="42.70581" lon="1.28049">
        <ele>2581.1999511719</ele>
        <time>2023-07-25T06:44:57.000Z</time>
      </trkpt>
      <trkpt lat="42.70579" lon="1.28046">
        <ele>2580.6000976562</ele>
        <time>2023-07-25T06:45:05.000Z</time>
      </trkpt>
      <trkpt lat="42.70579" lon="1.28046">
        <ele>2580.3999023438</ele>
        <time>2023-07-25T06:45:06.000Z</time>
      </trkpt>
      <trkpt lat="42.7058" lon="1.28045">
        <ele>2579.3999023438</ele>
        <time>2023-07-25T06:45:10.000Z</time>
      </trkpt>
      <trkpt lat="42.7058" lon="1.28043">
        <ele>2579</ele>
        <time>2023-07-25T06:45:14.000Z</time>
      </trkpt>
      <trkpt lat="42.7058" lon="1.28042">
        <ele>2578.1999511719</ele>
        <time>2023-07-25T06:45:18.000Z</time>
      </trkpt>
      <trkpt lat="42.70579" lon="1.2804">
        <ele>2577.3999023438</ele>
        <time>2023-07-25T06:45:23.000Z</time>
      </trkpt>
      <trkpt lat="42.70579" lon="1.28041">
        <ele>2577.1999511719</ele>
        <time>2023-07-25T06:45:24.000Z</time>
      </trkpt>
      <trkpt lat="42.7058" lon="1.28038">
        <ele>2576</ele>
        <time>2023-07-25T06:45:31.000Z</time>
      </trkpt>
      <trkpt lat="42.70581" lon="1.28033">
        <ele>2575</ele>
        <time>2023-07-25T06:45:37.000Z</time>
      </trkpt>
      <trkpt lat="42.70582" lon="1.2803">
        <ele>2573.6000976562</ele>
        <time>2023-07-25T06:45:43.000Z</time>
      </trkpt>
      <trkpt lat="42.70581" lon="1.2803">
        <ele>2573.1999511719</ele>
        <time>2023-07-25T06:45:45.000Z</time>
      </trkpt>
      <trkpt lat="42.70581" lon="1.2803">
        <ele>2572.8000488281</ele>
        <time>2023-07-25T06:45:48.000Z</time>
      </trkpt>
      <trkpt lat="42.70581" lon="1.28027">
        <ele>2572.6000976562</ele>
        <time>2023-07-25T06:45:50.000Z</time>
      </trkpt>
      <trkpt lat="42.70581" lon="1.28026">
        <ele>2572.3999023438</ele>
        <time>2023-07-25T06:45:51.000Z</time>
      </trkpt>
      <trkpt lat="42.70581" lon="1.28024">
        <ele>2571.6000976562</ele>
        <time>2023-07-25T06:45:54.000Z</time>
      </trkpt>
      <trkpt lat="42.70581" lon="1.28021">
        <ele>2570.8000488281</ele>
        <time>2023-07-25T06:45:58.000Z</time>
      </trkpt>
      <trkpt lat="42.70581" lon="1.28019">
        <ele>2570.6000976562</ele>
        <time>2023-07-25T06:46:00.000Z</time>
      </trkpt>
      <trkpt lat="42.7058" lon="1.28015">
        <ele>2569.1999511719</ele>
        <time>2023-07-25T06:46:06.000Z</time>
      </trkpt>
      <trkpt lat="42.70579" lon="1.2801">
        <ele>2568</ele>
        <time>2023-07-25T06:46:12.000Z</time>
      </trkpt>
      <trkpt lat="42.70579" lon="1.28009">
        <ele>2567.8000488281</ele>
        <time>2023-07-25T06:46:13.000Z</time>
      </trkpt>
      <trkpt lat="42.70578" lon="1.28009">
        <ele>2567</ele>
        <time>2023-07-25T06:46:17.000Z</time>
      </trkpt>
      <trkpt lat="42.70579" lon="1.28006">
        <ele>2566.1999511719</ele>
        <time>2023-07-25T06:46:21.000Z</time>
      </trkpt>
      <trkpt lat="42.70579" lon="1.28003">
        <ele>2565.8000488281</ele>
        <time>2023-07-25T06:46:24.000Z</time>
      </trkpt>
      <trkpt lat="42.70579" lon="1.28001">
        <ele>2565</ele>
        <time>2023-07-25T06:46:29.000Z</time>
      </trkpt>
      <trkpt lat="42.70579" lon="1.28001">
        <ele>2564.8000488281</ele>
        <time>2023-07-25T06:46:30.000Z</time>
      </trkpt>
      <trkpt lat="42.70579" lon="1.27998">
        <ele>2563.8000488281</ele>
        <time>2023-07-25T06:46:35.000Z</time>
      </trkpt>
      <trkpt lat="42.70578" lon="1.27995">
        <ele>2563.3999023438</ele>
        <time>2023-07-25T06:46:37.000Z</time>
      </trkpt>
      <trkpt lat="42.70579" lon="1.27994">
        <ele>2562.6000976562</ele>
        <time>2023-07-25T06:46:42.000Z</time>
      </trkpt>
      <trkpt lat="42.70579" lon="1.27991">
        <ele>2562</ele>
        <time>2023-07-25T06:46:46.000Z</time>
      </trkpt>
      <trkpt lat="42.70581" lon="1.27989">
        <ele>2561.6000976562</ele>
        <time>2023-07-25T06:46:51.000Z</time>
      </trkpt>
      <trkpt lat="42.70582" lon="1.27988">
        <ele>2561</ele>
        <time>2023-07-25T06:46:54.000Z</time>
      </trkpt>
      <trkpt lat="42.70582" lon="1.27986">
        <ele>2560.3999023438</ele>
        <time>2023-07-25T06:46:58.000Z</time>
      </trkpt>
      <trkpt lat="42.70581" lon="1.27984">
        <ele>2560</ele>
        <time>2023-07-25T06:47:01.000Z</time>
      </trkpt>
      <trkpt lat="42.7058" lon="1.2798">
        <ele>2559.3999023438</ele>
        <time>2023-07-25T06:47:06.000Z</time>
      </trkpt>
      <trkpt lat="42.7058" lon="1.27979">
        <ele>2558.8000488281</ele>
        <time>2023-07-25T06:47:10.000Z</time>
      </trkpt>
      <trkpt lat="42.7058" lon="1.27977">
        <ele>2558.3999023438</ele>
        <time>2023-07-25T06:47:13.000Z</time>
      </trkpt>
      <trkpt lat="42.7058" lon="1.27973">
        <ele>2557.6000976562</ele>
        <time>2023-07-25T06:47:17.000Z</time>
      </trkpt>
      <trkpt lat="42.7058" lon="1.27971">
        <ele>2557.1999511719</ele>
        <time>2023-07-25T06:47:20.000Z</time>
      </trkpt>
      <trkpt lat="42.70578" lon="1.27967">
        <ele>2556.3999023438</ele>
        <time>2023-07-25T06:47:25.000Z</time>
      </trkpt>
      <trkpt lat="42.70578" lon="1.27966">
        <ele>2556.1999511719</ele>
        <time>2023-07-25T06:47:26.000Z</time>
      </trkpt>
      <trkpt lat="42.70579" lon="1.27965">
        <ele>2555.1999511719</ele>
        <time>2023-07-25T06:47:31.000Z</time>
      </trkpt>
      <trkpt lat="42.70579" lon="1.27963">
        <ele>2554.8000488281</ele>
        <time>2023-07-25T06:47:33.000Z</time>
      </trkpt>
      <trkpt lat="42.7058" lon="1.27959">
        <ele>2554</ele>
        <time>2023-07-25T06:47:38.000Z</time>
      </trkpt>
      <trkpt lat="42.7058" lon="1.27958">
        <ele>2553.6000976562</ele>
        <time>2023-07-25T06:47:40.000Z</time>
      </trkpt>
      <trkpt lat="42.70579" lon="1.27956">
        <ele>2552.8000488281</ele>
        <time>2023-07-25T06:47:45.000Z</time>
      </trkpt>
      <trkpt lat="42.70579" lon="1.27955">
        <ele>2552.3999023438</ele>
        <time>2023-07-25T06:47:48.000Z</time>
      </trkpt>
      <trkpt lat="42.70577" lon="1.27951">
        <ele>2551.6000976562</ele>
        <time>2023-07-25T06:47:53.000Z</time>
      </trkpt>
      <trkpt lat="42.70576" lon="1.2795">
        <ele>2551.1999511719</ele>
        <time>2023-07-25T06:47:56.000Z</time>
      </trkpt>
      <trkpt lat="42.70575" lon="1.27948">
        <ele>2550.6000976562</ele>
        <time>2023-07-25T06:48:00.000Z</time>
      </trkpt>
      <trkpt lat="42.70575" lon="1.27947">
        <ele>2550</ele>
        <time>2023-07-25T06:48:03.000Z</time>
      </trkpt>
      <trkpt lat="42.70574" lon="1.27943">
        <ele>2549.6000976562</ele>
        <time>2023-07-25T06:48:05.000Z</time>
      </trkpt>
      <trkpt lat="42.70575" lon="1.27939">
        <ele>2549</ele>
        <time>2023-07-25T06:48:09.000Z</time>
      </trkpt>
      <trkpt lat="42.70576" lon="1.27935">
        <ele>2548.6000976562</ele>
        <time>2023-07-25T06:48:12.000Z</time>
      </trkpt>
      <trkpt lat="42.70576" lon="1.27933">
        <ele>2547.6000976562</ele>
        <time>2023-07-25T06:48:17.000Z</time>
      </trkpt>
      <trkpt lat="42.70576" lon="1.27932">
        <ele>2547.3999023438</ele>
        <time>2023-07-25T06:48:18.000Z</time>
      </trkpt>
      <trkpt lat="42.70576" lon="1.27927">
        <ele>2546.6000976562</ele>
        <time>2023-07-25T06:48:24.000Z</time>
      </trkpt>
      <trkpt lat="42.70576" lon="1.27926">
        <ele>2546.3999023438</ele>
        <time>2023-07-25T06:48:25.000Z</time>
      </trkpt>
      <trkpt lat="42.70576" lon="1.27922">
        <ele>2545.3999023438</ele>
        <time>2023-07-25T06:48:30.000Z</time>
      </trkpt>
      <trkpt lat="42.70576" lon="1.27919">
        <ele>2545.1999511719</ele>
        <time>2023-07-25T06:48:32.000Z</time>
      </trkpt>
      <trkpt lat="42.70575" lon="1.27915">
        <ele>2544.1999511719</ele>
        <time>2023-07-25T06:48:37.000Z</time>
      </trkpt>
      <trkpt lat="42.70576" lon="1.27913">
        <ele>2544</ele>
        <time>2023-07-25T06:48:39.000Z</time>
      </trkpt>
      <trkpt lat="42.70579" lon="1.27906">
        <ele>2543.3999023438</ele>
        <time>2023-07-25T06:48:45.000Z</time>
      </trkpt>
      <trkpt lat="42.70579" lon="1.27905">
        <ele>2543.1999511719</ele>
        <time>2023-07-25T06:48:46.000Z</time>
      </trkpt>
      <trkpt lat="42.70581" lon="1.279">
        <ele>2542.3999023438</ele>
        <time>2023-07-25T06:48:52.000Z</time>
      </trkpt>
      <trkpt lat="42.70581" lon="1.27898">
        <ele>2542</ele>
        <time>2023-07-25T06:48:54.000Z</time>
      </trkpt>
      <trkpt lat="42.70582" lon="1.27896">
        <ele>2541.3999023438</ele>
        <time>2023-07-25T06:48:59.000Z</time>
      </trkpt>
      <trkpt lat="42.70581" lon="1.27891">
        <ele>2541</ele>
        <time>2023-07-25T06:49:04.000Z</time>
      </trkpt>
      <trkpt lat="42.7058" lon="1.27888">
        <ele>2540.3999023438</ele>
        <time>2023-07-25T06:49:07.000Z</time>
      </trkpt>
      <trkpt lat="42.7058" lon="1.27884">
        <ele>2539.8000488281</ele>
        <time>2023-07-25T06:49:10.000Z</time>
      </trkpt>
      <trkpt lat="42.7058" lon="1.27878">
        <ele>2539</ele>
        <time>2023-07-25T06:49:15.000Z</time>
      </trkpt>
      <trkpt lat="42.7058" lon="1.27876">
        <ele>2538.6000976562</ele>
        <time>2023-07-25T06:49:17.000Z</time>
      </trkpt>
      <trkpt lat="42.70579" lon="1.27869">
        <ele>2538</ele>
        <time>2023-07-25T06:49:22.000Z</time>
      </trkpt>
      <trkpt lat="42.70579" lon="1.27867">
        <ele>2537.6000976562</ele>
        <time>2023-07-25T06:49:24.000Z</time>
      </trkpt>
      <trkpt lat="42.7058" lon="1.27863">
        <ele>2536.6000976562</ele>
        <time>2023-07-25T06:49:29.000Z</time>
      </trkpt>
      <trkpt lat="42.70581" lon="1.2786">
        <ele>2535.6000976562</ele>
        <time>2023-07-25T06:49:34.000Z</time>
      </trkpt>
      <trkpt lat="42.70581" lon="1.27857">
        <ele>2535.3999023438</ele>
        <time>2023-07-25T06:49:36.000Z</time>
      </trkpt>
      <trkpt lat="42.7058" lon="1.27849">
        <ele>2534.6000976562</ele>
        <time>2023-07-25T06:49:42.000Z</time>
      </trkpt>
      <trkpt lat="42.7058" lon="1.27848">
        <ele>2534.3999023438</ele>
        <time>2023-07-25T06:49:43.000Z</time>
      </trkpt>
      <trkpt lat="42.70579" lon="1.27845">
        <ele>2533.3999023438</ele>
        <time>2023-07-25T06:49:49.000Z</time>
      </trkpt>
      <trkpt lat="42.7058" lon="1.27839">
        <ele>2532.3999023438</ele>
        <time>2023-07-25T06:49:56.000Z</time>
      </trkpt>
      <trkpt lat="42.70581" lon="1.27836">
        <ele>2531.6000976562</ele>
        <time>2023-07-25T06:50:03.000Z</time>
      </trkpt>
      <trkpt lat="42.70579" lon="1.27831">
        <ele>2531.8000488281</ele>
        <time>2023-07-25T06:50:19.000Z</time>
      </trkpt>
      <trkpt lat="42.7057" lon="1.27824">
        <ele>2530.3999023438</ele>
        <time>2023-07-25T06:50:44.000Z</time>
      </trkpt>
      <trkpt lat="42.70571" lon="1.2782">
        <ele>2530</ele>
        <time>2023-07-25T06:50:47.000Z</time>
      </trkpt>
      <trkpt lat="42.70572" lon="1.27816">
        <ele>2529.3999023438</ele>
        <time>2023-07-25T06:50:51.000Z</time>
      </trkpt>
      <trkpt lat="42.70573" lon="1.27815">
        <ele>2529</ele>
        <time>2023-07-25T06:50:53.000Z</time>
      </trkpt>
      <trkpt lat="42.70574" lon="1.27812">
        <ele>2527.8000488281</ele>
        <time>2023-07-25T06:50:58.000Z</time>
      </trkpt>
      <trkpt lat="42.70574" lon="1.27811">
        <ele>2527.8000488281</ele>
        <time>2023-07-25T06:50:59.000Z</time>
      </trkpt>
      <trkpt lat="42.70573" lon="1.27804">
        <ele>2526.8000488281</ele>
        <time>2023-07-25T06:51:06.000Z</time>
      </trkpt>
      <trkpt lat="42.70573" lon="1.27803">
        <ele>2526.6000976562</ele>
        <time>2023-07-25T06:51:07.000Z</time>
      </trkpt>
      <trkpt lat="42.70571" lon="1.27798">
        <ele>2526</ele>
        <time>2023-07-25T06:51:15.000Z</time>
      </trkpt>
      <trkpt lat="42.7057" lon="1.27794">
        <ele>2525.8000488281</ele>
        <time>2023-07-25T06:51:21.000Z</time>
      </trkpt>
      <trkpt lat="42.70567" lon="1.27785">
        <ele>2526.3999023438</ele>
        <time>2023-07-25T06:51:28.000Z</time>
      </trkpt>
      <trkpt lat="42.70566" lon="1.2778">
        <ele>2526.3999023438</ele>
        <time>2023-07-25T06:51:33.000Z</time>
      </trkpt>
      <trkpt lat="42.70563" lon="1.27773">
        <ele>2526.1999511719</ele>
        <time>2023-07-25T06:51:39.000Z</time>
      </trkpt>
      <trkpt lat="42.70561" lon="1.27766">
        <ele>2525.6000976562</ele>
        <time>2023-07-25T06:51:44.000Z</time>
      </trkpt>
      <trkpt lat="42.7056" lon="1.27758">
        <ele>2525.3999023438</ele>
        <time>2023-07-25T06:51:50.000Z</time>
      </trkpt>
      <trkpt lat="42.70559" lon="1.27752">
        <ele>2525.1999511719</ele>
        <time>2023-07-25T06:51:58.000Z</time>
      </trkpt>
      <trkpt lat="42.7056" lon="1.27756">
        <ele>2525</ele>
        <time>2023-07-25T06:52:07.000Z</time>
      </trkpt>
      <trkpt lat="42.7056" lon="1.27752">
        <ele>2525</ele>
        <time>2023-07-25T06:52:14.000Z</time>
      </trkpt>
      <trkpt lat="42.70561" lon="1.27748">
        <ele>2524.3999023438</ele>
        <time>2023-07-25T06:52:18.000Z</time>
      </trkpt>
      <trkpt lat="42.70562" lon="1.27746">
        <ele>2523.6000976562</ele>
        <time>2023-07-25T06:52:22.000Z</time>
      </trkpt>
      <trkpt lat="42.70562" lon="1.27746">
        <ele>2523.1999511719</ele>
        <time>2023-07-25T06:52:24.000Z</time>
      </trkpt>
      <trkpt lat="42.70563" lon="1.27743">
        <ele>2522</ele>
        <time>2023-07-25T06:52:30.000Z</time>
      </trkpt>
      <trkpt lat="42.70564" lon="1.27737">
        <ele>2521</ele>
        <time>2023-07-25T06:52:35.000Z</time>
      </trkpt>
      <trkpt lat="42.70564" lon="1.27734">
        <ele>2520.8000488281</ele>
        <time>2023-07-25T06:52:37.000Z</time>
      </trkpt>
      <trkpt lat="42.70564" lon="1.2773">
        <ele>2519.8000488281</ele>
        <time>2023-07-25T06:52:41.000Z</time>
      </trkpt>
      <trkpt lat="42.70564" lon="1.27726">
        <ele>2518.8000488281</ele>
        <time>2023-07-25T06:52:47.000Z</time>
      </trkpt>
      <trkpt lat="42.70564" lon="1.27724">
        <ele>2518.6000976562</ele>
        <time>2023-07-25T06:52:48.000Z</time>
      </trkpt>
      <trkpt lat="42.70565" lon="1.27717">
        <ele>2517.3999023438</ele>
        <time>2023-07-25T06:52:54.000Z</time>
      </trkpt>
      <trkpt lat="42.70567" lon="1.27713">
        <ele>2516.3999023438</ele>
        <time>2023-07-25T06:53:00.000Z</time>
      </trkpt>
      <trkpt lat="42.70568" lon="1.2771">
        <ele>2516</ele>
        <time>2023-07-25T06:53:03.000Z</time>
      </trkpt>
      <trkpt lat="42.70568" lon="1.27706">
        <ele>2515.1999511719</ele>
        <time>2023-07-25T06:53:07.000Z</time>
      </trkpt>
      <trkpt lat="42.70567" lon="1.27702">
        <ele>2514.8000488281</ele>
        <time>2023-07-25T06:53:10.000Z</time>
      </trkpt>
      <trkpt lat="42.70567" lon="1.27697">
        <ele>2514</ele>
        <time>2023-07-25T06:53:14.000Z</time>
      </trkpt>
      <trkpt lat="42.70567" lon="1.27692">
        <ele>2512.8000488281</ele>
        <time>2023-07-25T06:53:18.000Z</time>
      </trkpt>
      <trkpt lat="42.70567" lon="1.27689">
        <ele>2511.8000488281</ele>
        <time>2023-07-25T06:53:24.000Z</time>
      </trkpt>
      <trkpt lat="42.70567" lon="1.27687">
        <ele>2511.3999023438</ele>
        <time>2023-07-25T06:53:25.000Z</time>
      </trkpt>
      <trkpt lat="42.70568" lon="1.27684">
        <ele>2510.6000976562</ele>
        <time>2023-07-25T06:53:29.000Z</time>
      </trkpt>
      <trkpt lat="42.70568" lon="1.27683">
        <ele>2510.1999511719</ele>
        <time>2023-07-25T06:53:31.000Z</time>
      </trkpt>
      <trkpt lat="42.70569" lon="1.27679">
        <ele>2509.6000976562</ele>
        <time>2023-07-25T06:53:34.000Z</time>
      </trkpt>
      <trkpt lat="42.7057" lon="1.27673">
        <ele>2508.6000976562</ele>
        <time>2023-07-25T06:53:39.000Z</time>
      </trkpt>
      <trkpt lat="42.7057" lon="1.27672">
        <ele>2508.3999023438</ele>
        <time>2023-07-25T06:53:40.000Z</time>
      </trkpt>
      <trkpt lat="42.70571" lon="1.27668">
        <ele>2507.1999511719</ele>
        <time>2023-07-25T06:53:43.000Z</time>
      </trkpt>
      <trkpt lat="42.70572" lon="1.27663">
        <ele>2506</ele>
        <time>2023-07-25T06:53:47.000Z</time>
      </trkpt>
      <trkpt lat="42.70572" lon="1.27663">
        <ele>2505.8000488281</ele>
        <time>2023-07-25T06:53:48.000Z</time>
      </trkpt>
      <trkpt lat="42.70574" lon="1.27657">
        <ele>2505</ele>
        <time>2023-07-25T06:53:55.000Z</time>
      </trkpt>
      <trkpt lat="42.70576" lon="1.27653">
        <ele>2503.8000488281</ele>
        <time>2023-07-25T06:54:02.000Z</time>
      </trkpt>
      <trkpt lat="42.70577" lon="1.27652">
        <ele>2503.3999023438</ele>
        <time>2023-07-25T06:54:03.000Z</time>
      </trkpt>
      <trkpt lat="42.70579" lon="1.27646">
        <ele>2502.8000488281</ele>
        <time>2023-07-25T06:54:10.000Z</time>
      </trkpt>
      <trkpt lat="42.70579" lon="1.27642">
        <ele>2502.6000976562</ele>
        <time>2023-07-25T06:54:12.000Z</time>
      </trkpt>
      <trkpt lat="42.7058" lon="1.27631">
        <ele>2502</ele>
        <time>2023-07-25T06:54:20.000Z</time>
      </trkpt>
      <trkpt lat="42.70581" lon="1.27614">
        <ele>2502.3999023438</ele>
        <time>2023-07-25T06:54:29.000Z</time>
      </trkpt>
      <trkpt lat="42.70581" lon="1.27602">
        <ele>2502.6000976562</ele>
        <time>2023-07-25T06:54:37.000Z</time>
      </trkpt>
      <trkpt lat="42.70581" lon="1.27601">
        <ele>2502</ele>
        <time>2023-07-25T06:54:42.000Z</time>
      </trkpt>
      <trkpt lat="42.70581" lon="1.27602">
        <ele>2502</ele>
        <time>2023-07-25T06:54:43.000Z</time>
      </trkpt>
      <trkpt lat="42.70581" lon="1.27604">
        <ele>2502</ele>
        <time>2023-07-25T06:54:45.000Z</time>
      </trkpt>
      <trkpt lat="42.70582" lon="1.27602">
        <ele>2501.8000488281</ele>
        <time>2023-07-25T06:54:53.000Z</time>
      </trkpt>
      <trkpt lat="42.70582" lon="1.27602">
        <ele>2501.8000488281</ele>
        <time>2023-07-25T06:54:55.000Z</time>
      </trkpt>
      <trkpt lat="42.70581" lon="1.27598">
        <ele>2502</ele>
        <time>2023-07-25T06:55:02.000Z</time>
      </trkpt>
      <trkpt lat="42.7058" lon="1.27601">
        <ele>2502</ele>
        <time>2023-07-25T06:55:12.000Z</time>
      </trkpt>
      <trkpt lat="42.70582" lon="1.276">
        <ele>2502.1999511719</ele>
        <time>2023-07-25T06:55:22.000Z</time>
      </trkpt>
      <trkpt lat="42.70586" lon="1.27601">
        <ele>2502.1999511719</ele>
        <time>2023-07-25T06:55:28.000Z</time>
      </trkpt>
      <trkpt lat="42.70588" lon="1.27598">
        <ele>2502.6000976562</ele>
        <time>2023-07-25T06:55:35.000Z</time>
      </trkpt>
      <trkpt lat="42.70585" lon="1.276">
        <ele>2502.6000976562</ele>
        <time>2023-07-25T06:55:43.000Z</time>
      </trkpt>
      <trkpt lat="42.70581" lon="1.27603">
        <ele>2502.6000976562</ele>
        <time>2023-07-25T06:55:52.000Z</time>
      </trkpt>
      <trkpt lat="42.70582" lon="1.27603">
        <ele>2502.3999023438</ele>
        <time>2023-07-25T06:55:59.000Z</time>
      </trkpt>
      <trkpt lat="42.70583" lon="1.27602">
        <ele>2502.3999023438</ele>
        <time>2023-07-25T06:56:07.000Z</time>
      </trkpt>
      <trkpt lat="42.70585" lon="1.27602">
        <ele>2502.8000488281</ele>
        <time>2023-07-25T06:56:16.000Z</time>
      </trkpt>
      <trkpt lat="42.70587" lon="1.27602">
        <ele>2503</ele>
        <time>2023-07-25T06:56:24.000Z</time>
      </trkpt>
      <trkpt lat="42.70588" lon="1.27601">
        <ele>2503</ele>
        <time>2023-07-25T06:56:33.000Z</time>
      </trkpt>
      <trkpt lat="42.70584" lon="1.276">
        <ele>2503.1999511719</ele>
        <time>2023-07-25T06:56:43.000Z</time>
      </trkpt>
      <trkpt lat="42.70583" lon="1.27604">
        <ele>2503.1999511719</ele>
        <time>2023-07-25T06:56:51.000Z</time>
      </trkpt>
      <trkpt lat="42.70582" lon="1.27603">
        <ele>2503.1999511719</ele>
        <time>2023-07-25T06:56:57.000Z</time>
      </trkpt>
      <trkpt lat="42.70582" lon="1.27603">
        <ele>2503.1999511719</ele>
        <time>2023-07-25T06:57:06.000Z</time>
      </trkpt>
      <trkpt lat="42.70583" lon="1.27603">
        <ele>2503.1999511719</ele>
        <time>2023-07-25T06:57:21.000Z</time>
      </trkpt>
      <trkpt lat="42.70582" lon="1.27602">
        <ele>2503.3999023438</ele>
        <time>2023-07-25T06:57:29.000Z</time>
      </trkpt>
      <trkpt lat="42.70582" lon="1.27604">
        <ele>2503.3999023438</ele>
        <time>2023-07-25T06:57:38.000Z</time>
      </trkpt>
      <trkpt lat="42.70581" lon="1.27603">
        <ele>2503.3999023438</ele>
        <time>2023-07-25T06:57:48.000Z</time>
      </trkpt>
      <trkpt lat="42.70581" lon="1.27603">
        <ele>2503.6000976562</ele>
        <time>2023-07-25T06:57:55.000Z</time>
      </trkpt>
      <trkpt lat="42.70581" lon="1.27603">
        <ele>2503.6000976562</ele>
        <time>2023-07-25T06:58:04.000Z</time>
      </trkpt>
      <trkpt lat="42.70583" lon="1.276">
        <ele>2503.6000976562</ele>
        <time>2023-07-25T06:58:11.000Z</time>
      </trkpt>
      <trkpt lat="42.70584" lon="1.27601">
        <ele>2503.6000976562</ele>
        <time>2023-07-25T06:58:17.000Z</time>
      </trkpt>
      <trkpt lat="42.70585" lon="1.27601">
        <ele>2503.6000976562</ele>
        <time>2023-07-25T06:58:24.000Z</time>
      </trkpt>
      <trkpt lat="42.70583" lon="1.27601">
        <ele>2503.8000488281</ele>
        <time>2023-07-25T06:58:32.000Z</time>
      </trkpt>
      <trkpt lat="42.70583" lon="1.27601">
        <ele>2504</ele>
        <time>2023-07-25T06:58:34.000Z</time>
      </trkpt>
      <trkpt lat="42.70584" lon="1.27602">
        <ele>2503.8000488281</ele>
        <time>2023-07-25T06:58:41.000Z</time>
      </trkpt>
      <trkpt lat="42.70585" lon="1.27603">
        <ele>2504</ele>
        <time>2023-07-25T06:58:50.000Z</time>
      </trkpt>
      <trkpt lat="42.70584" lon="1.27602">
        <ele>2504</ele>
        <time>2023-07-25T06:58:57.000Z</time>
      </trkpt>
      <trkpt lat="42.70585" lon="1.27603">
        <ele>2503.8000488281</ele>
        <time>2023-07-25T06:59:04.000Z</time>
      </trkpt>
      <trkpt lat="42.70584" lon="1.27603">
        <ele>2504.3999023438</ele>
        <time>2023-07-25T06:59:12.000Z</time>
      </trkpt>
      <trkpt lat="42.70583" lon="1.27604">
        <ele>2504.1999511719</ele>
        <time>2023-07-25T06:59:19.000Z</time>
      </trkpt>
      <trkpt lat="42.70582" lon="1.276">
        <ele>2504</ele>
        <time>2023-07-25T06:59:26.000Z</time>
      </trkpt>
      <trkpt lat="42.70584" lon="1.27606">
        <ele>2504</ele>
        <time>2023-07-25T06:59:34.000Z</time>
      </trkpt>
      <trkpt lat="42.70582" lon="1.27605">
        <ele>2504.1999511719</ele>
        <time>2023-07-25T06:59:42.000Z</time>
      </trkpt>
      <trkpt lat="42.70584" lon="1.27602">
        <ele>2504</ele>
        <time>2023-07-25T06:59:51.000Z</time>
      </trkpt>
      <trkpt lat="42.70584" lon="1.27594">
        <ele>2503.3999023438</ele>
        <time>2023-07-25T06:59:58.000Z</time>
      </trkpt>
      <trkpt lat="42.70583" lon="1.27591">
        <ele>2502.8000488281</ele>
        <time>2023-07-25T07:00:00.000Z</time>
      </trkpt>
      <trkpt lat="42.70583" lon="1.27586">
        <ele>2501.8000488281</ele>
        <time>2023-07-25T07:00:05.000Z</time>
      </trkpt>
      <trkpt lat="42.70583" lon="1.27584">
        <ele>2501.3999023438</ele>
        <time>2023-07-25T07:00:07.000Z</time>
      </trkpt>
      <trkpt lat="42.70583" lon="1.27582">
        <ele>2500.8000488281</ele>
        <time>2023-07-25T07:00:12.000Z</time>
      </trkpt>
      <trkpt lat="42.70583" lon="1.27582">
        <ele>2500.8000488281</ele>
        <time>2023-07-25T07:00:13.000Z</time>
      </trkpt>
      <trkpt lat="42.70584" lon="1.27578">
        <ele>2500</ele>
        <time>2023-07-25T07:00:19.000Z</time>
      </trkpt>
      <trkpt lat="42.70584" lon="1.27577">
        <ele>2499.6000976562</ele>
        <time>2023-07-25T07:00:21.000Z</time>
      </trkpt>
      <trkpt lat="42.70585" lon="1.27574">
        <ele>2498.8000488281</ele>
        <time>2023-07-25T07:00:25.000Z</time>
      </trkpt>
      <trkpt lat="42.70585" lon="1.27575">
        <ele>2498.3999023438</ele>
        <time>2023-07-25T07:00:26.000Z</time>
      </trkpt>
      <trkpt lat="42.70586" lon="1.27573">
        <ele>2498</ele>
        <time>2023-07-25T07:00:30.000Z</time>
      </trkpt>
      <trkpt lat="42.70587" lon="1.27571">
        <ele>2497.3999023438</ele>
        <time>2023-07-25T07:00:33.000Z</time>
      </trkpt>
      <trkpt lat="42.70586" lon="1.27569">
        <ele>2496.3999023438</ele>
        <time>2023-07-25T07:00:38.000Z</time>
      </trkpt>
      <trkpt lat="42.70586" lon="1.27568">
        <ele>2496.1999511719</ele>
        <time>2023-07-25T07:00:40.000Z</time>
      </trkpt>
      <trkpt lat="42.70586" lon="1.27565">
        <ele>2495.6000976562</ele>
        <time>2023-07-25T07:00:46.000Z</time>
      </trkpt>
      <trkpt lat="42.70587" lon="1.27564">
        <ele>2495.1999511719</ele>
        <time>2023-07-25T07:00:49.000Z</time>
      </trkpt>
      <trkpt lat="42.70588" lon="1.27564">
        <ele>2494.1999511719</ele>
        <time>2023-07-25T07:00:55.000Z</time>
      </trkpt>
      <trkpt lat="42.70588" lon="1.27563">
        <ele>2494.1999511719</ele>
        <time>2023-07-25T07:00:56.000Z</time>
      </trkpt>
      <trkpt lat="42.70587" lon="1.2756">
        <ele>2493.3999023438</ele>
        <time>2023-07-25T07:01:02.000Z</time>
      </trkpt>
      <trkpt lat="42.70588" lon="1.27559">
        <ele>2493</ele>
        <time>2023-07-25T07:01:04.000Z</time>
      </trkpt>
      <trkpt lat="42.7059" lon="1.27557">
        <ele>2492</ele>
        <time>2023-07-25T07:01:09.000Z</time>
      </trkpt>
      <trkpt lat="42.7059" lon="1.27557">
        <ele>2492</ele>
        <time>2023-07-25T07:01:10.000Z</time>
      </trkpt>
      <trkpt lat="42.70592" lon="1.27553">
        <ele>2490.8000488281</ele>
        <time>2023-07-25T07:01:17.000Z</time>
      </trkpt>
      <trkpt lat="42.70592" lon="1.2755">
        <ele>2489.8000488281</ele>
        <time>2023-07-25T07:01:22.000Z</time>
      </trkpt>
      <trkpt lat="42.70593" lon="1.27548">
        <ele>2489.3999023438</ele>
        <time>2023-07-25T07:01:24.000Z</time>
      </trkpt>
      <trkpt lat="42.70593" lon="1.27546">
        <ele>2488.6000976562</ele>
        <time>2023-07-25T07:01:29.000Z</time>
      </trkpt>
      <trkpt lat="42.70593" lon="1.27545">
        <ele>2488.3999023438</ele>
        <time>2023-07-25T07:01:31.000Z</time>
      </trkpt>
      <trkpt lat="42.70593" lon="1.27544">
        <ele>2487.6000976562</ele>
        <time>2023-07-25T07:01:37.000Z</time>
      </trkpt>
      <trkpt lat="42.70592" lon="1.27544">
        <ele>2487.3999023438</ele>
        <time>2023-07-25T07:01:38.000Z</time>
      </trkpt>
      <trkpt lat="42.70591" lon="1.2754">
        <ele>2486.6000976562</ele>
        <time>2023-07-25T07:01:43.000Z</time>
      </trkpt>
      <trkpt lat="42.70591" lon="1.27538">
        <ele>2485.8000488281</ele>
        <time>2023-07-25T07:01:46.000Z</time>
      </trkpt>
      <trkpt lat="42.70592" lon="1.27535">
        <ele>2485.3999023438</ele>
        <time>2023-07-25T07:01:48.000Z</time>
      </trkpt>
      <trkpt lat="42.7059" lon="1.27534">
        <ele>2484.6000976562</ele>
        <time>2023-07-25T07:01:52.000Z</time>
      </trkpt>
      <trkpt lat="42.7059" lon="1.27535">
        <ele>2484.3999023438</ele>
        <time>2023-07-25T07:01:53.000Z</time>
      </trkpt>
      <trkpt lat="42.7059" lon="1.27529">
        <ele>2483.6000976562</ele>
        <time>2023-07-25T07:02:02.000Z</time>
      </trkpt>
      <trkpt lat="42.70591" lon="1.27528">
        <ele>2483.1999511719</ele>
        <time>2023-07-25T07:02:04.000Z</time>
      </trkpt>
      <trkpt lat="42.70591" lon="1.27525">
        <ele>2482.6000976562</ele>
        <time>2023-07-25T07:02:09.000Z</time>
      </trkpt>
      <trkpt lat="42.70591" lon="1.27523">
        <ele>2482.1999511719</ele>
        <time>2023-07-25T07:02:15.000Z</time>
      </trkpt>
      <trkpt lat="42.70592" lon="1.27521">
        <ele>2481.8000488281</ele>
        <time>2023-07-25T07:02:17.000Z</time>
      </trkpt>
      <trkpt lat="42.70593" lon="1.27517">
        <ele>2481</ele>
        <time>2023-07-25T07:02:20.000Z</time>
      </trkpt>
      <trkpt lat="42.70594" lon="1.27513">
        <ele>2480</ele>
        <time>2023-07-25T07:02:24.000Z</time>
      </trkpt>
      <trkpt lat="42.70595" lon="1.27512">
        <ele>2479.6000976562</ele>
        <time>2023-07-25T07:02:25.000Z</time>
      </trkpt>
      <trkpt lat="42.70595" lon="1.27508">
        <ele>2478.6000976562</ele>
        <time>2023-07-25T07:02:30.000Z</time>
      </trkpt>
      <trkpt lat="42.70595" lon="1.27504">
        <ele>2477.6000976562</ele>
        <time>2023-07-25T07:02:33.000Z</time>
      </trkpt>
      <trkpt lat="42.70595" lon="1.275">
        <ele>2476.6000976562</ele>
        <time>2023-07-25T07:02:39.000Z</time>
      </trkpt>
      <trkpt lat="42.70595" lon="1.27497">
        <ele>2475.3999023438</ele>
        <time>2023-07-25T07:02:45.000Z</time>
      </trkpt>
      <trkpt lat="42.70597" lon="1.27494">
        <ele>2474.1999511719</ele>
        <time>2023-07-25T07:02:50.000Z</time>
      </trkpt>
      <trkpt lat="42.70598" lon="1.27494">
        <ele>2473.1999511719</ele>
        <time>2023-07-25T07:02:54.000Z</time>
      </trkpt>
      <trkpt lat="42.70598" lon="1.27493">
        <ele>2473</ele>
        <time>2023-07-25T07:02:55.000Z</time>
      </trkpt>
      <trkpt lat="42.70598" lon="1.27487">
        <ele>2471.8000488281</ele>
        <time>2023-07-25T07:03:00.000Z</time>
      </trkpt>
      <trkpt lat="42.70598" lon="1.27486">
        <ele>2471.6000976562</ele>
        <time>2023-07-25T07:03:01.000Z</time>
      </trkpt>
      <trkpt lat="42.70598" lon="1.27481">
        <ele>2470.8000488281</ele>
        <time>2023-07-25T07:03:06.000Z</time>
      </trkpt>
      <trkpt lat="42.70599" lon="1.27479">
        <ele>2470</ele>
        <time>2023-07-25T07:03:09.000Z</time>
      </trkpt>
      <trkpt lat="42.70599" lon="1.27478">
        <ele>2469.6000976562</ele>
        <time>2023-07-25T07:03:11.000Z</time>
      </trkpt>
      <trkpt lat="42.706" lon="1.27475">
        <ele>2468.3999023438</ele>
        <time>2023-07-25T07:03:15.000Z</time>
      </trkpt>
      <trkpt lat="42.70601" lon="1.27475">
        <ele>2468.1999511719</ele>
        <time>2023-07-25T07:03:17.000Z</time>
      </trkpt>
      <trkpt lat="42.70603" lon="1.27473">
        <ele>2467.1999511719</ele>
        <time>2023-07-25T07:03:22.000Z</time>
      </trkpt>
      <trkpt lat="42.70604" lon="1.2747">
        <ele>2466.1999511719</ele>
        <time>2023-07-25T07:03:26.000Z</time>
      </trkpt>
      <trkpt lat="42.70605" lon="1.27469">
        <ele>2466</ele>
        <time>2023-07-25T07:03:27.000Z</time>
      </trkpt>
      <trkpt lat="42.70607" lon="1.27461">
        <ele>2464.8000488281</ele>
        <time>2023-07-25T07:03:33.000Z</time>
      </trkpt>
      <trkpt lat="42.70606" lon="1.27459">
        <ele>2464.3999023438</ele>
        <time>2023-07-25T07:03:35.000Z</time>
      </trkpt>
      <trkpt lat="42.70606" lon="1.27459">
        <ele>2463.6000976562</ele>
        <time>2023-07-25T07:03:37.000Z</time>
      </trkpt>
      <trkpt lat="42.70607" lon="1.2746">
        <ele>2462.6000976562</ele>
        <time>2023-07-25T07:03:44.000Z</time>
      </trkpt>
      <trkpt lat="42.70607" lon="1.27459">
        <ele>2462.3999023438</ele>
        <time>2023-07-25T07:03:45.000Z</time>
      </trkpt>
      <trkpt lat="42.70609" lon="1.27454">
        <ele>2461.6000976562</ele>
        <time>2023-07-25T07:03:50.000Z</time>
      </trkpt>
      <trkpt lat="42.70611" lon="1.27448">
        <ele>2460.8000488281</ele>
        <time>2023-07-25T07:03:54.000Z</time>
      </trkpt>
      <trkpt lat="42.7061" lon="1.27448">
        <ele>2460.6000976562</ele>
        <time>2023-07-25T07:03:55.000Z</time>
      </trkpt>
      <trkpt lat="42.70609" lon="1.27449">
        <ele>2459.6000976562</ele>
        <time>2023-07-25T07:04:01.000Z</time>
      </trkpt>
      <trkpt lat="42.70609" lon="1.2745">
        <ele>2458.8000488281</ele>
        <time>2023-07-25T07:04:08.000Z</time>
      </trkpt>
      <trkpt lat="42.70609" lon="1.27449">
        <ele>2458.3999023438</ele>
        <time>2023-07-25T07:04:11.000Z</time>
      </trkpt>
      <trkpt lat="42.70609" lon="1.27448">
        <ele>2458</ele>
        <time>2023-07-25T07:04:14.000Z</time>
      </trkpt>
      <trkpt lat="42.70609" lon="1.27442">
        <ele>2457.3999023438</ele>
        <time>2023-07-25T07:04:19.000Z</time>
      </trkpt>
      <trkpt lat="42.7061" lon="1.27441">
        <ele>2457.3999023438</ele>
        <time>2023-07-25T07:04:20.000Z</time>
      </trkpt>
      <trkpt lat="42.7061" lon="1.27433">
        <ele>2457.8000488281</ele>
        <time>2023-07-25T07:04:27.000Z</time>
      </trkpt>
      <trkpt lat="42.70609" lon="1.27423">
        <ele>2457</ele>
        <time>2023-07-25T07:04:34.000Z</time>
      </trkpt>
      <trkpt lat="42.70608" lon="1.27418">
        <ele>2456.6000976562</ele>
        <time>2023-07-25T07:04:40.000Z</time>
      </trkpt>
      <trkpt lat="42.70608" lon="1.27415">
        <ele>2456.3999023438</ele>
        <time>2023-07-25T07:04:42.000Z</time>
      </trkpt>
      <trkpt lat="42.70608" lon="1.27411">
        <ele>2455.8000488281</ele>
        <time>2023-07-25T07:04:47.000Z</time>
      </trkpt>
      <trkpt lat="42.7061" lon="1.27406">
        <ele>2455.1999511719</ele>
        <time>2023-07-25T07:04:52.000Z</time>
      </trkpt>
      <trkpt lat="42.7061" lon="1.27404">
        <ele>2455</ele>
        <time>2023-07-25T07:04:54.000Z</time>
      </trkpt>
      <trkpt lat="42.70612" lon="1.27399">
        <ele>2454.1999511719</ele>
        <time>2023-07-25T07:04:59.000Z</time>
      </trkpt>
      <trkpt lat="42.70613" lon="1.27396">
        <ele>2453.3999023438</ele>
        <time>2023-07-25T07:05:02.000Z</time>
      </trkpt>
      <trkpt lat="42.70614" lon="1.27394">
        <ele>2453</ele>
        <time>2023-07-25T07:05:04.000Z</time>
      </trkpt>
      <trkpt lat="42.70615" lon="1.27389">
        <ele>2452</ele>
        <time>2023-07-25T07:05:09.000Z</time>
      </trkpt>
      <trkpt lat="42.70615" lon="1.27387">
        <ele>2451.8000488281</ele>
        <time>2023-07-25T07:05:10.000Z</time>
      </trkpt>
      <trkpt lat="42.70615" lon="1.27385">
        <ele>2450.8000488281</ele>
        <time>2023-07-25T07:05:14.000Z</time>
      </trkpt>
      <trkpt lat="42.70615" lon="1.27384">
        <ele>2450.6000976562</ele>
        <time>2023-07-25T07:05:16.000Z</time>
      </trkpt>
      <trkpt lat="42.70615" lon="1.27379">
        <ele>2449.8000488281</ele>
        <time>2023-07-25T07:05:20.000Z</time>
      </trkpt>
      <trkpt lat="42.70614" lon="1.27376">
        <ele>2449.1999511719</ele>
        <time>2023-07-25T07:05:24.000Z</time>
      </trkpt>
      <trkpt lat="42.70615" lon="1.27373">
        <ele>2448.8000488281</ele>
        <time>2023-07-25T07:05:27.000Z</time>
      </trkpt>
      <trkpt lat="42.70616" lon="1.2737">
        <ele>2448.1999511719</ele>
        <time>2023-07-25T07:05:31.000Z</time>
      </trkpt>
      <trkpt lat="42.70616" lon="1.27368">
        <ele>2447.6000976562</ele>
        <time>2023-07-25T07:05:35.000Z</time>
      </trkpt>
      <trkpt lat="42.70618" lon="1.27365">
        <ele>2446.6000976562</ele>
        <time>2023-07-25T07:05:40.000Z</time>
      </trkpt>
      <trkpt lat="42.70618" lon="1.27364">
        <ele>2446.3999023438</ele>
        <time>2023-07-25T07:05:41.000Z</time>
      </trkpt>
      <trkpt lat="42.70618" lon="1.27357">
        <ele>2445.3999023438</ele>
        <time>2023-07-25T07:05:47.000Z</time>
      </trkpt>
      <trkpt lat="42.70617" lon="1.27355">
        <ele>2444.3999023438</ele>
        <time>2023-07-25T07:05:54.000Z</time>
      </trkpt>
      <trkpt lat="42.70617" lon="1.27354">
        <ele>2444.1999511719</ele>
        <time>2023-07-25T07:05:56.000Z</time>
      </trkpt>
      <trkpt lat="42.70618" lon="1.2735">
        <ele>2443.3999023438</ele>
        <time>2023-07-25T07:06:02.000Z</time>
      </trkpt>
      <trkpt lat="42.7062" lon="1.27351">
        <ele>2443.1999511719</ele>
        <time>2023-07-25T07:06:10.000Z</time>
      </trkpt>
      <trkpt lat="42.70625" lon="1.2735">
        <ele>2442.6000976562</ele>
        <time>2023-07-25T07:06:18.000Z</time>
      </trkpt>
      <trkpt lat="42.70625" lon="1.27349">
        <ele>2442</ele>
        <time>2023-07-25T07:06:21.000Z</time>
      </trkpt>
      <trkpt lat="42.70626" lon="1.27346">
        <ele>2441.3999023438</ele>
        <time>2023-07-25T07:06:24.000Z</time>
      </trkpt>
      <trkpt lat="42.70628" lon="1.27342">
        <ele>2441</ele>
        <time>2023-07-25T07:06:26.000Z</time>
      </trkpt>
      <trkpt lat="42.70627" lon="1.27338">
        <ele>2439.8000488281</ele>
        <time>2023-07-25T07:06:31.000Z</time>
      </trkpt>
      <trkpt lat="42.70626" lon="1.27334">
        <ele>2438.6000976562</ele>
        <time>2023-07-25T07:06:38.000Z</time>
      </trkpt>
      <trkpt lat="42.70626" lon="1.27333">
        <ele>2438.6000976562</ele>
        <time>2023-07-25T07:06:39.000Z</time>
      </trkpt>
      <trkpt lat="42.70628" lon="1.27329">
        <ele>2437.6000976562</ele>
        <time>2023-07-25T07:06:45.000Z</time>
      </trkpt>
      <trkpt lat="42.70629" lon="1.27327">
        <ele>2437.3999023438</ele>
        <time>2023-07-25T07:06:46.000Z</time>
      </trkpt>
      <trkpt lat="42.70628" lon="1.27319">
        <ele>2436.3999023438</ele>
        <time>2023-07-25T07:06:51.000Z</time>
      </trkpt>
      <trkpt lat="42.70628" lon="1.27316">
        <ele>2436</ele>
        <time>2023-07-25T07:06:53.000Z</time>
      </trkpt>
      <trkpt lat="42.70625" lon="1.2731">
        <ele>2435.1999511719</ele>
        <time>2023-07-25T07:06:59.000Z</time>
      </trkpt>
      <trkpt lat="42.70624" lon="1.27303">
        <ele>2434.3999023438</ele>
        <time>2023-07-25T07:07:05.000Z</time>
      </trkpt>
      <trkpt lat="42.70625" lon="1.27299">
        <ele>2434.1999511719</ele>
        <time>2023-07-25T07:07:07.000Z</time>
      </trkpt>
      <trkpt lat="42.70625" lon="1.27296">
        <ele>2434.1999511719</ele>
        <time>2023-07-25T07:07:11.000Z</time>
      </trkpt>
      <trkpt lat="42.70624" lon="1.27287">
        <ele>2433.8000488281</ele>
        <time>2023-07-25T07:07:18.000Z</time>
      </trkpt>
      <trkpt lat="42.70626" lon="1.27281">
        <ele>2433.3999023438</ele>
        <time>2023-07-25T07:07:25.000Z</time>
      </trkpt>
      <trkpt lat="42.70628" lon="1.27278">
        <ele>2433.1999511719</ele>
        <time>2023-07-25T07:07:27.000Z</time>
      </trkpt>
      <trkpt lat="42.7063" lon="1.27273">
        <ele>2432.1999511719</ele>
        <time>2023-07-25T07:07:31.000Z</time>
      </trkpt>
      <trkpt lat="42.7063" lon="1.27272">
        <ele>2432</ele>
        <time>2023-07-25T07:07:32.000Z</time>
      </trkpt>
      <trkpt lat="42.70632" lon="1.27266">
        <ele>2431.3999023438</ele>
        <time>2023-07-25T07:07:38.000Z</time>
      </trkpt>
      <trkpt lat="42.70635" lon="1.27261">
        <ele>2430.8000488281</ele>
        <time>2023-07-25T07:07:43.000Z</time>
      </trkpt>
      <trkpt lat="42.70635" lon="1.27257">
        <ele>2430.1999511719</ele>
        <time>2023-07-25T07:07:46.000Z</time>
      </trkpt>
      <trkpt lat="42.70636" lon="1.27252">
        <ele>2429.8000488281</ele>
        <time>2023-07-25T07:07:49.000Z</time>
      </trkpt>
      <trkpt lat="42.70636" lon="1.27247">
        <ele>2428.8000488281</ele>
        <time>2023-07-25T07:07:53.000Z</time>
      </trkpt>
      <trkpt lat="42.70636" lon="1.27245">
        <ele>2428.6000976562</ele>
        <time>2023-07-25T07:07:54.000Z</time>
      </trkpt>
      <trkpt lat="42.70638" lon="1.27238">
        <ele>2427.3999023438</ele>
        <time>2023-07-25T07:08:00.000Z</time>
      </trkpt>
      <trkpt lat="42.70638" lon="1.27236">
        <ele>2427.3999023438</ele>
        <time>2023-07-25T07:08:01.000Z</time>
      </trkpt>
      <trkpt lat="42.7064" lon="1.27231">
        <ele>2426.8000488281</ele>
        <time>2023-07-25T07:08:07.000Z</time>
      </trkpt>
      <trkpt lat="42.70644" lon="1.27227">
        <ele>2426.3999023438</ele>
        <time>2023-07-25T07:08:13.000Z</time>
      </trkpt>
      <trkpt lat="42.70644" lon="1.27227">
        <ele>2426.3999023438</ele>
        <time>2023-07-25T07:08:14.000Z</time>
      </trkpt>
      <trkpt lat="42.70647" lon="1.2722">
        <ele>2426.6000976562</ele>
        <time>2023-07-25T07:08:21.000Z</time>
      </trkpt>
      <trkpt lat="42.70648" lon="1.27214">
        <ele>2426.3999023438</ele>
        <time>2023-07-25T07:08:27.000Z</time>
      </trkpt>
      <trkpt lat="42.7065" lon="1.27201">
        <ele>2425.1999511719</ele>
        <time>2023-07-25T07:08:38.000Z</time>
      </trkpt>
      <trkpt lat="42.7065" lon="1.272">
        <ele>2425.1999511719</ele>
        <time>2023-07-25T07:08:39.000Z</time>
      </trkpt>
      <trkpt lat="42.70653" lon="1.27199">
        <ele>2424.1999511719</ele>
        <time>2023-07-25T07:08:46.000Z</time>
      </trkpt>
      <trkpt lat="42.70657" lon="1.27193">
        <ele>2423.8000488281</ele>
        <time>2023-07-25T07:08:52.000Z</time>
      </trkpt>
      <trkpt lat="42.70659" lon="1.27188">
        <ele>2423</ele>
        <time>2023-07-25T07:08:57.000Z</time>
      </trkpt>
      <trkpt lat="42.70659" lon="1.27185">
        <ele>2422</ele>
        <time>2023-07-25T07:09:01.000Z</time>
      </trkpt>
      <trkpt lat="42.70659" lon="1.27185">
        <ele>2421.8000488281</ele>
        <time>2023-07-25T07:09:02.000Z</time>
      </trkpt>
      <trkpt lat="42.7066" lon="1.2718">
        <ele>2420.6000976562</ele>
        <time>2023-07-25T07:09:06.000Z</time>
      </trkpt>
      <trkpt lat="42.7066" lon="1.27177">
        <ele>2420.1999511719</ele>
        <time>2023-07-25T07:09:08.000Z</time>
      </trkpt>
      <trkpt lat="42.70661" lon="1.27173">
        <ele>2419.6000976562</ele>
        <time>2023-07-25T07:09:11.000Z</time>
      </trkpt>
      <trkpt lat="42.70662" lon="1.27169">
        <ele>2419</ele>
        <time>2023-07-25T07:09:14.000Z</time>
      </trkpt>
      <trkpt lat="42.70666" lon="1.27164">
        <ele>2418.3999023438</ele>
        <time>2023-07-25T07:09:22.000Z</time>
      </trkpt>
      <trkpt lat="42.70668" lon="1.27156">
        <ele>2418.1999511719</ele>
        <time>2023-07-25T07:09:30.000Z</time>
      </trkpt>
      <trkpt lat="42.70669" lon="1.27147">
        <ele>2418.6000976562</ele>
        <time>2023-07-25T07:09:40.000Z</time>
      </trkpt>
      <trkpt lat="42.70669" lon="1.27139">
        <ele>2418.1999511719</ele>
        <time>2023-07-25T07:09:48.000Z</time>
      </trkpt>
      <trkpt lat="42.70667" lon="1.27135">
        <ele>2418.1999511719</ele>
        <time>2023-07-25T07:09:55.000Z</time>
      </trkpt>
      <trkpt lat="42.70667" lon="1.2713">
        <ele>2419.1999511719</ele>
        <time>2023-07-25T07:10:02.000Z</time>
      </trkpt>
      <trkpt lat="42.70667" lon="1.27131">
        <ele>2419.3999023438</ele>
        <time>2023-07-25T07:10:08.000Z</time>
      </trkpt>
      <trkpt lat="42.70665" lon="1.2713">
        <ele>2419.1999511719</ele>
        <time>2023-07-25T07:10:15.000Z</time>
      </trkpt>
      <trkpt lat="42.70666" lon="1.2713">
        <ele>2419</ele>
        <time>2023-07-25T07:10:21.000Z</time>
      </trkpt>
      <trkpt lat="42.70667" lon="1.27121">
        <ele>2419.1999511719</ele>
        <time>2023-07-25T07:10:26.000Z</time>
      </trkpt>
      <trkpt lat="42.70668" lon="1.27117">
        <ele>2419.3999023438</ele>
        <time>2023-07-25T07:10:29.000Z</time>
      </trkpt>
      <trkpt lat="42.70669" lon="1.2711">
        <ele>2419.8000488281</ele>
        <time>2023-07-25T07:10:34.000Z</time>
      </trkpt>
      <trkpt lat="42.70671" lon="1.27104">
        <ele>2419.6000976562</ele>
        <time>2023-07-25T07:10:41.000Z</time>
      </trkpt>
      <trkpt lat="42.70672" lon="1.27094">
        <ele>2418.8000488281</ele>
        <time>2023-07-25T07:10:49.000Z</time>
      </trkpt>
      <trkpt lat="42.70673" lon="1.27087">
        <ele>2419.1999511719</ele>
        <time>2023-07-25T07:10:55.000Z</time>
      </trkpt>
      <trkpt lat="42.70676" lon="1.27075">
        <ele>2420</ele>
        <time>2023-07-25T07:11:03.000Z</time>
      </trkpt>
      <trkpt lat="42.7068" lon="1.27066">
        <ele>2419.8000488281</ele>
        <time>2023-07-25T07:11:11.000Z</time>
      </trkpt>
      <trkpt lat="42.70682" lon="1.27053">
        <ele>2419</ele>
        <time>2023-07-25T07:11:18.000Z</time>
      </trkpt>
      <trkpt lat="42.70682" lon="1.27045">
        <ele>2418.6000976562</ele>
        <time>2023-07-25T07:11:24.000Z</time>
      </trkpt>
      <trkpt lat="42.70683" lon="1.27043">
        <ele>2418.3999023438</ele>
        <time>2023-07-25T07:11:25.000Z</time>
      </trkpt>
      <trkpt lat="42.70683" lon="1.27031">
        <ele>2418.1999511719</ele>
        <time>2023-07-25T07:11:32.000Z</time>
      </trkpt>
      <trkpt lat="42.70684" lon="1.27022">
        <ele>2417.8000488281</ele>
        <time>2023-07-25T07:11:39.000Z</time>
      </trkpt>
      <trkpt lat="42.70684" lon="1.27012">
        <ele>2417.6000976562</ele>
        <time>2023-07-25T07:11:45.000Z</time>
      </trkpt>
      <trkpt lat="42.70683" lon="1.27007">
        <ele>2417.3999023438</ele>
        <time>2023-07-25T07:11:48.000Z</time>
      </trkpt>
      <trkpt lat="42.70683" lon="1.27001">
        <ele>2417.6000976562</ele>
        <time>2023-07-25T07:11:53.000Z</time>
      </trkpt>
      <trkpt lat="42.70684" lon="1.26995">
        <ele>2418</ele>
        <time>2023-07-25T07:12:00.000Z</time>
      </trkpt>
      <trkpt lat="42.70684" lon="1.26987">
        <ele>2417.3999023438</ele>
        <time>2023-07-25T07:12:07.000Z</time>
      </trkpt>
      <trkpt lat="42.70684" lon="1.26977">
        <ele>2417.1999511719</ele>
        <time>2023-07-25T07:12:15.000Z</time>
      </trkpt>
      <trkpt lat="42.70684" lon="1.26976">
        <ele>2416.3999023438</ele>
        <time>2023-07-25T07:12:20.000Z</time>
      </trkpt>
      <trkpt lat="42.70684" lon="1.26976">
        <ele>2416.3999023438</ele>
        <time>2023-07-25T07:12:22.000Z</time>
      </trkpt>
      <trkpt lat="42.70682" lon="1.26982">
        <ele>2416.1999511719</ele>
        <time>2023-07-25T07:12:31.000Z</time>
      </trkpt>
      <trkpt lat="42.70685" lon="1.26979">
        <ele>2416</ele>
        <time>2023-07-25T07:12:37.000Z</time>
      </trkpt>
      <trkpt lat="42.70685" lon="1.26977">
        <ele>2416</ele>
        <time>2023-07-25T07:12:43.000Z</time>
      </trkpt>
      <trkpt lat="42.70684" lon="1.26975">
        <ele>2415.8000488281</ele>
        <time>2023-07-25T07:12:50.000Z</time>
      </trkpt>
      <trkpt lat="42.70682" lon="1.26973">
        <ele>2415.3999023438</ele>
        <time>2023-07-25T07:12:55.000Z</time>
      </trkpt>
      <trkpt lat="42.70681" lon="1.26971">
        <ele>2415.1999511719</ele>
        <time>2023-07-25T07:12:58.000Z</time>
      </trkpt>
      <trkpt lat="42.70679" lon="1.26968">
        <ele>2414.3999023438</ele>
        <time>2023-07-25T07:13:06.000Z</time>
      </trkpt>
      <trkpt lat="42.7068" lon="1.26967">
        <ele>2414.1999511719</ele>
        <time>2023-07-25T07:13:07.000Z</time>
      </trkpt>
      <trkpt lat="42.70682" lon="1.26962">
        <ele>2413</ele>
        <time>2023-07-25T07:13:12.000Z</time>
      </trkpt>
      <trkpt lat="42.70682" lon="1.26955">
        <ele>2411.8000488281</ele>
        <time>2023-07-25T07:13:17.000Z</time>
      </trkpt>
      <trkpt lat="42.70679" lon="1.26957">
        <ele>2411</ele>
        <time>2023-07-25T07:13:20.000Z</time>
      </trkpt>
      <trkpt lat="42.70678" lon="1.26956">
        <ele>2410.6000976562</ele>
        <time>2023-07-25T07:13:22.000Z</time>
      </trkpt>
      <trkpt lat="42.70677" lon="1.26951">
        <ele>2409.6000976562</ele>
        <time>2023-07-25T07:13:27.000Z</time>
      </trkpt>
      <trkpt lat="42.70677" lon="1.26951">
        <ele>2409.6000976562</ele>
        <time>2023-07-25T07:13:28.000Z</time>
      </trkpt>
      <trkpt lat="42.70675" lon="1.2695">
        <ele>2408.8000488281</ele>
        <time>2023-07-25T07:13:32.000Z</time>
      </trkpt>
      <trkpt lat="42.70675" lon="1.26951">
        <ele>2408.3999023438</ele>
        <time>2023-07-25T07:13:33.000Z</time>
      </trkpt>
      <trkpt lat="42.70676" lon="1.26952">
        <ele>2407.3999023438</ele>
        <time>2023-07-25T07:13:38.000Z</time>
      </trkpt>
      <trkpt lat="42.70677" lon="1.26951">
        <ele>2407.1999511719</ele>
        <time>2023-07-25T07:13:39.000Z</time>
      </trkpt>
      <trkpt lat="42.7068" lon="1.26946">
        <ele>2406.3999023438</ele>
        <time>2023-07-25T07:13:43.000Z</time>
      </trkpt>
      <trkpt lat="42.7068" lon="1.26943">
        <ele>2406</ele>
        <time>2023-07-25T07:13:45.000Z</time>
      </trkpt>
      <trkpt lat="42.7068" lon="1.26939">
        <ele>2405.1999511719</ele>
        <time>2023-07-25T07:13:48.000Z</time>
      </trkpt>
      <trkpt lat="42.7068" lon="1.26931">
        <ele>2404.1999511719</ele>
        <time>2023-07-25T07:13:53.000Z</time>
      </trkpt>
      <trkpt lat="42.7068" lon="1.2693">
        <ele>2403.8000488281</ele>
        <time>2023-07-25T07:13:54.000Z</time>
      </trkpt>
      <trkpt lat="42.7068" lon="1.26928">
        <ele>2403</ele>
        <time>2023-07-25T07:13:57.000Z</time>
      </trkpt>
      <trkpt lat="42.7068" lon="1.26925">
        <ele>2402.3999023438</ele>
        <time>2023-07-25T07:14:00.000Z</time>
      </trkpt>
      <trkpt lat="42.7068" lon="1.26922">
        <ele>2402</ele>
        <time>2023-07-25T07:14:02.000Z</time>
      </trkpt>
      <trkpt lat="42.70681" lon="1.26913">
        <ele>2400.8000488281</ele>
        <time>2023-07-25T07:14:08.000Z</time>
      </trkpt>
      <trkpt lat="42.70684" lon="1.26909">
        <ele>2399.8000488281</ele>
        <time>2023-07-25T07:14:15.000Z</time>
      </trkpt>
      <trkpt lat="42.70684" lon="1.26909">
        <ele>2399.8000488281</ele>
        <time>2023-07-25T07:14:16.000Z</time>
      </trkpt>
      <trkpt lat="42.70685" lon="1.26911">
        <ele>2399.8000488281</ele>
        <time>2023-07-25T07:14:26.000Z</time>
      </trkpt>
      <trkpt lat="42.70681" lon="1.26908">
        <ele>2399.6000976562</ele>
        <time>2023-07-25T07:14:33.000Z</time>
      </trkpt>
      <trkpt lat="42.70682" lon="1.26907">
        <ele>2399.6000976562</ele>
        <time>2023-07-25T07:14:41.000Z</time>
      </trkpt>
      <trkpt lat="42.70682" lon="1.26904">
        <ele>2399.6000976562</ele>
        <time>2023-07-25T07:14:49.000Z</time>
      </trkpt>
      <trkpt lat="42.70681" lon="1.26906">
        <ele>2399.3999023438</ele>
        <time>2023-07-25T07:14:58.000Z</time>
      </trkpt>
      <trkpt lat="42.70682" lon="1.26909">
        <ele>2399.6000976562</ele>
        <time>2023-07-25T07:15:05.000Z</time>
      </trkpt>
      <trkpt lat="42.70682" lon="1.26904">
        <ele>2399.8000488281</ele>
        <time>2023-07-25T07:15:12.000Z</time>
      </trkpt>
      <trkpt lat="42.7068" lon="1.26904">
        <ele>2399.8000488281</ele>
        <time>2023-07-25T07:15:21.000Z</time>
      </trkpt>
      <trkpt lat="42.70679" lon="1.26902">
        <ele>2399.8000488281</ele>
        <time>2023-07-25T07:15:29.000Z</time>
      </trkpt>
      <trkpt lat="42.70679" lon="1.26907">
        <ele>2400</ele>
        <time>2023-07-25T07:15:37.000Z</time>
      </trkpt>
      <trkpt lat="42.7068" lon="1.26903">
        <ele>2399.6000976562</ele>
        <time>2023-07-25T07:15:42.000Z</time>
      </trkpt>
      <trkpt lat="42.70681" lon="1.26894">
        <ele>2399</ele>
        <time>2023-07-25T07:15:48.000Z</time>
      </trkpt>
      <trkpt lat="42.70681" lon="1.26893">
        <ele>2398.8000488281</ele>
        <time>2023-07-25T07:15:49.000Z</time>
      </trkpt>
      <trkpt lat="42.70677" lon="1.26887">
        <ele>2398.1999511719</ele>
        <time>2023-07-25T07:15:55.000Z</time>
      </trkpt>
      <trkpt lat="42.70677" lon="1.26885">
        <ele>2397.6000976562</ele>
        <time>2023-07-25T07:15:59.000Z</time>
      </trkpt>
      <trkpt lat="42.70677" lon="1.26882">
        <ele>2397.3999023438</ele>
        <time>2023-07-25T07:16:03.000Z</time>
      </trkpt>
      <trkpt lat="42.70675" lon="1.26884">
        <ele>2397.3999023438</ele>
        <time>2023-07-25T07:16:11.000Z</time>
      </trkpt>
      <trkpt lat="42.70675" lon="1.26884">
        <ele>2396.8000488281</ele>
        <time>2023-07-25T07:16:20.000Z</time>
      </trkpt>
      <trkpt lat="42.70675" lon="1.2688">
        <ele>2396.3999023438</ele>
        <time>2023-07-25T07:16:26.000Z</time>
      </trkpt>
      <trkpt lat="42.70675" lon="1.26878">
        <ele>2396.1999511719</ele>
        <time>2023-07-25T07:16:28.000Z</time>
      </trkpt>
      <trkpt lat="42.70675" lon="1.26871">
        <ele>2395.3999023438</ele>
        <time>2023-07-25T07:16:33.000Z</time>
      </trkpt>
      <trkpt lat="42.70675" lon="1.2687">
        <ele>2394.8000488281</ele>
        <time>2023-07-25T07:16:36.000Z</time>
      </trkpt>
      <trkpt lat="42.70674" lon="1.26868">
        <ele>2394.3999023438</ele>
        <time>2023-07-25T07:16:38.000Z</time>
      </trkpt>
      <trkpt lat="42.70674" lon="1.26862">
        <ele>2393.6000976562</ele>
        <time>2023-07-25T07:16:42.000Z</time>
      </trkpt>
      <trkpt lat="42.70674" lon="1.26861">
        <ele>2393.1999511719</ele>
        <time>2023-07-25T07:16:44.000Z</time>
      </trkpt>
      <trkpt lat="42.70674" lon="1.26857">
        <ele>2392.3999023438</ele>
        <time>2023-07-25T07:16:48.000Z</time>
      </trkpt>
      <trkpt lat="42.70674" lon="1.26856">
        <ele>2392</ele>
        <time>2023-07-25T07:16:50.000Z</time>
      </trkpt>
      <trkpt lat="42.70674" lon="1.26852">
        <ele>2391.1999511719</ele>
        <time>2023-07-25T07:16:55.000Z</time>
      </trkpt>
      <trkpt lat="42.70674" lon="1.26849">
        <ele>2391</ele>
        <time>2023-07-25T07:16:57.000Z</time>
      </trkpt>
      <trkpt lat="42.70673" lon="1.26845">
        <ele>2390.1999511719</ele>
        <time>2023-07-25T07:17:02.000Z</time>
      </trkpt>
      <trkpt lat="42.70672" lon="1.26843">
        <ele>2390</ele>
        <time>2023-07-25T07:17:03.000Z</time>
      </trkpt>
      <trkpt lat="42.7067" lon="1.26838">
        <ele>2389.1999511719</ele>
        <time>2023-07-25T07:17:09.000Z</time>
      </trkpt>
      <trkpt lat="42.7067" lon="1.26838">
        <ele>2389</ele>
        <time>2023-07-25T07:17:10.000Z</time>
      </trkpt>
      <trkpt lat="42.70672" lon="1.26836">
        <ele>2388.3999023438</ele>
        <time>2023-07-25T07:17:14.000Z</time>
      </trkpt>
      <trkpt lat="42.70674" lon="1.26835">
        <ele>2388</ele>
        <time>2023-07-25T07:17:19.000Z</time>
      </trkpt>
      <trkpt lat="42.70677" lon="1.26832">
        <ele>2387.1999511719</ele>
        <time>2023-07-25T07:17:24.000Z</time>
      </trkpt>
      <trkpt lat="42.70678" lon="1.26831">
        <ele>2386.8000488281</ele>
        <time>2023-07-25T07:17:26.000Z</time>
      </trkpt>
      <trkpt lat="42.70679" lon="1.26826">
        <ele>2386.1999511719</ele>
        <time>2023-07-25T07:17:34.000Z</time>
      </trkpt>
      <trkpt lat="42.7068" lon="1.26824">
        <ele>2385.8000488281</ele>
        <time>2023-07-25T07:17:36.000Z</time>
      </trkpt>
      <trkpt lat="42.70681" lon="1.26821">
        <ele>2385.1999511719</ele>
        <time>2023-07-25T07:17:40.000Z</time>
      </trkpt>
      <trkpt lat="42.70681" lon="1.26816">
        <ele>2384.8000488281</ele>
        <time>2023-07-25T07:17:44.000Z</time>
      </trkpt>
      <trkpt lat="42.70681" lon="1.26812">
        <ele>2384.3999023438</ele>
        <time>2023-07-25T07:17:47.000Z</time>
      </trkpt>
      <trkpt lat="42.70681" lon="1.26808">
        <ele>2383.8000488281</ele>
        <time>2023-07-25T07:17:51.000Z</time>
      </trkpt>
      <trkpt lat="42.70681" lon="1.26803">
        <ele>2383.1999511719</ele>
        <time>2023-07-25T07:17:54.000Z</time>
      </trkpt>
      <trkpt lat="42.70681" lon="1.26799">
        <ele>2382.8000488281</ele>
        <time>2023-07-25T07:17:58.000Z</time>
      </trkpt>
      <trkpt lat="42.70681" lon="1.26798">
        <ele>2382.6000976562</ele>
        <time>2023-07-25T07:17:59.000Z</time>
      </trkpt>
      <trkpt lat="42.7068" lon="1.26796">
        <ele>2381.6000976562</ele>
        <time>2023-07-25T07:18:03.000Z</time>
      </trkpt>
      <trkpt lat="42.70681" lon="1.26793">
        <ele>2380.8000488281</ele>
        <time>2023-07-25T07:18:07.000Z</time>
      </trkpt>
      <trkpt lat="42.7068" lon="1.26792">
        <ele>2380.6000976562</ele>
        <time>2023-07-25T07:18:09.000Z</time>
      </trkpt>
      <trkpt lat="42.70679" lon="1.26791">
        <ele>2380</ele>
        <time>2023-07-25T07:18:12.000Z</time>
      </trkpt>
      <trkpt lat="42.70678" lon="1.2679">
        <ele>2379.6000976562</ele>
        <time>2023-07-25T07:18:14.000Z</time>
      </trkpt>
      <trkpt lat="42.70679" lon="1.26791">
        <ele>2379.6000976562</ele>
        <time>2023-07-25T07:18:15.000Z</time>
      </trkpt>
      <trkpt lat="42.70677" lon="1.26787">
        <ele>2379</ele>
        <time>2023-07-25T07:18:21.000Z</time>
      </trkpt>
      <trkpt lat="42.70678" lon="1.26787">
        <ele>2379</ele>
        <time>2023-07-25T07:18:27.000Z</time>
      </trkpt>
      <trkpt lat="42.70678" lon="1.26789">
        <ele>2378.8000488281</ele>
        <time>2023-07-25T07:18:37.000Z</time>
      </trkpt>
      <trkpt lat="42.70678" lon="1.26788">
        <ele>2378.8000488281</ele>
        <time>2023-07-25T07:18:46.000Z</time>
      </trkpt>
      <trkpt lat="42.70677" lon="1.26785">
        <ele>2378.3999023438</ele>
        <time>2023-07-25T07:18:49.000Z</time>
      </trkpt>
      <trkpt lat="42.70679" lon="1.26786">
        <ele>2378.3999023438</ele>
        <time>2023-07-25T07:18:56.000Z</time>
      </trkpt>
      <trkpt lat="42.70677" lon="1.26784">
        <ele>2378.3999023438</ele>
        <time>2023-07-25T07:19:03.000Z</time>
      </trkpt>
      <trkpt lat="42.70675" lon="1.26785">
        <ele>2378.1999511719</ele>
        <time>2023-07-25T07:19:11.000Z</time>
      </trkpt>
      <trkpt lat="42.70676" lon="1.26781">
        <ele>2378.1999511719</ele>
        <time>2023-07-25T07:19:18.000Z</time>
      </trkpt>
      <trkpt lat="42.70678" lon="1.26783">
        <ele>2378</ele>
        <time>2023-07-25T07:19:24.000Z</time>
      </trkpt>
      <trkpt lat="42.70678" lon="1.26779">
        <ele>2377.3999023438</ele>
        <time>2023-07-25T07:19:29.000Z</time>
      </trkpt>
      <trkpt lat="42.70678" lon="1.26777">
        <ele>2377.1999511719</ele>
        <time>2023-07-25T07:19:31.000Z</time>
      </trkpt>
      <trkpt lat="42.7068" lon="1.26775">
        <ele>2376.6000976562</ele>
        <time>2023-07-25T07:19:37.000Z</time>
      </trkpt>
      <trkpt lat="42.70681" lon="1.26775">
        <ele>2376.3999023438</ele>
        <time>2023-07-25T07:19:40.000Z</time>
      </trkpt>
      <trkpt lat="42.70681" lon="1.26772">
        <ele>2376</ele>
        <time>2023-07-25T07:19:45.000Z</time>
      </trkpt>
      <trkpt lat="42.70681" lon="1.26772">
        <ele>2375.1999511719</ele>
        <time>2023-07-25T07:19:51.000Z</time>
      </trkpt>
      <trkpt lat="42.70682" lon="1.26772">
        <ele>2375.1999511719</ele>
        <time>2023-07-25T07:19:52.000Z</time>
      </trkpt>
      <trkpt lat="42.70681" lon="1.26767">
        <ele>2375</ele>
        <time>2023-07-25T07:19:59.000Z</time>
      </trkpt>
      <trkpt lat="42.70679" lon="1.26767">
        <ele>2375.1999511719</ele>
        <time>2023-07-25T07:20:07.000Z</time>
      </trkpt>
      <trkpt lat="42.70681" lon="1.26771">
        <ele>2375.1999511719</ele>
        <time>2023-07-25T07:20:16.000Z</time>
      </trkpt>
      <trkpt lat="42.70682" lon="1.26777">
        <ele>2375.1999511719</ele>
        <time>2023-07-25T07:20:25.000Z</time>
      </trkpt>
      <trkpt lat="42.70683" lon="1.26782">
        <ele>2376</ele>
        <time>2023-07-25T07:20:32.000Z</time>
      </trkpt>
      <trkpt lat="42.70684" lon="1.26784">
        <ele>2376.3999023438</ele>
        <time>2023-07-25T07:20:36.000Z</time>
      </trkpt>
      <trkpt lat="42.70682" lon="1.26785">
        <ele>2376.8000488281</ele>
        <time>2023-07-25T07:20:41.000Z</time>
      </trkpt>
      <trkpt lat="42.7068" lon="1.26787">
        <ele>2377.3999023438</ele>
        <time>2023-07-25T07:20:44.000Z</time>
      </trkpt>
      <trkpt lat="42.70677" lon="1.26788">
        <ele>2378.3999023438</ele>
        <time>2023-07-25T07:20:48.000Z</time>
      </trkpt>
      <trkpt lat="42.70677" lon="1.26788">
        <ele>2378.3999023438</ele>
        <time>2023-07-25T07:20:49.000Z</time>
      </trkpt>
      <trkpt lat="42.70672" lon="1.26787">
        <ele>2379.1999511719</ele>
        <time>2023-07-25T07:20:55.000Z</time>
      </trkpt>
      <trkpt lat="42.70671" lon="1.26786">
        <ele>2379.6000976562</ele>
        <time>2023-07-25T07:20:58.000Z</time>
      </trkpt>
      <trkpt lat="42.7067" lon="1.26785">
        <ele>2380.1999511719</ele>
        <time>2023-07-25T07:21:01.000Z</time>
      </trkpt>
      <trkpt lat="42.70669" lon="1.26782">
        <ele>2380.3999023438</ele>
        <time>2023-07-25T07:21:09.000Z</time>
      </trkpt>
      <trkpt lat="42.70671" lon="1.26773">
        <ele>2380.3999023438</ele>
        <time>2023-07-25T07:21:18.000Z</time>
      </trkpt>
      <trkpt lat="42.70671" lon="1.2677">
        <ele>2380.1999511719</ele>
        <time>2023-07-25T07:21:23.000Z</time>
      </trkpt>
      <trkpt lat="42.70671" lon="1.26763">
        <ele>2380.3999023438</ele>
        <time>2023-07-25T07:21:30.000Z</time>
      </trkpt>
      <trkpt lat="42.70669" lon="1.2676">
        <ele>2380.6000976562</ele>
        <time>2023-07-25T07:21:32.000Z</time>
      </trkpt>
      <trkpt lat="42.70667" lon="1.26759">
        <ele>2381.3999023438</ele>
        <time>2023-07-25T07:21:38.000Z</time>
      </trkpt>
      <trkpt lat="42.70666" lon="1.26757">
        <ele>2381.8000488281</ele>
        <time>2023-07-25T07:21:40.000Z</time>
      </trkpt>
      <trkpt lat="42.70664" lon="1.26753">
        <ele>2382.8000488281</ele>
        <time>2023-07-25T07:21:44.000Z</time>
      </trkpt>
      <trkpt lat="42.70663" lon="1.26752">
        <ele>2383</ele>
        <time>2023-07-25T07:21:45.000Z</time>
      </trkpt>
      <trkpt lat="42.70661" lon="1.26748">
        <ele>2384</ele>
        <time>2023-07-25T07:21:51.000Z</time>
      </trkpt>
      <trkpt lat="42.7066" lon="1.26746">
        <ele>2384.1999511719</ele>
        <time>2023-07-25T07:21:53.000Z</time>
      </trkpt>
      <trkpt lat="42.70659" lon="1.26742">
        <ele>2385</ele>
        <time>2023-07-25T07:21:58.000Z</time>
      </trkpt>
      <trkpt lat="42.7066" lon="1.2674">
        <ele>2385</ele>
        <time>2023-07-25T07:22:00.000Z</time>
      </trkpt>
      <trkpt lat="42.70661" lon="1.26734">
        <ele>2386</ele>
        <time>2023-07-25T07:22:09.000Z</time>
      </trkpt>
      <trkpt lat="42.70661" lon="1.26734">
        <ele>2386.1999511719</ele>
        <time>2023-07-25T07:22:10.000Z</time>
      </trkpt>
      <trkpt lat="42.70662" lon="1.26729">
        <ele>2386.3999023438</ele>
        <time>2023-07-25T07:22:16.000Z</time>
      </trkpt>
      <trkpt lat="42.70662" lon="1.2672">
        <ele>2386.3999023438</ele>
        <time>2023-07-25T07:22:25.000Z</time>
      </trkpt>
      <trkpt lat="42.70664" lon="1.26717">
        <ele>2385.6000976562</ele>
        <time>2023-07-25T07:22:32.000Z</time>
      </trkpt>
      <trkpt lat="42.70666" lon="1.26719">
        <ele>2385.8000488281</ele>
        <time>2023-07-25T07:22:37.000Z</time>
      </trkpt>
      <trkpt lat="42.70666" lon="1.26718">
        <ele>2386</ele>
        <time>2023-07-25T07:22:45.000Z</time>
      </trkpt>
      <trkpt lat="42.70667" lon="1.26718">
        <ele>2386.1999511719</ele>
        <time>2023-07-25T07:22:52.000Z</time>
      </trkpt>
      <trkpt lat="42.70667" lon="1.26716">
        <ele>2386.1999511719</ele>
        <time>2023-07-25T07:22:58.000Z</time>
      </trkpt>
      <trkpt lat="42.70664" lon="1.26715">
        <ele>2386.1999511719</ele>
        <time>2023-07-25T07:23:05.000Z</time>
      </trkpt>
      <trkpt lat="42.7066" lon="1.26716">
        <ele>2386.1999511719</ele>
        <time>2023-07-25T07:23:14.000Z</time>
      </trkpt>
      <trkpt lat="42.70661" lon="1.26719">
        <ele>2386</ele>
        <time>2023-07-25T07:23:22.000Z</time>
      </trkpt>
      <trkpt lat="42.70664" lon="1.26719">
        <ele>2386</ele>
        <time>2023-07-25T07:23:30.000Z</time>
      </trkpt>
      <trkpt lat="42.70661" lon="1.26717">
        <ele>2386</ele>
        <time>2023-07-25T07:23:38.000Z</time>
      </trkpt>
      <trkpt lat="42.70663" lon="1.2672">
        <ele>2386</ele>
        <time>2023-07-25T07:23:47.000Z</time>
      </trkpt>
      <trkpt lat="42.70665" lon="1.26718">
        <ele>2386</ele>
        <time>2023-07-25T07:23:55.000Z</time>
      </trkpt>
      <trkpt lat="42.70666" lon="1.26713">
        <ele>2385.3999023438</ele>
        <time>2023-07-25T07:24:03.000Z</time>
      </trkpt>
      <trkpt lat="42.70666" lon="1.26711">
        <ele>2385</ele>
        <time>2023-07-25T07:24:06.000Z</time>
      </trkpt>
      <trkpt lat="42.70666" lon="1.26708">
        <ele>2384.3999023438</ele>
        <time>2023-07-25T07:24:10.000Z</time>
      </trkpt>
      <trkpt lat="42.70666" lon="1.26706">
        <ele>2383.8000488281</ele>
        <time>2023-07-25T07:24:12.000Z</time>
      </trkpt>
      <trkpt lat="42.70665" lon="1.26701">
        <ele>2383.1999511719</ele>
        <time>2023-07-25T07:24:16.000Z</time>
      </trkpt>
      <trkpt lat="42.70665" lon="1.26698">
        <ele>2382.8000488281</ele>
        <time>2023-07-25T07:24:19.000Z</time>
      </trkpt>
      <trkpt lat="42.70665" lon="1.26697">
        <ele>2381.8000488281</ele>
        <time>2023-07-25T07:24:23.000Z</time>
      </trkpt>
      <trkpt lat="42.70665" lon="1.26696">
        <ele>2381.3999023438</ele>
        <time>2023-07-25T07:24:24.000Z</time>
      </trkpt>
      <trkpt lat="42.70665" lon="1.26694">
        <ele>2380.6000976562</ele>
        <time>2023-07-25T07:24:28.000Z</time>
      </trkpt>
      <trkpt lat="42.70665" lon="1.26692">
        <ele>2380.1999511719</ele>
        <time>2023-07-25T07:24:31.000Z</time>
      </trkpt>
      <trkpt lat="42.70664" lon="1.2669">
        <ele>2379.6000976562</ele>
        <time>2023-07-25T07:24:33.000Z</time>
      </trkpt>
      <trkpt lat="42.70663" lon="1.26684">
        <ele>2378.8000488281</ele>
        <time>2023-07-25T07:24:40.000Z</time>
      </trkpt>
      <trkpt lat="42.70663" lon="1.26683">
        <ele>2378.3999023438</ele>
        <time>2023-07-25T07:24:41.000Z</time>
      </trkpt>
      <trkpt lat="42.70663" lon="1.26678">
        <ele>2377.6000976562</ele>
        <time>2023-07-25T07:24:46.000Z</time>
      </trkpt>
      <trkpt lat="42.70663" lon="1.26677">
        <ele>2377.1999511719</ele>
        <time>2023-07-25T07:24:48.000Z</time>
      </trkpt>
      <trkpt lat="42.70662" lon="1.26673">
        <ele>2376.8000488281</ele>
        <time>2023-07-25T07:24:54.000Z</time>
      </trkpt>
      <trkpt lat="42.70663" lon="1.26664">
        <ele>2376.3999023438</ele>
        <time>2023-07-25T07:25:02.000Z</time>
      </trkpt>
      <trkpt lat="42.70664" lon="1.26662">
        <ele>2376.1999511719</ele>
        <time>2023-07-25T07:25:05.000Z</time>
      </trkpt>
      <trkpt lat="42.70664" lon="1.26656">
        <ele>2375.1999511719</ele>
        <time>2023-07-25T07:25:10.000Z</time>
      </trkpt>
      <trkpt lat="42.70664" lon="1.26654">
        <ele>2374</ele>
        <time>2023-07-25T07:25:15.000Z</time>
      </trkpt>
      <trkpt lat="42.70665" lon="1.26652">
        <ele>2373.8000488281</ele>
        <time>2023-07-25T07:25:17.000Z</time>
      </trkpt>
      <trkpt lat="42.70665" lon="1.26647">
        <ele>2373</ele>
        <time>2023-07-25T07:25:22.000Z</time>
      </trkpt>
      <trkpt lat="42.70665" lon="1.26646">
        <ele>2372.8000488281</ele>
        <time>2023-07-25T07:25:23.000Z</time>
      </trkpt>
      <trkpt lat="42.70665" lon="1.26643">
        <ele>2371.8000488281</ele>
        <time>2023-07-25T07:25:27.000Z</time>
      </trkpt>
      <trkpt lat="42.70665" lon="1.2664">
        <ele>2371.1999511719</ele>
        <time>2023-07-25T07:25:29.000Z</time>
      </trkpt>
      <trkpt lat="42.70665" lon="1.26637">
        <ele>2370.8000488281</ele>
        <time>2023-07-25T07:25:31.000Z</time>
      </trkpt>
      <trkpt lat="42.70666" lon="1.26634">
        <ele>2371</ele>
        <time>2023-07-25T07:25:37.000Z</time>
      </trkpt>
      <trkpt lat="42.70668" lon="1.26629">
        <ele>2370.1999511719</ele>
        <time>2023-07-25T07:25:43.000Z</time>
      </trkpt>
      <trkpt lat="42.70668" lon="1.2663">
        <ele>2369.6000976562</ele>
        <time>2023-07-25T07:25:45.000Z</time>
      </trkpt>
      <trkpt lat="42.70669" lon="1.26625">
        <ele>2369</ele>
        <time>2023-07-25T07:25:50.000Z</time>
      </trkpt>
      <trkpt lat="42.70668" lon="1.26621">
        <ele>2368.6000976562</ele>
        <time>2023-07-25T07:25:56.000Z</time>
      </trkpt>
      <trkpt lat="42.70668" lon="1.2662">
        <ele>2368.6000976562</ele>
        <time>2023-07-25T07:25:57.000Z</time>
      </trkpt>
      <trkpt lat="42.70667" lon="1.26617">
        <ele>2367.8000488281</ele>
        <time>2023-07-25T07:26:02.000Z</time>
      </trkpt>
      <trkpt lat="42.70667" lon="1.26616">
        <ele>2367.3999023438</ele>
        <time>2023-07-25T07:26:05.000Z</time>
      </trkpt>
      <trkpt lat="42.70667" lon="1.26614">
        <ele>2366.6000976562</ele>
        <time>2023-07-25T07:26:08.000Z</time>
      </trkpt>
      <trkpt lat="42.70667" lon="1.26613">
        <ele>2366.3999023438</ele>
        <time>2023-07-25T07:26:10.000Z</time>
      </trkpt>
      <trkpt lat="42.70665" lon="1.26608">
        <ele>2365.3999023438</ele>
        <time>2023-07-25T07:26:15.000Z</time>
      </trkpt>
      <trkpt lat="42.70664" lon="1.26611">
        <ele>2365.3999023438</ele>
        <time>2023-07-25T07:26:21.000Z</time>
      </trkpt>
      <trkpt lat="42.70663" lon="1.26609">
        <ele>2365.3999023438</ele>
        <time>2023-07-25T07:26:29.000Z</time>
      </trkpt>
      <trkpt lat="42.70663" lon="1.2661">
        <ele>2365.1999511719</ele>
        <time>2023-07-25T07:26:31.000Z</time>
      </trkpt>
      <trkpt lat="42.70663" lon="1.26611">
        <ele>2365.3999023438</ele>
        <time>2023-07-25T07:26:36.000Z</time>
      </trkpt>
      <trkpt lat="42.70667" lon="1.26607">
        <ele>2365.3999023438</ele>
        <time>2023-07-25T07:26:44.000Z</time>
      </trkpt>
      <trkpt lat="42.70663" lon="1.26606">
        <ele>2365.6000976562</ele>
        <time>2023-07-25T07:26:52.000Z</time>
      </trkpt>
      <trkpt lat="42.70664" lon="1.26604">
        <ele>2365.6000976562</ele>
        <time>2023-07-25T07:26:55.000Z</time>
      </trkpt>
      <trkpt lat="42.70661" lon="1.26602">
        <ele>2365.3999023438</ele>
        <time>2023-07-25T07:26:58.000Z</time>
      </trkpt>
      <trkpt lat="42.70657" lon="1.266">
        <ele>2364.1999511719</ele>
        <time>2023-07-25T07:27:03.000Z</time>
      </trkpt>
      <trkpt lat="42.70657" lon="1.266">
        <ele>2364.1999511719</ele>
        <time>2023-07-25T07:27:04.000Z</time>
      </trkpt>
      <trkpt lat="42.70655" lon="1.26598">
        <ele>2363.8000488281</ele>
        <time>2023-07-25T07:27:10.000Z</time>
      </trkpt>
      <trkpt lat="42.70653" lon="1.26597">
        <ele>2363.1999511719</ele>
        <time>2023-07-25T07:27:13.000Z</time>
      </trkpt>
      <trkpt lat="42.70646" lon="1.26597">
        <ele>2362</ele>
        <time>2023-07-25T07:27:19.000Z</time>
      </trkpt>
      <trkpt lat="42.70646" lon="1.26595">
        <ele>2361.8000488281</ele>
        <time>2023-07-25T07:27:25.000Z</time>
      </trkpt>
      <trkpt lat="42.70645" lon="1.26592">
        <ele>2361</ele>
        <time>2023-07-25T07:27:32.000Z</time>
      </trkpt>
      <trkpt lat="42.70643" lon="1.26589">
        <ele>2359.8000488281</ele>
        <time>2023-07-25T07:27:37.000Z</time>
      </trkpt>
      <trkpt lat="42.70642" lon="1.26589">
        <ele>2359.3999023438</ele>
        <time>2023-07-25T07:27:39.000Z</time>
      </trkpt>
      <trkpt lat="42.70641" lon="1.26585">
        <ele>2358.6000976562</ele>
        <time>2023-07-25T07:27:44.000Z</time>
      </trkpt>
      <trkpt lat="42.70641" lon="1.26584">
        <ele>2358</ele>
        <time>2023-07-25T07:27:46.000Z</time>
      </trkpt>
      <trkpt lat="42.70639" lon="1.2658">
        <ele>2357.6000976562</ele>
        <time>2023-07-25T07:27:48.000Z</time>
      </trkpt>
      <trkpt lat="42.70637" lon="1.26578">
        <ele>2356.8000488281</ele>
        <time>2023-07-25T07:27:52.000Z</time>
      </trkpt>
      <trkpt lat="42.70635" lon="1.26576">
        <ele>2356.3999023438</ele>
        <time>2023-07-25T07:27:54.000Z</time>
      </trkpt>
      <trkpt lat="42.7063" lon="1.26571">
        <ele>2355.3999023438</ele>
        <time>2023-07-25T07:27:59.000Z</time>
      </trkpt>
      <trkpt lat="42.70629" lon="1.2657">
        <ele>2355.1999511719</ele>
        <time>2023-07-25T07:28:00.000Z</time>
      </trkpt>
      <trkpt lat="42.70624" lon="1.26565">
        <ele>2354.3999023438</ele>
        <time>2023-07-25T07:28:07.000Z</time>
      </trkpt>
      <trkpt lat="42.70621" lon="1.26563">
        <ele>2354</ele>
        <time>2023-07-25T07:28:10.000Z</time>
      </trkpt>
      <trkpt lat="42.70619" lon="1.26562">
        <ele>2353.1999511719</ele>
        <time>2023-07-25T07:28:14.000Z</time>
      </trkpt>
      <trkpt lat="42.70618" lon="1.26562">
        <ele>2353</ele>
        <time>2023-07-25T07:28:15.000Z</time>
      </trkpt>
      <trkpt lat="42.70616" lon="1.26562">
        <ele>2352</ele>
        <time>2023-07-25T07:28:20.000Z</time>
      </trkpt>
      <trkpt lat="42.70614" lon="1.26563">
        <ele>2351.6000976562</ele>
        <time>2023-07-25T07:28:23.000Z</time>
      </trkpt>
      <trkpt lat="42.70613" lon="1.26564">
        <ele>2350.8000488281</ele>
        <time>2023-07-25T07:28:27.000Z</time>
      </trkpt>
      <trkpt lat="42.70611" lon="1.26565">
        <ele>2349.8000488281</ele>
        <time>2023-07-25T07:28:31.000Z</time>
      </trkpt>
      <trkpt lat="42.7061" lon="1.26565">
        <ele>2349.3999023438</ele>
        <time>2023-07-25T07:28:32.000Z</time>
      </trkpt>
      <trkpt lat="42.70608" lon="1.26568">
        <ele>2348.3999023438</ele>
        <time>2023-07-25T07:28:36.000Z</time>
      </trkpt>
      <trkpt lat="42.70609" lon="1.26568">
        <ele>2347.1999511719</ele>
        <time>2023-07-25T07:28:39.000Z</time>
      </trkpt>
      <trkpt lat="42.70609" lon="1.26568">
        <ele>2346.8000488281</ele>
        <time>2023-07-25T07:28:40.000Z</time>
      </trkpt>
      <trkpt lat="42.70608" lon="1.26568">
        <ele>2346.8000488281</ele>
        <time>2023-07-25T07:28:46.000Z</time>
      </trkpt>
      <trkpt lat="42.70609" lon="1.26567">
        <ele>2346.6000976562</ele>
        <time>2023-07-25T07:28:55.000Z</time>
      </trkpt>
      <trkpt lat="42.70611" lon="1.26569">
        <ele>2346.3999023438</ele>
        <time>2023-07-25T07:29:07.000Z</time>
      </trkpt>
      <trkpt lat="42.70611" lon="1.26567">
        <ele>2346.3999023438</ele>
        <time>2023-07-25T07:29:15.000Z</time>
      </trkpt>
      <trkpt lat="42.70609" lon="1.26565">
        <ele>2346.1999511719</ele>
        <time>2023-07-25T07:29:23.000Z</time>
      </trkpt>
      <trkpt lat="42.70608" lon="1.26574">
        <ele>2346.3999023438</ele>
        <time>2023-07-25T07:29:31.000Z</time>
      </trkpt>
      <trkpt lat="42.70607" lon="1.26581">
        <ele>2346.1999511719</ele>
        <time>2023-07-25T07:29:36.000Z</time>
      </trkpt>
      <trkpt lat="42.70607" lon="1.26581">
        <ele>2346</ele>
        <time>2023-07-25T07:29:38.000Z</time>
      </trkpt>
      <trkpt lat="42.70607" lon="1.26579">
        <ele>2345</ele>
        <time>2023-07-25T07:29:43.000Z</time>
      </trkpt>
      <trkpt lat="42.70607" lon="1.26578">
        <ele>2345</ele>
        <time>2023-07-25T07:29:44.000Z</time>
      </trkpt>
      <trkpt lat="42.70607" lon="1.26579">
        <ele>2344.3999023438</ele>
        <time>2023-07-25T07:29:53.000Z</time>
      </trkpt>
      <trkpt lat="42.70607" lon="1.26578">
        <ele>2344</ele>
        <time>2023-07-25T07:29:55.000Z</time>
      </trkpt>
      <trkpt lat="42.70607" lon="1.26577">
        <ele>2342.8000488281</ele>
        <time>2023-07-25T07:30:03.000Z</time>
      </trkpt>
      <trkpt lat="42.70605" lon="1.26574">
        <ele>2342.1999511719</ele>
        <time>2023-07-25T07:30:10.000Z</time>
      </trkpt>
      <trkpt lat="42.70603" lon="1.26572">
        <ele>2341.8000488281</ele>
        <time>2023-07-25T07:30:15.000Z</time>
      </trkpt>
      <trkpt lat="42.70603" lon="1.26571">
        <ele>2341.6000976562</ele>
        <time>2023-07-25T07:30:16.000Z</time>
      </trkpt>
      <trkpt lat="42.70602" lon="1.26572">
        <ele>2340.6000976562</ele>
        <time>2023-07-25T07:30:23.000Z</time>
      </trkpt>
      <trkpt lat="42.70602" lon="1.26574">
        <ele>2340.3999023438</ele>
        <time>2023-07-25T07:30:24.000Z</time>
      </trkpt>
      <trkpt lat="42.70602" lon="1.26579">
        <ele>2339.8000488281</ele>
        <time>2023-07-25T07:30:31.000Z</time>
      </trkpt>
      <trkpt lat="42.70601" lon="1.26581">
        <ele>2339.6000976562</ele>
        <time>2023-07-25T07:30:33.000Z</time>
      </trkpt>
      <trkpt lat="42.70598" lon="1.26586">
        <ele>2339.6000976562</ele>
        <time>2023-07-25T07:30:39.000Z</time>
      </trkpt>
      <trkpt lat="42.70594" lon="1.26588">
        <ele>2338.6000976562</ele>
        <time>2023-07-25T07:30:46.000Z</time>
      </trkpt>
      <trkpt lat="42.70594" lon="1.26589">
        <ele>2338.6000976562</ele>
        <time>2023-07-25T07:30:47.000Z</time>
      </trkpt>
      <trkpt lat="42.70592" lon="1.26592">
        <ele>2337.3999023438</ele>
        <time>2023-07-25T07:30:52.000Z</time>
      </trkpt>
      <trkpt lat="42.70591" lon="1.26593">
        <ele>2337.1999511719</ele>
        <time>2023-07-25T07:30:54.000Z</time>
      </trkpt>
      <trkpt lat="42.70588" lon="1.26594">
        <ele>2336.3999023438</ele>
        <time>2023-07-25T07:30:59.000Z</time>
      </trkpt>
      <trkpt lat="42.70586" lon="1.26597">
        <ele>2335.6000976562</ele>
        <time>2023-07-25T07:31:02.000Z</time>
      </trkpt>
      <trkpt lat="42.70584" lon="1.26599">
        <ele>2335.1999511719</ele>
        <time>2023-07-25T07:31:04.000Z</time>
      </trkpt>
      <trkpt lat="42.7058" lon="1.26601">
        <ele>2334.1999511719</ele>
        <time>2023-07-25T07:31:10.000Z</time>
      </trkpt>
      <trkpt lat="42.70579" lon="1.26602">
        <ele>2334</ele>
        <time>2023-07-25T07:31:11.000Z</time>
      </trkpt>
      <trkpt lat="42.70574" lon="1.26601">
        <ele>2333</ele>
        <time>2023-07-25T07:31:17.000Z</time>
      </trkpt>
      <trkpt lat="42.70571" lon="1.26601">
        <ele>2332.1999511719</ele>
        <time>2023-07-25T07:31:20.000Z</time>
      </trkpt>
      <trkpt lat="42.70569" lon="1.26602">
        <ele>2332</ele>
        <time>2023-07-25T07:31:22.000Z</time>
      </trkpt>
      <trkpt lat="42.70567" lon="1.26605">
        <ele>2330.8000488281</ele>
        <time>2023-07-25T07:31:26.000Z</time>
      </trkpt>
      <trkpt lat="42.70567" lon="1.26605">
        <ele>2330.8000488281</ele>
        <time>2023-07-25T07:31:27.000Z</time>
      </trkpt>
      <trkpt lat="42.70564" lon="1.2661">
        <ele>2329.8000488281</ele>
        <time>2023-07-25T07:31:33.000Z</time>
      </trkpt>
      <trkpt lat="42.70564" lon="1.26611">
        <ele>2329.3999023438</ele>
        <time>2023-07-25T07:31:35.000Z</time>
      </trkpt>
      <trkpt lat="42.70563" lon="1.26611">
        <ele>2328.8000488281</ele>
        <time>2023-07-25T07:31:38.000Z</time>
      </trkpt>
      <trkpt lat="42.70561" lon="1.26611">
        <ele>2328.1999511719</ele>
        <time>2023-07-25T07:31:42.000Z</time>
      </trkpt>
      <trkpt lat="42.70558" lon="1.26611">
        <ele>2327.6000976562</ele>
        <time>2023-07-25T07:31:45.000Z</time>
      </trkpt>
      <trkpt lat="42.70554" lon="1.26613">
        <ele>2327</ele>
        <time>2023-07-25T07:31:50.000Z</time>
      </trkpt>
      <trkpt lat="42.70552" lon="1.26614">
        <ele>2326.3999023438</ele>
        <time>2023-07-25T07:31:52.000Z</time>
      </trkpt>
      <trkpt lat="42.70546" lon="1.26617">
        <ele>2325.6000976562</ele>
        <time>2023-07-25T07:31:59.000Z</time>
      </trkpt>
      <trkpt lat="42.70543" lon="1.26618">
        <ele>2325.1999511719</ele>
        <time>2023-07-25T07:32:01.000Z</time>
      </trkpt>
      <trkpt lat="42.70539" lon="1.26618">
        <ele>2324.6000976562</ele>
        <time>2023-07-25T07:32:06.000Z</time>
      </trkpt>
      <trkpt lat="42.70537" lon="1.26617">
        <ele>2324.1999511719</ele>
        <time>2023-07-25T07:32:10.000Z</time>
      </trkpt>
      <trkpt lat="42.70535" lon="1.26616">
        <ele>2323.1999511719</ele>
        <time>2023-07-25T07:32:15.000Z</time>
      </trkpt>
      <trkpt lat="42.70535" lon="1.26616">
        <ele>2323</ele>
        <time>2023-07-25T07:32:16.000Z</time>
      </trkpt>
      <trkpt lat="42.70528" lon="1.26616">
        <ele>2321.8000488281</ele>
        <time>2023-07-25T07:32:22.000Z</time>
      </trkpt>
      <trkpt lat="42.70527" lon="1.26616">
        <ele>2321.3999023438</ele>
        <time>2023-07-25T07:32:23.000Z</time>
      </trkpt>
      <trkpt lat="42.70524" lon="1.26616">
        <ele>2320.6000976562</ele>
        <time>2023-07-25T07:32:27.000Z</time>
      </trkpt>
      <trkpt lat="42.70521" lon="1.26615">
        <ele>2319.8000488281</ele>
        <time>2023-07-25T07:32:31.000Z</time>
      </trkpt>
      <trkpt lat="42.7052" lon="1.26615">
        <ele>2319.6000976562</ele>
        <time>2023-07-25T07:32:32.000Z</time>
      </trkpt>
      <trkpt lat="42.70518" lon="1.26614">
        <ele>2318.6000976562</ele>
        <time>2023-07-25T07:32:36.000Z</time>
      </trkpt>
      <trkpt lat="42.70516" lon="1.26614">
        <ele>2318.1999511719</ele>
        <time>2023-07-25T07:32:39.000Z</time>
      </trkpt>
      <trkpt lat="42.70514" lon="1.26616">
        <ele>2317.3999023438</ele>
        <time>2023-07-25T07:32:44.000Z</time>
      </trkpt>
      <trkpt lat="42.70513" lon="1.26616">
        <ele>2317.1999511719</ele>
        <time>2023-07-25T07:32:46.000Z</time>
      </trkpt>
      <trkpt lat="42.70508" lon="1.26616">
        <ele>2316.8000488281</ele>
        <time>2023-07-25T07:32:52.000Z</time>
      </trkpt>
      <trkpt lat="42.705" lon="1.26617">
        <ele>2316.6000976562</ele>
        <time>2023-07-25T07:32:59.000Z</time>
      </trkpt>
      <trkpt lat="42.70497" lon="1.26616">
        <ele>2316.1999511719</ele>
        <time>2023-07-25T07:33:04.000Z</time>
      </trkpt>
      <trkpt lat="42.70497" lon="1.26616">
        <ele>2316.1999511719</ele>
        <time>2023-07-25T07:33:05.000Z</time>
      </trkpt>
      <trkpt lat="42.70493" lon="1.26613">
        <ele>2315.8000488281</ele>
        <time>2023-07-25T07:33:11.000Z</time>
      </trkpt>
      <trkpt lat="42.70488" lon="1.26613">
        <ele>2315.8000488281</ele>
        <time>2023-07-25T07:33:17.000Z</time>
      </trkpt>
      <trkpt lat="42.70485" lon="1.26614">
        <ele>2316.1999511719</ele>
        <time>2023-07-25T07:33:23.000Z</time>
      </trkpt>
      <trkpt lat="42.7048" lon="1.2661">
        <ele>2316.6000976562</ele>
        <time>2023-07-25T07:33:30.000Z</time>
      </trkpt>
      <trkpt lat="42.70478" lon="1.26604">
        <ele>2316.8000488281</ele>
        <time>2023-07-25T07:33:36.000Z</time>
      </trkpt>
      <trkpt lat="42.70476" lon="1.26601">
        <ele>2317.1999511719</ele>
        <time>2023-07-25T07:33:40.000Z</time>
      </trkpt>
      <trkpt lat="42.70475" lon="1.26598">
        <ele>2318</ele>
        <time>2023-07-25T07:33:43.000Z</time>
      </trkpt>
      <trkpt lat="42.70474" lon="1.26597">
        <ele>2318.3999023438</ele>
        <time>2023-07-25T07:33:44.000Z</time>
      </trkpt>
      <trkpt lat="42.7047" lon="1.26594">
        <ele>2318.1999511719</ele>
        <time>2023-07-25T07:33:51.000Z</time>
      </trkpt>
      <trkpt lat="42.70464" lon="1.2659">
        <ele>2318.1999511719</ele>
        <time>2023-07-25T07:33:57.000Z</time>
      </trkpt>
      <trkpt lat="42.70461" lon="1.26587">
        <ele>2318</ele>
        <time>2023-07-25T07:34:03.000Z</time>
      </trkpt>
      <trkpt lat="42.70458" lon="1.26577">
        <ele>2317.3999023438</ele>
        <time>2023-07-25T07:34:09.000Z</time>
      </trkpt>
      <trkpt lat="42.70458" lon="1.26576">
        <ele>2317.1999511719</ele>
        <time>2023-07-25T07:34:10.000Z</time>
      </trkpt>
      <trkpt lat="42.70456" lon="1.26569">
        <ele>2316.8000488281</ele>
        <time>2023-07-25T07:34:16.000Z</time>
      </trkpt>
      <trkpt lat="42.70451" lon="1.26566">
        <ele>2316.1999511719</ele>
        <time>2023-07-25T07:34:21.000Z</time>
      </trkpt>
      <trkpt lat="42.70449" lon="1.26565">
        <ele>2315.1999511719</ele>
        <time>2023-07-25T07:34:25.000Z</time>
      </trkpt>
      <trkpt lat="42.70449" lon="1.26565">
        <ele>2314.8000488281</ele>
        <time>2023-07-25T07:34:26.000Z</time>
      </trkpt>
      <trkpt lat="42.70443" lon="1.2656">
        <ele>2313.8000488281</ele>
        <time>2023-07-25T07:34:32.000Z</time>
      </trkpt>
      <trkpt lat="42.7044" lon="1.26554">
        <ele>2312.8000488281</ele>
        <time>2023-07-25T07:34:38.000Z</time>
      </trkpt>
      <trkpt lat="42.70439" lon="1.26552">
        <ele>2312.6000976562</ele>
        <time>2023-07-25T07:34:39.000Z</time>
      </trkpt>
      <trkpt lat="42.70433" lon="1.26551">
        <ele>2312.1999511719</ele>
        <time>2023-07-25T07:34:46.000Z</time>
      </trkpt>
      <trkpt lat="42.70429" lon="1.26551">
        <ele>2311.8000488281</ele>
        <time>2023-07-25T07:34:50.000Z</time>
      </trkpt>
      <trkpt lat="42.70426" lon="1.2655">
        <ele>2311.1999511719</ele>
        <time>2023-07-25T07:34:53.000Z</time>
      </trkpt>
      <trkpt lat="42.70423" lon="1.26549">
        <ele>2310.6000976562</ele>
        <time>2023-07-25T07:34:55.000Z</time>
      </trkpt>
      <trkpt lat="42.70416" lon="1.26547">
        <ele>2310.1999511719</ele>
        <time>2023-07-25T07:35:00.000Z</time>
      </trkpt>
      <trkpt lat="42.70412" lon="1.26542">
        <ele>2309.6000976562</ele>
        <time>2023-07-25T07:35:07.000Z</time>
      </trkpt>
      <trkpt lat="42.70411" lon="1.26544">
        <ele>2309</ele>
        <time>2023-07-25T07:35:12.000Z</time>
      </trkpt>
      <trkpt lat="42.70409" lon="1.26543">
        <ele>2308.8000488281</ele>
        <time>2023-07-25T07:35:14.000Z</time>
      </trkpt>
      <trkpt lat="42.70406" lon="1.26543">
        <ele>2308.3999023438</ele>
        <time>2023-07-25T07:35:17.000Z</time>
      </trkpt>
      <trkpt lat="42.70402" lon="1.26542">
        <ele>2307.3999023438</ele>
        <time>2023-07-25T07:35:22.000Z</time>
      </trkpt>
      <trkpt lat="42.70401" lon="1.26541">
        <ele>2307.1999511719</ele>
        <time>2023-07-25T07:35:23.000Z</time>
      </trkpt>
      <trkpt lat="42.70398" lon="1.26539">
        <ele>2306.3999023438</ele>
        <time>2023-07-25T07:35:28.000Z</time>
      </trkpt>
      <trkpt lat="42.70397" lon="1.26539">
        <ele>2306.1999511719</ele>
        <time>2023-07-25T07:35:30.000Z</time>
      </trkpt>
      <trkpt lat="42.70393" lon="1.26535">
        <ele>2305.1999511719</ele>
        <time>2023-07-25T07:35:37.000Z</time>
      </trkpt>
      <trkpt lat="42.70388" lon="1.26536">
        <ele>2304.3999023438</ele>
        <time>2023-07-25T07:35:44.000Z</time>
      </trkpt>
      <trkpt lat="42.70382" lon="1.26533">
        <ele>2304.3999023438</ele>
        <time>2023-07-25T07:35:51.000Z</time>
      </trkpt>
      <trkpt lat="42.70381" lon="1.26528">
        <ele>2304.6000976562</ele>
        <time>2023-07-25T07:35:57.000Z</time>
      </trkpt>
      <trkpt lat="42.70378" lon="1.26523">
        <ele>2304</ele>
        <time>2023-07-25T07:36:03.000Z</time>
      </trkpt>
      <trkpt lat="42.70373" lon="1.2652">
        <ele>2303.1999511719</ele>
        <time>2023-07-25T07:36:11.000Z</time>
      </trkpt>
      <trkpt lat="42.70372" lon="1.2652">
        <ele>2302.8000488281</ele>
        <time>2023-07-25T07:36:12.000Z</time>
      </trkpt>
      <trkpt lat="42.70368" lon="1.26519">
        <ele>2302</ele>
        <time>2023-07-25T07:36:18.000Z</time>
      </trkpt>
      <trkpt lat="42.70367" lon="1.26519">
        <ele>2301.6000976562</ele>
        <time>2023-07-25T07:36:20.000Z</time>
      </trkpt>
      <trkpt lat="42.70364" lon="1.26521">
        <ele>2300.6000976562</ele>
        <time>2023-07-25T07:36:25.000Z</time>
      </trkpt>
      <trkpt lat="42.70363" lon="1.26522">
        <ele>2300.6000976562</ele>
        <time>2023-07-25T07:36:26.000Z</time>
      </trkpt>
      <trkpt lat="42.70356" lon="1.26525">
        <ele>2300.3999023438</ele>
        <time>2023-07-25T07:36:34.000Z</time>
      </trkpt>
      <trkpt lat="42.70351" lon="1.2653">
        <ele>2299.8000488281</ele>
        <time>2023-07-25T07:36:43.000Z</time>
      </trkpt>
      <trkpt lat="42.70351" lon="1.26531">
        <ele>2299.3999023438</ele>
        <time>2023-07-25T07:36:44.000Z</time>
      </trkpt>
      <trkpt lat="42.70352" lon="1.26531">
        <ele>2299.1999511719</ele>
        <time>2023-07-25T07:36:45.000Z</time>
      </trkpt>
      <trkpt lat="42.7035" lon="1.26532">
        <ele>2298.3999023438</ele>
        <time>2023-07-25T07:36:48.000Z</time>
      </trkpt>
      <trkpt lat="42.70349" lon="1.26532">
        <ele>2298.1999511719</ele>
        <time>2023-07-25T07:36:49.000Z</time>
      </trkpt>
      <trkpt lat="42.70349" lon="1.26532">
        <ele>2297.8000488281</ele>
        <time>2023-07-25T07:36:50.000Z</time>
      </trkpt>
      <trkpt lat="42.70348" lon="1.26532">
        <ele>2297.1999511719</ele>
        <time>2023-07-25T07:36:54.000Z</time>
      </trkpt>
      <trkpt lat="42.70348" lon="1.26532">
        <ele>2297</ele>
        <time>2023-07-25T07:36:55.000Z</time>
      </trkpt>
      <trkpt lat="42.70342" lon="1.26533">
        <ele>2296</ele>
        <time>2023-07-25T07:37:02.000Z</time>
      </trkpt>
      <trkpt lat="42.7034" lon="1.26533">
        <ele>2295</ele>
        <time>2023-07-25T07:37:06.000Z</time>
      </trkpt>
      <trkpt lat="42.70338" lon="1.26533">
        <ele>2294.1999511719</ele>
        <time>2023-07-25T07:37:09.000Z</time>
      </trkpt>
      <trkpt lat="42.70336" lon="1.26534">
        <ele>2293.8000488281</ele>
        <time>2023-07-25T07:37:12.000Z</time>
      </trkpt>
      <trkpt lat="42.70334" lon="1.26535">
        <ele>2293.1999511719</ele>
        <time>2023-07-25T07:37:16.000Z</time>
      </trkpt>
      <trkpt lat="42.70332" lon="1.26536">
        <ele>2292.8000488281</ele>
        <time>2023-07-25T07:37:20.000Z</time>
      </trkpt>
      <trkpt lat="42.70331" lon="1.26537">
        <ele>2292.1999511719</ele>
        <time>2023-07-25T07:37:24.000Z</time>
      </trkpt>
      <trkpt lat="42.70331" lon="1.26538">
        <ele>2291.8000488281</ele>
        <time>2023-07-25T07:37:28.000Z</time>
      </trkpt>
      <trkpt lat="42.7033" lon="1.26535">
        <ele>2290.8000488281</ele>
        <time>2023-07-25T07:37:33.000Z</time>
      </trkpt>
      <trkpt lat="42.7033" lon="1.26534">
        <ele>2290.8000488281</ele>
        <time>2023-07-25T07:37:34.000Z</time>
      </trkpt>
      <trkpt lat="42.70325" lon="1.26535">
        <ele>2289.8000488281</ele>
        <time>2023-07-25T07:37:40.000Z</time>
      </trkpt>
      <trkpt lat="42.70325" lon="1.26535">
        <ele>2289.6000976562</ele>
        <time>2023-07-25T07:37:41.000Z</time>
      </trkpt>
      <trkpt lat="42.70324" lon="1.26539">
        <ele>2288.6000976562</ele>
        <time>2023-07-25T07:37:47.000Z</time>
      </trkpt>
      <trkpt lat="42.70324" lon="1.26539">
        <ele>2288.3999023438</ele>
        <time>2023-07-25T07:37:48.000Z</time>
      </trkpt>
      <trkpt lat="42.70324" lon="1.26539">
        <ele>2288.1999511719</ele>
        <time>2023-07-25T07:37:56.000Z</time>
      </trkpt>
      <trkpt lat="42.70323" lon="1.26533">
        <ele>2288</ele>
        <time>2023-07-25T07:38:04.000Z</time>
      </trkpt>
      <trkpt lat="42.70321" lon="1.2653">
        <ele>2287.3999023438</ele>
        <time>2023-07-25T07:38:11.000Z</time>
      </trkpt>
      <trkpt lat="42.7032" lon="1.26531">
        <ele>2287.3999023438</ele>
        <time>2023-07-25T07:38:13.000Z</time>
      </trkpt>
      <trkpt lat="42.70321" lon="1.26532">
        <ele>2287.1999511719</ele>
        <time>2023-07-25T07:38:18.000Z</time>
      </trkpt>
      <trkpt lat="42.70317" lon="1.26531">
        <ele>2287</ele>
        <time>2023-07-25T07:38:24.000Z</time>
      </trkpt>
      <trkpt lat="42.70315" lon="1.26531">
        <ele>2286.3999023438</ele>
        <time>2023-07-25T07:38:30.000Z</time>
      </trkpt>
      <trkpt lat="42.70314" lon="1.26532">
        <ele>2286.3999023438</ele>
        <time>2023-07-25T07:38:31.000Z</time>
      </trkpt>
      <trkpt lat="42.70312" lon="1.26531">
        <ele>2285.6000976562</ele>
        <time>2023-07-25T07:38:35.000Z</time>
      </trkpt>
      <trkpt lat="42.70312" lon="1.26529">
        <ele>2285.1999511719</ele>
        <time>2023-07-25T07:38:37.000Z</time>
      </trkpt>
      <trkpt lat="42.70309" lon="1.26524">
        <ele>2284.1999511719</ele>
        <time>2023-07-25T07:38:41.000Z</time>
      </trkpt>
      <trkpt lat="42.70308" lon="1.26523">
        <ele>2284.1999511719</ele>
        <time>2023-07-25T07:38:42.000Z</time>
      </trkpt>
      <trkpt lat="42.70305" lon="1.26521">
        <ele>2283.6000976562</ele>
        <time>2023-07-25T07:38:47.000Z</time>
      </trkpt>
      <trkpt lat="42.70303" lon="1.26521">
        <ele>2283</ele>
        <time>2023-07-25T07:38:50.000Z</time>
      </trkpt>
      <trkpt lat="42.70299" lon="1.2652">
        <ele>2282.8000488281</ele>
        <time>2023-07-25T07:38:54.000Z</time>
      </trkpt>
      <trkpt lat="42.70293" lon="1.26522">
        <ele>2282.3999023438</ele>
        <time>2023-07-25T07:39:01.000Z</time>
      </trkpt>
      <trkpt lat="42.70292" lon="1.26522">
        <ele>2281.8000488281</ele>
        <time>2023-07-25T07:39:06.000Z</time>
      </trkpt>
      <trkpt lat="42.70291" lon="1.26522">
        <ele>2281.8000488281</ele>
        <time>2023-07-25T07:39:07.000Z</time>
      </trkpt>
      <trkpt lat="42.7029" lon="1.26522">
        <ele>2280.8000488281</ele>
        <time>2023-07-25T07:39:13.000Z</time>
      </trkpt>
      <trkpt lat="42.70287" lon="1.26521">
        <ele>2279.8000488281</ele>
        <time>2023-07-25T07:39:18.000Z</time>
      </trkpt>
      <trkpt lat="42.70285" lon="1.26522">
        <ele>2279</ele>
        <time>2023-07-25T07:39:21.000Z</time>
      </trkpt>
      <trkpt lat="42.70282" lon="1.26524">
        <ele>2278.6000976562</ele>
        <time>2023-07-25T07:39:23.000Z</time>
      </trkpt>
      <trkpt lat="42.70277" lon="1.26525">
        <ele>2277.8000488281</ele>
        <time>2023-07-25T07:39:28.000Z</time>
      </trkpt>
      <trkpt lat="42.70276" lon="1.26526">
        <ele>2277.6000976562</ele>
        <time>2023-07-25T07:39:30.000Z</time>
      </trkpt>
      <trkpt lat="42.70274" lon="1.26528">
        <ele>2276.6000976562</ele>
        <time>2023-07-25T07:39:36.000Z</time>
      </trkpt>
      <trkpt lat="42.70273" lon="1.26529">
        <ele>2276.3999023438</ele>
        <time>2023-07-25T07:39:37.000Z</time>
      </trkpt>
      <trkpt lat="42.7027" lon="1.26533">
        <ele>2275.3999023438</ele>
        <time>2023-07-25T07:39:44.000Z</time>
      </trkpt>
      <trkpt lat="42.7027" lon="1.26533">
        <ele>2274.3999023438</ele>
        <time>2023-07-25T07:39:49.000Z</time>
      </trkpt>
      <trkpt lat="42.70269" lon="1.26532">
        <ele>2274.1999511719</ele>
        <time>2023-07-25T07:39:50.000Z</time>
      </trkpt>
      <trkpt lat="42.70267" lon="1.26534">
        <ele>2273.8000488281</ele>
        <time>2023-07-25T07:39:55.000Z</time>
      </trkpt>
      <trkpt lat="42.70265" lon="1.26537">
        <ele>2273.1999511719</ele>
        <time>2023-07-25T07:39:59.000Z</time>
      </trkpt>
      <trkpt lat="42.70262" lon="1.26542">
        <ele>2272.1999511719</ele>
        <time>2023-07-25T07:40:04.000Z</time>
      </trkpt>
      <trkpt lat="42.70261" lon="1.26543">
        <ele>2272</ele>
        <time>2023-07-25T07:40:05.000Z</time>
      </trkpt>
      <trkpt lat="42.7026" lon="1.26542">
        <ele>2272</ele>
        <time>2023-07-25T07:40:08.000Z</time>
      </trkpt>
      <trkpt lat="42.70259" lon="1.26541">
        <ele>2271.8000488281</ele>
        <time>2023-07-25T07:40:10.000Z</time>
      </trkpt>
      <trkpt lat="42.70255" lon="1.26536">
        <ele>2271</ele>
        <time>2023-07-25T07:40:16.000Z</time>
      </trkpt>
      <trkpt lat="42.70255" lon="1.26536">
        <ele>2270.8000488281</ele>
        <time>2023-07-25T07:40:17.000Z</time>
      </trkpt>
      <trkpt lat="42.70252" lon="1.26541">
        <ele>2270</ele>
        <time>2023-07-25T07:40:24.000Z</time>
      </trkpt>
      <trkpt lat="42.70252" lon="1.26542">
        <ele>2269.8000488281</ele>
        <time>2023-07-25T07:40:25.000Z</time>
      </trkpt>
      <trkpt lat="42.7025" lon="1.26545">
        <ele>2268.8000488281</ele>
        <time>2023-07-25T07:40:29.000Z</time>
      </trkpt>
      <trkpt lat="42.7025" lon="1.26544">
        <ele>2268.8000488281</ele>
        <time>2023-07-25T07:40:31.000Z</time>
      </trkpt>
      <trkpt lat="42.70247" lon="1.26542">
        <ele>2267.8000488281</ele>
        <time>2023-07-25T07:40:37.000Z</time>
      </trkpt>
      <trkpt lat="42.70247" lon="1.26542">
        <ele>2267.3999023438</ele>
        <time>2023-07-25T07:40:39.000Z</time>
      </trkpt>
      <trkpt lat="42.70246" lon="1.2654">
        <ele>2266.6000976562</ele>
        <time>2023-07-25T07:40:43.000Z</time>
      </trkpt>
      <trkpt lat="42.70244" lon="1.26538">
        <ele>2266</ele>
        <time>2023-07-25T07:40:47.000Z</time>
      </trkpt>
      <trkpt lat="42.70239" lon="1.26539">
        <ele>2265.8000488281</ele>
        <time>2023-07-25T07:40:53.000Z</time>
      </trkpt>
      <trkpt lat="42.70234" lon="1.2654">
        <ele>2265.6000976562</ele>
        <time>2023-07-25T07:41:01.000Z</time>
      </trkpt>
      <trkpt lat="42.70234" lon="1.26541">
        <ele>2265.3999023438</ele>
        <time>2023-07-25T07:41:02.000Z</time>
      </trkpt>
      <trkpt lat="42.70232" lon="1.26543">
        <ele>2264.6000976562</ele>
        <time>2023-07-25T07:41:06.000Z</time>
      </trkpt>
      <trkpt lat="42.7023" lon="1.26544">
        <ele>2264.1999511719</ele>
        <time>2023-07-25T07:41:10.000Z</time>
      </trkpt>
      <trkpt lat="42.70231" lon="1.26544">
        <ele>2264.6000976562</ele>
        <time>2023-07-25T07:41:16.000Z</time>
      </trkpt>
      <trkpt lat="42.70232" lon="1.26548">
        <ele>2264.6000976562</ele>
        <time>2023-07-25T07:41:23.000Z</time>
      </trkpt>
      <trkpt lat="42.70229" lon="1.26553">
        <ele>2265.3999023438</ele>
        <time>2023-07-25T07:41:31.000Z</time>
      </trkpt>
      <trkpt lat="42.70228" lon="1.26553">
        <ele>2264.6000976562</ele>
        <time>2023-07-25T07:41:40.000Z</time>
      </trkpt>
      <trkpt lat="42.70227" lon="1.26553">
        <ele>2263.6000976562</ele>
        <time>2023-07-25T07:41:50.000Z</time>
      </trkpt>
      <trkpt lat="42.70227" lon="1.26552">
        <ele>2263.3999023438</ele>
        <time>2023-07-25T07:41:51.000Z</time>
      </trkpt>
      <trkpt lat="42.70222" lon="1.2655">
        <ele>2262.6000976562</ele>
        <time>2023-07-25T07:41:59.000Z</time>
      </trkpt>
      <trkpt lat="42.70222" lon="1.2655">
        <ele>2262.3999023438</ele>
        <time>2023-07-25T07:42:00.000Z</time>
      </trkpt>
      <trkpt lat="42.70222" lon="1.26549">
        <ele>2261.1999511719</ele>
        <time>2023-07-25T07:42:06.000Z</time>
      </trkpt>
      <trkpt lat="42.70223" lon="1.26543">
        <ele>2260.1999511719</ele>
        <time>2023-07-25T07:42:12.000Z</time>
      </trkpt>
      <trkpt lat="42.70223" lon="1.26541">
        <ele>2259.8000488281</ele>
        <time>2023-07-25T07:42:15.000Z</time>
      </trkpt>
      <trkpt lat="42.70222" lon="1.26536">
        <ele>2259</ele>
        <time>2023-07-25T07:42:20.000Z</time>
      </trkpt>
      <trkpt lat="42.70221" lon="1.26535">
        <ele>2258.8000488281</ele>
        <time>2023-07-25T07:42:22.000Z</time>
      </trkpt>
      <trkpt lat="42.70218" lon="1.26535">
        <ele>2258.3999023438</ele>
        <time>2023-07-25T07:42:28.000Z</time>
      </trkpt>
      <trkpt lat="42.70217" lon="1.26534">
        <ele>2258.1999511719</ele>
        <time>2023-07-25T07:42:37.000Z</time>
      </trkpt>
      <trkpt lat="42.70216" lon="1.26535">
        <ele>2258</ele>
        <time>2023-07-25T07:42:39.000Z</time>
      </trkpt>
      <trkpt lat="42.70217" lon="1.26531">
        <ele>2257.1999511719</ele>
        <time>2023-07-25T07:42:49.000Z</time>
      </trkpt>
      <trkpt lat="42.70218" lon="1.26524">
        <ele>2257.1999511719</ele>
        <time>2023-07-25T07:42:55.000Z</time>
      </trkpt>
      <trkpt lat="42.70219" lon="1.26518">
        <ele>2257</ele>
        <time>2023-07-25T07:43:04.000Z</time>
      </trkpt>
      <trkpt lat="42.7022" lon="1.26517">
        <ele>2256.8000488281</ele>
        <time>2023-07-25T07:43:05.000Z</time>
      </trkpt>
      <trkpt lat="42.70218" lon="1.26511">
        <ele>2256</ele>
        <time>2023-07-25T07:43:11.000Z</time>
      </trkpt>
      <trkpt lat="42.70218" lon="1.2651">
        <ele>2255.8000488281</ele>
        <time>2023-07-25T07:43:12.000Z</time>
      </trkpt>
      <trkpt lat="42.70218" lon="1.26505">
        <ele>2254.6000976562</ele>
        <time>2023-07-25T07:43:19.000Z</time>
      </trkpt>
      <trkpt lat="42.70216" lon="1.26499">
        <ele>2253.3999023438</ele>
        <time>2023-07-25T07:43:25.000Z</time>
      </trkpt>
      <trkpt lat="42.70214" lon="1.26496">
        <ele>2253</ele>
        <time>2023-07-25T07:43:27.000Z</time>
      </trkpt>
      <trkpt lat="42.70208" lon="1.26492">
        <ele>2252.3999023438</ele>
        <time>2023-07-25T07:43:34.000Z</time>
      </trkpt>
      <trkpt lat="42.70206" lon="1.26492">
        <ele>2252.3999023438</ele>
        <time>2023-07-25T07:43:38.000Z</time>
      </trkpt>
      <trkpt lat="42.70204" lon="1.26494">
        <ele>2252.1999511719</ele>
        <time>2023-07-25T07:43:42.000Z</time>
      </trkpt>
      <trkpt lat="42.70204" lon="1.26496">
        <ele>2252.1999511719</ele>
        <time>2023-07-25T07:43:43.000Z</time>
      </trkpt>
      <trkpt lat="42.70202" lon="1.26498">
        <ele>2251.3999023438</ele>
        <time>2023-07-25T07:43:49.000Z</time>
      </trkpt>
      <trkpt lat="42.70201" lon="1.26498">
        <ele>2250.8000488281</ele>
        <time>2023-07-25T07:43:52.000Z</time>
      </trkpt>
      <trkpt lat="42.70199" lon="1.26498">
        <ele>2250.1999511719</ele>
        <time>2023-07-25T07:43:55.000Z</time>
      </trkpt>
      <trkpt lat="42.70198" lon="1.26496">
        <ele>2249.1999511719</ele>
        <time>2023-07-25T07:44:00.000Z</time>
      </trkpt>
      <trkpt lat="42.70197" lon="1.26494">
        <ele>2249.1999511719</ele>
        <time>2023-07-25T07:44:01.000Z</time>
      </trkpt>
      <trkpt lat="42.70192" lon="1.26494">
        <ele>2248</ele>
        <time>2023-07-25T07:44:07.000Z</time>
      </trkpt>
      <trkpt lat="42.70187" lon="1.26495">
        <ele>2246.8000488281</ele>
        <time>2023-07-25T07:44:13.000Z</time>
      </trkpt>
      <trkpt lat="42.70184" lon="1.26496">
        <ele>2246.1999511719</ele>
        <time>2023-07-25T07:44:17.000Z</time>
      </trkpt>
      <trkpt lat="42.70184" lon="1.26496">
        <ele>2245.8000488281</ele>
        <time>2023-07-25T07:44:20.000Z</time>
      </trkpt>
      <trkpt lat="42.70184" lon="1.26495">
        <ele>2245.1999511719</ele>
        <time>2023-07-25T07:44:24.000Z</time>
      </trkpt>
      <trkpt lat="42.70183" lon="1.26495">
        <ele>2244.6000976562</ele>
        <time>2023-07-25T07:44:26.000Z</time>
      </trkpt>
      <trkpt lat="42.70183" lon="1.2649">
        <ele>2244.1999511719</ele>
        <time>2023-07-25T07:44:31.000Z</time>
      </trkpt>
      <trkpt lat="42.70182" lon="1.26495">
        <ele>2243.6000976562</ele>
        <time>2023-07-25T07:44:39.000Z</time>
      </trkpt>
      <trkpt lat="42.70181" lon="1.26495">
        <ele>2243.6000976562</ele>
        <time>2023-07-25T07:44:40.000Z</time>
      </trkpt>
      <trkpt lat="42.70179" lon="1.26491">
        <ele>2242.6000976562</ele>
        <time>2023-07-25T07:44:46.000Z</time>
      </trkpt>
      <trkpt lat="42.70179" lon="1.2649">
        <ele>2242.1999511719</ele>
        <time>2023-07-25T07:44:48.000Z</time>
      </trkpt>
      <trkpt lat="42.70178" lon="1.26492">
        <ele>2241.3999023438</ele>
        <time>2023-07-25T07:44:52.000Z</time>
      </trkpt>
      <trkpt lat="42.70177" lon="1.26491">
        <ele>2240.3999023438</ele>
        <time>2023-07-25T07:44:55.000Z</time>
      </trkpt>
      <trkpt lat="42.70177" lon="1.26492">
        <ele>2240.1999511719</ele>
        <time>2023-07-25T07:44:56.000Z</time>
      </trkpt>
      <trkpt lat="42.70177" lon="1.26492">
        <ele>2239.1999511719</ele>
        <time>2023-07-25T07:45:03.000Z</time>
      </trkpt>
      <trkpt lat="42.70173" lon="1.26487">
        <ele>2238.1999511719</ele>
        <time>2023-07-25T07:45:08.000Z</time>
      </trkpt>
      <trkpt lat="42.70172" lon="1.26487">
        <ele>2238</ele>
        <time>2023-07-25T07:45:09.000Z</time>
      </trkpt>
      <trkpt lat="42.70168" lon="1.26486">
        <ele>2237.3999023438</ele>
        <time>2023-07-25T07:45:15.000Z</time>
      </trkpt>
      <trkpt lat="42.70168" lon="1.26487">
        <ele>2237</ele>
        <time>2023-07-25T07:45:17.000Z</time>
      </trkpt>
      <trkpt lat="42.70167" lon="1.26488">
        <ele>2236</ele>
        <time>2023-07-25T07:45:22.000Z</time>
      </trkpt>
      <trkpt lat="42.70165" lon="1.26492">
        <ele>2235</ele>
        <time>2023-07-25T07:45:27.000Z</time>
      </trkpt>
      <trkpt lat="42.70165" lon="1.26492">
        <ele>2234.6000976562</ele>
        <time>2023-07-25T07:45:29.000Z</time>
      </trkpt>
      <trkpt lat="42.70164" lon="1.26492">
        <ele>2233.8000488281</ele>
        <time>2023-07-25T07:45:34.000Z</time>
      </trkpt>
      <trkpt lat="42.70164" lon="1.26491">
        <ele>2233.6000976562</ele>
        <time>2023-07-25T07:45:35.000Z</time>
      </trkpt>
      <trkpt lat="42.70164" lon="1.26491">
        <ele>2233.1999511719</ele>
        <time>2023-07-25T07:45:37.000Z</time>
      </trkpt>
      <trkpt lat="42.70163" lon="1.2649">
        <ele>2232.6000976562</ele>
        <time>2023-07-25T07:45:39.000Z</time>
      </trkpt>
      <trkpt lat="42.7016" lon="1.26487">
        <ele>2231.6000976562</ele>
        <time>2023-07-25T07:45:46.000Z</time>
      </trkpt>
      <trkpt lat="42.7016" lon="1.26487">
        <ele>2231.3999023438</ele>
        <time>2023-07-25T07:45:47.000Z</time>
      </trkpt>
      <trkpt lat="42.70159" lon="1.26484">
        <ele>2230.3999023438</ele>
        <time>2023-07-25T07:45:53.000Z</time>
      </trkpt>
      <trkpt lat="42.70159" lon="1.26484">
        <ele>2230</ele>
        <time>2023-07-25T07:45:56.000Z</time>
      </trkpt>
      <trkpt lat="42.70157" lon="1.26485">
        <ele>2229.3999023438</ele>
        <time>2023-07-25T07:46:00.000Z</time>
      </trkpt>
      <trkpt lat="42.70155" lon="1.26488">
        <ele>2228.6000976562</ele>
        <time>2023-07-25T07:46:04.000Z</time>
      </trkpt>
      <trkpt lat="42.70154" lon="1.2649">
        <ele>2228.1999511719</ele>
        <time>2023-07-25T07:46:06.000Z</time>
      </trkpt>
      <trkpt lat="42.70153" lon="1.26489">
        <ele>2227.3999023438</ele>
        <time>2023-07-25T07:46:11.000Z</time>
      </trkpt>
      <trkpt lat="42.70152" lon="1.26489">
        <ele>2227.1999511719</ele>
        <time>2023-07-25T07:46:12.000Z</time>
      </trkpt>
      <trkpt lat="42.70152" lon="1.26485">
        <ele>2226.8000488281</ele>
        <time>2023-07-25T07:46:18.000Z</time>
      </trkpt>
      <trkpt lat="42.70148" lon="1.26484">
        <ele>2226.1999511719</ele>
        <time>2023-07-25T07:46:23.000Z</time>
      </trkpt>
      <trkpt lat="42.70147" lon="1.26488">
        <ele>2225.6000976562</ele>
        <time>2023-07-25T07:46:26.000Z</time>
      </trkpt>
      <trkpt lat="42.70145" lon="1.26489">
        <ele>2225</ele>
        <time>2023-07-25T07:46:29.000Z</time>
      </trkpt>
      <trkpt lat="42.70145" lon="1.26488">
        <ele>2224</ele>
        <time>2023-07-25T07:46:34.000Z</time>
      </trkpt>
      <trkpt lat="42.70146" lon="1.26487">
        <ele>2223.8000488281</ele>
        <time>2023-07-25T07:46:35.000Z</time>
      </trkpt>
      <trkpt lat="42.70145" lon="1.26483">
        <ele>2223.1999511719</ele>
        <time>2023-07-25T07:46:40.000Z</time>
      </trkpt>
      <trkpt lat="42.70145" lon="1.26483">
        <ele>2222.8000488281</ele>
        <time>2023-07-25T07:46:42.000Z</time>
      </trkpt>
      <trkpt lat="42.70142" lon="1.26483">
        <ele>2222.1999511719</ele>
        <time>2023-07-25T07:46:46.000Z</time>
      </trkpt>
      <trkpt lat="42.70142" lon="1.26483">
        <ele>2222</ele>
        <time>2023-07-25T07:46:47.000Z</time>
      </trkpt>
      <trkpt lat="42.7014" lon="1.26485">
        <ele>2221.6000976562</ele>
        <time>2023-07-25T07:46:50.000Z</time>
      </trkpt>
      <trkpt lat="42.70139" lon="1.26487">
        <ele>2221.1999511719</ele>
        <time>2023-07-25T07:46:54.000Z</time>
      </trkpt>
      <trkpt lat="42.70138" lon="1.26489">
        <ele>2220.6000976562</ele>
        <time>2023-07-25T07:47:00.000Z</time>
      </trkpt>
      <trkpt lat="42.70137" lon="1.2649">
        <ele>2220.3999023438</ele>
        <time>2023-07-25T07:47:01.000Z</time>
      </trkpt>
      <trkpt lat="42.70136" lon="1.26488">
        <ele>2219.6000976562</ele>
        <time>2023-07-25T07:47:08.000Z</time>
      </trkpt>
      <trkpt lat="42.70132" lon="1.26488">
        <ele>2218.3999023438</ele>
        <time>2023-07-25T07:47:16.000Z</time>
      </trkpt>
      <trkpt lat="42.70131" lon="1.26489">
        <ele>2217.3999023438</ele>
        <time>2023-07-25T07:47:23.000Z</time>
      </trkpt>
      <trkpt lat="42.70131" lon="1.26488">
        <ele>2217.1999511719</ele>
        <time>2023-07-25T07:47:25.000Z</time>
      </trkpt>
      <trkpt lat="42.70129" lon="1.26487">
        <ele>2216.3999023438</ele>
        <time>2023-07-25T07:47:31.000Z</time>
      </trkpt>
      <trkpt lat="42.70127" lon="1.26489">
        <ele>2215.8000488281</ele>
        <time>2023-07-25T07:47:34.000Z</time>
      </trkpt>
      <trkpt lat="42.70126" lon="1.26491">
        <ele>2215.1999511719</ele>
        <time>2023-07-25T07:47:37.000Z</time>
      </trkpt>
      <trkpt lat="42.70125" lon="1.26492">
        <ele>2214.8000488281</ele>
        <time>2023-07-25T07:47:40.000Z</time>
      </trkpt>
      <trkpt lat="42.70124" lon="1.26493">
        <ele>2214.1999511719</ele>
        <time>2023-07-25T07:47:42.000Z</time>
      </trkpt>
      <trkpt lat="42.70125" lon="1.26492">
        <ele>2213.1999511719</ele>
        <time>2023-07-25T07:47:46.000Z</time>
      </trkpt>
      <trkpt lat="42.70123" lon="1.26495">
        <ele>2212.8000488281</ele>
        <time>2023-07-25T07:47:55.000Z</time>
      </trkpt>
      <trkpt lat="42.70122" lon="1.26496">
        <ele>2212.8000488281</ele>
        <time>2023-07-25T07:48:03.000Z</time>
      </trkpt>
      <trkpt lat="42.70124" lon="1.26495">
        <ele>2213</ele>
        <time>2023-07-25T07:48:14.000Z</time>
      </trkpt>
      <trkpt lat="42.70125" lon="1.26495">
        <ele>2213.1999511719</ele>
        <time>2023-07-25T07:48:20.000Z</time>
      </trkpt>
      <trkpt lat="42.70126" lon="1.26494">
        <ele>2213.3999023438</ele>
        <time>2023-07-25T07:48:30.000Z</time>
      </trkpt>
      <trkpt lat="42.70125" lon="1.26495">
        <ele>2213.6000976562</ele>
        <time>2023-07-25T07:48:37.000Z</time>
      </trkpt>
      <trkpt lat="42.70121" lon="1.26495">
        <ele>2213.6000976562</ele>
        <time>2023-07-25T07:48:46.000Z</time>
      </trkpt>
      <trkpt lat="42.70119" lon="1.26496">
        <ele>2213.8000488281</ele>
        <time>2023-07-25T07:48:55.000Z</time>
      </trkpt>
      <trkpt lat="42.70116" lon="1.26497">
        <ele>2213.8000488281</ele>
        <time>2023-07-25T07:49:05.000Z</time>
      </trkpt>
      <trkpt lat="42.70117" lon="1.26496">
        <ele>2214</ele>
        <time>2023-07-25T07:49:12.000Z</time>
      </trkpt>
      <trkpt lat="42.70121" lon="1.26496">
        <ele>2214.1999511719</ele>
        <time>2023-07-25T07:49:18.000Z</time>
      </trkpt>
      <trkpt lat="42.70123" lon="1.26494">
        <ele>2214.1999511719</ele>
        <time>2023-07-25T07:49:26.000Z</time>
      </trkpt>
      <trkpt lat="42.70123" lon="1.26489">
        <ele>2214</ele>
        <time>2023-07-25T07:49:32.000Z</time>
      </trkpt>
      <trkpt lat="42.70121" lon="1.26485">
        <ele>2213.1999511719</ele>
        <time>2023-07-25T07:49:37.000Z</time>
      </trkpt>
      <trkpt lat="42.70121" lon="1.26484">
        <ele>2212.8000488281</ele>
        <time>2023-07-25T07:49:38.000Z</time>
      </trkpt>
      <trkpt lat="42.70121" lon="1.26481">
        <ele>2212</ele>
        <time>2023-07-25T07:49:42.000Z</time>
      </trkpt>
      <trkpt lat="42.70123" lon="1.26475">
        <ele>2210.8000488281</ele>
        <time>2023-07-25T07:49:47.000Z</time>
      </trkpt>
      <trkpt lat="42.70125" lon="1.26471">
        <ele>2209.8000488281</ele>
        <time>2023-07-25T07:49:53.000Z</time>
      </trkpt>
      <trkpt lat="42.70125" lon="1.26469">
        <ele>2209.6000976562</ele>
        <time>2023-07-25T07:49:55.000Z</time>
      </trkpt>
      <trkpt lat="42.70126" lon="1.26458">
        <ele>2208.8000488281</ele>
        <time>2023-07-25T07:50:02.000Z</time>
      </trkpt>
      <trkpt lat="42.70126" lon="1.26457">
        <ele>2208.6000976562</ele>
        <time>2023-07-25T07:50:03.000Z</time>
      </trkpt>
      <trkpt lat="42.70126" lon="1.26451">
        <ele>2208.1999511719</ele>
        <time>2023-07-25T07:50:09.000Z</time>
      </trkpt>
      <trkpt lat="42.70128" lon="1.26446">
        <ele>2207.6000976562</ele>
        <time>2023-07-25T07:50:13.000Z</time>
      </trkpt>
      <trkpt lat="42.70131" lon="1.26441">
        <ele>2207.1999511719</ele>
        <time>2023-07-25T07:50:17.000Z</time>
      </trkpt>
      <trkpt lat="42.70132" lon="1.26434">
        <ele>2206.3999023438</ele>
        <time>2023-07-25T07:50:23.000Z</time>
      </trkpt>
      <trkpt lat="42.70132" lon="1.26433">
        <ele>2206.1999511719</ele>
        <time>2023-07-25T07:50:24.000Z</time>
      </trkpt>
      <trkpt lat="42.70132" lon="1.26418">
        <ele>2205.3999023438</ele>
        <time>2023-07-25T07:50:33.000Z</time>
      </trkpt>
      <trkpt lat="42.70132" lon="1.26416">
        <ele>2205.3999023438</ele>
        <time>2023-07-25T07:50:34.000Z</time>
      </trkpt>
      <trkpt lat="42.70131" lon="1.26406">
        <ele>2204.3999023438</ele>
        <time>2023-07-25T07:50:41.000Z</time>
      </trkpt>
      <trkpt lat="42.7013" lon="1.26403">
        <ele>2204.1999511719</ele>
        <time>2023-07-25T07:50:42.000Z</time>
      </trkpt>
      <trkpt lat="42.70128" lon="1.26394">
        <ele>2203.8000488281</ele>
        <time>2023-07-25T07:50:49.000Z</time>
      </trkpt>
      <trkpt lat="42.70129" lon="1.26391">
        <ele>2203.1999511719</ele>
        <time>2023-07-25T07:50:53.000Z</time>
      </trkpt>
      <trkpt lat="42.70128" lon="1.26388">
        <ele>2203.1999511719</ele>
        <time>2023-07-25T07:50:55.000Z</time>
      </trkpt>
      <trkpt lat="42.70128" lon="1.26386">
        <ele>2202.8000488281</ele>
        <time>2023-07-25T07:51:01.000Z</time>
      </trkpt>
      <trkpt lat="42.70128" lon="1.26385">
        <ele>2202.1999511719</ele>
        <time>2023-07-25T07:51:04.000Z</time>
      </trkpt>
      <trkpt lat="42.70131" lon="1.26382">
        <ele>2201.8000488281</ele>
        <time>2023-07-25T07:51:09.000Z</time>
      </trkpt>
      <trkpt lat="42.70135" lon="1.26378">
        <ele>2201.8000488281</ele>
        <time>2023-07-25T07:51:16.000Z</time>
      </trkpt>
      <trkpt lat="42.70137" lon="1.26375">
        <ele>2201.1999511719</ele>
        <time>2023-07-25T07:51:20.000Z</time>
      </trkpt>
      <trkpt lat="42.70138" lon="1.26374">
        <ele>2200.8000488281</ele>
        <time>2023-07-25T07:51:21.000Z</time>
      </trkpt>
      <trkpt lat="42.70137" lon="1.26372">
        <ele>2200</ele>
        <time>2023-07-25T07:51:25.000Z</time>
      </trkpt>
      <trkpt lat="42.70137" lon="1.2637">
        <ele>2199.6000976562</ele>
        <time>2023-07-25T07:51:28.000Z</time>
      </trkpt>
      <trkpt lat="42.70137" lon="1.26367">
        <ele>2199</ele>
        <time>2023-07-25T07:51:33.000Z</time>
      </trkpt>
      <trkpt lat="42.70136" lon="1.26366">
        <ele>2198.6000976562</ele>
        <time>2023-07-25T07:51:36.000Z</time>
      </trkpt>
      <trkpt lat="42.70135" lon="1.26364">
        <ele>2197.8000488281</ele>
        <time>2023-07-25T07:51:40.000Z</time>
      </trkpt>
      <trkpt lat="42.70134" lon="1.26361">
        <ele>2196.8000488281</ele>
        <time>2023-07-25T07:51:44.000Z</time>
      </trkpt>
      <trkpt lat="42.70134" lon="1.2636">
        <ele>2196.8000488281</ele>
        <time>2023-07-25T07:51:45.000Z</time>
      </trkpt>
      <trkpt lat="42.70136" lon="1.26358">
        <ele>2195.8000488281</ele>
        <time>2023-07-25T07:51:51.000Z</time>
      </trkpt>
      <trkpt lat="42.70137" lon="1.26358">
        <ele>2195.6000976562</ele>
        <time>2023-07-25T07:51:52.000Z</time>
      </trkpt>
      <trkpt lat="42.7014" lon="1.26352">
        <ele>2194.6000976562</ele>
        <time>2023-07-25T07:51:58.000Z</time>
      </trkpt>
      <trkpt lat="42.70139" lon="1.26346">
        <ele>2193.3999023438</ele>
        <time>2023-07-25T07:52:04.000Z</time>
      </trkpt>
      <trkpt lat="42.70137" lon="1.2634">
        <ele>2192.3999023438</ele>
        <time>2023-07-25T07:52:10.000Z</time>
      </trkpt>
      <trkpt lat="42.70136" lon="1.26339">
        <ele>2192.1999511719</ele>
        <time>2023-07-25T07:52:12.000Z</time>
      </trkpt>
      <trkpt lat="42.70136" lon="1.26332">
        <ele>2191.3999023438</ele>
        <time>2023-07-25T07:52:20.000Z</time>
      </trkpt>
      <trkpt lat="42.70136" lon="1.26331">
        <ele>2191.1999511719</ele>
        <time>2023-07-25T07:52:21.000Z</time>
      </trkpt>
      <trkpt lat="42.70138" lon="1.26332">
        <ele>2190.1999511719</ele>
        <time>2023-07-25T07:52:27.000Z</time>
      </trkpt>
      <trkpt lat="42.70142" lon="1.26332">
        <ele>2189</ele>
        <time>2023-07-25T07:52:35.000Z</time>
      </trkpt>
      <trkpt lat="42.70143" lon="1.26331">
        <ele>2188.6000976562</ele>
        <time>2023-07-25T07:52:41.000Z</time>
      </trkpt>
      <trkpt lat="42.70144" lon="1.2633">
        <ele>2188</ele>
        <time>2023-07-25T07:52:44.000Z</time>
      </trkpt>
      <trkpt lat="42.70144" lon="1.26328">
        <ele>2187.3999023438</ele>
        <time>2023-07-25T07:52:48.000Z</time>
      </trkpt>
      <trkpt lat="42.70145" lon="1.26324">
        <ele>2186.8000488281</ele>
        <time>2023-07-25T07:52:51.000Z</time>
      </trkpt>
      <trkpt lat="42.70145" lon="1.26322">
        <ele>2186</ele>
        <time>2023-07-25T07:52:55.000Z</time>
      </trkpt>
      <trkpt lat="42.70145" lon="1.2632">
        <ele>2185.6000976562</ele>
        <time>2023-07-25T07:52:58.000Z</time>
      </trkpt>
      <trkpt lat="42.70145" lon="1.26318">
        <ele>2185.1999511719</ele>
        <time>2023-07-25T07:53:02.000Z</time>
      </trkpt>
      <trkpt lat="42.70145" lon="1.26315">
        <ele>2184.3999023438</ele>
        <time>2023-07-25T07:53:06.000Z</time>
      </trkpt>
      <trkpt lat="42.70144" lon="1.2631">
        <ele>2183.6000976562</ele>
        <time>2023-07-25T07:53:11.000Z</time>
      </trkpt>
      <trkpt lat="42.70143" lon="1.26308">
        <ele>2183.3999023438</ele>
        <time>2023-07-25T07:53:17.000Z</time>
      </trkpt>
      <trkpt lat="42.70143" lon="1.26308">
        <ele>2183.3999023438</ele>
        <time>2023-07-25T07:53:18.000Z</time>
      </trkpt>
      <trkpt lat="42.70146" lon="1.26307">
        <ele>2182.3999023438</ele>
        <time>2023-07-25T07:53:26.000Z</time>
      </trkpt>
      <trkpt lat="42.70153" lon="1.26304">
        <ele>2181.3999023438</ele>
        <time>2023-07-25T07:53:33.000Z</time>
      </trkpt>
      <trkpt lat="42.70153" lon="1.26304">
        <ele>2181.1999511719</ele>
        <time>2023-07-25T07:53:34.000Z</time>
      </trkpt>
      <trkpt lat="42.70155" lon="1.26301">
        <ele>2180.3999023438</ele>
        <time>2023-07-25T07:53:41.000Z</time>
      </trkpt>
      <trkpt lat="42.70154" lon="1.26298">
        <ele>2180</ele>
        <time>2023-07-25T07:53:44.000Z</time>
      </trkpt>
      <trkpt lat="42.70153" lon="1.26296">
        <ele>2179.3999023438</ele>
        <time>2023-07-25T07:53:48.000Z</time>
      </trkpt>
      <trkpt lat="42.70151" lon="1.26295">
        <ele>2179</ele>
        <time>2023-07-25T07:53:52.000Z</time>
      </trkpt>
      <trkpt lat="42.70149" lon="1.26295">
        <ele>2178.1999511719</ele>
        <time>2023-07-25T07:53:56.000Z</time>
      </trkpt>
      <trkpt lat="42.70149" lon="1.26294">
        <ele>2177.8000488281</ele>
        <time>2023-07-25T07:53:59.000Z</time>
      </trkpt>
      <trkpt lat="42.70146" lon="1.26291">
        <ele>2176.6000976562</ele>
        <time>2023-07-25T07:54:04.000Z</time>
      </trkpt>
      <trkpt lat="42.70146" lon="1.26291">
        <ele>2176.3999023438</ele>
        <time>2023-07-25T07:54:05.000Z</time>
      </trkpt>
      <trkpt lat="42.70143" lon="1.26288">
        <ele>2175.6000976562</ele>
        <time>2023-07-25T07:54:12.000Z</time>
      </trkpt>
      <trkpt lat="42.70143" lon="1.26288">
        <ele>2175.3999023438</ele>
        <time>2023-07-25T07:54:13.000Z</time>
      </trkpt>
      <trkpt lat="42.70143" lon="1.26285">
        <ele>2174.8000488281</ele>
        <time>2023-07-25T07:54:20.000Z</time>
      </trkpt>
      <trkpt lat="42.70143" lon="1.26285">
        <ele>2174.3999023438</ele>
        <time>2023-07-25T07:54:21.000Z</time>
      </trkpt>
      <trkpt lat="42.70144" lon="1.26287">
        <ele>2174.1999511719</ele>
        <time>2023-07-25T07:54:28.000Z</time>
      </trkpt>
      <trkpt lat="42.70144" lon="1.26291">
        <ele>2174.1999511719</ele>
        <time>2023-07-25T07:54:35.000Z</time>
      </trkpt>
      <trkpt lat="42.70142" lon="1.26294">
        <ele>2174.1999511719</ele>
        <time>2023-07-25T07:54:45.000Z</time>
      </trkpt>
      <trkpt lat="42.70144" lon="1.26289">
        <ele>2174.3999023438</ele>
        <time>2023-07-25T07:54:51.000Z</time>
      </trkpt>
      <trkpt lat="42.70145" lon="1.26285">
        <ele>2173.8000488281</ele>
        <time>2023-07-25T07:54:58.000Z</time>
      </trkpt>
      <trkpt lat="42.70143" lon="1.26282">
        <ele>2173.3999023438</ele>
        <time>2023-07-25T07:55:02.000Z</time>
      </trkpt>
      <trkpt lat="42.70143" lon="1.2628">
        <ele>2172.6000976562</ele>
        <time>2023-07-25T07:55:07.000Z</time>
      </trkpt>
      <trkpt lat="42.70144" lon="1.2628">
        <ele>2172.3999023438</ele>
        <time>2023-07-25T07:55:08.000Z</time>
      </trkpt>
      <trkpt lat="42.70146" lon="1.26277">
        <ele>2171.1999511719</ele>
        <time>2023-07-25T07:55:14.000Z</time>
      </trkpt>
      <trkpt lat="42.70147" lon="1.26277">
        <ele>2171</ele>
        <time>2023-07-25T07:55:15.000Z</time>
      </trkpt>
      <trkpt lat="42.70147" lon="1.26274">
        <ele>2170</ele>
        <time>2023-07-25T07:55:19.000Z</time>
      </trkpt>
      <trkpt lat="42.70147" lon="1.26272">
        <ele>2169.6000976562</ele>
        <time>2023-07-25T07:55:21.000Z</time>
      </trkpt>
      <trkpt lat="42.70147" lon="1.26271">
        <ele>2168.8000488281</ele>
        <time>2023-07-25T07:55:25.000Z</time>
      </trkpt>
      <trkpt lat="42.70146" lon="1.2627">
        <ele>2168.3999023438</ele>
        <time>2023-07-25T07:55:28.000Z</time>
      </trkpt>
      <trkpt lat="42.70147" lon="1.26267">
        <ele>2167.6000976562</ele>
        <time>2023-07-25T07:55:32.000Z</time>
      </trkpt>
      <trkpt lat="42.70147" lon="1.26268">
        <ele>2167.1999511719</ele>
        <time>2023-07-25T07:55:35.000Z</time>
      </trkpt>
      <trkpt lat="42.70148" lon="1.26267">
        <ele>2167</ele>
        <time>2023-07-25T07:55:41.000Z</time>
      </trkpt>
      <trkpt lat="42.70148" lon="1.26269">
        <ele>2166.8000488281</ele>
        <time>2023-07-25T07:55:50.000Z</time>
      </trkpt>
      <trkpt lat="42.70147" lon="1.26274">
        <ele>2166.6000976562</ele>
        <time>2023-07-25T07:55:59.000Z</time>
      </trkpt>
      <trkpt lat="42.70147" lon="1.26275">
        <ele>2166.6000976562</ele>
        <time>2023-07-25T07:56:00.000Z</time>
      </trkpt>
      <trkpt lat="42.7015" lon="1.26271">
        <ele>2166.6000976562</ele>
        <time>2023-07-25T07:56:12.000Z</time>
      </trkpt>
      <trkpt lat="42.7015" lon="1.26268">
        <ele>2166.6000976562</ele>
        <time>2023-07-25T07:56:18.000Z</time>
      </trkpt>
      <trkpt lat="42.70152" lon="1.26268">
        <ele>2165.6000976562</ele>
        <time>2023-07-25T07:56:25.000Z</time>
      </trkpt>
      <trkpt lat="42.7015" lon="1.26261">
        <ele>2164.6000976562</ele>
        <time>2023-07-25T07:56:32.000Z</time>
      </trkpt>
      <trkpt lat="42.7015" lon="1.26261">
        <ele>2164.3999023438</ele>
        <time>2023-07-25T07:56:33.000Z</time>
      </trkpt>
      <trkpt lat="42.7015" lon="1.26257">
        <ele>2163.1999511719</ele>
        <time>2023-07-25T07:56:39.000Z</time>
      </trkpt>
      <trkpt lat="42.7015" lon="1.26256">
        <ele>2163.1999511719</ele>
        <time>2023-07-25T07:56:40.000Z</time>
      </trkpt>
      <trkpt lat="42.70149" lon="1.26252">
        <ele>2162</ele>
        <time>2023-07-25T07:56:46.000Z</time>
      </trkpt>
      <trkpt lat="42.70149" lon="1.26251">
        <ele>2162</ele>
        <time>2023-07-25T07:56:47.000Z</time>
      </trkpt>
      <trkpt lat="42.70149" lon="1.26249">
        <ele>2161</ele>
        <time>2023-07-25T07:56:52.000Z</time>
      </trkpt>
      <trkpt lat="42.70149" lon="1.26248">
        <ele>2160.6000976562</ele>
        <time>2023-07-25T07:56:54.000Z</time>
      </trkpt>
      <trkpt lat="42.70148" lon="1.26243">
        <ele>2159.8000488281</ele>
        <time>2023-07-25T07:56:59.000Z</time>
      </trkpt>
      <trkpt lat="42.70148" lon="1.26242">
        <ele>2159.6000976562</ele>
        <time>2023-07-25T07:57:00.000Z</time>
      </trkpt>
      <trkpt lat="42.70148" lon="1.26232">
        <ele>2158.8000488281</ele>
        <time>2023-07-25T07:57:08.000Z</time>
      </trkpt>
      <trkpt lat="42.70148" lon="1.26232">
        <ele>2158.8000488281</ele>
        <time>2023-07-25T07:57:09.000Z</time>
      </trkpt>
      <trkpt lat="42.70146" lon="1.26231">
        <ele>2157.8000488281</ele>
        <time>2023-07-25T07:57:15.000Z</time>
      </trkpt>
      <trkpt lat="42.70146" lon="1.26231">
        <ele>2157.6000976562</ele>
        <time>2023-07-25T07:57:16.000Z</time>
      </trkpt>
      <trkpt lat="42.70146" lon="1.26228">
        <ele>2157.3999023438</ele>
        <time>2023-07-25T07:57:23.000Z</time>
      </trkpt>
      <trkpt lat="42.70149" lon="1.26228">
        <ele>2157.3999023438</ele>
        <time>2023-07-25T07:57:30.000Z</time>
      </trkpt>
      <trkpt lat="42.70151" lon="1.2623">
        <ele>2157.1999511719</ele>
        <time>2023-07-25T07:57:39.000Z</time>
      </trkpt>
      <trkpt lat="42.70151" lon="1.26229">
        <ele>2157</ele>
        <time>2023-07-25T07:57:47.000Z</time>
      </trkpt>
      <trkpt lat="42.70148" lon="1.26224">
        <ele>2156.8000488281</ele>
        <time>2023-07-25T07:57:54.000Z</time>
      </trkpt>
      <trkpt lat="42.70145" lon="1.26216">
        <ele>2156.8000488281</ele>
        <time>2023-07-25T07:57:59.000Z</time>
      </trkpt>
      <trkpt lat="42.70143" lon="1.26212">
        <ele>2156.3999023438</ele>
        <time>2023-07-25T07:58:02.000Z</time>
      </trkpt>
      <trkpt lat="42.70142" lon="1.2621">
        <ele>2155.6000976562</ele>
        <time>2023-07-25T07:58:07.000Z</time>
      </trkpt>
      <trkpt lat="42.70141" lon="1.26208">
        <ele>2155</ele>
        <time>2023-07-25T07:58:10.000Z</time>
      </trkpt>
      <trkpt lat="42.7014" lon="1.26205">
        <ele>2154.6000976562</ele>
        <time>2023-07-25T07:58:12.000Z</time>
      </trkpt>
      <trkpt lat="42.70138" lon="1.26198">
        <ele>2153.6000976562</ele>
        <time>2023-07-25T07:58:17.000Z</time>
      </trkpt>
      <trkpt lat="42.70137" lon="1.26196">
        <ele>2153.6000976562</ele>
        <time>2023-07-25T07:58:18.000Z</time>
      </trkpt>
      <trkpt lat="42.70135" lon="1.26189">
        <ele>2152.6000976562</ele>
        <time>2023-07-25T07:58:24.000Z</time>
      </trkpt>
      <trkpt lat="42.70135" lon="1.26189">
        <ele>2152.3999023438</ele>
        <time>2023-07-25T07:58:25.000Z</time>
      </trkpt>
      <trkpt lat="42.70133" lon="1.26187">
        <ele>2152</ele>
        <time>2023-07-25T07:58:31.000Z</time>
      </trkpt>
      <trkpt lat="42.70127" lon="1.26183">
        <ele>2152.6000976562</ele>
        <time>2023-07-25T07:58:39.000Z</time>
      </trkpt>
      <trkpt lat="42.70126" lon="1.26183">
        <ele>2152.6000976562</ele>
        <time>2023-07-25T07:58:46.000Z</time>
      </trkpt>
      <trkpt lat="42.70129" lon="1.26183">
        <ele>2152.6000976562</ele>
        <time>2023-07-25T07:58:53.000Z</time>
      </trkpt>
      <trkpt lat="42.70131" lon="1.26182">
        <ele>2152.3999023438</ele>
        <time>2023-07-25T07:59:02.000Z</time>
      </trkpt>
      <trkpt lat="42.70134" lon="1.2618">
        <ele>2152</ele>
        <time>2023-07-25T07:59:09.000Z</time>
      </trkpt>
      <trkpt lat="42.70131" lon="1.26176">
        <ele>2151.3999023438</ele>
        <time>2023-07-25T07:59:14.000Z</time>
      </trkpt>
      <trkpt lat="42.70131" lon="1.26174">
        <ele>2151.1999511719</ele>
        <time>2023-07-25T07:59:16.000Z</time>
      </trkpt>
      <trkpt lat="42.70133" lon="1.26166">
        <ele>2150.6000976562</ele>
        <time>2023-07-25T07:59:22.000Z</time>
      </trkpt>
      <trkpt lat="42.70133" lon="1.26159">
        <ele>2150.6000976562</ele>
        <time>2023-07-25T07:59:28.000Z</time>
      </trkpt>
      <trkpt lat="42.70132" lon="1.26155">
        <ele>2151.8000488281</ele>
        <time>2023-07-25T07:59:35.000Z</time>
      </trkpt>
      <trkpt lat="42.70131" lon="1.26153">
        <ele>2152.3999023438</ele>
        <time>2023-07-25T07:59:38.000Z</time>
      </trkpt>
      <trkpt lat="42.7013" lon="1.26148">
        <ele>2152.3999023438</ele>
        <time>2023-07-25T07:59:42.000Z</time>
      </trkpt>
      <trkpt lat="42.7013" lon="1.26139">
        <ele>2153.1999511719</ele>
        <time>2023-07-25T07:59:51.000Z</time>
      </trkpt>
      <trkpt lat="42.70134" lon="1.26132">
        <ele>2153.3999023438</ele>
        <time>2023-07-25T07:59:59.000Z</time>
      </trkpt>
      <trkpt lat="42.70135" lon="1.2613">
        <ele>2153.3999023438</ele>
        <time>2023-07-25T08:00:00.000Z</time>
      </trkpt>
      <trkpt lat="42.70138" lon="1.26124">
        <ele>2154.3999023438</ele>
        <time>2023-07-25T08:00:06.000Z</time>
      </trkpt>
      <trkpt lat="42.70138" lon="1.26123">
        <ele>2154.6000976562</ele>
        <time>2023-07-25T08:00:07.000Z</time>
      </trkpt>
      <trkpt lat="42.70139" lon="1.26121">
        <ele>2155.1999511719</ele>
        <time>2023-07-25T08:00:13.000Z</time>
      </trkpt>
      <trkpt lat="42.70138" lon="1.26121">
        <ele>2155.1999511719</ele>
        <time>2023-07-25T08:00:22.000Z</time>
      </trkpt>
      <trkpt lat="42.70139" lon="1.26123">
        <ele>2155.1999511719</ele>
        <time>2023-07-25T08:00:32.000Z</time>
      </trkpt>
      <trkpt lat="42.70138" lon="1.26119">
        <ele>2155.3999023438</ele>
        <time>2023-07-25T08:00:41.000Z</time>
      </trkpt>
      <trkpt lat="42.7014" lon="1.26122">
        <ele>2155.3999023438</ele>
        <time>2023-07-25T08:00:48.000Z</time>
      </trkpt>
      <trkpt lat="42.70145" lon="1.26123">
        <ele>2155.1999511719</ele>
        <time>2023-07-25T08:00:55.000Z</time>
      </trkpt>
      <trkpt lat="42.70147" lon="1.26125">
        <ele>2155.6000976562</ele>
        <time>2023-07-25T08:00:59.000Z</time>
      </trkpt>
      <trkpt lat="42.70147" lon="1.26127">
        <ele>2156</ele>
        <time>2023-07-25T08:01:03.000Z</time>
      </trkpt>
      <trkpt lat="42.7015" lon="1.26133">
        <ele>2155.8000488281</ele>
        <time>2023-07-25T08:01:12.000Z</time>
      </trkpt>
      <trkpt lat="42.70154" lon="1.26133">
        <ele>2155</ele>
        <time>2023-07-25T08:01:20.000Z</time>
      </trkpt>
      <trkpt lat="42.70153" lon="1.2613">
        <ele>2154.3999023438</ele>
        <time>2023-07-25T08:01:24.000Z</time>
      </trkpt>
      <trkpt lat="42.70154" lon="1.26129">
        <ele>2154.1999511719</ele>
        <time>2023-07-25T08:01:27.000Z</time>
      </trkpt>
      <trkpt lat="42.70155" lon="1.26133">
        <ele>2153.3999023438</ele>
        <time>2023-07-25T08:01:33.000Z</time>
      </trkpt>
      <trkpt lat="42.70156" lon="1.26134">
        <ele>2153.1999511719</ele>
        <time>2023-07-25T08:01:34.000Z</time>
      </trkpt>
      <trkpt lat="42.70162" lon="1.26136">
        <ele>2152.6000976562</ele>
        <time>2023-07-25T08:01:42.000Z</time>
      </trkpt>
      <trkpt lat="42.70163" lon="1.26136">
        <ele>2152.1999511719</ele>
        <time>2023-07-25T08:01:47.000Z</time>
      </trkpt>
      <trkpt lat="42.70163" lon="1.26138">
        <ele>2152</ele>
        <time>2023-07-25T08:01:50.000Z</time>
      </trkpt>
      <trkpt lat="42.70167" lon="1.26139">
        <ele>2151.8000488281</ele>
        <time>2023-07-25T08:02:01.000Z</time>
      </trkpt>
      <trkpt lat="42.70163" lon="1.26137">
        <ele>2151.6000976562</ele>
        <time>2023-07-25T08:02:11.000Z</time>
      </trkpt>
      <trkpt lat="42.70161" lon="1.26135">
        <ele>2151.3999023438</ele>
        <time>2023-07-25T08:02:20.000Z</time>
      </trkpt>
      <trkpt lat="42.70162" lon="1.26133">
        <ele>2151.6000976562</ele>
        <time>2023-07-25T08:02:27.000Z</time>
      </trkpt>
      <trkpt lat="42.70165" lon="1.26132">
        <ele>2151.1999511719</ele>
        <time>2023-07-25T08:02:32.000Z</time>
      </trkpt>
      <trkpt lat="42.70164" lon="1.26132">
        <ele>2151</ele>
        <time>2023-07-25T08:02:34.000Z</time>
      </trkpt>
      <trkpt lat="42.70163" lon="1.26135">
        <ele>2151.1999511719</ele>
        <time>2023-07-25T08:02:41.000Z</time>
      </trkpt>
      <trkpt lat="42.7016" lon="1.26133">
        <ele>2151.3999023438</ele>
        <time>2023-07-25T08:02:48.000Z</time>
      </trkpt>
      <trkpt lat="42.70153" lon="1.26133">
        <ele>2151.6000976562</ele>
        <time>2023-07-25T08:02:55.000Z</time>
      </trkpt>
      <trkpt lat="42.70153" lon="1.26136">
        <ele>2152</ele>
        <time>2023-07-25T08:03:08.000Z</time>
      </trkpt>
      <trkpt lat="42.70157" lon="1.26129">
        <ele>2152.1999511719</ele>
        <time>2023-07-25T08:03:21.000Z</time>
      </trkpt>
      <trkpt lat="42.70154" lon="1.26126">
        <ele>2153.1999511719</ele>
        <time>2023-07-25T08:03:28.000Z</time>
      </trkpt>
      <trkpt lat="42.70152" lon="1.26131">
        <ele>2154.1999511719</ele>
        <time>2023-07-25T08:03:34.000Z</time>
      </trkpt>
      <trkpt lat="42.70152" lon="1.26132">
        <ele>2154.3999023438</ele>
        <time>2023-07-25T08:03:35.000Z</time>
      </trkpt>
      <trkpt lat="42.70148" lon="1.26133">
        <ele>2155.3999023438</ele>
        <time>2023-07-25T08:03:42.000Z</time>
      </trkpt>
      <trkpt lat="42.70147" lon="1.2613">
        <ele>2154.3999023438</ele>
        <time>2023-07-25T08:03:47.000Z</time>
      </trkpt>
      <trkpt lat="42.70146" lon="1.26128">
        <ele>2154</ele>
        <time>2023-07-25T08:03:50.000Z</time>
      </trkpt>
      <trkpt lat="42.70145" lon="1.26129">
        <ele>2153.6000976562</ele>
        <time>2023-07-25T08:03:53.000Z</time>
      </trkpt>
      <trkpt lat="42.70144" lon="1.2613">
        <ele>2153.3999023438</ele>
        <time>2023-07-25T08:03:54.000Z</time>
      </trkpt>
      <trkpt lat="42.70143" lon="1.26133">
        <ele>2152.8000488281</ele>
        <time>2023-07-25T08:03:57.000Z</time>
      </trkpt>
      <trkpt lat="42.70142" lon="1.26137">
        <ele>2152.1999511719</ele>
        <time>2023-07-25T08:04:00.000Z</time>
      </trkpt>
      <trkpt lat="42.70142" lon="1.26141">
        <ele>2151.3999023438</ele>
        <time>2023-07-25T08:04:05.000Z</time>
      </trkpt>
      <trkpt lat="42.70142" lon="1.26142">
        <ele>2151.1999511719</ele>
        <time>2023-07-25T08:04:06.000Z</time>
      </trkpt>
      <trkpt lat="42.70138" lon="1.26146">
        <ele>2150.1999511719</ele>
        <time>2023-07-25T08:04:12.000Z</time>
      </trkpt>
      <trkpt lat="42.70138" lon="1.26147">
        <ele>2150</ele>
        <time>2023-07-25T08:04:13.000Z</time>
      </trkpt>
      <trkpt lat="42.70135" lon="1.26148">
        <ele>2150</ele>
        <time>2023-07-25T08:04:17.000Z</time>
      </trkpt>
      <trkpt lat="42.70134" lon="1.26146">
        <ele>2150</ele>
        <time>2023-07-25T08:04:21.000Z</time>
      </trkpt>
      <trkpt lat="42.70134" lon="1.26148">
        <ele>2150</ele>
        <time>2023-07-25T08:04:26.000Z</time>
      </trkpt>
      <trkpt lat="42.70131" lon="1.26149">
        <ele>2150</ele>
        <time>2023-07-25T08:04:32.000Z</time>
      </trkpt>
      <trkpt lat="42.70128" lon="1.26147">
        <ele>2150</ele>
        <time>2023-07-25T08:04:39.000Z</time>
      </trkpt>
      <trkpt lat="42.70128" lon="1.26148">
        <ele>2150</ele>
        <time>2023-07-25T08:04:46.000Z</time>
      </trkpt>
      <trkpt lat="42.70129" lon="1.26148">
        <ele>2150</ele>
        <time>2023-07-25T08:04:56.000Z</time>
      </trkpt>
      <trkpt lat="42.7013" lon="1.26147">
        <ele>2150</ele>
        <time>2023-07-25T08:05:02.000Z</time>
      </trkpt>
      <trkpt lat="42.7013" lon="1.26147">
        <ele>2149.8000488281</ele>
        <time>2023-07-25T08:05:09.000Z</time>
      </trkpt>
      <trkpt lat="42.70132" lon="1.26148">
        <ele>2149.6000976562</ele>
        <time>2023-07-25T08:05:19.000Z</time>
      </trkpt>
      <trkpt lat="42.70132" lon="1.26147">
        <ele>2149.8000488281</ele>
        <time>2023-07-25T08:05:28.000Z</time>
      </trkpt>
      <trkpt lat="42.70133" lon="1.26146">
        <ele>2149.8000488281</ele>
        <time>2023-07-25T08:05:35.000Z</time>
      </trkpt>
      <trkpt lat="42.70131" lon="1.26146">
        <ele>2149.8000488281</ele>
        <time>2023-07-25T08:05:44.000Z</time>
      </trkpt>
      <trkpt lat="42.7013" lon="1.26151">
        <ele>2149.8000488281</ele>
        <time>2023-07-25T08:05:50.000Z</time>
      </trkpt>
      <trkpt lat="42.70133" lon="1.26149">
        <ele>2150</ele>
        <time>2023-07-25T08:05:58.000Z</time>
      </trkpt>
      <trkpt lat="42.70135" lon="1.26148">
        <ele>2150.1999511719</ele>
        <time>2023-07-25T08:06:05.000Z</time>
      </trkpt>
      <trkpt lat="42.70133" lon="1.26146">
        <ele>2150.3999023438</ele>
        <time>2023-07-25T08:06:12.000Z</time>
      </trkpt>
      <trkpt lat="42.7013" lon="1.26143">
        <ele>2150.1999511719</ele>
        <time>2023-07-25T08:06:18.000Z</time>
      </trkpt>
      <trkpt lat="42.70129" lon="1.26145">
        <ele>2150.1999511719</ele>
        <time>2023-07-25T08:06:26.000Z</time>
      </trkpt>
      <trkpt lat="42.7013" lon="1.26149">
        <ele>2150</ele>
        <time>2023-07-25T08:06:34.000Z</time>
      </trkpt>
      <trkpt lat="42.70128" lon="1.26147">
        <ele>2149.8000488281</ele>
        <time>2023-07-25T08:06:41.000Z</time>
      </trkpt>
      <trkpt lat="42.70131" lon="1.26149">
        <ele>2149.3999023438</ele>
        <time>2023-07-25T08:06:49.000Z</time>
      </trkpt>
      <trkpt lat="42.7013" lon="1.26151">
        <ele>2149.1999511719</ele>
        <time>2023-07-25T08:06:55.000Z</time>
      </trkpt>
      <trkpt lat="42.7013" lon="1.2615">
        <ele>2149</ele>
        <time>2023-07-25T08:07:00.000Z</time>
      </trkpt>
      <trkpt lat="42.70129" lon="1.26151">
        <ele>2148.8000488281</ele>
        <time>2023-07-25T08:07:04.000Z</time>
      </trkpt>
      <trkpt lat="42.7013" lon="1.26155">
        <ele>2148.3999023438</ele>
        <time>2023-07-25T08:07:11.000Z</time>
      </trkpt>
      <trkpt lat="42.70131" lon="1.26151">
        <ele>2148.6000976562</ele>
        <time>2023-07-25T08:07:17.000Z</time>
      </trkpt>
      <trkpt lat="42.70129" lon="1.26149">
        <ele>2148.3999023438</ele>
        <time>2023-07-25T08:07:26.000Z</time>
      </trkpt>
      <trkpt lat="42.70131" lon="1.26153">
        <ele>2148</ele>
        <time>2023-07-25T08:07:37.000Z</time>
      </trkpt>
      <trkpt lat="42.70131" lon="1.26152">
        <ele>2148</ele>
        <time>2023-07-25T08:07:46.000Z</time>
      </trkpt>
      <trkpt lat="42.70131" lon="1.26151">
        <ele>2148</ele>
        <time>2023-07-25T08:07:47.000Z</time>
      </trkpt>
      <trkpt lat="42.7013" lon="1.26152">
        <ele>2147.6000976562</ele>
        <time>2023-07-25T08:07:54.000Z</time>
      </trkpt>
      <trkpt lat="42.7013" lon="1.26154">
        <ele>2147.8000488281</ele>
        <time>2023-07-25T08:08:04.000Z</time>
      </trkpt>
      <trkpt lat="42.70134" lon="1.26154">
        <ele>2147.6000976562</ele>
        <time>2023-07-25T08:08:12.000Z</time>
      </trkpt>
      <trkpt lat="42.70136" lon="1.26154">
        <ele>2147.3999023438</ele>
        <time>2023-07-25T08:08:22.000Z</time>
      </trkpt>
      <trkpt lat="42.70134" lon="1.26154">
        <ele>2147.1999511719</ele>
        <time>2023-07-25T08:08:29.000Z</time>
      </trkpt>
      <trkpt lat="42.70132" lon="1.26151">
        <ele>2146.8000488281</ele>
        <time>2023-07-25T08:08:35.000Z</time>
      </trkpt>
      <trkpt lat="42.70132" lon="1.2615">
        <ele>2146.8000488281</ele>
        <time>2023-07-25T08:08:36.000Z</time>
      </trkpt>
      <trkpt lat="42.70131" lon="1.26142">
        <ele>2147</ele>
        <time>2023-07-25T08:08:43.000Z</time>
      </trkpt>
      <trkpt lat="42.70129" lon="1.26135">
        <ele>2147.8000488281</ele>
        <time>2023-07-25T08:08:48.000Z</time>
      </trkpt>
      <trkpt lat="42.70127" lon="1.26133">
        <ele>2148</ele>
        <time>2023-07-25T08:08:50.000Z</time>
      </trkpt>
      <trkpt lat="42.70124" lon="1.2613">
        <ele>2148.1999511719</ele>
        <time>2023-07-25T08:08:57.000Z</time>
      </trkpt>
      <trkpt lat="42.70124" lon="1.26128">
        <ele>2148.6000976562</ele>
        <time>2023-07-25T08:09:06.000Z</time>
      </trkpt>
      <trkpt lat="42.70118" lon="1.26128">
        <ele>2147.3999023438</ele>
        <time>2023-07-25T08:09:13.000Z</time>
      </trkpt>
      <trkpt lat="42.70116" lon="1.2613">
        <ele>2146.6000976562</ele>
        <time>2023-07-25T08:09:16.000Z</time>
      </trkpt>
      <trkpt lat="42.70116" lon="1.26134">
        <ele>2146.1999511719</ele>
        <time>2023-07-25T08:09:19.000Z</time>
      </trkpt>
      <trkpt lat="42.70118" lon="1.26139">
        <ele>2146</ele>
        <time>2023-07-25T08:09:24.000Z</time>
      </trkpt>
      <trkpt lat="42.7012" lon="1.26141">
        <ele>2145.8000488281</ele>
        <time>2023-07-25T08:09:33.000Z</time>
      </trkpt>
      <trkpt lat="42.70119" lon="1.26143">
        <ele>2145.6000976562</ele>
        <time>2023-07-25T08:09:37.000Z</time>
      </trkpt>
      <trkpt lat="42.7012" lon="1.2614">
        <ele>2145.8000488281</ele>
        <time>2023-07-25T08:09:44.000Z</time>
      </trkpt>
      <trkpt lat="42.70117" lon="1.26141">
        <ele>2145.8000488281</ele>
        <time>2023-07-25T08:09:51.000Z</time>
      </trkpt>
      <trkpt lat="42.70112" lon="1.26141">
        <ele>2144.6000976562</ele>
        <time>2023-07-25T08:09:57.000Z</time>
      </trkpt>
      <trkpt lat="42.70112" lon="1.26141">
        <ele>2144.1999511719</ele>
        <time>2023-07-25T08:09:58.000Z</time>
      </trkpt>
      <trkpt lat="42.70111" lon="1.26142">
        <ele>2143.6000976562</ele>
        <time>2023-07-25T08:10:02.000Z</time>
      </trkpt>
      <trkpt lat="42.7011" lon="1.2614">
        <ele>2142.8000488281</ele>
        <time>2023-07-25T08:10:06.000Z</time>
      </trkpt>
      <trkpt lat="42.70109" lon="1.26137">
        <ele>2142.3999023438</ele>
        <time>2023-07-25T08:10:09.000Z</time>
      </trkpt>
      <trkpt lat="42.70108" lon="1.26135">
        <ele>2142</ele>
        <time>2023-07-25T08:10:12.000Z</time>
      </trkpt>
      <trkpt lat="42.70104" lon="1.2613">
        <ele>2141.3999023438</ele>
        <time>2023-07-25T08:10:18.000Z</time>
      </trkpt>
      <trkpt lat="42.70104" lon="1.26129">
        <ele>2141.3999023438</ele>
        <time>2023-07-25T08:10:19.000Z</time>
      </trkpt>
      <trkpt lat="42.70102" lon="1.2613">
        <ele>2140.1999511719</ele>
        <time>2023-07-25T08:10:25.000Z</time>
      </trkpt>
      <trkpt lat="42.70102" lon="1.26129">
        <ele>2139.8000488281</ele>
        <time>2023-07-25T08:10:27.000Z</time>
      </trkpt>
      <trkpt lat="42.70101" lon="1.26125">
        <ele>2139.1999511719</ele>
        <time>2023-07-25T08:10:30.000Z</time>
      </trkpt>
      <trkpt lat="42.701" lon="1.26122">
        <ele>2138.3999023438</ele>
        <time>2023-07-25T08:10:34.000Z</time>
      </trkpt>
      <trkpt lat="42.70099" lon="1.26121">
        <ele>2138.1999511719</ele>
        <time>2023-07-25T08:10:36.000Z</time>
      </trkpt>
      <trkpt lat="42.70097" lon="1.2612">
        <ele>2137.3999023438</ele>
        <time>2023-07-25T08:10:40.000Z</time>
      </trkpt>
      <trkpt lat="42.70096" lon="1.2612">
        <ele>2136.8000488281</ele>
        <time>2023-07-25T08:10:42.000Z</time>
      </trkpt>
      <trkpt lat="42.70098" lon="1.26122">
        <ele>2136.6000976562</ele>
        <time>2023-07-25T08:10:44.000Z</time>
      </trkpt>
      <trkpt lat="42.70099" lon="1.26125">
        <ele>2136.3999023438</ele>
        <time>2023-07-25T08:10:47.000Z</time>
      </trkpt>
      <trkpt lat="42.70099" lon="1.26127">
        <ele>2136.1999511719</ele>
        <time>2023-07-25T08:10:48.000Z</time>
      </trkpt>
      <trkpt lat="42.70098" lon="1.26128">
        <ele>2135.8000488281</ele>
        <time>2023-07-25T08:10:50.000Z</time>
      </trkpt>
      <trkpt lat="42.70097" lon="1.26128">
        <ele>2135.3999023438</ele>
        <time>2023-07-25T08:10:53.000Z</time>
      </trkpt>
      <trkpt lat="42.70096" lon="1.26129">
        <ele>2135</ele>
        <time>2023-07-25T08:10:55.000Z</time>
      </trkpt>
      <trkpt lat="42.70095" lon="1.26129">
        <ele>2134.8000488281</ele>
        <time>2023-07-25T08:10:57.000Z</time>
      </trkpt>
      <trkpt lat="42.70094" lon="1.26128">
        <ele>2134.6000976562</ele>
        <time>2023-07-25T08:10:58.000Z</time>
      </trkpt>
      <trkpt lat="42.70094" lon="1.26127">
        <ele>2134.3999023438</ele>
        <time>2023-07-25T08:11:00.000Z</time>
      </trkpt>
      <trkpt lat="42.70093" lon="1.26124">
        <ele>2133.8000488281</ele>
        <time>2023-07-25T08:11:08.000Z</time>
      </trkpt>
      <trkpt lat="42.70093" lon="1.26125">
        <ele>2133.6000976562</ele>
        <time>2023-07-25T08:11:11.000Z</time>
      </trkpt>
      <trkpt lat="42.70093" lon="1.26125">
        <ele>2133.3999023438</ele>
        <time>2023-07-25T08:11:14.000Z</time>
      </trkpt>
      <trkpt lat="42.70092" lon="1.26123">
        <ele>2133.1999511719</ele>
        <time>2023-07-25T08:11:22.000Z</time>
      </trkpt>
      <trkpt lat="42.70092" lon="1.26118">
        <ele>2132.6000976562</ele>
        <time>2023-07-25T08:11:30.000Z</time>
      </trkpt>
      <trkpt lat="42.70092" lon="1.26118">
        <ele>2132.6000976562</ele>
        <time>2023-07-25T08:11:32.000Z</time>
      </trkpt>
      <trkpt lat="42.70092" lon="1.26117">
        <ele>2132.1999511719</ele>
        <time>2023-07-25T08:11:40.000Z</time>
      </trkpt>
      <trkpt lat="42.70092" lon="1.26113">
        <ele>2132.1999511719</ele>
        <time>2023-07-25T08:11:46.000Z</time>
      </trkpt>
      <trkpt lat="42.7009" lon="1.26115">
        <ele>2131.8000488281</ele>
        <time>2023-07-25T08:11:54.000Z</time>
      </trkpt>
      <trkpt lat="42.7009" lon="1.26116">
        <ele>2131.3999023438</ele>
        <time>2023-07-25T08:11:55.000Z</time>
      </trkpt>
      <trkpt lat="42.70089" lon="1.26119">
        <ele>2130.3999023438</ele>
        <time>2023-07-25T08:11:58.000Z</time>
      </trkpt>
      <trkpt lat="42.70089" lon="1.26121">
        <ele>2129.1999511719</ele>
        <time>2023-07-25T08:12:02.000Z</time>
      </trkpt>
      <trkpt lat="42.70089" lon="1.26122">
        <ele>2129</ele>
        <time>2023-07-25T08:12:09.000Z</time>
      </trkpt>
      <trkpt lat="42.7009" lon="1.2612">
        <ele>2128.8000488281</ele>
        <time>2023-07-25T08:12:16.000Z</time>
      </trkpt>
      <trkpt lat="42.70089" lon="1.26115">
        <ele>2128.3999023438</ele>
        <time>2023-07-25T08:12:26.000Z</time>
      </trkpt>
      <trkpt lat="42.70086" lon="1.26116">
        <ele>2128.1999511719</ele>
        <time>2023-07-25T08:12:37.000Z</time>
      </trkpt>
      <trkpt lat="42.70083" lon="1.26117">
        <ele>2127.3999023438</ele>
        <time>2023-07-25T08:12:46.000Z</time>
      </trkpt>
      <trkpt lat="42.70082" lon="1.26116">
        <ele>2127.3999023438</ele>
        <time>2023-07-25T08:12:53.000Z</time>
      </trkpt>
      <trkpt lat="42.70085" lon="1.26115">
        <ele>2127.1999511719</ele>
        <time>2023-07-25T08:13:01.000Z</time>
      </trkpt>
      <trkpt lat="42.70085" lon="1.26112">
        <ele>2127.3999023438</ele>
        <time>2023-07-25T08:13:08.000Z</time>
      </trkpt>
      <trkpt lat="42.70086" lon="1.26111">
        <ele>2127</ele>
        <time>2023-07-25T08:13:16.000Z</time>
      </trkpt>
      <trkpt lat="42.70086" lon="1.26111">
        <ele>2126.8000488281</ele>
        <time>2023-07-25T08:13:17.000Z</time>
      </trkpt>
      <trkpt lat="42.70085" lon="1.26108">
        <ele>2126.6000976562</ele>
        <time>2023-07-25T08:13:24.000Z</time>
      </trkpt>
      <trkpt lat="42.70084" lon="1.26108">
        <ele>2126.3999023438</ele>
        <time>2023-07-25T08:13:31.000Z</time>
      </trkpt>
      <trkpt lat="42.70084" lon="1.26107">
        <ele>2125.8000488281</ele>
        <time>2023-07-25T08:13:39.000Z</time>
      </trkpt>
      <trkpt lat="42.70084" lon="1.26107">
        <ele>2125.6000976562</ele>
        <time>2023-07-25T08:13:41.000Z</time>
      </trkpt>
      <trkpt lat="42.7008" lon="1.26104">
        <ele>2124.8000488281</ele>
        <time>2023-07-25T08:13:48.000Z</time>
      </trkpt>
      <trkpt lat="42.70082" lon="1.26105">
        <ele>2124</ele>
        <time>2023-07-25T08:13:56.000Z</time>
      </trkpt>
      <trkpt lat="42.70082" lon="1.26105">
        <ele>2123.8000488281</ele>
        <time>2023-07-25T08:13:59.000Z</time>
      </trkpt>
      <trkpt lat="42.7008" lon="1.26103">
        <ele>2122.8000488281</ele>
        <time>2023-07-25T08:14:04.000Z</time>
      </trkpt>
      <trkpt lat="42.7008" lon="1.26104">
        <ele>2122.6000976562</ele>
        <time>2023-07-25T08:14:07.000Z</time>
      </trkpt>
      <trkpt lat="42.70078" lon="1.26106">
        <ele>2121.8000488281</ele>
        <time>2023-07-25T08:14:12.000Z</time>
      </trkpt>
      <trkpt lat="42.70077" lon="1.26106">
        <ele>2121.3999023438</ele>
        <time>2023-07-25T08:14:13.000Z</time>
      </trkpt>
      <trkpt lat="42.70076" lon="1.26103">
        <ele>2120.1999511719</ele>
        <time>2023-07-25T08:14:20.000Z</time>
      </trkpt>
      <trkpt lat="42.70075" lon="1.26103">
        <ele>2120</ele>
        <time>2023-07-25T08:14:21.000Z</time>
      </trkpt>
      <trkpt lat="42.70074" lon="1.26102">
        <ele>2119.1999511719</ele>
        <time>2023-07-25T08:14:25.000Z</time>
      </trkpt>
      <trkpt lat="42.70074" lon="1.26102">
        <ele>2118.6000976562</ele>
        <time>2023-07-25T08:14:27.000Z</time>
      </trkpt>
      <trkpt lat="42.70074" lon="1.26101">
        <ele>2118.1999511719</ele>
        <time>2023-07-25T08:14:29.000Z</time>
      </trkpt>
      <trkpt lat="42.70071" lon="1.26099">
        <ele>2116.8000488281</ele>
        <time>2023-07-25T08:14:34.000Z</time>
      </trkpt>
      <trkpt lat="42.70071" lon="1.26099">
        <ele>2116.3999023438</ele>
        <time>2023-07-25T08:14:36.000Z</time>
      </trkpt>
      <trkpt lat="42.70069" lon="1.261">
        <ele>2115.6000976562</ele>
        <time>2023-07-25T08:14:43.000Z</time>
      </trkpt>
      <trkpt lat="42.70066" lon="1.26098">
        <ele>2114.3999023438</ele>
        <time>2023-07-25T08:14:48.000Z</time>
      </trkpt>
      <trkpt lat="42.70065" lon="1.26096">
        <ele>2113.8000488281</ele>
        <time>2023-07-25T08:14:50.000Z</time>
      </trkpt>
      <trkpt lat="42.70064" lon="1.26092">
        <ele>2113.1999511719</ele>
        <time>2023-07-25T08:14:53.000Z</time>
      </trkpt>
      <trkpt lat="42.70063" lon="1.26091">
        <ele>2112.6000976562</ele>
        <time>2023-07-25T08:14:57.000Z</time>
      </trkpt>
      <trkpt lat="42.70062" lon="1.26089">
        <ele>2112</ele>
        <time>2023-07-25T08:15:00.000Z</time>
      </trkpt>
      <trkpt lat="42.70062" lon="1.26091">
        <ele>2110.8000488281</ele>
        <time>2023-07-25T08:15:04.000Z</time>
      </trkpt>
      <trkpt lat="42.7006" lon="1.26093">
        <ele>2109.8000488281</ele>
        <time>2023-07-25T08:15:10.000Z</time>
      </trkpt>
      <trkpt lat="42.7006" lon="1.26092">
        <ele>2109.3999023438</ele>
        <time>2023-07-25T08:15:12.000Z</time>
      </trkpt>
      <trkpt lat="42.70059" lon="1.26088">
        <ele>2108.6000976562</ele>
        <time>2023-07-25T08:15:17.000Z</time>
      </trkpt>
      <trkpt lat="42.70057" lon="1.26088">
        <ele>2108</ele>
        <time>2023-07-25T08:15:20.000Z</time>
      </trkpt>
      <trkpt lat="42.70055" lon="1.26087">
        <ele>2107.3999023438</ele>
        <time>2023-07-25T08:15:23.000Z</time>
      </trkpt>
      <trkpt lat="42.70054" lon="1.26088">
        <ele>2106.8000488281</ele>
        <time>2023-07-25T08:15:26.000Z</time>
      </trkpt>
      <trkpt lat="42.70054" lon="1.26092">
        <ele>2106.1999511719</ele>
        <time>2023-07-25T08:15:29.000Z</time>
      </trkpt>
      <trkpt lat="42.70051" lon="1.26092">
        <ele>2105</ele>
        <time>2023-07-25T08:15:33.000Z</time>
      </trkpt>
      <trkpt lat="42.70051" lon="1.26092">
        <ele>2104.8000488281</ele>
        <time>2023-07-25T08:15:34.000Z</time>
      </trkpt>
      <trkpt lat="42.70048" lon="1.26094">
        <ele>2104</ele>
        <time>2023-07-25T08:15:39.000Z</time>
      </trkpt>
      <trkpt lat="42.70048" lon="1.26095">
        <ele>2103</ele>
        <time>2023-07-25T08:15:43.000Z</time>
      </trkpt>
      <trkpt lat="42.70048" lon="1.26096">
        <ele>2103</ele>
        <time>2023-07-25T08:15:44.000Z</time>
      </trkpt>
      <trkpt lat="42.70046" lon="1.26099">
        <ele>2101.8000488281</ele>
        <time>2023-07-25T08:15:50.000Z</time>
      </trkpt>
      <trkpt lat="42.70046" lon="1.26101">
        <ele>2101.3999023438</ele>
        <time>2023-07-25T08:15:51.000Z</time>
      </trkpt>
      <trkpt lat="42.70044" lon="1.26102">
        <ele>2100.3999023438</ele>
        <time>2023-07-25T08:15:56.000Z</time>
      </trkpt>
      <trkpt lat="42.70044" lon="1.26103">
        <ele>2100.1999511719</ele>
        <time>2023-07-25T08:15:57.000Z</time>
      </trkpt>
      <trkpt lat="42.70042" lon="1.26106">
        <ele>2099.3999023438</ele>
        <time>2023-07-25T08:16:02.000Z</time>
      </trkpt>
      <trkpt lat="42.70042" lon="1.26108">
        <ele>2099</ele>
        <time>2023-07-25T08:16:04.000Z</time>
      </trkpt>
      <trkpt lat="42.70042" lon="1.2611">
        <ele>2098.1999511719</ele>
        <time>2023-07-25T08:16:07.000Z</time>
      </trkpt>
      <trkpt lat="42.70041" lon="1.26113">
        <ele>2097.1999511719</ele>
        <time>2023-07-25T08:16:10.000Z</time>
      </trkpt>
      <trkpt lat="42.70041" lon="1.26118">
        <ele>2096.1999511719</ele>
        <time>2023-07-25T08:16:15.000Z</time>
      </trkpt>
      <trkpt lat="42.70041" lon="1.26119">
        <ele>2096</ele>
        <time>2023-07-25T08:16:16.000Z</time>
      </trkpt>
      <trkpt lat="42.7004" lon="1.26122">
        <ele>2094.8000488281</ele>
        <time>2023-07-25T08:16:22.000Z</time>
      </trkpt>
      <trkpt lat="42.70038" lon="1.26123">
        <ele>2093.8000488281</ele>
        <time>2023-07-25T08:16:27.000Z</time>
      </trkpt>
      <trkpt lat="42.70037" lon="1.26123">
        <ele>2093.6000976562</ele>
        <time>2023-07-25T08:16:28.000Z</time>
      </trkpt>
      <trkpt lat="42.70034" lon="1.26124">
        <ele>2092.8000488281</ele>
        <time>2023-07-25T08:16:32.000Z</time>
      </trkpt>
      <trkpt lat="42.70034" lon="1.26126">
        <ele>2092.1999511719</ele>
        <time>2023-07-25T08:16:34.000Z</time>
      </trkpt>
      <trkpt lat="42.70034" lon="1.26128">
        <ele>2091.6000976562</ele>
        <time>2023-07-25T08:16:36.000Z</time>
      </trkpt>
      <trkpt lat="42.70034" lon="1.26133">
        <ele>2090.3999023438</ele>
        <time>2023-07-25T08:16:41.000Z</time>
      </trkpt>
      <trkpt lat="42.70034" lon="1.26134">
        <ele>2090.3999023438</ele>
        <time>2023-07-25T08:16:42.000Z</time>
      </trkpt>
      <trkpt lat="42.70034" lon="1.2614">
        <ele>2089.3999023438</ele>
        <time>2023-07-25T08:16:51.000Z</time>
      </trkpt>
      <trkpt lat="42.70032" lon="1.26141">
        <ele>2088.1999511719</ele>
        <time>2023-07-25T08:16:56.000Z</time>
      </trkpt>
      <trkpt lat="42.70032" lon="1.26142">
        <ele>2088</ele>
        <time>2023-07-25T08:16:58.000Z</time>
      </trkpt>
      <trkpt lat="42.70028" lon="1.26146">
        <ele>2087.1999511719</ele>
        <time>2023-07-25T08:17:03.000Z</time>
      </trkpt>
      <trkpt lat="42.70026" lon="1.26148">
        <ele>2086.3999023438</ele>
        <time>2023-07-25T08:17:08.000Z</time>
      </trkpt>
      <trkpt lat="42.70026" lon="1.26149">
        <ele>2086</ele>
        <time>2023-07-25T08:17:09.000Z</time>
      </trkpt>
      <trkpt lat="42.70023" lon="1.26152">
        <ele>2085.1999511719</ele>
        <time>2023-07-25T08:17:14.000Z</time>
      </trkpt>
      <trkpt lat="42.70023" lon="1.26152">
        <ele>2085</ele>
        <time>2023-07-25T08:17:16.000Z</time>
      </trkpt>
      <trkpt lat="42.70025" lon="1.26153">
        <ele>2083.8000488281</ele>
        <time>2023-07-25T08:17:22.000Z</time>
      </trkpt>
      <trkpt lat="42.70025" lon="1.26153">
        <ele>2083.6000976562</ele>
        <time>2023-07-25T08:17:23.000Z</time>
      </trkpt>
      <trkpt lat="42.70022" lon="1.26156">
        <ele>2082.8000488281</ele>
        <time>2023-07-25T08:17:29.000Z</time>
      </trkpt>
      <trkpt lat="42.7002" lon="1.26158">
        <ele>2082</ele>
        <time>2023-07-25T08:17:33.000Z</time>
      </trkpt>
      <trkpt lat="42.7002" lon="1.2616">
        <ele>2081.6000976562</ele>
        <time>2023-07-25T08:17:37.000Z</time>
      </trkpt>
      <trkpt lat="42.70019" lon="1.2616">
        <ele>2080.8000488281</ele>
        <time>2023-07-25T08:17:41.000Z</time>
      </trkpt>
      <trkpt lat="42.70018" lon="1.26159">
        <ele>2080.6000976562</ele>
        <time>2023-07-25T08:17:42.000Z</time>
      </trkpt>
      <trkpt lat="42.70016" lon="1.26154">
        <ele>2079.3999023438</ele>
        <time>2023-07-25T08:17:47.000Z</time>
      </trkpt>
      <trkpt lat="42.70015" lon="1.26151">
        <ele>2079.1999511719</ele>
        <time>2023-07-25T08:17:49.000Z</time>
      </trkpt>
      <trkpt lat="42.70014" lon="1.2615">
        <ele>2078.3999023438</ele>
        <time>2023-07-25T08:17:54.000Z</time>
      </trkpt>
      <trkpt lat="42.70014" lon="1.2615">
        <ele>2078.1999511719</ele>
        <time>2023-07-25T08:17:55.000Z</time>
      </trkpt>
      <trkpt lat="42.70011" lon="1.2615">
        <ele>2077.3999023438</ele>
        <time>2023-07-25T08:18:01.000Z</time>
      </trkpt>
      <trkpt lat="42.7001" lon="1.2615">
        <ele>2077.1999511719</ele>
        <time>2023-07-25T08:18:02.000Z</time>
      </trkpt>
      <trkpt lat="42.70009" lon="1.2615">
        <ele>2076.6000976562</ele>
        <time>2023-07-25T08:18:04.000Z</time>
      </trkpt>
      <trkpt lat="42.70008" lon="1.2615">
        <ele>2076</ele>
        <time>2023-07-25T08:18:06.000Z</time>
      </trkpt>
      <trkpt lat="42.70008" lon="1.26151">
        <ele>2075.8000488281</ele>
        <time>2023-07-25T08:18:07.000Z</time>
      </trkpt>
      <trkpt lat="42.70007" lon="1.26153">
        <ele>2075.1999511719</ele>
        <time>2023-07-25T08:18:11.000Z</time>
      </trkpt>
      <trkpt lat="42.70006" lon="1.26154">
        <ele>2074.8000488281</ele>
        <time>2023-07-25T08:18:12.000Z</time>
      </trkpt>
      <trkpt lat="42.70005" lon="1.26155">
        <ele>2073.8000488281</ele>
        <time>2023-07-25T08:18:18.000Z</time>
      </trkpt>
      <trkpt lat="42.70005" lon="1.26154">
        <ele>2073.6000976562</ele>
        <time>2023-07-25T08:18:19.000Z</time>
      </trkpt>
      <trkpt lat="42.70004" lon="1.26151">
        <ele>2072.6000976562</ele>
        <time>2023-07-25T08:18:24.000Z</time>
      </trkpt>
      <trkpt lat="42.70002" lon="1.26149">
        <ele>2072</ele>
        <time>2023-07-25T08:18:26.000Z</time>
      </trkpt>
      <trkpt lat="42.70001" lon="1.26144">
        <ele>2071.3999023438</ele>
        <time>2023-07-25T08:18:31.000Z</time>
      </trkpt>
      <trkpt lat="42.69999" lon="1.2614">
        <ele>2071</ele>
        <time>2023-07-25T08:18:36.000Z</time>
      </trkpt>
      <trkpt lat="42.69998" lon="1.26139">
        <ele>2070</ele>
        <time>2023-07-25T08:18:39.000Z</time>
      </trkpt>
      <trkpt lat="42.69998" lon="1.26138">
        <ele>2069.6000976562</ele>
        <time>2023-07-25T08:18:42.000Z</time>
      </trkpt>
      <trkpt lat="42.69997" lon="1.26136">
        <ele>2069</ele>
        <time>2023-07-25T08:18:44.000Z</time>
      </trkpt>
      <trkpt lat="42.69994" lon="1.26135">
        <ele>2068.1999511719</ele>
        <time>2023-07-25T08:18:50.000Z</time>
      </trkpt>
      <trkpt lat="42.69992" lon="1.26135">
        <ele>2068</ele>
        <time>2023-07-25T08:18:52.000Z</time>
      </trkpt>
      <trkpt lat="42.69989" lon="1.26135">
        <ele>2066.8000488281</ele>
        <time>2023-07-25T08:18:57.000Z</time>
      </trkpt>
      <trkpt lat="42.69988" lon="1.26135">
        <ele>2066</ele>
        <time>2023-07-25T08:18:59.000Z</time>
      </trkpt>
      <trkpt lat="42.69987" lon="1.26134">
        <ele>2065.3999023438</ele>
        <time>2023-07-25T08:19:01.000Z</time>
      </trkpt>
      <trkpt lat="42.69987" lon="1.26132">
        <ele>2064.1999511719</ele>
        <time>2023-07-25T08:19:06.000Z</time>
      </trkpt>
      <trkpt lat="42.69986" lon="1.2613">
        <ele>2063.1999511719</ele>
        <time>2023-07-25T08:19:12.000Z</time>
      </trkpt>
      <trkpt lat="42.69986" lon="1.2613">
        <ele>2062.8000488281</ele>
        <time>2023-07-25T08:19:13.000Z</time>
      </trkpt>
      <trkpt lat="42.69985" lon="1.26129">
        <ele>2062</ele>
        <time>2023-07-25T08:19:16.000Z</time>
      </trkpt>
      <trkpt lat="42.69984" lon="1.26128">
        <ele>2061.6000976562</ele>
        <time>2023-07-25T08:19:18.000Z</time>
      </trkpt>
      <trkpt lat="42.69984" lon="1.26126">
        <ele>2060.8000488281</ele>
        <time>2023-07-25T08:19:21.000Z</time>
      </trkpt>
      <trkpt lat="42.69984" lon="1.26125">
        <ele>2060.6000976562</ele>
        <time>2023-07-25T08:19:23.000Z</time>
      </trkpt>
      <trkpt lat="42.69984" lon="1.26122">
        <ele>2059.6000976562</ele>
        <time>2023-07-25T08:19:27.000Z</time>
      </trkpt>
      <trkpt lat="42.69982" lon="1.26116">
        <ele>2059</ele>
        <time>2023-07-25T08:19:31.000Z</time>
      </trkpt>
      <trkpt lat="42.69977" lon="1.26117">
        <ele>2058.8000488281</ele>
        <time>2023-07-25T08:19:38.000Z</time>
      </trkpt>
      <trkpt lat="42.69976" lon="1.26119">
        <ele>2058.6000976562</ele>
        <time>2023-07-25T08:19:42.000Z</time>
      </trkpt>
      <trkpt lat="42.69977" lon="1.26117">
        <ele>2058.3999023438</ele>
        <time>2023-07-25T08:19:46.000Z</time>
      </trkpt>
      <trkpt lat="42.69979" lon="1.26114">
        <ele>2058.3999023438</ele>
        <time>2023-07-25T08:19:53.000Z</time>
      </trkpt>
      <trkpt lat="42.69982" lon="1.26112">
        <ele>2057.8000488281</ele>
        <time>2023-07-25T08:20:01.000Z</time>
      </trkpt>
      <trkpt lat="42.69978" lon="1.26112">
        <ele>2057.8000488281</ele>
        <time>2023-07-25T08:20:08.000Z</time>
      </trkpt>
      <trkpt lat="42.6998" lon="1.26113">
        <ele>2058</ele>
        <time>2023-07-25T08:20:14.000Z</time>
      </trkpt>
      <trkpt lat="42.69982" lon="1.26107">
        <ele>2058.1999511719</ele>
        <time>2023-07-25T08:20:21.000Z</time>
      </trkpt>
      <trkpt lat="42.69983" lon="1.26107">
        <ele>2058.8000488281</ele>
        <time>2023-07-25T08:20:27.000Z</time>
      </trkpt>
      <trkpt lat="42.69983" lon="1.26103">
        <ele>2059.3999023438</ele>
        <time>2023-07-25T08:20:33.000Z</time>
      </trkpt>
      <trkpt lat="42.69983" lon="1.261">
        <ele>2059.6000976562</ele>
        <time>2023-07-25T08:20:37.000Z</time>
      </trkpt>
      <trkpt lat="42.69984" lon="1.26098">
        <ele>2059.8000488281</ele>
        <time>2023-07-25T08:20:40.000Z</time>
      </trkpt>
      <trkpt lat="42.69986" lon="1.26092">
        <ele>2059.6000976562</ele>
        <time>2023-07-25T08:20:47.000Z</time>
      </trkpt>
      <trkpt lat="42.69985" lon="1.26091">
        <ele>2060.6000976562</ele>
        <time>2023-07-25T08:20:52.000Z</time>
      </trkpt>
      <trkpt lat="42.69984" lon="1.2609">
        <ele>2061.6000976562</ele>
        <time>2023-07-25T08:20:56.000Z</time>
      </trkpt>
      <trkpt lat="42.69985" lon="1.26088">
        <ele>2061.8000488281</ele>
        <time>2023-07-25T08:20:57.000Z</time>
      </trkpt>
      <trkpt lat="42.69984" lon="1.26085">
        <ele>2061.8000488281</ele>
        <time>2023-07-25T08:21:02.000Z</time>
      </trkpt>
      <trkpt lat="42.69985" lon="1.26081">
        <ele>2060.8000488281</ele>
        <time>2023-07-25T08:21:09.000Z</time>
      </trkpt>
      <trkpt lat="42.69985" lon="1.26081">
        <ele>2060.6000976562</ele>
        <time>2023-07-25T08:21:11.000Z</time>
      </trkpt>
      <trkpt lat="42.69984" lon="1.2608">
        <ele>2060</ele>
        <time>2023-07-25T08:21:16.000Z</time>
      </trkpt>
      <trkpt lat="42.69985" lon="1.26078">
        <ele>2059.6000976562</ele>
        <time>2023-07-25T08:21:24.000Z</time>
      </trkpt>
      <trkpt lat="42.69981" lon="1.26075">
        <ele>2058.8000488281</ele>
        <time>2023-07-25T08:21:32.000Z</time>
      </trkpt>
      <trkpt lat="42.6998" lon="1.26076">
        <ele>2058.3999023438</ele>
        <time>2023-07-25T08:21:34.000Z</time>
      </trkpt>
      <trkpt lat="42.6998" lon="1.2608">
        <ele>2057.6000976562</ele>
        <time>2023-07-25T08:21:39.000Z</time>
      </trkpt>
      <trkpt lat="42.6998" lon="1.2608">
        <ele>2057.1999511719</ele>
        <time>2023-07-25T08:21:40.000Z</time>
      </trkpt>
      <trkpt lat="42.69978" lon="1.26078">
        <ele>2056.6000976562</ele>
        <time>2023-07-25T08:21:46.000Z</time>
      </trkpt>
      <trkpt lat="42.69978" lon="1.26079">
        <ele>2056</ele>
        <time>2023-07-25T08:21:48.000Z</time>
      </trkpt>
      <trkpt lat="42.69977" lon="1.26083">
        <ele>2055.6000976562</ele>
        <time>2023-07-25T08:21:52.000Z</time>
      </trkpt>
      <trkpt lat="42.69975" lon="1.26089">
        <ele>2055</ele>
        <time>2023-07-25T08:21:57.000Z</time>
      </trkpt>
      <trkpt lat="42.69974" lon="1.26091">
        <ele>2054</ele>
        <time>2023-07-25T08:22:00.000Z</time>
      </trkpt>
      <trkpt lat="42.69974" lon="1.26091">
        <ele>2053.8000488281</ele>
        <time>2023-07-25T08:22:01.000Z</time>
      </trkpt>
      <trkpt lat="42.69976" lon="1.26093">
        <ele>2052.6000976562</ele>
        <time>2023-07-25T08:22:06.000Z</time>
      </trkpt>
      <trkpt lat="42.69975" lon="1.26092">
        <ele>2051.1999511719</ele>
        <time>2023-07-25T08:22:12.000Z</time>
      </trkpt>
      <trkpt lat="42.69975" lon="1.26091">
        <ele>2050.8000488281</ele>
        <time>2023-07-25T08:22:13.000Z</time>
      </trkpt>
      <trkpt lat="42.69974" lon="1.26088">
        <ele>2050</ele>
        <time>2023-07-25T08:22:16.000Z</time>
      </trkpt>
      <trkpt lat="42.69973" lon="1.26091">
        <ele>2049.3999023438</ele>
        <time>2023-07-25T08:22:21.000Z</time>
      </trkpt>
      <trkpt lat="42.69972" lon="1.26093">
        <ele>2049</ele>
        <time>2023-07-25T08:22:24.000Z</time>
      </trkpt>
      <trkpt lat="42.6997" lon="1.26098">
        <ele>2047.8000488281</ele>
        <time>2023-07-25T08:22:28.000Z</time>
      </trkpt>
      <trkpt lat="42.69971" lon="1.26099">
        <ele>2046.5999755859</ele>
        <time>2023-07-25T08:22:32.000Z</time>
      </trkpt>
      <trkpt lat="42.69971" lon="1.26099">
        <ele>2046.1999511719</ele>
        <time>2023-07-25T08:22:35.000Z</time>
      </trkpt>
      <trkpt lat="42.69971" lon="1.26097">
        <ele>2045.5999755859</ele>
        <time>2023-07-25T08:22:42.000Z</time>
      </trkpt>
      <trkpt lat="42.6997" lon="1.26098">
        <ele>2045.4000244141</ele>
        <time>2023-07-25T08:22:44.000Z</time>
      </trkpt>
      <trkpt lat="42.69969" lon="1.26099">
        <ele>2044.5999755859</ele>
        <time>2023-07-25T08:22:50.000Z</time>
      </trkpt>
      <trkpt lat="42.69969" lon="1.261">
        <ele>2043.5999755859</ele>
        <time>2023-07-25T08:22:57.000Z</time>
      </trkpt>
      <trkpt lat="42.69967" lon="1.261">
        <ele>2043.1999511719</ele>
        <time>2023-07-25T08:22:59.000Z</time>
      </trkpt>
      <trkpt lat="42.69966" lon="1.26099">
        <ele>2042.4000244141</ele>
        <time>2023-07-25T08:23:04.000Z</time>
      </trkpt>
      <trkpt lat="42.69966" lon="1.26099">
        <ele>2042.1999511719</ele>
        <time>2023-07-25T08:23:05.000Z</time>
      </trkpt>
      <trkpt lat="42.69964" lon="1.26098">
        <ele>2041.4000244141</ele>
        <time>2023-07-25T08:23:13.000Z</time>
      </trkpt>
      <trkpt lat="42.69964" lon="1.26097">
        <ele>2041.1999511719</ele>
        <time>2023-07-25T08:23:15.000Z</time>
      </trkpt>
      <trkpt lat="42.69962" lon="1.26092">
        <ele>2040.1999511719</ele>
        <time>2023-07-25T08:23:22.000Z</time>
      </trkpt>
      <trkpt lat="42.6996" lon="1.2609">
        <ele>2039.1999511719</ele>
        <time>2023-07-25T08:23:28.000Z</time>
      </trkpt>
      <trkpt lat="42.69959" lon="1.2609">
        <ele>2039</ele>
        <time>2023-07-25T08:23:29.000Z</time>
      </trkpt>
      <trkpt lat="42.69958" lon="1.26091">
        <ele>2037.8000488281</ele>
        <time>2023-07-25T08:23:34.000Z</time>
      </trkpt>
      <trkpt lat="42.69956" lon="1.26092">
        <ele>2036.8000488281</ele>
        <time>2023-07-25T08:23:38.000Z</time>
      </trkpt>
      <trkpt lat="42.69953" lon="1.26093">
        <ele>2035.8000488281</ele>
        <time>2023-07-25T08:23:44.000Z</time>
      </trkpt>
      <trkpt lat="42.69953" lon="1.26093">
        <ele>2035.5999755859</ele>
        <time>2023-07-25T08:23:45.000Z</time>
      </trkpt>
      <trkpt lat="42.69951" lon="1.26092">
        <ele>2034.8000488281</ele>
        <time>2023-07-25T08:23:49.000Z</time>
      </trkpt>
      <trkpt lat="42.69949" lon="1.26088">
        <ele>2033.8000488281</ele>
        <time>2023-07-25T08:23:54.000Z</time>
      </trkpt>
      <trkpt lat="42.69949" lon="1.26087">
        <ele>2033.5999755859</ele>
        <time>2023-07-25T08:23:55.000Z</time>
      </trkpt>
      <trkpt lat="42.69947" lon="1.26084">
        <ele>2032.4000244141</ele>
        <time>2023-07-25T08:24:01.000Z</time>
      </trkpt>
      <trkpt lat="42.69947" lon="1.26085">
        <ele>2032.1999511719</ele>
        <time>2023-07-25T08:24:02.000Z</time>
      </trkpt>
      <trkpt lat="42.69945" lon="1.26085">
        <ele>2031.4000244141</ele>
        <time>2023-07-25T08:24:07.000Z</time>
      </trkpt>
      <trkpt lat="42.69945" lon="1.26084">
        <ele>2030.5999755859</ele>
        <time>2023-07-25T08:24:10.000Z</time>
      </trkpt>
      <trkpt lat="42.69945" lon="1.26082">
        <ele>2030.1999511719</ele>
        <time>2023-07-25T08:24:12.000Z</time>
      </trkpt>
      <trkpt lat="42.69944" lon="1.26078">
        <ele>2029.1999511719</ele>
        <time>2023-07-25T08:24:18.000Z</time>
      </trkpt>
      <trkpt lat="42.69943" lon="1.26079">
        <ele>2029</ele>
        <time>2023-07-25T08:24:19.000Z</time>
      </trkpt>
      <trkpt lat="42.69937" lon="1.26081">
        <ele>2028</ele>
        <time>2023-07-25T08:24:26.000Z</time>
      </trkpt>
      <trkpt lat="42.69934" lon="1.26082">
        <ele>2026.8000488281</ele>
        <time>2023-07-25T08:24:31.000Z</time>
      </trkpt>
      <trkpt lat="42.69931" lon="1.26086">
        <ele>2026.4000244141</ele>
        <time>2023-07-25T08:24:39.000Z</time>
      </trkpt>
      <trkpt lat="42.69929" lon="1.26085">
        <ele>2026.4000244141</ele>
        <time>2023-07-25T08:24:44.000Z</time>
      </trkpt>
      <trkpt lat="42.69931" lon="1.26082">
        <ele>2026.5999755859</ele>
        <time>2023-07-25T08:24:52.000Z</time>
      </trkpt>
      <trkpt lat="42.69929" lon="1.26081">
        <ele>2026.5999755859</ele>
        <time>2023-07-25T08:25:01.000Z</time>
      </trkpt>
      <trkpt lat="42.69932" lon="1.26083">
        <ele>2026.5999755859</ele>
        <time>2023-07-25T08:25:08.000Z</time>
      </trkpt>
      <trkpt lat="42.69933" lon="1.26078">
        <ele>2026.4000244141</ele>
        <time>2023-07-25T08:25:13.000Z</time>
      </trkpt>
      <trkpt lat="42.69932" lon="1.2607">
        <ele>2026.4000244141</ele>
        <time>2023-07-25T08:25:21.000Z</time>
      </trkpt>
      <trkpt lat="42.6993" lon="1.26062">
        <ele>2025.8000488281</ele>
        <time>2023-07-25T08:25:28.000Z</time>
      </trkpt>
      <trkpt lat="42.69929" lon="1.26051">
        <ele>2025.5999755859</ele>
        <time>2023-07-25T08:25:34.000Z</time>
      </trkpt>
      <trkpt lat="42.69931" lon="1.2604">
        <ele>2025.1999511719</ele>
        <time>2023-07-25T08:25:41.000Z</time>
      </trkpt>
      <trkpt lat="42.69934" lon="1.26029">
        <ele>2025</ele>
        <time>2023-07-25T08:25:48.000Z</time>
      </trkpt>
      <trkpt lat="42.69934" lon="1.26028">
        <ele>2025</ele>
        <time>2023-07-25T08:25:52.000Z</time>
      </trkpt>
      <trkpt lat="42.69934" lon="1.26028">
        <ele>2025.4000244141</ele>
        <time>2023-07-25T08:25:55.000Z</time>
      </trkpt>
      <trkpt lat="42.69932" lon="1.26027">
        <ele>2025.1999511719</ele>
        <time>2023-07-25T08:26:02.000Z</time>
      </trkpt>
      <trkpt lat="42.69933" lon="1.26027">
        <ele>2025.8000488281</ele>
        <time>2023-07-25T08:26:12.000Z</time>
      </trkpt>
      <trkpt lat="42.69932" lon="1.26028">
        <ele>2026</ele>
        <time>2023-07-25T08:26:18.000Z</time>
      </trkpt>
      <trkpt lat="42.69932" lon="1.26025">
        <ele>2026</ele>
        <time>2023-07-25T08:26:22.000Z</time>
      </trkpt>
      <trkpt lat="42.69931" lon="1.26027">
        <ele>2026.1999511719</ele>
        <time>2023-07-25T08:26:30.000Z</time>
      </trkpt>
      <trkpt lat="42.69933" lon="1.26026">
        <ele>2026.1999511719</ele>
        <time>2023-07-25T08:26:39.000Z</time>
      </trkpt>
      <trkpt lat="42.69935" lon="1.26023">
        <ele>2026.1999511719</ele>
        <time>2023-07-25T08:26:49.000Z</time>
      </trkpt>
      <trkpt lat="42.69935" lon="1.26023">
        <ele>2026.4000244141</ele>
        <time>2023-07-25T08:26:58.000Z</time>
      </trkpt>
      <trkpt lat="42.69932" lon="1.26028">
        <ele>2026.1999511719</ele>
        <time>2023-07-25T08:27:09.000Z</time>
      </trkpt>
      <trkpt lat="42.69932" lon="1.26031">
        <ele>2026.4000244141</ele>
        <time>2023-07-25T08:27:17.000Z</time>
      </trkpt>
      <trkpt lat="42.69935" lon="1.2603">
        <ele>2026.5999755859</ele>
        <time>2023-07-25T08:27:25.000Z</time>
      </trkpt>
      <trkpt lat="42.69932" lon="1.26029">
        <ele>2026.8000488281</ele>
        <time>2023-07-25T08:27:32.000Z</time>
      </trkpt>
      <trkpt lat="42.69932" lon="1.26031">
        <ele>2026.8000488281</ele>
        <time>2023-07-25T08:27:35.000Z</time>
      </trkpt>
      <trkpt lat="42.69935" lon="1.26028">
        <ele>2027.1999511719</ele>
        <time>2023-07-25T08:27:40.000Z</time>
      </trkpt>
      <trkpt lat="42.69933" lon="1.26029">
        <ele>2027.4000244141</ele>
        <time>2023-07-25T08:27:47.000Z</time>
      </trkpt>
      <trkpt lat="42.69931" lon="1.26031">
        <ele>2027.4000244141</ele>
        <time>2023-07-25T08:27:54.000Z</time>
      </trkpt>
      <trkpt lat="42.69935" lon="1.26028">
        <ele>2027.1999511719</ele>
        <time>2023-07-25T08:28:03.000Z</time>
      </trkpt>
      <trkpt lat="42.69934" lon="1.26023">
        <ele>2027.4000244141</ele>
        <time>2023-07-25T08:28:08.000Z</time>
      </trkpt>
      <trkpt lat="42.69933" lon="1.26017">
        <ele>2027.1999511719</ele>
        <time>2023-07-25T08:28:15.000Z</time>
      </trkpt>
      <trkpt lat="42.69931" lon="1.26008">
        <ele>2026.4000244141</ele>
        <time>2023-07-25T08:28:22.000Z</time>
      </trkpt>
      <trkpt lat="42.69928" lon="1.25998">
        <ele>2026</ele>
        <time>2023-07-25T08:28:28.000Z</time>
      </trkpt>
      <trkpt lat="42.69926" lon="1.25993">
        <ele>2026.1999511719</ele>
        <time>2023-07-25T08:28:34.000Z</time>
      </trkpt>
      <trkpt lat="42.69924" lon="1.25986">
        <ele>2027.1999511719</ele>
        <time>2023-07-25T08:28:40.000Z</time>
      </trkpt>
      <trkpt lat="42.69924" lon="1.25983">
        <ele>2028</ele>
        <time>2023-07-25T08:28:44.000Z</time>
      </trkpt>
      <trkpt lat="42.69924" lon="1.2598">
        <ele>2028.5999755859</ele>
        <time>2023-07-25T08:28:48.000Z</time>
      </trkpt>
      <trkpt lat="42.69924" lon="1.25977">
        <ele>2029.1999511719</ele>
        <time>2023-07-25T08:28:50.000Z</time>
      </trkpt>
      <trkpt lat="42.69924" lon="1.25968">
        <ele>2030.1999511719</ele>
        <time>2023-07-25T08:28:56.000Z</time>
      </trkpt>
      <trkpt lat="42.69925" lon="1.25961">
        <ele>2031</ele>
        <time>2023-07-25T08:29:01.000Z</time>
      </trkpt>
      <trkpt lat="42.69926" lon="1.25962">
        <ele>2031.4000244141</ele>
        <time>2023-07-25T08:29:03.000Z</time>
      </trkpt>
      <trkpt lat="42.69927" lon="1.25964">
        <ele>2032.4000244141</ele>
        <time>2023-07-25T08:29:06.000Z</time>
      </trkpt>
      <trkpt lat="42.69928" lon="1.25965">
        <ele>2032.5999755859</ele>
        <time>2023-07-25T08:29:07.000Z</time>
      </trkpt>
      <trkpt lat="42.6993" lon="1.25968">
        <ele>2033.1999511719</ele>
        <time>2023-07-25T08:29:11.000Z</time>
      </trkpt>
      <trkpt lat="42.6993" lon="1.25968">
        <ele>2033.5999755859</ele>
        <time>2023-07-25T08:29:14.000Z</time>
      </trkpt>
      <trkpt lat="42.69929" lon="1.25966">
        <ele>2034.1999511719</ele>
        <time>2023-07-25T08:29:18.000Z</time>
      </trkpt>
      <trkpt lat="42.69929" lon="1.25964">
        <ele>2034.8000488281</ele>
        <time>2023-07-25T08:29:23.000Z</time>
      </trkpt>
      <trkpt lat="42.6993" lon="1.25963">
        <ele>2035.4000244141</ele>
        <time>2023-07-25T08:29:26.000Z</time>
      </trkpt>
      <trkpt lat="42.69931" lon="1.25961">
        <ele>2036</ele>
        <time>2023-07-25T08:29:28.000Z</time>
      </trkpt>
      <trkpt lat="42.69931" lon="1.25957">
        <ele>2037</ele>
        <time>2023-07-25T08:29:33.000Z</time>
      </trkpt>
      <trkpt lat="42.69932" lon="1.25957">
        <ele>2038.1999511719</ele>
        <time>2023-07-25T08:29:37.000Z</time>
      </trkpt>
      <trkpt lat="42.69932" lon="1.25955">
        <ele>2038.8000488281</ele>
        <time>2023-07-25T08:29:40.000Z</time>
      </trkpt>
      <trkpt lat="42.69932" lon="1.25949">
        <ele>2039.4000244141</ele>
        <time>2023-07-25T08:29:45.000Z</time>
      </trkpt>
      <trkpt lat="42.69931" lon="1.25946">
        <ele>2039.5999755859</ele>
        <time>2023-07-25T08:29:47.000Z</time>
      </trkpt>
      <trkpt lat="42.69927" lon="1.25939">
        <ele>2039.8000488281</ele>
        <time>2023-07-25T08:29:54.000Z</time>
      </trkpt>
      <trkpt lat="42.69925" lon="1.25931">
        <ele>2040.4000244141</ele>
        <time>2023-07-25T08:30:00.000Z</time>
      </trkpt>
      <trkpt lat="42.69924" lon="1.2593">
        <ele>2040.4000244141</ele>
        <time>2023-07-25T08:30:01.000Z</time>
      </trkpt>
      <trkpt lat="42.69922" lon="1.25922">
        <ele>2040.4000244141</ele>
        <time>2023-07-25T08:30:09.000Z</time>
      </trkpt>
      <trkpt lat="42.69919" lon="1.25913">
        <ele>2041</ele>
        <time>2023-07-25T08:30:16.000Z</time>
      </trkpt>
      <trkpt lat="42.69916" lon="1.25905">
        <ele>2041.4000244141</ele>
        <time>2023-07-25T08:30:22.000Z</time>
      </trkpt>
      <trkpt lat="42.69916" lon="1.25903">
        <ele>2041.8000488281</ele>
        <time>2023-07-25T08:30:24.000Z</time>
      </trkpt>
      <trkpt lat="42.69916" lon="1.25899">
        <ele>2042.5999755859</ele>
        <time>2023-07-25T08:30:28.000Z</time>
      </trkpt>
      <trkpt lat="42.69916" lon="1.25897">
        <ele>2043.4000244141</ele>
        <time>2023-07-25T08:30:31.000Z</time>
      </trkpt>
      <trkpt lat="42.69916" lon="1.25895">
        <ele>2043.5999755859</ele>
        <time>2023-07-25T08:30:33.000Z</time>
      </trkpt>
      <trkpt lat="42.69914" lon="1.25888">
        <ele>2044.4000244141</ele>
        <time>2023-07-25T08:30:38.000Z</time>
      </trkpt>
      <trkpt lat="42.69913" lon="1.25886">
        <ele>2044.8000488281</ele>
        <time>2023-07-25T08:30:40.000Z</time>
      </trkpt>
      <trkpt lat="42.69912" lon="1.25878">
        <ele>2046</ele>
        <time>2023-07-25T08:30:46.000Z</time>
      </trkpt>
      <trkpt lat="42.69912" lon="1.25871">
        <ele>2047</ele>
        <time>2023-07-25T08:30:51.000Z</time>
      </trkpt>
      <trkpt lat="42.69912" lon="1.25865">
        <ele>2047.5999755859</ele>
        <time>2023-07-25T08:30:56.000Z</time>
      </trkpt>
      <trkpt lat="42.69911" lon="1.25861">
        <ele>2048.1999511719</ele>
        <time>2023-07-25T08:31:00.000Z</time>
      </trkpt>
      <trkpt lat="42.69908" lon="1.25856">
        <ele>2049</ele>
        <time>2023-07-25T08:31:04.000Z</time>
      </trkpt>
      <trkpt lat="42.69906" lon="1.25852">
        <ele>2049.3999023438</ele>
        <time>2023-07-25T08:31:08.000Z</time>
      </trkpt>
      <trkpt lat="42.69904" lon="1.25847">
        <ele>2049.8000488281</ele>
        <time>2023-07-25T08:31:11.000Z</time>
      </trkpt>
      <trkpt lat="42.69901" lon="1.2584">
        <ele>2050.8000488281</ele>
        <time>2023-07-25T08:31:16.000Z</time>
      </trkpt>
      <trkpt lat="42.69901" lon="1.25839">
        <ele>2051.3999023438</ele>
        <time>2023-07-25T08:31:19.000Z</time>
      </trkpt>
      <trkpt lat="42.69901" lon="1.25838">
        <ele>2052</ele>
        <time>2023-07-25T08:31:21.000Z</time>
      </trkpt>
      <trkpt lat="42.69902" lon="1.25838">
        <ele>2052</ele>
        <time>2023-07-25T08:31:24.000Z</time>
      </trkpt>
      <trkpt lat="42.69902" lon="1.25838">
        <ele>2052</ele>
        <time>2023-07-25T08:31:27.000Z</time>
      </trkpt>
      <trkpt lat="42.69901" lon="1.2584">
        <ele>2051.6000976562</ele>
        <time>2023-07-25T08:31:37.000Z</time>
      </trkpt>
      <trkpt lat="42.699" lon="1.25836">
        <ele>2051.3999023438</ele>
        <time>2023-07-25T08:31:44.000Z</time>
      </trkpt>
      <trkpt lat="42.699" lon="1.25826">
        <ele>2051.3999023438</ele>
        <time>2023-07-25T08:31:53.000Z</time>
      </trkpt>
      <trkpt lat="42.69898" lon="1.25824">
        <ele>2051</ele>
        <time>2023-07-25T08:32:01.000Z</time>
      </trkpt>
      <trkpt lat="42.69898" lon="1.25825">
        <ele>2051</ele>
        <time>2023-07-25T08:32:03.000Z</time>
      </trkpt>
      <trkpt lat="42.69898" lon="1.25823">
        <ele>2050.8000488281</ele>
        <time>2023-07-25T08:32:08.000Z</time>
      </trkpt>
      <trkpt lat="42.69901" lon="1.25821">
        <ele>2050.6000976562</ele>
        <time>2023-07-25T08:32:16.000Z</time>
      </trkpt>
      <trkpt lat="42.69898" lon="1.25822">
        <ele>2049.8000488281</ele>
        <time>2023-07-25T08:32:22.000Z</time>
      </trkpt>
      <trkpt lat="42.69897" lon="1.25822">
        <ele>2049.8000488281</ele>
        <time>2023-07-25T08:32:24.000Z</time>
      </trkpt>
      <trkpt lat="42.69898" lon="1.25824">
        <ele>2049.6000976562</ele>
        <time>2023-07-25T08:32:30.000Z</time>
      </trkpt>
      <trkpt lat="42.69899" lon="1.25824">
        <ele>2049.6000976562</ele>
        <time>2023-07-25T08:32:37.000Z</time>
      </trkpt>
      <trkpt lat="42.69898" lon="1.25824">
        <ele>2049.6000976562</ele>
        <time>2023-07-25T08:32:42.000Z</time>
      </trkpt>
      <trkpt lat="42.69898" lon="1.25824">
        <ele>2049.3999023438</ele>
        <time>2023-07-25T08:32:52.000Z</time>
      </trkpt>
      <trkpt lat="42.69898" lon="1.25824">
        <ele>2049.3999023438</ele>
        <time>2023-07-25T08:33:01.000Z</time>
      </trkpt>
      <trkpt lat="42.69897" lon="1.25825">
        <ele>2048.8000488281</ele>
        <time>2023-07-25T08:33:09.000Z</time>
      </trkpt>
      <trkpt lat="42.69898" lon="1.25824">
        <ele>2048.3999023438</ele>
        <time>2023-07-25T08:33:12.000Z</time>
      </trkpt>
      <trkpt lat="42.699" lon="1.25824">
        <ele>2048.3999023438</ele>
        <time>2023-07-25T08:33:19.000Z</time>
      </trkpt>
      <trkpt lat="42.699" lon="1.25824">
        <ele>2048.6000976562</ele>
        <time>2023-07-25T08:33:26.000Z</time>
      </trkpt>
      <trkpt lat="42.69899" lon="1.25827">
        <ele>2048.1999511719</ele>
        <time>2023-07-25T08:33:35.000Z</time>
      </trkpt>
      <trkpt lat="42.69895" lon="1.25826">
        <ele>2047.8000488281</ele>
        <time>2023-07-25T08:33:45.000Z</time>
      </trkpt>
      <trkpt lat="42.69899" lon="1.25824">
        <ele>2047.8000488281</ele>
        <time>2023-07-25T08:33:54.000Z</time>
      </trkpt>
      <trkpt lat="42.69899" lon="1.25822">
        <ele>2047.5999755859</ele>
        <time>2023-07-25T08:34:02.000Z</time>
      </trkpt>
      <trkpt lat="42.69891" lon="1.25819">
        <ele>2046.8000488281</ele>
        <time>2023-07-25T08:34:09.000Z</time>
      </trkpt>
      <trkpt lat="42.69892" lon="1.25818">
        <ele>2046.1999511719</ele>
        <time>2023-07-25T08:34:11.000Z</time>
      </trkpt>
      <trkpt lat="42.69892" lon="1.25816">
        <ele>2045.5999755859</ele>
        <time>2023-07-25T08:34:15.000Z</time>
      </trkpt>
      <trkpt lat="42.69891" lon="1.25813">
        <ele>2044</ele>
        <time>2023-07-25T08:34:19.000Z</time>
      </trkpt>
      <trkpt lat="42.69892" lon="1.25809">
        <ele>2043.8000488281</ele>
        <time>2023-07-25T08:34:25.000Z</time>
      </trkpt>
      <trkpt lat="42.69891" lon="1.25806">
        <ele>2042.8000488281</ele>
        <time>2023-07-25T08:34:29.000Z</time>
      </trkpt>
      <trkpt lat="42.69888" lon="1.25804">
        <ele>2041.8000488281</ele>
        <time>2023-07-25T08:34:33.000Z</time>
      </trkpt>
      <trkpt lat="42.69887" lon="1.25803">
        <ele>2040.5999755859</ele>
        <time>2023-07-25T08:34:39.000Z</time>
      </trkpt>
      <trkpt lat="42.69887" lon="1.25801">
        <ele>2040.1999511719</ele>
        <time>2023-07-25T08:34:41.000Z</time>
      </trkpt>
      <trkpt lat="42.69889" lon="1.25799">
        <ele>2039.4000244141</ele>
        <time>2023-07-25T08:34:45.000Z</time>
      </trkpt>
      <trkpt lat="42.6989" lon="1.25796">
        <ele>2039</ele>
        <time>2023-07-25T08:34:47.000Z</time>
      </trkpt>
      <trkpt lat="42.69889" lon="1.25794">
        <ele>2038.1999511719</ele>
        <time>2023-07-25T08:34:51.000Z</time>
      </trkpt>
      <trkpt lat="42.69888" lon="1.25793">
        <ele>2037.5999755859</ele>
        <time>2023-07-25T08:34:54.000Z</time>
      </trkpt>
      <trkpt lat="42.69887" lon="1.25793">
        <ele>2037.1999511719</ele>
        <time>2023-07-25T08:34:56.000Z</time>
      </trkpt>
      <trkpt lat="42.69885" lon="1.25794">
        <ele>2036.5999755859</ele>
        <time>2023-07-25T08:35:00.000Z</time>
      </trkpt>
      <trkpt lat="42.69883" lon="1.25795">
        <ele>2036</ele>
        <time>2023-07-25T08:35:03.000Z</time>
      </trkpt>
      <trkpt lat="42.69881" lon="1.25796">
        <ele>2035</ele>
        <time>2023-07-25T08:35:06.000Z</time>
      </trkpt>
      <trkpt lat="42.6988" lon="1.25796">
        <ele>2034.8000488281</ele>
        <time>2023-07-25T08:35:08.000Z</time>
      </trkpt>
      <trkpt lat="42.6988" lon="1.25797">
        <ele>2033.5999755859</ele>
        <time>2023-07-25T08:35:12.000Z</time>
      </trkpt>
      <trkpt lat="42.69879" lon="1.25798">
        <ele>2033</ele>
        <time>2023-07-25T08:35:14.000Z</time>
      </trkpt>
      <trkpt lat="42.69878" lon="1.25799">
        <ele>2032.4000244141</ele>
        <time>2023-07-25T08:35:19.000Z</time>
      </trkpt>
      <trkpt lat="42.69878" lon="1.25797">
        <ele>2032</ele>
        <time>2023-07-25T08:35:22.000Z</time>
      </trkpt>
      <trkpt lat="42.69877" lon="1.25794">
        <ele>2031.1999511719</ele>
        <time>2023-07-25T08:35:26.000Z</time>
      </trkpt>
      <trkpt lat="42.69876" lon="1.25793">
        <ele>2030.4000244141</ele>
        <time>2023-07-25T08:35:30.000Z</time>
      </trkpt>
      <trkpt lat="42.69876" lon="1.25793">
        <ele>2030</ele>
        <time>2023-07-25T08:35:31.000Z</time>
      </trkpt>
      <trkpt lat="42.69875" lon="1.25792">
        <ele>2028.8000488281</ele>
        <time>2023-07-25T08:35:34.000Z</time>
      </trkpt>
      <trkpt lat="42.69875" lon="1.25789">
        <ele>2027.5999755859</ele>
        <time>2023-07-25T08:35:39.000Z</time>
      </trkpt>
      <trkpt lat="42.69875" lon="1.25788">
        <ele>2027.4000244141</ele>
        <time>2023-07-25T08:35:40.000Z</time>
      </trkpt>
      <trkpt lat="42.69876" lon="1.25783">
        <ele>2026.5999755859</ele>
        <time>2023-07-25T08:35:46.000Z</time>
      </trkpt>
      <trkpt lat="42.69875" lon="1.25781">
        <ele>2026.4000244141</ele>
        <time>2023-07-25T08:35:48.000Z</time>
      </trkpt>
      <trkpt lat="42.69871" lon="1.25782">
        <ele>2025.4000244141</ele>
        <time>2023-07-25T08:35:53.000Z</time>
      </trkpt>
      <trkpt lat="42.6987" lon="1.25783">
        <ele>2025</ele>
        <time>2023-07-25T08:35:55.000Z</time>
      </trkpt>
      <trkpt lat="42.69868" lon="1.25783">
        <ele>2024.4000244141</ele>
        <time>2023-07-25T08:35:58.000Z</time>
      </trkpt>
      <trkpt lat="42.69864" lon="1.25783">
        <ele>2023.4000244141</ele>
        <time>2023-07-25T08:36:03.000Z</time>
      </trkpt>
      <trkpt lat="42.69863" lon="1.25783">
        <ele>2023.1999511719</ele>
        <time>2023-07-25T08:36:04.000Z</time>
      </trkpt>
      <trkpt lat="42.69861" lon="1.25784">
        <ele>2022</ele>
        <time>2023-07-25T08:36:08.000Z</time>
      </trkpt>
      <trkpt lat="42.69859" lon="1.25784">
        <ele>2021</ele>
        <time>2023-07-25T08:36:12.000Z</time>
      </trkpt>
      <trkpt lat="42.69859" lon="1.25783">
        <ele>2020.4000244141</ele>
        <time>2023-07-25T08:36:21.000Z</time>
      </trkpt>
      <trkpt lat="42.69859" lon="1.2578">
        <ele>2019.8000488281</ele>
        <time>2023-07-25T08:36:25.000Z</time>
      </trkpt>
      <trkpt lat="42.69857" lon="1.25778">
        <ele>2019.4000244141</ele>
        <time>2023-07-25T08:36:28.000Z</time>
      </trkpt>
      <trkpt lat="42.69857" lon="1.25777">
        <ele>2018.8000488281</ele>
        <time>2023-07-25T08:36:30.000Z</time>
      </trkpt>
      <trkpt lat="42.69857" lon="1.25775">
        <ele>2017.5999755859</ele>
        <time>2023-07-25T08:36:35.000Z</time>
      </trkpt>
      <trkpt lat="42.69858" lon="1.25771">
        <ele>2016.5999755859</ele>
        <time>2023-07-25T08:36:38.000Z</time>
      </trkpt>
      <trkpt lat="42.69861" lon="1.25768">
        <ele>2015.5999755859</ele>
        <time>2023-07-25T08:36:41.000Z</time>
      </trkpt>
      <trkpt lat="42.69862" lon="1.25767">
        <ele>2015.5999755859</ele>
        <time>2023-07-25T08:36:42.000Z</time>
      </trkpt>
      <trkpt lat="42.69863" lon="1.25765">
        <ele>2015.1999511719</ele>
        <time>2023-07-25T08:36:44.000Z</time>
      </trkpt>
      <trkpt lat="42.69865" lon="1.25763">
        <ele>2014.4000244141</ele>
        <time>2023-07-25T08:36:48.000Z</time>
      </trkpt>
      <trkpt lat="42.69867" lon="1.25761">
        <ele>2013.8000488281</ele>
        <time>2023-07-25T08:36:51.000Z</time>
      </trkpt>
      <trkpt lat="42.69869" lon="1.2576">
        <ele>2013.4000244141</ele>
        <time>2023-07-25T08:36:54.000Z</time>
      </trkpt>
      <trkpt lat="42.69872" lon="1.2576">
        <ele>2012.4000244141</ele>
        <time>2023-07-25T08:37:00.000Z</time>
      </trkpt>
      <trkpt lat="42.69874" lon="1.25763">
        <ele>2012.1999511719</ele>
        <time>2023-07-25T08:37:10.000Z</time>
      </trkpt>
      <trkpt lat="42.69872" lon="1.25759">
        <ele>2012</ele>
        <time>2023-07-25T08:37:19.000Z</time>
      </trkpt>
      <trkpt lat="42.69868" lon="1.25756">
        <ele>2011.8000488281</ele>
        <time>2023-07-25T08:37:26.000Z</time>
      </trkpt>
      <trkpt lat="42.69868" lon="1.25755">
        <ele>2011.1999511719</ele>
        <time>2023-07-25T08:37:29.000Z</time>
      </trkpt>
      <trkpt lat="42.69871" lon="1.25753">
        <ele>2010.1999511719</ele>
        <time>2023-07-25T08:37:34.000Z</time>
      </trkpt>
      <trkpt lat="42.69869" lon="1.25745">
        <ele>2009.1999511719</ele>
        <time>2023-07-25T08:37:42.000Z</time>
      </trkpt>
      <trkpt lat="42.69868" lon="1.25745">
        <ele>2009</ele>
        <time>2023-07-25T08:37:43.000Z</time>
      </trkpt>
      <trkpt lat="42.69865" lon="1.25738">
        <ele>2008</ele>
        <time>2023-07-25T08:37:51.000Z</time>
      </trkpt>
      <trkpt lat="42.69866" lon="1.25735">
        <ele>2007.5999755859</ele>
        <time>2023-07-25T08:38:00.000Z</time>
      </trkpt>
      <trkpt lat="42.69868" lon="1.25732">
        <ele>2007</ele>
        <time>2023-07-25T08:38:07.000Z</time>
      </trkpt>
      <trkpt lat="42.69869" lon="1.25729">
        <ele>2006.1999511719</ele>
        <time>2023-07-25T08:38:15.000Z</time>
      </trkpt>
      <trkpt lat="42.6987" lon="1.25725">
        <ele>2005.8000488281</ele>
        <time>2023-07-25T08:38:18.000Z</time>
      </trkpt>
      <trkpt lat="42.69872" lon="1.25717">
        <ele>2005.4000244141</ele>
        <time>2023-07-25T08:38:22.000Z</time>
      </trkpt>
      <trkpt lat="42.69871" lon="1.25718">
        <ele>2005</ele>
        <time>2023-07-25T08:38:29.000Z</time>
      </trkpt>
      <trkpt lat="42.6987" lon="1.25719">
        <ele>2004.8000488281</ele>
        <time>2023-07-25T08:38:31.000Z</time>
      </trkpt>
      <trkpt lat="42.69866" lon="1.25718">
        <ele>2004.1999511719</ele>
        <time>2023-07-25T08:38:37.000Z</time>
      </trkpt>
      <trkpt lat="42.69864" lon="1.25712">
        <ele>2004.4000244141</ele>
        <time>2023-07-25T08:38:44.000Z</time>
      </trkpt>
      <trkpt lat="42.69864" lon="1.25706">
        <ele>2004.1999511719</ele>
        <time>2023-07-25T08:38:51.000Z</time>
      </trkpt>
      <trkpt lat="42.69865" lon="1.25705">
        <ele>2003.8000488281</ele>
        <time>2023-07-25T08:38:55.000Z</time>
      </trkpt>
      <trkpt lat="42.6986" lon="1.25699">
        <ele>2002.4000244141</ele>
        <time>2023-07-25T08:39:01.000Z</time>
      </trkpt>
      <trkpt lat="42.69855" lon="1.25698">
        <ele>2001.4000244141</ele>
        <time>2023-07-25T08:39:08.000Z</time>
      </trkpt>
      <trkpt lat="42.69854" lon="1.25698">
        <ele>2001.1999511719</ele>
        <time>2023-07-25T08:39:09.000Z</time>
      </trkpt>
      <trkpt lat="42.69851" lon="1.25696">
        <ele>2000</ele>
        <time>2023-07-25T08:39:13.000Z</time>
      </trkpt>
      <trkpt lat="42.6985" lon="1.25695">
        <ele>1999.1999511719</ele>
        <time>2023-07-25T08:39:16.000Z</time>
      </trkpt>
      <trkpt lat="42.69849" lon="1.25693">
        <ele>1998.8000488281</ele>
        <time>2023-07-25T08:39:18.000Z</time>
      </trkpt>
      <trkpt lat="42.69846" lon="1.25693">
        <ele>1997.5999755859</ele>
        <time>2023-07-25T08:39:23.000Z</time>
      </trkpt>
      <trkpt lat="42.69845" lon="1.25694">
        <ele>1997.1999511719</ele>
        <time>2023-07-25T08:39:24.000Z</time>
      </trkpt>
      <trkpt lat="42.69846" lon="1.25699">
        <ele>1996.4000244141</ele>
        <time>2023-07-25T08:39:32.000Z</time>
      </trkpt>
      <trkpt lat="42.69846" lon="1.257">
        <ele>1995.1999511719</ele>
        <time>2023-07-25T08:39:38.000Z</time>
      </trkpt>
      <trkpt lat="42.69846" lon="1.257">
        <ele>1994.8000488281</ele>
        <time>2023-07-25T08:39:40.000Z</time>
      </trkpt>
      <trkpt lat="42.69843" lon="1.25703">
        <ele>1994</ele>
        <time>2023-07-25T08:39:49.000Z</time>
      </trkpt>
      <trkpt lat="42.6984" lon="1.25704">
        <ele>1993.1999511719</ele>
        <time>2023-07-25T08:39:57.000Z</time>
      </trkpt>
      <trkpt lat="42.6984" lon="1.25703">
        <ele>1993</ele>
        <time>2023-07-25T08:39:58.000Z</time>
      </trkpt>
      <trkpt lat="42.69837" lon="1.257">
        <ele>1991.8000488281</ele>
        <time>2023-07-25T08:40:04.000Z</time>
      </trkpt>
      <trkpt lat="42.69837" lon="1.25699">
        <ele>1991.4000244141</ele>
        <time>2023-07-25T08:40:05.000Z</time>
      </trkpt>
      <trkpt lat="42.69836" lon="1.25698">
        <ele>1990.5999755859</ele>
        <time>2023-07-25T08:40:08.000Z</time>
      </trkpt>
      <trkpt lat="42.69834" lon="1.25697">
        <ele>1989.8000488281</ele>
        <time>2023-07-25T08:40:13.000Z</time>
      </trkpt>
      <trkpt lat="42.69834" lon="1.25697">
        <ele>1989.4000244141</ele>
        <time>2023-07-25T08:40:14.000Z</time>
      </trkpt>
      <trkpt lat="42.69833" lon="1.25698">
        <ele>1989</ele>
        <time>2023-07-25T08:40:16.000Z</time>
      </trkpt>
      <trkpt lat="42.69831" lon="1.25699">
        <ele>1988.1999511719</ele>
        <time>2023-07-25T08:40:22.000Z</time>
      </trkpt>
      <trkpt lat="42.69831" lon="1.25698">
        <ele>1988</ele>
        <time>2023-07-25T08:40:23.000Z</time>
      </trkpt>
      <trkpt lat="42.69832" lon="1.25702">
        <ele>1987.1999511719</ele>
        <time>2023-07-25T08:40:27.000Z</time>
      </trkpt>
      <trkpt lat="42.6983" lon="1.25703">
        <ele>1986.5999755859</ele>
        <time>2023-07-25T08:40:32.000Z</time>
      </trkpt>
      <trkpt lat="42.69827" lon="1.25702">
        <ele>1986.1999511719</ele>
        <time>2023-07-25T08:40:35.000Z</time>
      </trkpt>
      <trkpt lat="42.69826" lon="1.25698">
        <ele>1985.5999755859</ele>
        <time>2023-07-25T08:40:40.000Z</time>
      </trkpt>
      <trkpt lat="42.69826" lon="1.25697">
        <ele>1984.8000488281</ele>
        <time>2023-07-25T08:40:43.000Z</time>
      </trkpt>
      <trkpt lat="42.69826" lon="1.25696">
        <ele>1984.4000244141</ele>
        <time>2023-07-25T08:40:46.000Z</time>
      </trkpt>
      <trkpt lat="42.69826" lon="1.25692">
        <ele>1983.8000488281</ele>
        <time>2023-07-25T08:40:49.000Z</time>
      </trkpt>
      <trkpt lat="42.69827" lon="1.25689">
        <ele>1983.1999511719</ele>
        <time>2023-07-25T08:40:54.000Z</time>
      </trkpt>
      <trkpt lat="42.69826" lon="1.25688">
        <ele>1982.5999755859</ele>
        <time>2023-07-25T08:40:58.000Z</time>
      </trkpt>
      <trkpt lat="42.69825" lon="1.25687">
        <ele>1982.1999511719</ele>
        <time>2023-07-25T08:41:01.000Z</time>
      </trkpt>
      <trkpt lat="42.69822" lon="1.25687">
        <ele>1981.1999511719</ele>
        <time>2023-07-25T08:41:06.000Z</time>
      </trkpt>
      <trkpt lat="42.6982" lon="1.25687">
        <ele>1981</ele>
        <time>2023-07-25T08:41:07.000Z</time>
      </trkpt>
      <trkpt lat="42.69818" lon="1.25686">
        <ele>1980</ele>
        <time>2023-07-25T08:41:12.000Z</time>
      </trkpt>
      <trkpt lat="42.69812" lon="1.25683">
        <ele>1978</ele>
        <time>2023-07-25T08:41:19.000Z</time>
      </trkpt>
      <trkpt lat="42.69811" lon="1.25681">
        <ele>1977.8000488281</ele>
        <time>2023-07-25T08:41:21.000Z</time>
      </trkpt>
      <trkpt lat="42.69811" lon="1.25678">
        <ele>1976.8000488281</ele>
        <time>2023-07-25T08:41:25.000Z</time>
      </trkpt>
      <trkpt lat="42.69811" lon="1.25677">
        <ele>1976.5999755859</ele>
        <time>2023-07-25T08:41:26.000Z</time>
      </trkpt>
      <trkpt lat="42.69809" lon="1.25674">
        <ele>1975.5999755859</ele>
        <time>2023-07-25T08:41:32.000Z</time>
      </trkpt>
      <trkpt lat="42.69808" lon="1.25672">
        <ele>1975</ele>
        <time>2023-07-25T08:41:35.000Z</time>
      </trkpt>
      <trkpt lat="42.69806" lon="1.2567">
        <ele>1974.5999755859</ele>
        <time>2023-07-25T08:41:38.000Z</time>
      </trkpt>
      <trkpt lat="42.69806" lon="1.25671">
        <ele>1973.8000488281</ele>
        <time>2023-07-25T08:41:43.000Z</time>
      </trkpt>
      <trkpt lat="42.69806" lon="1.25672">
        <ele>1973.4000244141</ele>
        <time>2023-07-25T08:41:45.000Z</time>
      </trkpt>
      <trkpt lat="42.69806" lon="1.25675">
        <ele>1971.4000244141</ele>
        <time>2023-07-25T08:41:53.000Z</time>
      </trkpt>
      <trkpt lat="42.69806" lon="1.25675">
        <ele>1971.1999511719</ele>
        <time>2023-07-25T08:41:54.000Z</time>
      </trkpt>
      <trkpt lat="42.69803" lon="1.25675">
        <ele>1970</ele>
        <time>2023-07-25T08:41:58.000Z</time>
      </trkpt>
      <trkpt lat="42.69801" lon="1.25675">
        <ele>1969</ele>
        <time>2023-07-25T08:42:02.000Z</time>
      </trkpt>
      <trkpt lat="42.69798" lon="1.25673">
        <ele>1968</ele>
        <time>2023-07-25T08:42:07.000Z</time>
      </trkpt>
      <trkpt lat="42.69796" lon="1.25672">
        <ele>1967.8000488281</ele>
        <time>2023-07-25T08:42:09.000Z</time>
      </trkpt>
      <trkpt lat="42.69795" lon="1.25673">
        <ele>1967</ele>
        <time>2023-07-25T08:42:12.000Z</time>
      </trkpt>
      <trkpt lat="42.69795" lon="1.25673">
        <ele>1966.1999511719</ele>
        <time>2023-07-25T08:42:16.000Z</time>
      </trkpt>
      <trkpt lat="42.69795" lon="1.25673">
        <ele>1965.8000488281</ele>
        <time>2023-07-25T08:42:17.000Z</time>
      </trkpt>
      <trkpt lat="42.69794" lon="1.25672">
        <ele>1964.8000488281</ele>
        <time>2023-07-25T08:42:21.000Z</time>
      </trkpt>
      <trkpt lat="42.69792" lon="1.25673">
        <ele>1963.8000488281</ele>
        <time>2023-07-25T08:42:25.000Z</time>
      </trkpt>
      <trkpt lat="42.69791" lon="1.25673">
        <ele>1963.5999755859</ele>
        <time>2023-07-25T08:42:26.000Z</time>
      </trkpt>
      <trkpt lat="42.69789" lon="1.25674">
        <ele>1962.5999755859</ele>
        <time>2023-07-25T08:42:31.000Z</time>
      </trkpt>
      <trkpt lat="42.69785" lon="1.25673">
        <ele>1961.4000244141</ele>
        <time>2023-07-25T08:42:36.000Z</time>
      </trkpt>
      <trkpt lat="42.69786" lon="1.25673">
        <ele>1961</ele>
        <time>2023-07-25T08:42:38.000Z</time>
      </trkpt>
      <trkpt lat="42.69786" lon="1.25671">
        <ele>1960.1999511719</ele>
        <time>2023-07-25T08:42:41.000Z</time>
      </trkpt>
      <trkpt lat="42.69784" lon="1.25669">
        <ele>1959.4000244141</ele>
        <time>2023-07-25T08:42:45.000Z</time>
      </trkpt>
      <trkpt lat="42.69783" lon="1.25669">
        <ele>1959.1999511719</ele>
        <time>2023-07-25T08:42:46.000Z</time>
      </trkpt>
      <trkpt lat="42.6978" lon="1.25668">
        <ele>1958</ele>
        <time>2023-07-25T08:42:50.000Z</time>
      </trkpt>
      <trkpt lat="42.69778" lon="1.25666">
        <ele>1957.1999511719</ele>
        <time>2023-07-25T08:42:53.000Z</time>
      </trkpt>
      <trkpt lat="42.69778" lon="1.25664">
        <ele>1956.8000488281</ele>
        <time>2023-07-25T08:42:55.000Z</time>
      </trkpt>
      <trkpt lat="42.6978" lon="1.25662">
        <ele>1956</ele>
        <time>2023-07-25T08:42:59.000Z</time>
      </trkpt>
      <trkpt lat="42.69781" lon="1.25661">
        <ele>1956</ele>
        <time>2023-07-25T08:43:00.000Z</time>
      </trkpt>
      <trkpt lat="42.69779" lon="1.2566">
        <ele>1955.8000488281</ele>
        <time>2023-07-25T08:43:08.000Z</time>
      </trkpt>
      <trkpt lat="42.69779" lon="1.25659">
        <ele>1955.8000488281</ele>
        <time>2023-07-25T08:43:09.000Z</time>
      </trkpt>
      <trkpt lat="42.69777" lon="1.25655">
        <ele>1954.5999755859</ele>
        <time>2023-07-25T08:43:16.000Z</time>
      </trkpt>
      <trkpt lat="42.69774" lon="1.25651">
        <ele>1954</ele>
        <time>2023-07-25T08:43:23.000Z</time>
      </trkpt>
      <trkpt lat="42.69769" lon="1.2565">
        <ele>1953.5999755859</ele>
        <time>2023-07-25T08:43:33.000Z</time>
      </trkpt>
      <trkpt lat="42.69766" lon="1.25649">
        <ele>1952.4000244141</ele>
        <time>2023-07-25T08:43:39.000Z</time>
      </trkpt>
      <trkpt lat="42.69765" lon="1.25649">
        <ele>1951.8000488281</ele>
        <time>2023-07-25T08:43:42.000Z</time>
      </trkpt>
      <trkpt lat="42.69764" lon="1.25649">
        <ele>1951.1999511719</ele>
        <time>2023-07-25T08:43:44.000Z</time>
      </trkpt>
      <trkpt lat="42.69762" lon="1.25649">
        <ele>1951</ele>
        <time>2023-07-25T08:43:48.000Z</time>
      </trkpt>
      <trkpt lat="42.6976" lon="1.25651">
        <ele>1950.1999511719</ele>
        <time>2023-07-25T08:43:53.000Z</time>
      </trkpt>
      <trkpt lat="42.69759" lon="1.2565">
        <ele>1949.4000244141</ele>
        <time>2023-07-25T08:43:56.000Z</time>
      </trkpt>
      <trkpt lat="42.69757" lon="1.2565">
        <ele>1949</ele>
        <time>2023-07-25T08:43:58.000Z</time>
      </trkpt>
      <trkpt lat="42.69755" lon="1.25646">
        <ele>1948.1999511719</ele>
        <time>2023-07-25T08:44:04.000Z</time>
      </trkpt>
      <trkpt lat="42.69754" lon="1.25646">
        <ele>1948</ele>
        <time>2023-07-25T08:44:05.000Z</time>
      </trkpt>
      <trkpt lat="42.69753" lon="1.25646">
        <ele>1946.8000488281</ele>
        <time>2023-07-25T08:44:12.000Z</time>
      </trkpt>
      <trkpt lat="42.69753" lon="1.25646">
        <ele>1946.5999755859</ele>
        <time>2023-07-25T08:44:13.000Z</time>
      </trkpt>
      <trkpt lat="42.69752" lon="1.25645">
        <ele>1945.5999755859</ele>
        <time>2023-07-25T08:44:18.000Z</time>
      </trkpt>
      <trkpt lat="42.6975" lon="1.25643">
        <ele>1944.5999755859</ele>
        <time>2023-07-25T08:44:23.000Z</time>
      </trkpt>
      <trkpt lat="42.69749" lon="1.25643">
        <ele>1944.4000244141</ele>
        <time>2023-07-25T08:44:24.000Z</time>
      </trkpt>
      <trkpt lat="42.69748" lon="1.25641">
        <ele>1943.5999755859</ele>
        <time>2023-07-25T08:44:29.000Z</time>
      </trkpt>
      <trkpt lat="42.69746" lon="1.25641">
        <ele>1943.4000244141</ele>
        <time>2023-07-25T08:44:31.000Z</time>
      </trkpt>
      <trkpt lat="42.69745" lon="1.25639">
        <ele>1942.1999511719</ele>
        <time>2023-07-25T08:44:36.000Z</time>
      </trkpt>
      <trkpt lat="42.69745" lon="1.25639">
        <ele>1942</ele>
        <time>2023-07-25T08:44:37.000Z</time>
      </trkpt>
      <trkpt lat="42.69743" lon="1.2564">
        <ele>1941.4000244141</ele>
        <time>2023-07-25T08:44:42.000Z</time>
      </trkpt>
      <trkpt lat="42.69743" lon="1.25639">
        <ele>1941.1999511719</ele>
        <time>2023-07-25T08:44:44.000Z</time>
      </trkpt>
      <trkpt lat="42.69743" lon="1.25639">
        <ele>1940.4000244141</ele>
        <time>2023-07-25T08:44:46.000Z</time>
      </trkpt>
      <trkpt lat="42.69741" lon="1.25639">
        <ele>1940</ele>
        <time>2023-07-25T08:44:48.000Z</time>
      </trkpt>
      <trkpt lat="42.6974" lon="1.25635">
        <ele>1939</ele>
        <time>2023-07-25T08:44:52.000Z</time>
      </trkpt>
      <trkpt lat="42.69739" lon="1.25634">
        <ele>1938.5999755859</ele>
        <time>2023-07-25T08:44:54.000Z</time>
      </trkpt>
      <trkpt lat="42.69738" lon="1.25632">
        <ele>1938</ele>
        <time>2023-07-25T08:44:57.000Z</time>
      </trkpt>
      <trkpt lat="42.69734" lon="1.25628">
        <ele>1936.8000488281</ele>
        <time>2023-07-25T08:45:02.000Z</time>
      </trkpt>
      <trkpt lat="42.69733" lon="1.25628">
        <ele>1936.4000244141</ele>
        <time>2023-07-25T08:45:03.000Z</time>
      </trkpt>
      <trkpt lat="42.69729" lon="1.25625">
        <ele>1935.5999755859</ele>
        <time>2023-07-25T08:45:08.000Z</time>
      </trkpt>
      <trkpt lat="42.69725" lon="1.25622">
        <ele>1934.8000488281</ele>
        <time>2023-07-25T08:45:12.000Z</time>
      </trkpt>
      <trkpt lat="42.69725" lon="1.25622">
        <ele>1934.4000244141</ele>
        <time>2023-07-25T08:45:13.000Z</time>
      </trkpt>
      <trkpt lat="42.69723" lon="1.25619">
        <ele>1934.1999511719</ele>
        <time>2023-07-25T08:45:19.000Z</time>
      </trkpt>
      <trkpt lat="42.69721" lon="1.25614">
        <ele>1933.8000488281</ele>
        <time>2023-07-25T08:45:25.000Z</time>
      </trkpt>
      <trkpt lat="42.69718" lon="1.25612">
        <ele>1933.4000244141</ele>
        <time>2023-07-25T08:45:30.000Z</time>
      </trkpt>
      <trkpt lat="42.69716" lon="1.25612">
        <ele>1932.4000244141</ele>
        <time>2023-07-25T08:45:35.000Z</time>
      </trkpt>
      <trkpt lat="42.69716" lon="1.25612">
        <ele>1932.1999511719</ele>
        <time>2023-07-25T08:45:36.000Z</time>
      </trkpt>
      <trkpt lat="42.69714" lon="1.25615">
        <ele>1931</ele>
        <time>2023-07-25T08:45:41.000Z</time>
      </trkpt>
      <trkpt lat="42.69712" lon="1.25619">
        <ele>1930.4000244141</ele>
        <time>2023-07-25T08:45:43.000Z</time>
      </trkpt>
      <trkpt lat="42.69711" lon="1.25621">
        <ele>1929.8000488281</ele>
        <time>2023-07-25T08:45:46.000Z</time>
      </trkpt>
      <trkpt lat="42.6971" lon="1.2562">
        <ele>1929</ele>
        <time>2023-07-25T08:45:49.000Z</time>
      </trkpt>
      <trkpt lat="42.6971" lon="1.2562">
        <ele>1928.8000488281</ele>
        <time>2023-07-25T08:45:51.000Z</time>
      </trkpt>
      <trkpt lat="42.6971" lon="1.25618">
        <ele>1927.8000488281</ele>
        <time>2023-07-25T08:45:56.000Z</time>
      </trkpt>
      <trkpt lat="42.69709" lon="1.25618">
        <ele>1927.1999511719</ele>
        <time>2023-07-25T08:45:59.000Z</time>
      </trkpt>
      <trkpt lat="42.69711" lon="1.25616">
        <ele>1926.8000488281</ele>
        <time>2023-07-25T08:46:05.000Z</time>
      </trkpt>
      <trkpt lat="42.69711" lon="1.25614">
        <ele>1925.5999755859</ele>
        <time>2023-07-25T08:46:11.000Z</time>
      </trkpt>
      <trkpt lat="42.69709" lon="1.25614">
        <ele>1925.5999755859</ele>
        <time>2023-07-25T08:46:14.000Z</time>
      </trkpt>
      <trkpt lat="42.69704" lon="1.25613">
        <ele>1926</ele>
        <time>2023-07-25T08:46:22.000Z</time>
      </trkpt>
      <trkpt lat="42.69704" lon="1.2561">
        <ele>1926</ele>
        <time>2023-07-25T08:46:28.000Z</time>
      </trkpt>
      <trkpt lat="42.69707" lon="1.25611">
        <ele>1926</ele>
        <time>2023-07-25T08:46:37.000Z</time>
      </trkpt>
      <trkpt lat="42.69706" lon="1.25612">
        <ele>1926</ele>
        <time>2023-07-25T08:46:49.000Z</time>
      </trkpt>
      <trkpt lat="42.69709" lon="1.25607">
        <ele>1926.4000244141</ele>
        <time>2023-07-25T08:46:56.000Z</time>
      </trkpt>
      <trkpt lat="42.69709" lon="1.2561">
        <ele>1926.5999755859</ele>
        <time>2023-07-25T08:47:04.000Z</time>
      </trkpt>
      <trkpt lat="42.69709" lon="1.2561">
        <ele>1926.5999755859</ele>
        <time>2023-07-25T08:47:05.000Z</time>
      </trkpt>
      <trkpt lat="42.69709" lon="1.25611">
        <ele>1926.8000488281</ele>
        <time>2023-07-25T08:47:13.000Z</time>
      </trkpt>
      <trkpt lat="42.69709" lon="1.25611">
        <ele>1926.8000488281</ele>
        <time>2023-07-25T08:47:19.000Z</time>
      </trkpt>
      <trkpt lat="42.69706" lon="1.25611">
        <ele>1927</ele>
        <time>2023-07-25T08:47:26.000Z</time>
      </trkpt>
      <trkpt lat="42.69706" lon="1.25609">
        <ele>1927</ele>
        <time>2023-07-25T08:47:34.000Z</time>
      </trkpt>
      <trkpt lat="42.69707" lon="1.25613">
        <ele>1926.8000488281</ele>
        <time>2023-07-25T08:47:41.000Z</time>
      </trkpt>
      <trkpt lat="42.6971" lon="1.25615">
        <ele>1927</ele>
        <time>2023-07-25T08:47:49.000Z</time>
      </trkpt>
      <trkpt lat="42.69708" lon="1.25613">
        <ele>1927</ele>
        <time>2023-07-25T08:47:57.000Z</time>
      </trkpt>
      <trkpt lat="42.6971" lon="1.25611">
        <ele>1927</ele>
        <time>2023-07-25T08:48:06.000Z</time>
      </trkpt>
      <trkpt lat="42.69711" lon="1.25611">
        <ele>1927.1999511719</ele>
        <time>2023-07-25T08:48:13.000Z</time>
      </trkpt>
      <trkpt lat="42.69707" lon="1.25607">
        <ele>1927.4000244141</ele>
        <time>2023-07-25T08:48:20.000Z</time>
      </trkpt>
      <trkpt lat="42.69704" lon="1.25608">
        <ele>1927.1999511719</ele>
        <time>2023-07-25T08:48:28.000Z</time>
      </trkpt>
      <trkpt lat="42.69699" lon="1.25612">
        <ele>1925.5999755859</ele>
        <time>2023-07-25T08:48:35.000Z</time>
      </trkpt>
      <trkpt lat="42.69698" lon="1.25612">
        <ele>1925</ele>
        <time>2023-07-25T08:48:38.000Z</time>
      </trkpt>
      <trkpt lat="42.69697" lon="1.25611">
        <ele>1924.4000244141</ele>
        <time>2023-07-25T08:48:42.000Z</time>
      </trkpt>
      <trkpt lat="42.69697" lon="1.2561">
        <ele>1924</ele>
        <time>2023-07-25T08:48:44.000Z</time>
      </trkpt>
      <trkpt lat="42.69696" lon="1.2561">
        <ele>1923.4000244141</ele>
        <time>2023-07-25T08:48:46.000Z</time>
      </trkpt>
      <trkpt lat="42.69694" lon="1.25612">
        <ele>1922.1999511719</ele>
        <time>2023-07-25T08:48:51.000Z</time>
      </trkpt>
      <trkpt lat="42.69694" lon="1.25613">
        <ele>1921.8000488281</ele>
        <time>2023-07-25T08:48:53.000Z</time>
      </trkpt>
      <trkpt lat="42.69694" lon="1.25613">
        <ele>1921</ele>
        <time>2023-07-25T08:48:55.000Z</time>
      </trkpt>
      <trkpt lat="42.69689" lon="1.25612">
        <ele>1919.8000488281</ele>
        <time>2023-07-25T08:49:00.000Z</time>
      </trkpt>
      <trkpt lat="42.69687" lon="1.25609">
        <ele>1918.8000488281</ele>
        <time>2023-07-25T08:49:05.000Z</time>
      </trkpt>
      <trkpt lat="42.69683" lon="1.25604">
        <ele>1918.1999511719</ele>
        <time>2023-07-25T08:49:09.000Z</time>
      </trkpt>
      <trkpt lat="42.69682" lon="1.25604">
        <ele>1917.5999755859</ele>
        <time>2023-07-25T08:49:15.000Z</time>
      </trkpt>
      <trkpt lat="42.6968" lon="1.25605">
        <ele>1916.5999755859</ele>
        <time>2023-07-25T08:49:20.000Z</time>
      </trkpt>
      <trkpt lat="42.69679" lon="1.25604">
        <ele>1916.1999511719</ele>
        <time>2023-07-25T08:49:22.000Z</time>
      </trkpt>
      <trkpt lat="42.69677" lon="1.25604">
        <ele>1915.5999755859</ele>
        <time>2023-07-25T08:49:25.000Z</time>
      </trkpt>
      <trkpt lat="42.69676" lon="1.25602">
        <ele>1914.8000488281</ele>
        <time>2023-07-25T08:49:29.000Z</time>
      </trkpt>
      <trkpt lat="42.69676" lon="1.25602">
        <ele>1914.4000244141</ele>
        <time>2023-07-25T08:49:31.000Z</time>
      </trkpt>
      <trkpt lat="42.69672" lon="1.25601">
        <ele>1913.5999755859</ele>
        <time>2023-07-25T08:49:37.000Z</time>
      </trkpt>
      <trkpt lat="42.6967" lon="1.25601">
        <ele>1913.1999511719</ele>
        <time>2023-07-25T08:49:40.000Z</time>
      </trkpt>
      <trkpt lat="42.6967" lon="1.256">
        <ele>1912</ele>
        <time>2023-07-25T08:49:47.000Z</time>
      </trkpt>
      <trkpt lat="42.69669" lon="1.25596">
        <ele>1910.8000488281</ele>
        <time>2023-07-25T08:49:52.000Z</time>
      </trkpt>
      <trkpt lat="42.69668" lon="1.25593">
        <ele>1910.4000244141</ele>
        <time>2023-07-25T08:49:54.000Z</time>
      </trkpt>
      <trkpt lat="42.69667" lon="1.2559">
        <ele>1909.8000488281</ele>
        <time>2023-07-25T08:49:57.000Z</time>
      </trkpt>
      <trkpt lat="42.69666" lon="1.25588">
        <ele>1909.5999755859</ele>
        <time>2023-07-25T08:50:00.000Z</time>
      </trkpt>
      <trkpt lat="42.69665" lon="1.25587">
        <ele>1908.8000488281</ele>
        <time>2023-07-25T08:50:04.000Z</time>
      </trkpt>
      <trkpt lat="42.69662" lon="1.25584">
        <ele>1907.5999755859</ele>
        <time>2023-07-25T08:50:09.000Z</time>
      </trkpt>
      <trkpt lat="42.69656" lon="1.25573">
        <ele>1907</ele>
        <time>2023-07-25T08:50:17.000Z</time>
      </trkpt>
      <trkpt lat="42.69656" lon="1.25566">
        <ele>1907</ele>
        <time>2023-07-25T08:50:25.000Z</time>
      </trkpt>
      <trkpt lat="42.69656" lon="1.25566">
        <ele>1906.4000244141</ele>
        <time>2023-07-25T08:50:29.000Z</time>
      </trkpt>
      <trkpt lat="42.69655" lon="1.25565">
        <ele>1905.5999755859</ele>
        <time>2023-07-25T08:50:34.000Z</time>
      </trkpt>
      <trkpt lat="42.69655" lon="1.25563">
        <ele>1905.4000244141</ele>
        <time>2023-07-25T08:50:35.000Z</time>
      </trkpt>
      <trkpt lat="42.69652" lon="1.25564">
        <ele>1904.4000244141</ele>
        <time>2023-07-25T08:50:41.000Z</time>
      </trkpt>
      <trkpt lat="42.6965" lon="1.25564">
        <ele>1904.1999511719</ele>
        <time>2023-07-25T08:50:43.000Z</time>
      </trkpt>
      <trkpt lat="42.69647" lon="1.25563">
        <ele>1903.8000488281</ele>
        <time>2023-07-25T08:50:45.000Z</time>
      </trkpt>
      <trkpt lat="42.69645" lon="1.25563">
        <ele>1903.1999511719</ele>
        <time>2023-07-25T08:50:48.000Z</time>
      </trkpt>
      <trkpt lat="42.69641" lon="1.25561">
        <ele>1902.1999511719</ele>
        <time>2023-07-25T08:50:54.000Z</time>
      </trkpt>
      <trkpt lat="42.6964" lon="1.25561">
        <ele>1902</ele>
        <time>2023-07-25T08:50:55.000Z</time>
      </trkpt>
      <trkpt lat="42.69636" lon="1.2556">
        <ele>1900.8000488281</ele>
        <time>2023-07-25T08:51:00.000Z</time>
      </trkpt>
      <trkpt lat="42.69633" lon="1.25559">
        <ele>1900.1999511719</ele>
        <time>2023-07-25T08:51:04.000Z</time>
      </trkpt>
      <trkpt lat="42.69626" lon="1.25557">
        <ele>1899.8000488281</ele>
        <time>2023-07-25T08:51:10.000Z</time>
      </trkpt>
      <trkpt lat="42.69625" lon="1.25556">
        <ele>1898.5999755859</ele>
        <time>2023-07-25T08:51:17.000Z</time>
      </trkpt>
      <trkpt lat="42.6962" lon="1.25555">
        <ele>1897.4000244141</ele>
        <time>2023-07-25T08:51:23.000Z</time>
      </trkpt>
      <trkpt lat="42.69619" lon="1.25555">
        <ele>1897.1999511719</ele>
        <time>2023-07-25T08:51:24.000Z</time>
      </trkpt>
      <trkpt lat="42.69617" lon="1.25557">
        <ele>1896.8000488281</ele>
        <time>2023-07-25T08:51:27.000Z</time>
      </trkpt>
      <trkpt lat="42.69615" lon="1.25558">
        <ele>1896.1999511719</ele>
        <time>2023-07-25T08:51:30.000Z</time>
      </trkpt>
      <trkpt lat="42.69612" lon="1.25561">
        <ele>1895.1999511719</ele>
        <time>2023-07-25T08:51:35.000Z</time>
      </trkpt>
      <trkpt lat="42.6961" lon="1.25561">
        <ele>1895</ele>
        <time>2023-07-25T08:51:37.000Z</time>
      </trkpt>
      <trkpt lat="42.69609" lon="1.2556">
        <ele>1894</ele>
        <time>2023-07-25T08:51:41.000Z</time>
      </trkpt>
      <trkpt lat="42.69608" lon="1.25558">
        <ele>1893.1999511719</ele>
        <time>2023-07-25T08:51:44.000Z</time>
      </trkpt>
      <trkpt lat="42.69607" lon="1.25558">
        <ele>1893</ele>
        <time>2023-07-25T08:51:45.000Z</time>
      </trkpt>
      <trkpt lat="42.69605" lon="1.25559">
        <ele>1891.8000488281</ele>
        <time>2023-07-25T08:51:49.000Z</time>
      </trkpt>
      <trkpt lat="42.69605" lon="1.25561">
        <ele>1891.5999755859</ele>
        <time>2023-07-25T08:51:51.000Z</time>
      </trkpt>
      <trkpt lat="42.69606" lon="1.25562">
        <ele>1891.4000244141</ele>
        <time>2023-07-25T08:51:52.000Z</time>
      </trkpt>
      <trkpt lat="42.69606" lon="1.25564">
        <ele>1890.8000488281</ele>
        <time>2023-07-25T08:51:55.000Z</time>
      </trkpt>
      <trkpt lat="42.69606" lon="1.25567">
        <ele>1890</ele>
        <time>2023-07-25T08:51:59.000Z</time>
      </trkpt>
      <trkpt lat="42.69606" lon="1.25569">
        <ele>1889.5999755859</ele>
        <time>2023-07-25T08:52:00.000Z</time>
      </trkpt>
      <trkpt lat="42.69606" lon="1.25568">
        <ele>1888.4000244141</ele>
        <time>2023-07-25T08:52:04.000Z</time>
      </trkpt>
      <trkpt lat="42.69605" lon="1.25568">
        <ele>1887.8000488281</ele>
        <time>2023-07-25T08:52:06.000Z</time>
      </trkpt>
      <trkpt lat="42.69604" lon="1.25567">
        <ele>1887.4000244141</ele>
        <time>2023-07-25T08:52:08.000Z</time>
      </trkpt>
      <trkpt lat="42.69602" lon="1.25565">
        <ele>1886.4000244141</ele>
        <time>2023-07-25T08:52:15.000Z</time>
      </trkpt>
      <trkpt lat="42.696" lon="1.25565">
        <ele>1885.8000488281</ele>
        <time>2023-07-25T08:52:17.000Z</time>
      </trkpt>
      <trkpt lat="42.69598" lon="1.25566">
        <ele>1885.1999511719</ele>
        <time>2023-07-25T08:52:20.000Z</time>
      </trkpt>
      <trkpt lat="42.69599" lon="1.25565">
        <ele>1884.8000488281</ele>
        <time>2023-07-25T08:52:21.000Z</time>
      </trkpt>
      <trkpt lat="42.69597" lon="1.2557">
        <ele>1884.4000244141</ele>
        <time>2023-07-25T08:52:23.000Z</time>
      </trkpt>
      <trkpt lat="42.69597" lon="1.25572">
        <ele>1884</ele>
        <time>2023-07-25T08:52:26.000Z</time>
      </trkpt>
      <trkpt lat="42.69597" lon="1.25575">
        <ele>1883.1999511719</ele>
        <time>2023-07-25T08:52:30.000Z</time>
      </trkpt>
      <trkpt lat="42.69597" lon="1.25575">
        <ele>1882.8000488281</ele>
        <time>2023-07-25T08:52:31.000Z</time>
      </trkpt>
      <trkpt lat="42.69595" lon="1.25579">
        <ele>1881.8000488281</ele>
        <time>2023-07-25T08:52:37.000Z</time>
      </trkpt>
      <trkpt lat="42.69595" lon="1.2558">
        <ele>1881.4000244141</ele>
        <time>2023-07-25T08:52:38.000Z</time>
      </trkpt>
      <trkpt lat="42.69592" lon="1.2558">
        <ele>1880.5999755859</ele>
        <time>2023-07-25T08:52:41.000Z</time>
      </trkpt>
      <trkpt lat="42.69589" lon="1.25578">
        <ele>1879.5999755859</ele>
        <time>2023-07-25T08:52:45.000Z</time>
      </trkpt>
      <trkpt lat="42.69586" lon="1.25575">
        <ele>1878.5999755859</ele>
        <time>2023-07-25T08:52:50.000Z</time>
      </trkpt>
      <trkpt lat="42.69582" lon="1.25576">
        <ele>1877.8000488281</ele>
        <time>2023-07-25T08:52:54.000Z</time>
      </trkpt>
      <trkpt lat="42.6958" lon="1.25576">
        <ele>1877.1999511719</ele>
        <time>2023-07-25T08:52:56.000Z</time>
      </trkpt>
      <trkpt lat="42.69577" lon="1.25579">
        <ele>1876.4000244141</ele>
        <time>2023-07-25T08:53:00.000Z</time>
      </trkpt>
      <trkpt lat="42.69576" lon="1.2558">
        <ele>1876.1999511719</ele>
        <time>2023-07-25T08:53:01.000Z</time>
      </trkpt>
      <trkpt lat="42.69576" lon="1.25583">
        <ele>1875</ele>
        <time>2023-07-25T08:53:05.000Z</time>
      </trkpt>
      <trkpt lat="42.69577" lon="1.25586">
        <ele>1874</ele>
        <time>2023-07-25T08:53:08.000Z</time>
      </trkpt>
      <trkpt lat="42.69579" lon="1.2559">
        <ele>1872.8000488281</ele>
        <time>2023-07-25T08:53:12.000Z</time>
      </trkpt>
      <trkpt lat="42.6958" lon="1.25592">
        <ele>1872.5999755859</ele>
        <time>2023-07-25T08:53:13.000Z</time>
      </trkpt>
      <trkpt lat="42.6958" lon="1.25597">
        <ele>1871.5999755859</ele>
        <time>2023-07-25T08:53:16.000Z</time>
      </trkpt>
      <trkpt lat="42.6958" lon="1.256">
        <ele>1870.8000488281</ele>
        <time>2023-07-25T08:53:20.000Z</time>
      </trkpt>
      <trkpt lat="42.6958" lon="1.256">
        <ele>1870.5999755859</ele>
        <time>2023-07-25T08:53:21.000Z</time>
      </trkpt>
      <trkpt lat="42.69582" lon="1.25602">
        <ele>1869.4000244141</ele>
        <time>2023-07-25T08:53:26.000Z</time>
      </trkpt>
      <trkpt lat="42.69582" lon="1.25604">
        <ele>1869</ele>
        <time>2023-07-25T08:53:28.000Z</time>
      </trkpt>
      <trkpt lat="42.69582" lon="1.25605">
        <ele>1868.1999511719</ele>
        <time>2023-07-25T08:53:31.000Z</time>
      </trkpt>
      <trkpt lat="42.69583" lon="1.25604">
        <ele>1867.8000488281</ele>
        <time>2023-07-25T08:53:32.000Z</time>
      </trkpt>
      <trkpt lat="42.69586" lon="1.256">
        <ele>1867.4000244141</ele>
        <time>2023-07-25T08:53:36.000Z</time>
      </trkpt>
      <trkpt lat="42.6959" lon="1.25601">
        <ele>1867.1999511719</ele>
        <time>2023-07-25T08:53:42.000Z</time>
      </trkpt>
      <trkpt lat="42.69591" lon="1.25601">
        <ele>1867.1999511719</ele>
        <time>2023-07-25T08:53:43.000Z</time>
      </trkpt>
      <trkpt lat="42.6959" lon="1.25601">
        <ele>1867.1999511719</ele>
        <time>2023-07-25T08:53:44.000Z</time>
      </trkpt>
      <trkpt lat="42.69591" lon="1.25603">
        <ele>1867</ele>
        <time>2023-07-25T08:53:50.000Z</time>
      </trkpt>
      <trkpt lat="42.6959" lon="1.25611">
        <ele>1866.1999511719</ele>
        <time>2023-07-25T08:53:56.000Z</time>
      </trkpt>
      <trkpt lat="42.6959" lon="1.25612">
        <ele>1865.8000488281</ele>
        <time>2023-07-25T08:53:57.000Z</time>
      </trkpt>
      <trkpt lat="42.6959" lon="1.25614">
        <ele>1864.8000488281</ele>
        <time>2023-07-25T08:54:00.000Z</time>
      </trkpt>
      <trkpt lat="42.6959" lon="1.25613">
        <ele>1864.4000244141</ele>
        <time>2023-07-25T08:54:01.000Z</time>
      </trkpt>
      <trkpt lat="42.69589" lon="1.25614">
        <ele>1864</ele>
        <time>2023-07-25T08:54:02.000Z</time>
      </trkpt>
      <trkpt lat="42.69588" lon="1.25615">
        <ele>1863.8000488281</ele>
        <time>2023-07-25T08:54:03.000Z</time>
      </trkpt>
      <trkpt lat="42.69588" lon="1.25616">
        <ele>1863.5999755859</ele>
        <time>2023-07-25T08:54:04.000Z</time>
      </trkpt>
      <trkpt lat="42.69586" lon="1.2562">
        <ele>1862.5999755859</ele>
        <time>2023-07-25T08:54:09.000Z</time>
      </trkpt>
      <trkpt lat="42.69586" lon="1.25623">
        <ele>1861.5999755859</ele>
        <time>2023-07-25T08:54:12.000Z</time>
      </trkpt>
      <trkpt lat="42.69584" lon="1.25627">
        <ele>1860.4000244141</ele>
        <time>2023-07-25T08:54:16.000Z</time>
      </trkpt>
      <trkpt lat="42.69585" lon="1.25628">
        <ele>1860.1999511719</ele>
        <time>2023-07-25T08:54:17.000Z</time>
      </trkpt>
      <trkpt lat="42.69585" lon="1.2563">
        <ele>1859.1999511719</ele>
        <time>2023-07-25T08:54:20.000Z</time>
      </trkpt>
      <trkpt lat="42.69585" lon="1.25631">
        <ele>1858.5999755859</ele>
        <time>2023-07-25T08:54:22.000Z</time>
      </trkpt>
      <trkpt lat="42.69584" lon="1.25631">
        <ele>1858.1999511719</ele>
        <time>2023-07-25T08:54:24.000Z</time>
      </trkpt>
      <trkpt lat="42.69582" lon="1.2563">
        <ele>1857.1999511719</ele>
        <time>2023-07-25T08:54:28.000Z</time>
      </trkpt>
      <trkpt lat="42.69582" lon="1.2563">
        <ele>1857</ele>
        <time>2023-07-25T08:54:29.000Z</time>
      </trkpt>
      <trkpt lat="42.69578" lon="1.25628">
        <ele>1855.8000488281</ele>
        <time>2023-07-25T08:54:34.000Z</time>
      </trkpt>
      <trkpt lat="42.69577" lon="1.25628">
        <ele>1855.1999511719</ele>
        <time>2023-07-25T08:54:37.000Z</time>
      </trkpt>
      <trkpt lat="42.69575" lon="1.25628">
        <ele>1854.8000488281</ele>
        <time>2023-07-25T08:54:40.000Z</time>
      </trkpt>
      <trkpt lat="42.69576" lon="1.2564">
        <ele>1849.8000488281</ele>
        <time>2023-07-25T08:55:01.000Z</time>
      </trkpt>
      <trkpt lat="42.69576" lon="1.25641">
        <ele>1849.4000244141</ele>
        <time>2023-07-25T08:55:03.000Z</time>
      </trkpt>
      <trkpt lat="42.69576" lon="1.25641">
        <ele>1849.1999511719</ele>
        <time>2023-07-25T08:55:04.000Z</time>
      </trkpt>
      <trkpt lat="42.69576" lon="1.25647">
        <ele>1848.1999511719</ele>
        <time>2023-07-25T08:55:08.000Z</time>
      </trkpt>
      <trkpt lat="42.69576" lon="1.25648">
        <ele>1848</ele>
        <time>2023-07-25T08:55:09.000Z</time>
      </trkpt>
      <trkpt lat="42.69576" lon="1.25655">
        <ele>1846.8000488281</ele>
        <time>2023-07-25T08:55:14.000Z</time>
      </trkpt>
      <trkpt lat="42.69576" lon="1.25658">
        <ele>1845.8000488281</ele>
        <time>2023-07-25T08:55:18.000Z</time>
      </trkpt>
      <trkpt lat="42.69576" lon="1.25665">
        <ele>1844.5999755859</ele>
        <time>2023-07-25T08:55:24.000Z</time>
      </trkpt>
      <trkpt lat="42.69575" lon="1.25672">
        <ele>1843.4000244141</ele>
        <time>2023-07-25T08:55:29.000Z</time>
      </trkpt>
      <trkpt lat="42.69575" lon="1.2568">
        <ele>1842.1999511719</ele>
        <time>2023-07-25T08:55:35.000Z</time>
      </trkpt>
      <trkpt lat="42.69576" lon="1.2568">
        <ele>1842</ele>
        <time>2023-07-25T08:55:36.000Z</time>
      </trkpt>
      <trkpt lat="42.69579" lon="1.25681">
        <ele>1841.1999511719</ele>
        <time>2023-07-25T08:55:39.000Z</time>
      </trkpt>
      <trkpt lat="42.69578" lon="1.25682">
        <ele>1841</ele>
        <time>2023-07-25T08:55:40.000Z</time>
      </trkpt>
      <trkpt lat="42.69577" lon="1.25686">
        <ele>1840.1999511719</ele>
        <time>2023-07-25T08:55:43.000Z</time>
      </trkpt>
      <trkpt lat="42.69578" lon="1.25692">
        <ele>1839.1999511719</ele>
        <time>2023-07-25T08:55:48.000Z</time>
      </trkpt>
      <trkpt lat="42.69578" lon="1.25693">
        <ele>1839</ele>
        <time>2023-07-25T08:55:49.000Z</time>
      </trkpt>
      <trkpt lat="42.69578" lon="1.25694">
        <ele>1838</ele>
        <time>2023-07-25T08:55:55.000Z</time>
      </trkpt>
      <trkpt lat="42.69577" lon="1.25694">
        <ele>1837.5999755859</ele>
        <time>2023-07-25T08:55:58.000Z</time>
      </trkpt>
      <trkpt lat="42.69576" lon="1.25694">
        <ele>1837.5999755859</ele>
        <time>2023-07-25T08:55:59.000Z</time>
      </trkpt>
      <trkpt lat="42.69575" lon="1.25691">
        <ele>1837</ele>
        <time>2023-07-25T08:56:02.000Z</time>
      </trkpt>
      <trkpt lat="42.69572" lon="1.25688">
        <ele>1836.8000488281</ele>
        <time>2023-07-25T08:56:05.000Z</time>
      </trkpt>
      <trkpt lat="42.69566" lon="1.25681">
        <ele>1836.1999511719</ele>
        <time>2023-07-25T08:56:14.000Z</time>
      </trkpt>
      <trkpt lat="42.69561" lon="1.25676">
        <ele>1836</ele>
        <time>2023-07-25T08:56:21.000Z</time>
      </trkpt>
      <trkpt lat="42.6956" lon="1.25675">
        <ele>1835.8000488281</ele>
        <time>2023-07-25T08:56:22.000Z</time>
      </trkpt>
      <trkpt lat="42.69557" lon="1.25672">
        <ele>1835</ele>
        <time>2023-07-25T08:56:27.000Z</time>
      </trkpt>
      <trkpt lat="42.69556" lon="1.25672">
        <ele>1834.5999755859</ele>
        <time>2023-07-25T08:56:29.000Z</time>
      </trkpt>
      <trkpt lat="42.69551" lon="1.25669">
        <ele>1833.5999755859</ele>
        <time>2023-07-25T08:56:35.000Z</time>
      </trkpt>
      <trkpt lat="42.69546" lon="1.25664">
        <ele>1832.4000244141</ele>
        <time>2023-07-25T08:56:41.000Z</time>
      </trkpt>
      <trkpt lat="42.69544" lon="1.25662">
        <ele>1832.1999511719</ele>
        <time>2023-07-25T08:56:43.000Z</time>
      </trkpt>
      <trkpt lat="42.69542" lon="1.2566">
        <ele>1831.4000244141</ele>
        <time>2023-07-25T08:56:47.000Z</time>
      </trkpt>
      <trkpt lat="42.69539" lon="1.25658">
        <ele>1830.4000244141</ele>
        <time>2023-07-25T08:56:51.000Z</time>
      </trkpt>
      <trkpt lat="42.69538" lon="1.25658">
        <ele>1830</ele>
        <time>2023-07-25T08:56:52.000Z</time>
      </trkpt>
      <trkpt lat="42.69537" lon="1.25658">
        <ele>1829</ele>
        <time>2023-07-25T08:56:56.000Z</time>
      </trkpt>
      <trkpt lat="42.69537" lon="1.25658">
        <ele>1828.8000488281</ele>
        <time>2023-07-25T08:56:57.000Z</time>
      </trkpt>
      <trkpt lat="42.69528" lon="1.25656">
        <ele>1826.8000488281</ele>
        <time>2023-07-25T08:57:06.000Z</time>
      </trkpt>
      <trkpt lat="42.69527" lon="1.25655">
        <ele>1826.5999755859</ele>
        <time>2023-07-25T08:57:08.000Z</time>
      </trkpt>
      <trkpt lat="42.69522" lon="1.2565">
        <ele>1826.1999511719</ele>
        <time>2023-07-25T08:57:16.000Z</time>
      </trkpt>
      <trkpt lat="42.69519" lon="1.2565">
        <ele>1825.5999755859</ele>
        <time>2023-07-25T08:57:19.000Z</time>
      </trkpt>
      <trkpt lat="42.69515" lon="1.2565">
        <ele>1824.5999755859</ele>
        <time>2023-07-25T08:57:24.000Z</time>
      </trkpt>
      <trkpt lat="42.69513" lon="1.2565">
        <ele>1823.4000244141</ele>
        <time>2023-07-25T08:57:30.000Z</time>
      </trkpt>
      <trkpt lat="42.69511" lon="1.25649">
        <ele>1823</ele>
        <time>2023-07-25T08:57:32.000Z</time>
      </trkpt>
      <trkpt lat="42.69509" lon="1.2565">
        <ele>1822.4000244141</ele>
        <time>2023-07-25T08:57:35.000Z</time>
      </trkpt>
      <trkpt lat="42.69506" lon="1.25649">
        <ele>1821.5999755859</ele>
        <time>2023-07-25T08:57:38.000Z</time>
      </trkpt>
      <trkpt lat="42.69505" lon="1.25649">
        <ele>1821.1999511719</ele>
        <time>2023-07-25T08:57:40.000Z</time>
      </trkpt>
      <trkpt lat="42.69502" lon="1.25647">
        <ele>1820.4000244141</ele>
        <time>2023-07-25T08:57:46.000Z</time>
      </trkpt>
      <trkpt lat="42.69501" lon="1.25646">
        <ele>1820</ele>
        <time>2023-07-25T08:57:47.000Z</time>
      </trkpt>
      <trkpt lat="42.69498" lon="1.25641">
        <ele>1819</ele>
        <time>2023-07-25T08:57:52.000Z</time>
      </trkpt>
      <trkpt lat="42.69496" lon="1.25638">
        <ele>1818.1999511719</ele>
        <time>2023-07-25T08:57:55.000Z</time>
      </trkpt>
      <trkpt lat="42.69495" lon="1.25637">
        <ele>1817.8000488281</ele>
        <time>2023-07-25T08:57:57.000Z</time>
      </trkpt>
      <trkpt lat="42.69491" lon="1.25634">
        <ele>1816.5999755859</ele>
        <time>2023-07-25T08:58:03.000Z</time>
      </trkpt>
      <trkpt lat="42.69489" lon="1.25633">
        <ele>1816.1999511719</ele>
        <time>2023-07-25T08:58:04.000Z</time>
      </trkpt>
      <trkpt lat="42.69487" lon="1.25631">
        <ele>1815.4000244141</ele>
        <time>2023-07-25T08:58:08.000Z</time>
      </trkpt>
      <trkpt lat="42.69485" lon="1.25629">
        <ele>1814.5999755859</ele>
        <time>2023-07-25T08:58:12.000Z</time>
      </trkpt>
      <trkpt lat="42.69485" lon="1.25629">
        <ele>1814.4000244141</ele>
        <time>2023-07-25T08:58:13.000Z</time>
      </trkpt>
      <trkpt lat="42.69483" lon="1.25628">
        <ele>1813.4000244141</ele>
        <time>2023-07-25T08:58:17.000Z</time>
      </trkpt>
      <trkpt lat="42.69482" lon="1.25627">
        <ele>1813</ele>
        <time>2023-07-25T08:58:20.000Z</time>
      </trkpt>
      <trkpt lat="42.69479" lon="1.25626">
        <ele>1812.4000244141</ele>
        <time>2023-07-25T08:58:23.000Z</time>
      </trkpt>
      <trkpt lat="42.69475" lon="1.25623">
        <ele>1811.1999511719</ele>
        <time>2023-07-25T08:58:28.000Z</time>
      </trkpt>
      <trkpt lat="42.69473" lon="1.25622">
        <ele>1810</ele>
        <time>2023-07-25T08:58:32.000Z</time>
      </trkpt>
      <trkpt lat="42.69472" lon="1.2562">
        <ele>1809.4000244141</ele>
        <time>2023-07-25T08:58:35.000Z</time>
      </trkpt>
      <trkpt lat="42.69471" lon="1.25617">
        <ele>1809</ele>
        <time>2023-07-25T08:58:38.000Z</time>
      </trkpt>
      <trkpt lat="42.6947" lon="1.25616">
        <ele>1807.5999755859</ele>
        <time>2023-07-25T08:58:43.000Z</time>
      </trkpt>
      <trkpt lat="42.69467" lon="1.25616">
        <ele>1806.5999755859</ele>
        <time>2023-07-25T08:58:48.000Z</time>
      </trkpt>
      <trkpt lat="42.69464" lon="1.25615">
        <ele>1805.5999755859</ele>
        <time>2023-07-25T08:58:52.000Z</time>
      </trkpt>
      <trkpt lat="42.69463" lon="1.25614">
        <ele>1805.1999511719</ele>
        <time>2023-07-25T08:58:53.000Z</time>
      </trkpt>
      <trkpt lat="42.6946" lon="1.25613">
        <ele>1804.1999511719</ele>
        <time>2023-07-25T08:58:58.000Z</time>
      </trkpt>
      <trkpt lat="42.69458" lon="1.25612">
        <ele>1803.5999755859</ele>
        <time>2023-07-25T08:59:00.000Z</time>
      </trkpt>
      <trkpt lat="42.69457" lon="1.25609">
        <ele>1801.8000488281</ele>
        <time>2023-07-25T08:59:08.000Z</time>
      </trkpt>
      <trkpt lat="42.69455" lon="1.25609">
        <ele>1801.4000244141</ele>
        <time>2023-07-25T08:59:10.000Z</time>
      </trkpt>
      <trkpt lat="42.69456" lon="1.25612">
        <ele>1800.8000488281</ele>
        <time>2023-07-25T08:59:13.000Z</time>
      </trkpt>
      <trkpt lat="42.69455" lon="1.25612">
        <ele>1800.4000244141</ele>
        <time>2023-07-25T08:59:14.000Z</time>
      </trkpt>
      <trkpt lat="42.69453" lon="1.2561">
        <ele>1800</ele>
        <time>2023-07-25T08:59:18.000Z</time>
      </trkpt>
      <trkpt lat="42.69452" lon="1.2561">
        <ele>1799.8000488281</ele>
        <time>2023-07-25T08:59:19.000Z</time>
      </trkpt>
      <trkpt lat="42.69452" lon="1.25609">
        <ele>1799.5999755859</ele>
        <time>2023-07-25T08:59:20.000Z</time>
      </trkpt>
      <trkpt lat="42.6945" lon="1.25605">
        <ele>1798.5999755859</ele>
        <time>2023-07-25T08:59:25.000Z</time>
      </trkpt>
      <trkpt lat="42.6945" lon="1.25604">
        <ele>1798.1999511719</ele>
        <time>2023-07-25T08:59:28.000Z</time>
      </trkpt>
      <trkpt lat="42.6945" lon="1.25605">
        <ele>1797.5999755859</ele>
        <time>2023-07-25T08:59:37.000Z</time>
      </trkpt>
      <trkpt lat="42.69449" lon="1.25605">
        <ele>1797.4000244141</ele>
        <time>2023-07-25T08:59:44.000Z</time>
      </trkpt>
      <trkpt lat="42.69449" lon="1.25606">
        <ele>1797.4000244141</ele>
        <time>2023-07-25T08:59:52.000Z</time>
      </trkpt>
      <trkpt lat="42.69446" lon="1.25606">
        <ele>1797.1999511719</ele>
        <time>2023-07-25T08:59:59.000Z</time>
      </trkpt>
      <trkpt lat="42.69447" lon="1.25606">
        <ele>1797.1999511719</ele>
        <time>2023-07-25T09:00:04.000Z</time>
      </trkpt>
      <trkpt lat="42.69448" lon="1.25607">
        <ele>1797</ele>
        <time>2023-07-25T09:00:12.000Z</time>
      </trkpt>
      <trkpt lat="42.69447" lon="1.25607">
        <ele>1797</ele>
        <time>2023-07-25T09:00:19.000Z</time>
      </trkpt>
      <trkpt lat="42.69447" lon="1.25607">
        <ele>1797.4000244141</ele>
        <time>2023-07-25T09:00:33.000Z</time>
      </trkpt>
      <trkpt lat="42.69445" lon="1.25605">
        <ele>1796.5999755859</ele>
        <time>2023-07-25T09:00:39.000Z</time>
      </trkpt>
      <trkpt lat="42.69445" lon="1.25603">
        <ele>1796.4000244141</ele>
        <time>2023-07-25T09:00:40.000Z</time>
      </trkpt>
      <trkpt lat="42.69442" lon="1.256">
        <ele>1795</ele>
        <time>2023-07-25T09:00:45.000Z</time>
      </trkpt>
      <trkpt lat="42.6944" lon="1.25599">
        <ele>1794</ele>
        <time>2023-07-25T09:00:51.000Z</time>
      </trkpt>
      <trkpt lat="42.6944" lon="1.25597">
        <ele>1792.5999755859</ele>
        <time>2023-07-25T09:00:56.000Z</time>
      </trkpt>
      <trkpt lat="42.6944" lon="1.25596">
        <ele>1792.1999511719</ele>
        <time>2023-07-25T09:00:58.000Z</time>
      </trkpt>
      <trkpt lat="42.6944" lon="1.25596">
        <ele>1791.5999755859</ele>
        <time>2023-07-25T09:01:02.000Z</time>
      </trkpt>
      <trkpt lat="42.69438" lon="1.25595">
        <ele>1791.1999511719</ele>
        <time>2023-07-25T09:01:04.000Z</time>
      </trkpt>
      <trkpt lat="42.69436" lon="1.25593">
        <ele>1790.5999755859</ele>
        <time>2023-07-25T09:01:08.000Z</time>
      </trkpt>
      <trkpt lat="42.69433" lon="1.25592">
        <ele>1789.5999755859</ele>
        <time>2023-07-25T09:01:12.000Z</time>
      </trkpt>
      <trkpt lat="42.6943" lon="1.2559">
        <ele>1788.4000244141</ele>
        <time>2023-07-25T09:01:16.000Z</time>
      </trkpt>
      <trkpt lat="42.69428" lon="1.25589">
        <ele>1787.4000244141</ele>
        <time>2023-07-25T09:01:20.000Z</time>
      </trkpt>
      <trkpt lat="42.69428" lon="1.25589">
        <ele>1787.1999511719</ele>
        <time>2023-07-25T09:01:21.000Z</time>
      </trkpt>
      <trkpt lat="42.69425" lon="1.25588">
        <ele>1786.1999511719</ele>
        <time>2023-07-25T09:01:27.000Z</time>
      </trkpt>
      <trkpt lat="42.69424" lon="1.25587">
        <ele>1786</ele>
        <time>2023-07-25T09:01:28.000Z</time>
      </trkpt>
      <trkpt lat="42.69419" lon="1.25586">
        <ele>1785.1999511719</ele>
        <time>2023-07-25T09:01:33.000Z</time>
      </trkpt>
      <trkpt lat="42.69418" lon="1.25586">
        <ele>1783.4000244141</ele>
        <time>2023-07-25T09:01:39.000Z</time>
      </trkpt>
      <trkpt lat="42.69417" lon="1.25588">
        <ele>1782.8000488281</ele>
        <time>2023-07-25T09:01:41.000Z</time>
      </trkpt>
      <trkpt lat="42.69417" lon="1.25589">
        <ele>1782.5999755859</ele>
        <time>2023-07-25T09:01:42.000Z</time>
      </trkpt>
      <trkpt lat="42.69416" lon="1.25591">
        <ele>1781.5999755859</ele>
        <time>2023-07-25T09:01:45.000Z</time>
      </trkpt>
      <trkpt lat="42.69414" lon="1.25593">
        <ele>1780.8000488281</ele>
        <time>2023-07-25T09:01:49.000Z</time>
      </trkpt>
      <trkpt lat="42.69415" lon="1.25592">
        <ele>1780.5999755859</ele>
        <time>2023-07-25T09:01:50.000Z</time>
      </trkpt>
      <trkpt lat="42.69414" lon="1.25591">
        <ele>1779.4000244141</ele>
        <time>2023-07-25T09:01:54.000Z</time>
      </trkpt>
      <trkpt lat="42.69413" lon="1.25591">
        <ele>1778.8000488281</ele>
        <time>2023-07-25T09:01:57.000Z</time>
      </trkpt>
      <trkpt lat="42.69411" lon="1.2559">
        <ele>1778.4000244141</ele>
        <time>2023-07-25T09:02:00.000Z</time>
      </trkpt>
      <trkpt lat="42.69408" lon="1.25592">
        <ele>1777.1999511719</ele>
        <time>2023-07-25T09:02:05.000Z</time>
      </trkpt>
      <trkpt lat="42.69406" lon="1.25598">
        <ele>1776</ele>
        <time>2023-07-25T09:02:10.000Z</time>
      </trkpt>
      <trkpt lat="42.69406" lon="1.256">
        <ele>1775.8000488281</ele>
        <time>2023-07-25T09:02:11.000Z</time>
      </trkpt>
      <trkpt lat="42.69405" lon="1.25602">
        <ele>1774.8000488281</ele>
        <time>2023-07-25T09:02:15.000Z</time>
      </trkpt>
      <trkpt lat="42.69404" lon="1.25602">
        <ele>1773.8000488281</ele>
        <time>2023-07-25T09:02:18.000Z</time>
      </trkpt>
      <trkpt lat="42.69403" lon="1.25602">
        <ele>1773.5999755859</ele>
        <time>2023-07-25T09:02:19.000Z</time>
      </trkpt>
      <trkpt lat="42.69397" lon="1.25602">
        <ele>1771.4000244141</ele>
        <time>2023-07-25T09:02:29.000Z</time>
      </trkpt>
      <trkpt lat="42.69396" lon="1.256">
        <ele>1771.1999511719</ele>
        <time>2023-07-25T09:02:30.000Z</time>
      </trkpt>
      <trkpt lat="42.69394" lon="1.25597">
        <ele>1770.1999511719</ele>
        <time>2023-07-25T09:02:34.000Z</time>
      </trkpt>
      <trkpt lat="42.69393" lon="1.25596">
        <ele>1770</ele>
        <time>2023-07-25T09:02:35.000Z</time>
      </trkpt>
      <trkpt lat="42.69391" lon="1.2559">
        <ele>1769</ele>
        <time>2023-07-25T09:02:40.000Z</time>
      </trkpt>
      <trkpt lat="42.69391" lon="1.25589">
        <ele>1768.5999755859</ele>
        <time>2023-07-25T09:02:42.000Z</time>
      </trkpt>
      <trkpt lat="42.69391" lon="1.25586">
        <ele>1768</ele>
        <time>2023-07-25T09:02:45.000Z</time>
      </trkpt>
      <trkpt lat="42.6939" lon="1.25584">
        <ele>1767</ele>
        <time>2023-07-25T09:02:50.000Z</time>
      </trkpt>
      <trkpt lat="42.69388" lon="1.25578">
        <ele>1766</ele>
        <time>2023-07-25T09:02:55.000Z</time>
      </trkpt>
      <trkpt lat="42.69388" lon="1.25575">
        <ele>1765.4000244141</ele>
        <time>2023-07-25T09:02:58.000Z</time>
      </trkpt>
      <trkpt lat="42.69387" lon="1.25572">
        <ele>1764.8000488281</ele>
        <time>2023-07-25T09:03:01.000Z</time>
      </trkpt>
      <trkpt lat="42.69386" lon="1.25566">
        <ele>1764.1999511719</ele>
        <time>2023-07-25T09:03:06.000Z</time>
      </trkpt>
      <trkpt lat="42.69385" lon="1.25565">
        <ele>1763.8000488281</ele>
        <time>2023-07-25T09:03:09.000Z</time>
      </trkpt>
      <trkpt lat="42.69384" lon="1.25563">
        <ele>1763.4000244141</ele>
        <time>2023-07-25T09:03:12.000Z</time>
      </trkpt>
      <trkpt lat="42.69383" lon="1.2556">
        <ele>1762.8000488281</ele>
        <time>2023-07-25T09:03:16.000Z</time>
      </trkpt>
      <trkpt lat="42.6938" lon="1.25556">
        <ele>1762.1999511719</ele>
        <time>2023-07-25T09:03:20.000Z</time>
      </trkpt>
      <trkpt lat="42.69378" lon="1.25554">
        <ele>1761.8000488281</ele>
        <time>2023-07-25T09:03:24.000Z</time>
      </trkpt>
      <trkpt lat="42.69377" lon="1.25553">
        <ele>1761</ele>
        <time>2023-07-25T09:03:29.000Z</time>
      </trkpt>
      <trkpt lat="42.69377" lon="1.25552">
        <ele>1760.5999755859</ele>
        <time>2023-07-25T09:03:31.000Z</time>
      </trkpt>
      <trkpt lat="42.69372" lon="1.25549">
        <ele>1759.8000488281</ele>
        <time>2023-07-25T09:03:36.000Z</time>
      </trkpt>
      <trkpt lat="42.69371" lon="1.25548">
        <ele>1759.5999755859</ele>
        <time>2023-07-25T09:03:37.000Z</time>
      </trkpt>
      <trkpt lat="42.69368" lon="1.25545">
        <ele>1758.4000244141</ele>
        <time>2023-07-25T09:03:42.000Z</time>
      </trkpt>
      <trkpt lat="42.69365" lon="1.25543">
        <ele>1757.5999755859</ele>
        <time>2023-07-25T09:03:50.000Z</time>
      </trkpt>
      <trkpt lat="42.69364" lon="1.25542">
        <ele>1757.1999511719</ele>
        <time>2023-07-25T09:03:52.000Z</time>
      </trkpt>
      <trkpt lat="42.69361" lon="1.25539">
        <ele>1756.1999511719</ele>
        <time>2023-07-25T09:03:56.000Z</time>
      </trkpt>
      <trkpt lat="42.69358" lon="1.25534">
        <ele>1755</ele>
        <time>2023-07-25T09:04:01.000Z</time>
      </trkpt>
      <trkpt lat="42.69357" lon="1.25533">
        <ele>1754.8000488281</ele>
        <time>2023-07-25T09:04:03.000Z</time>
      </trkpt>
      <trkpt lat="42.69355" lon="1.25524">
        <ele>1754</ele>
        <time>2023-07-25T09:04:11.000Z</time>
      </trkpt>
      <trkpt lat="42.69351" lon="1.25521">
        <ele>1752.5999755859</ele>
        <time>2023-07-25T09:04:17.000Z</time>
      </trkpt>
      <trkpt lat="42.69347" lon="1.2552">
        <ele>1751.5999755859</ele>
        <time>2023-07-25T09:04:23.000Z</time>
      </trkpt>
      <trkpt lat="42.69347" lon="1.25519">
        <ele>1751.4000244141</ele>
        <time>2023-07-25T09:04:24.000Z</time>
      </trkpt>
      <trkpt lat="42.69345" lon="1.25516">
        <ele>1750.4000244141</ele>
        <time>2023-07-25T09:04:30.000Z</time>
      </trkpt>
      <trkpt lat="42.69343" lon="1.25512">
        <ele>1749.4000244141</ele>
        <time>2023-07-25T09:04:36.000Z</time>
      </trkpt>
      <trkpt lat="42.69341" lon="1.25509">
        <ele>1748.8000488281</ele>
        <time>2023-07-25T09:04:40.000Z</time>
      </trkpt>
      <trkpt lat="42.69336" lon="1.25505">
        <ele>1748.1999511719</ele>
        <time>2023-07-25T09:04:45.000Z</time>
      </trkpt>
      <trkpt lat="42.69331" lon="1.25502">
        <ele>1747.8000488281</ele>
        <time>2023-07-25T09:04:48.000Z</time>
      </trkpt>
      <trkpt lat="42.69328" lon="1.255">
        <ele>1747.1999511719</ele>
        <time>2023-07-25T09:04:52.000Z</time>
      </trkpt>
      <trkpt lat="42.69327" lon="1.25498">
        <ele>1747</ele>
        <time>2023-07-25T09:04:55.000Z</time>
      </trkpt>
      <trkpt lat="42.69324" lon="1.25492">
        <ele>1745.8000488281</ele>
        <time>2023-07-25T09:05:01.000Z</time>
      </trkpt>
      <trkpt lat="42.69324" lon="1.25492">
        <ele>1745.5999755859</ele>
        <time>2023-07-25T09:05:02.000Z</time>
      </trkpt>
      <trkpt lat="42.69323" lon="1.25493">
        <ele>1744.8000488281</ele>
        <time>2023-07-25T09:05:07.000Z</time>
      </trkpt>
      <trkpt lat="42.6932" lon="1.25492">
        <ele>1744</ele>
        <time>2023-07-25T09:05:10.000Z</time>
      </trkpt>
      <trkpt lat="42.69318" lon="1.25492">
        <ele>1743.5999755859</ele>
        <time>2023-07-25T09:05:11.000Z</time>
      </trkpt>
      <trkpt lat="42.69314" lon="1.25489">
        <ele>1742.5999755859</ele>
        <time>2023-07-25T09:05:15.000Z</time>
      </trkpt>
      <trkpt lat="42.69314" lon="1.25489">
        <ele>1742.4000244141</ele>
        <time>2023-07-25T09:05:16.000Z</time>
      </trkpt>
      <trkpt lat="42.69312" lon="1.25488">
        <ele>1741.5999755859</ele>
        <time>2023-07-25T09:05:19.000Z</time>
      </trkpt>
      <trkpt lat="42.69308" lon="1.25485">
        <ele>1741</ele>
        <time>2023-07-25T09:05:22.000Z</time>
      </trkpt>
      <trkpt lat="42.69305" lon="1.25485">
        <ele>1740.5999755859</ele>
        <time>2023-07-25T09:05:24.000Z</time>
      </trkpt>
      <trkpt lat="42.693" lon="1.25484">
        <ele>1739.4000244141</ele>
        <time>2023-07-25T09:05:28.000Z</time>
      </trkpt>
      <trkpt lat="42.69296" lon="1.25482">
        <ele>1738.1999511719</ele>
        <time>2023-07-25T09:05:33.000Z</time>
      </trkpt>
      <trkpt lat="42.69295" lon="1.25481">
        <ele>1737.8000488281</ele>
        <time>2023-07-25T09:05:36.000Z</time>
      </trkpt>
      <trkpt lat="42.69294" lon="1.2548">
        <ele>1737.1999511719</ele>
        <time>2023-07-25T09:05:39.000Z</time>
      </trkpt>
      <trkpt lat="42.69289" lon="1.25478">
        <ele>1736.1999511719</ele>
        <time>2023-07-25T09:05:45.000Z</time>
      </trkpt>
      <trkpt lat="42.69288" lon="1.25478">
        <ele>1736</ele>
        <time>2023-07-25T09:05:46.000Z</time>
      </trkpt>
      <trkpt lat="42.69288" lon="1.25478">
        <ele>1734.8000488281</ele>
        <time>2023-07-25T09:05:52.000Z</time>
      </trkpt>
      <trkpt lat="42.69288" lon="1.25478">
        <ele>1734.5999755859</ele>
        <time>2023-07-25T09:05:53.000Z</time>
      </trkpt>
      <trkpt lat="42.69286" lon="1.25476">
        <ele>1733.8000488281</ele>
        <time>2023-07-25T09:05:58.000Z</time>
      </trkpt>
      <trkpt lat="42.69285" lon="1.25475">
        <ele>1733.1999511719</ele>
        <time>2023-07-25T09:06:00.000Z</time>
      </trkpt>
      <trkpt lat="42.69277" lon="1.25477">
        <ele>1731.4000244141</ele>
        <time>2023-07-25T09:06:08.000Z</time>
      </trkpt>
      <trkpt lat="42.69276" lon="1.25475">
        <ele>1730.5999755859</ele>
        <time>2023-07-25T09:06:12.000Z</time>
      </trkpt>
      <trkpt lat="42.69276" lon="1.25475">
        <ele>1730.4000244141</ele>
        <time>2023-07-25T09:06:13.000Z</time>
      </trkpt>
      <trkpt lat="42.69273" lon="1.25472">
        <ele>1729.1999511719</ele>
        <time>2023-07-25T09:06:18.000Z</time>
      </trkpt>
      <trkpt lat="42.69273" lon="1.25472">
        <ele>1728.8000488281</ele>
        <time>2023-07-25T09:06:20.000Z</time>
      </trkpt>
      <trkpt lat="42.69272" lon="1.25473">
        <ele>1728</ele>
        <time>2023-07-25T09:06:23.000Z</time>
      </trkpt>
      <trkpt lat="42.69269" lon="1.25473">
        <ele>1727.1999511719</ele>
        <time>2023-07-25T09:06:28.000Z</time>
      </trkpt>
      <trkpt lat="42.69268" lon="1.25473">
        <ele>1726.8000488281</ele>
        <time>2023-07-25T09:06:29.000Z</time>
      </trkpt>
      <trkpt lat="42.69264" lon="1.25472">
        <ele>1725.8000488281</ele>
        <time>2023-07-25T09:06:34.000Z</time>
      </trkpt>
      <trkpt lat="42.69262" lon="1.25471">
        <ele>1725</ele>
        <time>2023-07-25T09:06:37.000Z</time>
      </trkpt>
      <trkpt lat="42.6926" lon="1.25469">
        <ele>1724.5999755859</ele>
        <time>2023-07-25T09:06:39.000Z</time>
      </trkpt>
      <trkpt lat="42.69255" lon="1.25466">
        <ele>1723.5999755859</ele>
        <time>2023-07-25T09:06:44.000Z</time>
      </trkpt>
      <trkpt lat="42.69249" lon="1.25461">
        <ele>1722.5999755859</ele>
        <time>2023-07-25T09:06:49.000Z</time>
      </trkpt>
      <trkpt lat="42.69246" lon="1.2546">
        <ele>1721.8000488281</ele>
        <time>2023-07-25T09:06:52.000Z</time>
      </trkpt>
      <trkpt lat="42.69245" lon="1.25458">
        <ele>1721.4000244141</ele>
        <time>2023-07-25T09:06:54.000Z</time>
      </trkpt>
      <trkpt lat="42.69243" lon="1.25453">
        <ele>1720.1999511719</ele>
        <time>2023-07-25T09:06:59.000Z</time>
      </trkpt>
      <trkpt lat="42.69242" lon="1.25451">
        <ele>1720</ele>
        <time>2023-07-25T09:07:01.000Z</time>
      </trkpt>
      <trkpt lat="42.69239" lon="1.25447">
        <ele>1719.1999511719</ele>
        <time>2023-07-25T09:07:07.000Z</time>
      </trkpt>
      <trkpt lat="42.69237" lon="1.25444">
        <ele>1718.5999755859</ele>
        <time>2023-07-25T09:07:11.000Z</time>
      </trkpt>
      <trkpt lat="42.69235" lon="1.25442">
        <ele>1718.1999511719</ele>
        <time>2023-07-25T09:07:15.000Z</time>
      </trkpt>
      <trkpt lat="42.69231" lon="1.25439">
        <ele>1717.1999511719</ele>
        <time>2023-07-25T09:07:19.000Z</time>
      </trkpt>
      <trkpt lat="42.69231" lon="1.25439">
        <ele>1717</ele>
        <time>2023-07-25T09:07:20.000Z</time>
      </trkpt>
      <trkpt lat="42.69227" lon="1.25441">
        <ele>1716</ele>
        <time>2023-07-25T09:07:26.000Z</time>
      </trkpt>
      <trkpt lat="42.69224" lon="1.25446">
        <ele>1715.4000244141</ele>
        <time>2023-07-25T09:07:29.000Z</time>
      </trkpt>
      <trkpt lat="42.69224" lon="1.25447">
        <ele>1715</ele>
        <time>2023-07-25T09:07:30.000Z</time>
      </trkpt>
      <trkpt lat="42.69223" lon="1.25448">
        <ele>1714.8000488281</ele>
        <time>2023-07-25T09:07:31.000Z</time>
      </trkpt>
      <trkpt lat="42.6922" lon="1.25449">
        <ele>1713.8000488281</ele>
        <time>2023-07-25T09:07:37.000Z</time>
      </trkpt>
      <trkpt lat="42.69219" lon="1.25449">
        <ele>1713.5999755859</ele>
        <time>2023-07-25T09:07:38.000Z</time>
      </trkpt>
      <trkpt lat="42.69214" lon="1.25448">
        <ele>1712.4000244141</ele>
        <time>2023-07-25T09:07:43.000Z</time>
      </trkpt>
      <trkpt lat="42.69213" lon="1.25447">
        <ele>1712</ele>
        <time>2023-07-25T09:07:44.000Z</time>
      </trkpt>
      <trkpt lat="42.69209" lon="1.25445">
        <ele>1711.1999511719</ele>
        <time>2023-07-25T09:07:48.000Z</time>
      </trkpt>
      <trkpt lat="42.69207" lon="1.25443">
        <ele>1710.8000488281</ele>
        <time>2023-07-25T09:07:52.000Z</time>
      </trkpt>
      <trkpt lat="42.69202" lon="1.25442">
        <ele>1710</ele>
        <time>2023-07-25T09:07:57.000Z</time>
      </trkpt>
      <trkpt lat="42.69201" lon="1.25441">
        <ele>1709.5999755859</ele>
        <time>2023-07-25T09:07:59.000Z</time>
      </trkpt>
      <trkpt lat="42.69198" lon="1.25438">
        <ele>1709</ele>
        <time>2023-07-25T09:08:03.000Z</time>
      </trkpt>
      <trkpt lat="42.69196" lon="1.25435">
        <ele>1708.1999511719</ele>
        <time>2023-07-25T09:08:08.000Z</time>
      </trkpt>
      <trkpt lat="42.69195" lon="1.25434">
        <ele>1707.8000488281</ele>
        <time>2023-07-25T09:08:10.000Z</time>
      </trkpt>
      <trkpt lat="42.69188" lon="1.25432">
        <ele>1706.8000488281</ele>
        <time>2023-07-25T09:08:17.000Z</time>
      </trkpt>
      <trkpt lat="42.6918" lon="1.25431">
        <ele>1705.5999755859</ele>
        <time>2023-07-25T09:08:22.000Z</time>
      </trkpt>
      <trkpt lat="42.69177" lon="1.25431">
        <ele>1704.5999755859</ele>
        <time>2023-07-25T09:08:25.000Z</time>
      </trkpt>
      <trkpt lat="42.69176" lon="1.25431">
        <ele>1704.4000244141</ele>
        <time>2023-07-25T09:08:26.000Z</time>
      </trkpt>
      <trkpt lat="42.69169" lon="1.2543">
        <ele>1703.1999511719</ele>
        <time>2023-07-25T09:08:31.000Z</time>
      </trkpt>
      <trkpt lat="42.69166" lon="1.25428">
        <ele>1702.8000488281</ele>
        <time>2023-07-25T09:08:33.000Z</time>
      </trkpt>
      <trkpt lat="42.69163" lon="1.25423">
        <ele>1702.1999511719</ele>
        <time>2023-07-25T09:08:37.000Z</time>
      </trkpt>
      <trkpt lat="42.69161" lon="1.2542">
        <ele>1702</ele>
        <time>2023-07-25T09:08:40.000Z</time>
      </trkpt>
      <trkpt lat="42.69156" lon="1.25414">
        <ele>1701</ele>
        <time>2023-07-25T09:08:47.000Z</time>
      </trkpt>
      <trkpt lat="42.69153" lon="1.25412">
        <ele>1700.5999755859</ele>
        <time>2023-07-25T09:08:50.000Z</time>
      </trkpt>
      <trkpt lat="42.6915" lon="1.25411">
        <ele>1700</ele>
        <time>2023-07-25T09:08:54.000Z</time>
      </trkpt>
      <trkpt lat="42.69149" lon="1.2541">
        <ele>1699.4000244141</ele>
        <time>2023-07-25T09:08:57.000Z</time>
      </trkpt>
      <trkpt lat="42.69147" lon="1.25407">
        <ele>1699</ele>
        <time>2023-07-25T09:09:00.000Z</time>
      </trkpt>
      <trkpt lat="42.69144" lon="1.25404">
        <ele>1698.5999755859</ele>
        <time>2023-07-25T09:09:03.000Z</time>
      </trkpt>
      <trkpt lat="42.6914" lon="1.25402">
        <ele>1697.8000488281</ele>
        <time>2023-07-25T09:09:07.000Z</time>
      </trkpt>
      <trkpt lat="42.69137" lon="1.25402">
        <ele>1697.1999511719</ele>
        <time>2023-07-25T09:09:10.000Z</time>
      </trkpt>
      <trkpt lat="42.69135" lon="1.25401">
        <ele>1696.8000488281</ele>
        <time>2023-07-25T09:09:12.000Z</time>
      </trkpt>
      <trkpt lat="42.6913" lon="1.25397">
        <ele>1696</ele>
        <time>2023-07-25T09:09:17.000Z</time>
      </trkpt>
      <trkpt lat="42.69127" lon="1.25396">
        <ele>1695.5999755859</ele>
        <time>2023-07-25T09:09:19.000Z</time>
      </trkpt>
      <trkpt lat="42.69123" lon="1.25391">
        <ele>1695</ele>
        <time>2023-07-25T09:09:24.000Z</time>
      </trkpt>
      <trkpt lat="42.69119" lon="1.25384">
        <ele>1694.8000488281</ele>
        <time>2023-07-25T09:09:31.000Z</time>
      </trkpt>
      <trkpt lat="42.69117" lon="1.25381">
        <ele>1694.5999755859</ele>
        <time>2023-07-25T09:09:33.000Z</time>
      </trkpt>
      <trkpt lat="42.69109" lon="1.25372">
        <ele>1693.8000488281</ele>
        <time>2023-07-25T09:09:40.000Z</time>
      </trkpt>
      <trkpt lat="42.69101" lon="1.25362">
        <ele>1694</ele>
        <time>2023-07-25T09:09:48.000Z</time>
      </trkpt>
      <trkpt lat="42.69096" lon="1.25357">
        <ele>1693.5999755859</ele>
        <time>2023-07-25T09:09:54.000Z</time>
      </trkpt>
      <trkpt lat="42.69095" lon="1.25356">
        <ele>1693.4000244141</ele>
        <time>2023-07-25T09:09:55.000Z</time>
      </trkpt>
      <trkpt lat="42.69091" lon="1.25354">
        <ele>1692.5999755859</ele>
        <time>2023-07-25T09:10:00.000Z</time>
      </trkpt>
      <trkpt lat="42.69088" lon="1.25352">
        <ele>1692</ele>
        <time>2023-07-25T09:10:03.000Z</time>
      </trkpt>
      <trkpt lat="42.69085" lon="1.25351">
        <ele>1691.4000244141</ele>
        <time>2023-07-25T09:10:06.000Z</time>
      </trkpt>
      <trkpt lat="42.69081" lon="1.25348">
        <ele>1690</ele>
        <time>2023-07-25T09:10:10.000Z</time>
      </trkpt>
      <trkpt lat="42.6908" lon="1.25347">
        <ele>1690</ele>
        <time>2023-07-25T09:10:11.000Z</time>
      </trkpt>
      <trkpt lat="42.69074" lon="1.25346">
        <ele>1689</ele>
        <time>2023-07-25T09:10:17.000Z</time>
      </trkpt>
      <trkpt lat="42.69073" lon="1.25346">
        <ele>1689</ele>
        <time>2023-07-25T09:10:18.000Z</time>
      </trkpt>
      <trkpt lat="42.69067" lon="1.25343">
        <ele>1688</ele>
        <time>2023-07-25T09:10:23.000Z</time>
      </trkpt>
      <trkpt lat="42.69065" lon="1.25341">
        <ele>1687.5999755859</ele>
        <time>2023-07-25T09:10:25.000Z</time>
      </trkpt>
      <trkpt lat="42.69059" lon="1.25337">
        <ele>1687.5999755859</ele>
        <time>2023-07-25T09:10:32.000Z</time>
      </trkpt>
      <trkpt lat="42.69051" lon="1.25332">
        <ele>1687.1999511719</ele>
        <time>2023-07-25T09:10:37.000Z</time>
      </trkpt>
      <trkpt lat="42.6905" lon="1.25331">
        <ele>1686.8000488281</ele>
        <time>2023-07-25T09:10:38.000Z</time>
      </trkpt>
      <trkpt lat="42.69044" lon="1.25325">
        <ele>1686</ele>
        <time>2023-07-25T09:10:45.000Z</time>
      </trkpt>
      <trkpt lat="42.69043" lon="1.25325">
        <ele>1685.8000488281</ele>
        <time>2023-07-25T09:10:46.000Z</time>
      </trkpt>
      <trkpt lat="42.69042" lon="1.25324">
        <ele>1685.8000488281</ele>
        <time>2023-07-25T09:10:52.000Z</time>
      </trkpt>
      <trkpt lat="42.69041" lon="1.25322">
        <ele>1685.8000488281</ele>
        <time>2023-07-25T09:10:56.000Z</time>
      </trkpt>
      <trkpt lat="42.69039" lon="1.25322">
        <ele>1685.5999755859</ele>
        <time>2023-07-25T09:11:00.000Z</time>
      </trkpt>
      <trkpt lat="42.6904" lon="1.25317">
        <ele>1685.4000244141</ele>
        <time>2023-07-25T09:11:07.000Z</time>
      </trkpt>
      <trkpt lat="42.69037" lon="1.25315">
        <ele>1685.4000244141</ele>
        <time>2023-07-25T09:11:13.000Z</time>
      </trkpt>
      <trkpt lat="42.69032" lon="1.25306">
        <ele>1685.4000244141</ele>
        <time>2023-07-25T09:11:21.000Z</time>
      </trkpt>
      <trkpt lat="42.69025" lon="1.25294">
        <ele>1685.4000244141</ele>
        <time>2023-07-25T09:11:30.000Z</time>
      </trkpt>
      <trkpt lat="42.69019" lon="1.25287">
        <ele>1684.8000488281</ele>
        <time>2023-07-25T09:11:38.000Z</time>
      </trkpt>
      <trkpt lat="42.69018" lon="1.25287">
        <ele>1684.5999755859</ele>
        <time>2023-07-25T09:11:39.000Z</time>
      </trkpt>
      <trkpt lat="42.69013" lon="1.2528">
        <ele>1683.4000244141</ele>
        <time>2023-07-25T09:11:46.000Z</time>
      </trkpt>
      <trkpt lat="42.69009" lon="1.25274">
        <ele>1683.1999511719</ele>
        <time>2023-07-25T09:11:54.000Z</time>
      </trkpt>
      <trkpt lat="42.69001" lon="1.25268">
        <ele>1683.5999755859</ele>
        <time>2023-07-25T09:12:02.000Z</time>
      </trkpt>
      <trkpt lat="42.68994" lon="1.25268">
        <ele>1682.5999755859</ele>
        <time>2023-07-25T09:12:09.000Z</time>
      </trkpt>
      <trkpt lat="42.68993" lon="1.25268">
        <ele>1682.4000244141</ele>
        <time>2023-07-25T09:12:11.000Z</time>
      </trkpt>
      <trkpt lat="42.68985" lon="1.25267">
        <ele>1681.1999511719</ele>
        <time>2023-07-25T09:12:17.000Z</time>
      </trkpt>
      <trkpt lat="42.68977" lon="1.25263">
        <ele>1680.1999511719</ele>
        <time>2023-07-25T09:12:25.000Z</time>
      </trkpt>
      <trkpt lat="42.68976" lon="1.25262">
        <ele>1680.1999511719</ele>
        <time>2023-07-25T09:12:26.000Z</time>
      </trkpt>
      <trkpt lat="42.6897" lon="1.25258">
        <ele>1679</ele>
        <time>2023-07-25T09:12:31.000Z</time>
      </trkpt>
      <trkpt lat="42.68967" lon="1.25255">
        <ele>1678.4000244141</ele>
        <time>2023-07-25T09:12:33.000Z</time>
      </trkpt>
      <trkpt lat="42.68965" lon="1.25251">
        <ele>1678</ele>
        <time>2023-07-25T09:12:36.000Z</time>
      </trkpt>
      <trkpt lat="42.68963" lon="1.25249">
        <ele>1677.5999755859</ele>
        <time>2023-07-25T09:12:39.000Z</time>
      </trkpt>
      <trkpt lat="42.68957" lon="1.25244">
        <ele>1676.5999755859</ele>
        <time>2023-07-25T09:12:44.000Z</time>
      </trkpt>
      <trkpt lat="42.68951" lon="1.25241">
        <ele>1675.8000488281</ele>
        <time>2023-07-25T09:12:49.000Z</time>
      </trkpt>
      <trkpt lat="42.68949" lon="1.2524">
        <ele>1675.5999755859</ele>
        <time>2023-07-25T09:12:50.000Z</time>
      </trkpt>
      <trkpt lat="42.68945" lon="1.25237">
        <ele>1674.5999755859</ele>
        <time>2023-07-25T09:12:55.000Z</time>
      </trkpt>
      <trkpt lat="42.68944" lon="1.25237">
        <ele>1674.4000244141</ele>
        <time>2023-07-25T09:12:56.000Z</time>
      </trkpt>
      <trkpt lat="42.6894" lon="1.25233">
        <ele>1673.1999511719</ele>
        <time>2023-07-25T09:13:02.000Z</time>
      </trkpt>
      <trkpt lat="42.68934" lon="1.25225">
        <ele>1672.4000244141</ele>
        <time>2023-07-25T09:13:09.000Z</time>
      </trkpt>
      <trkpt lat="42.68932" lon="1.25224">
        <ele>1672</ele>
        <time>2023-07-25T09:13:11.000Z</time>
      </trkpt>
      <trkpt lat="42.68926" lon="1.25222">
        <ele>1671.4000244141</ele>
        <time>2023-07-25T09:13:15.000Z</time>
      </trkpt>
      <trkpt lat="42.68923" lon="1.25221">
        <ele>1671</ele>
        <time>2023-07-25T09:13:17.000Z</time>
      </trkpt>
      <trkpt lat="42.6892" lon="1.25218">
        <ele>1670</ele>
        <time>2023-07-25T09:13:21.000Z</time>
      </trkpt>
      <trkpt lat="42.6892" lon="1.25217">
        <ele>1669.8000488281</ele>
        <time>2023-07-25T09:13:22.000Z</time>
      </trkpt>
      <trkpt lat="42.68916" lon="1.2521">
        <ele>1669.1999511719</ele>
        <time>2023-07-25T09:13:27.000Z</time>
      </trkpt>
      <trkpt lat="42.68914" lon="1.25208">
        <ele>1668.8000488281</ele>
        <time>2023-07-25T09:13:29.000Z</time>
      </trkpt>
      <trkpt lat="42.68911" lon="1.25203">
        <ele>1667.8000488281</ele>
        <time>2023-07-25T09:13:34.000Z</time>
      </trkpt>
      <trkpt lat="42.68911" lon="1.25202">
        <ele>1667.5999755859</ele>
        <time>2023-07-25T09:13:35.000Z</time>
      </trkpt>
      <trkpt lat="42.68906" lon="1.25195">
        <ele>1666.8000488281</ele>
        <time>2023-07-25T09:13:41.000Z</time>
      </trkpt>
      <trkpt lat="42.68905" lon="1.25194">
        <ele>1666.4000244141</ele>
        <time>2023-07-25T09:13:42.000Z</time>
      </trkpt>
      <trkpt lat="42.689" lon="1.25189">
        <ele>1665.5999755859</ele>
        <time>2023-07-25T09:13:49.000Z</time>
      </trkpt>
      <trkpt lat="42.68897" lon="1.25186">
        <ele>1665.4000244141</ele>
        <time>2023-07-25T09:13:52.000Z</time>
      </trkpt>
      <trkpt lat="42.68892" lon="1.25183">
        <ele>1664.4000244141</ele>
        <time>2023-07-25T09:13:57.000Z</time>
      </trkpt>
      <trkpt lat="42.6889" lon="1.25183">
        <ele>1663.1999511719</ele>
        <time>2023-07-25T09:14:01.000Z</time>
      </trkpt>
      <trkpt lat="42.68887" lon="1.25184">
        <ele>1662.5999755859</ele>
        <time>2023-07-25T09:14:05.000Z</time>
      </trkpt>
      <trkpt lat="42.68886" lon="1.25184">
        <ele>1662</ele>
        <time>2023-07-25T09:14:08.000Z</time>
      </trkpt>
      <trkpt lat="42.68883" lon="1.25184">
        <ele>1660.8000488281</ele>
        <time>2023-07-25T09:14:12.000Z</time>
      </trkpt>
      <trkpt lat="42.68883" lon="1.25183">
        <ele>1660.5999755859</ele>
        <time>2023-07-25T09:14:13.000Z</time>
      </trkpt>
      <trkpt lat="42.68882" lon="1.25184">
        <ele>1660</ele>
        <time>2023-07-25T09:14:15.000Z</time>
      </trkpt>
      <trkpt lat="42.68882" lon="1.25184">
        <ele>1659.8000488281</ele>
        <time>2023-07-25T09:14:16.000Z</time>
      </trkpt>
      <trkpt lat="42.68882" lon="1.25183">
        <ele>1659.4000244141</ele>
        <time>2023-07-25T09:14:17.000Z</time>
      </trkpt>
      <trkpt lat="42.6888" lon="1.25182">
        <ele>1659</ele>
        <time>2023-07-25T09:14:19.000Z</time>
      </trkpt>
      <trkpt lat="42.6888" lon="1.25182">
        <ele>1659</ele>
        <time>2023-07-25T09:14:20.000Z</time>
      </trkpt>
      <trkpt lat="42.68878" lon="1.25179">
        <ele>1658.5999755859</ele>
        <time>2023-07-25T09:14:23.000Z</time>
      </trkpt>
      <trkpt lat="42.68875" lon="1.25176">
        <ele>1657.4000244141</ele>
        <time>2023-07-25T09:14:27.000Z</time>
      </trkpt>
      <trkpt lat="42.68873" lon="1.25174">
        <ele>1656.4000244141</ele>
        <time>2023-07-25T09:14:29.000Z</time>
      </trkpt>
      <trkpt lat="42.68868" lon="1.25173">
        <ele>1655.1999511719</ele>
        <time>2023-07-25T09:14:33.000Z</time>
      </trkpt>
      <trkpt lat="42.68867" lon="1.25172">
        <ele>1654.5999755859</ele>
        <time>2023-07-25T09:14:36.000Z</time>
      </trkpt>
      <trkpt lat="42.68863" lon="1.25172">
        <ele>1654.1999511719</ele>
        <time>2023-07-25T09:14:39.000Z</time>
      </trkpt>
      <trkpt lat="42.68856" lon="1.2517">
        <ele>1652.8000488281</ele>
        <time>2023-07-25T09:14:44.000Z</time>
      </trkpt>
      <trkpt lat="42.68851" lon="1.25167">
        <ele>1651.8000488281</ele>
        <time>2023-07-25T09:14:48.000Z</time>
      </trkpt>
      <trkpt lat="42.6885" lon="1.25162">
        <ele>1651</ele>
        <time>2023-07-25T09:14:53.000Z</time>
      </trkpt>
      <trkpt lat="42.68848" lon="1.25161">
        <ele>1650.5999755859</ele>
        <time>2023-07-25T09:14:55.000Z</time>
      </trkpt>
      <trkpt lat="42.68845" lon="1.25159">
        <ele>1649.8000488281</ele>
        <time>2023-07-25T09:14:59.000Z</time>
      </trkpt>
      <trkpt lat="42.68845" lon="1.25159">
        <ele>1649.5999755859</ele>
        <time>2023-07-25T09:15:00.000Z</time>
      </trkpt>
      <trkpt lat="42.68844" lon="1.25158">
        <ele>1648.4000244141</ele>
        <time>2023-07-25T09:15:04.000Z</time>
      </trkpt>
      <trkpt lat="42.68841" lon="1.25156">
        <ele>1648</ele>
        <time>2023-07-25T09:15:06.000Z</time>
      </trkpt>
      <trkpt lat="42.68839" lon="1.25155">
        <ele>1647.4000244141</ele>
        <time>2023-07-25T09:15:08.000Z</time>
      </trkpt>
      <trkpt lat="42.68835" lon="1.25153">
        <ele>1646.4000244141</ele>
        <time>2023-07-25T09:15:12.000Z</time>
      </trkpt>
      <trkpt lat="42.68834" lon="1.25152">
        <ele>1646</ele>
        <time>2023-07-25T09:15:13.000Z</time>
      </trkpt>
      <trkpt lat="42.68831" lon="1.25145">
        <ele>1644.5999755859</ele>
        <time>2023-07-25T09:15:20.000Z</time>
      </trkpt>
      <trkpt lat="42.68827" lon="1.25138">
        <ele>1644.1999511719</ele>
        <time>2023-07-25T09:15:24.000Z</time>
      </trkpt>
      <trkpt lat="42.68822" lon="1.25135">
        <ele>1643.8000488281</ele>
        <time>2023-07-25T09:15:29.000Z</time>
      </trkpt>
      <trkpt lat="42.68818" lon="1.25132">
        <ele>1643</ele>
        <time>2023-07-25T09:15:33.000Z</time>
      </trkpt>
      <trkpt lat="42.68814" lon="1.25128">
        <ele>1642.4000244141</ele>
        <time>2023-07-25T09:15:37.000Z</time>
      </trkpt>
      <trkpt lat="42.68807" lon="1.2512">
        <ele>1642.1999511719</ele>
        <time>2023-07-25T09:15:45.000Z</time>
      </trkpt>
      <trkpt lat="42.688" lon="1.25112">
        <ele>1641</ele>
        <time>2023-07-25T09:15:59.000Z</time>
      </trkpt>
      <trkpt lat="42.68797" lon="1.25106">
        <ele>1640.4000244141</ele>
        <time>2023-07-25T09:16:07.000Z</time>
      </trkpt>
      <trkpt lat="42.68793" lon="1.25103">
        <ele>1640</ele>
        <time>2023-07-25T09:16:11.000Z</time>
      </trkpt>
      <trkpt lat="42.68792" lon="1.25102">
        <ele>1639.4000244141</ele>
        <time>2023-07-25T09:16:14.000Z</time>
      </trkpt>
      <trkpt lat="42.68787" lon="1.25097">
        <ele>1638.8000488281</ele>
        <time>2023-07-25T09:16:21.000Z</time>
      </trkpt>
      <trkpt lat="42.68782" lon="1.25093">
        <ele>1638.1999511719</ele>
        <time>2023-07-25T09:16:27.000Z</time>
      </trkpt>
      <trkpt lat="42.6878" lon="1.25093">
        <ele>1637.8000488281</ele>
        <time>2023-07-25T09:16:29.000Z</time>
      </trkpt>
      <trkpt lat="42.68766" lon="1.25094">
        <ele>1636</ele>
        <time>2023-07-25T09:16:43.000Z</time>
      </trkpt>
      <trkpt lat="42.68764" lon="1.25092">
        <ele>1635.5999755859</ele>
        <time>2023-07-25T09:16:45.000Z</time>
      </trkpt>
      <trkpt lat="42.68764" lon="1.25091">
        <ele>1635.4000244141</ele>
        <time>2023-07-25T09:16:46.000Z</time>
      </trkpt>
      <trkpt lat="42.68758" lon="1.25086">
        <ele>1634.5999755859</ele>
        <time>2023-07-25T09:16:51.000Z</time>
      </trkpt>
      <trkpt lat="42.68757" lon="1.25084">
        <ele>1634.4000244141</ele>
        <time>2023-07-25T09:16:53.000Z</time>
      </trkpt>
      <trkpt lat="42.68752" lon="1.25079">
        <ele>1633.5999755859</ele>
        <time>2023-07-25T09:16:59.000Z</time>
      </trkpt>
      <trkpt lat="42.68752" lon="1.25078">
        <ele>1633.4000244141</ele>
        <time>2023-07-25T09:17:00.000Z</time>
      </trkpt>
      <trkpt lat="42.68748" lon="1.25071">
        <ele>1633</ele>
        <time>2023-07-25T09:17:05.000Z</time>
      </trkpt>
      <trkpt lat="42.68743" lon="1.25063">
        <ele>1632.5999755859</ele>
        <time>2023-07-25T09:17:10.000Z</time>
      </trkpt>
      <trkpt lat="42.6874" lon="1.25059">
        <ele>1632.4000244141</ele>
        <time>2023-07-25T09:17:15.000Z</time>
      </trkpt>
      <trkpt lat="42.68739" lon="1.25058">
        <ele>1632.1999511719</ele>
        <time>2023-07-25T09:17:16.000Z</time>
      </trkpt>
      <trkpt lat="42.68733" lon="1.25052">
        <ele>1631.4000244141</ele>
        <time>2023-07-25T09:17:24.000Z</time>
      </trkpt>
      <trkpt lat="42.68732" lon="1.2505">
        <ele>1631.1999511719</ele>
        <time>2023-07-25T09:17:26.000Z</time>
      </trkpt>
      <trkpt lat="42.68729" lon="1.25048">
        <ele>1631</ele>
        <time>2023-07-25T09:17:29.000Z</time>
      </trkpt>
      <trkpt lat="42.68724" lon="1.25044">
        <ele>1630.1999511719</ele>
        <time>2023-07-25T09:17:35.000Z</time>
      </trkpt>
      <trkpt lat="42.68719" lon="1.25037">
        <ele>1629.4000244141</ele>
        <time>2023-07-25T09:17:41.000Z</time>
      </trkpt>
      <trkpt lat="42.68718" lon="1.25035">
        <ele>1629.1999511719</ele>
        <time>2023-07-25T09:17:43.000Z</time>
      </trkpt>
      <trkpt lat="42.68715" lon="1.25029">
        <ele>1628.5999755859</ele>
        <time>2023-07-25T09:17:47.000Z</time>
      </trkpt>
      <trkpt lat="42.68713" lon="1.25023">
        <ele>1628</ele>
        <time>2023-07-25T09:17:52.000Z</time>
      </trkpt>
      <trkpt lat="42.68711" lon="1.25021">
        <ele>1627.8000488281</ele>
        <time>2023-07-25T09:17:54.000Z</time>
      </trkpt>
      <trkpt lat="42.68706" lon="1.25009">
        <ele>1627.1999511719</ele>
        <time>2023-07-25T09:18:02.000Z</time>
      </trkpt>
      <trkpt lat="42.68704" lon="1.25006">
        <ele>1627</ele>
        <time>2023-07-25T09:18:04.000Z</time>
      </trkpt>
      <trkpt lat="42.68698" lon="1.25002">
        <ele>1626.4000244141</ele>
        <time>2023-07-25T09:18:09.000Z</time>
      </trkpt>
      <trkpt lat="42.68697" lon="1.24998">
        <ele>1626</ele>
        <time>2023-07-25T09:18:13.000Z</time>
      </trkpt>
      <trkpt lat="42.68697" lon="1.24993">
        <ele>1625.8000488281</ele>
        <time>2023-07-25T09:18:16.000Z</time>
      </trkpt>
      <trkpt lat="42.68697" lon="1.24984">
        <ele>1625</ele>
        <time>2023-07-25T09:18:22.000Z</time>
      </trkpt>
      <trkpt lat="42.68696" lon="1.24981">
        <ele>1624.8000488281</ele>
        <time>2023-07-25T09:18:24.000Z</time>
      </trkpt>
      <trkpt lat="42.68695" lon="1.24977">
        <ele>1624.1999511719</ele>
        <time>2023-07-25T09:18:28.000Z</time>
      </trkpt>
      <trkpt lat="42.68687" lon="1.24965">
        <ele>1624</ele>
        <time>2023-07-25T09:18:38.000Z</time>
      </trkpt>
      <trkpt lat="42.68679" lon="1.24957">
        <ele>1623.8000488281</ele>
        <time>2023-07-25T09:18:46.000Z</time>
      </trkpt>
      <trkpt lat="42.68679" lon="1.24955">
        <ele>1623.5999755859</ele>
        <time>2023-07-25T09:18:47.000Z</time>
      </trkpt>
      <trkpt lat="42.68671" lon="1.24947">
        <ele>1623.4000244141</ele>
        <time>2023-07-25T09:18:54.000Z</time>
      </trkpt>
      <trkpt lat="42.68669" lon="1.24935">
        <ele>1623</ele>
        <time>2023-07-25T09:19:01.000Z</time>
      </trkpt>
      <trkpt lat="42.68664" lon="1.24926">
        <ele>1622.5999755859</ele>
        <time>2023-07-25T09:19:06.000Z</time>
      </trkpt>
      <trkpt lat="42.68662" lon="1.24922">
        <ele>1622.4000244141</ele>
        <time>2023-07-25T09:19:09.000Z</time>
      </trkpt>
      <trkpt lat="42.6866" lon="1.24913">
        <ele>1621.5999755859</ele>
        <time>2023-07-25T09:19:16.000Z</time>
      </trkpt>
      <trkpt lat="42.6866" lon="1.2491">
        <ele>1621.5999755859</ele>
        <time>2023-07-25T09:19:17.000Z</time>
      </trkpt>
      <trkpt lat="42.68659" lon="1.24905">
        <ele>1621.1999511719</ele>
        <time>2023-07-25T09:19:21.000Z</time>
      </trkpt>
      <trkpt lat="42.68658" lon="1.24896">
        <ele>1620.5999755859</ele>
        <time>2023-07-25T09:19:26.000Z</time>
      </trkpt>
      <trkpt lat="42.68659" lon="1.24896">
        <ele>1620.5999755859</ele>
        <time>2023-07-25T09:19:27.000Z</time>
      </trkpt>
      <trkpt lat="42.68659" lon="1.24892">
        <ele>1620.4000244141</ele>
        <time>2023-07-25T09:19:32.000Z</time>
      </trkpt>
      <trkpt lat="42.68663" lon="1.24882">
        <ele>1620</ele>
        <time>2023-07-25T09:19:38.000Z</time>
      </trkpt>
      <trkpt lat="42.68659" lon="1.24841">
        <ele>1619.8000488281</ele>
        <time>2023-07-25T09:20:08.000Z</time>
      </trkpt>
      <trkpt lat="42.68603" lon="1.24752">
        <ele>1618.1999511719</ele>
        <time>2023-07-25T09:21:21.000Z</time>
      </trkpt>
      <trkpt lat="42.68602" lon="1.24739">
        <ele>1617.5999755859</ele>
        <time>2023-07-25T09:21:30.000Z</time>
      </trkpt>
      <trkpt lat="42.68601" lon="1.24737">
        <ele>1617.5999755859</ele>
        <time>2023-07-25T09:21:31.000Z</time>
      </trkpt>
      <trkpt lat="42.68596" lon="1.2473">
        <ele>1616.5999755859</ele>
        <time>2023-07-25T09:21:38.000Z</time>
      </trkpt>
      <trkpt lat="42.68592" lon="1.24726">
        <ele>1616.4000244141</ele>
        <time>2023-07-25T09:21:41.000Z</time>
      </trkpt>
      <trkpt lat="42.68589" lon="1.24719">
        <ele>1615.5999755859</ele>
        <time>2023-07-25T09:21:46.000Z</time>
      </trkpt>
      <trkpt lat="42.68575" lon="1.24696">
        <ele>1613.1999511719</ele>
        <time>2023-07-25T09:22:03.000Z</time>
      </trkpt>
      <trkpt lat="42.68576" lon="1.24688">
        <ele>1612</ele>
        <time>2023-07-25T09:22:09.000Z</time>
      </trkpt>
      <trkpt lat="42.68575" lon="1.24683">
        <ele>1611.8000488281</ele>
        <time>2023-07-25T09:22:11.000Z</time>
      </trkpt>
      <trkpt lat="42.68571" lon="1.2467">
        <ele>1611.4000244141</ele>
        <time>2023-07-25T09:22:19.000Z</time>
      </trkpt>
      <trkpt lat="42.68568" lon="1.24661">
        <ele>1610.8000488281</ele>
        <time>2023-07-25T09:22:24.000Z</time>
      </trkpt>
      <trkpt lat="42.68566" lon="1.24655">
        <ele>1610.8000488281</ele>
        <time>2023-07-25T09:22:27.000Z</time>
      </trkpt>
      <trkpt lat="42.68562" lon="1.24648">
        <ele>1610.5999755859</ele>
        <time>2023-07-25T09:22:34.000Z</time>
      </trkpt>
      <trkpt lat="42.68559" lon="1.2464">
        <ele>1611</ele>
        <time>2023-07-25T09:22:40.000Z</time>
      </trkpt>
      <trkpt lat="42.68551" lon="1.24628">
        <ele>1610.8000488281</ele>
        <time>2023-07-25T09:22:47.000Z</time>
      </trkpt>
      <trkpt lat="42.68547" lon="1.24623">
        <ele>1610.4000244141</ele>
        <time>2023-07-25T09:22:53.000Z</time>
      </trkpt>
      <trkpt lat="42.68545" lon="1.24618">
        <ele>1610</ele>
        <time>2023-07-25T09:22:59.000Z</time>
      </trkpt>
      <trkpt lat="42.68545" lon="1.24611">
        <ele>1610.5999755859</ele>
        <time>2023-07-25T09:23:05.000Z</time>
      </trkpt>
      <trkpt lat="42.68542" lon="1.246">
        <ele>1611</ele>
        <time>2023-07-25T09:23:13.000Z</time>
      </trkpt>
      <trkpt lat="42.68539" lon="1.2459">
        <ele>1611.1999511719</ele>
        <time>2023-07-25T09:23:20.000Z</time>
      </trkpt>
      <trkpt lat="42.68538" lon="1.24586">
        <ele>1610.8000488281</ele>
        <time>2023-07-25T09:23:26.000Z</time>
      </trkpt>
      <trkpt lat="42.68538" lon="1.24587">
        <ele>1610.8000488281</ele>
        <time>2023-07-25T09:23:27.000Z</time>
      </trkpt>
      <trkpt lat="42.68545" lon="1.24578">
        <ele>1610.5999755859</ele>
        <time>2023-07-25T09:24:03.000Z</time>
      </trkpt>
      <trkpt lat="42.68539" lon="1.24564">
        <ele>1610</ele>
        <time>2023-07-25T09:24:10.000Z</time>
      </trkpt>
      <trkpt lat="42.68539" lon="1.24559">
        <ele>1609.8000488281</ele>
        <time>2023-07-25T09:24:13.000Z</time>
      </trkpt>
      <trkpt lat="42.68536" lon="1.2455">
        <ele>1609.8000488281</ele>
        <time>2023-07-25T09:24:18.000Z</time>
      </trkpt>
      <trkpt lat="42.68532" lon="1.24538">
        <ele>1609.8000488281</ele>
        <time>2023-07-25T09:24:26.000Z</time>
      </trkpt>
      <trkpt lat="42.68528" lon="1.24527">
        <ele>1609.1999511719</ele>
        <time>2023-07-25T09:24:33.000Z</time>
      </trkpt>
      <trkpt lat="42.68526" lon="1.24519">
        <ele>1608.5999755859</ele>
        <time>2023-07-25T09:24:38.000Z</time>
      </trkpt>
      <trkpt lat="42.68524" lon="1.24513">
        <ele>1607.8000488281</ele>
        <time>2023-07-25T09:24:43.000Z</time>
      </trkpt>
      <trkpt lat="42.68522" lon="1.24508">
        <ele>1607.5999755859</ele>
        <time>2023-07-25T09:24:46.000Z</time>
      </trkpt>
      <trkpt lat="42.68521" lon="1.24503">
        <ele>1607</ele>
        <time>2023-07-25T09:24:50.000Z</time>
      </trkpt>
      <trkpt lat="42.68519" lon="1.24503">
        <ele>1606.5999755859</ele>
        <time>2023-07-25T09:24:54.000Z</time>
      </trkpt>
      <trkpt lat="42.68519" lon="1.24502">
        <ele>1606.5999755859</ele>
        <time>2023-07-25T09:24:56.000Z</time>
      </trkpt>
      <trkpt lat="42.68519" lon="1.245">
        <ele>1606.4000244141</ele>
        <time>2023-07-25T09:25:02.000Z</time>
      </trkpt>
      <trkpt lat="42.68516" lon="1.24498">
        <ele>1606</ele>
        <time>2023-07-25T09:25:08.000Z</time>
      </trkpt>
      <trkpt lat="42.68514" lon="1.24498">
        <ele>1605.5999755859</ele>
        <time>2023-07-25T09:25:14.000Z</time>
      </trkpt>
      <trkpt lat="42.68512" lon="1.24494">
        <ele>1605.4000244141</ele>
        <time>2023-07-25T09:25:45.000Z</time>
      </trkpt>
      <trkpt lat="42.68509" lon="1.2449">
        <ele>1604.5999755859</ele>
        <time>2023-07-25T09:25:51.000Z</time>
      </trkpt>
      <trkpt lat="42.68508" lon="1.2449">
        <ele>1604.4000244141</ele>
        <time>2023-07-25T09:25:52.000Z</time>
      </trkpt>
      <trkpt lat="42.68509" lon="1.24485">
        <ele>1603.4000244141</ele>
        <time>2023-07-25T09:25:56.000Z</time>
      </trkpt>
      <trkpt lat="42.68506" lon="1.24479">
        <ele>1602.5999755859</ele>
        <time>2023-07-25T09:26:01.000Z</time>
      </trkpt>
      <trkpt lat="42.68506" lon="1.24478">
        <ele>1602.4000244141</ele>
        <time>2023-07-25T09:26:02.000Z</time>
      </trkpt>
      <trkpt lat="42.68503" lon="1.24471">
        <ele>1601.5999755859</ele>
        <time>2023-07-25T09:26:08.000Z</time>
      </trkpt>
      <trkpt lat="42.68493" lon="1.2446">
        <ele>1600</ele>
        <time>2023-07-25T09:26:16.000Z</time>
      </trkpt>
      <trkpt lat="42.68492" lon="1.24457">
        <ele>1599.5999755859</ele>
        <time>2023-07-25T09:26:19.000Z</time>
      </trkpt>
      <trkpt lat="42.68489" lon="1.24449">
        <ele>1598.8000488281</ele>
        <time>2023-07-25T09:26:23.000Z</time>
      </trkpt>
      <trkpt lat="42.68488" lon="1.24446">
        <ele>1598.4000244141</ele>
        <time>2023-07-25T09:26:26.000Z</time>
      </trkpt>
      <trkpt lat="42.68487" lon="1.24442">
        <ele>1597.8000488281</ele>
        <time>2023-07-25T09:26:32.000Z</time>
      </trkpt>
      <trkpt lat="42.68488" lon="1.24436">
        <ele>1597.4000244141</ele>
        <time>2023-07-25T09:26:40.000Z</time>
      </trkpt>
      <trkpt lat="42.68484" lon="1.24424">
        <ele>1597.1999511719</ele>
        <time>2023-07-25T09:26:49.000Z</time>
      </trkpt>
      <trkpt lat="42.6848" lon="1.24417">
        <ele>1596.8000488281</ele>
        <time>2023-07-25T09:26:54.000Z</time>
      </trkpt>
      <trkpt lat="42.6848" lon="1.24415">
        <ele>1596.5999755859</ele>
        <time>2023-07-25T09:26:55.000Z</time>
      </trkpt>
      <trkpt lat="42.68476" lon="1.24402">
        <ele>1596.8000488281</ele>
        <time>2023-07-25T09:27:02.000Z</time>
      </trkpt>
      <trkpt lat="42.6847" lon="1.24389">
        <ele>1596.1999511719</ele>
        <time>2023-07-25T09:27:10.000Z</time>
      </trkpt>
      <trkpt lat="42.68469" lon="1.24389">
        <ele>1596</ele>
        <time>2023-07-25T09:27:15.000Z</time>
      </trkpt>
      <trkpt lat="42.68476" lon="1.24385">
        <ele>1595.8000488281</ele>
        <time>2023-07-25T09:27:32.000Z</time>
      </trkpt>
      <trkpt lat="42.6847" lon="1.24373">
        <ele>1594.8000488281</ele>
        <time>2023-07-25T09:27:45.000Z</time>
      </trkpt>
      <trkpt lat="42.68469" lon="1.24372">
        <ele>1594.5999755859</ele>
        <time>2023-07-25T09:27:46.000Z</time>
      </trkpt>
      <trkpt lat="42.68467" lon="1.24367">
        <ele>1593.5999755859</ele>
        <time>2023-07-25T09:27:54.000Z</time>
      </trkpt>
      <trkpt lat="42.68467" lon="1.24367">
        <ele>1593.4000244141</ele>
        <time>2023-07-25T09:27:55.000Z</time>
      </trkpt>
      <trkpt lat="42.68462" lon="1.24371">
        <ele>1592.4000244141</ele>
        <time>2023-07-25T09:28:01.000Z</time>
      </trkpt>
      <trkpt lat="42.68458" lon="1.24372">
        <ele>1591</ele>
        <time>2023-07-25T09:28:16.000Z</time>
      </trkpt>
      <trkpt lat="42.68449" lon="1.24373">
        <ele>1590.5999755859</ele>
        <time>2023-07-25T09:28:36.000Z</time>
      </trkpt>
      <trkpt lat="42.68466" lon="1.24364">
        <ele>1592.8000488281</ele>
        <time>2023-07-25T09:29:07.000Z</time>
      </trkpt>
      <trkpt lat="42.68442" lon="1.24429">
        <ele>1586.4000244141</ele>
        <time>2023-07-25T10:23:31.000Z</time>
      </trkpt>
      <trkpt lat="42.68438" lon="1.24403">
        <ele>1585.5999755859</ele>
        <time>2023-07-25T10:23:36.000Z</time>
      </trkpt>
      <trkpt lat="42.68437" lon="1.24401">
        <ele>1585.4000244141</ele>
        <time>2023-07-25T10:23:38.000Z</time>
      </trkpt>
      <trkpt lat="42.68432" lon="1.24394">
        <ele>1585.1999511719</ele>
        <time>2023-07-25T10:23:43.000Z</time>
      </trkpt>
      <trkpt lat="42.68425" lon="1.2439">
        <ele>1584.8000488281</ele>
        <time>2023-07-25T10:23:49.000Z</time>
      </trkpt>
      <trkpt lat="42.68422" lon="1.24386">
        <ele>1584.1999511719</ele>
        <time>2023-07-25T10:23:53.000Z</time>
      </trkpt>
      <trkpt lat="42.68421" lon="1.24385">
        <ele>1584</ele>
        <time>2023-07-25T10:23:55.000Z</time>
      </trkpt>
      <trkpt lat="42.68417" lon="1.24377">
        <ele>1583.5999755859</ele>
        <time>2023-07-25T10:24:00.000Z</time>
      </trkpt>
      <trkpt lat="42.68414" lon="1.24374">
        <ele>1583.1999511719</ele>
        <time>2023-07-25T10:24:04.000Z</time>
      </trkpt>
      <trkpt lat="42.68413" lon="1.24374">
        <ele>1583</ele>
        <time>2023-07-25T10:24:05.000Z</time>
      </trkpt>
      <trkpt lat="42.68409" lon="1.24369">
        <ele>1582.1999511719</ele>
        <time>2023-07-25T10:24:11.000Z</time>
      </trkpt>
      <trkpt lat="42.68408" lon="1.24367">
        <ele>1582</ele>
        <time>2023-07-25T10:24:12.000Z</time>
      </trkpt>
      <trkpt lat="42.68407" lon="1.24368">
        <ele>1581.4000244141</ele>
        <time>2023-07-25T10:24:17.000Z</time>
      </trkpt>
      <trkpt lat="42.68407" lon="1.24368">
        <ele>1581.4000244141</ele>
        <time>2023-07-25T10:24:18.000Z</time>
      </trkpt>
      <trkpt lat="42.68407" lon="1.24368">
        <ele>1581.4000244141</ele>
        <time>2023-07-25T10:24:26.000Z</time>
      </trkpt>
      <trkpt lat="42.6841" lon="1.24369">
        <ele>1581.4000244141</ele>
        <time>2023-07-25T10:24:35.000Z</time>
      </trkpt>
      <trkpt lat="42.68407" lon="1.24366">
        <ele>1581.4000244141</ele>
        <time>2023-07-25T10:24:42.000Z</time>
      </trkpt>
      <trkpt lat="42.6841" lon="1.24371">
        <ele>1581.5999755859</ele>
        <time>2023-07-25T10:24:51.000Z</time>
      </trkpt>
      <trkpt lat="42.68417" lon="1.24377">
        <ele>1582.8000488281</ele>
        <time>2023-07-25T10:25:00.000Z</time>
      </trkpt>
      <trkpt lat="42.68421" lon="1.24377">
        <ele>1583.1999511719</ele>
        <time>2023-07-25T10:25:05.000Z</time>
      </trkpt>
      <trkpt lat="42.68422" lon="1.24377">
        <ele>1583.4000244141</ele>
        <time>2023-07-25T10:25:07.000Z</time>
      </trkpt>
      <trkpt lat="42.68429" lon="1.24382">
        <ele>1584.1999511719</ele>
        <time>2023-07-25T10:25:15.000Z</time>
      </trkpt>
      <trkpt lat="42.68433" lon="1.24389">
        <ele>1585</ele>
        <time>2023-07-25T10:25:24.000Z</time>
      </trkpt>
      <trkpt lat="42.68435" lon="1.24397">
        <ele>1585.1999511719</ele>
        <time>2023-07-25T10:25:29.000Z</time>
      </trkpt>
      <trkpt lat="42.68437" lon="1.24402">
        <ele>1585.5999755859</ele>
        <time>2023-07-25T10:25:32.000Z</time>
      </trkpt>
      <trkpt lat="42.6844" lon="1.2441">
        <ele>1586.1999511719</ele>
        <time>2023-07-25T10:25:39.000Z</time>
      </trkpt>
      <trkpt lat="42.68439" lon="1.24409">
        <ele>1586.4000244141</ele>
        <time>2023-07-25T10:25:40.000Z</time>
      </trkpt>
      <trkpt lat="42.6844" lon="1.24408">
        <ele>1586.8000488281</ele>
        <time>2023-07-25T10:25:46.000Z</time>
      </trkpt>
      <trkpt lat="42.68445" lon="1.24405">
        <ele>1586.8000488281</ele>
        <time>2023-07-25T10:25:55.000Z</time>
      </trkpt>
      <trkpt lat="42.68441" lon="1.24408">
        <ele>1586.8000488281</ele>
        <time>2023-07-25T10:26:04.000Z</time>
      </trkpt>
      <trkpt lat="42.68444" lon="1.24408">
        <ele>1586.8000488281</ele>
        <time>2023-07-25T10:26:12.000Z</time>
      </trkpt>
      <trkpt lat="42.68437" lon="1.24411">
        <ele>1586.8000488281</ele>
        <time>2023-07-25T10:26:19.000Z</time>
      </trkpt>
      <trkpt lat="42.68434" lon="1.24417">
        <ele>1586</ele>
        <time>2023-07-25T10:26:26.000Z</time>
      </trkpt>
      <trkpt lat="42.68433" lon="1.24425">
        <ele>1585</ele>
        <time>2023-07-25T10:26:31.000Z</time>
      </trkpt>
      <trkpt lat="42.68433" lon="1.24431">
        <ele>1584.5999755859</ele>
        <time>2023-07-25T10:26:34.000Z</time>
      </trkpt>
      <trkpt lat="42.68433" lon="1.24434">
        <ele>1584</ele>
        <time>2023-07-25T10:26:37.000Z</time>
      </trkpt>
      <trkpt lat="42.68433" lon="1.24439">
        <ele>1583.8000488281</ele>
        <time>2023-07-25T10:26:40.000Z</time>
      </trkpt>
      <trkpt lat="42.68431" lon="1.24449">
        <ele>1583</ele>
        <time>2023-07-25T10:26:47.000Z</time>
      </trkpt>
      <trkpt lat="42.68431" lon="1.2445">
        <ele>1582.8000488281</ele>
        <time>2023-07-25T10:26:48.000Z</time>
      </trkpt>
      <trkpt lat="42.68431" lon="1.24461">
        <ele>1581.8000488281</ele>
        <time>2023-07-25T10:26:55.000Z</time>
      </trkpt>
      <trkpt lat="42.68431" lon="1.24462">
        <ele>1581.4000244141</ele>
        <time>2023-07-25T10:26:59.000Z</time>
      </trkpt>
      <trkpt lat="42.68432" lon="1.24461">
        <ele>1581.1999511719</ele>
        <time>2023-07-25T10:27:02.000Z</time>
      </trkpt>
      <trkpt lat="42.68432" lon="1.24464">
        <ele>1581.1999511719</ele>
        <time>2023-07-25T10:27:05.000Z</time>
      </trkpt>
      <trkpt lat="42.68431" lon="1.24464">
        <ele>1581.1999511719</ele>
        <time>2023-07-25T10:27:11.000Z</time>
      </trkpt>
      <trkpt lat="42.68431" lon="1.24459">
        <ele>1581.1999511719</ele>
        <time>2023-07-25T10:27:20.000Z</time>
      </trkpt>
      <trkpt lat="42.68432" lon="1.24459">
        <ele>1581.4000244141</ele>
        <time>2023-07-25T10:27:27.000Z</time>
      </trkpt>
      <trkpt lat="42.68432" lon="1.2447">
        <ele>1581</ele>
        <time>2023-07-25T10:27:33.000Z</time>
      </trkpt>
      <trkpt lat="42.68432" lon="1.24473">
        <ele>1580.8000488281</ele>
        <time>2023-07-25T10:27:34.000Z</time>
      </trkpt>
      <trkpt lat="42.68434" lon="1.24483">
        <ele>1579.8000488281</ele>
        <time>2023-07-25T10:27:40.000Z</time>
      </trkpt>
      <trkpt lat="42.68434" lon="1.24485">
        <ele>1579.5999755859</ele>
        <time>2023-07-25T10:27:41.000Z</time>
      </trkpt>
      <trkpt lat="42.68435" lon="1.24493">
        <ele>1578.8000488281</ele>
        <time>2023-07-25T10:27:49.000Z</time>
      </trkpt>
      <trkpt lat="42.68435" lon="1.24492">
        <ele>1578.8000488281</ele>
        <time>2023-07-25T10:27:51.000Z</time>
      </trkpt>
      <trkpt lat="42.68434" lon="1.24492">
        <ele>1578.8000488281</ele>
        <time>2023-07-25T10:27:53.000Z</time>
      </trkpt>
      <trkpt lat="42.68433" lon="1.24491">
        <ele>1578.8000488281</ele>
        <time>2023-07-25T10:27:56.000Z</time>
      </trkpt>
      <trkpt lat="42.68433" lon="1.2449">
        <ele>1578.8000488281</ele>
        <time>2023-07-25T10:27:58.000Z</time>
      </trkpt>
      <trkpt lat="42.68434" lon="1.24492">
        <ele>1578.5999755859</ele>
        <time>2023-07-25T10:28:01.000Z</time>
      </trkpt>
      <trkpt lat="42.68434" lon="1.24491">
        <ele>1578.5999755859</ele>
        <time>2023-07-25T10:28:06.000Z</time>
      </trkpt>
      <trkpt lat="42.68434" lon="1.24486">
        <ele>1578.5999755859</ele>
        <time>2023-07-25T10:28:13.000Z</time>
      </trkpt>
      <trkpt lat="42.68433" lon="1.24475">
        <ele>1579.4000244141</ele>
        <time>2023-07-25T10:28:20.000Z</time>
      </trkpt>
      <trkpt lat="42.68432" lon="1.2447">
        <ele>1579.8000488281</ele>
        <time>2023-07-25T10:28:24.000Z</time>
      </trkpt>
      <trkpt lat="42.68433" lon="1.24464">
        <ele>1580.4000244141</ele>
        <time>2023-07-25T10:28:28.000Z</time>
      </trkpt>
      <trkpt lat="42.68432" lon="1.24459">
        <ele>1580.8000488281</ele>
        <time>2023-07-25T10:28:31.000Z</time>
      </trkpt>
      <trkpt lat="42.68431" lon="1.24452">
        <ele>1581.8000488281</ele>
        <time>2023-07-25T10:28:37.000Z</time>
      </trkpt>
      <trkpt lat="42.68431" lon="1.24443">
        <ele>1582.8000488281</ele>
        <time>2023-07-25T10:28:44.000Z</time>
      </trkpt>
      <trkpt lat="42.68431" lon="1.24439">
        <ele>1583</ele>
        <time>2023-07-25T10:28:46.000Z</time>
      </trkpt>
      <trkpt lat="42.68433" lon="1.24427">
        <ele>1584</ele>
        <time>2023-07-25T10:28:55.000Z</time>
      </trkpt>
      <trkpt lat="42.68435" lon="1.24419">
        <ele>1584.4000244141</ele>
        <time>2023-07-25T10:29:01.000Z</time>
      </trkpt>
      <trkpt lat="42.68437" lon="1.24415">
        <ele>1585</ele>
        <time>2023-07-25T10:29:04.000Z</time>
      </trkpt>
      <trkpt lat="42.68437" lon="1.24414">
        <ele>1585.4000244141</ele>
        <time>2023-07-25T10:29:07.000Z</time>
      </trkpt>
      <trkpt lat="42.68437" lon="1.24412">
        <ele>1586</ele>
        <time>2023-07-25T10:29:10.000Z</time>
      </trkpt>
      <trkpt lat="42.68437" lon="1.24411">
        <ele>1586.5999755859</ele>
        <time>2023-07-25T10:29:15.000Z</time>
      </trkpt>
      <trkpt lat="42.68442" lon="1.24408">
        <ele>1586.8000488281</ele>
        <time>2023-07-25T10:29:22.000Z</time>
      </trkpt>
      <trkpt lat="42.68444" lon="1.24406">
        <ele>1587</ele>
        <time>2023-07-25T10:29:24.000Z</time>
      </trkpt>
      <trkpt lat="42.68445" lon="1.24406">
        <ele>1587.1999511719</ele>
        <time>2023-07-25T10:29:30.000Z</time>
      </trkpt>
      <trkpt lat="42.68443" lon="1.24408">
        <ele>1587.1999511719</ele>
        <time>2023-07-25T10:29:38.000Z</time>
      </trkpt>
      <trkpt lat="42.68444" lon="1.24407">
        <ele>1587.1999511719</ele>
        <time>2023-07-25T10:29:46.000Z</time>
      </trkpt>
      <trkpt lat="42.68449" lon="1.24404">
        <ele>1587.8000488281</ele>
        <time>2023-07-25T10:29:53.000Z</time>
      </trkpt>
      <trkpt lat="42.68449" lon="1.24401">
        <ele>1588.1999511719</ele>
        <time>2023-07-25T10:29:55.000Z</time>
      </trkpt>
      <trkpt lat="42.68448" lon="1.24393">
        <ele>1588.5999755859</ele>
        <time>2023-07-25T10:29:59.000Z</time>
      </trkpt>
      <trkpt lat="42.6845" lon="1.24381">
        <ele>1589.1999511719</ele>
        <time>2023-07-25T10:30:05.000Z</time>
      </trkpt>
      <trkpt lat="42.68451" lon="1.2438">
        <ele>1589.1999511719</ele>
        <time>2023-07-25T10:30:06.000Z</time>
      </trkpt>
      <trkpt lat="42.68455" lon="1.24375">
        <ele>1590.1999511719</ele>
        <time>2023-07-25T10:30:12.000Z</time>
      </trkpt>
      <trkpt lat="42.68456" lon="1.24375">
        <ele>1590.4000244141</ele>
        <time>2023-07-25T10:30:13.000Z</time>
      </trkpt>
      <trkpt lat="42.6846" lon="1.24368">
        <ele>1591.1999511719</ele>
        <time>2023-07-25T10:30:19.000Z</time>
      </trkpt>
      <trkpt lat="42.68461" lon="1.24363">
        <ele>1591.4000244141</ele>
        <time>2023-07-25T10:30:21.000Z</time>
      </trkpt>
      <trkpt lat="42.68463" lon="1.2436">
        <ele>1591.8000488281</ele>
        <time>2023-07-25T10:30:24.000Z</time>
      </trkpt>
      <trkpt lat="42.68467" lon="1.24354">
        <ele>1592.4000244141</ele>
        <time>2023-07-25T10:30:29.000Z</time>
      </trkpt>
      <trkpt lat="42.68469" lon="1.24351">
        <ele>1593.1999511719</ele>
        <time>2023-07-25T10:30:32.000Z</time>
      </trkpt>
      <trkpt lat="42.68471" lon="1.24351">
        <ele>1593.5999755859</ele>
        <time>2023-07-25T10:30:34.000Z</time>
      </trkpt>
      <trkpt lat="42.68475" lon="1.24353">
        <ele>1594.4000244141</ele>
        <time>2023-07-25T10:30:40.000Z</time>
      </trkpt>
      <trkpt lat="42.68476" lon="1.24352">
        <ele>1594.5999755859</ele>
        <time>2023-07-25T10:30:41.000Z</time>
      </trkpt>
      <trkpt lat="42.68483" lon="1.24349">
        <ele>1595.5999755859</ele>
        <time>2023-07-25T10:30:47.000Z</time>
      </trkpt>
      <trkpt lat="42.68484" lon="1.24348">
        <ele>1595.8000488281</ele>
        <time>2023-07-25T10:30:48.000Z</time>
      </trkpt>
      <trkpt lat="42.68483" lon="1.24342">
        <ele>1596.5999755859</ele>
        <time>2023-07-25T10:30:55.000Z</time>
      </trkpt>
      <trkpt lat="42.68483" lon="1.24329">
        <ele>1597.1999511719</ele>
        <time>2023-07-25T10:31:02.000Z</time>
      </trkpt>
      <trkpt lat="42.68481" lon="1.24318">
        <ele>1597.4000244141</ele>
        <time>2023-07-25T10:31:10.000Z</time>
      </trkpt>
      <trkpt lat="42.6848" lon="1.24313">
        <ele>1597.8000488281</ele>
        <time>2023-07-25T10:31:13.000Z</time>
      </trkpt>
      <trkpt lat="42.6848" lon="1.2431">
        <ele>1597.8000488281</ele>
        <time>2023-07-25T10:31:18.000Z</time>
      </trkpt>
      <trkpt lat="42.68481" lon="1.24309">
        <ele>1597.8000488281</ele>
        <time>2023-07-25T10:31:27.000Z</time>
      </trkpt>
      <trkpt lat="42.68478" lon="1.2431">
        <ele>1598</ele>
        <time>2023-07-25T10:31:38.000Z</time>
      </trkpt>
      <trkpt lat="42.6848" lon="1.24312">
        <ele>1597.8000488281</ele>
        <time>2023-07-25T10:31:47.000Z</time>
      </trkpt>
      <trkpt lat="42.68481" lon="1.24324">
        <ele>1597.8000488281</ele>
        <time>2023-07-25T10:31:53.000Z</time>
      </trkpt>
      <trkpt lat="42.68482" lon="1.24335">
        <ele>1597.1999511719</ele>
        <time>2023-07-25T10:32:01.000Z</time>
      </trkpt>
      <trkpt lat="42.68486" lon="1.24344">
        <ele>1597.1999511719</ele>
        <time>2023-07-25T10:32:09.000Z</time>
      </trkpt>
      <trkpt lat="42.68486" lon="1.24348">
        <ele>1597.1999511719</ele>
        <time>2023-07-25T10:32:16.000Z</time>
      </trkpt>
      <trkpt lat="42.68488" lon="1.2435">
        <ele>1597.8000488281</ele>
        <time>2023-07-25T10:32:25.000Z</time>
      </trkpt>
      <trkpt lat="42.6849" lon="1.2435">
        <ele>1598.8000488281</ele>
        <time>2023-07-25T10:32:30.000Z</time>
      </trkpt>
      <trkpt lat="42.68493" lon="1.24348">
        <ele>1599.4000244141</ele>
        <time>2023-07-25T10:32:33.000Z</time>
      </trkpt>
      <trkpt lat="42.68494" lon="1.24348">
        <ele>1600</ele>
        <time>2023-07-25T10:32:35.000Z</time>
      </trkpt>
      <trkpt lat="42.68497" lon="1.24345">
        <ele>1601</ele>
        <time>2023-07-25T10:32:40.000Z</time>
      </trkpt>
      <trkpt lat="42.68498" lon="1.24344">
        <ele>1601.1999511719</ele>
        <time>2023-07-25T10:32:41.000Z</time>
      </trkpt>
      <trkpt lat="42.685" lon="1.24338">
        <ele>1602</ele>
        <time>2023-07-25T10:32:47.000Z</time>
      </trkpt>
      <trkpt lat="42.685" lon="1.24337">
        <ele>1602.1999511719</ele>
        <time>2023-07-25T10:32:48.000Z</time>
      </trkpt>
      <trkpt lat="42.68501" lon="1.24334">
        <ele>1603.1999511719</ele>
        <time>2023-07-25T10:32:52.000Z</time>
      </trkpt>
      <trkpt lat="42.68502" lon="1.24333">
        <ele>1603.5999755859</ele>
        <time>2023-07-25T10:32:56.000Z</time>
      </trkpt>
      <trkpt lat="42.68503" lon="1.24332">
        <ele>1603.5999755859</ele>
        <time>2023-07-25T10:33:04.000Z</time>
      </trkpt>
      <trkpt lat="42.68505" lon="1.24325">
        <ele>1603.8000488281</ele>
        <time>2023-07-25T10:33:12.000Z</time>
      </trkpt>
      <trkpt lat="42.68505" lon="1.24316">
        <ele>1604.1999511719</ele>
        <time>2023-07-25T10:33:17.000Z</time>
      </trkpt>
      <trkpt lat="42.68505" lon="1.24313">
        <ele>1604.4000244141</ele>
        <time>2023-07-25T10:33:19.000Z</time>
      </trkpt>
      <trkpt lat="42.68503" lon="1.24307">
        <ele>1605</ele>
        <time>2023-07-25T10:33:26.000Z</time>
      </trkpt>
      <trkpt lat="42.68503" lon="1.24304">
        <ele>1605.1999511719</ele>
        <time>2023-07-25T10:33:28.000Z</time>
      </trkpt>
      <trkpt lat="42.68502" lon="1.24296">
        <ele>1606</ele>
        <time>2023-07-25T10:33:34.000Z</time>
      </trkpt>
      <trkpt lat="42.68502" lon="1.24293">
        <ele>1606.4000244141</ele>
        <time>2023-07-25T10:33:36.000Z</time>
      </trkpt>
      <trkpt lat="42.68502" lon="1.24287">
        <ele>1606.5999755859</ele>
        <time>2023-07-25T10:33:41.000Z</time>
      </trkpt>
      <trkpt lat="42.68502" lon="1.24274">
        <ele>1607</ele>
        <time>2023-07-25T10:33:49.000Z</time>
      </trkpt>
      <trkpt lat="42.68502" lon="1.24274">
        <ele>1607.4000244141</ele>
        <time>2023-07-25T10:33:52.000Z</time>
      </trkpt>
      <trkpt lat="42.68503" lon="1.24273">
        <ele>1607.4000244141</ele>
        <time>2023-07-25T10:33:56.000Z</time>
      </trkpt>
      <trkpt lat="42.68505" lon="1.24271">
        <ele>1607.4000244141</ele>
        <time>2023-07-25T10:34:08.000Z</time>
      </trkpt>
      <trkpt lat="42.68503" lon="1.24275">
        <ele>1607.5999755859</ele>
        <time>2023-07-25T10:34:15.000Z</time>
      </trkpt>
      <trkpt lat="42.68501" lon="1.24274">
        <ele>1607.5999755859</ele>
        <time>2023-07-25T10:34:21.000Z</time>
      </trkpt>
      <trkpt lat="42.68502" lon="1.24276">
        <ele>1607.5999755859</ele>
        <time>2023-07-25T10:34:29.000Z</time>
      </trkpt>
      <trkpt lat="42.68504" lon="1.24276">
        <ele>1607.8000488281</ele>
        <time>2023-07-25T10:34:37.000Z</time>
      </trkpt>
      <trkpt lat="42.68502" lon="1.24276">
        <ele>1607.8000488281</ele>
        <time>2023-07-25T10:34:47.000Z</time>
      </trkpt>
      <trkpt lat="42.68503" lon="1.24271">
        <ele>1608</ele>
        <time>2023-07-25T10:34:53.000Z</time>
      </trkpt>
      <trkpt lat="42.68502" lon="1.24265">
        <ele>1608.4000244141</ele>
        <time>2023-07-25T10:34:57.000Z</time>
      </trkpt>
      <trkpt lat="42.68502" lon="1.2426">
        <ele>1609.1999511719</ele>
        <time>2023-07-25T10:35:01.000Z</time>
      </trkpt>
      <trkpt lat="42.68502" lon="1.24257">
        <ele>1609.5999755859</ele>
        <time>2023-07-25T10:35:03.000Z</time>
      </trkpt>
      <trkpt lat="42.68504" lon="1.24249">
        <ele>1610.5999755859</ele>
        <time>2023-07-25T10:35:10.000Z</time>
      </trkpt>
      <trkpt lat="42.68504" lon="1.24248">
        <ele>1610.8000488281</ele>
        <time>2023-07-25T10:35:11.000Z</time>
      </trkpt>
      <trkpt lat="42.68505" lon="1.24245">
        <ele>1611.8000488281</ele>
        <time>2023-07-25T10:35:17.000Z</time>
      </trkpt>
      <trkpt lat="42.68505" lon="1.24245">
        <ele>1612</ele>
        <time>2023-07-25T10:35:18.000Z</time>
      </trkpt>
      <trkpt lat="42.68506" lon="1.2424">
        <ele>1612.4000244141</ele>
        <time>2023-07-25T10:35:24.000Z</time>
      </trkpt>
      <trkpt lat="42.68508" lon="1.24236">
        <ele>1612.8000488281</ele>
        <time>2023-07-25T10:35:28.000Z</time>
      </trkpt>
      <trkpt lat="42.68509" lon="1.24234">
        <ele>1613.4000244141</ele>
        <time>2023-07-25T10:35:31.000Z</time>
      </trkpt>
      <trkpt lat="42.68509" lon="1.24232">
        <ele>1613.8000488281</ele>
        <time>2023-07-25T10:35:33.000Z</time>
      </trkpt>
      <trkpt lat="42.6851" lon="1.2423">
        <ele>1614.4000244141</ele>
        <time>2023-07-25T10:35:37.000Z</time>
      </trkpt>
      <trkpt lat="42.68511" lon="1.24228">
        <ele>1615</ele>
        <time>2023-07-25T10:35:40.000Z</time>
      </trkpt>
      <trkpt lat="42.68515" lon="1.24224">
        <ele>1615.8000488281</ele>
        <time>2023-07-25T10:35:46.000Z</time>
      </trkpt>
      <trkpt lat="42.68515" lon="1.24224">
        <ele>1616</ele>
        <time>2023-07-25T10:35:47.000Z</time>
      </trkpt>
      <trkpt lat="42.68514" lon="1.24218">
        <ele>1617.1999511719</ele>
        <time>2023-07-25T10:35:54.000Z</time>
      </trkpt>
      <trkpt lat="42.68514" lon="1.24217">
        <ele>1617.4000244141</ele>
        <time>2023-07-25T10:35:55.000Z</time>
      </trkpt>
      <trkpt lat="42.68516" lon="1.24211">
        <ele>1618.1999511719</ele>
        <time>2023-07-25T10:36:01.000Z</time>
      </trkpt>
      <trkpt lat="42.68516" lon="1.2421">
        <ele>1618.4000244141</ele>
        <time>2023-07-25T10:36:02.000Z</time>
      </trkpt>
      <trkpt lat="42.68518" lon="1.24203">
        <ele>1619.4000244141</ele>
        <time>2023-07-25T10:36:08.000Z</time>
      </trkpt>
      <trkpt lat="42.6852" lon="1.24196">
        <ele>1620.1999511719</ele>
        <time>2023-07-25T10:36:13.000Z</time>
      </trkpt>
      <trkpt lat="42.6852" lon="1.24194">
        <ele>1620.4000244141</ele>
        <time>2023-07-25T10:36:15.000Z</time>
      </trkpt>
      <trkpt lat="42.68521" lon="1.24185">
        <ele>1621.1999511719</ele>
        <time>2023-07-25T10:36:21.000Z</time>
      </trkpt>
      <trkpt lat="42.68521" lon="1.24183">
        <ele>1621.4000244141</ele>
        <time>2023-07-25T10:36:22.000Z</time>
      </trkpt>
      <trkpt lat="42.68524" lon="1.24173">
        <ele>1622</ele>
        <time>2023-07-25T10:36:29.000Z</time>
      </trkpt>
      <trkpt lat="42.68526" lon="1.24163">
        <ele>1622.5999755859</ele>
        <time>2023-07-25T10:36:37.000Z</time>
      </trkpt>
      <trkpt lat="42.68526" lon="1.24154">
        <ele>1623.5999755859</ele>
        <time>2023-07-25T10:36:45.000Z</time>
      </trkpt>
      <trkpt lat="42.68528" lon="1.24146">
        <ele>1624.8000488281</ele>
        <time>2023-07-25T10:36:52.000Z</time>
      </trkpt>
      <trkpt lat="42.68528" lon="1.24144">
        <ele>1625</ele>
        <time>2023-07-25T10:36:54.000Z</time>
      </trkpt>
      <trkpt lat="42.68529" lon="1.24138">
        <ele>1625.8000488281</ele>
        <time>2023-07-25T10:36:58.000Z</time>
      </trkpt>
      <trkpt lat="42.68529" lon="1.24133">
        <ele>1626.4000244141</ele>
        <time>2023-07-25T10:37:03.000Z</time>
      </trkpt>
      <trkpt lat="42.68526" lon="1.24132">
        <ele>1626.8000488281</ele>
        <time>2023-07-25T10:37:10.000Z</time>
      </trkpt>
      <trkpt lat="42.68526" lon="1.24131">
        <ele>1626.8000488281</ele>
        <time>2023-07-25T10:37:11.000Z</time>
      </trkpt>
      <trkpt lat="42.68523" lon="1.24127">
        <ele>1626.8000488281</ele>
        <time>2023-07-25T10:37:14.000Z</time>
      </trkpt>
      <trkpt lat="42.68521" lon="1.24125">
        <ele>1626.8000488281</ele>
        <time>2023-07-25T10:37:18.000Z</time>
      </trkpt>
      <trkpt lat="42.68525" lon="1.24126">
        <ele>1626.8000488281</ele>
        <time>2023-07-25T10:37:26.000Z</time>
      </trkpt>
      <trkpt lat="42.68525" lon="1.24122">
        <ele>1626.8000488281</ele>
        <time>2023-07-25T10:37:36.000Z</time>
      </trkpt>
      <trkpt lat="42.68524" lon="1.24119">
        <ele>1626.8000488281</ele>
        <time>2023-07-25T10:37:47.000Z</time>
      </trkpt>
      <trkpt lat="42.68529" lon="1.24118">
        <ele>1626.8000488281</ele>
        <time>2023-07-25T10:37:57.000Z</time>
      </trkpt>
      <trkpt lat="42.68529" lon="1.24118">
        <ele>1626.8000488281</ele>
        <time>2023-07-25T10:38:03.000Z</time>
      </trkpt>
      <trkpt lat="42.68529" lon="1.24116">
        <ele>1627.8000488281</ele>
        <time>2023-07-25T10:38:11.000Z</time>
      </trkpt>
      <trkpt lat="42.6853" lon="1.24116">
        <ele>1628.1999511719</ele>
        <time>2023-07-25T10:38:13.000Z</time>
      </trkpt>
      <trkpt lat="42.6853" lon="1.24115">
        <ele>1629</ele>
        <time>2023-07-25T10:38:17.000Z</time>
      </trkpt>
      <trkpt lat="42.68531" lon="1.24112">
        <ele>1630</ele>
        <time>2023-07-25T10:38:21.000Z</time>
      </trkpt>
      <trkpt lat="42.68533" lon="1.24107">
        <ele>1631</ele>
        <time>2023-07-25T10:38:27.000Z</time>
      </trkpt>
      <trkpt lat="42.68534" lon="1.24103">
        <ele>1631.5999755859</ele>
        <time>2023-07-25T10:38:30.000Z</time>
      </trkpt>
      <trkpt lat="42.68536" lon="1.24095">
        <ele>1632.1999511719</ele>
        <time>2023-07-25T10:38:35.000Z</time>
      </trkpt>
      <trkpt lat="42.68537" lon="1.24092">
        <ele>1632.5999755859</ele>
        <time>2023-07-25T10:38:38.000Z</time>
      </trkpt>
      <trkpt lat="42.68539" lon="1.24084">
        <ele>1633.1999511719</ele>
        <time>2023-07-25T10:38:44.000Z</time>
      </trkpt>
      <trkpt lat="42.68543" lon="1.24076">
        <ele>1634.4000244141</ele>
        <time>2023-07-25T10:38:52.000Z</time>
      </trkpt>
      <trkpt lat="42.68543" lon="1.24074">
        <ele>1634.8000488281</ele>
        <time>2023-07-25T10:38:55.000Z</time>
      </trkpt>
      <trkpt lat="42.68545" lon="1.2407">
        <ele>1635.4000244141</ele>
        <time>2023-07-25T10:38:59.000Z</time>
      </trkpt>
      <trkpt lat="42.68547" lon="1.24064">
        <ele>1636.5999755859</ele>
        <time>2023-07-25T10:39:05.000Z</time>
      </trkpt>
      <trkpt lat="42.6855" lon="1.24059">
        <ele>1637.8000488281</ele>
        <time>2023-07-25T10:39:12.000Z</time>
      </trkpt>
      <trkpt lat="42.6855" lon="1.24058">
        <ele>1637.8000488281</ele>
        <time>2023-07-25T10:39:13.000Z</time>
      </trkpt>
      <trkpt lat="42.68551" lon="1.24049">
        <ele>1638.1999511719</ele>
        <time>2023-07-25T10:39:22.000Z</time>
      </trkpt>
      <trkpt lat="42.68555" lon="1.24039">
        <ele>1638.8000488281</ele>
        <time>2023-07-25T10:39:30.000Z</time>
      </trkpt>
      <trkpt lat="42.68559" lon="1.24031">
        <ele>1640</ele>
        <time>2023-07-25T10:39:37.000Z</time>
      </trkpt>
      <trkpt lat="42.6856" lon="1.2403">
        <ele>1640.1999511719</ele>
        <time>2023-07-25T10:39:38.000Z</time>
      </trkpt>
      <trkpt lat="42.68565" lon="1.24019">
        <ele>1640.4000244141</ele>
        <time>2023-07-25T10:39:46.000Z</time>
      </trkpt>
      <trkpt lat="42.6857" lon="1.24007">
        <ele>1640.1999511719</ele>
        <time>2023-07-25T10:39:55.000Z</time>
      </trkpt>
      <trkpt lat="42.68574" lon="1.23999">
        <ele>1640</ele>
        <time>2023-07-25T10:40:01.000Z</time>
      </trkpt>
      <trkpt lat="42.68578" lon="1.23994">
        <ele>1640.5999755859</ele>
        <time>2023-07-25T10:40:08.000Z</time>
      </trkpt>
      <trkpt lat="42.68577" lon="1.23992">
        <ele>1641</ele>
        <time>2023-07-25T10:40:14.000Z</time>
      </trkpt>
      <trkpt lat="42.68578" lon="1.23989">
        <ele>1641</ele>
        <time>2023-07-25T10:40:24.000Z</time>
      </trkpt>
      <trkpt lat="42.68581" lon="1.2399">
        <ele>1640.8000488281</ele>
        <time>2023-07-25T10:40:32.000Z</time>
      </trkpt>
      <trkpt lat="42.68582" lon="1.23992">
        <ele>1640.8000488281</ele>
        <time>2023-07-25T10:40:39.000Z</time>
      </trkpt>
      <trkpt lat="42.68582" lon="1.23988">
        <ele>1640.4000244141</ele>
        <time>2023-07-25T10:40:46.000Z</time>
      </trkpt>
      <trkpt lat="42.68582" lon="1.23985">
        <ele>1640.4000244141</ele>
        <time>2023-07-25T10:40:53.000Z</time>
      </trkpt>
      <trkpt lat="42.68579" lon="1.23988">
        <ele>1640.5999755859</ele>
        <time>2023-07-25T10:41:00.000Z</time>
      </trkpt>
      <trkpt lat="42.6858" lon="1.23982">
        <ele>1640.4000244141</ele>
        <time>2023-07-25T10:41:05.000Z</time>
      </trkpt>
      <trkpt lat="42.68586" lon="1.23973">
        <ele>1640.4000244141</ele>
        <time>2023-07-25T10:41:13.000Z</time>
      </trkpt>
      <trkpt lat="42.68594" lon="1.23961">
        <ele>1640.8000488281</ele>
        <time>2023-07-25T10:41:22.000Z</time>
      </trkpt>
      <trkpt lat="42.68603" lon="1.23948">
        <ele>1640.5999755859</ele>
        <time>2023-07-25T10:41:32.000Z</time>
      </trkpt>
      <trkpt lat="42.6861" lon="1.23936">
        <ele>1640.4000244141</ele>
        <time>2023-07-25T10:41:40.000Z</time>
      </trkpt>
      <trkpt lat="42.68616" lon="1.23929">
        <ele>1640.5999755859</ele>
        <time>2023-07-25T10:41:47.000Z</time>
      </trkpt>
      <trkpt lat="42.68625" lon="1.23922">
        <ele>1640.4000244141</ele>
        <time>2023-07-25T10:41:55.000Z</time>
      </trkpt>
      <trkpt lat="42.68633" lon="1.23914">
        <ele>1640.1999511719</ele>
        <time>2023-07-25T10:42:03.000Z</time>
      </trkpt>
      <trkpt lat="42.68636" lon="1.2391">
        <ele>1639.8000488281</ele>
        <time>2023-07-25T10:42:06.000Z</time>
      </trkpt>
      <trkpt lat="42.68639" lon="1.23907">
        <ele>1639.8000488281</ele>
        <time>2023-07-25T10:42:11.000Z</time>
      </trkpt>
      <trkpt lat="42.6864" lon="1.23907">
        <ele>1639.8000488281</ele>
        <time>2023-07-25T10:42:15.000Z</time>
      </trkpt>
      <trkpt lat="42.68641" lon="1.23906">
        <ele>1639.8000488281</ele>
        <time>2023-07-25T10:42:17.000Z</time>
      </trkpt>
      <trkpt lat="42.68642" lon="1.23905">
        <ele>1639.8000488281</ele>
        <time>2023-07-25T10:42:18.000Z</time>
      </trkpt>
      <trkpt lat="42.68642" lon="1.23903">
        <ele>1639.8000488281</ele>
        <time>2023-07-25T10:42:19.000Z</time>
      </trkpt>
      <trkpt lat="42.68643" lon="1.23903">
        <ele>1640</ele>
        <time>2023-07-25T10:42:25.000Z</time>
      </trkpt>
      <trkpt lat="42.68643" lon="1.23904">
        <ele>1640</ele>
        <time>2023-07-25T10:42:34.000Z</time>
      </trkpt>
      <trkpt lat="42.68646" lon="1.239">
        <ele>1640.1999511719</ele>
        <time>2023-07-25T10:42:43.000Z</time>
      </trkpt>
      <trkpt lat="42.68656" lon="1.23892">
        <ele>1640</ele>
        <time>2023-07-25T10:42:51.000Z</time>
      </trkpt>
      <trkpt lat="42.6867" lon="1.23885">
        <ele>1640.5999755859</ele>
        <time>2023-07-25T10:43:01.000Z</time>
      </trkpt>
      <trkpt lat="42.68673" lon="1.23885">
        <ele>1640.8000488281</ele>
        <time>2023-07-25T10:43:04.000Z</time>
      </trkpt>
      <trkpt lat="42.68676" lon="1.23883">
        <ele>1641.1999511719</ele>
        <time>2023-07-25T10:43:07.000Z</time>
      </trkpt>
      <trkpt lat="42.68682" lon="1.23882">
        <ele>1642</ele>
        <time>2023-07-25T10:43:13.000Z</time>
      </trkpt>
      <trkpt lat="42.68685" lon="1.23882">
        <ele>1642.1999511719</ele>
        <time>2023-07-25T10:43:15.000Z</time>
      </trkpt>
      <trkpt lat="42.68695" lon="1.23879">
        <ele>1643</ele>
        <time>2023-07-25T10:43:22.000Z</time>
      </trkpt>
      <trkpt lat="42.68702" lon="1.23872">
        <ele>1643.4000244141</ele>
        <time>2023-07-25T10:43:30.000Z</time>
      </trkpt>
      <trkpt lat="42.68709" lon="1.23864">
        <ele>1642.8000488281</ele>
        <time>2023-07-25T10:43:37.000Z</time>
      </trkpt>
      <trkpt lat="42.6872" lon="1.23856">
        <ele>1642.1999511719</ele>
        <time>2023-07-25T10:43:47.000Z</time>
      </trkpt>
      <trkpt lat="42.68728" lon="1.23852">
        <ele>1642.8000488281</ele>
        <time>2023-07-25T10:43:55.000Z</time>
      </trkpt>
      <trkpt lat="42.68739" lon="1.23846">
        <ele>1642.8000488281</ele>
        <time>2023-07-25T10:44:04.000Z</time>
      </trkpt>
      <trkpt lat="42.68747" lon="1.23846">
        <ele>1643.1999511719</ele>
        <time>2023-07-25T10:44:11.000Z</time>
      </trkpt>
      <trkpt lat="42.68754" lon="1.23844">
        <ele>1644.1999511719</ele>
        <time>2023-07-25T10:44:18.000Z</time>
      </trkpt>
      <trkpt lat="42.68755" lon="1.23843">
        <ele>1644.4000244141</ele>
        <time>2023-07-25T10:44:21.000Z</time>
      </trkpt>
      <trkpt lat="42.68763" lon="1.23838">
        <ele>1645.1999511719</ele>
        <time>2023-07-25T10:44:29.000Z</time>
      </trkpt>
      <trkpt lat="42.6877" lon="1.23832">
        <ele>1646.1999511719</ele>
        <time>2023-07-25T10:44:38.000Z</time>
      </trkpt>
      <trkpt lat="42.68771" lon="1.23831">
        <ele>1646.4000244141</ele>
        <time>2023-07-25T10:44:39.000Z</time>
      </trkpt>
      <trkpt lat="42.68777" lon="1.23829">
        <ele>1647</ele>
        <time>2023-07-25T10:44:46.000Z</time>
      </trkpt>
      <trkpt lat="42.68782" lon="1.23825">
        <ele>1647</ele>
        <time>2023-07-25T10:44:55.000Z</time>
      </trkpt>
      <trkpt lat="42.68781" lon="1.23828">
        <ele>1647</ele>
        <time>2023-07-25T10:45:02.000Z</time>
      </trkpt>
      <trkpt lat="42.68781" lon="1.23828">
        <ele>1647</ele>
        <time>2023-07-25T10:45:03.000Z</time>
      </trkpt>
      <trkpt lat="42.68781" lon="1.23828">
        <ele>1646.8000488281</ele>
        <time>2023-07-25T10:45:04.000Z</time>
      </trkpt>
      <trkpt lat="42.68781" lon="1.23829">
        <ele>1646.8000488281</ele>
        <time>2023-07-25T10:45:07.000Z</time>
      </trkpt>
      <trkpt lat="42.6878" lon="1.23833">
        <ele>1647</ele>
        <time>2023-07-25T10:45:10.000Z</time>
      </trkpt>
      <trkpt lat="42.68781" lon="1.23833">
        <ele>1647</ele>
        <time>2023-07-25T10:45:12.000Z</time>
      </trkpt>
      <trkpt lat="42.68782" lon="1.2383">
        <ele>1647</ele>
        <time>2023-07-25T10:45:19.000Z</time>
      </trkpt>
      <trkpt lat="42.68787" lon="1.23829">
        <ele>1647</ele>
        <time>2023-07-25T10:45:28.000Z</time>
      </trkpt>
      <trkpt lat="42.68793" lon="1.23826">
        <ele>1647.1999511719</ele>
        <time>2023-07-25T10:45:37.000Z</time>
      </trkpt>
      <trkpt lat="42.68794" lon="1.23826">
        <ele>1647.4000244141</ele>
        <time>2023-07-25T10:45:38.000Z</time>
      </trkpt>
      <trkpt lat="42.68803" lon="1.23821">
        <ele>1648</ele>
        <time>2023-07-25T10:45:47.000Z</time>
      </trkpt>
      <trkpt lat="42.68813" lon="1.23816">
        <ele>1647.8000488281</ele>
        <time>2023-07-25T10:45:54.000Z</time>
      </trkpt>
      <trkpt lat="42.68821" lon="1.23812">
        <ele>1647.4000244141</ele>
        <time>2023-07-25T10:46:01.000Z</time>
      </trkpt>
      <trkpt lat="42.68829" lon="1.23807">
        <ele>1647.8000488281</ele>
        <time>2023-07-25T10:46:09.000Z</time>
      </trkpt>
      <trkpt lat="42.68837" lon="1.23797">
        <ele>1647.4000244141</ele>
        <time>2023-07-25T10:46:18.000Z</time>
      </trkpt>
      <trkpt lat="42.68845" lon="1.23789">
        <ele>1647</ele>
        <time>2023-07-25T10:46:26.000Z</time>
      </trkpt>
      <trkpt lat="42.68853" lon="1.23778">
        <ele>1647.1999511719</ele>
        <time>2023-07-25T10:46:35.000Z</time>
      </trkpt>
      <trkpt lat="42.68865" lon="1.23767">
        <ele>1647</ele>
        <time>2023-07-25T10:46:45.000Z</time>
      </trkpt>
      <trkpt lat="42.68869" lon="1.23768">
        <ele>1648.1999511719</ele>
        <time>2023-07-25T10:46:53.000Z</time>
      </trkpt>
      <trkpt lat="42.68869" lon="1.23767">
        <ele>1648.5999755859</ele>
        <time>2023-07-25T10:46:55.000Z</time>
      </trkpt>
      <trkpt lat="42.68875" lon="1.23765">
        <ele>1648.4000244141</ele>
        <time>2023-07-25T10:47:00.000Z</time>
      </trkpt>
      <trkpt lat="42.68883" lon="1.23762">
        <ele>1648.1999511719</ele>
        <time>2023-07-25T10:47:08.000Z</time>
      </trkpt>
      <trkpt lat="42.68889" lon="1.23756">
        <ele>1648.4000244141</ele>
        <time>2023-07-25T10:47:15.000Z</time>
      </trkpt>
      <trkpt lat="42.68898" lon="1.23749">
        <ele>1649.8000488281</ele>
        <time>2023-07-25T10:47:23.000Z</time>
      </trkpt>
      <trkpt lat="42.68899" lon="1.23748">
        <ele>1649.8000488281</ele>
        <time>2023-07-25T10:47:24.000Z</time>
      </trkpt>
      <trkpt lat="42.68908" lon="1.23744">
        <ele>1650.8000488281</ele>
        <time>2023-07-25T10:47:32.000Z</time>
      </trkpt>
      <trkpt lat="42.6891" lon="1.23744">
        <ele>1651</ele>
        <time>2023-07-25T10:47:33.000Z</time>
      </trkpt>
      <trkpt lat="42.68919" lon="1.2374">
        <ele>1651.5999755859</ele>
        <time>2023-07-25T10:47:41.000Z</time>
      </trkpt>
      <trkpt lat="42.68922" lon="1.23739">
        <ele>1651.8000488281</ele>
        <time>2023-07-25T10:47:43.000Z</time>
      </trkpt>
      <trkpt lat="42.68926" lon="1.23735">
        <ele>1652.4000244141</ele>
        <time>2023-07-25T10:47:48.000Z</time>
      </trkpt>
      <trkpt lat="42.6893" lon="1.23732">
        <ele>1653</ele>
        <time>2023-07-25T10:47:53.000Z</time>
      </trkpt>
      <trkpt lat="42.68931" lon="1.23731">
        <ele>1653</ele>
        <time>2023-07-25T10:47:57.000Z</time>
      </trkpt>
      <trkpt lat="42.6893" lon="1.23729">
        <ele>1652.8000488281</ele>
        <time>2023-07-25T10:48:06.000Z</time>
      </trkpt>
      <trkpt lat="42.68929" lon="1.23727">
        <ele>1652.5999755859</ele>
        <time>2023-07-25T10:48:13.000Z</time>
      </trkpt>
      <trkpt lat="42.68931" lon="1.23732">
        <ele>1652.8000488281</ele>
        <time>2023-07-25T10:48:22.000Z</time>
      </trkpt>
      <trkpt lat="42.68933" lon="1.2373">
        <ele>1652.8000488281</ele>
        <time>2023-07-25T10:48:28.000Z</time>
      </trkpt>
      <trkpt lat="42.6894" lon="1.23726">
        <ele>1653.1999511719</ele>
        <time>2023-07-25T10:48:36.000Z</time>
      </trkpt>
      <trkpt lat="42.68951" lon="1.23725">
        <ele>1653.8000488281</ele>
        <time>2023-07-25T10:48:45.000Z</time>
      </trkpt>
      <trkpt lat="42.68953" lon="1.23725">
        <ele>1654</ele>
        <time>2023-07-25T10:48:46.000Z</time>
      </trkpt>
      <trkpt lat="42.68959" lon="1.23725">
        <ele>1654.1999511719</ele>
        <time>2023-07-25T10:48:54.000Z</time>
      </trkpt>
      <trkpt lat="42.68964" lon="1.2372">
        <ele>1654.4000244141</ele>
        <time>2023-07-25T10:49:02.000Z</time>
      </trkpt>
      <trkpt lat="42.68967" lon="1.23716">
        <ele>1654</ele>
        <time>2023-07-25T10:49:08.000Z</time>
      </trkpt>
      <trkpt lat="42.68973" lon="1.23712">
        <ele>1652.8000488281</ele>
        <time>2023-07-25T10:49:13.000Z</time>
      </trkpt>
      <trkpt lat="42.68975" lon="1.23711">
        <ele>1652.8000488281</ele>
        <time>2023-07-25T10:49:15.000Z</time>
      </trkpt>
      <trkpt lat="42.68983" lon="1.23709">
        <ele>1653.1999511719</ele>
        <time>2023-07-25T10:49:23.000Z</time>
      </trkpt>
      <trkpt lat="42.68991" lon="1.23704">
        <ele>1653.1999511719</ele>
        <time>2023-07-25T10:49:32.000Z</time>
      </trkpt>
      <trkpt lat="42.68996" lon="1.237">
        <ele>1653.8000488281</ele>
        <time>2023-07-25T10:49:36.000Z</time>
      </trkpt>
      <trkpt lat="42.68997" lon="1.23697">
        <ele>1654.8000488281</ele>
        <time>2023-07-25T10:49:39.000Z</time>
      </trkpt>
      <trkpt lat="42.69006" lon="1.23692">
        <ele>1655.4000244141</ele>
        <time>2023-07-25T10:49:47.000Z</time>
      </trkpt>
      <trkpt lat="42.69015" lon="1.23688">
        <ele>1655.8000488281</ele>
        <time>2023-07-25T10:49:55.000Z</time>
      </trkpt>
      <trkpt lat="42.69014" lon="1.23687">
        <ele>1656</ele>
        <time>2023-07-25T10:49:59.000Z</time>
      </trkpt>
      <trkpt lat="42.69011" lon="1.23684">
        <ele>1656</ele>
        <time>2023-07-25T10:50:02.000Z</time>
      </trkpt>
      <trkpt lat="42.6901" lon="1.23681">
        <ele>1656.1999511719</ele>
        <time>2023-07-25T10:50:09.000Z</time>
      </trkpt>
      <trkpt lat="42.6901" lon="1.2368">
        <ele>1656.1999511719</ele>
        <time>2023-07-25T10:50:11.000Z</time>
      </trkpt>
      <trkpt lat="42.69012" lon="1.2368">
        <ele>1656.1999511719</ele>
        <time>2023-07-25T10:50:16.000Z</time>
      </trkpt>
      <trkpt lat="42.69013" lon="1.23679">
        <ele>1656.1999511719</ele>
        <time>2023-07-25T10:50:17.000Z</time>
      </trkpt>
      <trkpt lat="42.69017" lon="1.23676">
        <ele>1656</ele>
        <time>2023-07-25T10:50:24.000Z</time>
      </trkpt>
      <trkpt lat="42.69019" lon="1.23679">
        <ele>1655</ele>
        <time>2023-07-25T10:50:32.000Z</time>
      </trkpt>
      <trkpt lat="42.6902" lon="1.23677">
        <ele>1655</ele>
        <time>2023-07-25T10:50:36.000Z</time>
      </trkpt>
      <trkpt lat="42.69023" lon="1.23675">
        <ele>1654.5999755859</ele>
        <time>2023-07-25T10:50:40.000Z</time>
      </trkpt>
      <trkpt lat="42.69035" lon="1.23671">
        <ele>1654.4000244141</ele>
        <time>2023-07-25T10:50:49.000Z</time>
      </trkpt>
      <trkpt lat="42.69045" lon="1.23671">
        <ele>1654.8000488281</ele>
        <time>2023-07-25T10:50:58.000Z</time>
      </trkpt>
      <trkpt lat="42.69055" lon="1.2367">
        <ele>1655.1999511719</ele>
        <time>2023-07-25T10:51:06.000Z</time>
      </trkpt>
      <trkpt lat="42.69061" lon="1.23668">
        <ele>1655.8000488281</ele>
        <time>2023-07-25T10:51:14.000Z</time>
      </trkpt>
      <trkpt lat="42.69064" lon="1.23666">
        <ele>1656</ele>
        <time>2023-07-25T10:51:17.000Z</time>
      </trkpt>
      <trkpt lat="42.69069" lon="1.23661">
        <ele>1656</ele>
        <time>2023-07-25T10:51:23.000Z</time>
      </trkpt>
      <trkpt lat="42.6907" lon="1.23658">
        <ele>1656</ele>
        <time>2023-07-25T10:51:29.000Z</time>
      </trkpt>
      <trkpt lat="42.6907" lon="1.23658">
        <ele>1656</ele>
        <time>2023-07-25T10:51:30.000Z</time>
      </trkpt>
      <trkpt lat="42.69071" lon="1.23657">
        <ele>1655.5999755859</ele>
        <time>2023-07-25T10:51:34.000Z</time>
      </trkpt>
      <trkpt lat="42.69071" lon="1.23658">
        <ele>1655.1999511719</ele>
        <time>2023-07-25T10:51:36.000Z</time>
      </trkpt>
      <trkpt lat="42.69073" lon="1.23654">
        <ele>1655.1999511719</ele>
        <time>2023-07-25T10:51:39.000Z</time>
      </trkpt>
      <trkpt lat="42.69074" lon="1.23651">
        <ele>1655.5999755859</ele>
        <time>2023-07-25T10:51:47.000Z</time>
      </trkpt>
      <trkpt lat="42.69072" lon="1.2365">
        <ele>1655.1999511719</ele>
        <time>2023-07-25T10:51:56.000Z</time>
      </trkpt>
      <trkpt lat="42.69076" lon="1.23652">
        <ele>1655.4000244141</ele>
        <time>2023-07-25T10:52:07.000Z</time>
      </trkpt>
      <trkpt lat="42.69083" lon="1.2365">
        <ele>1656.5999755859</ele>
        <time>2023-07-25T10:52:14.000Z</time>
      </trkpt>
      <trkpt lat="42.69085" lon="1.23649">
        <ele>1657</ele>
        <time>2023-07-25T10:52:16.000Z</time>
      </trkpt>
      <trkpt lat="42.6909" lon="1.23648">
        <ele>1657.5999755859</ele>
        <time>2023-07-25T10:52:22.000Z</time>
      </trkpt>
      <trkpt lat="42.69093" lon="1.23648">
        <ele>1658.1999511719</ele>
        <time>2023-07-25T10:52:25.000Z</time>
      </trkpt>
      <trkpt lat="42.69097" lon="1.23649">
        <ele>1658.8000488281</ele>
        <time>2023-07-25T10:52:29.000Z</time>
      </trkpt>
      <trkpt lat="42.69101" lon="1.23648">
        <ele>1659</ele>
        <time>2023-07-25T10:52:37.000Z</time>
      </trkpt>
      <trkpt lat="42.69109" lon="1.23654">
        <ele>1659</ele>
        <time>2023-07-25T10:52:48.000Z</time>
      </trkpt>
      <trkpt lat="42.69113" lon="1.23658">
        <ele>1658.8000488281</ele>
        <time>2023-07-25T10:52:53.000Z</time>
      </trkpt>
      <trkpt lat="42.69115" lon="1.23659">
        <ele>1659.1999511719</ele>
        <time>2023-07-25T10:52:58.000Z</time>
      </trkpt>
      <trkpt lat="42.69115" lon="1.23659">
        <ele>1659.8000488281</ele>
        <time>2023-07-25T10:53:00.000Z</time>
      </trkpt>
      <trkpt lat="42.69116" lon="1.2366">
        <ele>1660.4000244141</ele>
        <time>2023-07-25T10:53:02.000Z</time>
      </trkpt>
      <trkpt lat="42.6912" lon="1.23658">
        <ele>1661.4000244141</ele>
        <time>2023-07-25T10:53:07.000Z</time>
      </trkpt>
      <trkpt lat="42.69121" lon="1.23657">
        <ele>1661.4000244141</ele>
        <time>2023-07-25T10:53:08.000Z</time>
      </trkpt>
      <trkpt lat="42.69126" lon="1.23647">
        <ele>1662.1999511719</ele>
        <time>2023-07-25T10:53:16.000Z</time>
      </trkpt>
      <trkpt lat="42.69127" lon="1.23644">
        <ele>1662.4000244141</ele>
        <time>2023-07-25T10:53:18.000Z</time>
      </trkpt>
      <trkpt lat="42.69133" lon="1.23636">
        <ele>1663.1999511719</ele>
        <time>2023-07-25T10:53:25.000Z</time>
      </trkpt>
      <trkpt lat="42.69135" lon="1.23634">
        <ele>1663.4000244141</ele>
        <time>2023-07-25T10:53:27.000Z</time>
      </trkpt>
      <trkpt lat="42.6914" lon="1.23629">
        <ele>1664.5999755859</ele>
        <time>2023-07-25T10:53:33.000Z</time>
      </trkpt>
      <trkpt lat="42.69141" lon="1.23627">
        <ele>1664.8000488281</ele>
        <time>2023-07-25T10:53:34.000Z</time>
      </trkpt>
      <trkpt lat="42.69147" lon="1.2362">
        <ele>1665.4000244141</ele>
        <time>2023-07-25T10:53:41.000Z</time>
      </trkpt>
      <trkpt lat="42.69149" lon="1.23618">
        <ele>1665.5999755859</ele>
        <time>2023-07-25T10:53:42.000Z</time>
      </trkpt>
      <trkpt lat="42.69152" lon="1.23613">
        <ele>1666.4000244141</ele>
        <time>2023-07-25T10:53:47.000Z</time>
      </trkpt>
      <trkpt lat="42.69156" lon="1.23609">
        <ele>1666.8000488281</ele>
        <time>2023-07-25T10:53:51.000Z</time>
      </trkpt>
      <trkpt lat="42.6916" lon="1.23603">
        <ele>1667.1999511719</ele>
        <time>2023-07-25T10:53:55.000Z</time>
      </trkpt>
      <trkpt lat="42.69166" lon="1.23594">
        <ele>1667.5999755859</ele>
        <time>2023-07-25T10:54:03.000Z</time>
      </trkpt>
      <trkpt lat="42.69168" lon="1.23592">
        <ele>1667.8000488281</ele>
        <time>2023-07-25T10:54:05.000Z</time>
      </trkpt>
      <trkpt lat="42.69172" lon="1.23586">
        <ele>1668.1999511719</ele>
        <time>2023-07-25T10:54:10.000Z</time>
      </trkpt>
      <trkpt lat="42.69175" lon="1.23582">
        <ele>1669</ele>
        <time>2023-07-25T10:54:14.000Z</time>
      </trkpt>
      <trkpt lat="42.69179" lon="1.23578">
        <ele>1669.4000244141</ele>
        <time>2023-07-25T10:54:19.000Z</time>
      </trkpt>
      <trkpt lat="42.69183" lon="1.23574">
        <ele>1670</ele>
        <time>2023-07-25T10:54:23.000Z</time>
      </trkpt>
      <trkpt lat="42.69187" lon="1.2357">
        <ele>1670.4000244141</ele>
        <time>2023-07-25T10:54:27.000Z</time>
      </trkpt>
      <trkpt lat="42.69193" lon="1.23567">
        <ele>1670.8000488281</ele>
        <time>2023-07-25T10:54:35.000Z</time>
      </trkpt>
      <trkpt lat="42.69192" lon="1.23562">
        <ele>1670.4000244141</ele>
        <time>2023-07-25T10:54:46.000Z</time>
      </trkpt>
      <trkpt lat="42.69196" lon="1.23565">
        <ele>1670.5999755859</ele>
        <time>2023-07-25T10:54:53.000Z</time>
      </trkpt>
      <trkpt lat="42.69203" lon="1.23564">
        <ele>1670.8000488281</ele>
        <time>2023-07-25T10:54:59.000Z</time>
      </trkpt>
      <trkpt lat="42.69204" lon="1.23564">
        <ele>1671</ele>
        <time>2023-07-25T10:55:00.000Z</time>
      </trkpt>
      <trkpt lat="42.6921" lon="1.23564">
        <ele>1671.4000244141</ele>
        <time>2023-07-25T10:55:06.000Z</time>
      </trkpt>
      <trkpt lat="42.69224" lon="1.23566">
        <ele>1671.8000488281</ele>
        <time>2023-07-25T10:55:15.000Z</time>
      </trkpt>
      <trkpt lat="42.6923" lon="1.23567">
        <ele>1672</ele>
        <time>2023-07-25T10:55:20.000Z</time>
      </trkpt>
      <trkpt lat="42.69232" lon="1.23568">
        <ele>1672</ele>
        <time>2023-07-25T10:55:22.000Z</time>
      </trkpt>
      <trkpt lat="42.69243" lon="1.23574">
        <ele>1672.4000244141</ele>
        <time>2023-07-25T10:55:32.000Z</time>
      </trkpt>
      <trkpt lat="42.69248" lon="1.23575">
        <ele>1673</ele>
        <time>2023-07-25T10:55:36.000Z</time>
      </trkpt>
      <trkpt lat="42.69255" lon="1.23575">
        <ele>1673.5999755859</ele>
        <time>2023-07-25T10:55:41.000Z</time>
      </trkpt>
      <trkpt lat="42.69264" lon="1.23577">
        <ele>1674.1999511719</ele>
        <time>2023-07-25T10:55:48.000Z</time>
      </trkpt>
      <trkpt lat="42.69267" lon="1.23578">
        <ele>1674.1999511719</ele>
        <time>2023-07-25T10:55:50.000Z</time>
      </trkpt>
      <trkpt lat="42.69279" lon="1.23581">
        <ele>1674.8000488281</ele>
        <time>2023-07-25T10:56:00.000Z</time>
      </trkpt>
      <trkpt lat="42.69291" lon="1.23583">
        <ele>1675</ele>
        <time>2023-07-25T10:56:09.000Z</time>
      </trkpt>
      <trkpt lat="42.69297" lon="1.23584">
        <ele>1675.1999511719</ele>
        <time>2023-07-25T10:56:13.000Z</time>
      </trkpt>
      <trkpt lat="42.69304" lon="1.23588">
        <ele>1675.4000244141</ele>
        <time>2023-07-25T10:56:19.000Z</time>
      </trkpt>
      <trkpt lat="42.69315" lon="1.23595">
        <ele>1675.5999755859</ele>
        <time>2023-07-25T10:56:28.000Z</time>
      </trkpt>
      <trkpt lat="42.69321" lon="1.236">
        <ele>1676.1999511719</ele>
        <time>2023-07-25T10:56:37.000Z</time>
      </trkpt>
      <trkpt lat="42.69324" lon="1.23602">
        <ele>1676.1999511719</ele>
        <time>2023-07-25T10:56:40.000Z</time>
      </trkpt>
      <trkpt lat="42.69329" lon="1.23606">
        <ele>1676.5999755859</ele>
        <time>2023-07-25T10:56:44.000Z</time>
      </trkpt>
      <trkpt lat="42.69336" lon="1.23616">
        <ele>1677.1999511719</ele>
        <time>2023-07-25T10:56:51.000Z</time>
      </trkpt>
      <trkpt lat="42.69337" lon="1.23618">
        <ele>1677.1999511719</ele>
        <time>2023-07-25T10:56:53.000Z</time>
      </trkpt>
      <trkpt lat="42.69342" lon="1.23623">
        <ele>1677.5999755859</ele>
        <time>2023-07-25T10:56:59.000Z</time>
      </trkpt>
      <trkpt lat="42.69351" lon="1.23628">
        <ele>1678.4000244141</ele>
        <time>2023-07-25T10:57:05.000Z</time>
      </trkpt>
      <trkpt lat="42.69353" lon="1.23629">
        <ele>1678.5999755859</ele>
        <time>2023-07-25T10:57:07.000Z</time>
      </trkpt>
      <trkpt lat="42.69356" lon="1.2363">
        <ele>1679.4000244141</ele>
        <time>2023-07-25T10:57:10.000Z</time>
      </trkpt>
      <trkpt lat="42.69362" lon="1.23632">
        <ele>1680</ele>
        <time>2023-07-25T10:57:15.000Z</time>
      </trkpt>
      <trkpt lat="42.69363" lon="1.23632">
        <ele>1680.5999755859</ele>
        <time>2023-07-25T10:57:17.000Z</time>
      </trkpt>
      <trkpt lat="42.69369" lon="1.23632">
        <ele>1681</ele>
        <time>2023-07-25T10:57:22.000Z</time>
      </trkpt>
      <trkpt lat="42.69374" lon="1.2363">
        <ele>1681.5999755859</ele>
        <time>2023-07-25T10:57:28.000Z</time>
      </trkpt>
      <trkpt lat="42.69378" lon="1.23629">
        <ele>1682</ele>
        <time>2023-07-25T10:57:31.000Z</time>
      </trkpt>
      <trkpt lat="42.69389" lon="1.23626">
        <ele>1682.5999755859</ele>
        <time>2023-07-25T10:57:39.000Z</time>
      </trkpt>
      <trkpt lat="42.69391" lon="1.23626">
        <ele>1682.4000244141</ele>
        <time>2023-07-25T10:57:41.000Z</time>
      </trkpt>
      <trkpt lat="42.69404" lon="1.23625">
        <ele>1682.8000488281</ele>
        <time>2023-07-25T10:57:52.000Z</time>
      </trkpt>
      <trkpt lat="42.69418" lon="1.23617">
        <ele>1683.4000244141</ele>
        <time>2023-07-25T10:58:01.000Z</time>
      </trkpt>
      <trkpt lat="42.69426" lon="1.23611">
        <ele>1683.4000244141</ele>
        <time>2023-07-25T10:58:09.000Z</time>
      </trkpt>
      <trkpt lat="42.69431" lon="1.23608">
        <ele>1683.5999755859</ele>
        <time>2023-07-25T10:58:14.000Z</time>
      </trkpt>
      <trkpt lat="42.69436" lon="1.23607">
        <ele>1683.8000488281</ele>
        <time>2023-07-25T10:58:17.000Z</time>
      </trkpt>
      <trkpt lat="42.69443" lon="1.23611">
        <ele>1684.5999755859</ele>
        <time>2023-07-25T10:58:23.000Z</time>
      </trkpt>
      <trkpt lat="42.69445" lon="1.23613">
        <ele>1685</ele>
        <time>2023-07-25T10:58:25.000Z</time>
      </trkpt>
      <trkpt lat="42.69444" lon="1.23617">
        <ele>1684.8000488281</ele>
        <time>2023-07-25T10:58:32.000Z</time>
      </trkpt>
      <trkpt lat="42.69445" lon="1.23618">
        <ele>1684.5999755859</ele>
        <time>2023-07-25T10:58:37.000Z</time>
      </trkpt>
      <trkpt lat="42.69449" lon="1.23613">
        <ele>1685</ele>
        <time>2023-07-25T10:58:45.000Z</time>
      </trkpt>
      <trkpt lat="42.69452" lon="1.23613">
        <ele>1685.4000244141</ele>
        <time>2023-07-25T10:58:53.000Z</time>
      </trkpt>
      <trkpt lat="42.69455" lon="1.23612">
        <ele>1685.8000488281</ele>
        <time>2023-07-25T10:58:58.000Z</time>
      </trkpt>
      <trkpt lat="42.69456" lon="1.23611">
        <ele>1686</ele>
        <time>2023-07-25T10:58:59.000Z</time>
      </trkpt>
      <trkpt lat="42.6946" lon="1.23608">
        <ele>1685.5999755859</ele>
        <time>2023-07-25T10:59:06.000Z</time>
      </trkpt>
      <trkpt lat="42.69461" lon="1.23603">
        <ele>1685</ele>
        <time>2023-07-25T10:59:13.000Z</time>
      </trkpt>
      <trkpt lat="42.69458" lon="1.23601">
        <ele>1685</ele>
        <time>2023-07-25T10:59:22.000Z</time>
      </trkpt>
      <trkpt lat="42.69458" lon="1.23601">
        <ele>1684.5999755859</ele>
        <time>2023-07-25T10:59:24.000Z</time>
      </trkpt>
      <trkpt lat="42.69456" lon="1.23599">
        <ele>1684</ele>
        <time>2023-07-25T10:59:30.000Z</time>
      </trkpt>
      <trkpt lat="42.69456" lon="1.2359">
        <ele>1683.8000488281</ele>
        <time>2023-07-25T10:59:36.000Z</time>
      </trkpt>
      <trkpt lat="42.69456" lon="1.2359">
        <ele>1683.5999755859</ele>
        <time>2023-07-25T10:59:37.000Z</time>
      </trkpt>
      <trkpt lat="42.69458" lon="1.23582">
        <ele>1682.4000244141</ele>
        <time>2023-07-25T10:59:43.000Z</time>
      </trkpt>
      <trkpt lat="42.69458" lon="1.23581">
        <ele>1682.1999511719</ele>
        <time>2023-07-25T10:59:44.000Z</time>
      </trkpt>
      <trkpt lat="42.69462" lon="1.23575">
        <ele>1681.1999511719</ele>
        <time>2023-07-25T10:59:49.000Z</time>
      </trkpt>
      <trkpt lat="42.69463" lon="1.23573">
        <ele>1681</ele>
        <time>2023-07-25T10:59:51.000Z</time>
      </trkpt>
      <trkpt lat="42.69467" lon="1.2357">
        <ele>1680</ele>
        <time>2023-07-25T10:59:57.000Z</time>
      </trkpt>
      <trkpt lat="42.69469" lon="1.23571">
        <ele>1679.8000488281</ele>
        <time>2023-07-25T11:00:00.000Z</time>
      </trkpt>
      <trkpt lat="42.69473" lon="1.23568">
        <ele>1679.4000244141</ele>
        <time>2023-07-25T11:00:09.000Z</time>
      </trkpt>
      <trkpt lat="42.69473" lon="1.23566">
        <ele>1678.8000488281</ele>
        <time>2023-07-25T11:00:12.000Z</time>
      </trkpt>
      <trkpt lat="42.69477" lon="1.23561">
        <ele>1678.4000244141</ele>
        <time>2023-07-25T11:00:16.000Z</time>
      </trkpt>
      <trkpt lat="42.69477" lon="1.23558">
        <ele>1677.8000488281</ele>
        <time>2023-07-25T11:00:24.000Z</time>
      </trkpt>
      <trkpt lat="42.69477" lon="1.23558">
        <ele>1677.8000488281</ele>
        <time>2023-07-25T11:00:25.000Z</time>
      </trkpt>
      <trkpt lat="42.69478" lon="1.23559">
        <ele>1677.4000244141</ele>
        <time>2023-07-25T11:00:33.000Z</time>
      </trkpt>
      <trkpt lat="42.69484" lon="1.2356">
        <ele>1677.4000244141</ele>
        <time>2023-07-25T11:00:39.000Z</time>
      </trkpt>
      <trkpt lat="42.69493" lon="1.23561">
        <ele>1678.1999511719</ele>
        <time>2023-07-25T11:00:47.000Z</time>
      </trkpt>
      <trkpt lat="42.695" lon="1.23564">
        <ele>1678.5999755859</ele>
        <time>2023-07-25T11:00:54.000Z</time>
      </trkpt>
      <trkpt lat="42.69504" lon="1.23565">
        <ele>1678.8000488281</ele>
        <time>2023-07-25T11:00:59.000Z</time>
      </trkpt>
      <trkpt lat="42.69505" lon="1.23565">
        <ele>1678.8000488281</ele>
        <time>2023-07-25T11:01:00.000Z</time>
      </trkpt>
      <trkpt lat="42.69513" lon="1.23562">
        <ele>1679.4000244141</ele>
        <time>2023-07-25T11:01:07.000Z</time>
      </trkpt>
      <trkpt lat="42.69515" lon="1.2356">
        <ele>1679.5999755859</ele>
        <time>2023-07-25T11:01:15.000Z</time>
      </trkpt>
      <trkpt lat="42.69516" lon="1.23556">
        <ele>1679.1999511719</ele>
        <time>2023-07-25T11:01:24.000Z</time>
      </trkpt>
      <trkpt lat="42.69519" lon="1.23549">
        <ele>1678.4000244141</ele>
        <time>2023-07-25T11:01:32.000Z</time>
      </trkpt>
      <trkpt lat="42.69523" lon="1.23548">
        <ele>1677.8000488281</ele>
        <time>2023-07-25T11:01:37.000Z</time>
      </trkpt>
      <trkpt lat="42.69526" lon="1.23548">
        <ele>1677.5999755859</ele>
        <time>2023-07-25T11:01:41.000Z</time>
      </trkpt>
      <trkpt lat="42.69531" lon="1.23552">
        <ele>1677.5999755859</ele>
        <time>2023-07-25T11:01:49.000Z</time>
      </trkpt>
      <trkpt lat="42.69534" lon="1.23551">
        <ele>1677.5999755859</ele>
        <time>2023-07-25T11:01:57.000Z</time>
      </trkpt>
      <trkpt lat="42.69544" lon="1.2355">
        <ele>1676.8000488281</ele>
        <time>2023-07-25T11:02:14.000Z</time>
      </trkpt>
      <trkpt lat="42.69545" lon="1.2355">
        <ele>1676.8000488281</ele>
        <time>2023-07-25T11:02:15.000Z</time>
      </trkpt>
      <trkpt lat="42.69555" lon="1.23551">
        <ele>1677.1999511719</ele>
        <time>2023-07-25T11:02:25.000Z</time>
      </trkpt>
      <trkpt lat="42.69564" lon="1.23556">
        <ele>1676.1999511719</ele>
        <time>2023-07-25T11:02:42.000Z</time>
      </trkpt>
      <trkpt lat="42.69579" lon="1.23549">
        <ele>1676.1999511719</ele>
        <time>2023-07-25T11:03:00.000Z</time>
      </trkpt>
      <trkpt lat="42.69585" lon="1.23553">
        <ele>1676</ele>
        <time>2023-07-25T11:03:09.000Z</time>
      </trkpt>
      <trkpt lat="42.69599" lon="1.23554">
        <ele>1675.1999511719</ele>
        <time>2023-07-25T11:03:34.000Z</time>
      </trkpt>
      <trkpt lat="42.69599" lon="1.23554">
        <ele>1674.5999755859</ele>
        <time>2023-07-25T11:03:37.000Z</time>
      </trkpt>
      <trkpt lat="42.69627" lon="1.23558">
        <ele>1674</ele>
        <time>2023-07-25T11:04:08.000Z</time>
      </trkpt>
      <trkpt lat="42.69642" lon="1.23558">
        <ele>1673.1999511719</ele>
        <time>2023-07-25T11:04:29.000Z</time>
      </trkpt>
      <trkpt lat="42.69645" lon="1.23557">
        <ele>1673.1999511719</ele>
        <time>2023-07-25T11:04:34.000Z</time>
      </trkpt>
      <trkpt lat="42.6965" lon="1.23556">
        <ele>1673.1999511719</ele>
        <time>2023-07-25T11:04:41.000Z</time>
      </trkpt>
      <trkpt lat="42.69653" lon="1.23554">
        <ele>1673.1999511719</ele>
        <time>2023-07-25T11:04:47.000Z</time>
      </trkpt>
      <trkpt lat="42.69656" lon="1.23551">
        <ele>1672.5999755859</ele>
        <time>2023-07-25T11:04:54.000Z</time>
      </trkpt>
      <trkpt lat="42.69657" lon="1.2355">
        <ele>1672.4000244141</ele>
        <time>2023-07-25T11:04:56.000Z</time>
      </trkpt>
      <trkpt lat="42.69664" lon="1.23551">
        <ele>1672.1999511719</ele>
        <time>2023-07-25T11:05:02.000Z</time>
      </trkpt>
      <trkpt lat="42.69669" lon="1.2355">
        <ele>1672.1999511719</ele>
        <time>2023-07-25T11:05:08.000Z</time>
      </trkpt>
      <trkpt lat="42.69673" lon="1.2355">
        <ele>1672.4000244141</ele>
        <time>2023-07-25T11:05:16.000Z</time>
      </trkpt>
      <trkpt lat="42.69674" lon="1.2355">
        <ele>1673.1999511719</ele>
        <time>2023-07-25T11:05:23.000Z</time>
      </trkpt>
      <trkpt lat="42.69677" lon="1.23547">
        <ele>1673.4000244141</ele>
        <time>2023-07-25T11:05:31.000Z</time>
      </trkpt>
      <trkpt lat="42.69683" lon="1.23546">
        <ele>1673.4000244141</ele>
        <time>2023-07-25T11:05:37.000Z</time>
      </trkpt>
      <trkpt lat="42.69687" lon="1.23543">
        <ele>1673.1999511719</ele>
        <time>2023-07-25T11:05:42.000Z</time>
      </trkpt>
      <trkpt lat="42.69691" lon="1.23541">
        <ele>1673</ele>
        <time>2023-07-25T11:05:49.000Z</time>
      </trkpt>
      <trkpt lat="42.69694" lon="1.23541">
        <ele>1673.1999511719</ele>
        <time>2023-07-25T11:05:56.000Z</time>
      </trkpt>
      <trkpt lat="42.697" lon="1.23539">
        <ele>1673</ele>
        <time>2023-07-25T11:06:05.000Z</time>
      </trkpt>
      <trkpt lat="42.69719" lon="1.23537">
        <ele>1671.8000488281</ele>
        <time>2023-07-25T11:06:30.000Z</time>
      </trkpt>
      <trkpt lat="42.69719" lon="1.23537">
        <ele>1671.5999755859</ele>
        <time>2023-07-25T11:06:31.000Z</time>
      </trkpt>
      <trkpt lat="42.69737" lon="1.23535">
        <ele>1673.8000488281</ele>
        <time>2023-07-25T11:06:50.000Z</time>
      </trkpt>
      <trkpt lat="42.69743" lon="1.23534">
        <ele>1674.1999511719</ele>
        <time>2023-07-25T11:06:59.000Z</time>
      </trkpt>
      <trkpt lat="42.69753" lon="1.23533">
        <ele>1674.1999511719</ele>
        <time>2023-07-25T11:07:08.000Z</time>
      </trkpt>
      <trkpt lat="42.69755" lon="1.23532">
        <ele>1674.8000488281</ele>
        <time>2023-07-25T11:07:11.000Z</time>
      </trkpt>
      <trkpt lat="42.69759" lon="1.23531">
        <ele>1676</ele>
        <time>2023-07-25T11:07:15.000Z</time>
      </trkpt>
      <trkpt lat="42.69761" lon="1.23531">
        <ele>1676.8000488281</ele>
        <time>2023-07-25T11:07:18.000Z</time>
      </trkpt>
      <trkpt lat="42.69761" lon="1.23531">
        <ele>1677</ele>
        <time>2023-07-25T11:07:19.000Z</time>
      </trkpt>
      <trkpt lat="42.69764" lon="1.23529">
        <ele>1677.1999511719</ele>
        <time>2023-07-25T11:07:24.000Z</time>
      </trkpt>
      <trkpt lat="42.69769" lon="1.2353">
        <ele>1677.4000244141</ele>
        <time>2023-07-25T11:07:31.000Z</time>
      </trkpt>
      <trkpt lat="42.69773" lon="1.23529">
        <ele>1677.8000488281</ele>
        <time>2023-07-25T11:07:38.000Z</time>
      </trkpt>
      <trkpt lat="42.69777" lon="1.23524">
        <ele>1677.1999511719</ele>
        <time>2023-07-25T11:07:45.000Z</time>
      </trkpt>
      <trkpt lat="42.69782" lon="1.23521">
        <ele>1677.4000244141</ele>
        <time>2023-07-25T11:07:52.000Z</time>
      </trkpt>
      <trkpt lat="42.69789" lon="1.23518">
        <ele>1677.8000488281</ele>
        <time>2023-07-25T11:08:00.000Z</time>
      </trkpt>
      <trkpt lat="42.69796" lon="1.23513">
        <ele>1677.5999755859</ele>
        <time>2023-07-25T11:08:06.000Z</time>
      </trkpt>
      <trkpt lat="42.69803" lon="1.23509">
        <ele>1677.4000244141</ele>
        <time>2023-07-25T11:08:14.000Z</time>
      </trkpt>
      <trkpt lat="42.69807" lon="1.23508">
        <ele>1678</ele>
        <time>2023-07-25T11:08:18.000Z</time>
      </trkpt>
      <trkpt lat="42.69811" lon="1.23505">
        <ele>1678.4000244141</ele>
        <time>2023-07-25T11:08:24.000Z</time>
      </trkpt>
      <trkpt lat="42.69816" lon="1.23504">
        <ele>1678.4000244141</ele>
        <time>2023-07-25T11:08:31.000Z</time>
      </trkpt>
      <trkpt lat="42.69819" lon="1.23503">
        <ele>1678.1999511719</ele>
        <time>2023-07-25T11:08:37.000Z</time>
      </trkpt>
      <trkpt lat="42.69825" lon="1.23503">
        <ele>1679.5999755859</ele>
        <time>2023-07-25T11:09:01.000Z</time>
      </trkpt>
      <trkpt lat="42.69824" lon="1.23504">
        <ele>1679.4000244141</ele>
        <time>2023-07-25T11:09:06.000Z</time>
      </trkpt>
      <trkpt lat="42.69823" lon="1.23505">
        <ele>1679</ele>
        <time>2023-07-25T11:09:14.000Z</time>
      </trkpt>
      <trkpt lat="42.69819" lon="1.23504">
        <ele>1678.8000488281</ele>
        <time>2023-07-25T11:09:23.000Z</time>
      </trkpt>
      <trkpt lat="42.69822" lon="1.23502">
        <ele>1678.8000488281</ele>
        <time>2023-07-25T11:09:29.000Z</time>
      </trkpt>
      <trkpt lat="42.69821" lon="1.23496">
        <ele>1679.5999755859</ele>
        <time>2023-07-25T11:09:55.000Z</time>
      </trkpt>
      <trkpt lat="42.6982" lon="1.23501">
        <ele>1679.8000488281</ele>
        <time>2023-07-25T11:10:05.000Z</time>
      </trkpt>
      <trkpt lat="42.69826" lon="1.23501">
        <ele>1679.4000244141</ele>
        <time>2023-07-25T11:10:13.000Z</time>
      </trkpt>
      <trkpt lat="42.69827" lon="1.23505">
        <ele>1679.4000244141</ele>
        <time>2023-07-25T11:10:24.000Z</time>
      </trkpt>
      <trkpt lat="42.69827" lon="1.23504">
        <ele>1679.5999755859</ele>
        <time>2023-07-25T11:10:40.000Z</time>
      </trkpt>
      <trkpt lat="42.69828" lon="1.23501">
        <ele>1679.8000488281</ele>
        <time>2023-07-25T11:10:49.000Z</time>
      </trkpt>
      <trkpt lat="42.69831" lon="1.23498">
        <ele>1679.8000488281</ele>
        <time>2023-07-25T11:10:56.000Z</time>
      </trkpt>
      <trkpt lat="42.69828" lon="1.235">
        <ele>1679.5999755859</ele>
        <time>2023-07-25T11:11:05.000Z</time>
      </trkpt>
      <trkpt lat="42.69826" lon="1.23503">
        <ele>1679.5999755859</ele>
        <time>2023-07-25T11:11:13.000Z</time>
      </trkpt>
      <trkpt lat="42.69825" lon="1.23502">
        <ele>1679.5999755859</ele>
        <time>2023-07-25T11:11:21.000Z</time>
      </trkpt>
      <trkpt lat="42.69824" lon="1.23504">
        <ele>1679.8000488281</ele>
        <time>2023-07-25T11:11:26.000Z</time>
      </trkpt>
      <trkpt lat="42.69824" lon="1.23507">
        <ele>1679.8000488281</ele>
        <time>2023-07-25T11:11:31.000Z</time>
      </trkpt>
      <trkpt lat="42.69826" lon="1.23504">
        <ele>1679.5999755859</ele>
        <time>2023-07-25T11:11:41.000Z</time>
      </trkpt>
      <trkpt lat="42.69828" lon="1.23503">
        <ele>1679.4000244141</ele>
        <time>2023-07-25T11:11:48.000Z</time>
      </trkpt>
      <trkpt lat="42.69829" lon="1.23504">
        <ele>1680.1999511719</ele>
        <time>2023-07-25T11:11:53.000Z</time>
      </trkpt>
      <trkpt lat="42.69829" lon="1.23504">
        <ele>1680.5999755859</ele>
        <time>2023-07-25T11:11:55.000Z</time>
      </trkpt>
      <trkpt lat="42.69829" lon="1.23504">
        <ele>1681.1999511719</ele>
        <time>2023-07-25T11:12:03.000Z</time>
      </trkpt>
      <trkpt lat="42.69828" lon="1.235">
        <ele>1680.8000488281</ele>
        <time>2023-07-25T11:12:11.000Z</time>
      </trkpt>
      <trkpt lat="42.6983" lon="1.23496">
        <ele>1681</ele>
        <time>2023-07-25T11:12:16.000Z</time>
      </trkpt>
      <trkpt lat="42.69832" lon="1.23495">
        <ele>1681.4000244141</ele>
        <time>2023-07-25T11:12:23.000Z</time>
      </trkpt>
      <trkpt lat="42.69832" lon="1.23494">
        <ele>1681.4000244141</ele>
        <time>2023-07-25T11:12:24.000Z</time>
      </trkpt>
      <trkpt lat="42.69835" lon="1.2349">
        <ele>1682</ele>
        <time>2023-07-25T11:12:30.000Z</time>
      </trkpt>
      <trkpt lat="42.69839" lon="1.23487">
        <ele>1682.4000244141</ele>
        <time>2023-07-25T11:12:37.000Z</time>
      </trkpt>
      <trkpt lat="42.69844" lon="1.23483">
        <ele>1682.8000488281</ele>
        <time>2023-07-25T11:12:44.000Z</time>
      </trkpt>
      <trkpt lat="42.6985" lon="1.23481">
        <ele>1682.5999755859</ele>
        <time>2023-07-25T11:12:52.000Z</time>
      </trkpt>
      <trkpt lat="42.69854" lon="1.2348">
        <ele>1682.5999755859</ele>
        <time>2023-07-25T11:12:57.000Z</time>
      </trkpt>
      <trkpt lat="42.69857" lon="1.23477">
        <ele>1682.8000488281</ele>
        <time>2023-07-25T11:13:05.000Z</time>
      </trkpt>
      <trkpt lat="42.6986" lon="1.23475">
        <ele>1682.5999755859</ele>
        <time>2023-07-25T11:13:12.000Z</time>
      </trkpt>
      <trkpt lat="42.69865" lon="1.23473">
        <ele>1682.8000488281</ele>
        <time>2023-07-25T11:13:19.000Z</time>
      </trkpt>
      <trkpt lat="42.69867" lon="1.23471">
        <ele>1682.8000488281</ele>
        <time>2023-07-25T11:13:24.000Z</time>
      </trkpt>
      <trkpt lat="42.6987" lon="1.2347">
        <ele>1683.4000244141</ele>
        <time>2023-07-25T11:13:30.000Z</time>
      </trkpt>
      <trkpt lat="42.69875" lon="1.23468">
        <ele>1683.8000488281</ele>
        <time>2023-07-25T11:13:37.000Z</time>
      </trkpt>
      <trkpt lat="42.69878" lon="1.23465">
        <ele>1683.8000488281</ele>
        <time>2023-07-25T11:13:45.000Z</time>
      </trkpt>
      <trkpt lat="42.69884" lon="1.23461">
        <ele>1684.5999755859</ele>
        <time>2023-07-25T11:13:52.000Z</time>
      </trkpt>
      <trkpt lat="42.69888" lon="1.23456">
        <ele>1685.1999511719</ele>
        <time>2023-07-25T11:13:57.000Z</time>
      </trkpt>
      <trkpt lat="42.69895" lon="1.23449">
        <ele>1685.5999755859</ele>
        <time>2023-07-25T11:14:05.000Z</time>
      </trkpt>
      <trkpt lat="42.69895" lon="1.23449">
        <ele>1685.8000488281</ele>
        <time>2023-07-25T11:14:06.000Z</time>
      </trkpt>
      <trkpt lat="42.69898" lon="1.23447">
        <ele>1685.8000488281</ele>
        <time>2023-07-25T11:14:12.000Z</time>
      </trkpt>
      <trkpt lat="42.69909" lon="1.23441">
        <ele>1685.4000244141</ele>
        <time>2023-07-25T11:14:24.000Z</time>
      </trkpt>
      <trkpt lat="42.69913" lon="1.23433">
        <ele>1684.8000488281</ele>
        <time>2023-07-25T11:14:30.000Z</time>
      </trkpt>
      <trkpt lat="42.69914" lon="1.23432">
        <ele>1684.8000488281</ele>
        <time>2023-07-25T11:14:31.000Z</time>
      </trkpt>
      <trkpt lat="42.6992" lon="1.23422">
        <ele>1685.5999755859</ele>
        <time>2023-07-25T11:14:39.000Z</time>
      </trkpt>
      <trkpt lat="42.69923" lon="1.2342">
        <ele>1686</ele>
        <time>2023-07-25T11:14:43.000Z</time>
      </trkpt>
      <trkpt lat="42.69927" lon="1.23418">
        <ele>1686.4000244141</ele>
        <time>2023-07-25T11:14:47.000Z</time>
      </trkpt>
      <trkpt lat="42.69931" lon="1.23416">
        <ele>1687</ele>
        <time>2023-07-25T11:14:51.000Z</time>
      </trkpt>
      <trkpt lat="42.69951" lon="1.23406">
        <ele>1688</ele>
        <time>2023-07-25T11:15:13.000Z</time>
      </trkpt>
      <trkpt lat="42.69952" lon="1.23397">
        <ele>1687.4000244141</ele>
        <time>2023-07-25T11:15:21.000Z</time>
      </trkpt>
      <trkpt lat="42.69955" lon="1.23387">
        <ele>1687.1999511719</ele>
        <time>2023-07-25T11:15:28.000Z</time>
      </trkpt>
      <trkpt lat="42.69956" lon="1.23379">
        <ele>1687.5999755859</ele>
        <time>2023-07-25T11:15:35.000Z</time>
      </trkpt>
      <trkpt lat="42.69959" lon="1.2337">
        <ele>1688</ele>
        <time>2023-07-25T11:15:44.000Z</time>
      </trkpt>
      <trkpt lat="42.6996" lon="1.23365">
        <ele>1689</ele>
        <time>2023-07-25T11:15:52.000Z</time>
      </trkpt>
      <trkpt lat="42.69958" lon="1.23359">
        <ele>1690.1999511719</ele>
        <time>2023-07-25T11:15:59.000Z</time>
      </trkpt>
      <trkpt lat="42.69958" lon="1.23358">
        <ele>1690.4000244141</ele>
        <time>2023-07-25T11:16:00.000Z</time>
      </trkpt>
      <trkpt lat="42.69958" lon="1.23356">
        <ele>1691.8000488281</ele>
        <time>2023-07-25T11:16:05.000Z</time>
      </trkpt>
      <trkpt lat="42.69958" lon="1.23355">
        <ele>1692.4000244141</ele>
        <time>2023-07-25T11:16:09.000Z</time>
      </trkpt>
      <trkpt lat="42.69957" lon="1.23353">
        <ele>1692.8000488281</ele>
        <time>2023-07-25T11:16:11.000Z</time>
      </trkpt>
      <trkpt lat="42.69955" lon="1.23348">
        <ele>1693.5999755859</ele>
        <time>2023-07-25T11:16:18.000Z</time>
      </trkpt>
      <trkpt lat="42.69955" lon="1.23347">
        <ele>1694.1999511719</ele>
        <time>2023-07-25T11:16:20.000Z</time>
      </trkpt>
      <trkpt lat="42.69955" lon="1.23342">
        <ele>1695.1999511719</ele>
        <time>2023-07-25T11:16:26.000Z</time>
      </trkpt>
      <trkpt lat="42.69955" lon="1.23338">
        <ele>1695.4000244141</ele>
        <time>2023-07-25T11:16:30.000Z</time>
      </trkpt>
      <trkpt lat="42.69954" lon="1.23335">
        <ele>1695.5999755859</ele>
        <time>2023-07-25T11:16:33.000Z</time>
      </trkpt>
      <trkpt lat="42.69955" lon="1.23326">
        <ele>1696.1999511719</ele>
        <time>2023-07-25T11:16:42.000Z</time>
      </trkpt>
      <trkpt lat="42.69955" lon="1.23323">
        <ele>1696.5999755859</ele>
        <time>2023-07-25T11:16:44.000Z</time>
      </trkpt>
      <trkpt lat="42.69956" lon="1.23315">
        <ele>1697.8000488281</ele>
        <time>2023-07-25T11:16:51.000Z</time>
      </trkpt>
      <trkpt lat="42.69956" lon="1.23314">
        <ele>1698.1999511719</ele>
        <time>2023-07-25T11:16:52.000Z</time>
      </trkpt>
      <trkpt lat="42.69958" lon="1.23303">
        <ele>1699</ele>
        <time>2023-07-25T11:17:00.000Z</time>
      </trkpt>
      <trkpt lat="42.69959" lon="1.23301">
        <ele>1699.4000244141</ele>
        <time>2023-07-25T11:17:01.000Z</time>
      </trkpt>
      <trkpt lat="42.69959" lon="1.23293">
        <ele>1700</ele>
        <time>2023-07-25T11:17:08.000Z</time>
      </trkpt>
      <trkpt lat="42.6996" lon="1.23283">
        <ele>1700</ele>
        <time>2023-07-25T11:17:16.000Z</time>
      </trkpt>
      <trkpt lat="42.69959" lon="1.23282">
        <ele>1700.1999511719</ele>
        <time>2023-07-25T11:17:17.000Z</time>
      </trkpt>
      <trkpt lat="42.69958" lon="1.23274">
        <ele>1700.4000244141</ele>
        <time>2023-07-25T11:17:23.000Z</time>
      </trkpt>
      <trkpt lat="42.69957" lon="1.23265">
        <ele>1700.1999511719</ele>
        <time>2023-07-25T11:17:31.000Z</time>
      </trkpt>
      <trkpt lat="42.69958" lon="1.23252">
        <ele>1700</ele>
        <time>2023-07-25T11:17:40.000Z</time>
      </trkpt>
      <trkpt lat="42.69956" lon="1.2324">
        <ele>1700.1999511719</ele>
        <time>2023-07-25T11:17:47.000Z</time>
      </trkpt>
      <trkpt lat="42.69952" lon="1.2323">
        <ele>1701</ele>
        <time>2023-07-25T11:17:54.000Z</time>
      </trkpt>
      <trkpt lat="42.69949" lon="1.23221">
        <ele>1701</ele>
        <time>2023-07-25T11:18:01.000Z</time>
      </trkpt>
      <trkpt lat="42.69948" lon="1.2321">
        <ele>1700.8000488281</ele>
        <time>2023-07-25T11:18:08.000Z</time>
      </trkpt>
      <trkpt lat="42.69947" lon="1.23198">
        <ele>1700.5999755859</ele>
        <time>2023-07-25T11:18:16.000Z</time>
      </trkpt>
      <trkpt lat="42.69949" lon="1.23192">
        <ele>1700.8000488281</ele>
        <time>2023-07-25T11:18:26.000Z</time>
      </trkpt>
      <trkpt lat="42.6995" lon="1.23193">
        <ele>1700.8000488281</ele>
        <time>2023-07-25T11:18:31.000Z</time>
      </trkpt>
      <trkpt lat="42.69951" lon="1.23193">
        <ele>1700.8000488281</ele>
        <time>2023-07-25T11:18:35.000Z</time>
      </trkpt>
      <trkpt lat="42.6995" lon="1.23191">
        <ele>1700.8000488281</ele>
        <time>2023-07-25T11:18:41.000Z</time>
      </trkpt>
      <trkpt lat="42.69949" lon="1.23185">
        <ele>1700.5999755859</ele>
        <time>2023-07-25T11:18:48.000Z</time>
      </trkpt>
      <trkpt lat="42.69947" lon="1.23181">
        <ele>1701.1999511719</ele>
        <time>2023-07-25T11:18:53.000Z</time>
      </trkpt>
      <trkpt lat="42.69947" lon="1.2318">
        <ele>1701.4000244141</ele>
        <time>2023-07-25T11:18:56.000Z</time>
      </trkpt>
      <trkpt lat="42.6995" lon="1.23171">
        <ele>1701.5999755859</ele>
        <time>2023-07-25T11:19:04.000Z</time>
      </trkpt>
      <trkpt lat="42.69954" lon="1.23163">
        <ele>1702.1999511719</ele>
        <time>2023-07-25T11:19:11.000Z</time>
      </trkpt>
      <trkpt lat="42.69954" lon="1.23162">
        <ele>1702.5999755859</ele>
        <time>2023-07-25T11:19:14.000Z</time>
      </trkpt>
      <trkpt lat="42.6995" lon="1.23153">
        <ele>1703</ele>
        <time>2023-07-25T11:19:22.000Z</time>
      </trkpt>
      <trkpt lat="42.69949" lon="1.23149">
        <ele>1703.1999511719</ele>
        <time>2023-07-25T11:19:29.000Z</time>
      </trkpt>
      <trkpt lat="42.69948" lon="1.23145">
        <ele>1704.4000244141</ele>
        <time>2023-07-25T11:19:34.000Z</time>
      </trkpt>
      <trkpt lat="42.69949" lon="1.23142">
        <ele>1704.8000488281</ele>
        <time>2023-07-25T11:19:37.000Z</time>
      </trkpt>
      <trkpt lat="42.69947" lon="1.23134">
        <ele>1705.5999755859</ele>
        <time>2023-07-25T11:19:42.000Z</time>
      </trkpt>
      <trkpt lat="42.69947" lon="1.23128">
        <ele>1706</ele>
        <time>2023-07-25T11:19:46.000Z</time>
      </trkpt>
      <trkpt lat="42.69945" lon="1.23117">
        <ele>1706.4000244141</ele>
        <time>2023-07-25T11:19:55.000Z</time>
      </trkpt>
      <trkpt lat="42.69944" lon="1.23106">
        <ele>1706</ele>
        <time>2023-07-25T11:20:03.000Z</time>
      </trkpt>
      <trkpt lat="42.69945" lon="1.23094">
        <ele>1705.8000488281</ele>
        <time>2023-07-25T11:20:12.000Z</time>
      </trkpt>
      <trkpt lat="42.69946" lon="1.23089">
        <ele>1706.5999755859</ele>
        <time>2023-07-25T11:20:17.000Z</time>
      </trkpt>
      <trkpt lat="42.69947" lon="1.23087">
        <ele>1707.4000244141</ele>
        <time>2023-07-25T11:20:20.000Z</time>
      </trkpt>
      <trkpt lat="42.69947" lon="1.23085">
        <ele>1707.8000488281</ele>
        <time>2023-07-25T11:20:22.000Z</time>
      </trkpt>
      <trkpt lat="42.69948" lon="1.23079">
        <ele>1708.8000488281</ele>
        <time>2023-07-25T11:20:29.000Z</time>
      </trkpt>
      <trkpt lat="42.69949" lon="1.23072">
        <ele>1709.4000244141</ele>
        <time>2023-07-25T11:20:36.000Z</time>
      </trkpt>
      <trkpt lat="42.6995" lon="1.23062">
        <ele>1709.8000488281</ele>
        <time>2023-07-25T11:20:45.000Z</time>
      </trkpt>
      <trkpt lat="42.69949" lon="1.23061">
        <ele>1709.8000488281</ele>
        <time>2023-07-25T11:20:48.000Z</time>
      </trkpt>
      <trkpt lat="42.69946" lon="1.23057">
        <ele>1710.1999511719</ele>
        <time>2023-07-25T11:20:52.000Z</time>
      </trkpt>
      <trkpt lat="42.69945" lon="1.23055">
        <ele>1711</ele>
        <time>2023-07-25T11:20:55.000Z</time>
      </trkpt>
      <trkpt lat="42.69946" lon="1.23052">
        <ele>1712</ele>
        <time>2023-07-25T11:20:58.000Z</time>
      </trkpt>
      <trkpt lat="42.69947" lon="1.23047">
        <ele>1712.1999511719</ele>
        <time>2023-07-25T11:21:00.000Z</time>
      </trkpt>
      <trkpt lat="42.6995" lon="1.23039">
        <ele>1712.5999755859</ele>
        <time>2023-07-25T11:21:08.000Z</time>
      </trkpt>
      <trkpt lat="42.69952" lon="1.23034">
        <ele>1713</ele>
        <time>2023-07-25T11:21:16.000Z</time>
      </trkpt>
      <trkpt lat="42.69952" lon="1.23025">
        <ele>1713.4000244141</ele>
        <time>2023-07-25T11:21:23.000Z</time>
      </trkpt>
      <trkpt lat="42.69952" lon="1.23021">
        <ele>1714</ele>
        <time>2023-07-25T11:21:31.000Z</time>
      </trkpt>
      <trkpt lat="42.69953" lon="1.23019">
        <ele>1714.1999511719</ele>
        <time>2023-07-25T11:21:33.000Z</time>
      </trkpt>
      <trkpt lat="42.69954" lon="1.23015">
        <ele>1714.4000244141</ele>
        <time>2023-07-25T11:21:39.000Z</time>
      </trkpt>
      <trkpt lat="42.69953" lon="1.23012">
        <ele>1715.1999511719</ele>
        <time>2023-07-25T11:21:45.000Z</time>
      </trkpt>
      <trkpt lat="42.69952" lon="1.23009">
        <ele>1715.5999755859</ele>
        <time>2023-07-25T11:21:48.000Z</time>
      </trkpt>
      <trkpt lat="42.69952" lon="1.23006">
        <ele>1716</ele>
        <time>2023-07-25T11:21:53.000Z</time>
      </trkpt>
      <trkpt lat="42.69953" lon="1.23001">
        <ele>1716.1999511719</ele>
        <time>2023-07-25T11:21:57.000Z</time>
      </trkpt>
      <trkpt lat="42.69954" lon="1.22996">
        <ele>1716.5999755859</ele>
        <time>2023-07-25T11:22:01.000Z</time>
      </trkpt>
      <trkpt lat="42.69956" lon="1.2299">
        <ele>1717.1999511719</ele>
        <time>2023-07-25T11:22:07.000Z</time>
      </trkpt>
      <trkpt lat="42.69957" lon="1.22988">
        <ele>1717.4000244141</ele>
        <time>2023-07-25T11:22:09.000Z</time>
      </trkpt>
      <trkpt lat="42.69958" lon="1.22983">
        <ele>1718.4000244141</ele>
        <time>2023-07-25T11:22:14.000Z</time>
      </trkpt>
      <trkpt lat="42.69958" lon="1.22982">
        <ele>1718.8000488281</ele>
        <time>2023-07-25T11:22:16.000Z</time>
      </trkpt>
      <trkpt lat="42.69959" lon="1.2298">
        <ele>1719.4000244141</ele>
        <time>2023-07-25T11:22:19.000Z</time>
      </trkpt>
      <trkpt lat="42.69958" lon="1.22978">
        <ele>1720</ele>
        <time>2023-07-25T11:22:23.000Z</time>
      </trkpt>
      <trkpt lat="42.69958" lon="1.22974">
        <ele>1720.4000244141</ele>
        <time>2023-07-25T11:22:27.000Z</time>
      </trkpt>
      <trkpt lat="42.69959" lon="1.22971">
        <ele>1720.8000488281</ele>
        <time>2023-07-25T11:22:30.000Z</time>
      </trkpt>
      <trkpt lat="42.6996" lon="1.22968">
        <ele>1721.8000488281</ele>
        <time>2023-07-25T11:22:37.000Z</time>
      </trkpt>
      <trkpt lat="42.69961" lon="1.22967">
        <ele>1722</ele>
        <time>2023-07-25T11:22:39.000Z</time>
      </trkpt>
      <trkpt lat="42.69961" lon="1.22967">
        <ele>1722.8000488281</ele>
        <time>2023-07-25T11:22:44.000Z</time>
      </trkpt>
      <trkpt lat="42.69962" lon="1.22964">
        <ele>1723.1999511719</ele>
        <time>2023-07-25T11:22:47.000Z</time>
      </trkpt>
      <trkpt lat="42.69964" lon="1.22959">
        <ele>1723.8000488281</ele>
        <time>2023-07-25T11:22:52.000Z</time>
      </trkpt>
      <trkpt lat="42.69965" lon="1.22955">
        <ele>1724.1999511719</ele>
        <time>2023-07-25T11:22:55.000Z</time>
      </trkpt>
      <trkpt lat="42.69965" lon="1.22948">
        <ele>1725</ele>
        <time>2023-07-25T11:23:02.000Z</time>
      </trkpt>
      <trkpt lat="42.69965" lon="1.22947">
        <ele>1725.1999511719</ele>
        <time>2023-07-25T11:23:04.000Z</time>
      </trkpt>
      <trkpt lat="42.69967" lon="1.22944">
        <ele>1726</ele>
        <time>2023-07-25T11:23:10.000Z</time>
      </trkpt>
      <trkpt lat="42.69967" lon="1.22941">
        <ele>1726.4000244141</ele>
        <time>2023-07-25T11:23:13.000Z</time>
      </trkpt>
      <trkpt lat="42.69971" lon="1.22933">
        <ele>1727</ele>
        <time>2023-07-25T11:23:17.000Z</time>
      </trkpt>
      <trkpt lat="42.69971" lon="1.22933">
        <ele>1727.4000244141</ele>
        <time>2023-07-25T11:23:19.000Z</time>
      </trkpt>
      <trkpt lat="42.69971" lon="1.22932">
        <ele>1728.1999511719</ele>
        <time>2023-07-25T11:23:24.000Z</time>
      </trkpt>
      <trkpt lat="42.69972" lon="1.22929">
        <ele>1728.5999755859</ele>
        <time>2023-07-25T11:23:26.000Z</time>
      </trkpt>
      <trkpt lat="42.69972" lon="1.22928">
        <ele>1729.1999511719</ele>
        <time>2023-07-25T11:23:30.000Z</time>
      </trkpt>
      <trkpt lat="42.69973" lon="1.22925">
        <ele>1729.5999755859</ele>
        <time>2023-07-25T11:23:33.000Z</time>
      </trkpt>
      <trkpt lat="42.69974" lon="1.22916">
        <ele>1730.4000244141</ele>
        <time>2023-07-25T11:23:38.000Z</time>
      </trkpt>
      <trkpt lat="42.69975" lon="1.2291">
        <ele>1730.8000488281</ele>
        <time>2023-07-25T11:23:41.000Z</time>
      </trkpt>
      <trkpt lat="42.69976" lon="1.22909">
        <ele>1731.4000244141</ele>
        <time>2023-07-25T11:23:44.000Z</time>
      </trkpt>
      <trkpt lat="42.69977" lon="1.22906">
        <ele>1732</ele>
        <time>2023-07-25T11:23:48.000Z</time>
      </trkpt>
      <trkpt lat="42.69979" lon="1.229">
        <ele>1732.5999755859</ele>
        <time>2023-07-25T11:23:54.000Z</time>
      </trkpt>
      <trkpt lat="42.6998" lon="1.22898">
        <ele>1732.8000488281</ele>
        <time>2023-07-25T11:23:56.000Z</time>
      </trkpt>
      <trkpt lat="42.69983" lon="1.22894">
        <ele>1733.5999755859</ele>
        <time>2023-07-25T11:24:01.000Z</time>
      </trkpt>
      <trkpt lat="42.69985" lon="1.2289">
        <ele>1733.5999755859</ele>
        <time>2023-07-25T11:24:05.000Z</time>
      </trkpt>
      <trkpt lat="42.69986" lon="1.22883">
        <ele>1734</ele>
        <time>2023-07-25T11:24:12.000Z</time>
      </trkpt>
      <trkpt lat="42.69989" lon="1.22873">
        <ele>1734.5999755859</ele>
        <time>2023-07-25T11:24:20.000Z</time>
      </trkpt>
      <trkpt lat="42.69992" lon="1.22863">
        <ele>1735.1999511719</ele>
        <time>2023-07-25T11:24:27.000Z</time>
      </trkpt>
      <trkpt lat="42.69995" lon="1.22859">
        <ele>1735.5999755859</ele>
        <time>2023-07-25T11:24:33.000Z</time>
      </trkpt>
      <trkpt lat="42.69998" lon="1.22856">
        <ele>1735.8000488281</ele>
        <time>2023-07-25T11:24:37.000Z</time>
      </trkpt>
      <trkpt lat="42.70001" lon="1.22847">
        <ele>1736.8000488281</ele>
        <time>2023-07-25T11:24:45.000Z</time>
      </trkpt>
      <trkpt lat="42.70001" lon="1.22845">
        <ele>1736.8000488281</ele>
        <time>2023-07-25T11:24:47.000Z</time>
      </trkpt>
      <trkpt lat="42.70006" lon="1.22837">
        <ele>1737.8000488281</ele>
        <time>2023-07-25T11:24:55.000Z</time>
      </trkpt>
      <trkpt lat="42.70011" lon="1.22833">
        <ele>1738.4000244141</ele>
        <time>2023-07-25T11:25:03.000Z</time>
      </trkpt>
      <trkpt lat="42.70012" lon="1.22833">
        <ele>1738.8000488281</ele>
        <time>2023-07-25T11:25:06.000Z</time>
      </trkpt>
      <trkpt lat="42.70023" lon="1.22829">
        <ele>1739.5999755859</ele>
        <time>2023-07-25T11:25:15.000Z</time>
      </trkpt>
      <trkpt lat="42.70026" lon="1.22826">
        <ele>1739.8000488281</ele>
        <time>2023-07-25T11:25:18.000Z</time>
      </trkpt>
      <trkpt lat="42.70028" lon="1.22824">
        <ele>1740.1999511719</ele>
        <time>2023-07-25T11:25:23.000Z</time>
      </trkpt>
      <trkpt lat="42.70031" lon="1.2282">
        <ele>1740.8000488281</ele>
        <time>2023-07-25T11:25:28.000Z</time>
      </trkpt>
      <trkpt lat="42.70032" lon="1.22817">
        <ele>1741.1999511719</ele>
        <time>2023-07-25T11:25:32.000Z</time>
      </trkpt>
      <trkpt lat="42.70034" lon="1.22813">
        <ele>1742</ele>
        <time>2023-07-25T11:25:37.000Z</time>
      </trkpt>
      <trkpt lat="42.70036" lon="1.22811">
        <ele>1742.4000244141</ele>
        <time>2023-07-25T11:25:41.000Z</time>
      </trkpt>
      <trkpt lat="42.70037" lon="1.2281">
        <ele>1743</ele>
        <time>2023-07-25T11:25:44.000Z</time>
      </trkpt>
      <trkpt lat="42.70038" lon="1.22808">
        <ele>1744.1999511719</ele>
        <time>2023-07-25T11:25:50.000Z</time>
      </trkpt>
      <trkpt lat="42.70041" lon="1.22803">
        <ele>1745.1999511719</ele>
        <time>2023-07-25T11:25:56.000Z</time>
      </trkpt>
      <trkpt lat="42.70042" lon="1.22801">
        <ele>1746.1999511719</ele>
        <time>2023-07-25T11:26:00.000Z</time>
      </trkpt>
      <trkpt lat="42.70043" lon="1.228">
        <ele>1746.4000244141</ele>
        <time>2023-07-25T11:26:01.000Z</time>
      </trkpt>
      <trkpt lat="42.70047" lon="1.22797">
        <ele>1747.5999755859</ele>
        <time>2023-07-25T11:26:08.000Z</time>
      </trkpt>
      <trkpt lat="42.70048" lon="1.22796">
        <ele>1747.8000488281</ele>
        <time>2023-07-25T11:26:10.000Z</time>
      </trkpt>
      <trkpt lat="42.7005" lon="1.22796">
        <ele>1748.5999755859</ele>
        <time>2023-07-25T11:26:14.000Z</time>
      </trkpt>
      <trkpt lat="42.70052" lon="1.22794">
        <ele>1749.5999755859</ele>
        <time>2023-07-25T11:26:24.000Z</time>
      </trkpt>
      <trkpt lat="42.70053" lon="1.22784">
        <ele>1750.5999755859</ele>
        <time>2023-07-25T11:26:32.000Z</time>
      </trkpt>
      <trkpt lat="42.70053" lon="1.22782">
        <ele>1750.5999755859</ele>
        <time>2023-07-25T11:26:33.000Z</time>
      </trkpt>
      <trkpt lat="42.70054" lon="1.22779">
        <ele>1751.5999755859</ele>
        <time>2023-07-25T11:26:39.000Z</time>
      </trkpt>
      <trkpt lat="42.70054" lon="1.22778">
        <ele>1751.5999755859</ele>
        <time>2023-07-25T11:26:40.000Z</time>
      </trkpt>
      <trkpt lat="42.70055" lon="1.22777">
        <ele>1752.4000244141</ele>
        <time>2023-07-25T11:26:46.000Z</time>
      </trkpt>
      <trkpt lat="42.70054" lon="1.22777">
        <ele>1752.8000488281</ele>
        <time>2023-07-25T11:26:49.000Z</time>
      </trkpt>
      <trkpt lat="42.70054" lon="1.22773">
        <ele>1753.1999511719</ele>
        <time>2023-07-25T11:26:54.000Z</time>
      </trkpt>
      <trkpt lat="42.70055" lon="1.22772">
        <ele>1753.8000488281</ele>
        <time>2023-07-25T11:26:59.000Z</time>
      </trkpt>
      <trkpt lat="42.70055" lon="1.22771">
        <ele>1754.4000244141</ele>
        <time>2023-07-25T11:27:03.000Z</time>
      </trkpt>
      <trkpt lat="42.70054" lon="1.22768">
        <ele>1754.8000488281</ele>
        <time>2023-07-25T11:27:11.000Z</time>
      </trkpt>
      <trkpt lat="42.70054" lon="1.22769">
        <ele>1754.8000488281</ele>
        <time>2023-07-25T11:27:12.000Z</time>
      </trkpt>
      <trkpt lat="42.70052" lon="1.22773">
        <ele>1754.8000488281</ele>
        <time>2023-07-25T11:27:18.000Z</time>
      </trkpt>
      <trkpt lat="42.70056" lon="1.22766">
        <ele>1755.8000488281</ele>
        <time>2023-07-25T11:27:42.000Z</time>
      </trkpt>
      <trkpt lat="42.70056" lon="1.22762">
        <ele>1755.8000488281</ele>
        <time>2023-07-25T11:27:44.000Z</time>
      </trkpt>
      <trkpt lat="42.70054" lon="1.2276">
        <ele>1756.5999755859</ele>
        <time>2023-07-25T11:27:50.000Z</time>
      </trkpt>
      <trkpt lat="42.70055" lon="1.22761">
        <ele>1756.8000488281</ele>
        <time>2023-07-25T11:27:51.000Z</time>
      </trkpt>
      <trkpt lat="42.70062" lon="1.22753">
        <ele>1759.8000488281</ele>
        <time>2023-07-25T11:28:07.000Z</time>
      </trkpt>
      <trkpt lat="42.70062" lon="1.22752">
        <ele>1760.1999511719</ele>
        <time>2023-07-25T11:28:09.000Z</time>
      </trkpt>
      <trkpt lat="42.70062" lon="1.2275">
        <ele>1760.8000488281</ele>
        <time>2023-07-25T11:28:12.000Z</time>
      </trkpt>
      <trkpt lat="42.70062" lon="1.22749">
        <ele>1761.1999511719</ele>
        <time>2023-07-25T11:28:15.000Z</time>
      </trkpt>
      <trkpt lat="42.70064" lon="1.22747">
        <ele>1762</ele>
        <time>2023-07-25T11:28:20.000Z</time>
      </trkpt>
      <trkpt lat="42.70059" lon="1.22752">
        <ele>1765.5999755859</ele>
        <time>2023-07-25T11:28:40.000Z</time>
      </trkpt>
      <trkpt lat="42.70061" lon="1.22751">
        <ele>1765.8000488281</ele>
        <time>2023-07-25T11:28:41.000Z</time>
      </trkpt>
      <trkpt lat="42.70064" lon="1.22747">
        <ele>1766.8000488281</ele>
        <time>2023-07-25T11:28:46.000Z</time>
      </trkpt>
      <trkpt lat="42.70064" lon="1.22746">
        <ele>1767</ele>
        <time>2023-07-25T11:28:47.000Z</time>
      </trkpt>
      <trkpt lat="42.70064" lon="1.22741">
        <ele>1768</ele>
        <time>2023-07-25T11:28:52.000Z</time>
      </trkpt>
      <trkpt lat="42.70064" lon="1.22738">
        <ele>1768.8000488281</ele>
        <time>2023-07-25T11:28:56.000Z</time>
      </trkpt>
      <trkpt lat="42.70065" lon="1.22734">
        <ele>1769.1999511719</ele>
        <time>2023-07-25T11:29:00.000Z</time>
      </trkpt>
      <trkpt lat="42.70065" lon="1.22732">
        <ele>1769.4000244141</ele>
        <time>2023-07-25T11:29:04.000Z</time>
      </trkpt>
      <trkpt lat="42.70066" lon="1.2273">
        <ele>1770.1999511719</ele>
        <time>2023-07-25T11:29:07.000Z</time>
      </trkpt>
      <trkpt lat="42.70067" lon="1.22729">
        <ele>1771.4000244141</ele>
        <time>2023-07-25T11:29:10.000Z</time>
      </trkpt>
      <trkpt lat="42.70067" lon="1.22729">
        <ele>1772</ele>
        <time>2023-07-25T11:29:13.000Z</time>
      </trkpt>
      <trkpt lat="42.70068" lon="1.22725">
        <ele>1772.4000244141</ele>
        <time>2023-07-25T11:29:18.000Z</time>
      </trkpt>
      <trkpt lat="42.7007" lon="1.22722">
        <ele>1773</ele>
        <time>2023-07-25T11:29:22.000Z</time>
      </trkpt>
      <trkpt lat="42.70072" lon="1.22719">
        <ele>1773.4000244141</ele>
        <time>2023-07-25T11:29:27.000Z</time>
      </trkpt>
      <trkpt lat="42.70072" lon="1.22719">
        <ele>1773.5999755859</ele>
        <time>2023-07-25T11:29:28.000Z</time>
      </trkpt>
      <trkpt lat="42.70073" lon="1.22715">
        <ele>1774.5999755859</ele>
        <time>2023-07-25T11:29:35.000Z</time>
      </trkpt>
      <trkpt lat="42.70074" lon="1.22713">
        <ele>1774.8000488281</ele>
        <time>2023-07-25T11:29:37.000Z</time>
      </trkpt>
      <trkpt lat="42.70076" lon="1.2271">
        <ele>1775.8000488281</ele>
        <time>2023-07-25T11:29:41.000Z</time>
      </trkpt>
      <trkpt lat="42.70077" lon="1.22708">
        <ele>1776.4000244141</ele>
        <time>2023-07-25T11:29:46.000Z</time>
      </trkpt>
      <trkpt lat="42.70077" lon="1.22707">
        <ele>1776.8000488281</ele>
        <time>2023-07-25T11:29:48.000Z</time>
      </trkpt>
      <trkpt lat="42.70079" lon="1.22703">
        <ele>1777.8000488281</ele>
        <time>2023-07-25T11:29:55.000Z</time>
      </trkpt>
      <trkpt lat="42.70079" lon="1.22698">
        <ele>1779</ele>
        <time>2023-07-25T11:30:02.000Z</time>
      </trkpt>
      <trkpt lat="42.70079" lon="1.22696">
        <ele>1779.5999755859</ele>
        <time>2023-07-25T11:30:05.000Z</time>
      </trkpt>
      <trkpt lat="42.70079" lon="1.22694">
        <ele>1780</ele>
        <time>2023-07-25T11:30:08.000Z</time>
      </trkpt>
      <trkpt lat="42.70078" lon="1.22691">
        <ele>1780.8000488281</ele>
        <time>2023-07-25T11:30:13.000Z</time>
      </trkpt>
      <trkpt lat="42.70077" lon="1.22689">
        <ele>1781.1999511719</ele>
        <time>2023-07-25T11:30:15.000Z</time>
      </trkpt>
      <trkpt lat="42.70078" lon="1.22685">
        <ele>1782.1999511719</ele>
        <time>2023-07-25T11:30:21.000Z</time>
      </trkpt>
      <trkpt lat="42.70081" lon="1.2268">
        <ele>1782.8000488281</ele>
        <time>2023-07-25T11:30:28.000Z</time>
      </trkpt>
      <trkpt lat="42.70083" lon="1.22676">
        <ele>1783.1999511719</ele>
        <time>2023-07-25T11:30:33.000Z</time>
      </trkpt>
      <trkpt lat="42.70084" lon="1.22671">
        <ele>1783.8000488281</ele>
        <time>2023-07-25T11:30:37.000Z</time>
      </trkpt>
      <trkpt lat="42.70085" lon="1.22668">
        <ele>1784.4000244141</ele>
        <time>2023-07-25T11:30:40.000Z</time>
      </trkpt>
      <trkpt lat="42.70089" lon="1.2266">
        <ele>1784.8000488281</ele>
        <time>2023-07-25T11:30:47.000Z</time>
      </trkpt>
      <trkpt lat="42.70091" lon="1.22654">
        <ele>1785.4000244141</ele>
        <time>2023-07-25T11:30:52.000Z</time>
      </trkpt>
      <trkpt lat="42.70092" lon="1.22651">
        <ele>1785.5999755859</ele>
        <time>2023-07-25T11:30:56.000Z</time>
      </trkpt>
      <trkpt lat="42.70094" lon="1.2264">
        <ele>1786.1999511719</ele>
        <time>2023-07-25T11:31:03.000Z</time>
      </trkpt>
      <trkpt lat="42.70095" lon="1.22637">
        <ele>1786.5999755859</ele>
        <time>2023-07-25T11:31:06.000Z</time>
      </trkpt>
      <trkpt lat="42.70097" lon="1.22632">
        <ele>1787.5999755859</ele>
        <time>2023-07-25T11:31:11.000Z</time>
      </trkpt>
      <trkpt lat="42.70098" lon="1.22631">
        <ele>1787.8000488281</ele>
        <time>2023-07-25T11:31:12.000Z</time>
      </trkpt>
      <trkpt lat="42.70098" lon="1.22628">
        <ele>1788.5999755859</ele>
        <time>2023-07-25T11:31:16.000Z</time>
      </trkpt>
      <trkpt lat="42.70098" lon="1.22625">
        <ele>1790</ele>
        <time>2023-07-25T11:31:21.000Z</time>
      </trkpt>
      <trkpt lat="42.70102" lon="1.22615">
        <ele>1791</ele>
        <time>2023-07-25T11:31:29.000Z</time>
      </trkpt>
      <trkpt lat="42.70104" lon="1.22613">
        <ele>1791</ele>
        <time>2023-07-25T11:31:31.000Z</time>
      </trkpt>
      <trkpt lat="42.70108" lon="1.22609">
        <ele>1792</ele>
        <time>2023-07-25T11:31:38.000Z</time>
      </trkpt>
      <trkpt lat="42.70108" lon="1.22609">
        <ele>1792.4000244141</ele>
        <time>2023-07-25T11:31:41.000Z</time>
      </trkpt>
      <trkpt lat="42.70113" lon="1.22601">
        <ele>1795.1999511719</ele>
        <time>2023-07-25T11:31:54.000Z</time>
      </trkpt>
      <trkpt lat="42.70115" lon="1.22596">
        <ele>1795.8000488281</ele>
        <time>2023-07-25T11:31:58.000Z</time>
      </trkpt>
      <trkpt lat="42.70116" lon="1.22593">
        <ele>1796.1999511719</ele>
        <time>2023-07-25T11:32:01.000Z</time>
      </trkpt>
      <trkpt lat="42.70119" lon="1.2259">
        <ele>1796.8000488281</ele>
        <time>2023-07-25T11:32:07.000Z</time>
      </trkpt>
      <trkpt lat="42.70121" lon="1.22588">
        <ele>1797.4000244141</ele>
        <time>2023-07-25T11:32:11.000Z</time>
      </trkpt>
      <trkpt lat="42.70125" lon="1.22582">
        <ele>1798.4000244141</ele>
        <time>2023-07-25T11:32:20.000Z</time>
      </trkpt>
      <trkpt lat="42.70125" lon="1.2258">
        <ele>1798.4000244141</ele>
        <time>2023-07-25T11:32:23.000Z</time>
      </trkpt>
      <trkpt lat="42.70128" lon="1.22576">
        <ele>1799.5999755859</ele>
        <time>2023-07-25T11:32:29.000Z</time>
      </trkpt>
      <trkpt lat="42.70128" lon="1.22576">
        <ele>1799.8000488281</ele>
        <time>2023-07-25T11:32:30.000Z</time>
      </trkpt>
      <trkpt lat="42.7013" lon="1.22574">
        <ele>1800.5999755859</ele>
        <time>2023-07-25T11:32:34.000Z</time>
      </trkpt>
      <trkpt lat="42.70137" lon="1.22567">
        <ele>1803</ele>
        <time>2023-07-25T11:32:46.000Z</time>
      </trkpt>
      <trkpt lat="42.70137" lon="1.22566">
        <ele>1803.1999511719</ele>
        <time>2023-07-25T11:32:47.000Z</time>
      </trkpt>
      <trkpt lat="42.70139" lon="1.2256">
        <ele>1804</ele>
        <time>2023-07-25T11:32:53.000Z</time>
      </trkpt>
      <trkpt lat="42.7014" lon="1.22559">
        <ele>1804</ele>
        <time>2023-07-25T11:32:54.000Z</time>
      </trkpt>
      <trkpt lat="42.70144" lon="1.22556">
        <ele>1804.8000488281</ele>
        <time>2023-07-25T11:33:02.000Z</time>
      </trkpt>
      <trkpt lat="42.70144" lon="1.22556">
        <ele>1805</ele>
        <time>2023-07-25T11:33:04.000Z</time>
      </trkpt>
      <trkpt lat="42.7015" lon="1.22553">
        <ele>1805.4000244141</ele>
        <time>2023-07-25T11:33:13.000Z</time>
      </trkpt>
      <trkpt lat="42.70148" lon="1.22547">
        <ele>1806.1999511719</ele>
        <time>2023-07-25T11:33:22.000Z</time>
      </trkpt>
      <trkpt lat="42.70148" lon="1.22547">
        <ele>1806</ele>
        <time>2023-07-25T11:33:30.000Z</time>
      </trkpt>
      <trkpt lat="42.70153" lon="1.22545">
        <ele>1805.8000488281</ele>
        <time>2023-07-25T11:33:39.000Z</time>
      </trkpt>
      <trkpt lat="42.70155" lon="1.22548">
        <ele>1805.5999755859</ele>
        <time>2023-07-25T11:33:48.000Z</time>
      </trkpt>
      <trkpt lat="42.70155" lon="1.22552">
        <ele>1805.4000244141</ele>
        <time>2023-07-25T11:33:56.000Z</time>
      </trkpt>
      <trkpt lat="42.70153" lon="1.22546">
        <ele>1805.1999511719</ele>
        <time>2023-07-25T11:34:03.000Z</time>
      </trkpt>
      <trkpt lat="42.70153" lon="1.2254">
        <ele>1805</ele>
        <time>2023-07-25T11:34:08.000Z</time>
      </trkpt>
      <trkpt lat="42.70153" lon="1.22538">
        <ele>1804.5999755859</ele>
        <time>2023-07-25T11:34:12.000Z</time>
      </trkpt>
      <trkpt lat="42.70156" lon="1.22531">
        <ele>1805.4000244141</ele>
        <time>2023-07-25T11:34:21.000Z</time>
      </trkpt>
      <trkpt lat="42.70158" lon="1.22528">
        <ele>1806</ele>
        <time>2023-07-25T11:34:24.000Z</time>
      </trkpt>
      <trkpt lat="42.70162" lon="1.22522">
        <ele>1807.1999511719</ele>
        <time>2023-07-25T11:34:30.000Z</time>
      </trkpt>
      <trkpt lat="42.70163" lon="1.22521">
        <ele>1807.1999511719</ele>
        <time>2023-07-25T11:34:31.000Z</time>
      </trkpt>
      <trkpt lat="42.70164" lon="1.22516">
        <ele>1808.4000244141</ele>
        <time>2023-07-25T11:34:36.000Z</time>
      </trkpt>
      <trkpt lat="42.70165" lon="1.22512">
        <ele>1809</ele>
        <time>2023-07-25T11:34:40.000Z</time>
      </trkpt>
      <trkpt lat="42.70167" lon="1.22505">
        <ele>1809.4000244141</ele>
        <time>2023-07-25T11:34:45.000Z</time>
      </trkpt>
      <trkpt lat="42.70168" lon="1.22504">
        <ele>1809.8000488281</ele>
        <time>2023-07-25T11:34:47.000Z</time>
      </trkpt>
      <trkpt lat="42.70174" lon="1.22496">
        <ele>1810.4000244141</ele>
        <time>2023-07-25T11:34:55.000Z</time>
      </trkpt>
      <trkpt lat="42.70175" lon="1.22492">
        <ele>1810.5999755859</ele>
        <time>2023-07-25T11:34:58.000Z</time>
      </trkpt>
      <trkpt lat="42.70177" lon="1.22488">
        <ele>1810.8000488281</ele>
        <time>2023-07-25T11:35:02.000Z</time>
      </trkpt>
      <trkpt lat="42.70178" lon="1.22485">
        <ele>1811.5999755859</ele>
        <time>2023-07-25T11:35:08.000Z</time>
      </trkpt>
      <trkpt lat="42.70178" lon="1.22484">
        <ele>1811.8000488281</ele>
        <time>2023-07-25T11:35:10.000Z</time>
      </trkpt>
      <trkpt lat="42.70182" lon="1.2248">
        <ele>1812.4000244141</ele>
        <time>2023-07-25T11:35:18.000Z</time>
      </trkpt>
      <trkpt lat="42.70185" lon="1.22478">
        <ele>1812.5999755859</ele>
        <time>2023-07-25T11:35:23.000Z</time>
      </trkpt>
      <trkpt lat="42.70186" lon="1.22477">
        <ele>1812.8000488281</ele>
        <time>2023-07-25T11:35:25.000Z</time>
      </trkpt>
      <trkpt lat="42.70187" lon="1.22473">
        <ele>1813.4000244141</ele>
        <time>2023-07-25T11:35:32.000Z</time>
      </trkpt>
      <trkpt lat="42.70191" lon="1.22462">
        <ele>1813.5999755859</ele>
        <time>2023-07-25T11:35:42.000Z</time>
      </trkpt>
      <trkpt lat="42.70192" lon="1.22461">
        <ele>1813.8000488281</ele>
        <time>2023-07-25T11:35:43.000Z</time>
      </trkpt>
      <trkpt lat="42.70193" lon="1.22454">
        <ele>1814.8000488281</ele>
        <time>2023-07-25T11:35:52.000Z</time>
      </trkpt>
      <trkpt lat="42.70194" lon="1.2245">
        <ele>1815.8000488281</ele>
        <time>2023-07-25T11:35:58.000Z</time>
      </trkpt>
      <trkpt lat="42.70195" lon="1.22447">
        <ele>1816.5999755859</ele>
        <time>2023-07-25T11:36:02.000Z</time>
      </trkpt>
      <trkpt lat="42.70196" lon="1.22446">
        <ele>1817.1999511719</ele>
        <time>2023-07-25T11:36:05.000Z</time>
      </trkpt>
      <trkpt lat="42.70198" lon="1.22442">
        <ele>1817.8000488281</ele>
        <time>2023-07-25T11:36:09.000Z</time>
      </trkpt>
      <trkpt lat="42.70199" lon="1.2244">
        <ele>1818.1999511719</ele>
        <time>2023-07-25T11:36:11.000Z</time>
      </trkpt>
      <trkpt lat="42.70202" lon="1.22433">
        <ele>1818.8000488281</ele>
        <time>2023-07-25T11:36:17.000Z</time>
      </trkpt>
      <trkpt lat="42.70203" lon="1.22431">
        <ele>1819.1999511719</ele>
        <time>2023-07-25T11:36:20.000Z</time>
      </trkpt>
      <trkpt lat="42.70206" lon="1.22426">
        <ele>1820.4000244141</ele>
        <time>2023-07-25T11:36:25.000Z</time>
      </trkpt>
      <trkpt lat="42.70207" lon="1.22424">
        <ele>1820.5999755859</ele>
        <time>2023-07-25T11:36:27.000Z</time>
      </trkpt>
      <trkpt lat="42.70206" lon="1.22418">
        <ele>1821.4000244141</ele>
        <time>2023-07-25T11:36:33.000Z</time>
      </trkpt>
      <trkpt lat="42.70206" lon="1.22416">
        <ele>1821.4000244141</ele>
        <time>2023-07-25T11:36:35.000Z</time>
      </trkpt>
      <trkpt lat="42.70207" lon="1.22409">
        <ele>1821.4000244141</ele>
        <time>2023-07-25T11:36:43.000Z</time>
      </trkpt>
      <trkpt lat="42.70206" lon="1.22405">
        <ele>1821.8000488281</ele>
        <time>2023-07-25T11:36:51.000Z</time>
      </trkpt>
      <trkpt lat="42.70205" lon="1.224">
        <ele>1822.4000244141</ele>
        <time>2023-07-25T11:36:55.000Z</time>
      </trkpt>
      <trkpt lat="42.70206" lon="1.22395">
        <ele>1823</ele>
        <time>2023-07-25T11:37:00.000Z</time>
      </trkpt>
      <trkpt lat="42.70208" lon="1.22391">
        <ele>1823.4000244141</ele>
        <time>2023-07-25T11:37:03.000Z</time>
      </trkpt>
      <trkpt lat="42.70209" lon="1.22387">
        <ele>1824.1999511719</ele>
        <time>2023-07-25T11:37:07.000Z</time>
      </trkpt>
      <trkpt lat="42.7021" lon="1.22385">
        <ele>1824.5999755859</ele>
        <time>2023-07-25T11:37:09.000Z</time>
      </trkpt>
      <trkpt lat="42.70211" lon="1.2238">
        <ele>1825.1999511719</ele>
        <time>2023-07-25T11:37:14.000Z</time>
      </trkpt>
      <trkpt lat="42.70212" lon="1.22373">
        <ele>1825.5999755859</ele>
        <time>2023-07-25T11:37:20.000Z</time>
      </trkpt>
      <trkpt lat="42.70212" lon="1.22372">
        <ele>1825.5999755859</ele>
        <time>2023-07-25T11:37:21.000Z</time>
      </trkpt>
      <trkpt lat="42.70214" lon="1.22363">
        <ele>1826.1999511719</ele>
        <time>2023-07-25T11:37:29.000Z</time>
      </trkpt>
      <trkpt lat="42.70215" lon="1.22347">
        <ele>1826.8000488281</ele>
        <time>2023-07-25T11:37:38.000Z</time>
      </trkpt>
      <trkpt lat="42.70216" lon="1.22346">
        <ele>1826.8000488281</ele>
        <time>2023-07-25T11:37:39.000Z</time>
      </trkpt>
      <trkpt lat="42.70218" lon="1.22339">
        <ele>1827.8000488281</ele>
        <time>2023-07-25T11:37:47.000Z</time>
      </trkpt>
      <trkpt lat="42.70218" lon="1.22339">
        <ele>1828.1999511719</ele>
        <time>2023-07-25T11:37:48.000Z</time>
      </trkpt>
      <trkpt lat="42.70221" lon="1.22334">
        <ele>1829</ele>
        <time>2023-07-25T11:37:53.000Z</time>
      </trkpt>
      <trkpt lat="42.70222" lon="1.22333">
        <ele>1829.5999755859</ele>
        <time>2023-07-25T11:37:55.000Z</time>
      </trkpt>
      <trkpt lat="42.70223" lon="1.22333">
        <ele>1830.1999511719</ele>
        <time>2023-07-25T11:37:56.000Z</time>
      </trkpt>
      <trkpt lat="42.70224" lon="1.22329">
        <ele>1830.4000244141</ele>
        <time>2023-07-25T11:38:02.000Z</time>
      </trkpt>
      <trkpt lat="42.70226" lon="1.22325">
        <ele>1830.5999755859</ele>
        <time>2023-07-25T11:38:08.000Z</time>
      </trkpt>
      <trkpt lat="42.70229" lon="1.22321">
        <ele>1831.1999511719</ele>
        <time>2023-07-25T11:38:13.000Z</time>
      </trkpt>
      <trkpt lat="42.7023" lon="1.22319">
        <ele>1831.4000244141</ele>
        <time>2023-07-25T11:38:15.000Z</time>
      </trkpt>
      <trkpt lat="42.70235" lon="1.22315">
        <ele>1832.1999511719</ele>
        <time>2023-07-25T11:38:22.000Z</time>
      </trkpt>
      <trkpt lat="42.70235" lon="1.22315">
        <ele>1832.4000244141</ele>
        <time>2023-07-25T11:38:23.000Z</time>
      </trkpt>
      <trkpt lat="42.70238" lon="1.22311">
        <ele>1833.5999755859</ele>
        <time>2023-07-25T11:38:28.000Z</time>
      </trkpt>
      <trkpt lat="42.70238" lon="1.22309">
        <ele>1834</ele>
        <time>2023-07-25T11:38:30.000Z</time>
      </trkpt>
      <trkpt lat="42.70238" lon="1.22305">
        <ele>1834.8000488281</ele>
        <time>2023-07-25T11:38:33.000Z</time>
      </trkpt>
      <trkpt lat="42.70239" lon="1.22299">
        <ele>1835.1999511719</ele>
        <time>2023-07-25T11:38:37.000Z</time>
      </trkpt>
      <trkpt lat="42.70242" lon="1.22291">
        <ele>1835</ele>
        <time>2023-07-25T11:38:44.000Z</time>
      </trkpt>
      <trkpt lat="42.70241" lon="1.22285">
        <ele>1835.4000244141</ele>
        <time>2023-07-25T11:38:52.000Z</time>
      </trkpt>
      <trkpt lat="42.70242" lon="1.22282">
        <ele>1836.1999511719</ele>
        <time>2023-07-25T11:38:58.000Z</time>
      </trkpt>
      <trkpt lat="42.70244" lon="1.2228">
        <ele>1836.8000488281</ele>
        <time>2023-07-25T11:39:01.000Z</time>
      </trkpt>
      <trkpt lat="42.70245" lon="1.22278">
        <ele>1837.1999511719</ele>
        <time>2023-07-25T11:39:03.000Z</time>
      </trkpt>
      <trkpt lat="42.70247" lon="1.22275">
        <ele>1837.5999755859</ele>
        <time>2023-07-25T11:39:09.000Z</time>
      </trkpt>
      <trkpt lat="42.70249" lon="1.22271">
        <ele>1838.1999511719</ele>
        <time>2023-07-25T11:39:14.000Z</time>
      </trkpt>
      <trkpt lat="42.70251" lon="1.22268">
        <ele>1838.5999755859</ele>
        <time>2023-07-25T11:39:17.000Z</time>
      </trkpt>
      <trkpt lat="42.70251" lon="1.22262">
        <ele>1839.1999511719</ele>
        <time>2023-07-25T11:39:22.000Z</time>
      </trkpt>
      <trkpt lat="42.70251" lon="1.22261">
        <ele>1839.5999755859</ele>
        <time>2023-07-25T11:39:25.000Z</time>
      </trkpt>
      <trkpt lat="42.70248" lon="1.22253">
        <ele>1838.5999755859</ele>
        <time>2023-07-25T11:39:33.000Z</time>
      </trkpt>
      <trkpt lat="42.70253" lon="1.22239">
        <ele>1838.8000488281</ele>
        <time>2023-07-25T11:39:43.000Z</time>
      </trkpt>
      <trkpt lat="42.70256" lon="1.22233">
        <ele>1840.4000244141</ele>
        <time>2023-07-25T11:39:50.000Z</time>
      </trkpt>
      <trkpt lat="42.70255" lon="1.22229">
        <ele>1840.5999755859</ele>
        <time>2023-07-25T11:39:58.000Z</time>
      </trkpt>
      <trkpt lat="42.70252" lon="1.22224">
        <ele>1840.4000244141</ele>
        <time>2023-07-25T11:40:04.000Z</time>
      </trkpt>
      <trkpt lat="42.70251" lon="1.22214">
        <ele>1839.1999511719</ele>
        <time>2023-07-25T11:40:12.000Z</time>
      </trkpt>
      <trkpt lat="42.70253" lon="1.22201">
        <ele>1839</ele>
        <time>2023-07-25T11:40:22.000Z</time>
      </trkpt>
      <trkpt lat="42.70253" lon="1.22194">
        <ele>1839.4000244141</ele>
        <time>2023-07-25T11:40:30.000Z</time>
      </trkpt>
      <trkpt lat="42.70254" lon="1.22187">
        <ele>1840.1999511719</ele>
        <time>2023-07-25T11:40:38.000Z</time>
      </trkpt>
      <trkpt lat="42.70256" lon="1.22183">
        <ele>1841.4000244141</ele>
        <time>2023-07-25T11:40:45.000Z</time>
      </trkpt>
      <trkpt lat="42.70256" lon="1.22181">
        <ele>1841.5999755859</ele>
        <time>2023-07-25T11:40:47.000Z</time>
      </trkpt>
      <trkpt lat="42.70255" lon="1.22169">
        <ele>1842.1999511719</ele>
        <time>2023-07-25T11:40:56.000Z</time>
      </trkpt>
      <trkpt lat="42.70257" lon="1.22162">
        <ele>1842.1999511719</ele>
        <time>2023-07-25T11:41:02.000Z</time>
      </trkpt>
      <trkpt lat="42.70256" lon="1.2216">
        <ele>1842.4000244141</ele>
        <time>2023-07-25T11:41:07.000Z</time>
      </trkpt>
      <trkpt lat="42.70255" lon="1.22159">
        <ele>1842.8000488281</ele>
        <time>2023-07-25T11:41:09.000Z</time>
      </trkpt>
      <trkpt lat="42.70254" lon="1.22155">
        <ele>1843.4000244141</ele>
        <time>2023-07-25T11:41:13.000Z</time>
      </trkpt>
      <trkpt lat="42.70254" lon="1.22151">
        <ele>1844</ele>
        <time>2023-07-25T11:41:16.000Z</time>
      </trkpt>
      <trkpt lat="42.70253" lon="1.22144">
        <ele>1844.5999755859</ele>
        <time>2023-07-25T11:41:22.000Z</time>
      </trkpt>
      <trkpt lat="42.70253" lon="1.22142">
        <ele>1844.5999755859</ele>
        <time>2023-07-25T11:41:24.000Z</time>
      </trkpt>
      <trkpt lat="42.70249" lon="1.22133">
        <ele>1844.4000244141</ele>
        <time>2023-07-25T11:41:32.000Z</time>
      </trkpt>
      <trkpt lat="42.70249" lon="1.22122">
        <ele>1844.4000244141</ele>
        <time>2023-07-25T11:41:38.000Z</time>
      </trkpt>
      <trkpt lat="42.7025" lon="1.22115">
        <ele>1844.8000488281</ele>
        <time>2023-07-25T11:41:46.000Z</time>
      </trkpt>
      <trkpt lat="42.70252" lon="1.22114">
        <ele>1845.4000244141</ele>
        <time>2023-07-25T11:41:52.000Z</time>
      </trkpt>
      <trkpt lat="42.70251" lon="1.22113">
        <ele>1845.5999755859</ele>
        <time>2023-07-25T11:41:55.000Z</time>
      </trkpt>
      <trkpt lat="42.70253" lon="1.22106">
        <ele>1845.8000488281</ele>
        <time>2023-07-25T11:41:59.000Z</time>
      </trkpt>
      <trkpt lat="42.70254" lon="1.22097">
        <ele>1846.5999755859</ele>
        <time>2023-07-25T11:42:07.000Z</time>
      </trkpt>
      <trkpt lat="42.70254" lon="1.22088">
        <ele>1847.4000244141</ele>
        <time>2023-07-25T11:42:16.000Z</time>
      </trkpt>
      <trkpt lat="42.70255" lon="1.22082">
        <ele>1847.5999755859</ele>
        <time>2023-07-25T11:42:23.000Z</time>
      </trkpt>
      <trkpt lat="42.70256" lon="1.22078">
        <ele>1847.8000488281</ele>
        <time>2023-07-25T11:42:28.000Z</time>
      </trkpt>
      <trkpt lat="42.70257" lon="1.22079">
        <ele>1848</ele>
        <time>2023-07-25T11:42:31.000Z</time>
      </trkpt>
      <trkpt lat="42.70259" lon="1.2208">
        <ele>1848</ele>
        <time>2023-07-25T11:42:40.000Z</time>
      </trkpt>
      <trkpt lat="42.7026" lon="1.22082">
        <ele>1848</ele>
        <time>2023-07-25T11:42:49.000Z</time>
      </trkpt>
      <trkpt lat="42.70258" lon="1.22079">
        <ele>1848.1999511719</ele>
        <time>2023-07-25T11:42:57.000Z</time>
      </trkpt>
      <trkpt lat="42.70256" lon="1.22074">
        <ele>1848.1999511719</ele>
        <time>2023-07-25T11:43:02.000Z</time>
      </trkpt>
      <trkpt lat="42.70254" lon="1.22068">
        <ele>1848</ele>
        <time>2023-07-25T11:43:08.000Z</time>
      </trkpt>
      <trkpt lat="42.70255" lon="1.22059">
        <ele>1847.4000244141</ele>
        <time>2023-07-25T11:43:16.000Z</time>
      </trkpt>
      <trkpt lat="42.70256" lon="1.22055">
        <ele>1848</ele>
        <time>2023-07-25T11:43:22.000Z</time>
      </trkpt>
      <trkpt lat="42.70257" lon="1.2205">
        <ele>1849</ele>
        <time>2023-07-25T11:43:27.000Z</time>
      </trkpt>
      <trkpt lat="42.70258" lon="1.22046">
        <ele>1850</ele>
        <time>2023-07-25T11:43:33.000Z</time>
      </trkpt>
      <trkpt lat="42.70259" lon="1.22034">
        <ele>1850.5999755859</ele>
        <time>2023-07-25T11:43:42.000Z</time>
      </trkpt>
      <trkpt lat="42.7026" lon="1.22023">
        <ele>1851</ele>
        <time>2023-07-25T11:43:51.000Z</time>
      </trkpt>
      <trkpt lat="42.7026" lon="1.22023">
        <ele>1851.1999511719</ele>
        <time>2023-07-25T11:43:52.000Z</time>
      </trkpt>
      <trkpt lat="42.7026" lon="1.2202">
        <ele>1852.4000244141</ele>
        <time>2023-07-25T11:43:57.000Z</time>
      </trkpt>
      <trkpt lat="42.70259" lon="1.22018">
        <ele>1852.5999755859</ele>
        <time>2023-07-25T11:43:59.000Z</time>
      </trkpt>
      <trkpt lat="42.70261" lon="1.22009">
        <ele>1853.5999755859</ele>
        <time>2023-07-25T11:44:08.000Z</time>
      </trkpt>
      <trkpt lat="42.70261" lon="1.22009">
        <ele>1853.8000488281</ele>
        <time>2023-07-25T11:44:09.000Z</time>
      </trkpt>
      <trkpt lat="42.70262" lon="1.22005">
        <ele>1854.8000488281</ele>
        <time>2023-07-25T11:44:12.000Z</time>
      </trkpt>
      <trkpt lat="42.70264" lon="1.22">
        <ele>1855.1999511719</ele>
        <time>2023-07-25T11:44:18.000Z</time>
      </trkpt>
      <trkpt lat="42.70265" lon="1.21996">
        <ele>1854.1999511719</ele>
        <time>2023-07-25T11:44:23.000Z</time>
      </trkpt>
      <trkpt lat="42.70265" lon="1.21995">
        <ele>1853.5999755859</ele>
        <time>2023-07-25T11:44:25.000Z</time>
      </trkpt>
      <trkpt lat="42.70264" lon="1.21993">
        <ele>1852.5999755859</ele>
        <time>2023-07-25T11:44:29.000Z</time>
      </trkpt>
      <trkpt lat="42.70264" lon="1.21992">
        <ele>1851.8000488281</ele>
        <time>2023-07-25T11:44:32.000Z</time>
      </trkpt>
      <trkpt lat="42.70263" lon="1.21982">
        <ele>1851.5999755859</ele>
        <time>2023-07-25T11:44:40.000Z</time>
      </trkpt>
      <trkpt lat="42.70263" lon="1.21981">
        <ele>1851.4000244141</ele>
        <time>2023-07-25T11:44:41.000Z</time>
      </trkpt>
      <trkpt lat="42.70263" lon="1.21971">
        <ele>1850.4000244141</ele>
        <time>2023-07-25T11:44:46.000Z</time>
      </trkpt>
      <trkpt lat="42.70263" lon="1.21966">
        <ele>1850.4000244141</ele>
        <time>2023-07-25T11:44:49.000Z</time>
      </trkpt>
      <trkpt lat="42.70264" lon="1.2196">
        <ele>1850</ele>
        <time>2023-07-25T11:44:55.000Z</time>
      </trkpt>
      <trkpt lat="42.70264" lon="1.21956">
        <ele>1849.4000244141</ele>
        <time>2023-07-25T11:44:59.000Z</time>
      </trkpt>
      <trkpt lat="42.70265" lon="1.2195">
        <ele>1849.1999511719</ele>
        <time>2023-07-25T11:45:03.000Z</time>
      </trkpt>
      <trkpt lat="42.70267" lon="1.2194">
        <ele>1848.8000488281</ele>
        <time>2023-07-25T11:45:11.000Z</time>
      </trkpt>
      <trkpt lat="42.70268" lon="1.21933">
        <ele>1848.5999755859</ele>
        <time>2023-07-25T11:45:18.000Z</time>
      </trkpt>
      <trkpt lat="42.70269" lon="1.21928">
        <ele>1848.4000244141</ele>
        <time>2023-07-25T11:45:21.000Z</time>
      </trkpt>
      <trkpt lat="42.7027" lon="1.2192">
        <ele>1848</ele>
        <time>2023-07-25T11:45:27.000Z</time>
      </trkpt>
      <trkpt lat="42.70274" lon="1.21911">
        <ele>1848.4000244141</ele>
        <time>2023-07-25T11:45:35.000Z</time>
      </trkpt>
      <trkpt lat="42.70277" lon="1.21903">
        <ele>1849.4000244141</ele>
        <time>2023-07-25T11:45:42.000Z</time>
      </trkpt>
      <trkpt lat="42.70278" lon="1.21901">
        <ele>1849.5999755859</ele>
        <time>2023-07-25T11:45:44.000Z</time>
      </trkpt>
      <trkpt lat="42.7028" lon="1.21891">
        <ele>1849.5999755859</ele>
        <time>2023-07-25T11:45:52.000Z</time>
      </trkpt>
      <trkpt lat="42.7028" lon="1.21882">
        <ele>1849</ele>
        <time>2023-07-25T11:46:00.000Z</time>
      </trkpt>
      <trkpt lat="42.70283" lon="1.21874">
        <ele>1848.8000488281</ele>
        <time>2023-07-25T11:46:07.000Z</time>
      </trkpt>
      <trkpt lat="42.70284" lon="1.21869">
        <ele>1849</ele>
        <time>2023-07-25T11:46:12.000Z</time>
      </trkpt>
      <trkpt lat="42.70287" lon="1.21865">
        <ele>1849.5999755859</ele>
        <time>2023-07-25T11:46:18.000Z</time>
      </trkpt>
      <trkpt lat="42.70291" lon="1.2186">
        <ele>1850.4000244141</ele>
        <time>2023-07-25T11:46:24.000Z</time>
      </trkpt>
      <trkpt lat="42.70291" lon="1.2186">
        <ele>1850.5999755859</ele>
        <time>2023-07-25T11:46:25.000Z</time>
      </trkpt>
      <trkpt lat="42.70295" lon="1.21854">
        <ele>1851.5999755859</ele>
        <time>2023-07-25T11:46:31.000Z</time>
      </trkpt>
      <trkpt lat="42.70295" lon="1.21853">
        <ele>1851.5999755859</ele>
        <time>2023-07-25T11:46:32.000Z</time>
      </trkpt>
      <trkpt lat="42.70296" lon="1.21846">
        <ele>1852.8000488281</ele>
        <time>2023-07-25T11:46:40.000Z</time>
      </trkpt>
      <trkpt lat="42.70297" lon="1.21843">
        <ele>1854</ele>
        <time>2023-07-25T11:46:43.000Z</time>
      </trkpt>
      <trkpt lat="42.703" lon="1.21837">
        <ele>1853.8000488281</ele>
        <time>2023-07-25T11:46:48.000Z</time>
      </trkpt>
      <trkpt lat="42.70301" lon="1.21834">
        <ele>1854.4000244141</ele>
        <time>2023-07-25T11:46:55.000Z</time>
      </trkpt>
      <trkpt lat="42.70302" lon="1.21832">
        <ele>1855</ele>
        <time>2023-07-25T11:46:58.000Z</time>
      </trkpt>
      <trkpt lat="42.70306" lon="1.21828">
        <ele>1855.5999755859</ele>
        <time>2023-07-25T11:47:04.000Z</time>
      </trkpt>
      <trkpt lat="42.70308" lon="1.21824">
        <ele>1855.4000244141</ele>
        <time>2023-07-25T11:47:11.000Z</time>
      </trkpt>
      <trkpt lat="42.70311" lon="1.21813">
        <ele>1855.8000488281</ele>
        <time>2023-07-25T11:47:19.000Z</time>
      </trkpt>
      <trkpt lat="42.70312" lon="1.2181">
        <ele>1856</ele>
        <time>2023-07-25T11:47:22.000Z</time>
      </trkpt>
      <trkpt lat="42.70315" lon="1.21807">
        <ele>1856.4000244141</ele>
        <time>2023-07-25T11:47:25.000Z</time>
      </trkpt>
      <trkpt lat="42.70319" lon="1.21797">
        <ele>1856.5999755859</ele>
        <time>2023-07-25T11:47:34.000Z</time>
      </trkpt>
      <trkpt lat="42.70322" lon="1.21794">
        <ele>1856.5999755859</ele>
        <time>2023-07-25T11:47:41.000Z</time>
      </trkpt>
      <trkpt lat="42.70324" lon="1.21789">
        <ele>1855.4000244141</ele>
        <time>2023-07-25T11:47:49.000Z</time>
      </trkpt>
      <trkpt lat="42.70325" lon="1.2179">
        <ele>1855</ele>
        <time>2023-07-25T11:47:52.000Z</time>
      </trkpt>
      <trkpt lat="42.70323" lon="1.21785">
        <ele>1854.5999755859</ele>
        <time>2023-07-25T11:48:03.000Z</time>
      </trkpt>
      <trkpt lat="42.70323" lon="1.21784">
        <ele>1854.5999755859</ele>
        <time>2023-07-25T11:48:10.000Z</time>
      </trkpt>
      <trkpt lat="42.70321" lon="1.21783">
        <ele>1854.1999511719</ele>
        <time>2023-07-25T11:48:21.000Z</time>
      </trkpt>
      <trkpt lat="42.70323" lon="1.21784">
        <ele>1854.4000244141</ele>
        <time>2023-07-25T11:48:29.000Z</time>
      </trkpt>
      <trkpt lat="42.70324" lon="1.21784">
        <ele>1854.4000244141</ele>
        <time>2023-07-25T11:48:36.000Z</time>
      </trkpt>
      <trkpt lat="42.70324" lon="1.21784">
        <ele>1854.4000244141</ele>
        <time>2023-07-25T11:48:43.000Z</time>
      </trkpt>
      <trkpt lat="42.70324" lon="1.21787">
        <ele>1855</ele>
        <time>2023-07-25T11:48:52.000Z</time>
      </trkpt>
      <trkpt lat="42.70325" lon="1.21784">
        <ele>1855.1999511719</ele>
        <time>2023-07-25T11:49:00.000Z</time>
      </trkpt>
      <trkpt lat="42.70323" lon="1.21786">
        <ele>1854.5999755859</ele>
        <time>2023-07-25T11:49:09.000Z</time>
      </trkpt>
      <trkpt lat="42.70325" lon="1.21789">
        <ele>1855</ele>
        <time>2023-07-25T11:49:20.000Z</time>
      </trkpt>
      <trkpt lat="42.70325" lon="1.21787">
        <ele>1854.5999755859</ele>
        <time>2023-07-25T11:49:30.000Z</time>
      </trkpt>
      <trkpt lat="42.70323" lon="1.21786">
        <ele>1854.8000488281</ele>
        <time>2023-07-25T11:49:37.000Z</time>
      </trkpt>
      <trkpt lat="42.70321" lon="1.21778">
        <ele>1854.8000488281</ele>
        <time>2023-07-25T11:49:47.000Z</time>
      </trkpt>
      <trkpt lat="42.70321" lon="1.21771">
        <ele>1854.1999511719</ele>
        <time>2023-07-25T11:49:55.000Z</time>
      </trkpt>
      <trkpt lat="42.70321" lon="1.2177">
        <ele>1854</ele>
        <time>2023-07-25T11:49:57.000Z</time>
      </trkpt>
      <trkpt lat="42.70321" lon="1.21764">
        <ele>1854.1999511719</ele>
        <time>2023-07-25T11:50:03.000Z</time>
      </trkpt>
      <trkpt lat="42.70321" lon="1.21761">
        <ele>1855</ele>
        <time>2023-07-25T11:50:05.000Z</time>
      </trkpt>
      <trkpt lat="42.70322" lon="1.21755">
        <ele>1855.5999755859</ele>
        <time>2023-07-25T11:50:10.000Z</time>
      </trkpt>
      <trkpt lat="42.70324" lon="1.2175">
        <ele>1856.1999511719</ele>
        <time>2023-07-25T11:50:14.000Z</time>
      </trkpt>
      <trkpt lat="42.70325" lon="1.21749">
        <ele>1856.8000488281</ele>
        <time>2023-07-25T11:50:16.000Z</time>
      </trkpt>
      <trkpt lat="42.70326" lon="1.21748">
        <ele>1857.1999511719</ele>
        <time>2023-07-25T11:50:18.000Z</time>
      </trkpt>
      <trkpt lat="42.7033" lon="1.21744">
        <ele>1858</ele>
        <time>2023-07-25T11:50:24.000Z</time>
      </trkpt>
      <trkpt lat="42.70331" lon="1.21743">
        <ele>1858.4000244141</ele>
        <time>2023-07-25T11:50:26.000Z</time>
      </trkpt>
      <trkpt lat="42.70335" lon="1.21739">
        <ele>1859.5999755859</ele>
        <time>2023-07-25T11:50:32.000Z</time>
      </trkpt>
      <trkpt lat="42.70336" lon="1.21738">
        <ele>1859.8000488281</ele>
        <time>2023-07-25T11:50:33.000Z</time>
      </trkpt>
      <trkpt lat="42.70337" lon="1.21735">
        <ele>1860.5999755859</ele>
        <time>2023-07-25T11:50:36.000Z</time>
      </trkpt>
      <trkpt lat="42.7034" lon="1.21729">
        <ele>1860.8000488281</ele>
        <time>2023-07-25T11:50:40.000Z</time>
      </trkpt>
      <trkpt lat="42.70342" lon="1.21721">
        <ele>1860.4000244141</ele>
        <time>2023-07-25T11:50:47.000Z</time>
      </trkpt>
      <trkpt lat="42.70346" lon="1.21712">
        <ele>1860.8000488281</ele>
        <time>2023-07-25T11:50:55.000Z</time>
      </trkpt>
      <trkpt lat="42.70351" lon="1.21708">
        <ele>1861.8000488281</ele>
        <time>2023-07-25T11:51:01.000Z</time>
      </trkpt>
      <trkpt lat="42.70352" lon="1.21706">
        <ele>1862</ele>
        <time>2023-07-25T11:51:03.000Z</time>
      </trkpt>
      <trkpt lat="42.70354" lon="1.21702">
        <ele>1862.8000488281</ele>
        <time>2023-07-25T11:51:07.000Z</time>
      </trkpt>
      <trkpt lat="42.70355" lon="1.21699">
        <ele>1863</ele>
        <time>2023-07-25T11:51:10.000Z</time>
      </trkpt>
      <trkpt lat="42.70359" lon="1.21692">
        <ele>1863.5999755859</ele>
        <time>2023-07-25T11:51:17.000Z</time>
      </trkpt>
      <trkpt lat="42.70359" lon="1.21691">
        <ele>1864</ele>
        <time>2023-07-25T11:51:19.000Z</time>
      </trkpt>
      <trkpt lat="42.70363" lon="1.21686">
        <ele>1864.8000488281</ele>
        <time>2023-07-25T11:51:25.000Z</time>
      </trkpt>
      <trkpt lat="42.70366" lon="1.21682">
        <ele>1865.1999511719</ele>
        <time>2023-07-25T11:51:30.000Z</time>
      </trkpt>
      <trkpt lat="42.70367" lon="1.21679">
        <ele>1865.4000244141</ele>
        <time>2023-07-25T11:51:32.000Z</time>
      </trkpt>
      <trkpt lat="42.70369" lon="1.2167">
        <ele>1865.8000488281</ele>
        <time>2023-07-25T11:51:39.000Z</time>
      </trkpt>
      <trkpt lat="42.7037" lon="1.2167">
        <ele>1865.5999755859</ele>
        <time>2023-07-25T11:51:45.000Z</time>
      </trkpt>
      <trkpt lat="42.7037" lon="1.2167">
        <ele>1865.4000244141</ele>
        <time>2023-07-25T11:51:47.000Z</time>
      </trkpt>
      <trkpt lat="42.7037" lon="1.21665">
        <ele>1865.5999755859</ele>
        <time>2023-07-25T11:51:54.000Z</time>
      </trkpt>
      <trkpt lat="42.70373" lon="1.21657">
        <ele>1864.8000488281</ele>
        <time>2023-07-25T11:52:03.000Z</time>
      </trkpt>
      <trkpt lat="42.70375" lon="1.21654">
        <ele>1864</ele>
        <time>2023-07-25T11:52:08.000Z</time>
      </trkpt>
      <trkpt lat="42.70376" lon="1.21653">
        <ele>1863.5999755859</ele>
        <time>2023-07-25T11:52:10.000Z</time>
      </trkpt>
      <trkpt lat="42.70378" lon="1.21646">
        <ele>1863</ele>
        <time>2023-07-25T11:52:15.000Z</time>
      </trkpt>
      <trkpt lat="42.70379" lon="1.21643">
        <ele>1862.5999755859</ele>
        <time>2023-07-25T11:52:17.000Z</time>
      </trkpt>
      <trkpt lat="42.70383" lon="1.21636">
        <ele>1863.1999511719</ele>
        <time>2023-07-25T11:52:24.000Z</time>
      </trkpt>
      <trkpt lat="42.70385" lon="1.21633">
        <ele>1864</ele>
        <time>2023-07-25T11:52:29.000Z</time>
      </trkpt>
      <trkpt lat="42.70387" lon="1.2163">
        <ele>1865</ele>
        <time>2023-07-25T11:52:33.000Z</time>
      </trkpt>
      <trkpt lat="42.70387" lon="1.21629">
        <ele>1865.1999511719</ele>
        <time>2023-07-25T11:52:34.000Z</time>
      </trkpt>
      <trkpt lat="42.70392" lon="1.21623">
        <ele>1866</ele>
        <time>2023-07-25T11:52:41.000Z</time>
      </trkpt>
      <trkpt lat="42.70396" lon="1.21622">
        <ele>1866.1999511719</ele>
        <time>2023-07-25T11:52:45.000Z</time>
      </trkpt>
      <trkpt lat="42.704" lon="1.2162">
        <ele>1866.5999755859</ele>
        <time>2023-07-25T11:52:48.000Z</time>
      </trkpt>
      <trkpt lat="42.70402" lon="1.2162">
        <ele>1867.1999511719</ele>
        <time>2023-07-25T11:52:51.000Z</time>
      </trkpt>
      <trkpt lat="42.70406" lon="1.21617">
        <ele>1867.5999755859</ele>
        <time>2023-07-25T11:52:56.000Z</time>
      </trkpt>
      <trkpt lat="42.70408" lon="1.21608">
        <ele>1868</ele>
        <time>2023-07-25T11:53:02.000Z</time>
      </trkpt>
      <trkpt lat="42.70409" lon="1.21606">
        <ele>1868.1999511719</ele>
        <time>2023-07-25T11:53:04.000Z</time>
      </trkpt>
      <trkpt lat="42.70413" lon="1.216">
        <ele>1869</ele>
        <time>2023-07-25T11:53:09.000Z</time>
      </trkpt>
      <trkpt lat="42.70415" lon="1.21598">
        <ele>1869.4000244141</ele>
        <time>2023-07-25T11:53:13.000Z</time>
      </trkpt>
      <trkpt lat="42.70416" lon="1.21595">
        <ele>1869.8000488281</ele>
        <time>2023-07-25T11:53:16.000Z</time>
      </trkpt>
      <trkpt lat="42.70417" lon="1.21592">
        <ele>1870.4000244141</ele>
        <time>2023-07-25T11:53:19.000Z</time>
      </trkpt>
      <trkpt lat="42.70417" lon="1.21588">
        <ele>1870.5999755859</ele>
        <time>2023-07-25T11:53:23.000Z</time>
      </trkpt>
      <trkpt lat="42.70418" lon="1.21581">
        <ele>1871.5999755859</ele>
        <time>2023-07-25T11:53:29.000Z</time>
      </trkpt>
      <trkpt lat="42.70419" lon="1.21577">
        <ele>1871.8000488281</ele>
        <time>2023-07-25T11:53:31.000Z</time>
      </trkpt>
      <trkpt lat="42.70423" lon="1.21568">
        <ele>1872.4000244141</ele>
        <time>2023-07-25T11:53:38.000Z</time>
      </trkpt>
      <trkpt lat="42.70424" lon="1.21567">
        <ele>1872.5999755859</ele>
        <time>2023-07-25T11:53:40.000Z</time>
      </trkpt>
      <trkpt lat="42.70427" lon="1.21564">
        <ele>1872.8000488281</ele>
        <time>2023-07-25T11:53:45.000Z</time>
      </trkpt>
      <trkpt lat="42.70428" lon="1.2156">
        <ele>1873.5999755859</ele>
        <time>2023-07-25T11:53:50.000Z</time>
      </trkpt>
      <trkpt lat="42.70431" lon="1.21557">
        <ele>1874.1999511719</ele>
        <time>2023-07-25T11:53:53.000Z</time>
      </trkpt>
      <trkpt lat="42.70432" lon="1.21554">
        <ele>1874.8000488281</ele>
        <time>2023-07-25T11:53:57.000Z</time>
      </trkpt>
      <trkpt lat="42.70434" lon="1.2155">
        <ele>1875.8000488281</ele>
        <time>2023-07-25T11:54:02.000Z</time>
      </trkpt>
      <trkpt lat="42.70435" lon="1.21548">
        <ele>1876</ele>
        <time>2023-07-25T11:54:04.000Z</time>
      </trkpt>
      <trkpt lat="42.70436" lon="1.21543">
        <ele>1876.1999511719</ele>
        <time>2023-07-25T11:54:10.000Z</time>
      </trkpt>
      <trkpt lat="42.70438" lon="1.21535">
        <ele>1876</ele>
        <time>2023-07-25T11:54:18.000Z</time>
      </trkpt>
      <trkpt lat="42.70437" lon="1.21525">
        <ele>1875.8000488281</ele>
        <time>2023-07-25T11:54:25.000Z</time>
      </trkpt>
      <trkpt lat="42.70438" lon="1.21516">
        <ele>1876</ele>
        <time>2023-07-25T11:54:31.000Z</time>
      </trkpt>
      <trkpt lat="42.70438" lon="1.21504">
        <ele>1876.5999755859</ele>
        <time>2023-07-25T11:54:39.000Z</time>
      </trkpt>
      <trkpt lat="42.70438" lon="1.21498">
        <ele>1876.1999511719</ele>
        <time>2023-07-25T11:54:45.000Z</time>
      </trkpt>
      <trkpt lat="42.70437" lon="1.21488">
        <ele>1875.5999755859</ele>
        <time>2023-07-25T11:54:52.000Z</time>
      </trkpt>
      <trkpt lat="42.70437" lon="1.21485">
        <ele>1875.4000244141</ele>
        <time>2023-07-25T11:54:57.000Z</time>
      </trkpt>
      <trkpt lat="42.70437" lon="1.21487">
        <ele>1875.4000244141</ele>
        <time>2023-07-25T11:54:58.000Z</time>
      </trkpt>
      <trkpt lat="42.70439" lon="1.21487">
        <ele>1875.4000244141</ele>
        <time>2023-07-25T11:55:02.000Z</time>
      </trkpt>
      <trkpt lat="42.70439" lon="1.21485">
        <ele>1875.5999755859</ele>
        <time>2023-07-25T11:55:04.000Z</time>
      </trkpt>
      <trkpt lat="42.70442" lon="1.21475">
        <ele>1875.8000488281</ele>
        <time>2023-07-25T11:55:10.000Z</time>
      </trkpt>
      <trkpt lat="42.70445" lon="1.21468">
        <ele>1876</ele>
        <time>2023-07-25T11:55:17.000Z</time>
      </trkpt>
      <trkpt lat="42.70452" lon="1.21462">
        <ele>1876.5999755859</ele>
        <time>2023-07-25T11:55:24.000Z</time>
      </trkpt>
      <trkpt lat="42.70453" lon="1.21455">
        <ele>1876.1999511719</ele>
        <time>2023-07-25T11:55:31.000Z</time>
      </trkpt>
      <trkpt lat="42.70453" lon="1.21454">
        <ele>1875.8000488281</ele>
        <time>2023-07-25T11:55:37.000Z</time>
      </trkpt>
      <trkpt lat="42.70453" lon="1.21454">
        <ele>1875.5999755859</ele>
        <time>2023-07-25T11:55:39.000Z</time>
      </trkpt>
      <trkpt lat="42.70456" lon="1.21452">
        <ele>1875.5999755859</ele>
        <time>2023-07-25T11:55:46.000Z</time>
      </trkpt>
      <trkpt lat="42.70464" lon="1.21453">
        <ele>1876.5999755859</ele>
        <time>2023-07-25T11:55:55.000Z</time>
      </trkpt>
      <trkpt lat="42.70468" lon="1.2145">
        <ele>1877</ele>
        <time>2023-07-25T11:56:02.000Z</time>
      </trkpt>
      <trkpt lat="42.70469" lon="1.2145">
        <ele>1877</ele>
        <time>2023-07-25T11:56:03.000Z</time>
      </trkpt>
      <trkpt lat="42.70472" lon="1.21446">
        <ele>1876.5999755859</ele>
        <time>2023-07-25T11:56:10.000Z</time>
      </trkpt>
      <trkpt lat="42.70476" lon="1.2144">
        <ele>1876.4000244141</ele>
        <time>2023-07-25T11:56:16.000Z</time>
      </trkpt>
      <trkpt lat="42.70482" lon="1.21433">
        <ele>1877</ele>
        <time>2023-07-25T11:56:25.000Z</time>
      </trkpt>
      <trkpt lat="42.70488" lon="1.21428">
        <ele>1876.8000488281</ele>
        <time>2023-07-25T11:56:34.000Z</time>
      </trkpt>
      <trkpt lat="42.70488" lon="1.21423">
        <ele>1876.1999511719</ele>
        <time>2023-07-25T11:56:39.000Z</time>
      </trkpt>
      <trkpt lat="42.70488" lon="1.21413">
        <ele>1876.5999755859</ele>
        <time>2023-07-25T11:56:45.000Z</time>
      </trkpt>
      <trkpt lat="42.70492" lon="1.21407">
        <ele>1876.5999755859</ele>
        <time>2023-07-25T11:56:52.000Z</time>
      </trkpt>
      <trkpt lat="42.70496" lon="1.21402">
        <ele>1877.4000244141</ele>
        <time>2023-07-25T11:56:59.000Z</time>
      </trkpt>
      <trkpt lat="42.70496" lon="1.214">
        <ele>1878.1999511719</ele>
        <time>2023-07-25T11:57:01.000Z</time>
      </trkpt>
      <trkpt lat="42.70498" lon="1.21393">
        <ele>1878.5999755859</ele>
        <time>2023-07-25T11:57:06.000Z</time>
      </trkpt>
      <trkpt lat="42.70499" lon="1.21382">
        <ele>1878.4000244141</ele>
        <time>2023-07-25T11:57:14.000Z</time>
      </trkpt>
      <trkpt lat="42.705" lon="1.21372">
        <ele>1877.5999755859</ele>
        <time>2023-07-25T11:57:22.000Z</time>
      </trkpt>
      <trkpt lat="42.70498" lon="1.21366">
        <ele>1877.1999511719</ele>
        <time>2023-07-25T11:57:30.000Z</time>
      </trkpt>
      <trkpt lat="42.70498" lon="1.21366">
        <ele>1877.1999511719</ele>
        <time>2023-07-25T11:57:31.000Z</time>
      </trkpt>
      <trkpt lat="42.70497" lon="1.21366">
        <ele>1877</ele>
        <time>2023-07-25T11:57:32.000Z</time>
      </trkpt>
      <trkpt lat="42.70494" lon="1.21362">
        <ele>1877</ele>
        <time>2023-07-25T11:57:40.000Z</time>
      </trkpt>
      <trkpt lat="42.70495" lon="1.21358">
        <ele>1877</ele>
        <time>2023-07-25T11:57:51.000Z</time>
      </trkpt>
      <trkpt lat="42.70497" lon="1.21361">
        <ele>1876.1999511719</ele>
        <time>2023-07-25T11:57:59.000Z</time>
      </trkpt>
      <trkpt lat="42.70499" lon="1.2136">
        <ele>1876.5999755859</ele>
        <time>2023-07-25T11:58:07.000Z</time>
      </trkpt>
      <trkpt lat="42.70498" lon="1.21362">
        <ele>1876.8000488281</ele>
        <time>2023-07-25T11:58:13.000Z</time>
      </trkpt>
      <trkpt lat="42.70496" lon="1.21369">
        <ele>1876.8000488281</ele>
        <time>2023-07-25T11:58:20.000Z</time>
      </trkpt>
      <trkpt lat="42.70497" lon="1.21369">
        <ele>1877.4000244141</ele>
        <time>2023-07-25T11:58:30.000Z</time>
      </trkpt>
      <trkpt lat="42.70498" lon="1.21366">
        <ele>1877.5999755859</ele>
        <time>2023-07-25T11:58:38.000Z</time>
      </trkpt>
      <trkpt lat="42.70498" lon="1.21364">
        <ele>1877.4000244141</ele>
        <time>2023-07-25T11:58:46.000Z</time>
      </trkpt>
      <trkpt lat="42.70502" lon="1.21366">
        <ele>1877.5999755859</ele>
        <time>2023-07-25T11:58:55.000Z</time>
      </trkpt>
      <trkpt lat="42.70503" lon="1.21369">
        <ele>1877.8000488281</ele>
        <time>2023-07-25T11:59:03.000Z</time>
      </trkpt>
      <trkpt lat="42.70504" lon="1.21368">
        <ele>1878</ele>
        <time>2023-07-25T11:59:10.000Z</time>
      </trkpt>
      <trkpt lat="42.70504" lon="1.21369">
        <ele>1878</ele>
        <time>2023-07-25T11:59:13.000Z</time>
      </trkpt>
      <trkpt lat="42.70502" lon="1.21374">
        <ele>1877.4000244141</ele>
        <time>2023-07-25T11:59:19.000Z</time>
      </trkpt>
      <trkpt lat="42.705" lon="1.21369">
        <ele>1877.1999511719</ele>
        <time>2023-07-25T11:59:26.000Z</time>
      </trkpt>
      <trkpt lat="42.705" lon="1.21363">
        <ele>1876.8000488281</ele>
        <time>2023-07-25T11:59:32.000Z</time>
      </trkpt>
      <trkpt lat="42.705" lon="1.21362">
        <ele>1877</ele>
        <time>2023-07-25T11:59:38.000Z</time>
      </trkpt>
      <trkpt lat="42.705" lon="1.21361">
        <ele>1876.4000244141</ele>
        <time>2023-07-25T11:59:45.000Z</time>
      </trkpt>
      <trkpt lat="42.70498" lon="1.21361">
        <ele>1876.5999755859</ele>
        <time>2023-07-25T11:59:55.000Z</time>
      </trkpt>
      <trkpt lat="42.70497" lon="1.2136">
        <ele>1877</ele>
        <time>2023-07-25T12:00:06.000Z</time>
      </trkpt>
      <trkpt lat="42.70499" lon="1.21362">
        <ele>1876.5999755859</ele>
        <time>2023-07-25T12:00:10.000Z</time>
      </trkpt>
      <trkpt lat="42.705" lon="1.21362">
        <ele>1876.8000488281</ele>
        <time>2023-07-25T12:00:18.000Z</time>
      </trkpt>
      <trkpt lat="42.70501" lon="1.21362">
        <ele>1876.8000488281</ele>
        <time>2023-07-25T12:00:27.000Z</time>
      </trkpt>
      <trkpt lat="42.70498" lon="1.21363">
        <ele>1876.1999511719</ele>
        <time>2023-07-25T12:00:36.000Z</time>
      </trkpt>
      <trkpt lat="42.70498" lon="1.21361">
        <ele>1876.5999755859</ele>
        <time>2023-07-25T12:00:46.000Z</time>
      </trkpt>
      <trkpt lat="42.70498" lon="1.21358">
        <ele>1876.5999755859</ele>
        <time>2023-07-25T12:00:52.000Z</time>
      </trkpt>
      <trkpt lat="42.70501" lon="1.21362">
        <ele>1876.8000488281</ele>
        <time>2023-07-25T12:01:00.000Z</time>
      </trkpt>
      <trkpt lat="42.70501" lon="1.21365">
        <ele>1877</ele>
        <time>2023-07-25T12:01:09.000Z</time>
      </trkpt>
      <trkpt lat="42.70501" lon="1.21362">
        <ele>1876.5999755859</ele>
        <time>2023-07-25T12:01:20.000Z</time>
      </trkpt>
      <trkpt lat="42.70501" lon="1.21361">
        <ele>1876.5999755859</ele>
        <time>2023-07-25T12:01:28.000Z</time>
      </trkpt>
      <trkpt lat="42.70498" lon="1.21359">
        <ele>1876.5999755859</ele>
        <time>2023-07-25T12:01:37.000Z</time>
      </trkpt>
      <trkpt lat="42.70496" lon="1.21358">
        <ele>1876.8000488281</ele>
        <time>2023-07-25T12:01:44.000Z</time>
      </trkpt>
      <trkpt lat="42.70497" lon="1.21352">
        <ele>1876.8000488281</ele>
        <time>2023-07-25T12:01:53.000Z</time>
      </trkpt>
      <trkpt lat="42.705" lon="1.21343">
        <ele>1877</ele>
        <time>2023-07-25T12:02:02.000Z</time>
      </trkpt>
      <trkpt lat="42.705" lon="1.21336">
        <ele>1876.5999755859</ele>
        <time>2023-07-25T12:02:08.000Z</time>
      </trkpt>
      <trkpt lat="42.70499" lon="1.21334">
        <ele>1876</ele>
        <time>2023-07-25T12:02:15.000Z</time>
      </trkpt>
      <trkpt lat="42.70498" lon="1.21329">
        <ele>1876</ele>
        <time>2023-07-25T12:02:20.000Z</time>
      </trkpt>
      <trkpt lat="42.70497" lon="1.2133">
        <ele>1876.4000244141</ele>
        <time>2023-07-25T12:02:30.000Z</time>
      </trkpt>
      <trkpt lat="42.70495" lon="1.21326">
        <ele>1876.1999511719</ele>
        <time>2023-07-25T12:02:37.000Z</time>
      </trkpt>
      <trkpt lat="42.70496" lon="1.2132">
        <ele>1876.5999755859</ele>
        <time>2023-07-25T12:02:44.000Z</time>
      </trkpt>
      <trkpt lat="42.70497" lon="1.21311">
        <ele>1877</ele>
        <time>2023-07-25T12:02:52.000Z</time>
      </trkpt>
      <trkpt lat="42.70493" lon="1.21303">
        <ele>1876.4000244141</ele>
        <time>2023-07-25T12:03:01.000Z</time>
      </trkpt>
      <trkpt lat="42.70492" lon="1.213">
        <ele>1875.8000488281</ele>
        <time>2023-07-25T12:03:04.000Z</time>
      </trkpt>
      <trkpt lat="42.70493" lon="1.21296">
        <ele>1875</ele>
        <time>2023-07-25T12:03:10.000Z</time>
      </trkpt>
      <trkpt lat="42.70493" lon="1.21296">
        <ele>1874.8000488281</ele>
        <time>2023-07-25T12:03:11.000Z</time>
      </trkpt>
      <trkpt lat="42.70491" lon="1.21296">
        <ele>1873.8000488281</ele>
        <time>2023-07-25T12:03:15.000Z</time>
      </trkpt>
      <trkpt lat="42.70491" lon="1.21294">
        <ele>1873.8000488281</ele>
        <time>2023-07-25T12:03:18.000Z</time>
      </trkpt>
      <trkpt lat="42.70494" lon="1.2129">
        <ele>1872.8000488281</ele>
        <time>2023-07-25T12:03:23.000Z</time>
      </trkpt>
      <trkpt lat="42.70495" lon="1.2129">
        <ele>1872.5999755859</ele>
        <time>2023-07-25T12:03:24.000Z</time>
      </trkpt>
      <trkpt lat="42.70494" lon="1.21289">
        <ele>1871.5999755859</ele>
        <time>2023-07-25T12:03:28.000Z</time>
      </trkpt>
      <trkpt lat="42.70494" lon="1.21288">
        <ele>1871.4000244141</ele>
        <time>2023-07-25T12:03:33.000Z</time>
      </trkpt>
      <trkpt lat="42.70492" lon="1.21286">
        <ele>1871.4000244141</ele>
        <time>2023-07-25T12:03:41.000Z</time>
      </trkpt>
      <trkpt lat="42.70493" lon="1.21285">
        <ele>1871.5999755859</ele>
        <time>2023-07-25T12:03:49.000Z</time>
      </trkpt>
      <trkpt lat="42.70492" lon="1.21283">
        <ele>1871.5999755859</ele>
        <time>2023-07-25T12:04:00.000Z</time>
      </trkpt>
      <trkpt lat="42.70491" lon="1.21285">
        <ele>1871.8000488281</ele>
        <time>2023-07-25T12:04:07.000Z</time>
      </trkpt>
      <trkpt lat="42.70491" lon="1.21285">
        <ele>1872</ele>
        <time>2023-07-25T12:04:14.000Z</time>
      </trkpt>
      <trkpt lat="42.70489" lon="1.21285">
        <ele>1871.1999511719</ele>
        <time>2023-07-25T12:04:20.000Z</time>
      </trkpt>
      <trkpt lat="42.70488" lon="1.2128">
        <ele>1869.8000488281</ele>
        <time>2023-07-25T12:04:27.000Z</time>
      </trkpt>
      <trkpt lat="42.70488" lon="1.2128">
        <ele>1869.4000244141</ele>
        <time>2023-07-25T12:04:28.000Z</time>
      </trkpt>
      <trkpt lat="42.70489" lon="1.21278">
        <ele>1868.1999511719</ele>
        <time>2023-07-25T12:04:32.000Z</time>
      </trkpt>
      <trkpt lat="42.70489" lon="1.21277">
        <ele>1867.8000488281</ele>
        <time>2023-07-25T12:04:33.000Z</time>
      </trkpt>
      <trkpt lat="42.70489" lon="1.21274">
        <ele>1867</ele>
        <time>2023-07-25T12:04:35.000Z</time>
      </trkpt>
      <trkpt lat="42.7049" lon="1.21272">
        <ele>1866.4000244141</ele>
        <time>2023-07-25T12:04:39.000Z</time>
      </trkpt>
      <trkpt lat="42.70492" lon="1.21271">
        <ele>1865.8000488281</ele>
        <time>2023-07-25T12:04:42.000Z</time>
      </trkpt>
      <trkpt lat="42.70494" lon="1.21268">
        <ele>1865.8000488281</ele>
        <time>2023-07-25T12:04:46.000Z</time>
      </trkpt>
      <trkpt lat="42.70497" lon="1.21265">
        <ele>1866.5999755859</ele>
        <time>2023-07-25T12:04:53.000Z</time>
      </trkpt>
      <trkpt lat="42.70499" lon="1.21263">
        <ele>1867</ele>
        <time>2023-07-25T12:05:00.000Z</time>
      </trkpt>
      <trkpt lat="42.70504" lon="1.21255">
        <ele>1867.5999755859</ele>
        <time>2023-07-25T12:05:08.000Z</time>
      </trkpt>
      <trkpt lat="42.70506" lon="1.21249">
        <ele>1868</ele>
        <time>2023-07-25T12:05:13.000Z</time>
      </trkpt>
      <trkpt lat="42.70504" lon="1.21244">
        <ele>1868.4000244141</ele>
        <time>2023-07-25T12:05:17.000Z</time>
      </trkpt>
      <trkpt lat="42.705" lon="1.21235">
        <ele>1868.4000244141</ele>
        <time>2023-07-25T12:05:26.000Z</time>
      </trkpt>
      <trkpt lat="42.705" lon="1.21229">
        <ele>1868.5999755859</ele>
        <time>2023-07-25T12:05:32.000Z</time>
      </trkpt>
      <trkpt lat="42.70501" lon="1.2123">
        <ele>1868.8000488281</ele>
        <time>2023-07-25T12:05:34.000Z</time>
      </trkpt>
      <trkpt lat="42.705" lon="1.2123">
        <ele>1869.1999511719</ele>
        <time>2023-07-25T12:05:36.000Z</time>
      </trkpt>
      <trkpt lat="42.70499" lon="1.2122">
        <ele>1869.1999511719</ele>
        <time>2023-07-25T12:06:27.000Z</time>
      </trkpt>
      <trkpt lat="42.705" lon="1.21219">
        <ele>1869.8000488281</ele>
        <time>2023-07-25T12:06:33.000Z</time>
      </trkpt>
      <trkpt lat="42.705" lon="1.21218">
        <ele>1870.1999511719</ele>
        <time>2023-07-25T12:06:36.000Z</time>
      </trkpt>
      <trkpt lat="42.705" lon="1.21217">
        <ele>1871.1999511719</ele>
        <time>2023-07-25T12:06:41.000Z</time>
      </trkpt>
      <trkpt lat="42.70501" lon="1.21217">
        <ele>1871.4000244141</ele>
        <time>2023-07-25T12:06:42.000Z</time>
      </trkpt>
      <trkpt lat="42.70505" lon="1.21216">
        <ele>1872.5999755859</ele>
        <time>2023-07-25T12:06:48.000Z</time>
      </trkpt>
      <trkpt lat="42.70505" lon="1.21216">
        <ele>1873</ele>
        <time>2023-07-25T12:06:49.000Z</time>
      </trkpt>
      <trkpt lat="42.70507" lon="1.21215">
        <ele>1873.5999755859</ele>
        <time>2023-07-25T12:06:51.000Z</time>
      </trkpt>
      <trkpt lat="42.7051" lon="1.21214">
        <ele>1874.5999755859</ele>
        <time>2023-07-25T12:06:56.000Z</time>
      </trkpt>
      <trkpt lat="42.7051" lon="1.21215">
        <ele>1874.8000488281</ele>
        <time>2023-07-25T12:06:58.000Z</time>
      </trkpt>
      <trkpt lat="42.70509" lon="1.21217">
        <ele>1875.1999511719</ele>
        <time>2023-07-25T12:07:06.000Z</time>
      </trkpt>
      <trkpt lat="42.70511" lon="1.21219">
        <ele>1875</ele>
        <time>2023-07-25T12:07:12.000Z</time>
      </trkpt>
      <trkpt lat="42.70511" lon="1.21217">
        <ele>1874.5999755859</ele>
        <time>2023-07-25T12:07:17.000Z</time>
      </trkpt>
      <trkpt lat="42.7051" lon="1.21216">
        <ele>1874.5999755859</ele>
        <time>2023-07-25T12:07:26.000Z</time>
      </trkpt>
      <trkpt lat="42.7051" lon="1.21214">
        <ele>1874.5999755859</ele>
        <time>2023-07-25T12:07:33.000Z</time>
      </trkpt>
      <trkpt lat="42.70508" lon="1.21211">
        <ele>1874.8000488281</ele>
        <time>2023-07-25T12:07:39.000Z</time>
      </trkpt>
      <trkpt lat="42.70508" lon="1.21212">
        <ele>1875</ele>
        <time>2023-07-25T12:07:44.000Z</time>
      </trkpt>
      <trkpt lat="42.70509" lon="1.21214">
        <ele>1875.4000244141</ele>
        <time>2023-07-25T12:07:53.000Z</time>
      </trkpt>
      <trkpt lat="42.7051" lon="1.21216">
        <ele>1875.5999755859</ele>
        <time>2023-07-25T12:08:02.000Z</time>
      </trkpt>
      <trkpt lat="42.7051" lon="1.21218">
        <ele>1875.8000488281</ele>
        <time>2023-07-25T12:08:10.000Z</time>
      </trkpt>
      <trkpt lat="42.7051" lon="1.21217">
        <ele>1876</ele>
        <time>2023-07-25T12:08:11.000Z</time>
      </trkpt>
      <trkpt lat="42.70508" lon="1.21215">
        <ele>1875.8000488281</ele>
        <time>2023-07-25T12:08:19.000Z</time>
      </trkpt>
      <trkpt lat="42.70506" lon="1.21211">
        <ele>1875.5999755859</ele>
        <time>2023-07-25T12:08:24.000Z</time>
      </trkpt>
      <trkpt lat="42.70505" lon="1.21213">
        <ele>1876</ele>
        <time>2023-07-25T12:08:35.000Z</time>
      </trkpt>
      <trkpt lat="42.70503" lon="1.21206">
        <ele>1876</ele>
        <time>2023-07-25T12:08:44.000Z</time>
      </trkpt>
      <trkpt lat="42.70503" lon="1.21211">
        <ele>1876</ele>
        <time>2023-07-25T12:08:53.000Z</time>
      </trkpt>
      <trkpt lat="42.70505" lon="1.21213">
        <ele>1875.5999755859</ele>
        <time>2023-07-25T12:09:04.000Z</time>
      </trkpt>
      <trkpt lat="42.70506" lon="1.21214">
        <ele>1875.8000488281</ele>
        <time>2023-07-25T12:09:13.000Z</time>
      </trkpt>
      <trkpt lat="42.70507" lon="1.21212">
        <ele>1876.1999511719</ele>
        <time>2023-07-25T12:09:22.000Z</time>
      </trkpt>
      <trkpt lat="42.70505" lon="1.21213">
        <ele>1875.5999755859</ele>
        <time>2023-07-25T12:09:31.000Z</time>
      </trkpt>
      <trkpt lat="42.70506" lon="1.21212">
        <ele>1876.8000488281</ele>
        <time>2023-07-25T12:09:36.000Z</time>
      </trkpt>
      <trkpt lat="42.70507" lon="1.2121">
        <ele>1877</ele>
        <time>2023-07-25T12:09:43.000Z</time>
      </trkpt>
      <trkpt lat="42.70506" lon="1.21211">
        <ele>1876.4000244141</ele>
        <time>2023-07-25T12:09:50.000Z</time>
      </trkpt>
      <trkpt lat="42.70506" lon="1.21211">
        <ele>1876.5999755859</ele>
        <time>2023-07-25T12:09:56.000Z</time>
      </trkpt>
      <trkpt lat="42.70507" lon="1.21209">
        <ele>1876.4000244141</ele>
        <time>2023-07-25T12:10:04.000Z</time>
      </trkpt>
      <trkpt lat="42.70507" lon="1.21212">
        <ele>1876.5999755859</ele>
        <time>2023-07-25T12:10:12.000Z</time>
      </trkpt>
      <trkpt lat="42.70508" lon="1.21213">
        <ele>1876.8000488281</ele>
        <time>2023-07-25T12:10:20.000Z</time>
      </trkpt>
      <trkpt lat="42.70508" lon="1.21213">
        <ele>1876.8000488281</ele>
        <time>2023-07-25T12:10:26.000Z</time>
      </trkpt>
      <trkpt lat="42.70508" lon="1.21215">
        <ele>1877.1999511719</ele>
        <time>2023-07-25T12:10:33.000Z</time>
      </trkpt>
      <trkpt lat="42.70509" lon="1.2121">
        <ele>1877.1999511719</ele>
        <time>2023-07-25T12:10:39.000Z</time>
      </trkpt>
      <trkpt lat="42.70511" lon="1.21204">
        <ele>1877.5999755859</ele>
        <time>2023-07-25T12:10:46.000Z</time>
      </trkpt>
      <trkpt lat="42.70512" lon="1.21204">
        <ele>1878</ele>
        <time>2023-07-25T12:10:48.000Z</time>
      </trkpt>
      <trkpt lat="42.70514" lon="1.21205">
        <ele>1879.1999511719</ele>
        <time>2023-07-25T12:10:53.000Z</time>
      </trkpt>
      <trkpt lat="42.70514" lon="1.21204">
        <ele>1880.1999511719</ele>
        <time>2023-07-25T12:10:58.000Z</time>
      </trkpt>
      <trkpt lat="42.70513" lon="1.21204">
        <ele>1880.5999755859</ele>
        <time>2023-07-25T12:11:00.000Z</time>
      </trkpt>
      <trkpt lat="42.70514" lon="1.21203">
        <ele>1881.1999511719</ele>
        <time>2023-07-25T12:11:03.000Z</time>
      </trkpt>
      <trkpt lat="42.70515" lon="1.21202">
        <ele>1881.8000488281</ele>
        <time>2023-07-25T12:11:07.000Z</time>
      </trkpt>
      <trkpt lat="42.70515" lon="1.21201">
        <ele>1882.4000244141</ele>
        <time>2023-07-25T12:11:10.000Z</time>
      </trkpt>
      <trkpt lat="42.70516" lon="1.21199">
        <ele>1883</ele>
        <time>2023-07-25T12:11:14.000Z</time>
      </trkpt>
      <trkpt lat="42.70516" lon="1.21198">
        <ele>1883.5999755859</ele>
        <time>2023-07-25T12:11:18.000Z</time>
      </trkpt>
      <trkpt lat="42.70519" lon="1.21187">
        <ele>1885.8000488281</ele>
        <time>2023-07-25T12:11:37.000Z</time>
      </trkpt>
      <trkpt lat="42.70519" lon="1.21183">
        <ele>1886.8000488281</ele>
        <time>2023-07-25T12:11:44.000Z</time>
      </trkpt>
      <trkpt lat="42.70518" lon="1.21178">
        <ele>1887</ele>
        <time>2023-07-25T12:11:51.000Z</time>
      </trkpt>
      <trkpt lat="42.70518" lon="1.21177">
        <ele>1887</ele>
        <time>2023-07-25T12:11:53.000Z</time>
      </trkpt>
      <trkpt lat="42.70517" lon="1.21172">
        <ele>1887</ele>
        <time>2023-07-25T12:12:00.000Z</time>
      </trkpt>
      <trkpt lat="42.70516" lon="1.21173">
        <ele>1887.4000244141</ele>
        <time>2023-07-25T12:12:07.000Z</time>
      </trkpt>
      <trkpt lat="42.70518" lon="1.21169">
        <ele>1887.5999755859</ele>
        <time>2023-07-25T12:12:13.000Z</time>
      </trkpt>
      <trkpt lat="42.7052" lon="1.21168">
        <ele>1888.1999511719</ele>
        <time>2023-07-25T12:12:16.000Z</time>
      </trkpt>
      <trkpt lat="42.70521" lon="1.21166">
        <ele>1889</ele>
        <time>2023-07-25T12:12:21.000Z</time>
      </trkpt>
      <trkpt lat="42.70521" lon="1.21166">
        <ele>1889.1999511719</ele>
        <time>2023-07-25T12:12:22.000Z</time>
      </trkpt>
      <trkpt lat="42.7052" lon="1.21165">
        <ele>1889.8000488281</ele>
        <time>2023-07-25T12:12:28.000Z</time>
      </trkpt>
      <trkpt lat="42.70519" lon="1.21161">
        <ele>1890</ele>
        <time>2023-07-25T12:12:34.000Z</time>
      </trkpt>
      <trkpt lat="42.70519" lon="1.21162">
        <ele>1890</ele>
        <time>2023-07-25T12:12:41.000Z</time>
      </trkpt>
      <trkpt lat="42.7052" lon="1.21157">
        <ele>1890.8000488281</ele>
        <time>2023-07-25T12:12:49.000Z</time>
      </trkpt>
      <trkpt lat="42.7052" lon="1.21152">
        <ele>1891.5999755859</ele>
        <time>2023-07-25T12:12:53.000Z</time>
      </trkpt>
      <trkpt lat="42.7052" lon="1.21149">
        <ele>1892.5999755859</ele>
        <time>2023-07-25T12:12:56.000Z</time>
      </trkpt>
      <trkpt lat="42.70517" lon="1.21139">
        <ele>1893.8000488281</ele>
        <time>2023-07-25T12:13:05.000Z</time>
      </trkpt>
      <trkpt lat="42.70517" lon="1.21137">
        <ele>1894.4000244141</ele>
        <time>2023-07-25T12:13:07.000Z</time>
      </trkpt>
      <trkpt lat="42.70517" lon="1.21135">
        <ele>1894.8000488281</ele>
        <time>2023-07-25T12:13:09.000Z</time>
      </trkpt>
      <trkpt lat="42.70517" lon="1.21134">
        <ele>1895.1999511719</ele>
        <time>2023-07-25T12:13:14.000Z</time>
      </trkpt>
      <trkpt lat="42.70519" lon="1.21132">
        <ele>1895.8000488281</ele>
        <time>2023-07-25T12:13:18.000Z</time>
      </trkpt>
      <trkpt lat="42.70521" lon="1.21128">
        <ele>1896.5999755859</ele>
        <time>2023-07-25T12:13:24.000Z</time>
      </trkpt>
      <trkpt lat="42.70522" lon="1.21123">
        <ele>1898</ele>
        <time>2023-07-25T12:13:32.000Z</time>
      </trkpt>
      <trkpt lat="42.70521" lon="1.21111">
        <ele>1900.8000488281</ele>
        <time>2023-07-25T12:13:51.000Z</time>
      </trkpt>
      <trkpt lat="42.70521" lon="1.21109">
        <ele>1902</ele>
        <time>2023-07-25T12:13:58.000Z</time>
      </trkpt>
      <trkpt lat="42.7052" lon="1.21107">
        <ele>1902.1999511719</ele>
        <time>2023-07-25T12:14:00.000Z</time>
      </trkpt>
      <trkpt lat="42.7052" lon="1.21104">
        <ele>1903</ele>
        <time>2023-07-25T12:14:05.000Z</time>
      </trkpt>
      <trkpt lat="42.7052" lon="1.21104">
        <ele>1903.4000244141</ele>
        <time>2023-07-25T12:14:07.000Z</time>
      </trkpt>
      <trkpt lat="42.7052" lon="1.21102">
        <ele>1904.1999511719</ele>
        <time>2023-07-25T12:14:12.000Z</time>
      </trkpt>
      <trkpt lat="42.7052" lon="1.211">
        <ele>1904.4000244141</ele>
        <time>2023-07-25T12:14:14.000Z</time>
      </trkpt>
      <trkpt lat="42.70518" lon="1.21094">
        <ele>1905.4000244141</ele>
        <time>2023-07-25T12:14:22.000Z</time>
      </trkpt>
      <trkpt lat="42.70519" lon="1.21089">
        <ele>1905.5999755859</ele>
        <time>2023-07-25T12:14:27.000Z</time>
      </trkpt>
      <trkpt lat="42.70519" lon="1.21087">
        <ele>1905.5999755859</ele>
        <time>2023-07-25T12:14:29.000Z</time>
      </trkpt>
      <trkpt lat="42.70519" lon="1.2108">
        <ele>1906.5999755859</ele>
        <time>2023-07-25T12:14:40.000Z</time>
      </trkpt>
      <trkpt lat="42.7052" lon="1.2107">
        <ele>1906.8000488281</ele>
        <time>2023-07-25T12:14:47.000Z</time>
      </trkpt>
      <trkpt lat="42.70523" lon="1.21061">
        <ele>1907.1999511719</ele>
        <time>2023-07-25T12:14:54.000Z</time>
      </trkpt>
      <trkpt lat="42.70524" lon="1.21059">
        <ele>1907.8000488281</ele>
        <time>2023-07-25T12:14:57.000Z</time>
      </trkpt>
      <trkpt lat="42.70524" lon="1.21059">
        <ele>1907.8000488281</ele>
        <time>2023-07-25T12:15:00.000Z</time>
      </trkpt>
      <trkpt lat="42.70526" lon="1.21052">
        <ele>1909</ele>
        <time>2023-07-25T12:15:07.000Z</time>
      </trkpt>
      <trkpt lat="42.70527" lon="1.21052">
        <ele>1909</ele>
        <time>2023-07-25T12:15:08.000Z</time>
      </trkpt>
      <trkpt lat="42.70533" lon="1.21045">
        <ele>1910.1999511719</ele>
        <time>2023-07-25T12:15:16.000Z</time>
      </trkpt>
      <trkpt lat="42.70534" lon="1.21044">
        <ele>1910.4000244141</ele>
        <time>2023-07-25T12:15:17.000Z</time>
      </trkpt>
      <trkpt lat="42.70536" lon="1.21042">
        <ele>1911.1999511719</ele>
        <time>2023-07-25T12:15:22.000Z</time>
      </trkpt>
      <trkpt lat="42.70537" lon="1.21041">
        <ele>1911.8000488281</ele>
        <time>2023-07-25T12:15:24.000Z</time>
      </trkpt>
      <trkpt lat="42.70538" lon="1.21038">
        <ele>1912.1999511719</ele>
        <time>2023-07-25T12:15:27.000Z</time>
      </trkpt>
      <trkpt lat="42.70539" lon="1.21036">
        <ele>1912.4000244141</ele>
        <time>2023-07-25T12:15:32.000Z</time>
      </trkpt>
      <trkpt lat="42.70539" lon="1.21033">
        <ele>1913.1999511719</ele>
        <time>2023-07-25T12:15:38.000Z</time>
      </trkpt>
      <trkpt lat="42.70539" lon="1.21031">
        <ele>1913.1999511719</ele>
        <time>2023-07-25T12:15:40.000Z</time>
      </trkpt>
      <trkpt lat="42.70537" lon="1.21026">
        <ele>1913.4000244141</ele>
        <time>2023-07-25T12:15:43.000Z</time>
      </trkpt>
      <trkpt lat="42.70535" lon="1.2102">
        <ele>1914</ele>
        <time>2023-07-25T12:15:47.000Z</time>
      </trkpt>
      <trkpt lat="42.70533" lon="1.21013">
        <ele>1914</ele>
        <time>2023-07-25T12:15:53.000Z</time>
      </trkpt>
      <trkpt lat="42.70534" lon="1.21008">
        <ele>1914.4000244141</ele>
        <time>2023-07-25T12:16:02.000Z</time>
      </trkpt>
      <trkpt lat="42.70534" lon="1.21007">
        <ele>1914.4000244141</ele>
        <time>2023-07-25T12:16:04.000Z</time>
      </trkpt>
      <trkpt lat="42.70538" lon="1.20991">
        <ele>1914.4000244141</ele>
        <time>2023-07-25T12:16:12.000Z</time>
      </trkpt>
      <trkpt lat="42.70542" lon="1.20983">
        <ele>1914.1999511719</ele>
        <time>2023-07-25T12:16:19.000Z</time>
      </trkpt>
      <trkpt lat="42.70551" lon="1.20972">
        <ele>1914.8000488281</ele>
        <time>2023-07-25T12:16:28.000Z</time>
      </trkpt>
      <trkpt lat="42.70554" lon="1.2096">
        <ele>1915.4000244141</ele>
        <time>2023-07-25T12:16:35.000Z</time>
      </trkpt>
      <trkpt lat="42.70555" lon="1.20959">
        <ele>1915.4000244141</ele>
        <time>2023-07-25T12:16:36.000Z</time>
      </trkpt>
      <trkpt lat="42.70557" lon="1.20949">
        <ele>1915.5999755859</ele>
        <time>2023-07-25T12:16:42.000Z</time>
      </trkpt>
      <trkpt lat="42.70556" lon="1.20941">
        <ele>1915.4000244141</ele>
        <time>2023-07-25T12:16:51.000Z</time>
      </trkpt>
      <trkpt lat="42.70554" lon="1.20931">
        <ele>1915.1999511719</ele>
        <time>2023-07-25T12:17:01.000Z</time>
      </trkpt>
      <trkpt lat="42.70554" lon="1.20918">
        <ele>1915.4000244141</ele>
        <time>2023-07-25T12:17:09.000Z</time>
      </trkpt>
      <trkpt lat="42.70557" lon="1.2091">
        <ele>1916</ele>
        <time>2023-07-25T12:17:17.000Z</time>
      </trkpt>
      <trkpt lat="42.70559" lon="1.20897">
        <ele>1916</ele>
        <time>2023-07-25T12:17:26.000Z</time>
      </trkpt>
      <trkpt lat="42.7056" lon="1.20884">
        <ele>1916.4000244141</ele>
        <time>2023-07-25T12:17:34.000Z</time>
      </trkpt>
      <trkpt lat="42.7056" lon="1.20883">
        <ele>1916.5999755859</ele>
        <time>2023-07-25T12:17:35.000Z</time>
      </trkpt>
      <trkpt lat="42.70563" lon="1.20871">
        <ele>1917.5999755859</ele>
        <time>2023-07-25T12:17:44.000Z</time>
      </trkpt>
      <trkpt lat="42.70563" lon="1.20869">
        <ele>1917.8000488281</ele>
        <time>2023-07-25T12:17:45.000Z</time>
      </trkpt>
      <trkpt lat="42.70564" lon="1.20864">
        <ele>1917.8000488281</ele>
        <time>2023-07-25T12:17:50.000Z</time>
      </trkpt>
      <trkpt lat="42.70568" lon="1.20858">
        <ele>1917.1999511719</ele>
        <time>2023-07-25T12:17:57.000Z</time>
      </trkpt>
      <trkpt lat="42.7057" lon="1.2085">
        <ele>1917.4000244141</ele>
        <time>2023-07-25T12:18:03.000Z</time>
      </trkpt>
      <trkpt lat="42.70572" lon="1.20841">
        <ele>1917.5999755859</ele>
        <time>2023-07-25T12:18:11.000Z</time>
      </trkpt>
      <trkpt lat="42.70575" lon="1.20829">
        <ele>1917</ele>
        <time>2023-07-25T12:18:19.000Z</time>
      </trkpt>
      <trkpt lat="42.70575" lon="1.20827">
        <ele>1916.5999755859</ele>
        <time>2023-07-25T12:18:22.000Z</time>
      </trkpt>
      <trkpt lat="42.70574" lon="1.20819">
        <ele>1915.5999755859</ele>
        <time>2023-07-25T12:18:27.000Z</time>
      </trkpt>
      <trkpt lat="42.70574" lon="1.20817">
        <ele>1915.5999755859</ele>
        <time>2023-07-25T12:18:28.000Z</time>
      </trkpt>
      <trkpt lat="42.70574" lon="1.20806">
        <ele>1914.5999755859</ele>
        <time>2023-07-25T12:18:35.000Z</time>
      </trkpt>
      <trkpt lat="42.70577" lon="1.20794">
        <ele>1914.5999755859</ele>
        <time>2023-07-25T12:18:43.000Z</time>
      </trkpt>
      <trkpt lat="42.70577" lon="1.20794">
        <ele>1914.4000244141</ele>
        <time>2023-07-25T12:18:44.000Z</time>
      </trkpt>
      <trkpt lat="42.7058" lon="1.20788">
        <ele>1914</ele>
        <time>2023-07-25T12:18:49.000Z</time>
      </trkpt>
      <trkpt lat="42.70579" lon="1.20778">
        <ele>1913.4000244141</ele>
        <time>2023-07-25T12:18:56.000Z</time>
      </trkpt>
      <trkpt lat="42.70577" lon="1.20772">
        <ele>1913</ele>
        <time>2023-07-25T12:19:04.000Z</time>
      </trkpt>
      <trkpt lat="42.70578" lon="1.20769">
        <ele>1912.8000488281</ele>
        <time>2023-07-25T12:19:08.000Z</time>
      </trkpt>
      <trkpt lat="42.70577" lon="1.20767">
        <ele>1912.1999511719</ele>
        <time>2023-07-25T12:19:10.000Z</time>
      </trkpt>
      <trkpt lat="42.70578" lon="1.20763">
        <ele>1911.5999755859</ele>
        <time>2023-07-25T12:19:14.000Z</time>
      </trkpt>
      <trkpt lat="42.70578" lon="1.20762">
        <ele>1911.1999511719</ele>
        <time>2023-07-25T12:19:16.000Z</time>
      </trkpt>
      <trkpt lat="42.70579" lon="1.20759">
        <ele>1910.1999511719</ele>
        <time>2023-07-25T12:19:21.000Z</time>
      </trkpt>
      <trkpt lat="42.7058" lon="1.20756">
        <ele>1909.4000244141</ele>
        <time>2023-07-25T12:19:24.000Z</time>
      </trkpt>
      <trkpt lat="42.70582" lon="1.20746">
        <ele>1909.8000488281</ele>
        <time>2023-07-25T12:19:32.000Z</time>
      </trkpt>
      <trkpt lat="42.70586" lon="1.20737">
        <ele>1910.8000488281</ele>
        <time>2023-07-25T12:19:39.000Z</time>
      </trkpt>
      <trkpt lat="42.70588" lon="1.20733">
        <ele>1911.1999511719</ele>
        <time>2023-07-25T12:19:42.000Z</time>
      </trkpt>
      <trkpt lat="42.7059" lon="1.2073">
        <ele>1911.4000244141</ele>
        <time>2023-07-25T12:19:46.000Z</time>
      </trkpt>
      <trkpt lat="42.70593" lon="1.20722">
        <ele>1912.4000244141</ele>
        <time>2023-07-25T12:19:52.000Z</time>
      </trkpt>
      <trkpt lat="42.70593" lon="1.20721">
        <ele>1912.4000244141</ele>
        <time>2023-07-25T12:19:53.000Z</time>
      </trkpt>
      <trkpt lat="42.70595" lon="1.20715">
        <ele>1912.8000488281</ele>
        <time>2023-07-25T12:19:59.000Z</time>
      </trkpt>
      <trkpt lat="42.70596" lon="1.20713">
        <ele>1913.5999755859</ele>
        <time>2023-07-25T12:20:01.000Z</time>
      </trkpt>
      <trkpt lat="42.70598" lon="1.20706">
        <ele>1913.8000488281</ele>
        <time>2023-07-25T12:20:06.000Z</time>
      </trkpt>
      <trkpt lat="42.70602" lon="1.20701">
        <ele>1914.5999755859</ele>
        <time>2023-07-25T12:20:12.000Z</time>
      </trkpt>
      <trkpt lat="42.70603" lon="1.20698">
        <ele>1914.8000488281</ele>
        <time>2023-07-25T12:20:14.000Z</time>
      </trkpt>
      <trkpt lat="42.70606" lon="1.20685">
        <ele>1915.5999755859</ele>
        <time>2023-07-25T12:20:23.000Z</time>
      </trkpt>
      <trkpt lat="42.70606" lon="1.20683">
        <ele>1915.8000488281</ele>
        <time>2023-07-25T12:20:25.000Z</time>
      </trkpt>
      <trkpt lat="42.70607" lon="1.20679">
        <ele>1917</ele>
        <time>2023-07-25T12:20:33.000Z</time>
      </trkpt>
      <trkpt lat="42.70607" lon="1.20677">
        <ele>1918.1999511719</ele>
        <time>2023-07-25T12:20:38.000Z</time>
      </trkpt>
      <trkpt lat="42.70606" lon="1.20676">
        <ele>1918.5999755859</ele>
        <time>2023-07-25T12:20:40.000Z</time>
      </trkpt>
      <trkpt lat="42.70607" lon="1.2067">
        <ele>1919.1999511719</ele>
        <time>2023-07-25T12:20:48.000Z</time>
      </trkpt>
      <trkpt lat="42.70607" lon="1.20669">
        <ele>1919.4000244141</ele>
        <time>2023-07-25T12:20:49.000Z</time>
      </trkpt>
      <trkpt lat="42.70608" lon="1.20666">
        <ele>1920.4000244141</ele>
        <time>2023-07-25T12:20:53.000Z</time>
      </trkpt>
      <trkpt lat="42.70609" lon="1.20664">
        <ele>1921.4000244141</ele>
        <time>2023-07-25T12:20:57.000Z</time>
      </trkpt>
      <trkpt lat="42.70609" lon="1.20663">
        <ele>1921.4000244141</ele>
        <time>2023-07-25T12:20:58.000Z</time>
      </trkpt>
      <trkpt lat="42.7061" lon="1.20661">
        <ele>1922.4000244141</ele>
        <time>2023-07-25T12:21:02.000Z</time>
      </trkpt>
      <trkpt lat="42.70611" lon="1.2066">
        <ele>1923</ele>
        <time>2023-07-25T12:21:05.000Z</time>
      </trkpt>
      <trkpt lat="42.70611" lon="1.20658">
        <ele>1923.5999755859</ele>
        <time>2023-07-25T12:21:09.000Z</time>
      </trkpt>
      <trkpt lat="42.70611" lon="1.20653">
        <ele>1924.5999755859</ele>
        <time>2023-07-25T12:21:14.000Z</time>
      </trkpt>
      <trkpt lat="42.70612" lon="1.20645">
        <ele>1925.5999755859</ele>
        <time>2023-07-25T12:21:22.000Z</time>
      </trkpt>
      <trkpt lat="42.70612" lon="1.20644">
        <ele>1925.8000488281</ele>
        <time>2023-07-25T12:21:24.000Z</time>
      </trkpt>
      <trkpt lat="42.70614" lon="1.20634">
        <ele>1927</ele>
        <time>2023-07-25T12:21:32.000Z</time>
      </trkpt>
      <trkpt lat="42.70612" lon="1.20632">
        <ele>1927.8000488281</ele>
        <time>2023-07-25T12:21:40.000Z</time>
      </trkpt>
      <trkpt lat="42.70609" lon="1.20631">
        <ele>1928</ele>
        <time>2023-07-25T12:21:46.000Z</time>
      </trkpt>
      <trkpt lat="42.70609" lon="1.20631">
        <ele>1928</ele>
        <time>2023-07-25T12:21:48.000Z</time>
      </trkpt>
      <trkpt lat="42.7061" lon="1.20622">
        <ele>1928.5999755859</ele>
        <time>2023-07-25T12:21:54.000Z</time>
      </trkpt>
      <trkpt lat="42.7061" lon="1.20619">
        <ele>1929.1999511719</ele>
        <time>2023-07-25T12:21:57.000Z</time>
      </trkpt>
      <trkpt lat="42.7061" lon="1.20614">
        <ele>1929.4000244141</ele>
        <time>2023-07-25T12:22:01.000Z</time>
      </trkpt>
      <trkpt lat="42.7061" lon="1.20609">
        <ele>1930.4000244141</ele>
        <time>2023-07-25T12:22:07.000Z</time>
      </trkpt>
      <trkpt lat="42.70611" lon="1.20608">
        <ele>1931</ele>
        <time>2023-07-25T12:22:10.000Z</time>
      </trkpt>
      <trkpt lat="42.70611" lon="1.20604">
        <ele>1931.4000244141</ele>
        <time>2023-07-25T12:22:15.000Z</time>
      </trkpt>
      <trkpt lat="42.70612" lon="1.20605">
        <ele>1932</ele>
        <time>2023-07-25T12:22:18.000Z</time>
      </trkpt>
      <trkpt lat="42.70613" lon="1.20603">
        <ele>1932</ele>
        <time>2023-07-25T12:22:27.000Z</time>
      </trkpt>
      <trkpt lat="42.70612" lon="1.20598">
        <ele>1932</ele>
        <time>2023-07-25T12:22:43.000Z</time>
      </trkpt>
      <trkpt lat="42.70614" lon="1.20586">
        <ele>1932.4000244141</ele>
        <time>2023-07-25T12:22:52.000Z</time>
      </trkpt>
      <trkpt lat="42.70615" lon="1.20584">
        <ele>1932.5999755859</ele>
        <time>2023-07-25T12:22:55.000Z</time>
      </trkpt>
      <trkpt lat="42.70616" lon="1.2058">
        <ele>1933</ele>
        <time>2023-07-25T12:22:59.000Z</time>
      </trkpt>
      <trkpt lat="42.70617" lon="1.20578">
        <ele>1933.5999755859</ele>
        <time>2023-07-25T12:23:02.000Z</time>
      </trkpt>
      <trkpt lat="42.70617" lon="1.20574">
        <ele>1934.5999755859</ele>
        <time>2023-07-25T12:23:06.000Z</time>
      </trkpt>
      <trkpt lat="42.70617" lon="1.20567">
        <ele>1934</ele>
        <time>2023-07-25T12:23:14.000Z</time>
      </trkpt>
      <trkpt lat="42.70617" lon="1.20561">
        <ele>1934</ele>
        <time>2023-07-25T12:23:20.000Z</time>
      </trkpt>
      <trkpt lat="42.70617" lon="1.20556">
        <ele>1934.4000244141</ele>
        <time>2023-07-25T12:23:25.000Z</time>
      </trkpt>
      <trkpt lat="42.70618" lon="1.20557">
        <ele>1934.8000488281</ele>
        <time>2023-07-25T12:23:27.000Z</time>
      </trkpt>
      <trkpt lat="42.7062" lon="1.20548">
        <ele>1935.4000244141</ele>
        <time>2023-07-25T12:23:33.000Z</time>
      </trkpt>
      <trkpt lat="42.70621" lon="1.20543">
        <ele>1935.8000488281</ele>
        <time>2023-07-25T12:23:37.000Z</time>
      </trkpt>
      <trkpt lat="42.70623" lon="1.2054">
        <ele>1936.4000244141</ele>
        <time>2023-07-25T12:23:40.000Z</time>
      </trkpt>
      <trkpt lat="42.70623" lon="1.20538">
        <ele>1937</ele>
        <time>2023-07-25T12:23:43.000Z</time>
      </trkpt>
      <trkpt lat="42.70623" lon="1.20534">
        <ele>1937.5999755859</ele>
        <time>2023-07-25T12:23:47.000Z</time>
      </trkpt>
      <trkpt lat="42.70623" lon="1.2053">
        <ele>1938.1999511719</ele>
        <time>2023-07-25T12:23:50.000Z</time>
      </trkpt>
      <trkpt lat="42.70623" lon="1.20525">
        <ele>1938.8000488281</ele>
        <time>2023-07-25T12:23:54.000Z</time>
      </trkpt>
      <trkpt lat="42.70623" lon="1.20524">
        <ele>1939.4000244141</ele>
        <time>2023-07-25T12:23:57.000Z</time>
      </trkpt>
      <trkpt lat="42.70626" lon="1.2052">
        <ele>1940.4000244141</ele>
        <time>2023-07-25T12:24:03.000Z</time>
      </trkpt>
      <trkpt lat="42.70626" lon="1.20519">
        <ele>1940.4000244141</ele>
        <time>2023-07-25T12:24:04.000Z</time>
      </trkpt>
      <trkpt lat="42.7063" lon="1.20509">
        <ele>1941</ele>
        <time>2023-07-25T12:24:12.000Z</time>
      </trkpt>
      <trkpt lat="42.70631" lon="1.20504">
        <ele>1941.4000244141</ele>
        <time>2023-07-25T12:24:19.000Z</time>
      </trkpt>
      <trkpt lat="42.70631" lon="1.20502">
        <ele>1941.8000488281</ele>
        <time>2023-07-25T12:24:21.000Z</time>
      </trkpt>
      <trkpt lat="42.7063" lon="1.20501">
        <ele>1942.5999755859</ele>
        <time>2023-07-25T12:24:27.000Z</time>
      </trkpt>
      <trkpt lat="42.7063" lon="1.20501">
        <ele>1942.5999755859</ele>
        <time>2023-07-25T12:24:28.000Z</time>
      </trkpt>
      <trkpt lat="42.70631" lon="1.20499">
        <ele>1943.8000488281</ele>
        <time>2023-07-25T12:24:33.000Z</time>
      </trkpt>
      <trkpt lat="42.70633" lon="1.20493">
        <ele>1944.5999755859</ele>
        <time>2023-07-25T12:24:38.000Z</time>
      </trkpt>
      <trkpt lat="42.70633" lon="1.20491">
        <ele>1944.8000488281</ele>
        <time>2023-07-25T12:24:39.000Z</time>
      </trkpt>
      <trkpt lat="42.70635" lon="1.20483">
        <ele>1945</ele>
        <time>2023-07-25T12:24:45.000Z</time>
      </trkpt>
      <trkpt lat="42.70634" lon="1.20478">
        <ele>1945.4000244141</ele>
        <time>2023-07-25T12:24:51.000Z</time>
      </trkpt>
      <trkpt lat="42.70634" lon="1.20477">
        <ele>1945.8000488281</ele>
        <time>2023-07-25T12:24:54.000Z</time>
      </trkpt>
      <trkpt lat="42.70633" lon="1.20472">
        <ele>1946.5999755859</ele>
        <time>2023-07-25T12:24:58.000Z</time>
      </trkpt>
      <trkpt lat="42.70633" lon="1.20471">
        <ele>1946.8000488281</ele>
        <time>2023-07-25T12:25:00.000Z</time>
      </trkpt>
      <trkpt lat="42.70634" lon="1.20469">
        <ele>1947.8000488281</ele>
        <time>2023-07-25T12:25:04.000Z</time>
      </trkpt>
      <trkpt lat="42.70635" lon="1.20469">
        <ele>1948</ele>
        <time>2023-07-25T12:25:06.000Z</time>
      </trkpt>
      <trkpt lat="42.70635" lon="1.20468">
        <ele>1948.4000244141</ele>
        <time>2023-07-25T12:25:11.000Z</time>
      </trkpt>
      <trkpt lat="42.70632" lon="1.20461">
        <ele>1949</ele>
        <time>2023-07-25T12:25:15.000Z</time>
      </trkpt>
      <trkpt lat="42.70631" lon="1.20459">
        <ele>1949.4000244141</ele>
        <time>2023-07-25T12:25:18.000Z</time>
      </trkpt>
      <trkpt lat="42.70633" lon="1.20456">
        <ele>1950</ele>
        <time>2023-07-25T12:25:21.000Z</time>
      </trkpt>
      <trkpt lat="42.70633" lon="1.20453">
        <ele>1950.5999755859</ele>
        <time>2023-07-25T12:25:24.000Z</time>
      </trkpt>
      <trkpt lat="42.70633" lon="1.20452">
        <ele>1951</ele>
        <time>2023-07-25T12:25:27.000Z</time>
      </trkpt>
      <trkpt lat="42.70634" lon="1.20451">
        <ele>1951.8000488281</ele>
        <time>2023-07-25T12:25:31.000Z</time>
      </trkpt>
      <trkpt lat="42.70634" lon="1.20451">
        <ele>1952.1999511719</ele>
        <time>2023-07-25T12:25:33.000Z</time>
      </trkpt>
      <trkpt lat="42.70636" lon="1.20448">
        <ele>1953</ele>
        <time>2023-07-25T12:25:39.000Z</time>
      </trkpt>
      <trkpt lat="42.70637" lon="1.20446">
        <ele>1953.1999511719</ele>
        <time>2023-07-25T12:25:41.000Z</time>
      </trkpt>
      <trkpt lat="42.70639" lon="1.20444">
        <ele>1954.1999511719</ele>
        <time>2023-07-25T12:25:48.000Z</time>
      </trkpt>
      <trkpt lat="42.70639" lon="1.20444">
        <ele>1954.4000244141</ele>
        <time>2023-07-25T12:25:50.000Z</time>
      </trkpt>
      <trkpt lat="42.70641" lon="1.2044">
        <ele>1955.1999511719</ele>
        <time>2023-07-25T12:25:56.000Z</time>
      </trkpt>
      <trkpt lat="42.70642" lon="1.2044">
        <ele>1955.5999755859</ele>
        <time>2023-07-25T12:25:58.000Z</time>
      </trkpt>
      <trkpt lat="42.70643" lon="1.20436">
        <ele>1956.4000244141</ele>
        <time>2023-07-25T12:26:02.000Z</time>
      </trkpt>
      <trkpt lat="42.70643" lon="1.20434">
        <ele>1956.8000488281</ele>
        <time>2023-07-25T12:26:06.000Z</time>
      </trkpt>
      <trkpt lat="42.70643" lon="1.20438">
        <ele>1957</ele>
        <time>2023-07-25T12:26:13.000Z</time>
      </trkpt>
      <trkpt lat="42.70643" lon="1.20433">
        <ele>1957.5999755859</ele>
        <time>2023-07-25T12:26:19.000Z</time>
      </trkpt>
      <trkpt lat="42.70644" lon="1.20423">
        <ele>1958.5999755859</ele>
        <time>2023-07-25T12:26:26.000Z</time>
      </trkpt>
      <trkpt lat="42.70647" lon="1.2042">
        <ele>1958.4000244141</ele>
        <time>2023-07-25T12:26:34.000Z</time>
      </trkpt>
      <trkpt lat="42.70648" lon="1.20416">
        <ele>1959</ele>
        <time>2023-07-25T12:26:40.000Z</time>
      </trkpt>
      <trkpt lat="42.70649" lon="1.20414">
        <ele>1959.4000244141</ele>
        <time>2023-07-25T12:26:42.000Z</time>
      </trkpt>
      <trkpt lat="42.70651" lon="1.20409">
        <ele>1959.8000488281</ele>
        <time>2023-07-25T12:26:48.000Z</time>
      </trkpt>
      <trkpt lat="42.70651" lon="1.20408">
        <ele>1960.1999511719</ele>
        <time>2023-07-25T12:26:52.000Z</time>
      </trkpt>
      <trkpt lat="42.70652" lon="1.20403">
        <ele>1961.1999511719</ele>
        <time>2023-07-25T12:26:56.000Z</time>
      </trkpt>
      <trkpt lat="42.70652" lon="1.20395">
        <ele>1962</ele>
        <time>2023-07-25T12:27:04.000Z</time>
      </trkpt>
      <trkpt lat="42.70652" lon="1.20391">
        <ele>1962.5999755859</ele>
        <time>2023-07-25T12:27:07.000Z</time>
      </trkpt>
      <trkpt lat="42.70653" lon="1.2039">
        <ele>1963</ele>
        <time>2023-07-25T12:27:12.000Z</time>
      </trkpt>
      <trkpt lat="42.70654" lon="1.2039">
        <ele>1963.5999755859</ele>
        <time>2023-07-25T12:27:16.000Z</time>
      </trkpt>
      <trkpt lat="42.70656" lon="1.20386">
        <ele>1964.1999511719</ele>
        <time>2023-07-25T12:27:22.000Z</time>
      </trkpt>
      <trkpt lat="42.70655" lon="1.20383">
        <ele>1964.8000488281</ele>
        <time>2023-07-25T12:27:24.000Z</time>
      </trkpt>
      <trkpt lat="42.70657" lon="1.20379">
        <ele>1965.4000244141</ele>
        <time>2023-07-25T12:27:29.000Z</time>
      </trkpt>
      <trkpt lat="42.70658" lon="1.20378">
        <ele>1965.8000488281</ele>
        <time>2023-07-25T12:27:31.000Z</time>
      </trkpt>
      <trkpt lat="42.70659" lon="1.20375">
        <ele>1966.8000488281</ele>
        <time>2023-07-25T12:27:37.000Z</time>
      </trkpt>
      <trkpt lat="42.70659" lon="1.20376">
        <ele>1967</ele>
        <time>2023-07-25T12:27:38.000Z</time>
      </trkpt>
      <trkpt lat="42.70658" lon="1.20372">
        <ele>1967.5999755859</ele>
        <time>2023-07-25T12:27:43.000Z</time>
      </trkpt>
      <trkpt lat="42.70657" lon="1.20372">
        <ele>1967.8000488281</ele>
        <time>2023-07-25T12:27:45.000Z</time>
      </trkpt>
      <trkpt lat="42.70655" lon="1.20369">
        <ele>1968.4000244141</ele>
        <time>2023-07-25T12:27:50.000Z</time>
      </trkpt>
      <trkpt lat="42.70656" lon="1.20366">
        <ele>1968.8000488281</ele>
        <time>2023-07-25T12:27:54.000Z</time>
      </trkpt>
      <trkpt lat="42.70655" lon="1.20362">
        <ele>1969.1999511719</ele>
        <time>2023-07-25T12:27:58.000Z</time>
      </trkpt>
      <trkpt lat="42.70652" lon="1.20357">
        <ele>1970</ele>
        <time>2023-07-25T12:28:10.000Z</time>
      </trkpt>
      <trkpt lat="42.70651" lon="1.20356">
        <ele>1970</ele>
        <time>2023-07-25T12:28:14.000Z</time>
      </trkpt>
      <trkpt lat="42.70667" lon="1.20359">
        <ele>1969.5999755859</ele>
        <time>2023-07-25T12:28:32.000Z</time>
      </trkpt>
      <trkpt lat="42.70671" lon="1.20356">
        <ele>1970.5999755859</ele>
        <time>2023-07-25T12:28:42.000Z</time>
      </trkpt>
      <trkpt lat="42.70672" lon="1.20354">
        <ele>1971</ele>
        <time>2023-07-25T12:28:45.000Z</time>
      </trkpt>
      <trkpt lat="42.70671" lon="1.2035">
        <ele>1971.5999755859</ele>
        <time>2023-07-25T12:28:48.000Z</time>
      </trkpt>
      <trkpt lat="42.7067" lon="1.20349">
        <ele>1971.8000488281</ele>
        <time>2023-07-25T12:28:49.000Z</time>
      </trkpt>
      <trkpt lat="42.7067" lon="1.20349">
        <ele>1972.1999511719</ele>
        <time>2023-07-25T12:28:50.000Z</time>
      </trkpt>
      <trkpt lat="42.70668" lon="1.20347">
        <ele>1973.4000244141</ele>
        <time>2023-07-25T12:28:55.000Z</time>
      </trkpt>
      <trkpt lat="42.70668" lon="1.20346">
        <ele>1973.8000488281</ele>
        <time>2023-07-25T12:28:58.000Z</time>
      </trkpt>
      <trkpt lat="42.7067" lon="1.20349">
        <ele>1974.4000244141</ele>
        <time>2023-07-25T12:29:03.000Z</time>
      </trkpt>
      <trkpt lat="42.7067" lon="1.20349">
        <ele>1974.4000244141</ele>
        <time>2023-07-25T12:29:04.000Z</time>
      </trkpt>
      <trkpt lat="42.7067" lon="1.20344">
        <ele>1974.5999755859</ele>
        <time>2023-07-25T12:29:11.000Z</time>
      </trkpt>
      <trkpt lat="42.70671" lon="1.20335">
        <ele>1975.5999755859</ele>
        <time>2023-07-25T12:29:19.000Z</time>
      </trkpt>
      <trkpt lat="42.70671" lon="1.20335">
        <ele>1975.5999755859</ele>
        <time>2023-07-25T12:29:20.000Z</time>
      </trkpt>
      <trkpt lat="42.70671" lon="1.20336">
        <ele>1976.4000244141</ele>
        <time>2023-07-25T12:29:27.000Z</time>
      </trkpt>
      <trkpt lat="42.7067" lon="1.20335">
        <ele>1976.5999755859</ele>
        <time>2023-07-25T12:29:31.000Z</time>
      </trkpt>
      <trkpt lat="42.70669" lon="1.20335">
        <ele>1977</ele>
        <time>2023-07-25T12:29:34.000Z</time>
      </trkpt>
      <trkpt lat="42.70669" lon="1.20333">
        <ele>1977.5999755859</ele>
        <time>2023-07-25T12:29:41.000Z</time>
      </trkpt>
      <trkpt lat="42.70668" lon="1.20332">
        <ele>1977.5999755859</ele>
        <time>2023-07-25T12:29:43.000Z</time>
      </trkpt>
      <trkpt lat="42.70666" lon="1.20326">
        <ele>1978.5999755859</ele>
        <time>2023-07-25T12:29:48.000Z</time>
      </trkpt>
      <trkpt lat="42.70665" lon="1.20325">
        <ele>1979</ele>
        <time>2023-07-25T12:29:49.000Z</time>
      </trkpt>
      <trkpt lat="42.70662" lon="1.20324">
        <ele>1980.1999511719</ele>
        <time>2023-07-25T12:29:55.000Z</time>
      </trkpt>
      <trkpt lat="42.70662" lon="1.20325">
        <ele>1980.5999755859</ele>
        <time>2023-07-25T12:29:58.000Z</time>
      </trkpt>
      <trkpt lat="42.70663" lon="1.20326">
        <ele>1980.5999755859</ele>
        <time>2023-07-25T12:30:02.000Z</time>
      </trkpt>
      <trkpt lat="42.70662" lon="1.2033">
        <ele>1980.4000244141</ele>
        <time>2023-07-25T12:30:13.000Z</time>
      </trkpt>
      <trkpt lat="42.70661" lon="1.20332">
        <ele>1979.1999511719</ele>
        <time>2023-07-25T12:30:20.000Z</time>
      </trkpt>
      <trkpt lat="42.70663" lon="1.20328">
        <ele>1978.8000488281</ele>
        <time>2023-07-25T12:30:27.000Z</time>
      </trkpt>
      <trkpt lat="42.70663" lon="1.20329">
        <ele>1978.1999511719</ele>
        <time>2023-07-25T12:30:33.000Z</time>
      </trkpt>
      <trkpt lat="42.70663" lon="1.20329">
        <ele>1978.1999511719</ele>
        <time>2023-07-25T12:30:34.000Z</time>
      </trkpt>
      <trkpt lat="42.7066" lon="1.20329">
        <ele>1977.1999511719</ele>
        <time>2023-07-25T12:30:40.000Z</time>
      </trkpt>
      <trkpt lat="42.7066" lon="1.20329">
        <ele>1977.1999511719</ele>
        <time>2023-07-25T12:30:41.000Z</time>
      </trkpt>
      <trkpt lat="42.70651" lon="1.20324">
        <ele>1979.5999755859</ele>
        <time>2023-07-25T12:30:56.000Z</time>
      </trkpt>
      <trkpt lat="42.70651" lon="1.20324">
        <ele>1979.8000488281</ele>
        <time>2023-07-25T12:30:57.000Z</time>
      </trkpt>
      <trkpt lat="42.70649" lon="1.20318">
        <ele>1980.4000244141</ele>
        <time>2023-07-25T12:31:03.000Z</time>
      </trkpt>
      <trkpt lat="42.70649" lon="1.20317">
        <ele>1980.5999755859</ele>
        <time>2023-07-25T12:31:04.000Z</time>
      </trkpt>
      <trkpt lat="42.70651" lon="1.20317">
        <ele>1981.5999755859</ele>
        <time>2023-07-25T12:31:11.000Z</time>
      </trkpt>
      <trkpt lat="42.7065" lon="1.20318">
        <ele>1981.8000488281</ele>
        <time>2023-07-25T12:31:12.000Z</time>
      </trkpt>
      <trkpt lat="42.70649" lon="1.20317">
        <ele>1982</ele>
        <time>2023-07-25T12:31:23.000Z</time>
      </trkpt>
      <trkpt lat="42.70645" lon="1.20311">
        <ele>1982.5999755859</ele>
        <time>2023-07-25T12:31:30.000Z</time>
      </trkpt>
      <trkpt lat="42.70644" lon="1.20311">
        <ele>1982.8000488281</ele>
        <time>2023-07-25T12:31:31.000Z</time>
      </trkpt>
      <trkpt lat="42.70644" lon="1.20305">
        <ele>1984</ele>
        <time>2023-07-25T12:31:38.000Z</time>
      </trkpt>
      <trkpt lat="42.70644" lon="1.20304">
        <ele>1984.4000244141</ele>
        <time>2023-07-25T12:31:40.000Z</time>
      </trkpt>
      <trkpt lat="42.70645" lon="1.20301">
        <ele>1985.1999511719</ele>
        <time>2023-07-25T12:31:44.000Z</time>
      </trkpt>
      <trkpt lat="42.70644" lon="1.20296">
        <ele>1985.5999755859</ele>
        <time>2023-07-25T12:31:48.000Z</time>
      </trkpt>
      <trkpt lat="42.70644" lon="1.2029">
        <ele>1986.4000244141</ele>
        <time>2023-07-25T12:31:55.000Z</time>
      </trkpt>
      <trkpt lat="42.7064" lon="1.2028">
        <ele>1986.8000488281</ele>
        <time>2023-07-25T12:32:05.000Z</time>
      </trkpt>
      <trkpt lat="42.7064" lon="1.20274">
        <ele>1987</ele>
        <time>2023-07-25T12:32:12.000Z</time>
      </trkpt>
      <trkpt lat="42.7064" lon="1.20271">
        <ele>1987.4000244141</ele>
        <time>2023-07-25T12:32:15.000Z</time>
      </trkpt>
      <trkpt lat="42.7064" lon="1.20267">
        <ele>1988.1999511719</ele>
        <time>2023-07-25T12:32:19.000Z</time>
      </trkpt>
      <trkpt lat="42.7064" lon="1.20264">
        <ele>1988.5999755859</ele>
        <time>2023-07-25T12:32:21.000Z</time>
      </trkpt>
      <trkpt lat="42.7064" lon="1.20262">
        <ele>1989.5999755859</ele>
        <time>2023-07-25T12:32:25.000Z</time>
      </trkpt>
      <trkpt lat="42.7064" lon="1.20261">
        <ele>1989.5999755859</ele>
        <time>2023-07-25T12:32:26.000Z</time>
      </trkpt>
      <trkpt lat="42.7064" lon="1.20256">
        <ele>1990</ele>
        <time>2023-07-25T12:32:31.000Z</time>
      </trkpt>
      <trkpt lat="42.70639" lon="1.20248">
        <ele>1990.4000244141</ele>
        <time>2023-07-25T12:32:37.000Z</time>
      </trkpt>
      <trkpt lat="42.70639" lon="1.20243">
        <ele>1990.8000488281</ele>
        <time>2023-07-25T12:32:41.000Z</time>
      </trkpt>
      <trkpt lat="42.7064" lon="1.2024">
        <ele>1991.4000244141</ele>
        <time>2023-07-25T12:32:45.000Z</time>
      </trkpt>
      <trkpt lat="42.70641" lon="1.20235">
        <ele>1991.8000488281</ele>
        <time>2023-07-25T12:32:50.000Z</time>
      </trkpt>
      <trkpt lat="42.70643" lon="1.20233">
        <ele>1992.1999511719</ele>
        <time>2023-07-25T12:32:53.000Z</time>
      </trkpt>
      <trkpt lat="42.70645" lon="1.2023">
        <ele>1993</ele>
        <time>2023-07-25T12:32:58.000Z</time>
      </trkpt>
      <trkpt lat="42.70646" lon="1.20228">
        <ele>1993.5999755859</ele>
        <time>2023-07-25T12:33:03.000Z</time>
      </trkpt>
      <trkpt lat="42.70646" lon="1.20226">
        <ele>1994.1999511719</ele>
        <time>2023-07-25T12:33:06.000Z</time>
      </trkpt>
      <trkpt lat="42.70647" lon="1.20222">
        <ele>1994.5999755859</ele>
        <time>2023-07-25T12:33:11.000Z</time>
      </trkpt>
      <trkpt lat="42.70647" lon="1.20219">
        <ele>1995.1999511719</ele>
        <time>2023-07-25T12:33:15.000Z</time>
      </trkpt>
      <trkpt lat="42.70647" lon="1.20217">
        <ele>1996.4000244141</ele>
        <time>2023-07-25T12:33:20.000Z</time>
      </trkpt>
      <trkpt lat="42.70646" lon="1.20212">
        <ele>1997.5999755859</ele>
        <time>2023-07-25T12:33:23.000Z</time>
      </trkpt>
      <trkpt lat="42.70646" lon="1.2021">
        <ele>1998.1999511719</ele>
        <time>2023-07-25T12:33:25.000Z</time>
      </trkpt>
      <trkpt lat="42.70647" lon="1.20207">
        <ele>1998.4000244141</ele>
        <time>2023-07-25T12:33:31.000Z</time>
      </trkpt>
      <trkpt lat="42.70647" lon="1.20201">
        <ele>1998.4000244141</ele>
        <time>2023-07-25T12:33:39.000Z</time>
      </trkpt>
      <trkpt lat="42.70648" lon="1.20195">
        <ele>1998.1999511719</ele>
        <time>2023-07-25T12:33:45.000Z</time>
      </trkpt>
      <trkpt lat="42.7065" lon="1.2019">
        <ele>1998.4000244141</ele>
        <time>2023-07-25T12:33:51.000Z</time>
      </trkpt>
      <trkpt lat="42.70651" lon="1.20187">
        <ele>1998.5999755859</ele>
        <time>2023-07-25T12:33:57.000Z</time>
      </trkpt>
      <trkpt lat="42.70651" lon="1.20186">
        <ele>1998.5999755859</ele>
        <time>2023-07-25T12:33:58.000Z</time>
      </trkpt>
      <trkpt lat="42.70653" lon="1.20178">
        <ele>1999.5999755859</ele>
        <time>2023-07-25T12:34:06.000Z</time>
      </trkpt>
      <trkpt lat="42.70653" lon="1.20177">
        <ele>1999.5999755859</ele>
        <time>2023-07-25T12:34:07.000Z</time>
      </trkpt>
      <trkpt lat="42.70655" lon="1.20171">
        <ele>2000.8000488281</ele>
        <time>2023-07-25T12:34:14.000Z</time>
      </trkpt>
      <trkpt lat="42.70655" lon="1.20168">
        <ele>2002</ele>
        <time>2023-07-25T12:34:19.000Z</time>
      </trkpt>
      <trkpt lat="42.70656" lon="1.20166">
        <ele>2002.1999511719</ele>
        <time>2023-07-25T12:34:20.000Z</time>
      </trkpt>
      <trkpt lat="42.70657" lon="1.20163">
        <ele>2003.1999511719</ele>
        <time>2023-07-25T12:34:24.000Z</time>
      </trkpt>
      <trkpt lat="42.70656" lon="1.20158">
        <ele>2004</ele>
        <time>2023-07-25T12:34:28.000Z</time>
      </trkpt>
      <trkpt lat="42.70655" lon="1.20153">
        <ele>2004.1999511719</ele>
        <time>2023-07-25T12:34:31.000Z</time>
      </trkpt>
      <trkpt lat="42.70654" lon="1.20152">
        <ele>2004.1999511719</ele>
        <time>2023-07-25T12:34:32.000Z</time>
      </trkpt>
      <trkpt lat="42.70652" lon="1.20148">
        <ele>2005.4000244141</ele>
        <time>2023-07-25T12:34:38.000Z</time>
      </trkpt>
      <trkpt lat="42.70651" lon="1.20143">
        <ele>2006.4000244141</ele>
        <time>2023-07-25T12:34:44.000Z</time>
      </trkpt>
      <trkpt lat="42.70652" lon="1.20141">
        <ele>2007.4000244141</ele>
        <time>2023-07-25T12:34:48.000Z</time>
      </trkpt>
      <trkpt lat="42.70652" lon="1.2014">
        <ele>2007.4000244141</ele>
        <time>2023-07-25T12:34:49.000Z</time>
      </trkpt>
      <trkpt lat="42.70653" lon="1.20132">
        <ele>2007.8000488281</ele>
        <time>2023-07-25T12:34:56.000Z</time>
      </trkpt>
      <trkpt lat="42.70655" lon="1.20122">
        <ele>2008.4000244141</ele>
        <time>2023-07-25T12:35:05.000Z</time>
      </trkpt>
      <trkpt lat="42.70655" lon="1.20121">
        <ele>2008.5999755859</ele>
        <time>2023-07-25T12:35:06.000Z</time>
      </trkpt>
      <trkpt lat="42.70655" lon="1.20113">
        <ele>2009.4000244141</ele>
        <time>2023-07-25T12:35:12.000Z</time>
      </trkpt>
      <trkpt lat="42.70654" lon="1.20111">
        <ele>2009.5999755859</ele>
        <time>2023-07-25T12:35:14.000Z</time>
      </trkpt>
      <trkpt lat="42.70653" lon="1.20106">
        <ele>2010.1999511719</ele>
        <time>2023-07-25T12:35:18.000Z</time>
      </trkpt>
      <trkpt lat="42.70653" lon="1.20099">
        <ele>2010.5999755859</ele>
        <time>2023-07-25T12:35:23.000Z</time>
      </trkpt>
      <trkpt lat="42.70653" lon="1.20096">
        <ele>2010.5999755859</ele>
        <time>2023-07-25T12:35:24.000Z</time>
      </trkpt>
      <trkpt lat="42.70652" lon="1.20088">
        <ele>2011.1999511719</ele>
        <time>2023-07-25T12:35:30.000Z</time>
      </trkpt>
      <trkpt lat="42.70655" lon="1.20086">
        <ele>2011.5999755859</ele>
        <time>2023-07-25T12:35:34.000Z</time>
      </trkpt>
      <trkpt lat="42.70656" lon="1.20086">
        <ele>2011.8000488281</ele>
        <time>2023-07-25T12:35:36.000Z</time>
      </trkpt>
      <trkpt lat="42.70657" lon="1.20079">
        <ele>2012</ele>
        <time>2023-07-25T12:35:42.000Z</time>
      </trkpt>
      <trkpt lat="42.70658" lon="1.20072">
        <ele>2012.5999755859</ele>
        <time>2023-07-25T12:35:48.000Z</time>
      </trkpt>
      <trkpt lat="42.7066" lon="1.2007">
        <ele>2013</ele>
        <time>2023-07-25T12:35:50.000Z</time>
      </trkpt>
      <trkpt lat="42.70659" lon="1.20064">
        <ele>2013.4000244141</ele>
        <time>2023-07-25T12:35:54.000Z</time>
      </trkpt>
      <trkpt lat="42.70668" lon="1.20067">
        <ele>2013.4000244141</ele>
        <time>2023-07-25T12:36:05.000Z</time>
      </trkpt>
      <trkpt lat="42.70674" lon="1.20069">
        <ele>2013.8000488281</ele>
        <time>2023-07-25T12:36:21.000Z</time>
      </trkpt>
      <trkpt lat="42.70673" lon="1.20064">
        <ele>2014.5999755859</ele>
        <time>2023-07-25T12:36:28.000Z</time>
      </trkpt>
      <trkpt lat="42.70673" lon="1.20064">
        <ele>2014.8000488281</ele>
        <time>2023-07-25T12:36:29.000Z</time>
      </trkpt>
      <trkpt lat="42.70672" lon="1.20059">
        <ele>2015.4000244141</ele>
        <time>2023-07-25T12:36:35.000Z</time>
      </trkpt>
      <trkpt lat="42.70671" lon="1.20056">
        <ele>2016</ele>
        <time>2023-07-25T12:36:37.000Z</time>
      </trkpt>
      <trkpt lat="42.70671" lon="1.20054">
        <ele>2016.4000244141</ele>
        <time>2023-07-25T12:36:40.000Z</time>
      </trkpt>
      <trkpt lat="42.70667" lon="1.20049">
        <ele>2017.8000488281</ele>
        <time>2023-07-25T12:36:50.000Z</time>
      </trkpt>
      <trkpt lat="42.70668" lon="1.20046">
        <ele>2018</ele>
        <time>2023-07-25T12:36:54.000Z</time>
      </trkpt>
      <trkpt lat="42.70668" lon="1.20044">
        <ele>2018.4000244141</ele>
        <time>2023-07-25T12:36:57.000Z</time>
      </trkpt>
      <trkpt lat="42.70668" lon="1.2004">
        <ele>2019.1999511719</ele>
        <time>2023-07-25T12:37:02.000Z</time>
      </trkpt>
      <trkpt lat="42.70668" lon="1.2004">
        <ele>2019.1999511719</ele>
        <time>2023-07-25T12:37:03.000Z</time>
      </trkpt>
      <trkpt lat="42.70669" lon="1.20034">
        <ele>2020.1999511719</ele>
        <time>2023-07-25T12:37:11.000Z</time>
      </trkpt>
      <trkpt lat="42.70674" lon="1.20034">
        <ele>2021.4000244141</ele>
        <time>2023-07-25T12:37:18.000Z</time>
      </trkpt>
      <trkpt lat="42.70673" lon="1.20033">
        <ele>2021.4000244141</ele>
        <time>2023-07-25T12:37:19.000Z</time>
      </trkpt>
      <trkpt lat="42.70676" lon="1.20032">
        <ele>2022.4000244141</ele>
        <time>2023-07-25T12:37:26.000Z</time>
      </trkpt>
      <trkpt lat="42.70676" lon="1.20024">
        <ele>2023.1999511719</ele>
        <time>2023-07-25T12:37:32.000Z</time>
      </trkpt>
      <trkpt lat="42.70676" lon="1.20023">
        <ele>2023.4000244141</ele>
        <time>2023-07-25T12:37:34.000Z</time>
      </trkpt>
      <trkpt lat="42.70677" lon="1.20021">
        <ele>2024</ele>
        <time>2023-07-25T12:37:38.000Z</time>
      </trkpt>
      <trkpt lat="42.70678" lon="1.20017">
        <ele>2024.5999755859</ele>
        <time>2023-07-25T12:37:43.000Z</time>
      </trkpt>
      <trkpt lat="42.70677" lon="1.20015">
        <ele>2024.5999755859</ele>
        <time>2023-07-25T12:37:44.000Z</time>
      </trkpt>
      <trkpt lat="42.70679" lon="1.20006">
        <ele>2025.1999511719</ele>
        <time>2023-07-25T12:37:51.000Z</time>
      </trkpt>
      <trkpt lat="42.70681" lon="1.20014">
        <ele>2025.1999511719</ele>
        <time>2023-07-25T12:38:00.000Z</time>
      </trkpt>
      <trkpt lat="42.70684" lon="1.20017">
        <ele>2025.1999511719</ele>
        <time>2023-07-25T12:38:08.000Z</time>
      </trkpt>
      <trkpt lat="42.70685" lon="1.20015">
        <ele>2025.1999511719</ele>
        <time>2023-07-25T12:38:16.000Z</time>
      </trkpt>
      <trkpt lat="42.70683" lon="1.20016">
        <ele>2025.1999511719</ele>
        <time>2023-07-25T12:38:25.000Z</time>
      </trkpt>
      <trkpt lat="42.70684" lon="1.20013">
        <ele>2024.5999755859</ele>
        <time>2023-07-25T12:38:32.000Z</time>
      </trkpt>
      <trkpt lat="42.70688" lon="1.20015">
        <ele>2025.1999511719</ele>
        <time>2023-07-25T12:38:39.000Z</time>
      </trkpt>
      <trkpt lat="42.70689" lon="1.20017">
        <ele>2024.8000488281</ele>
        <time>2023-07-25T12:38:45.000Z</time>
      </trkpt>
      <trkpt lat="42.70684" lon="1.20015">
        <ele>2024.5999755859</ele>
        <time>2023-07-25T12:38:59.000Z</time>
      </trkpt>
      <trkpt lat="42.70683" lon="1.20016">
        <ele>2024.8000488281</ele>
        <time>2023-07-25T12:39:08.000Z</time>
      </trkpt>
      <trkpt lat="42.7068" lon="1.20014">
        <ele>2024.1999511719</ele>
        <time>2023-07-25T12:39:24.000Z</time>
      </trkpt>
      <trkpt lat="42.70681" lon="1.2001">
        <ele>2023.8000488281</ele>
        <time>2023-07-25T12:39:35.000Z</time>
      </trkpt>
      <trkpt lat="42.70686" lon="1.20009">
        <ele>2024.1999511719</ele>
        <time>2023-07-25T12:39:41.000Z</time>
      </trkpt>
      <trkpt lat="42.7069" lon="1.20003">
        <ele>2025.5999755859</ele>
        <time>2023-07-25T12:39:50.000Z</time>
      </trkpt>
      <trkpt lat="42.70689" lon="1.20001">
        <ele>2026</ele>
        <time>2023-07-25T12:39:52.000Z</time>
      </trkpt>
      <trkpt lat="42.70689" lon="1.19998">
        <ele>2026.5999755859</ele>
        <time>2023-07-25T12:39:55.000Z</time>
      </trkpt>
      <trkpt lat="42.70688" lon="1.19997">
        <ele>2026.8000488281</ele>
        <time>2023-07-25T12:39:56.000Z</time>
      </trkpt>
      <trkpt lat="42.7069" lon="1.19993">
        <ele>2027.8000488281</ele>
        <time>2023-07-25T12:40:02.000Z</time>
      </trkpt>
      <trkpt lat="42.7069" lon="1.19991">
        <ele>2028.1999511719</ele>
        <time>2023-07-25T12:40:04.000Z</time>
      </trkpt>
      <trkpt lat="42.70692" lon="1.19991">
        <ele>2029</ele>
        <time>2023-07-25T12:40:08.000Z</time>
      </trkpt>
      <trkpt lat="42.70691" lon="1.19988">
        <ele>2029.1999511719</ele>
        <time>2023-07-25T12:40:11.000Z</time>
      </trkpt>
      <trkpt lat="42.70694" lon="1.1999">
        <ele>2030</ele>
        <time>2023-07-25T12:40:16.000Z</time>
      </trkpt>
      <trkpt lat="42.70694" lon="1.19989">
        <ele>2030.4000244141</ele>
        <time>2023-07-25T12:40:19.000Z</time>
      </trkpt>
      <trkpt lat="42.70694" lon="1.19987">
        <ele>2031</ele>
        <time>2023-07-25T12:40:22.000Z</time>
      </trkpt>
      <trkpt lat="42.70695" lon="1.19982">
        <ele>2032</ele>
        <time>2023-07-25T12:40:27.000Z</time>
      </trkpt>
      <trkpt lat="42.70695" lon="1.19982">
        <ele>2032.1999511719</ele>
        <time>2023-07-25T12:40:28.000Z</time>
      </trkpt>
      <trkpt lat="42.70694" lon="1.19981">
        <ele>2033</ele>
        <time>2023-07-25T12:40:33.000Z</time>
      </trkpt>
      <trkpt lat="42.70693" lon="1.19981">
        <ele>2033.4000244141</ele>
        <time>2023-07-25T12:40:36.000Z</time>
      </trkpt>
      <trkpt lat="42.70692" lon="1.1998">
        <ele>2034</ele>
        <time>2023-07-25T12:40:43.000Z</time>
      </trkpt>
      <trkpt lat="42.70693" lon="1.19975">
        <ele>2034.4000244141</ele>
        <time>2023-07-25T12:40:50.000Z</time>
      </trkpt>
      <trkpt lat="42.70694" lon="1.19973">
        <ele>2035</ele>
        <time>2023-07-25T12:40:53.000Z</time>
      </trkpt>
      <trkpt lat="42.70694" lon="1.19976">
        <ele>2035.1999511719</ele>
        <time>2023-07-25T12:41:01.000Z</time>
      </trkpt>
      <trkpt lat="42.70693" lon="1.19976">
        <ele>2035.8000488281</ele>
        <time>2023-07-25T12:41:04.000Z</time>
      </trkpt>
      <trkpt lat="42.70692" lon="1.19973">
        <ele>2036.5999755859</ele>
        <time>2023-07-25T12:41:08.000Z</time>
      </trkpt>
      <trkpt lat="42.70692" lon="1.19973">
        <ele>2037</ele>
        <time>2023-07-25T12:41:09.000Z</time>
      </trkpt>
      <trkpt lat="42.70691" lon="1.19966">
        <ele>2037.5999755859</ele>
        <time>2023-07-25T12:41:14.000Z</time>
      </trkpt>
      <trkpt lat="42.70692" lon="1.19963">
        <ele>2038</ele>
        <time>2023-07-25T12:41:16.000Z</time>
      </trkpt>
      <trkpt lat="42.70692" lon="1.19959">
        <ele>2038.5999755859</ele>
        <time>2023-07-25T12:41:20.000Z</time>
      </trkpt>
      <trkpt lat="42.70692" lon="1.19957">
        <ele>2039</ele>
        <time>2023-07-25T12:41:22.000Z</time>
      </trkpt>
      <trkpt lat="42.70695" lon="1.1995">
        <ele>2039.5999755859</ele>
        <time>2023-07-25T12:41:29.000Z</time>
      </trkpt>
      <trkpt lat="42.70695" lon="1.19945">
        <ele>2040</ele>
        <time>2023-07-25T12:41:33.000Z</time>
      </trkpt>
      <trkpt lat="42.70695" lon="1.19943">
        <ele>2040.1999511719</ele>
        <time>2023-07-25T12:41:35.000Z</time>
      </trkpt>
      <trkpt lat="42.70696" lon="1.19932">
        <ele>2041.1999511719</ele>
        <time>2023-07-25T12:41:44.000Z</time>
      </trkpt>
      <trkpt lat="42.707" lon="1.19929">
        <ele>2042</ele>
        <time>2023-07-25T12:41:52.000Z</time>
      </trkpt>
      <trkpt lat="42.707" lon="1.19929">
        <ele>2042.1999511719</ele>
        <time>2023-07-25T12:41:53.000Z</time>
      </trkpt>
      <trkpt lat="42.70701" lon="1.19927">
        <ele>2043.1999511719</ele>
        <time>2023-07-25T12:41:57.000Z</time>
      </trkpt>
      <trkpt lat="42.70702" lon="1.19925">
        <ele>2043.1999511719</ele>
        <time>2023-07-25T12:41:59.000Z</time>
      </trkpt>
      <trkpt lat="42.70703" lon="1.19921">
        <ele>2044.1999511719</ele>
        <time>2023-07-25T12:42:05.000Z</time>
      </trkpt>
      <trkpt lat="42.70703" lon="1.19919">
        <ele>2044.4000244141</ele>
        <time>2023-07-25T12:42:07.000Z</time>
      </trkpt>
      <trkpt lat="42.70703" lon="1.19913">
        <ele>2045.1999511719</ele>
        <time>2023-07-25T12:42:11.000Z</time>
      </trkpt>
      <trkpt lat="42.70702" lon="1.1991">
        <ele>2045.4000244141</ele>
        <time>2023-07-25T12:42:14.000Z</time>
      </trkpt>
      <trkpt lat="42.707" lon="1.19903">
        <ele>2045.5999755859</ele>
        <time>2023-07-25T12:42:20.000Z</time>
      </trkpt>
      <trkpt lat="42.707" lon="1.19904">
        <ele>2046.4000244141</ele>
        <time>2023-07-25T12:42:22.000Z</time>
      </trkpt>
      <trkpt lat="42.707" lon="1.19905">
        <ele>2046.5999755859</ele>
        <time>2023-07-25T12:42:26.000Z</time>
      </trkpt>
      <trkpt lat="42.70701" lon="1.19901">
        <ele>2046.4000244141</ele>
        <time>2023-07-25T12:42:31.000Z</time>
      </trkpt>
      <trkpt lat="42.70701" lon="1.19896">
        <ele>2047.4000244141</ele>
        <time>2023-07-25T12:42:37.000Z</time>
      </trkpt>
      <trkpt lat="42.70701" lon="1.19889">
        <ele>2048</ele>
        <time>2023-07-25T12:42:44.000Z</time>
      </trkpt>
      <trkpt lat="42.70701" lon="1.19887">
        <ele>2048.3999023438</ele>
        <time>2023-07-25T12:42:48.000Z</time>
      </trkpt>
      <trkpt lat="42.70701" lon="1.19882">
        <ele>2049</ele>
        <time>2023-07-25T12:42:53.000Z</time>
      </trkpt>
      <trkpt lat="42.70703" lon="1.19875">
        <ele>2049.3999023438</ele>
        <time>2023-07-25T12:43:00.000Z</time>
      </trkpt>
      <trkpt lat="42.70703" lon="1.19873">
        <ele>2049.6000976562</ele>
        <time>2023-07-25T12:43:02.000Z</time>
      </trkpt>
      <trkpt lat="42.70703" lon="1.19869">
        <ele>2050.8000488281</ele>
        <time>2023-07-25T12:43:06.000Z</time>
      </trkpt>
      <trkpt lat="42.70702" lon="1.19867">
        <ele>2051</ele>
        <time>2023-07-25T12:43:08.000Z</time>
      </trkpt>
      <trkpt lat="42.70703" lon="1.19857">
        <ele>2051.6000976562</ele>
        <time>2023-07-25T12:43:16.000Z</time>
      </trkpt>
      <trkpt lat="42.70702" lon="1.19852">
        <ele>2052.1999511719</ele>
        <time>2023-07-25T12:43:22.000Z</time>
      </trkpt>
      <trkpt lat="42.70702" lon="1.19851">
        <ele>2052.3999023438</ele>
        <time>2023-07-25T12:43:23.000Z</time>
      </trkpt>
      <trkpt lat="42.70703" lon="1.19843">
        <ele>2052.6000976562</ele>
        <time>2023-07-25T12:43:29.000Z</time>
      </trkpt>
      <trkpt lat="42.70704" lon="1.19839">
        <ele>2053.1999511719</ele>
        <time>2023-07-25T12:43:33.000Z</time>
      </trkpt>
      <trkpt lat="42.70704" lon="1.19838">
        <ele>2053.3999023438</ele>
        <time>2023-07-25T12:43:36.000Z</time>
      </trkpt>
      <trkpt lat="42.70705" lon="1.19836">
        <ele>2054.1999511719</ele>
        <time>2023-07-25T12:43:39.000Z</time>
      </trkpt>
      <trkpt lat="42.70704" lon="1.19834">
        <ele>2054.6000976562</ele>
        <time>2023-07-25T12:43:42.000Z</time>
      </trkpt>
      <trkpt lat="42.70704" lon="1.19831">
        <ele>2055.1999511719</ele>
        <time>2023-07-25T12:43:46.000Z</time>
      </trkpt>
      <trkpt lat="42.70704" lon="1.19828">
        <ele>2055.6000976562</ele>
        <time>2023-07-25T12:43:48.000Z</time>
      </trkpt>
      <trkpt lat="42.70702" lon="1.19815">
        <ele>2056.3999023438</ele>
        <time>2023-07-25T12:43:55.000Z</time>
      </trkpt>
      <trkpt lat="42.70702" lon="1.19814">
        <ele>2056.3999023438</ele>
        <time>2023-07-25T12:43:56.000Z</time>
      </trkpt>
      <trkpt lat="42.70702" lon="1.19805">
        <ele>2057.1999511719</ele>
        <time>2023-07-25T12:44:03.000Z</time>
      </trkpt>
      <trkpt lat="42.70702" lon="1.19804">
        <ele>2057.6000976562</ele>
        <time>2023-07-25T12:44:04.000Z</time>
      </trkpt>
      <trkpt lat="42.70702" lon="1.19798">
        <ele>2058.3999023438</ele>
        <time>2023-07-25T12:44:09.000Z</time>
      </trkpt>
      <trkpt lat="42.70703" lon="1.19795">
        <ele>2058.8000488281</ele>
        <time>2023-07-25T12:44:12.000Z</time>
      </trkpt>
      <trkpt lat="42.70704" lon="1.19786">
        <ele>2058.6000976562</ele>
        <time>2023-07-25T12:44:19.000Z</time>
      </trkpt>
      <trkpt lat="42.70704" lon="1.19776">
        <ele>2059.6000976562</ele>
        <time>2023-07-25T12:44:26.000Z</time>
      </trkpt>
      <trkpt lat="42.70704" lon="1.19769">
        <ele>2060</ele>
        <time>2023-07-25T12:44:31.000Z</time>
      </trkpt>
      <trkpt lat="42.70704" lon="1.19764">
        <ele>2060.8000488281</ele>
        <time>2023-07-25T12:44:36.000Z</time>
      </trkpt>
      <trkpt lat="42.70703" lon="1.19759">
        <ele>2060.8000488281</ele>
        <time>2023-07-25T12:44:44.000Z</time>
      </trkpt>
      <trkpt lat="42.70703" lon="1.19759">
        <ele>2061</ele>
        <time>2023-07-25T12:44:45.000Z</time>
      </trkpt>
      <trkpt lat="42.70703" lon="1.19759">
        <ele>2061.1999511719</ele>
        <time>2023-07-25T12:44:47.000Z</time>
      </trkpt>
      <trkpt lat="42.70703" lon="1.19758">
        <ele>2061.1999511719</ele>
        <time>2023-07-25T12:44:49.000Z</time>
      </trkpt>
      <trkpt lat="42.70704" lon="1.19758">
        <ele>2061</ele>
        <time>2023-07-25T12:44:56.000Z</time>
      </trkpt>
      <trkpt lat="42.70701" lon="1.19758">
        <ele>2061.3999023438</ele>
        <time>2023-07-25T12:45:06.000Z</time>
      </trkpt>
      <trkpt lat="42.70703" lon="1.19759">
        <ele>2061.3999023438</ele>
        <time>2023-07-25T12:45:15.000Z</time>
      </trkpt>
      <trkpt lat="42.70709" lon="1.19764">
        <ele>2061.6000976562</ele>
        <time>2023-07-25T12:45:34.000Z</time>
      </trkpt>
      <trkpt lat="42.70706" lon="1.19763">
        <ele>2061.8000488281</ele>
        <time>2023-07-25T12:45:40.000Z</time>
      </trkpt>
      <trkpt lat="42.70703" lon="1.19759">
        <ele>2061.8000488281</ele>
        <time>2023-07-25T12:45:48.000Z</time>
      </trkpt>
      <trkpt lat="42.70704" lon="1.19759">
        <ele>2061.8000488281</ele>
        <time>2023-07-25T12:45:55.000Z</time>
      </trkpt>
      <trkpt lat="42.70704" lon="1.19758">
        <ele>2061.8000488281</ele>
        <time>2023-07-25T12:46:01.000Z</time>
      </trkpt>
      <trkpt lat="42.70705" lon="1.19755">
        <ele>2061.8000488281</ele>
        <time>2023-07-25T12:46:16.000Z</time>
      </trkpt>
      <trkpt lat="42.70704" lon="1.19753">
        <ele>2062</ele>
        <time>2023-07-25T12:46:20.000Z</time>
      </trkpt>
      <trkpt lat="42.70704" lon="1.19752">
        <ele>2063</ele>
        <time>2023-07-25T12:46:23.000Z</time>
      </trkpt>
      <trkpt lat="42.70704" lon="1.1975">
        <ele>2063.1999511719</ele>
        <time>2023-07-25T12:46:24.000Z</time>
      </trkpt>
      <trkpt lat="42.70704" lon="1.19745">
        <ele>2063.6000976562</ele>
        <time>2023-07-25T12:46:28.000Z</time>
      </trkpt>
      <trkpt lat="42.70704" lon="1.1974">
        <ele>2064</ele>
        <time>2023-07-25T12:46:33.000Z</time>
      </trkpt>
      <trkpt lat="42.70705" lon="1.1974">
        <ele>2064.1999511719</ele>
        <time>2023-07-25T12:46:34.000Z</time>
      </trkpt>
      <trkpt lat="42.70705" lon="1.19737">
        <ele>2064.8000488281</ele>
        <time>2023-07-25T12:46:39.000Z</time>
      </trkpt>
      <trkpt lat="42.70704" lon="1.19733">
        <ele>2065.1999511719</ele>
        <time>2023-07-25T12:46:45.000Z</time>
      </trkpt>
      <trkpt lat="42.70704" lon="1.19733">
        <ele>2065.3999023438</ele>
        <time>2023-07-25T12:46:46.000Z</time>
      </trkpt>
      <trkpt lat="42.70705" lon="1.19728">
        <ele>2066</ele>
        <time>2023-07-25T12:46:51.000Z</time>
      </trkpt>
      <trkpt lat="42.70704" lon="1.19724">
        <ele>2066.3999023438</ele>
        <time>2023-07-25T12:46:54.000Z</time>
      </trkpt>
      <trkpt lat="42.70704" lon="1.1972">
        <ele>2067</ele>
        <time>2023-07-25T12:46:58.000Z</time>
      </trkpt>
      <trkpt lat="42.70704" lon="1.19717">
        <ele>2067.6000976562</ele>
        <time>2023-07-25T12:47:03.000Z</time>
      </trkpt>
      <trkpt lat="42.70704" lon="1.19716">
        <ele>2067.8000488281</ele>
        <time>2023-07-25T12:47:04.000Z</time>
      </trkpt>
      <trkpt lat="42.70703" lon="1.19715">
        <ele>2068.6000976562</ele>
        <time>2023-07-25T12:47:09.000Z</time>
      </trkpt>
      <trkpt lat="42.70703" lon="1.19714">
        <ele>2068.6000976562</ele>
        <time>2023-07-25T12:47:10.000Z</time>
      </trkpt>
      <trkpt lat="42.70704" lon="1.1971">
        <ele>2069.8000488281</ele>
        <time>2023-07-25T12:47:16.000Z</time>
      </trkpt>
      <trkpt lat="42.70704" lon="1.1971">
        <ele>2070</ele>
        <time>2023-07-25T12:47:17.000Z</time>
      </trkpt>
      <trkpt lat="42.70705" lon="1.19706">
        <ele>2070.8000488281</ele>
        <time>2023-07-25T12:47:21.000Z</time>
      </trkpt>
      <trkpt lat="42.70707" lon="1.19704">
        <ele>2071</ele>
        <time>2023-07-25T12:47:27.000Z</time>
      </trkpt>
      <trkpt lat="42.70709" lon="1.19701">
        <ele>2072</ele>
        <time>2023-07-25T12:47:32.000Z</time>
      </trkpt>
      <trkpt lat="42.70711" lon="1.19698">
        <ele>2072.3999023438</ele>
        <time>2023-07-25T12:47:35.000Z</time>
      </trkpt>
      <trkpt lat="42.70713" lon="1.19695">
        <ele>2073</ele>
        <time>2023-07-25T12:47:40.000Z</time>
      </trkpt>
      <trkpt lat="42.70714" lon="1.19693">
        <ele>2073.3999023438</ele>
        <time>2023-07-25T12:47:43.000Z</time>
      </trkpt>
      <trkpt lat="42.70717" lon="1.19683">
        <ele>2073.6000976562</ele>
        <time>2023-07-25T12:47:50.000Z</time>
      </trkpt>
      <trkpt lat="42.70718" lon="1.19678">
        <ele>2074</ele>
        <time>2023-07-25T12:47:56.000Z</time>
      </trkpt>
      <trkpt lat="42.70719" lon="1.19671">
        <ele>2074.8000488281</ele>
        <time>2023-07-25T12:48:03.000Z</time>
      </trkpt>
      <trkpt lat="42.70717" lon="1.19669">
        <ele>2075</ele>
        <time>2023-07-25T12:48:06.000Z</time>
      </trkpt>
      <trkpt lat="42.70717" lon="1.19666">
        <ele>2075.3999023438</ele>
        <time>2023-07-25T12:48:09.000Z</time>
      </trkpt>
      <trkpt lat="42.70717" lon="1.19662">
        <ele>2076</ele>
        <time>2023-07-25T12:48:14.000Z</time>
      </trkpt>
      <trkpt lat="42.70716" lon="1.19661">
        <ele>2076.8000488281</ele>
        <time>2023-07-25T12:48:17.000Z</time>
      </trkpt>
      <trkpt lat="42.70716" lon="1.1966">
        <ele>2077.1999511719</ele>
        <time>2023-07-25T12:48:19.000Z</time>
      </trkpt>
      <trkpt lat="42.70717" lon="1.19655">
        <ele>2077.6000976562</ele>
        <time>2023-07-25T12:48:25.000Z</time>
      </trkpt>
      <trkpt lat="42.70718" lon="1.19645">
        <ele>2078.3999023438</ele>
        <time>2023-07-25T12:48:34.000Z</time>
      </trkpt>
      <trkpt lat="42.7072" lon="1.1964">
        <ele>2078.6000976562</ele>
        <time>2023-07-25T12:48:40.000Z</time>
      </trkpt>
      <trkpt lat="42.70721" lon="1.19635">
        <ele>2079.3999023438</ele>
        <time>2023-07-25T12:48:47.000Z</time>
      </trkpt>
      <trkpt lat="42.70721" lon="1.19634">
        <ele>2079.6000976562</ele>
        <time>2023-07-25T12:48:49.000Z</time>
      </trkpt>
      <trkpt lat="42.70722" lon="1.19632">
        <ele>2080.3999023438</ele>
        <time>2023-07-25T12:48:54.000Z</time>
      </trkpt>
      <trkpt lat="42.70723" lon="1.1963">
        <ele>2081</ele>
        <time>2023-07-25T12:48:56.000Z</time>
      </trkpt>
      <trkpt lat="42.70723" lon="1.19628">
        <ele>2081.6000976562</ele>
        <time>2023-07-25T12:48:58.000Z</time>
      </trkpt>
      <trkpt lat="42.70723" lon="1.19623">
        <ele>2082.3999023438</ele>
        <time>2023-07-25T12:49:04.000Z</time>
      </trkpt>
      <trkpt lat="42.70723" lon="1.19622">
        <ele>2082.6000976562</ele>
        <time>2023-07-25T12:49:07.000Z</time>
      </trkpt>
      <trkpt lat="42.70725" lon="1.19618">
        <ele>2083.3999023438</ele>
        <time>2023-07-25T12:49:13.000Z</time>
      </trkpt>
      <trkpt lat="42.70726" lon="1.19615">
        <ele>2083.6000976562</ele>
        <time>2023-07-25T12:49:16.000Z</time>
      </trkpt>
      <trkpt lat="42.70725" lon="1.19613">
        <ele>2084.1999511719</ele>
        <time>2023-07-25T12:49:20.000Z</time>
      </trkpt>
      <trkpt lat="42.70724" lon="1.19612">
        <ele>2084.8000488281</ele>
        <time>2023-07-25T12:49:23.000Z</time>
      </trkpt>
      <trkpt lat="42.70724" lon="1.1961">
        <ele>2085.1999511719</ele>
        <time>2023-07-25T12:49:27.000Z</time>
      </trkpt>
      <trkpt lat="42.70724" lon="1.19606">
        <ele>2085.8000488281</ele>
        <time>2023-07-25T12:49:31.000Z</time>
      </trkpt>
      <trkpt lat="42.70723" lon="1.19603">
        <ele>2086.1999511719</ele>
        <time>2023-07-25T12:49:33.000Z</time>
      </trkpt>
      <trkpt lat="42.70719" lon="1.19597">
        <ele>2086.6000976562</ele>
        <time>2023-07-25T12:49:41.000Z</time>
      </trkpt>
      <trkpt lat="42.70718" lon="1.19594">
        <ele>2087</ele>
        <time>2023-07-25T12:49:45.000Z</time>
      </trkpt>
      <trkpt lat="42.70717" lon="1.19591">
        <ele>2087</ele>
        <time>2023-07-25T12:49:50.000Z</time>
      </trkpt>
      <trkpt lat="42.70716" lon="1.19582">
        <ele>2087.1999511719</ele>
        <time>2023-07-25T12:49:56.000Z</time>
      </trkpt>
      <trkpt lat="42.70718" lon="1.19575">
        <ele>2087.8000488281</ele>
        <time>2023-07-25T12:50:03.000Z</time>
      </trkpt>
      <trkpt lat="42.70719" lon="1.19571">
        <ele>2088</ele>
        <time>2023-07-25T12:50:06.000Z</time>
      </trkpt>
      <trkpt lat="42.70719" lon="1.19567">
        <ele>2088.6000976562</ele>
        <time>2023-07-25T12:50:11.000Z</time>
      </trkpt>
      <trkpt lat="42.70719" lon="1.19565">
        <ele>2089</ele>
        <time>2023-07-25T12:50:13.000Z</time>
      </trkpt>
      <trkpt lat="42.70719" lon="1.1956">
        <ele>2090</ele>
        <time>2023-07-25T12:50:20.000Z</time>
      </trkpt>
      <trkpt lat="42.70719" lon="1.1956">
        <ele>2090.1999511719</ele>
        <time>2023-07-25T12:50:22.000Z</time>
      </trkpt>
      <trkpt lat="42.70719" lon="1.19556">
        <ele>2091.1999511719</ele>
        <time>2023-07-25T12:50:28.000Z</time>
      </trkpt>
      <trkpt lat="42.7072" lon="1.19554">
        <ele>2091.6000976562</ele>
        <time>2023-07-25T12:50:31.000Z</time>
      </trkpt>
      <trkpt lat="42.7072" lon="1.1955">
        <ele>2092.1999511719</ele>
        <time>2023-07-25T12:50:37.000Z</time>
      </trkpt>
      <trkpt lat="42.70721" lon="1.19546">
        <ele>2092.8000488281</ele>
        <time>2023-07-25T12:50:40.000Z</time>
      </trkpt>
      <trkpt lat="42.70721" lon="1.19541">
        <ele>2093.3999023438</ele>
        <time>2023-07-25T12:50:45.000Z</time>
      </trkpt>
      <trkpt lat="42.70721" lon="1.19539">
        <ele>2093.6000976562</ele>
        <time>2023-07-25T12:50:47.000Z</time>
      </trkpt>
      <trkpt lat="42.70722" lon="1.19533">
        <ele>2094.3999023438</ele>
        <time>2023-07-25T12:50:56.000Z</time>
      </trkpt>
      <trkpt lat="42.70722" lon="1.19532">
        <ele>2094.3999023438</ele>
        <time>2023-07-25T12:50:57.000Z</time>
      </trkpt>
      <trkpt lat="42.70723" lon="1.1953">
        <ele>2094.8000488281</ele>
        <time>2023-07-25T12:51:01.000Z</time>
      </trkpt>
      <trkpt lat="42.70725" lon="1.19523">
        <ele>2095.3999023438</ele>
        <time>2023-07-25T12:51:08.000Z</time>
      </trkpt>
      <trkpt lat="42.70725" lon="1.19521">
        <ele>2095.3999023438</ele>
        <time>2023-07-25T12:51:10.000Z</time>
      </trkpt>
      <trkpt lat="42.70727" lon="1.19516">
        <ele>2096.1999511719</ele>
        <time>2023-07-25T12:51:16.000Z</time>
      </trkpt>
      <trkpt lat="42.70727" lon="1.19512">
        <ele>2096.6000976562</ele>
        <time>2023-07-25T12:51:20.000Z</time>
      </trkpt>
      <trkpt lat="42.70728" lon="1.19509">
        <ele>2097</ele>
        <time>2023-07-25T12:51:23.000Z</time>
      </trkpt>
      <trkpt lat="42.70729" lon="1.19507">
        <ele>2097.6000976562</ele>
        <time>2023-07-25T12:51:26.000Z</time>
      </trkpt>
      <trkpt lat="42.70729" lon="1.19505">
        <ele>2098.1999511719</ele>
        <time>2023-07-25T12:51:29.000Z</time>
      </trkpt>
      <trkpt lat="42.70729" lon="1.19502">
        <ele>2098.8000488281</ele>
        <time>2023-07-25T12:51:32.000Z</time>
      </trkpt>
      <trkpt lat="42.70728" lon="1.19494">
        <ele>2098.6000976562</ele>
        <time>2023-07-25T12:51:40.000Z</time>
      </trkpt>
      <trkpt lat="42.70729" lon="1.19485">
        <ele>2099.1999511719</ele>
        <time>2023-07-25T12:51:47.000Z</time>
      </trkpt>
      <trkpt lat="42.7073" lon="1.1948">
        <ele>2097.8000488281</ele>
        <time>2023-07-25T12:51:54.000Z</time>
      </trkpt>
      <trkpt lat="42.7073" lon="1.1948">
        <ele>2097.6000976562</ele>
        <time>2023-07-25T12:51:55.000Z</time>
      </trkpt>
      <trkpt lat="42.70733" lon="1.19475">
        <ele>2098.1999511719</ele>
        <time>2023-07-25T12:52:01.000Z</time>
      </trkpt>
      <trkpt lat="42.70736" lon="1.19469">
        <ele>2098.1999511719</ele>
        <time>2023-07-25T12:52:07.000Z</time>
      </trkpt>
      <trkpt lat="42.70737" lon="1.19465">
        <ele>2098.8000488281</ele>
        <time>2023-07-25T12:52:12.000Z</time>
      </trkpt>
      <trkpt lat="42.70737" lon="1.19465">
        <ele>2099</ele>
        <time>2023-07-25T12:52:13.000Z</time>
      </trkpt>
      <trkpt lat="42.70737" lon="1.19463">
        <ele>2099.6000976562</ele>
        <time>2023-07-25T12:52:19.000Z</time>
      </trkpt>
      <trkpt lat="42.70737" lon="1.19463">
        <ele>2099.8000488281</ele>
        <time>2023-07-25T12:52:20.000Z</time>
      </trkpt>
      <trkpt lat="42.70737" lon="1.19455">
        <ele>2101</ele>
        <time>2023-07-25T12:52:24.000Z</time>
      </trkpt>
      <trkpt lat="42.70737" lon="1.19454">
        <ele>2101.3999023438</ele>
        <time>2023-07-25T12:52:25.000Z</time>
      </trkpt>
      <trkpt lat="42.70738" lon="1.1945">
        <ele>2101.6000976562</ele>
        <time>2023-07-25T12:52:32.000Z</time>
      </trkpt>
      <trkpt lat="42.70738" lon="1.19444">
        <ele>2099.8000488281</ele>
        <time>2023-07-25T12:52:38.000Z</time>
      </trkpt>
      <trkpt lat="42.70738" lon="1.19441">
        <ele>2099.6000976562</ele>
        <time>2023-07-25T12:52:40.000Z</time>
      </trkpt>
      <trkpt lat="42.7074" lon="1.19432">
        <ele>2099.3999023438</ele>
        <time>2023-07-25T12:52:49.000Z</time>
      </trkpt>
      <trkpt lat="42.70739" lon="1.19421">
        <ele>2099.1999511719</ele>
        <time>2023-07-25T12:52:57.000Z</time>
      </trkpt>
      <trkpt lat="42.7074" lon="1.1941">
        <ele>2099.8000488281</ele>
        <time>2023-07-25T12:53:04.000Z</time>
      </trkpt>
      <trkpt lat="42.70739" lon="1.19405">
        <ele>2100</ele>
        <time>2023-07-25T12:53:10.000Z</time>
      </trkpt>
      <trkpt lat="42.70739" lon="1.19397">
        <ele>2100.8000488281</ele>
        <time>2023-07-25T12:53:17.000Z</time>
      </trkpt>
      <trkpt lat="42.70739" lon="1.19396">
        <ele>2100.8000488281</ele>
        <time>2023-07-25T12:53:18.000Z</time>
      </trkpt>
      <trkpt lat="42.70739" lon="1.19385">
        <ele>2101.3999023438</ele>
        <time>2023-07-25T12:53:28.000Z</time>
      </trkpt>
      <trkpt lat="42.70738" lon="1.19379">
        <ele>2101.8000488281</ele>
        <time>2023-07-25T12:53:34.000Z</time>
      </trkpt>
      <trkpt lat="42.70737" lon="1.19379">
        <ele>2102</ele>
        <time>2023-07-25T12:53:36.000Z</time>
      </trkpt>
      <trkpt lat="42.70737" lon="1.19377">
        <ele>2102</ele>
        <time>2023-07-25T12:53:38.000Z</time>
      </trkpt>
      <trkpt lat="42.70737" lon="1.19378">
        <ele>2102.1999511719</ele>
        <time>2023-07-25T12:53:40.000Z</time>
      </trkpt>
      <trkpt lat="42.70735" lon="1.19381">
        <ele>2102.6000976562</ele>
        <time>2023-07-25T12:53:49.000Z</time>
      </trkpt>
      <trkpt lat="42.70735" lon="1.19375">
        <ele>2102.1999511719</ele>
        <time>2023-07-25T12:53:57.000Z</time>
      </trkpt>
      <trkpt lat="42.70732" lon="1.19364">
        <ele>2102.3999023438</ele>
        <time>2023-07-25T12:54:04.000Z</time>
      </trkpt>
      <trkpt lat="42.70731" lon="1.19357">
        <ele>2103</ele>
        <time>2023-07-25T12:54:10.000Z</time>
      </trkpt>
      <trkpt lat="42.70731" lon="1.19356">
        <ele>2103</ele>
        <time>2023-07-25T12:54:11.000Z</time>
      </trkpt>
      <trkpt lat="42.70731" lon="1.19346">
        <ele>2103.1999511719</ele>
        <time>2023-07-25T12:54:18.000Z</time>
      </trkpt>
      <trkpt lat="42.70731" lon="1.19336">
        <ele>2103.6000976562</ele>
        <time>2023-07-25T12:54:25.000Z</time>
      </trkpt>
      <trkpt lat="42.70731" lon="1.19329">
        <ele>2104</ele>
        <time>2023-07-25T12:54:32.000Z</time>
      </trkpt>
      <trkpt lat="42.7073" lon="1.19328">
        <ele>2104.1999511719</ele>
        <time>2023-07-25T12:54:33.000Z</time>
      </trkpt>
      <trkpt lat="42.70731" lon="1.1932">
        <ele>2104.8000488281</ele>
        <time>2023-07-25T12:54:40.000Z</time>
      </trkpt>
      <trkpt lat="42.70732" lon="1.19319">
        <ele>2105.1999511719</ele>
        <time>2023-07-25T12:54:42.000Z</time>
      </trkpt>
      <trkpt lat="42.70733" lon="1.19314">
        <ele>2105.8000488281</ele>
        <time>2023-07-25T12:54:48.000Z</time>
      </trkpt>
      <trkpt lat="42.70736" lon="1.19317">
        <ele>2105.8000488281</ele>
        <time>2023-07-25T12:54:56.000Z</time>
      </trkpt>
      <trkpt lat="42.70735" lon="1.19313">
        <ele>2106</ele>
        <time>2023-07-25T12:55:06.000Z</time>
      </trkpt>
      <trkpt lat="42.70739" lon="1.19314">
        <ele>2106</ele>
        <time>2023-07-25T12:55:15.000Z</time>
      </trkpt>
      <trkpt lat="42.70741" lon="1.19313">
        <ele>2105.8000488281</ele>
        <time>2023-07-25T12:55:22.000Z</time>
      </trkpt>
      <trkpt lat="42.70743" lon="1.19306">
        <ele>2106.1999511719</ele>
        <time>2023-07-25T12:55:30.000Z</time>
      </trkpt>
      <trkpt lat="42.70745" lon="1.19301">
        <ele>2106.8000488281</ele>
        <time>2023-07-25T12:55:38.000Z</time>
      </trkpt>
      <trkpt lat="42.70744" lon="1.19301">
        <ele>2107.3999023438</ele>
        <time>2023-07-25T12:55:40.000Z</time>
      </trkpt>
      <trkpt lat="42.70743" lon="1.19298">
        <ele>2107.6000976562</ele>
        <time>2023-07-25T12:55:44.000Z</time>
      </trkpt>
      <trkpt lat="42.70739" lon="1.19289">
        <ele>2107.3999023438</ele>
        <time>2023-07-25T12:55:52.000Z</time>
      </trkpt>
      <trkpt lat="42.70737" lon="1.19282">
        <ele>2107.6000976562</ele>
        <time>2023-07-25T12:56:01.000Z</time>
      </trkpt>
      <trkpt lat="42.70736" lon="1.19272">
        <ele>2107.6000976562</ele>
        <time>2023-07-25T12:56:10.000Z</time>
      </trkpt>
      <trkpt lat="42.70736" lon="1.19268">
        <ele>2107.6000976562</ele>
        <time>2023-07-25T12:56:18.000Z</time>
      </trkpt>
      <trkpt lat="42.70738" lon="1.19264">
        <ele>2107.6000976562</ele>
        <time>2023-07-25T12:56:25.000Z</time>
      </trkpt>
      <trkpt lat="42.70741" lon="1.19266">
        <ele>2107.6000976562</ele>
        <time>2023-07-25T12:56:32.000Z</time>
      </trkpt>
      <trkpt lat="42.7074" lon="1.19264">
        <ele>2107.6000976562</ele>
        <time>2023-07-25T12:56:40.000Z</time>
      </trkpt>
      <trkpt lat="42.70737" lon="1.19266">
        <ele>2107</ele>
        <time>2023-07-25T12:56:51.000Z</time>
      </trkpt>
      <trkpt lat="42.70734" lon="1.19263">
        <ele>2106.6000976562</ele>
        <time>2023-07-25T12:57:02.000Z</time>
      </trkpt>
      <trkpt lat="42.70736" lon="1.19266">
        <ele>2106.3999023438</ele>
        <time>2023-07-25T12:57:08.000Z</time>
      </trkpt>
      <trkpt lat="42.70736" lon="1.19266">
        <ele>2106.1999511719</ele>
        <time>2023-07-25T12:57:10.000Z</time>
      </trkpt>
      <trkpt lat="42.70737" lon="1.19267">
        <ele>2106.6000976562</ele>
        <time>2023-07-25T12:57:17.000Z</time>
      </trkpt>
      <trkpt lat="42.70737" lon="1.19266">
        <ele>2107.3999023438</ele>
        <time>2023-07-25T12:57:21.000Z</time>
      </trkpt>
      <trkpt lat="42.70739" lon="1.19266">
        <ele>2107.6000976562</ele>
        <time>2023-07-25T12:57:25.000Z</time>
      </trkpt>
      <trkpt lat="42.70739" lon="1.19262">
        <ele>2107.6000976562</ele>
        <time>2023-07-25T12:57:32.000Z</time>
      </trkpt>
      <trkpt lat="42.70736" lon="1.19255">
        <ele>2107.8000488281</ele>
        <time>2023-07-25T12:57:40.000Z</time>
      </trkpt>
      <trkpt lat="42.70733" lon="1.19251">
        <ele>2108.1999511719</ele>
        <time>2023-07-25T12:57:47.000Z</time>
      </trkpt>
      <trkpt lat="42.70728" lon="1.19247">
        <ele>2107.8000488281</ele>
        <time>2023-07-25T12:57:54.000Z</time>
      </trkpt>
      <trkpt lat="42.70722" lon="1.19242">
        <ele>2108.1999511719</ele>
        <time>2023-07-25T12:58:03.000Z</time>
      </trkpt>
      <trkpt lat="42.70719" lon="1.19241">
        <ele>2108.6000976562</ele>
        <time>2023-07-25T12:58:06.000Z</time>
      </trkpt>
      <trkpt lat="42.70714" lon="1.19236">
        <ele>2109</ele>
        <time>2023-07-25T12:58:11.000Z</time>
      </trkpt>
      <trkpt lat="42.70709" lon="1.1923">
        <ele>2109.3999023438</ele>
        <time>2023-07-25T12:58:18.000Z</time>
      </trkpt>
      <trkpt lat="42.70706" lon="1.19227">
        <ele>2109.6000976562</ele>
        <time>2023-07-25T12:58:22.000Z</time>
      </trkpt>
      <trkpt lat="42.70702" lon="1.19225">
        <ele>2109.8000488281</ele>
        <time>2023-07-25T12:58:26.000Z</time>
      </trkpt>
      <trkpt lat="42.70697" lon="1.19223">
        <ele>2110.6000976562</ele>
        <time>2023-07-25T12:58:33.000Z</time>
      </trkpt>
      <trkpt lat="42.70698" lon="1.19224">
        <ele>2110.8000488281</ele>
        <time>2023-07-25T12:58:35.000Z</time>
      </trkpt>
      <trkpt lat="42.70696" lon="1.19227">
        <ele>2111.3999023438</ele>
        <time>2023-07-25T12:58:42.000Z</time>
      </trkpt>
      <trkpt lat="42.70694" lon="1.19229">
        <ele>2111.6000976562</ele>
        <time>2023-07-25T12:58:47.000Z</time>
      </trkpt>
      <trkpt lat="42.70692" lon="1.19232">
        <ele>2112</ele>
        <time>2023-07-25T12:58:50.000Z</time>
      </trkpt>
      <trkpt lat="42.70691" lon="1.19234">
        <ele>2112.6000976562</ele>
        <time>2023-07-25T12:58:54.000Z</time>
      </trkpt>
      <trkpt lat="42.7069" lon="1.19235">
        <ele>2112.8000488281</ele>
        <time>2023-07-25T12:58:57.000Z</time>
      </trkpt>
      <trkpt lat="42.70687" lon="1.19233">
        <ele>2113.6000976562</ele>
        <time>2023-07-25T12:59:04.000Z</time>
      </trkpt>
      <trkpt lat="42.70686" lon="1.19232">
        <ele>2113.8000488281</ele>
        <time>2023-07-25T12:59:05.000Z</time>
      </trkpt>
      <trkpt lat="42.70685" lon="1.19232">
        <ele>2114.8000488281</ele>
        <time>2023-07-25T12:59:10.000Z</time>
      </trkpt>
      <trkpt lat="42.70685" lon="1.19234">
        <ele>2115.1999511719</ele>
        <time>2023-07-25T12:59:13.000Z</time>
      </trkpt>
      <trkpt lat="42.70685" lon="1.19235">
        <ele>2115.8000488281</ele>
        <time>2023-07-25T12:59:20.000Z</time>
      </trkpt>
      <trkpt lat="42.70685" lon="1.19235">
        <ele>2116</ele>
        <time>2023-07-25T12:59:22.000Z</time>
      </trkpt>
      <trkpt lat="42.70684" lon="1.19238">
        <ele>2116</ele>
        <time>2023-07-25T12:59:28.000Z</time>
      </trkpt>
      <trkpt lat="42.70683" lon="1.19238">
        <ele>2115.8000488281</ele>
        <time>2023-07-25T12:59:37.000Z</time>
      </trkpt>
      <trkpt lat="42.70684" lon="1.19235">
        <ele>2115.8000488281</ele>
        <time>2023-07-25T12:59:43.000Z</time>
      </trkpt>
      <trkpt lat="42.70683" lon="1.19234">
        <ele>2115.6000976562</ele>
        <time>2023-07-25T12:59:49.000Z</time>
      </trkpt>
      <trkpt lat="42.70682" lon="1.19232">
        <ele>2115.6000976562</ele>
        <time>2023-07-25T12:59:56.000Z</time>
      </trkpt>
      <trkpt lat="42.70681" lon="1.19233">
        <ele>2116</ele>
        <time>2023-07-25T13:00:04.000Z</time>
      </trkpt>
      <trkpt lat="42.70681" lon="1.19233">
        <ele>2115.8000488281</ele>
        <time>2023-07-25T13:00:14.000Z</time>
      </trkpt>
      <trkpt lat="42.70682" lon="1.19235">
        <ele>2116</ele>
        <time>2023-07-25T13:00:23.000Z</time>
      </trkpt>
      <trkpt lat="42.70681" lon="1.19237">
        <ele>2115.8000488281</ele>
        <time>2023-07-25T13:00:32.000Z</time>
      </trkpt>
      <trkpt lat="42.70683" lon="1.19235">
        <ele>2116</ele>
        <time>2023-07-25T13:00:40.000Z</time>
      </trkpt>
      <trkpt lat="42.70681" lon="1.19237">
        <ele>2116.6000976562</ele>
        <time>2023-07-25T13:00:50.000Z</time>
      </trkpt>
      <trkpt lat="42.70682" lon="1.19237">
        <ele>2116.6000976562</ele>
        <time>2023-07-25T13:00:59.000Z</time>
      </trkpt>
      <trkpt lat="42.70683" lon="1.19238">
        <ele>2116.1999511719</ele>
        <time>2023-07-25T13:01:07.000Z</time>
      </trkpt>
      <trkpt lat="42.70686" lon="1.19238">
        <ele>2115.8000488281</ele>
        <time>2023-07-25T13:01:15.000Z</time>
      </trkpt>
      <trkpt lat="42.70689" lon="1.19236">
        <ele>2115.8000488281</ele>
        <time>2023-07-25T13:01:21.000Z</time>
      </trkpt>
      <trkpt lat="42.70686" lon="1.19236">
        <ele>2116</ele>
        <time>2023-07-25T13:01:28.000Z</time>
      </trkpt>
      <trkpt lat="42.70687" lon="1.19236">
        <ele>2116</ele>
        <time>2023-07-25T13:01:35.000Z</time>
      </trkpt>
      <trkpt lat="42.70687" lon="1.19235">
        <ele>2116.1999511719</ele>
        <time>2023-07-25T13:01:43.000Z</time>
      </trkpt>
      <trkpt lat="42.70682" lon="1.19239">
        <ele>2116</ele>
        <time>2023-07-25T13:01:51.000Z</time>
      </trkpt>
      <trkpt lat="42.70682" lon="1.19239">
        <ele>2116</ele>
        <time>2023-07-25T13:02:00.000Z</time>
      </trkpt>
      <trkpt lat="42.70683" lon="1.19236">
        <ele>2116</ele>
        <time>2023-07-25T13:02:07.000Z</time>
      </trkpt>
      <trkpt lat="42.70683" lon="1.19236">
        <ele>2116.1999511719</ele>
        <time>2023-07-25T13:02:17.000Z</time>
      </trkpt>
      <trkpt lat="42.70683" lon="1.19236">
        <ele>2116</ele>
        <time>2023-07-25T13:02:23.000Z</time>
      </trkpt>
      <trkpt lat="42.70684" lon="1.19238">
        <ele>2115.8000488281</ele>
        <time>2023-07-25T13:02:31.000Z</time>
      </trkpt>
      <trkpt lat="42.70684" lon="1.19236">
        <ele>2116</ele>
        <time>2023-07-25T13:02:40.000Z</time>
      </trkpt>
      <trkpt lat="42.70683" lon="1.19235">
        <ele>2116</ele>
        <time>2023-07-25T13:02:48.000Z</time>
      </trkpt>
      <trkpt lat="42.70685" lon="1.19234">
        <ele>2116.3999023438</ele>
        <time>2023-07-25T13:02:56.000Z</time>
      </trkpt>
      <trkpt lat="42.70684" lon="1.19237">
        <ele>2116.3999023438</ele>
        <time>2023-07-25T13:03:06.000Z</time>
      </trkpt>
      <trkpt lat="42.70685" lon="1.19237">
        <ele>2116.3999023438</ele>
        <time>2023-07-25T13:03:10.000Z</time>
      </trkpt>
      <trkpt lat="42.70683" lon="1.19241">
        <ele>2116.6000976562</ele>
        <time>2023-07-25T13:03:19.000Z</time>
      </trkpt>
      <trkpt lat="42.70682" lon="1.19241">
        <ele>2117</ele>
        <time>2023-07-25T13:03:21.000Z</time>
      </trkpt>
      <trkpt lat="42.70678" lon="1.19246">
        <ele>2118</ele>
        <time>2023-07-25T13:03:30.000Z</time>
      </trkpt>
      <trkpt lat="42.70674" lon="1.19249">
        <ele>2119.1999511719</ele>
        <time>2023-07-25T13:03:37.000Z</time>
      </trkpt>
      <trkpt lat="42.70675" lon="1.19249">
        <ele>2119.3999023438</ele>
        <time>2023-07-25T13:03:39.000Z</time>
      </trkpt>
      <trkpt lat="42.70677" lon="1.19248">
        <ele>2119.3999023438</ele>
        <time>2023-07-25T13:03:46.000Z</time>
      </trkpt>
      <trkpt lat="42.70681" lon="1.1924">
        <ele>2118.3999023438</ele>
        <time>2023-07-25T13:03:55.000Z</time>
      </trkpt>
      <trkpt lat="42.7068" lon="1.1923">
        <ele>2119.3999023438</ele>
        <time>2023-07-25T13:04:03.000Z</time>
      </trkpt>
      <trkpt lat="42.70682" lon="1.19222">
        <ele>2119.6000976562</ele>
        <time>2023-07-25T13:04:11.000Z</time>
      </trkpt>
      <trkpt lat="42.70683" lon="1.19219">
        <ele>2119.6000976562</ele>
        <time>2023-07-25T13:04:19.000Z</time>
      </trkpt>
      <trkpt lat="42.70685" lon="1.19217">
        <ele>2119.8000488281</ele>
        <time>2023-07-25T13:04:27.000Z</time>
      </trkpt>
      <trkpt lat="42.70686" lon="1.19212">
        <ele>2118.6000976562</ele>
        <time>2023-07-25T13:04:38.000Z</time>
      </trkpt>
      <trkpt lat="42.70684" lon="1.19217">
        <ele>2118.6000976562</ele>
        <time>2023-07-25T13:04:46.000Z</time>
      </trkpt>
      <trkpt lat="42.70685" lon="1.19215">
        <ele>2118.3999023438</ele>
        <time>2023-07-25T13:04:52.000Z</time>
      </trkpt>
      <trkpt lat="42.70686" lon="1.19207">
        <ele>2118.3999023438</ele>
        <time>2023-07-25T13:04:59.000Z</time>
      </trkpt>
      <trkpt lat="42.70682" lon="1.19203">
        <ele>2119.1999511719</ele>
        <time>2023-07-25T13:05:07.000Z</time>
      </trkpt>
      <trkpt lat="42.70679" lon="1.19204">
        <ele>2120.3999023438</ele>
        <time>2023-07-25T13:05:16.000Z</time>
      </trkpt>
      <trkpt lat="42.70682" lon="1.19201">
        <ele>2120.8000488281</ele>
        <time>2023-07-25T13:05:24.000Z</time>
      </trkpt>
      <trkpt lat="42.70683" lon="1.19203">
        <ele>2120.6000976562</ele>
        <time>2023-07-25T13:05:34.000Z</time>
      </trkpt>
      <trkpt lat="42.70683" lon="1.19202">
        <ele>2120.3999023438</ele>
        <time>2023-07-25T13:05:42.000Z</time>
      </trkpt>
      <trkpt lat="42.70681" lon="1.19206">
        <ele>2120.8000488281</ele>
        <time>2023-07-25T13:05:49.000Z</time>
      </trkpt>
      <trkpt lat="42.70679" lon="1.19214">
        <ele>2121.1999511719</ele>
        <time>2023-07-25T13:05:56.000Z</time>
      </trkpt>
      <trkpt lat="42.70678" lon="1.19215">
        <ele>2121.3999023438</ele>
        <time>2023-07-25T13:05:58.000Z</time>
      </trkpt>
      <trkpt lat="42.70676" lon="1.19216">
        <ele>2121.3999023438</ele>
        <time>2023-07-25T13:06:00.000Z</time>
      </trkpt>
      <trkpt lat="42.70676" lon="1.19216">
        <ele>2121.8000488281</ele>
        <time>2023-07-25T13:06:03.000Z</time>
      </trkpt>
      <trkpt lat="42.70676" lon="1.19218">
        <ele>2122</ele>
        <time>2023-07-25T13:06:13.000Z</time>
      </trkpt>
      <trkpt lat="42.70678" lon="1.19221">
        <ele>2122</ele>
        <time>2023-07-25T13:06:22.000Z</time>
      </trkpt>
      <trkpt lat="42.70678" lon="1.19219">
        <ele>2122.3999023438</ele>
        <time>2023-07-25T13:06:28.000Z</time>
      </trkpt>
      <trkpt lat="42.70678" lon="1.19217">
        <ele>2122.3999023438</ele>
        <time>2023-07-25T13:06:31.000Z</time>
      </trkpt>
      <trkpt lat="42.70677" lon="1.19224">
        <ele>2121.6000976562</ele>
        <time>2023-07-25T13:06:40.000Z</time>
      </trkpt>
      <trkpt lat="42.70676" lon="1.19227">
        <ele>2121.3999023438</ele>
        <time>2023-07-25T13:06:43.000Z</time>
      </trkpt>
      <trkpt lat="42.70676" lon="1.1923">
        <ele>2121.3999023438</ele>
        <time>2023-07-25T13:06:46.000Z</time>
      </trkpt>
      <trkpt lat="42.70676" lon="1.19239">
        <ele>2121.6000976562</ele>
        <time>2023-07-25T13:06:54.000Z</time>
      </trkpt>
      <trkpt lat="42.70675" lon="1.19242">
        <ele>2122.6000976562</ele>
        <time>2023-07-25T13:06:59.000Z</time>
      </trkpt>
      <trkpt lat="42.70673" lon="1.19244">
        <ele>2123.1999511719</ele>
        <time>2023-07-25T13:07:02.000Z</time>
      </trkpt>
      <trkpt lat="42.70671" lon="1.19238">
        <ele>2123.6000976562</ele>
        <time>2023-07-25T13:07:08.000Z</time>
      </trkpt>
      <trkpt lat="42.7067" lon="1.19235">
        <ele>2124.8000488281</ele>
        <time>2023-07-25T13:07:13.000Z</time>
      </trkpt>
      <trkpt lat="42.7067" lon="1.19234">
        <ele>2125.1999511719</ele>
        <time>2023-07-25T13:07:16.000Z</time>
      </trkpt>
      <trkpt lat="42.7067" lon="1.19233">
        <ele>2125.8000488281</ele>
        <time>2023-07-25T13:07:21.000Z</time>
      </trkpt>
      <trkpt lat="42.7067" lon="1.1923">
        <ele>2126.1999511719</ele>
        <time>2023-07-25T13:07:24.000Z</time>
      </trkpt>
      <trkpt lat="42.70669" lon="1.19228">
        <ele>2127</ele>
        <time>2023-07-25T13:07:29.000Z</time>
      </trkpt>
      <trkpt lat="42.70669" lon="1.19227">
        <ele>2127.1999511719</ele>
        <time>2023-07-25T13:07:31.000Z</time>
      </trkpt>
      <trkpt lat="42.7067" lon="1.1922">
        <ele>2128</ele>
        <time>2023-07-25T13:07:38.000Z</time>
      </trkpt>
      <trkpt lat="42.70671" lon="1.19219">
        <ele>2128</ele>
        <time>2023-07-25T13:07:40.000Z</time>
      </trkpt>
      <trkpt lat="42.70671" lon="1.19213">
        <ele>2128.8000488281</ele>
        <time>2023-07-25T13:07:48.000Z</time>
      </trkpt>
      <trkpt lat="42.70671" lon="1.19212">
        <ele>2129</ele>
        <time>2023-07-25T13:07:49.000Z</time>
      </trkpt>
      <trkpt lat="42.70667" lon="1.19214">
        <ele>2129.8000488281</ele>
        <time>2023-07-25T13:07:58.000Z</time>
      </trkpt>
      <trkpt lat="42.70667" lon="1.19215">
        <ele>2130</ele>
        <time>2023-07-25T13:07:59.000Z</time>
      </trkpt>
      <trkpt lat="42.70667" lon="1.19217">
        <ele>2131</ele>
        <time>2023-07-25T13:08:05.000Z</time>
      </trkpt>
      <trkpt lat="42.70667" lon="1.19217">
        <ele>2131.1999511719</ele>
        <time>2023-07-25T13:08:07.000Z</time>
      </trkpt>
      <trkpt lat="42.70667" lon="1.19218">
        <ele>2132</ele>
        <time>2023-07-25T13:08:13.000Z</time>
      </trkpt>
      <trkpt lat="42.70666" lon="1.19218">
        <ele>2132.1999511719</ele>
        <time>2023-07-25T13:08:15.000Z</time>
      </trkpt>
      <trkpt lat="42.70665" lon="1.19219">
        <ele>2132.6000976562</ele>
        <time>2023-07-25T13:08:21.000Z</time>
      </trkpt>
      <trkpt lat="42.70663" lon="1.19218">
        <ele>2133.1999511719</ele>
        <time>2023-07-25T13:08:25.000Z</time>
      </trkpt>
      <trkpt lat="42.7066" lon="1.19218">
        <ele>2134</ele>
        <time>2023-07-25T13:08:30.000Z</time>
      </trkpt>
      <trkpt lat="42.7066" lon="1.19219">
        <ele>2134.3999023438</ele>
        <time>2023-07-25T13:08:33.000Z</time>
      </trkpt>
      <trkpt lat="42.70662" lon="1.1922">
        <ele>2135</ele>
        <time>2023-07-25T13:08:37.000Z</time>
      </trkpt>
      <trkpt lat="42.7066" lon="1.19221">
        <ele>2135.3999023438</ele>
        <time>2023-07-25T13:08:44.000Z</time>
      </trkpt>
      <trkpt lat="42.70659" lon="1.1922">
        <ele>2135.6000976562</ele>
        <time>2023-07-25T13:08:45.000Z</time>
      </trkpt>
      <trkpt lat="42.70659" lon="1.19219">
        <ele>2136.1999511719</ele>
        <time>2023-07-25T13:08:51.000Z</time>
      </trkpt>
      <trkpt lat="42.7066" lon="1.19217">
        <ele>2136.6000976562</ele>
        <time>2023-07-25T13:08:54.000Z</time>
      </trkpt>
      <trkpt lat="42.70659" lon="1.19216">
        <ele>2136.8000488281</ele>
        <time>2023-07-25T13:08:56.000Z</time>
      </trkpt>
      <trkpt lat="42.70655" lon="1.19216">
        <ele>2137.6000976562</ele>
        <time>2023-07-25T13:09:02.000Z</time>
      </trkpt>
      <trkpt lat="42.70654" lon="1.19216">
        <ele>2137.6000976562</ele>
        <time>2023-07-25T13:09:03.000Z</time>
      </trkpt>
      <trkpt lat="42.70652" lon="1.19215">
        <ele>2138.8000488281</ele>
        <time>2023-07-25T13:09:11.000Z</time>
      </trkpt>
      <trkpt lat="42.7065" lon="1.19213">
        <ele>2139.3999023438</ele>
        <time>2023-07-25T13:09:18.000Z</time>
      </trkpt>
      <trkpt lat="42.70649" lon="1.19217">
        <ele>2139.1999511719</ele>
        <time>2023-07-25T13:09:27.000Z</time>
      </trkpt>
      <trkpt lat="42.70645" lon="1.19218">
        <ele>2139.8000488281</ele>
        <time>2023-07-25T13:09:33.000Z</time>
      </trkpt>
      <trkpt lat="42.70643" lon="1.19218">
        <ele>2140.3999023438</ele>
        <time>2023-07-25T13:09:35.000Z</time>
      </trkpt>
      <trkpt lat="42.70643" lon="1.19219">
        <ele>2141</ele>
        <time>2023-07-25T13:09:38.000Z</time>
      </trkpt>
      <trkpt lat="42.7064" lon="1.19222">
        <ele>2141.3999023438</ele>
        <time>2023-07-25T13:09:43.000Z</time>
      </trkpt>
      <trkpt lat="42.70638" lon="1.19224">
        <ele>2142</ele>
        <time>2023-07-25T13:09:47.000Z</time>
      </trkpt>
      <trkpt lat="42.70638" lon="1.19225">
        <ele>2142.6000976562</ele>
        <time>2023-07-25T13:09:51.000Z</time>
      </trkpt>
      <trkpt lat="42.70638" lon="1.19228">
        <ele>2143</ele>
        <time>2023-07-25T13:09:57.000Z</time>
      </trkpt>
      <trkpt lat="42.70638" lon="1.19229">
        <ele>2143</ele>
        <time>2023-07-25T13:09:58.000Z</time>
      </trkpt>
      <trkpt lat="42.70636" lon="1.19235">
        <ele>2143.1999511719</ele>
        <time>2023-07-25T13:10:03.000Z</time>
      </trkpt>
      <trkpt lat="42.70632" lon="1.19242">
        <ele>2143.6000976562</ele>
        <time>2023-07-25T13:10:09.000Z</time>
      </trkpt>
      <trkpt lat="42.70631" lon="1.19244">
        <ele>2144</ele>
        <time>2023-07-25T13:10:12.000Z</time>
      </trkpt>
      <trkpt lat="42.70631" lon="1.19246">
        <ele>2144.8000488281</ele>
        <time>2023-07-25T13:10:17.000Z</time>
      </trkpt>
      <trkpt lat="42.70631" lon="1.19248">
        <ele>2145.1999511719</ele>
        <time>2023-07-25T13:10:19.000Z</time>
      </trkpt>
      <trkpt lat="42.7063" lon="1.19253">
        <ele>2145.6000976562</ele>
        <time>2023-07-25T13:10:25.000Z</time>
      </trkpt>
      <trkpt lat="42.70629" lon="1.19256">
        <ele>2146.3999023438</ele>
        <time>2023-07-25T13:10:28.000Z</time>
      </trkpt>
      <trkpt lat="42.70627" lon="1.19261">
        <ele>2147</ele>
        <time>2023-07-25T13:10:34.000Z</time>
      </trkpt>
      <trkpt lat="42.70627" lon="1.19262">
        <ele>2147.3999023438</ele>
        <time>2023-07-25T13:10:36.000Z</time>
      </trkpt>
      <trkpt lat="42.70626" lon="1.19262">
        <ele>2148.1999511719</ele>
        <time>2023-07-25T13:10:40.000Z</time>
      </trkpt>
      <trkpt lat="42.70626" lon="1.19261">
        <ele>2148.6000976562</ele>
        <time>2023-07-25T13:10:42.000Z</time>
      </trkpt>
      <trkpt lat="42.70624" lon="1.19261">
        <ele>2149.6000976562</ele>
        <time>2023-07-25T13:10:50.000Z</time>
      </trkpt>
      <trkpt lat="42.70623" lon="1.19262">
        <ele>2149.8000488281</ele>
        <time>2023-07-25T13:10:53.000Z</time>
      </trkpt>
      <trkpt lat="42.70621" lon="1.19263">
        <ele>2150.8000488281</ele>
        <time>2023-07-25T13:11:00.000Z</time>
      </trkpt>
      <trkpt lat="42.7062" lon="1.19264">
        <ele>2150.8000488281</ele>
        <time>2023-07-25T13:11:03.000Z</time>
      </trkpt>
      <trkpt lat="42.7062" lon="1.19267">
        <ele>2151.8000488281</ele>
        <time>2023-07-25T13:11:08.000Z</time>
      </trkpt>
      <trkpt lat="42.7062" lon="1.19267">
        <ele>2152</ele>
        <time>2023-07-25T13:11:09.000Z</time>
      </trkpt>
      <trkpt lat="42.70618" lon="1.19272">
        <ele>2153</ele>
        <time>2023-07-25T13:11:15.000Z</time>
      </trkpt>
      <trkpt lat="42.70618" lon="1.1927">
        <ele>2153.1999511719</ele>
        <time>2023-07-25T13:11:16.000Z</time>
      </trkpt>
      <trkpt lat="42.70618" lon="1.19269">
        <ele>2153.3999023438</ele>
        <time>2023-07-25T13:11:17.000Z</time>
      </trkpt>
      <trkpt lat="42.70618" lon="1.19267">
        <ele>2154</ele>
        <time>2023-07-25T13:11:19.000Z</time>
      </trkpt>
      <trkpt lat="42.70615" lon="1.19267">
        <ele>2154.6000976562</ele>
        <time>2023-07-25T13:11:24.000Z</time>
      </trkpt>
      <trkpt lat="42.70615" lon="1.1927">
        <ele>2155.1999511719</ele>
        <time>2023-07-25T13:11:30.000Z</time>
      </trkpt>
      <trkpt lat="42.70615" lon="1.1927">
        <ele>2155.1999511719</ele>
        <time>2023-07-25T13:11:31.000Z</time>
      </trkpt>
      <trkpt lat="42.70613" lon="1.19271">
        <ele>2156.3999023438</ele>
        <time>2023-07-25T13:11:36.000Z</time>
      </trkpt>
      <trkpt lat="42.70612" lon="1.19271">
        <ele>2157.3999023438</ele>
        <time>2023-07-25T13:11:42.000Z</time>
      </trkpt>
      <trkpt lat="42.7061" lon="1.19271">
        <ele>2158.3999023438</ele>
        <time>2023-07-25T13:11:47.000Z</time>
      </trkpt>
      <trkpt lat="42.70614" lon="1.19274">
        <ele>2158.8000488281</ele>
        <time>2023-07-25T13:11:57.000Z</time>
      </trkpt>
      <trkpt lat="42.70611" lon="1.19273">
        <ele>2158.3999023438</ele>
        <time>2023-07-25T13:12:04.000Z</time>
      </trkpt>
      <trkpt lat="42.70609" lon="1.19271">
        <ele>2158.3999023438</ele>
        <time>2023-07-25T13:12:11.000Z</time>
      </trkpt>
      <trkpt lat="42.70607" lon="1.19266">
        <ele>2159.1999511719</ele>
        <time>2023-07-25T13:12:19.000Z</time>
      </trkpt>
      <trkpt lat="42.70606" lon="1.19265">
        <ele>2159.6000976562</ele>
        <time>2023-07-25T13:12:22.000Z</time>
      </trkpt>
      <trkpt lat="42.70606" lon="1.19266">
        <ele>2160.3999023438</ele>
        <time>2023-07-25T13:12:25.000Z</time>
      </trkpt>
      <trkpt lat="42.70608" lon="1.19268">
        <ele>2160.6000976562</ele>
        <time>2023-07-25T13:12:27.000Z</time>
      </trkpt>
      <trkpt lat="42.70607" lon="1.19268">
        <ele>2161</ele>
        <time>2023-07-25T13:12:31.000Z</time>
      </trkpt>
      <trkpt lat="42.70604" lon="1.19268">
        <ele>2161.1999511719</ele>
        <time>2023-07-25T13:12:39.000Z</time>
      </trkpt>
      <trkpt lat="42.70602" lon="1.19269">
        <ele>2161.8000488281</ele>
        <time>2023-07-25T13:12:43.000Z</time>
      </trkpt>
      <trkpt lat="42.70601" lon="1.19269">
        <ele>2162</ele>
        <time>2023-07-25T13:12:45.000Z</time>
      </trkpt>
      <trkpt lat="42.70601" lon="1.19268">
        <ele>2162.8000488281</ele>
        <time>2023-07-25T13:12:50.000Z</time>
      </trkpt>
      <trkpt lat="42.70603" lon="1.19268">
        <ele>2163</ele>
        <time>2023-07-25T13:12:54.000Z</time>
      </trkpt>
      <trkpt lat="42.70604" lon="1.19271">
        <ele>2163.8000488281</ele>
        <time>2023-07-25T13:13:02.000Z</time>
      </trkpt>
      <trkpt lat="42.70604" lon="1.19272">
        <ele>2164</ele>
        <time>2023-07-25T13:13:03.000Z</time>
      </trkpt>
      <trkpt lat="42.70605" lon="1.19273">
        <ele>2164</ele>
        <time>2023-07-25T13:13:09.000Z</time>
      </trkpt>
      <trkpt lat="42.70606" lon="1.19277">
        <ele>2164.8000488281</ele>
        <time>2023-07-25T13:13:16.000Z</time>
      </trkpt>
      <trkpt lat="42.70606" lon="1.19277">
        <ele>2165</ele>
        <time>2023-07-25T13:13:23.000Z</time>
      </trkpt>
      <trkpt lat="42.70606" lon="1.19277">
        <ele>2165</ele>
        <time>2023-07-25T13:13:24.000Z</time>
      </trkpt>
      <trkpt lat="42.70605" lon="1.19273">
        <ele>2165.3999023438</ele>
        <time>2023-07-25T13:13:30.000Z</time>
      </trkpt>
      <trkpt lat="42.70606" lon="1.19272">
        <ele>2165.3999023438</ele>
        <time>2023-07-25T13:13:39.000Z</time>
      </trkpt>
      <trkpt lat="42.70604" lon="1.19271">
        <ele>2165.1999511719</ele>
        <time>2023-07-25T13:13:46.000Z</time>
      </trkpt>
      <trkpt lat="42.70604" lon="1.19273">
        <ele>2165.3999023438</ele>
        <time>2023-07-25T13:13:55.000Z</time>
      </trkpt>
      <trkpt lat="42.70603" lon="1.19277">
        <ele>2166</ele>
        <time>2023-07-25T13:14:00.000Z</time>
      </trkpt>
      <trkpt lat="42.70602" lon="1.19277">
        <ele>2166.6000976562</ele>
        <time>2023-07-25T13:14:03.000Z</time>
      </trkpt>
      <trkpt lat="42.70601" lon="1.19278">
        <ele>2167.3999023438</ele>
        <time>2023-07-25T13:14:06.000Z</time>
      </trkpt>
      <trkpt lat="42.706" lon="1.19282">
        <ele>2167.8000488281</ele>
        <time>2023-07-25T13:14:10.000Z</time>
      </trkpt>
      <trkpt lat="42.706" lon="1.19285">
        <ele>2168.3999023438</ele>
        <time>2023-07-25T13:14:15.000Z</time>
      </trkpt>
      <trkpt lat="42.706" lon="1.19286">
        <ele>2169</ele>
        <time>2023-07-25T13:14:18.000Z</time>
      </trkpt>
      <trkpt lat="42.70599" lon="1.19289">
        <ele>2169.3999023438</ele>
        <time>2023-07-25T13:14:24.000Z</time>
      </trkpt>
      <trkpt lat="42.70599" lon="1.19289">
        <ele>2169.3999023438</ele>
        <time>2023-07-25T13:14:25.000Z</time>
      </trkpt>
      <trkpt lat="42.70599" lon="1.19288">
        <ele>2169.8000488281</ele>
        <time>2023-07-25T13:14:33.000Z</time>
      </trkpt>
      <trkpt lat="42.706" lon="1.19288">
        <ele>2170</ele>
        <time>2023-07-25T13:14:41.000Z</time>
      </trkpt>
      <trkpt lat="42.70595" lon="1.19292">
        <ele>2170</ele>
        <time>2023-07-25T13:14:50.000Z</time>
      </trkpt>
      <trkpt lat="42.70595" lon="1.19293">
        <ele>2170.6000976562</ele>
        <time>2023-07-25T13:14:53.000Z</time>
      </trkpt>
      <trkpt lat="42.70596" lon="1.19294">
        <ele>2171.3999023438</ele>
        <time>2023-07-25T13:15:00.000Z</time>
      </trkpt>
      <trkpt lat="42.70596" lon="1.19294">
        <ele>2171.8000488281</ele>
        <time>2023-07-25T13:15:01.000Z</time>
      </trkpt>
      <trkpt lat="42.70596" lon="1.19292">
        <ele>2172.1999511719</ele>
        <time>2023-07-25T13:15:07.000Z</time>
      </trkpt>
      <trkpt lat="42.70594" lon="1.19293">
        <ele>2172.6000976562</ele>
        <time>2023-07-25T13:15:14.000Z</time>
      </trkpt>
      <trkpt lat="42.70594" lon="1.19294">
        <ele>2172.8000488281</ele>
        <time>2023-07-25T13:15:18.000Z</time>
      </trkpt>
      <trkpt lat="42.70594" lon="1.19295">
        <ele>2173.3999023438</ele>
        <time>2023-07-25T13:15:21.000Z</time>
      </trkpt>
      <trkpt lat="42.70593" lon="1.19294">
        <ele>2174</ele>
        <time>2023-07-25T13:15:23.000Z</time>
      </trkpt>
      <trkpt lat="42.70592" lon="1.19293">
        <ele>2175</ele>
        <time>2023-07-25T13:15:28.000Z</time>
      </trkpt>
      <trkpt lat="42.70592" lon="1.19293">
        <ele>2175.3999023438</ele>
        <time>2023-07-25T13:15:29.000Z</time>
      </trkpt>
      <trkpt lat="42.70589" lon="1.19294">
        <ele>2176.1999511719</ele>
        <time>2023-07-25T13:15:37.000Z</time>
      </trkpt>
      <trkpt lat="42.70589" lon="1.19297">
        <ele>2177</ele>
        <time>2023-07-25T13:15:45.000Z</time>
      </trkpt>
      <trkpt lat="42.70589" lon="1.19296">
        <ele>2177.3999023438</ele>
        <time>2023-07-25T13:15:48.000Z</time>
      </trkpt>
      <trkpt lat="42.70587" lon="1.19297">
        <ele>2177.6000976562</ele>
        <time>2023-07-25T13:15:52.000Z</time>
      </trkpt>
      <trkpt lat="42.70586" lon="1.19296">
        <ele>2178.3999023438</ele>
        <time>2023-07-25T13:15:57.000Z</time>
      </trkpt>
      <trkpt lat="42.70588" lon="1.193">
        <ele>2178.6000976562</ele>
        <time>2023-07-25T13:16:07.000Z</time>
      </trkpt>
      <trkpt lat="42.70588" lon="1.19303">
        <ele>2179.8000488281</ele>
        <time>2023-07-25T13:16:12.000Z</time>
      </trkpt>
      <trkpt lat="42.70589" lon="1.19303">
        <ele>2180.3999023438</ele>
        <time>2023-07-25T13:16:17.000Z</time>
      </trkpt>
      <trkpt lat="42.70586" lon="1.19302">
        <ele>2180.1999511719</ele>
        <time>2023-07-25T13:16:26.000Z</time>
      </trkpt>
      <trkpt lat="42.70586" lon="1.19301">
        <ele>2180.6000976562</ele>
        <time>2023-07-25T13:16:33.000Z</time>
      </trkpt>
      <trkpt lat="42.70584" lon="1.19301">
        <ele>2180.8000488281</ele>
        <time>2023-07-25T13:16:34.000Z</time>
      </trkpt>
      <trkpt lat="42.70585" lon="1.19298">
        <ele>2182</ele>
        <time>2023-07-25T13:16:41.000Z</time>
      </trkpt>
      <trkpt lat="42.70586" lon="1.19298">
        <ele>2183</ele>
        <time>2023-07-25T13:16:45.000Z</time>
      </trkpt>
      <trkpt lat="42.70586" lon="1.19297">
        <ele>2183.6000976562</ele>
        <time>2023-07-25T13:16:48.000Z</time>
      </trkpt>
      <trkpt lat="42.70585" lon="1.19299">
        <ele>2183.3999023438</ele>
        <time>2023-07-25T13:16:56.000Z</time>
      </trkpt>
      <trkpt lat="42.70584" lon="1.19302">
        <ele>2184</ele>
        <time>2023-07-25T13:17:01.000Z</time>
      </trkpt>
      <trkpt lat="42.70584" lon="1.19304">
        <ele>2184.3999023438</ele>
        <time>2023-07-25T13:17:03.000Z</time>
      </trkpt>
      <trkpt lat="42.70581" lon="1.19308">
        <ele>2184.8000488281</ele>
        <time>2023-07-25T13:17:12.000Z</time>
      </trkpt>
      <trkpt lat="42.70581" lon="1.19308">
        <ele>2185.1999511719</ele>
        <time>2023-07-25T13:17:13.000Z</time>
      </trkpt>
      <trkpt lat="42.70581" lon="1.19309">
        <ele>2186.1999511719</ele>
        <time>2023-07-25T13:17:16.000Z</time>
      </trkpt>
      <trkpt lat="42.70579" lon="1.19314">
        <ele>2187.3999023438</ele>
        <time>2023-07-25T13:17:20.000Z</time>
      </trkpt>
      <trkpt lat="42.70579" lon="1.19315">
        <ele>2187.6000976562</ele>
        <time>2023-07-25T13:17:21.000Z</time>
      </trkpt>
      <trkpt lat="42.70579" lon="1.19315">
        <ele>2188.6000976562</ele>
        <time>2023-07-25T13:17:27.000Z</time>
      </trkpt>
      <trkpt lat="42.7058" lon="1.19313">
        <ele>2189.6000976562</ele>
        <time>2023-07-25T13:17:32.000Z</time>
      </trkpt>
      <trkpt lat="42.70581" lon="1.19312">
        <ele>2190.6000976562</ele>
        <time>2023-07-25T13:17:37.000Z</time>
      </trkpt>
      <trkpt lat="42.7058" lon="1.19313">
        <ele>2191.1999511719</ele>
        <time>2023-07-25T13:17:40.000Z</time>
      </trkpt>
      <trkpt lat="42.7058" lon="1.19315">
        <ele>2191.8000488281</ele>
        <time>2023-07-25T13:17:46.000Z</time>
      </trkpt>
      <trkpt lat="42.7058" lon="1.19315">
        <ele>2192</ele>
        <time>2023-07-25T13:17:47.000Z</time>
      </trkpt>
      <trkpt lat="42.70578" lon="1.19316">
        <ele>2192.3999023438</ele>
        <time>2023-07-25T13:17:54.000Z</time>
      </trkpt>
      <trkpt lat="42.70579" lon="1.19315">
        <ele>2192.8000488281</ele>
        <time>2023-07-25T13:18:02.000Z</time>
      </trkpt>
      <trkpt lat="42.70579" lon="1.19314">
        <ele>2193</ele>
        <time>2023-07-25T13:18:06.000Z</time>
      </trkpt>
      <trkpt lat="42.70578" lon="1.19314">
        <ele>2194</ele>
        <time>2023-07-25T13:18:09.000Z</time>
      </trkpt>
      <trkpt lat="42.70578" lon="1.19306">
        <ele>2195</ele>
        <time>2023-07-25T13:18:17.000Z</time>
      </trkpt>
      <trkpt lat="42.7058" lon="1.19305">
        <ele>2196.3999023438</ele>
        <time>2023-07-25T13:18:22.000Z</time>
      </trkpt>
      <trkpt lat="42.7058" lon="1.19305">
        <ele>2196.6000976562</ele>
        <time>2023-07-25T13:18:24.000Z</time>
      </trkpt>
      <trkpt lat="42.70581" lon="1.19307">
        <ele>2196.6000976562</ele>
        <time>2023-07-25T13:18:33.000Z</time>
      </trkpt>
      <trkpt lat="42.70581" lon="1.19308">
        <ele>2196.8000488281</ele>
        <time>2023-07-25T13:18:42.000Z</time>
      </trkpt>
      <trkpt lat="42.70575" lon="1.19305">
        <ele>2196.1999511719</ele>
        <time>2023-07-25T13:18:49.000Z</time>
      </trkpt>
      <trkpt lat="42.70572" lon="1.193">
        <ele>2196.6000976562</ele>
        <time>2023-07-25T13:18:55.000Z</time>
      </trkpt>
      <trkpt lat="42.7057" lon="1.19297">
        <ele>2197.6000976562</ele>
        <time>2023-07-25T13:19:00.000Z</time>
      </trkpt>
      <trkpt lat="42.70569" lon="1.19296">
        <ele>2197.8000488281</ele>
        <time>2023-07-25T13:19:02.000Z</time>
      </trkpt>
      <trkpt lat="42.70569" lon="1.19289">
        <ele>2198.3999023438</ele>
        <time>2023-07-25T13:19:11.000Z</time>
      </trkpt>
      <trkpt lat="42.70568" lon="1.19288">
        <ele>2199</ele>
        <time>2023-07-25T13:19:13.000Z</time>
      </trkpt>
      <trkpt lat="42.70565" lon="1.19287">
        <ele>2199</ele>
        <time>2023-07-25T13:19:17.000Z</time>
      </trkpt>
      <trkpt lat="42.70564" lon="1.19291">
        <ele>2197.6000976562</ele>
        <time>2023-07-25T13:19:21.000Z</time>
      </trkpt>
      <trkpt lat="42.70563" lon="1.19292">
        <ele>2196.6000976562</ele>
        <time>2023-07-25T13:19:23.000Z</time>
      </trkpt>
      <trkpt lat="42.70563" lon="1.193">
        <ele>2197</ele>
        <time>2023-07-25T13:19:29.000Z</time>
      </trkpt>
      <trkpt lat="42.7056" lon="1.19306">
        <ele>2197.8000488281</ele>
        <time>2023-07-25T13:19:36.000Z</time>
      </trkpt>
      <trkpt lat="42.70558" lon="1.19314">
        <ele>2198.1999511719</ele>
        <time>2023-07-25T13:19:44.000Z</time>
      </trkpt>
      <trkpt lat="42.70557" lon="1.1932">
        <ele>2198.8000488281</ele>
        <time>2023-07-25T13:19:49.000Z</time>
      </trkpt>
      <trkpt lat="42.70557" lon="1.19322">
        <ele>2199</ele>
        <time>2023-07-25T13:19:51.000Z</time>
      </trkpt>
      <trkpt lat="42.70555" lon="1.19328">
        <ele>2199.6000976562</ele>
        <time>2023-07-25T13:19:58.000Z</time>
      </trkpt>
      <trkpt lat="42.70555" lon="1.19328">
        <ele>2199.8000488281</ele>
        <time>2023-07-25T13:19:59.000Z</time>
      </trkpt>
      <trkpt lat="42.70554" lon="1.19326">
        <ele>2200</ele>
        <time>2023-07-25T13:20:07.000Z</time>
      </trkpt>
      <trkpt lat="42.70554" lon="1.19329">
        <ele>2200.1999511719</ele>
        <time>2023-07-25T13:20:14.000Z</time>
      </trkpt>
      <trkpt lat="42.70551" lon="1.19338">
        <ele>2200</ele>
        <time>2023-07-25T13:20:21.000Z</time>
      </trkpt>
      <trkpt lat="42.70548" lon="1.19347">
        <ele>2200</ele>
        <time>2023-07-25T13:20:28.000Z</time>
      </trkpt>
      <trkpt lat="42.7055" lon="1.19351">
        <ele>2198.8000488281</ele>
        <time>2023-07-25T13:20:35.000Z</time>
      </trkpt>
      <trkpt lat="42.70549" lon="1.19355">
        <ele>2199.8000488281</ele>
        <time>2023-07-25T13:20:45.000Z</time>
      </trkpt>
      <trkpt lat="42.70547" lon="1.19351">
        <ele>2199.8000488281</ele>
        <time>2023-07-25T13:20:53.000Z</time>
      </trkpt>
      <trkpt lat="42.70549" lon="1.1934">
        <ele>2200</ele>
        <time>2023-07-25T13:21:01.000Z</time>
      </trkpt>
      <trkpt lat="42.7055" lon="1.19333">
        <ele>2199.6000976562</ele>
        <time>2023-07-25T13:21:07.000Z</time>
      </trkpt>
      <trkpt lat="42.70549" lon="1.19331">
        <ele>2199.3999023438</ele>
        <time>2023-07-25T13:21:14.000Z</time>
      </trkpt>
      <trkpt lat="42.70549" lon="1.1933">
        <ele>2198.8000488281</ele>
        <time>2023-07-25T13:21:19.000Z</time>
      </trkpt>
      <trkpt lat="42.7055" lon="1.19333">
        <ele>2198.1999511719</ele>
        <time>2023-07-25T13:21:25.000Z</time>
      </trkpt>
      <trkpt lat="42.70551" lon="1.19332">
        <ele>2198.1999511719</ele>
        <time>2023-07-25T13:21:31.000Z</time>
      </trkpt>
      <trkpt lat="42.7055" lon="1.1933">
        <ele>2198</ele>
        <time>2023-07-25T13:21:32.000Z</time>
      </trkpt>
      <trkpt lat="42.70553" lon="1.19322">
        <ele>2198.1999511719</ele>
        <time>2023-07-25T13:21:41.000Z</time>
      </trkpt>
      <trkpt lat="42.70558" lon="1.19313">
        <ele>2197.8000488281</ele>
        <time>2023-07-25T13:21:50.000Z</time>
      </trkpt>
      <trkpt lat="42.70559" lon="1.19312">
        <ele>2197.8000488281</ele>
        <time>2023-07-25T13:21:51.000Z</time>
      </trkpt>
      <trkpt lat="42.70563" lon="1.19306">
        <ele>2196.8000488281</ele>
        <time>2023-07-25T13:21:59.000Z</time>
      </trkpt>
      <trkpt lat="42.70563" lon="1.19305">
        <ele>2196.6000976562</ele>
        <time>2023-07-25T13:22:00.000Z</time>
      </trkpt>
      <trkpt lat="42.70564" lon="1.19297">
        <ele>2195.6000976562</ele>
        <time>2023-07-25T13:22:06.000Z</time>
      </trkpt>
      <trkpt lat="42.70564" lon="1.19296">
        <ele>2195.3999023438</ele>
        <time>2023-07-25T13:22:07.000Z</time>
      </trkpt>
      <trkpt lat="42.70566" lon="1.19286">
        <ele>2195.1999511719</ele>
        <time>2023-07-25T13:22:15.000Z</time>
      </trkpt>
      <trkpt lat="42.70567" lon="1.19286">
        <ele>2194.8000488281</ele>
        <time>2023-07-25T13:22:22.000Z</time>
      </trkpt>
      <trkpt lat="42.70564" lon="1.19289">
        <ele>2195.1999511719</ele>
        <time>2023-07-25T13:22:33.000Z</time>
      </trkpt>
      <trkpt lat="42.70565" lon="1.19289">
        <ele>2195.8000488281</ele>
        <time>2023-07-25T13:22:41.000Z</time>
      </trkpt>
      <trkpt lat="42.70566" lon="1.19289">
        <ele>2195.1999511719</ele>
        <time>2023-07-25T13:22:57.000Z</time>
      </trkpt>
      <trkpt lat="42.70567" lon="1.19283">
        <ele>2195.1999511719</ele>
        <time>2023-07-25T13:23:06.000Z</time>
      </trkpt>
      <trkpt lat="42.70569" lon="1.19279">
        <ele>2195.6000976562</ele>
        <time>2023-07-25T13:23:11.000Z</time>
      </trkpt>
      <trkpt lat="42.70568" lon="1.19276">
        <ele>2195.1999511719</ele>
        <time>2023-07-25T13:23:17.000Z</time>
      </trkpt>
      <trkpt lat="42.70568" lon="1.19268">
        <ele>2195</ele>
        <time>2023-07-25T13:23:25.000Z</time>
      </trkpt>
      <trkpt lat="42.70568" lon="1.19262">
        <ele>2194.6000976562</ele>
        <time>2023-07-25T13:23:31.000Z</time>
      </trkpt>
      <trkpt lat="42.70568" lon="1.19261">
        <ele>2194.3999023438</ele>
        <time>2023-07-25T13:23:32.000Z</time>
      </trkpt>
      <trkpt lat="42.70569" lon="1.1926">
        <ele>2193.3999023438</ele>
        <time>2023-07-25T13:23:39.000Z</time>
      </trkpt>
      <trkpt lat="42.70569" lon="1.19261">
        <ele>2193</ele>
        <time>2023-07-25T13:23:47.000Z</time>
      </trkpt>
      <trkpt lat="42.7057" lon="1.19262">
        <ele>2192.3999023438</ele>
        <time>2023-07-25T13:23:57.000Z</time>
      </trkpt>
      <trkpt lat="42.7057" lon="1.19259">
        <ele>2192.6000976562</ele>
        <time>2023-07-25T13:24:06.000Z</time>
      </trkpt>
      <trkpt lat="42.70571" lon="1.19257">
        <ele>2192.3999023438</ele>
        <time>2023-07-25T13:24:13.000Z</time>
      </trkpt>
      <trkpt lat="42.70572" lon="1.19254">
        <ele>2192</ele>
        <time>2023-07-25T13:24:16.000Z</time>
      </trkpt>
      <trkpt lat="42.70574" lon="1.1925">
        <ele>2192</ele>
        <time>2023-07-25T13:24:23.000Z</time>
      </trkpt>
      <trkpt lat="42.70576" lon="1.19249">
        <ele>2192.8000488281</ele>
        <time>2023-07-25T13:24:31.000Z</time>
      </trkpt>
      <trkpt lat="42.70578" lon="1.19247">
        <ele>2192.3999023438</ele>
        <time>2023-07-25T13:24:38.000Z</time>
      </trkpt>
      <trkpt lat="42.70577" lon="1.1925">
        <ele>2192.3999023438</ele>
        <time>2023-07-25T13:24:48.000Z</time>
      </trkpt>
      <trkpt lat="42.70576" lon="1.19257">
        <ele>2192.1999511719</ele>
        <time>2023-07-25T13:24:57.000Z</time>
      </trkpt>
      <trkpt lat="42.70577" lon="1.19258">
        <ele>2191.1999511719</ele>
        <time>2023-07-25T13:25:04.000Z</time>
      </trkpt>
      <trkpt lat="42.70577" lon="1.19258">
        <ele>2191.1999511719</ele>
        <time>2023-07-25T13:25:05.000Z</time>
      </trkpt>
      <trkpt lat="42.70578" lon="1.19263">
        <ele>2190.3999023438</ele>
        <time>2023-07-25T13:25:11.000Z</time>
      </trkpt>
      <trkpt lat="42.70578" lon="1.19264">
        <ele>2190.8000488281</ele>
        <time>2023-07-25T13:25:21.000Z</time>
      </trkpt>
      <trkpt lat="42.70578" lon="1.19262">
        <ele>2190.8000488281</ele>
        <time>2023-07-25T13:25:26.000Z</time>
      </trkpt>
      <trkpt lat="42.70573" lon="1.19255">
        <ele>2191.6000976562</ele>
        <time>2023-07-25T13:25:34.000Z</time>
      </trkpt>
      <trkpt lat="42.70571" lon="1.19255">
        <ele>2192.1999511719</ele>
        <time>2023-07-25T13:25:37.000Z</time>
      </trkpt>
      <trkpt lat="42.7057" lon="1.19256">
        <ele>2192.1999511719</ele>
        <time>2023-07-25T13:25:41.000Z</time>
      </trkpt>
      <trkpt lat="42.7057" lon="1.1926">
        <ele>2192.3999023438</ele>
        <time>2023-07-25T13:25:44.000Z</time>
      </trkpt>
      <trkpt lat="42.70569" lon="1.19263">
        <ele>2192.3999023438</ele>
        <time>2023-07-25T13:25:46.000Z</time>
      </trkpt>
      <trkpt lat="42.70568" lon="1.19268">
        <ele>2192.6000976562</ele>
        <time>2023-07-25T13:25:53.000Z</time>
      </trkpt>
      <trkpt lat="42.70568" lon="1.19269">
        <ele>2193.3999023438</ele>
        <time>2023-07-25T13:25:57.000Z</time>
      </trkpt>
      <trkpt lat="42.70568" lon="1.19272">
        <ele>2193.6000976562</ele>
        <time>2023-07-25T13:26:01.000Z</time>
      </trkpt>
      <trkpt lat="42.70566" lon="1.19278">
        <ele>2193.1999511719</ele>
        <time>2023-07-25T13:26:07.000Z</time>
      </trkpt>
      <trkpt lat="42.70565" lon="1.19283">
        <ele>2193.1999511719</ele>
        <time>2023-07-25T13:26:13.000Z</time>
      </trkpt>
      <trkpt lat="42.70564" lon="1.19289">
        <ele>2194.6000976562</ele>
        <time>2023-07-25T13:26:19.000Z</time>
      </trkpt>
      <trkpt lat="42.70565" lon="1.19289">
        <ele>2194.8000488281</ele>
        <time>2023-07-25T13:26:20.000Z</time>
      </trkpt>
      <trkpt lat="42.70567" lon="1.19288">
        <ele>2195</ele>
        <time>2023-07-25T13:26:22.000Z</time>
      </trkpt>
      <trkpt lat="42.70569" lon="1.19287">
        <ele>2195</ele>
        <time>2023-07-25T13:26:25.000Z</time>
      </trkpt>
      <trkpt lat="42.70571" lon="1.19289">
        <ele>2195</ele>
        <time>2023-07-25T13:26:28.000Z</time>
      </trkpt>
      <trkpt lat="42.70572" lon="1.19291">
        <ele>2194.8000488281</ele>
        <time>2023-07-25T13:26:33.000Z</time>
      </trkpt>
      <trkpt lat="42.70571" lon="1.19291">
        <ele>2194.6000976562</ele>
        <time>2023-07-25T13:26:35.000Z</time>
      </trkpt>
      <trkpt lat="42.70573" lon="1.19292">
        <ele>2194.3999023438</ele>
        <time>2023-07-25T13:26:44.000Z</time>
      </trkpt>
      <trkpt lat="42.70573" lon="1.19292">
        <ele>2194.1999511719</ele>
        <time>2023-07-25T13:26:53.000Z</time>
      </trkpt>
      <trkpt lat="42.70573" lon="1.19293">
        <ele>2194.8000488281</ele>
        <time>2023-07-25T13:27:01.000Z</time>
      </trkpt>
      <trkpt lat="42.70571" lon="1.19293">
        <ele>2194.8000488281</ele>
        <time>2023-07-25T13:27:08.000Z</time>
      </trkpt>
      <trkpt lat="42.70572" lon="1.19292">
        <ele>2195.1999511719</ele>
        <time>2023-07-25T13:27:19.000Z</time>
      </trkpt>
      <trkpt lat="42.70572" lon="1.1929">
        <ele>2195</ele>
        <time>2023-07-25T13:27:29.000Z</time>
      </trkpt>
      <trkpt lat="42.70572" lon="1.19289">
        <ele>2195.3999023438</ele>
        <time>2023-07-25T13:27:37.000Z</time>
      </trkpt>
      <trkpt lat="42.70572" lon="1.1929">
        <ele>2195.3999023438</ele>
        <time>2023-07-25T13:27:43.000Z</time>
      </trkpt>
      <trkpt lat="42.70566" lon="1.19288">
        <ele>2195.1999511719</ele>
        <time>2023-07-25T13:27:50.000Z</time>
      </trkpt>
      <trkpt lat="42.70561" lon="1.19286">
        <ele>2194.8000488281</ele>
        <time>2023-07-25T13:27:57.000Z</time>
      </trkpt>
      <trkpt lat="42.70558" lon="1.19281">
        <ele>2194.1999511719</ele>
        <time>2023-07-25T13:28:02.000Z</time>
      </trkpt>
      <trkpt lat="42.70558" lon="1.19277">
        <ele>2194.8000488281</ele>
        <time>2023-07-25T13:28:08.000Z</time>
      </trkpt>
      <trkpt lat="42.70558" lon="1.19274">
        <ele>2195.6000976562</ele>
        <time>2023-07-25T13:28:12.000Z</time>
      </trkpt>
      <trkpt lat="42.70559" lon="1.19273">
        <ele>2196.1999511719</ele>
        <time>2023-07-25T13:28:15.000Z</time>
      </trkpt>
      <trkpt lat="42.70559" lon="1.19272">
        <ele>2196.8000488281</ele>
        <time>2023-07-25T13:28:17.000Z</time>
      </trkpt>
      <trkpt lat="42.70558" lon="1.19271">
        <ele>2198.1999511719</ele>
        <time>2023-07-25T13:28:21.000Z</time>
      </trkpt>
      <trkpt lat="42.70557" lon="1.19272">
        <ele>2198.6000976562</ele>
        <time>2023-07-25T13:28:24.000Z</time>
      </trkpt>
      <trkpt lat="42.70555" lon="1.1927">
        <ele>2198.8000488281</ele>
        <time>2023-07-25T13:28:31.000Z</time>
      </trkpt>
      <trkpt lat="42.70552" lon="1.19268">
        <ele>2199.3999023438</ele>
        <time>2023-07-25T13:28:37.000Z</time>
      </trkpt>
      <trkpt lat="42.70552" lon="1.19268">
        <ele>2199.6000976562</ele>
        <time>2023-07-25T13:28:38.000Z</time>
      </trkpt>
      <trkpt lat="42.70551" lon="1.19265">
        <ele>2200.3999023438</ele>
        <time>2023-07-25T13:28:44.000Z</time>
      </trkpt>
      <trkpt lat="42.70551" lon="1.19262">
        <ele>2201</ele>
        <time>2023-07-25T13:28:47.000Z</time>
      </trkpt>
      <trkpt lat="42.7055" lon="1.19258">
        <ele>2201.6000976562</ele>
        <time>2023-07-25T13:28:52.000Z</time>
      </trkpt>
      <trkpt lat="42.7055" lon="1.19256">
        <ele>2202</ele>
        <time>2023-07-25T13:28:54.000Z</time>
      </trkpt>
      <trkpt lat="42.70546" lon="1.19251">
        <ele>2202.6000976562</ele>
        <time>2023-07-25T13:29:01.000Z</time>
      </trkpt>
      <trkpt lat="42.70547" lon="1.19251">
        <ele>2202.8000488281</ele>
        <time>2023-07-25T13:29:02.000Z</time>
      </trkpt>
      <trkpt lat="42.70547" lon="1.1925">
        <ele>2203.8000488281</ele>
        <time>2023-07-25T13:29:06.000Z</time>
      </trkpt>
      <trkpt lat="42.70548" lon="1.19249">
        <ele>2204</ele>
        <time>2023-07-25T13:29:10.000Z</time>
      </trkpt>
      <trkpt lat="42.70548" lon="1.19247">
        <ele>2204.6000976562</ele>
        <time>2023-07-25T13:29:18.000Z</time>
      </trkpt>
      <trkpt lat="42.70546" lon="1.19244">
        <ele>2204.8000488281</ele>
        <time>2023-07-25T13:29:21.000Z</time>
      </trkpt>
      <trkpt lat="42.70545" lon="1.19238">
        <ele>2205.3999023438</ele>
        <time>2023-07-25T13:29:25.000Z</time>
      </trkpt>
      <trkpt lat="42.70544" lon="1.19237">
        <ele>2206</ele>
        <time>2023-07-25T13:29:27.000Z</time>
      </trkpt>
      <trkpt lat="42.70544" lon="1.19229">
        <ele>2206.3999023438</ele>
        <time>2023-07-25T13:29:34.000Z</time>
      </trkpt>
      <trkpt lat="42.70547" lon="1.19223">
        <ele>2206.3999023438</ele>
        <time>2023-07-25T13:29:41.000Z</time>
      </trkpt>
      <trkpt lat="42.70548" lon="1.19219">
        <ele>2207.1999511719</ele>
        <time>2023-07-25T13:29:47.000Z</time>
      </trkpt>
      <trkpt lat="42.70548" lon="1.19218">
        <ele>2207.1999511719</ele>
        <time>2023-07-25T13:29:48.000Z</time>
      </trkpt>
      <trkpt lat="42.70548" lon="1.19209">
        <ele>2208</ele>
        <time>2023-07-25T13:29:55.000Z</time>
      </trkpt>
      <trkpt lat="42.70548" lon="1.19209">
        <ele>2208.1999511719</ele>
        <time>2023-07-25T13:29:57.000Z</time>
      </trkpt>
      <trkpt lat="42.70547" lon="1.19207">
        <ele>2208.8000488281</ele>
        <time>2023-07-25T13:30:01.000Z</time>
      </trkpt>
      <trkpt lat="42.70547" lon="1.19207">
        <ele>2209.1999511719</ele>
        <time>2023-07-25T13:30:03.000Z</time>
      </trkpt>
      <trkpt lat="42.70548" lon="1.19206">
        <ele>2210.3999023438</ele>
        <time>2023-07-25T13:30:08.000Z</time>
      </trkpt>
      <trkpt lat="42.70548" lon="1.19204">
        <ele>2210.6000976562</ele>
        <time>2023-07-25T13:30:09.000Z</time>
      </trkpt>
      <trkpt lat="42.70548" lon="1.19201">
        <ele>2211.6000976562</ele>
        <time>2023-07-25T13:30:14.000Z</time>
      </trkpt>
      <trkpt lat="42.70548" lon="1.192">
        <ele>2212</ele>
        <time>2023-07-25T13:30:16.000Z</time>
      </trkpt>
      <trkpt lat="42.70549" lon="1.19198">
        <ele>2212.6000976562</ele>
        <time>2023-07-25T13:30:19.000Z</time>
      </trkpt>
      <trkpt lat="42.70552" lon="1.19194">
        <ele>2213</ele>
        <time>2023-07-25T13:30:24.000Z</time>
      </trkpt>
      <trkpt lat="42.70552" lon="1.19193">
        <ele>2213.8000488281</ele>
        <time>2023-07-25T13:30:29.000Z</time>
      </trkpt>
      <trkpt lat="42.70552" lon="1.19191">
        <ele>2214.6000976562</ele>
        <time>2023-07-25T13:30:33.000Z</time>
      </trkpt>
      <trkpt lat="42.70552" lon="1.19191">
        <ele>2215</ele>
        <time>2023-07-25T13:30:34.000Z</time>
      </trkpt>
      <trkpt lat="42.70551" lon="1.19186">
        <ele>2216</ele>
        <time>2023-07-25T13:30:42.000Z</time>
      </trkpt>
      <trkpt lat="42.70554" lon="1.19184">
        <ele>2217.1999511719</ele>
        <time>2023-07-25T13:30:48.000Z</time>
      </trkpt>
      <trkpt lat="42.70556" lon="1.19183">
        <ele>2217.6000976562</ele>
        <time>2023-07-25T13:30:50.000Z</time>
      </trkpt>
      <trkpt lat="42.70559" lon="1.1918">
        <ele>2218.3999023438</ele>
        <time>2023-07-25T13:30:55.000Z</time>
      </trkpt>
      <trkpt lat="42.70559" lon="1.19178">
        <ele>2218.6000976562</ele>
        <time>2023-07-25T13:30:58.000Z</time>
      </trkpt>
      <trkpt lat="42.70559" lon="1.19174">
        <ele>2219.3999023438</ele>
        <time>2023-07-25T13:31:03.000Z</time>
      </trkpt>
      <trkpt lat="42.70559" lon="1.19173">
        <ele>2219.6000976562</ele>
        <time>2023-07-25T13:31:04.000Z</time>
      </trkpt>
      <trkpt lat="42.70558" lon="1.19171">
        <ele>2220.6000976562</ele>
        <time>2023-07-25T13:31:09.000Z</time>
      </trkpt>
      <trkpt lat="42.70558" lon="1.1917">
        <ele>2221.1999511719</ele>
        <time>2023-07-25T13:31:11.000Z</time>
      </trkpt>
      <trkpt lat="42.70558" lon="1.19169">
        <ele>2221.8000488281</ele>
        <time>2023-07-25T13:31:15.000Z</time>
      </trkpt>
      <trkpt lat="42.7056" lon="1.19169">
        <ele>2221.8000488281</ele>
        <time>2023-07-25T13:31:18.000Z</time>
      </trkpt>
      <trkpt lat="42.70564" lon="1.19168">
        <ele>2222.3999023438</ele>
        <time>2023-07-25T13:31:26.000Z</time>
      </trkpt>
      <trkpt lat="42.70563" lon="1.19166">
        <ele>2223</ele>
        <time>2023-07-25T13:31:30.000Z</time>
      </trkpt>
      <trkpt lat="42.70563" lon="1.19165">
        <ele>2223.6000976562</ele>
        <time>2023-07-25T13:31:32.000Z</time>
      </trkpt>
      <trkpt lat="42.70562" lon="1.19163">
        <ele>2224</ele>
        <time>2023-07-25T13:31:35.000Z</time>
      </trkpt>
      <trkpt lat="42.70562" lon="1.19161">
        <ele>2224.3999023438</ele>
        <time>2023-07-25T13:31:39.000Z</time>
      </trkpt>
      <trkpt lat="42.70562" lon="1.1916">
        <ele>2225</ele>
        <time>2023-07-25T13:31:42.000Z</time>
      </trkpt>
      <trkpt lat="42.70563" lon="1.19156">
        <ele>2225.8000488281</ele>
        <time>2023-07-25T13:31:48.000Z</time>
      </trkpt>
      <trkpt lat="42.70563" lon="1.19154">
        <ele>2226.3999023438</ele>
        <time>2023-07-25T13:31:51.000Z</time>
      </trkpt>
      <trkpt lat="42.70563" lon="1.19154">
        <ele>2226.8000488281</ele>
        <time>2023-07-25T13:31:54.000Z</time>
      </trkpt>
      <trkpt lat="42.70563" lon="1.19153">
        <ele>2227.6000976562</ele>
        <time>2023-07-25T13:32:01.000Z</time>
      </trkpt>
      <trkpt lat="42.70563" lon="1.1915">
        <ele>2228.6000976562</ele>
        <time>2023-07-25T13:32:07.000Z</time>
      </trkpt>
      <trkpt lat="42.70563" lon="1.19149">
        <ele>2229.8000488281</ele>
        <time>2023-07-25T13:32:14.000Z</time>
      </trkpt>
      <trkpt lat="42.70561" lon="1.19147">
        <ele>2230.3999023438</ele>
        <time>2023-07-25T13:32:19.000Z</time>
      </trkpt>
      <trkpt lat="42.7056" lon="1.19146">
        <ele>2230.8000488281</ele>
        <time>2023-07-25T13:32:21.000Z</time>
      </trkpt>
      <trkpt lat="42.70559" lon="1.19143">
        <ele>2231.8000488281</ele>
        <time>2023-07-25T13:32:26.000Z</time>
      </trkpt>
      <trkpt lat="42.7056" lon="1.19143">
        <ele>2232</ele>
        <time>2023-07-25T13:32:28.000Z</time>
      </trkpt>
      <trkpt lat="42.70561" lon="1.19141">
        <ele>2232.1999511719</ele>
        <time>2023-07-25T13:32:37.000Z</time>
      </trkpt>
      <trkpt lat="42.70559" lon="1.19139">
        <ele>2232.3999023438</ele>
        <time>2023-07-25T13:32:44.000Z</time>
      </trkpt>
      <trkpt lat="42.7056" lon="1.19138">
        <ele>2232.8000488281</ele>
        <time>2023-07-25T13:32:48.000Z</time>
      </trkpt>
      <trkpt lat="42.70561" lon="1.19137">
        <ele>2233.3999023438</ele>
        <time>2023-07-25T13:32:51.000Z</time>
      </trkpt>
      <trkpt lat="42.70561" lon="1.19136">
        <ele>2233.6000976562</ele>
        <time>2023-07-25T13:32:58.000Z</time>
      </trkpt>
      <trkpt lat="42.70561" lon="1.19137">
        <ele>2233.3999023438</ele>
        <time>2023-07-25T13:33:06.000Z</time>
      </trkpt>
      <trkpt lat="42.70562" lon="1.19141">
        <ele>2233.8000488281</ele>
        <time>2023-07-25T13:33:16.000Z</time>
      </trkpt>
      <trkpt lat="42.70565" lon="1.19138">
        <ele>2234</ele>
        <time>2023-07-25T13:33:19.000Z</time>
      </trkpt>
      <trkpt lat="42.70566" lon="1.19134">
        <ele>2234.6000976562</ele>
        <time>2023-07-25T13:33:23.000Z</time>
      </trkpt>
      <trkpt lat="42.70567" lon="1.19122">
        <ele>2234.8000488281</ele>
        <time>2023-07-25T13:33:32.000Z</time>
      </trkpt>
      <trkpt lat="42.70567" lon="1.19121">
        <ele>2235.1999511719</ele>
        <time>2023-07-25T13:33:33.000Z</time>
      </trkpt>
      <trkpt lat="42.70566" lon="1.19118">
        <ele>2236.1999511719</ele>
        <time>2023-07-25T13:33:37.000Z</time>
      </trkpt>
      <trkpt lat="42.70566" lon="1.19116">
        <ele>2236.3999023438</ele>
        <time>2023-07-25T13:33:39.000Z</time>
      </trkpt>
      <trkpt lat="42.70566" lon="1.1911">
        <ele>2237.1999511719</ele>
        <time>2023-07-25T13:33:48.000Z</time>
      </trkpt>
      <trkpt lat="42.70566" lon="1.1911">
        <ele>2237.1999511719</ele>
        <time>2023-07-25T13:33:49.000Z</time>
      </trkpt>
      <trkpt lat="42.70566" lon="1.19105">
        <ele>2238.6000976562</ele>
        <time>2023-07-25T13:33:55.000Z</time>
      </trkpt>
      <trkpt lat="42.70566" lon="1.19105">
        <ele>2238.8000488281</ele>
        <time>2023-07-25T13:33:56.000Z</time>
      </trkpt>
      <trkpt lat="42.70567" lon="1.19106">
        <ele>2239.6000976562</ele>
        <time>2023-07-25T13:33:59.000Z</time>
      </trkpt>
      <trkpt lat="42.70566" lon="1.19106">
        <ele>2240.6000976562</ele>
        <time>2023-07-25T13:34:03.000Z</time>
      </trkpt>
      <trkpt lat="42.70565" lon="1.19106">
        <ele>2239.8000488281</ele>
        <time>2023-07-25T13:34:10.000Z</time>
      </trkpt>
      <trkpt lat="42.70564" lon="1.19106">
        <ele>2240.3999023438</ele>
        <time>2023-07-25T13:34:17.000Z</time>
      </trkpt>
      <trkpt lat="42.70561" lon="1.19107">
        <ele>2239.6000976562</ele>
        <time>2023-07-25T13:34:25.000Z</time>
      </trkpt>
      <trkpt lat="42.70559" lon="1.19106">
        <ele>2241.3999023438</ele>
        <time>2023-07-25T13:34:28.000Z</time>
      </trkpt>
      <trkpt lat="42.70558" lon="1.19105">
        <ele>2242.8000488281</ele>
        <time>2023-07-25T13:34:30.000Z</time>
      </trkpt>
      <trkpt lat="42.70558" lon="1.19105">
        <ele>2243.3999023438</ele>
        <time>2023-07-25T13:34:32.000Z</time>
      </trkpt>
      <trkpt lat="42.70557" lon="1.19105">
        <ele>2243.8000488281</ele>
        <time>2023-07-25T13:34:35.000Z</time>
      </trkpt>
      <trkpt lat="42.70556" lon="1.19106">
        <ele>2243.8000488281</ele>
        <time>2023-07-25T13:34:39.000Z</time>
      </trkpt>
      <trkpt lat="42.70553" lon="1.19105">
        <ele>2243.6000976562</ele>
        <time>2023-07-25T13:34:47.000Z</time>
      </trkpt>
      <trkpt lat="42.70557" lon="1.19101">
        <ele>2243.6000976562</ele>
        <time>2023-07-25T13:34:55.000Z</time>
      </trkpt>
      <trkpt lat="42.70559" lon="1.19098">
        <ele>2243.8000488281</ele>
        <time>2023-07-25T13:35:02.000Z</time>
      </trkpt>
      <trkpt lat="42.70561" lon="1.19092">
        <ele>2244.1999511719</ele>
        <time>2023-07-25T13:35:09.000Z</time>
      </trkpt>
      <trkpt lat="42.70563" lon="1.1909">
        <ele>2244.6000976562</ele>
        <time>2023-07-25T13:35:15.000Z</time>
      </trkpt>
      <trkpt lat="42.70563" lon="1.19088">
        <ele>2244.8000488281</ele>
        <time>2023-07-25T13:35:17.000Z</time>
      </trkpt>
      <trkpt lat="42.70564" lon="1.19086">
        <ele>2245.3999023438</ele>
        <time>2023-07-25T13:35:21.000Z</time>
      </trkpt>
      <trkpt lat="42.70565" lon="1.19084">
        <ele>2246</ele>
        <time>2023-07-25T13:35:23.000Z</time>
      </trkpt>
      <trkpt lat="42.70565" lon="1.19082">
        <ele>2247</ele>
        <time>2023-07-25T13:35:26.000Z</time>
      </trkpt>
      <trkpt lat="42.70565" lon="1.1908">
        <ele>2247.1999511719</ele>
        <time>2023-07-25T13:35:29.000Z</time>
      </trkpt>
      <trkpt lat="42.70566" lon="1.1908">
        <ele>2248.1999511719</ele>
        <time>2023-07-25T13:35:35.000Z</time>
      </trkpt>
      <trkpt lat="42.70566" lon="1.1908">
        <ele>2248.3999023438</ele>
        <time>2023-07-25T13:35:36.000Z</time>
      </trkpt>
      <trkpt lat="42.70567" lon="1.19079">
        <ele>2248.8000488281</ele>
        <time>2023-07-25T13:35:46.000Z</time>
      </trkpt>
      <trkpt lat="42.70569" lon="1.19077">
        <ele>2248.6000976562</ele>
        <time>2023-07-25T13:35:54.000Z</time>
      </trkpt>
      <trkpt lat="42.70566" lon="1.19073">
        <ele>2248.6000976562</ele>
        <time>2023-07-25T13:36:02.000Z</time>
      </trkpt>
      <trkpt lat="42.70566" lon="1.1907">
        <ele>2249.3999023438</ele>
        <time>2023-07-25T13:36:05.000Z</time>
      </trkpt>
      <trkpt lat="42.70567" lon="1.19068">
        <ele>2250.3999023438</ele>
        <time>2023-07-25T13:36:11.000Z</time>
      </trkpt>
      <trkpt lat="42.70567" lon="1.19063">
        <ele>2251.1999511719</ele>
        <time>2023-07-25T13:36:18.000Z</time>
      </trkpt>
      <trkpt lat="42.70567" lon="1.19061">
        <ele>2251.6000976562</ele>
        <time>2023-07-25T13:36:20.000Z</time>
      </trkpt>
      <trkpt lat="42.70567" lon="1.19059">
        <ele>2252.3999023438</ele>
        <time>2023-07-25T13:36:25.000Z</time>
      </trkpt>
      <trkpt lat="42.70567" lon="1.19058">
        <ele>2252.6000976562</ele>
        <time>2023-07-25T13:36:26.000Z</time>
      </trkpt>
      <trkpt lat="42.70566" lon="1.19054">
        <ele>2253.8000488281</ele>
        <time>2023-07-25T13:36:33.000Z</time>
      </trkpt>
      <trkpt lat="42.70566" lon="1.19052">
        <ele>2254.8000488281</ele>
        <time>2023-07-25T13:36:37.000Z</time>
      </trkpt>
      <trkpt lat="42.70565" lon="1.19049">
        <ele>2255.6000976562</ele>
        <time>2023-07-25T13:36:41.000Z</time>
      </trkpt>
      <trkpt lat="42.70564" lon="1.19047">
        <ele>2256</ele>
        <time>2023-07-25T13:36:43.000Z</time>
      </trkpt>
      <trkpt lat="42.70565" lon="1.19045">
        <ele>2256.6000976562</ele>
        <time>2023-07-25T13:36:50.000Z</time>
      </trkpt>
      <trkpt lat="42.70565" lon="1.19046">
        <ele>2256.6000976562</ele>
        <time>2023-07-25T13:36:52.000Z</time>
      </trkpt>
      <trkpt lat="42.70564" lon="1.19045">
        <ele>2256.6000976562</ele>
        <time>2023-07-25T13:36:56.000Z</time>
      </trkpt>
      <trkpt lat="42.70563" lon="1.19043">
        <ele>2256.3999023438</ele>
        <time>2023-07-25T13:37:04.000Z</time>
      </trkpt>
      <trkpt lat="42.70565" lon="1.19039">
        <ele>2257</ele>
        <time>2023-07-25T13:37:09.000Z</time>
      </trkpt>
      <trkpt lat="42.70565" lon="1.19039">
        <ele>2257</ele>
        <time>2023-07-25T13:37:10.000Z</time>
      </trkpt>
      <trkpt lat="42.70569" lon="1.19035">
        <ele>2258.1999511719</ele>
        <time>2023-07-25T13:37:16.000Z</time>
      </trkpt>
      <trkpt lat="42.70571" lon="1.19032">
        <ele>2259.3999023438</ele>
        <time>2023-07-25T13:37:20.000Z</time>
      </trkpt>
      <trkpt lat="42.70571" lon="1.19032">
        <ele>2259.8000488281</ele>
        <time>2023-07-25T13:37:22.000Z</time>
      </trkpt>
      <trkpt lat="42.7057" lon="1.19031">
        <ele>2260.8000488281</ele>
        <time>2023-07-25T13:37:24.000Z</time>
      </trkpt>
      <trkpt lat="42.7057" lon="1.19027">
        <ele>2261.3999023438</ele>
        <time>2023-07-25T13:37:29.000Z</time>
      </trkpt>
      <trkpt lat="42.70569" lon="1.19023">
        <ele>2261.8000488281</ele>
        <time>2023-07-25T13:37:33.000Z</time>
      </trkpt>
      <trkpt lat="42.70569" lon="1.1902">
        <ele>2262</ele>
        <time>2023-07-25T13:37:36.000Z</time>
      </trkpt>
      <trkpt lat="42.70569" lon="1.19014">
        <ele>2262.8000488281</ele>
        <time>2023-07-25T13:37:43.000Z</time>
      </trkpt>
      <trkpt lat="42.70569" lon="1.19013">
        <ele>2262.8000488281</ele>
        <time>2023-07-25T13:37:44.000Z</time>
      </trkpt>
      <trkpt lat="42.70569" lon="1.19009">
        <ele>2263.1999511719</ele>
        <time>2023-07-25T13:37:49.000Z</time>
      </trkpt>
      <trkpt lat="42.70568" lon="1.19005">
        <ele>2264</ele>
        <time>2023-07-25T13:37:53.000Z</time>
      </trkpt>
      <trkpt lat="42.70569" lon="1.19">
        <ele>2264.6000976562</ele>
        <time>2023-07-25T13:37:57.000Z</time>
      </trkpt>
      <trkpt lat="42.70569" lon="1.18997">
        <ele>2265</ele>
        <time>2023-07-25T13:38:00.000Z</time>
      </trkpt>
      <trkpt lat="42.70569" lon="1.18993">
        <ele>2265.6000976562</ele>
        <time>2023-07-25T13:38:03.000Z</time>
      </trkpt>
      <trkpt lat="42.70569" lon="1.18992">
        <ele>2266.1999511719</ele>
        <time>2023-07-25T13:38:07.000Z</time>
      </trkpt>
      <trkpt lat="42.70569" lon="1.18989">
        <ele>2267</ele>
        <time>2023-07-25T13:38:11.000Z</time>
      </trkpt>
      <trkpt lat="42.70568" lon="1.18989">
        <ele>2267.1999511719</ele>
        <time>2023-07-25T13:38:12.000Z</time>
      </trkpt>
      <trkpt lat="42.70569" lon="1.18984">
        <ele>2268.1999511719</ele>
        <time>2023-07-25T13:38:17.000Z</time>
      </trkpt>
      <trkpt lat="42.70569" lon="1.18983">
        <ele>2268.3999023438</ele>
        <time>2023-07-25T13:38:18.000Z</time>
      </trkpt>
      <trkpt lat="42.7057" lon="1.18976">
        <ele>2269.1999511719</ele>
        <time>2023-07-25T13:38:24.000Z</time>
      </trkpt>
      <trkpt lat="42.7057" lon="1.18975">
        <ele>2269.3999023438</ele>
        <time>2023-07-25T13:38:25.000Z</time>
      </trkpt>
      <trkpt lat="42.70572" lon="1.18969">
        <ele>2270.6000976562</ele>
        <time>2023-07-25T13:38:33.000Z</time>
      </trkpt>
      <trkpt lat="42.70575" lon="1.18965">
        <ele>2271.8000488281</ele>
        <time>2023-07-25T13:38:40.000Z</time>
      </trkpt>
      <trkpt lat="42.70574" lon="1.18965">
        <ele>2272.1999511719</ele>
        <time>2023-07-25T13:38:41.000Z</time>
      </trkpt>
      <trkpt lat="42.70574" lon="1.18962">
        <ele>2273</ele>
        <time>2023-07-25T13:38:46.000Z</time>
      </trkpt>
      <trkpt lat="42.70575" lon="1.1896">
        <ele>2273.3999023438</ele>
        <time>2023-07-25T13:38:49.000Z</time>
      </trkpt>
      <trkpt lat="42.70576" lon="1.18957">
        <ele>2274</ele>
        <time>2023-07-25T13:38:53.000Z</time>
      </trkpt>
      <trkpt lat="42.70576" lon="1.18957">
        <ele>2274.8000488281</ele>
        <time>2023-07-25T13:38:58.000Z</time>
      </trkpt>
      <trkpt lat="42.70578" lon="1.18956">
        <ele>2275.1999511719</ele>
        <time>2023-07-25T13:39:01.000Z</time>
      </trkpt>
      <trkpt lat="42.70579" lon="1.18954">
        <ele>2275.1999511719</ele>
        <time>2023-07-25T13:39:04.000Z</time>
      </trkpt>
      <trkpt lat="42.7058" lon="1.18951">
        <ele>2276.1999511719</ele>
        <time>2023-07-25T13:39:09.000Z</time>
      </trkpt>
      <trkpt lat="42.7058" lon="1.1895">
        <ele>2277</ele>
        <time>2023-07-25T13:39:12.000Z</time>
      </trkpt>
      <trkpt lat="42.70581" lon="1.18949">
        <ele>2277.3999023438</ele>
        <time>2023-07-25T13:39:14.000Z</time>
      </trkpt>
      <trkpt lat="42.7058" lon="1.18947">
        <ele>2278.3999023438</ele>
        <time>2023-07-25T13:39:19.000Z</time>
      </trkpt>
      <trkpt lat="42.7058" lon="1.18943">
        <ele>2279</ele>
        <time>2023-07-25T13:39:26.000Z</time>
      </trkpt>
      <trkpt lat="42.7058" lon="1.18938">
        <ele>2279.6000976562</ele>
        <time>2023-07-25T13:39:31.000Z</time>
      </trkpt>
      <trkpt lat="42.70581" lon="1.18937">
        <ele>2279.8000488281</ele>
        <time>2023-07-25T13:39:32.000Z</time>
      </trkpt>
      <trkpt lat="42.70582" lon="1.18934">
        <ele>2280.6000976562</ele>
        <time>2023-07-25T13:39:37.000Z</time>
      </trkpt>
      <trkpt lat="42.70583" lon="1.18931">
        <ele>2281</ele>
        <time>2023-07-25T13:39:40.000Z</time>
      </trkpt>
      <trkpt lat="42.70585" lon="1.18935">
        <ele>2281</ele>
        <time>2023-07-25T13:39:48.000Z</time>
      </trkpt>
      <trkpt lat="42.70586" lon="1.18935">
        <ele>2281</ele>
        <time>2023-07-25T13:39:56.000Z</time>
      </trkpt>
      <trkpt lat="42.70584" lon="1.18929">
        <ele>2281.8000488281</ele>
        <time>2023-07-25T13:40:03.000Z</time>
      </trkpt>
      <trkpt lat="42.70585" lon="1.18927">
        <ele>2282</ele>
        <time>2023-07-25T13:40:04.000Z</time>
      </trkpt>
      <trkpt lat="42.70585" lon="1.18924">
        <ele>2282.8000488281</ele>
        <time>2023-07-25T13:40:08.000Z</time>
      </trkpt>
      <trkpt lat="42.70584" lon="1.18921">
        <ele>2283.1999511719</ele>
        <time>2023-07-25T13:40:11.000Z</time>
      </trkpt>
      <trkpt lat="42.70584" lon="1.18918">
        <ele>2283.8000488281</ele>
        <time>2023-07-25T13:40:15.000Z</time>
      </trkpt>
      <trkpt lat="42.70586" lon="1.18915">
        <ele>2284.6000976562</ele>
        <time>2023-07-25T13:40:18.000Z</time>
      </trkpt>
      <trkpt lat="42.70587" lon="1.18914">
        <ele>2285</ele>
        <time>2023-07-25T13:40:21.000Z</time>
      </trkpt>
      <trkpt lat="42.70591" lon="1.18914">
        <ele>2285.8000488281</ele>
        <time>2023-07-25T13:40:25.000Z</time>
      </trkpt>
      <trkpt lat="42.70591" lon="1.18914">
        <ele>2286</ele>
        <time>2023-07-25T13:40:26.000Z</time>
      </trkpt>
      <trkpt lat="42.70594" lon="1.18912">
        <ele>2287.1999511719</ele>
        <time>2023-07-25T13:40:32.000Z</time>
      </trkpt>
      <trkpt lat="42.70594" lon="1.1891">
        <ele>2288.1999511719</ele>
        <time>2023-07-25T13:40:38.000Z</time>
      </trkpt>
      <trkpt lat="42.70596" lon="1.18912">
        <ele>2289</ele>
        <time>2023-07-25T13:40:45.000Z</time>
      </trkpt>
    </trkseg>
  </trk>
</gpx>